<?xml version='1.0' encoding='UTF-8'?><gpx version="1.1" creator="JPX - https://github.com/jenetics/jpx" xmlns="http://www.topografix.com/GPX/1/1"><trk><trkseg><trkpt lat="43.43799222260208" lon="11.851032912471421"><ele>287.0</ele><time>2026-05-01T06:40:22.999Z</time></trkpt><trkpt lat="43.4378966770316" lon="11.851046436691613"><ele>286.0</ele><time>2026-05-01T06:40:25.999Z</time></trkpt><trkpt lat="43.4378188361431" lon="11.851054027021382"><ele>285.0</ele><time>2026-05-01T06:40:27.999Z</time></trkpt><trkpt lat="43.43774314493141" lon="11.85106900103805"><ele>284.0</ele><time>2026-05-01T06:40:29.999Z</time></trkpt><trkpt lat="43.43767590969806" lon="11.851123100209241"><ele>283.0</ele><time>2026-05-01T06:40:32.999Z</time></trkpt><trkpt lat="43.43762095147698" lon="11.851177208071624"><ele>282.0</ele><time>2026-05-01T06:40:35.999Z</time></trkpt><trkpt lat="43.437538697355144" lon="11.851251283041858"><ele>282.0</ele><time>2026-05-01T06:40:38.999Z</time></trkpt><trkpt lat="43.43744820079968" lon="11.851325498900108"><ele>282.0</ele><time>2026-05-01T06:40:40.999Z</time></trkpt><trkpt lat="43.43737363823898" lon="11.851355993805987"><ele>282.0</ele><time>2026-05-01T06:40:42.999Z</time></trkpt><trkpt lat="43.43726317947427" lon="11.851342215754537"><ele>282.0</ele><time>2026-05-01T06:40:44.999Z</time></trkpt><trkpt lat="43.43718398826033" lon="11.85133055488636"><ele>282.0</ele><time>2026-05-01T06:40:46.999Z</time></trkpt><trkpt lat="43.437109311043166" lon="11.851272359410084"><ele>282.5</ele><time>2026-05-01T06:40:49.999Z</time></trkpt><trkpt lat="43.437047124458445" lon="11.851230838028975"><ele>283.0</ele><time>2026-05-01T06:40:52.999Z</time></trkpt><trkpt lat="43.43697709663092" lon="11.851220610810001"><ele>283.5</ele><time>2026-05-01T06:40:54.999Z</time></trkpt><trkpt lat="43.43691246722172" lon="11.851170713800432"><ele>284.0</ele><time>2026-05-01T06:40:56.999Z</time></trkpt><trkpt lat="43.43683995124437" lon="11.851116748205103"><ele>284.5</ele><time>2026-05-01T06:40:58.999Z</time></trkpt><trkpt lat="43.43677030411506" lon="11.851060158407694"><ele>285.0</ele><time>2026-05-01T06:41:00.999Z</time></trkpt><trkpt lat="43.43670237416905" lon="11.850992482094881"><ele>284.6</ele><time>2026-05-01T06:41:02.999Z</time></trkpt><trkpt lat="43.43663532121717" lon="11.8509194719799"><ele>284.2</ele><time>2026-05-01T06:41:04.999Z</time></trkpt><trkpt lat="43.43656528032608" lon="11.850834881544408"><ele>283.8</ele><time>2026-05-01T06:41:06.999Z</time></trkpt><trkpt lat="43.436504997530584" lon="11.850724139448667"><ele>283.4</ele><time>2026-05-01T06:41:08.999Z</time></trkpt><trkpt lat="43.436454717427395" lon="11.850595674307622"><ele>283.0</ele><time>2026-05-01T06:41:10.999Z</time></trkpt><trkpt lat="43.43642179814276" lon="11.850450237387482"><ele>283.0</ele><time>2026-05-01T06:41:12.999Z</time></trkpt><trkpt lat="43.43639306696778" lon="11.850289978663179"><ele>283.0</ele><time>2026-05-01T06:41:14.999Z</time></trkpt><trkpt lat="43.436344385608066" lon="11.850146169675984"><ele>283.0</ele><time>2026-05-01T06:41:16.999Z</time></trkpt><trkpt lat="43.436266139728666" lon="11.85001718053457"><ele>283.0</ele><time>2026-05-01T06:41:18.999Z</time></trkpt><trkpt lat="43.43622565724708" lon="11.849947233933538"><ele>283.0</ele><time>2026-05-01T06:41:19.999Z</time></trkpt><trkpt lat="43.43619533069539" lon="11.849866046994375"><ele>282.66666666666663</ele><time>2026-05-01T06:41:20.999Z</time></trkpt><trkpt lat="43.4361801338817" lon="11.849774761531465"><ele>282.3333333333333</ele><time>2026-05-01T06:41:21.999Z</time></trkpt><trkpt lat="43.436155122598294" lon="11.849606243784907"><ele>282.0</ele><time>2026-05-01T06:41:23.999Z</time></trkpt><trkpt lat="43.43611031692809" lon="11.84953196404959"><ele>281.6666666666667</ele><time>2026-05-01T06:41:24.999Z</time></trkpt><trkpt lat="43.43605074145599" lon="11.849478608854955"><ele>281.33333333333337</ele><time>2026-05-01T06:41:25.999Z</time></trkpt><trkpt lat="43.43598883684249" lon="11.84943099230083"><ele>281.0</ele><time>2026-05-01T06:41:26.999Z</time></trkpt><trkpt lat="43.43592496394729" lon="11.849380236879044"><ele>281.0</ele><time>2026-05-01T06:41:27.999Z</time></trkpt><trkpt lat="43.43586805469411" lon="11.849311858955442"><ele>281.0</ele><time>2026-05-01T06:41:28.999Z</time></trkpt><trkpt lat="43.4358252960171" lon="11.849224870071668"><ele>281.0</ele><time>2026-05-01T06:41:29.999Z</time></trkpt><trkpt lat="43.435791643031365" lon="11.849129485137999"><ele>281.0</ele><time>2026-05-01T06:41:30.999Z</time></trkpt><trkpt lat="43.435749670587015" lon="11.849041911530032"><ele>281.0</ele><time>2026-05-01T06:41:31.999Z</time></trkpt><trkpt lat="43.43570716639599" lon="11.84894904560061"><ele>281.0</ele><time>2026-05-01T06:41:32.999Z</time></trkpt><trkpt lat="43.43566172987661" lon="11.848856872351192"><ele>280.83333333333337</ele><time>2026-05-01T06:41:33.999Z</time></trkpt><trkpt lat="43.435615186960625" lon="11.848762631836076"><ele>280.6666666666667</ele><time>2026-05-01T06:41:35.001Z</time></trkpt><trkpt lat="43.43557268261257" lon="11.848666939957392"><ele>280.5</ele><time>2026-05-01T06:41:36.001Z</time></trkpt><trkpt lat="43.43552658015649" lon="11.848569546496226"><ele>280.3333333333333</ele><time>2026-05-01T06:41:37.001Z</time></trkpt><trkpt lat="43.435479709016974" lon="11.848472938355798"><ele>280.16666666666663</ele><time>2026-05-01T06:41:38.001Z</time></trkpt><trkpt lat="43.43543158746616" lon="11.848375978273918"><ele>280.0</ele><time>2026-05-01T06:41:39.001Z</time></trkpt><trkpt lat="43.435388234825176" lon="11.848275961005175"><ele>279.3333333333333</ele><time>2026-05-01T06:41:40.001Z</time></trkpt><trkpt lat="43.43534346141733" lon="11.848182429517378"><ele>278.66666666666663</ele><time>2026-05-01T06:41:41.001Z</time></trkpt><trkpt lat="43.43529460616208" lon="11.848084184108323"><ele>278.0</ele><time>2026-05-01T06:41:42.001Z</time></trkpt><trkpt lat="43.435250516327095" lon="11.847989382980554"><ele>277.3333333333333</ele><time>2026-05-01T06:41:43.001Z</time></trkpt><trkpt lat="43.43520443235842" lon="11.847895218632537"><ele>276.6666666666667</ele><time>2026-05-01T06:41:44.001Z</time></trkpt><trkpt lat="43.43516052339956" lon="11.84779889534769"><ele>276.0</ele><time>2026-05-01T06:41:45.001Z</time></trkpt><trkpt lat="43.43511277499744" lon="11.847703131459662"><ele>276.1666666666667</ele><time>2026-05-01T06:41:46.001Z</time></trkpt><trkpt lat="43.435067359868576" lon="11.847609481158162"><ele>276.3333333333333</ele><time>2026-05-01T06:41:47.001Z</time></trkpt><trkpt lat="43.4350231630865" lon="11.847513354696446"><ele>276.5</ele><time>2026-05-01T06:41:48.001Z</time></trkpt><trkpt lat="43.43497652005517" lon="11.847413566681405"><ele>276.66666666666663</ele><time>2026-05-01T06:41:49Z</time></trkpt><trkpt lat="43.43492970507121" lon="11.847314436191455"><ele>276.8333333333333</ele><time>2026-05-01T06:41:50Z</time></trkpt><trkpt lat="43.43488095378964" lon="11.847214592772868"><ele>277.0</ele><time>2026-05-01T06:41:51Z</time></trkpt><trkpt lat="43.43483405461172" lon="11.847112238007664"><ele>277.0</ele><time>2026-05-01T06:41:52Z</time></trkpt><trkpt lat="43.43478315967365" lon="11.847007533654326"><ele>277.0</ele><time>2026-05-01T06:41:53Z</time></trkpt><trkpt lat="43.434731150470924" lon="11.84690186271383"><ele>277.0</ele><time>2026-05-01T06:41:54Z</time></trkpt><trkpt lat="43.434679376170166" lon="11.846797313740952"><ele>277.0</ele><time>2026-05-01T06:41:55Z</time></trkpt><trkpt lat="43.43462968066168" lon="11.846688845459871"><ele>277.0</ele><time>2026-05-01T06:41:56Z</time></trkpt><trkpt lat="43.43457953289377" lon="11.846580879006797"><ele>276.2</ele><time>2026-05-01T06:41:57Z</time></trkpt><trkpt lat="43.434526097694985" lon="11.846472705856975"><ele>275.4</ele><time>2026-05-01T06:41:58Z</time></trkpt><trkpt lat="43.43447772734824" lon="11.846368350607515"><ele>274.6</ele><time>2026-05-01T06:41:59Z</time></trkpt><trkpt lat="43.43442261161721" lon="11.846255266901176"><ele>273.8</ele><time>2026-05-01T06:42:00Z</time></trkpt><trkpt lat="43.434365557509494" lon="11.846137844577134"><ele>273.0</ele><time>2026-05-01T06:42:01Z</time></trkpt><trkpt lat="43.43431220988259" lon="11.846028699961854"><ele>273.0</ele><time>2026-05-01T06:42:02Z</time></trkpt><trkpt lat="43.43425840537005" lon="11.845919469916026"><ele>273.0</ele><time>2026-05-01T06:42:03Z</time></trkpt><trkpt lat="43.4342048849666" lon="11.84581207726218"><ele>273.0</ele><time>2026-05-01T06:42:04Z</time></trkpt><trkpt lat="43.43414905607437" lon="11.845698621110271"><ele>273.0</ele><time>2026-05-01T06:42:05Z</time></trkpt><trkpt lat="43.43409434781299" lon="11.8455859796601"><ele>273.0</ele><time>2026-05-01T06:42:06Z</time></trkpt><trkpt lat="43.43403980188696" lon="11.845472088385538"><ele>273.0</ele><time>2026-05-01T06:42:07Z</time></trkpt><trkpt lat="43.43398689606383" lon="11.845364502951332"><ele>273.0</ele><time>2026-05-01T06:42:08Z</time></trkpt><trkpt lat="43.43393132895034" lon="11.845249701551145"><ele>273.0</ele><time>2026-05-01T06:42:09Z</time></trkpt><trkpt lat="43.433882074274464" lon="11.845138939509752"><ele>273.0</ele><time>2026-05-01T06:42:10Z</time></trkpt><trkpt lat="43.433827756682575" lon="11.845027368422066"><ele>273.0</ele><time>2026-05-01T06:42:11Z</time></trkpt><trkpt lat="43.43377485189106" lon="11.844916927569072"><ele>272.4</ele><time>2026-05-01T06:42:12Z</time></trkpt><trkpt lat="43.433721133944346" lon="11.844804403873695"><ele>271.8</ele><time>2026-05-01T06:42:13Z</time></trkpt><trkpt lat="43.43366620339547" lon="11.844694006474745"><ele>271.2</ele><time>2026-05-01T06:42:14Z</time></trkpt><trkpt lat="43.433613820165256" lon="11.844582910282321"><ele>270.6</ele><time>2026-05-01T06:42:15Z</time></trkpt><trkpt lat="43.43355854213207" lon="11.84446963911958"><ele>270.0</ele><time>2026-05-01T06:42:16Z</time></trkpt><trkpt lat="43.43350310280843" lon="11.844357041629811"><ele>270.0</ele><time>2026-05-01T06:42:17Z</time></trkpt><trkpt lat="43.43344656304203" lon="11.844242219257625"><ele>270.0</ele><time>2026-05-01T06:42:18Z</time></trkpt><trkpt lat="43.43339036062295" lon="11.844130462123665"><ele>270.0</ele><time>2026-05-01T06:42:19Z</time></trkpt><trkpt lat="43.43333051542544" lon="11.84401331936517"><ele>270.0</ele><time>2026-05-01T06:42:20Z</time></trkpt><trkpt lat="43.43326824893594" lon="11.843902556776355"><ele>270.0</ele><time>2026-05-01T06:42:21Z</time></trkpt><trkpt lat="43.433206948334856" lon="11.843792613172804"><ele>270.0</ele><time>2026-05-01T06:42:22Z</time></trkpt><trkpt lat="43.433132091437194" lon="11.843687610920105"><ele>270.0</ele><time>2026-05-01T06:42:23Z</time></trkpt><trkpt lat="43.433055962223285" lon="11.843581225133034"><ele>270.0</ele><time>2026-05-01T06:42:24Z</time></trkpt><trkpt lat="43.43297568320071" lon="11.843480669142837"><ele>270.0</ele><time>2026-05-01T06:42:25Z</time></trkpt><trkpt lat="43.43289283664685" lon="11.843386561423285"><ele>270.0</ele><time>2026-05-01T06:42:25.999Z</time></trkpt><trkpt lat="43.43280603546204" lon="11.843291443029328"><ele>269.6</ele><time>2026-05-01T06:42:26.999Z</time></trkpt><trkpt lat="43.43271966596087" lon="11.843197234057882"><ele>269.2</ele><time>2026-05-01T06:42:27.999Z</time></trkpt><trkpt lat="43.432634187376216" lon="11.84310832825125"><ele>268.8</ele><time>2026-05-01T06:42:28.999Z</time></trkpt><trkpt lat="43.4325471953274" lon="11.843020414762467"><ele>268.4</ele><time>2026-05-01T06:42:29.999Z</time></trkpt><trkpt lat="43.43245838718363" lon="11.842932444003921"><ele>268.0</ele><time>2026-05-01T06:42:30.999Z</time></trkpt><trkpt lat="43.432371052659434" lon="11.8428444506937"><ele>268.0</ele><time>2026-05-01T06:42:31.999Z</time></trkpt><trkpt lat="43.43228690396123" lon="11.84275459011526"><ele>268.0</ele><time>2026-05-01T06:42:32.999Z</time></trkpt><trkpt lat="43.43219923856383" lon="11.842668141158173"><ele>268.0</ele><time>2026-05-01T06:42:33.999Z</time></trkpt><trkpt lat="43.432113733958595" lon="11.842578986239324"><ele>268.0</ele><time>2026-05-01T06:42:34.999Z</time></trkpt><trkpt lat="43.43202757956777" lon="11.842490082086469"><ele>268.0</ele><time>2026-05-01T06:42:35.999Z</time></trkpt><trkpt lat="43.431940237108925" lon="11.842399713628053"><ele>267.4</ele><time>2026-05-01T06:42:36.999Z</time></trkpt><trkpt lat="43.43185321412193" lon="11.842313341669513"><ele>266.8</ele><time>2026-05-01T06:42:37.999Z</time></trkpt><trkpt lat="43.43176771100237" lon="11.842223783543039"><ele>266.2</ele><time>2026-05-01T06:42:38.999Z</time></trkpt><trkpt lat="43.431686254144594" lon="11.842136426438598"><ele>265.6</ele><time>2026-05-01T06:42:39.999Z</time></trkpt><trkpt lat="43.43160308276508" lon="11.842054116391848"><ele>265.0</ele><time>2026-05-01T06:42:40.999Z</time></trkpt><trkpt lat="43.431519424088464" lon="11.84196920363899"><ele>265.0</ele><time>2026-05-01T06:42:41.999Z</time></trkpt><trkpt lat="43.431438294909874" lon="11.84188311367475"><ele>265.0</ele><time>2026-05-01T06:42:42.999Z</time></trkpt><trkpt lat="43.43135514091669" lon="11.841800256323916"><ele>265.0</ele><time>2026-05-01T06:42:43.999Z</time></trkpt><trkpt lat="43.43127291762082" lon="11.84171708911075"><ele>265.0</ele><time>2026-05-01T06:42:44.999Z</time></trkpt><trkpt lat="43.4311891551617" lon="11.841631686914072"><ele>265.0</ele><time>2026-05-01T06:42:45.999Z</time></trkpt><trkpt lat="43.43110876313117" lon="11.841546916382331"><ele>264.6</ele><time>2026-05-01T06:42:46.999Z</time></trkpt><trkpt lat="43.431025926148955" lon="11.841461522888528"><ele>264.2</ele><time>2026-05-01T06:42:47.999Z</time></trkpt><trkpt lat="43.430946873573454" lon="11.841369319705194"><ele>263.8</ele><time>2026-05-01T06:42:48.999Z</time></trkpt><trkpt lat="43.43087354952677" lon="11.8412649231622"><ele>263.4</ele><time>2026-05-01T06:42:49.999Z</time></trkpt><trkpt lat="43.43081197272406" lon="11.841154962607378"><ele>263.0</ele><time>2026-05-01T06:42:50.999Z</time></trkpt><trkpt lat="43.43075786398921" lon="11.841037720031926"><ele>263.4</ele><time>2026-05-01T06:42:51.999Z</time></trkpt><trkpt lat="43.43069634085605" lon="11.8409335489653"><ele>263.8</ele><time>2026-05-01T06:42:52.999Z</time></trkpt><trkpt lat="43.43064186266123" lon="11.840824166853103"><ele>264.2</ele><time>2026-05-01T06:42:53.999Z</time></trkpt><trkpt lat="43.430587065869595" lon="11.840722665659447"><ele>264.6</ele><time>2026-05-01T06:42:54.999Z</time></trkpt><trkpt lat="43.43053415530501" lon="11.840620301786625"><ele>265.0</ele><time>2026-05-01T06:42:55.999Z</time></trkpt><trkpt lat="43.43047876296005" lon="11.840523949348416"><ele>265.0</ele><time>2026-05-01T06:42:56.999Z</time></trkpt><trkpt lat="43.43042731404191" lon="11.840424225900847"><ele>265.0</ele><time>2026-05-01T06:42:57.999Z</time></trkpt><trkpt lat="43.43037304355126" lon="11.840324461238406"><ele>265.0</ele><time>2026-05-01T06:42:58.999Z</time></trkpt><trkpt lat="43.430317568601716" lon="11.840222923690739"><ele>265.0</ele><time>2026-05-01T06:42:59.999Z</time></trkpt><trkpt lat="43.43026354000335" lon="11.840127010315516"><ele>265.0</ele><time>2026-05-01T06:43:00.999Z</time></trkpt><trkpt lat="43.430211150977144" lon="11.840030129845394"><ele>265.0</ele><time>2026-05-01T06:43:01.999Z</time></trkpt><trkpt lat="43.43015884261516" lon="11.839930472620944"><ele>265.0</ele><time>2026-05-01T06:43:02.999Z</time></trkpt><trkpt lat="43.43010265618036" lon="11.839831982941144"><ele>265.0</ele><time>2026-05-01T06:43:03.999Z</time></trkpt><trkpt lat="43.430055586704256" lon="11.83972915574102"><ele>265.0</ele><time>2026-05-01T06:43:04.999Z</time></trkpt><trkpt lat="43.42999227782946" lon="11.839637960281253"><ele>265.0</ele><time>2026-05-01T06:43:05.999Z</time></trkpt><trkpt lat="43.429942833435454" lon="11.839536986421518"><ele>265.0</ele><time>2026-05-01T06:43:06.999Z</time></trkpt><trkpt lat="43.429890565729686" lon="11.839440335425433"><ele>265.0</ele><time>2026-05-01T06:43:07.999Z</time></trkpt><trkpt lat="43.42983796091039" lon="11.839339680967907"><ele>265.0</ele><time>2026-05-01T06:43:08.999Z</time></trkpt><trkpt lat="43.42978513664837" lon="11.839241930022654"><ele>265.0</ele><time>2026-05-01T06:43:09.999Z</time></trkpt><trkpt lat="43.42973295164462" lon="11.839140672216596"><ele>265.0</ele><time>2026-05-01T06:43:10.999Z</time></trkpt><trkpt lat="43.42968066922992" lon="11.83903875212364"><ele>265.0</ele><time>2026-05-01T06:43:11.999Z</time></trkpt><trkpt lat="43.429629985587376" lon="11.83893499943366"><ele>265.0</ele><time>2026-05-01T06:43:12.999Z</time></trkpt><trkpt lat="43.42957432472827" lon="11.83883585875058"><ele>264.4</ele><time>2026-05-01T06:43:13.999Z</time></trkpt><trkpt lat="43.42951997603243" lon="11.838735763040413"><ele>263.8</ele><time>2026-05-01T06:43:14.999Z</time></trkpt><trkpt lat="43.429470011969826" lon="11.838634711740998"><ele>263.2</ele><time>2026-05-01T06:43:15.999Z</time></trkpt><trkpt lat="43.42941816321413" lon="11.838529376987745"><ele>262.6</ele><time>2026-05-01T06:43:16.999Z</time></trkpt><trkpt lat="43.42936254928046" lon="11.838426874271322"><ele>262.0</ele><time>2026-05-01T06:43:17.999Z</time></trkpt><trkpt lat="43.42930856958439" lon="11.838324235776266"><ele>262.0</ele><time>2026-05-01T06:43:18.999Z</time></trkpt><trkpt lat="43.42925035071555" lon="11.838215765132599"><ele>262.0</ele><time>2026-05-01T06:43:19.999Z</time></trkpt><trkpt lat="43.42919321885294" lon="11.838107866188654"><ele>262.0</ele><time>2026-05-01T06:43:20.999Z</time></trkpt><trkpt lat="43.42913983111684" lon="11.837997893598747"><ele>262.0</ele><time>2026-05-01T06:43:21.999Z</time></trkpt><trkpt lat="43.42908418503929" lon="11.837888621091397"><ele>262.0</ele><time>2026-05-01T06:43:22.999Z</time></trkpt><trkpt lat="43.42902478150146" lon="11.837781769014915"><ele>262.0</ele><time>2026-05-01T06:43:23.998Z</time></trkpt><trkpt lat="43.428968277189064" lon="11.837671360362908"><ele>262.0</ele><time>2026-05-01T06:43:24.998Z</time></trkpt><trkpt lat="43.42891127505784" lon="11.837557468612637"><ele>262.0</ele><time>2026-05-01T06:43:25.998Z</time></trkpt><trkpt lat="43.42885456299626" lon="11.837441645978792"><ele>262.0</ele><time>2026-05-01T06:43:26.998Z</time></trkpt><trkpt lat="43.42879409179794" lon="11.837322848394887"><ele>262.0</ele><time>2026-05-01T06:43:27.998Z</time></trkpt><trkpt lat="43.4287370594741" lon="11.837205236914292"><ele>261.0</ele><time>2026-05-01T06:43:28.998Z</time></trkpt><trkpt lat="43.42867836525075" lon="11.837086809896036"><ele>260.0</ele><time>2026-05-01T06:43:29.998Z</time></trkpt><trkpt lat="43.428618765673455" lon="11.836968308516735"><ele>259.0</ele><time>2026-05-01T06:43:30.998Z</time></trkpt><trkpt lat="43.4285618924102" lon="11.836849118793353"><ele>258.0</ele><time>2026-05-01T06:43:31.998Z</time></trkpt><trkpt lat="43.42850039943427" lon="11.836728541650766"><ele>257.0</ele><time>2026-05-01T06:43:32.998Z</time></trkpt><trkpt lat="43.4284414169301" lon="11.836609438131966"><ele>256.8</ele><time>2026-05-01T06:43:33.998Z</time></trkpt><trkpt lat="43.428385811988655" lon="11.836494120371613"><ele>256.6</ele><time>2026-05-01T06:43:34.998Z</time></trkpt><trkpt lat="43.42833056291886" lon="11.836383019131736"><ele>256.40000000000003</ele><time>2026-05-01T06:43:35.998Z</time></trkpt><trkpt lat="43.428276238234346" lon="11.836271587028914"><ele>256.2</ele><time>2026-05-01T06:43:36.998Z</time></trkpt><trkpt lat="43.42822546488753" lon="11.83616561935856"><ele>256.0</ele><time>2026-05-01T06:43:37.998Z</time></trkpt><trkpt lat="43.42817566535684" lon="11.836059403018345"><ele>255.83333333333331</ele><time>2026-05-01T06:43:38.998Z</time></trkpt><trkpt lat="43.42812469979696" lon="11.835954619612547"><ele>255.66666666666666</ele><time>2026-05-01T06:43:39.998Z</time></trkpt><trkpt lat="43.42807125091308" lon="11.835848170452442"><ele>255.5</ele><time>2026-05-01T06:43:41Z</time></trkpt><trkpt lat="43.42802328455411" lon="11.8357436464023"><ele>255.33333333333331</ele><time>2026-05-01T06:43:42Z</time></trkpt><trkpt lat="43.42797359787048" lon="11.835644704574907"><ele>255.16666666666666</ele><time>2026-05-01T06:43:43Z</time></trkpt><trkpt lat="43.42792480465216" lon="11.83554590301315"><ele>255.0</ele><time>2026-05-01T06:43:44Z</time></trkpt><trkpt lat="43.42787662271605" lon="11.835444839118214"><ele>254.33333333333334</ele><time>2026-05-01T06:43:45Z</time></trkpt><trkpt lat="43.42782805041329" lon="11.835344424217542"><ele>253.66666666666669</ele><time>2026-05-01T06:43:46Z</time></trkpt><trkpt lat="43.42777668183838" lon="11.835240105466351"><ele>253.0</ele><time>2026-05-01T06:43:47Z</time></trkpt><trkpt lat="43.427726005553815" lon="11.835141063475588"><ele>252.33333333333334</ele><time>2026-05-01T06:43:48Z</time></trkpt><trkpt lat="43.42767498275373" lon="11.835038570238385"><ele>251.66666666666669</ele><time>2026-05-01T06:43:49Z</time></trkpt><trkpt lat="43.42762585002159" lon="11.834938755999277"><ele>251.0</ele><time>2026-05-01T06:43:50Z</time></trkpt><trkpt lat="43.42757707479927" lon="11.834839772442182"><ele>251.00000000000003</ele><time>2026-05-01T06:43:51Z</time></trkpt><trkpt lat="43.42752907173232" lon="11.834741334648292"><ele>251.0</ele><time>2026-05-01T06:43:52Z</time></trkpt><trkpt lat="43.42748157685659" lon="11.834644654106878"><ele>251.0</ele><time>2026-05-01T06:43:53Z</time></trkpt><trkpt lat="43.42743407727246" lon="11.83454934797875"><ele>251.0</ele><time>2026-05-01T06:43:54Z</time></trkpt><trkpt lat="43.42738423444722" lon="11.834455270405044"><ele>251.00000000000003</ele><time>2026-05-01T06:43:55Z</time></trkpt><trkpt lat="43.42733924356398" lon="11.834357334755754"><ele>251.0</ele><time>2026-05-01T06:43:56Z</time></trkpt><trkpt lat="43.42729136816111" lon="11.834263170087816"><ele>251.00000000000003</ele><time>2026-05-01T06:43:57Z</time></trkpt><trkpt lat="43.4272449765034" lon="11.834168241320063"><ele>251.0</ele><time>2026-05-01T06:43:58Z</time></trkpt><trkpt lat="43.427203205718094" lon="11.834079823302378"><ele>251.0</ele><time>2026-05-01T06:43:59Z</time></trkpt><trkpt lat="43.42715815027181" lon="11.83398652748559"><ele>251.0</ele><time>2026-05-01T06:44:00Z</time></trkpt><trkpt lat="43.427114054615274" lon="11.833900539103524"><ele>251.00000000000003</ele><time>2026-05-01T06:44:01Z</time></trkpt><trkpt lat="43.42707087546822" lon="11.83380736408419"><ele>251.0</ele><time>2026-05-01T06:44:02Z</time></trkpt><trkpt lat="43.42702758065081" lon="11.833717015185846"><ele>250.71428571428567</ele><time>2026-05-01T06:44:03Z</time></trkpt><trkpt lat="43.4269846316243" lon="11.833628797805055"><ele>250.42857142857142</ele><time>2026-05-01T06:44:04Z</time></trkpt><trkpt lat="43.4269428434767" lon="11.833541432859107"><ele>250.1428571428571</ele><time>2026-05-01T06:44:05Z</time></trkpt><trkpt lat="43.42690245666169" lon="11.833452705002935"><ele>249.85714285714283</ele><time>2026-05-01T06:44:06Z</time></trkpt><trkpt lat="43.426859456417" lon="11.83336796997404"><ele>249.57142857142856</ele><time>2026-05-01T06:44:07Z</time></trkpt><trkpt lat="43.42682162696179" lon="11.83328452179284"><ele>249.28571428571428</ele><time>2026-05-01T06:44:08Z</time></trkpt><trkpt lat="43.42677972153365" lon="11.833203733026595"><ele>249.0</ele><time>2026-05-01T06:44:09Z</time></trkpt><trkpt lat="43.426738732514224" lon="11.833121347234071"><ele>249.0</ele><time>2026-05-01T06:44:10Z</time></trkpt><trkpt lat="43.42669893296959" lon="11.833034862360948"><ele>248.99999999999997</ele><time>2026-05-01T06:44:11Z</time></trkpt><trkpt lat="43.42665681785961" lon="11.832950196860823"><ele>249.0</ele><time>2026-05-01T06:44:12Z</time></trkpt><trkpt lat="43.426616834434554" lon="11.832864132850236"><ele>249.0</ele><time>2026-05-01T06:44:13Z</time></trkpt><trkpt lat="43.42657238585894" lon="11.832779584171913"><ele>248.99999999999997</ele><time>2026-05-01T06:44:14Z</time></trkpt><trkpt lat="43.42653000610755" lon="11.832697038178813"><ele>249.0</ele><time>2026-05-01T06:44:15Z</time></trkpt><trkpt lat="43.42648619762655" lon="11.8326124952879"><ele>249.0</ele><time>2026-05-01T06:44:16Z</time></trkpt><trkpt lat="43.426444658731654" lon="11.832527936136342"><ele>248.85714285714283</ele><time>2026-05-01T06:44:17Z</time></trkpt><trkpt lat="43.42640240168716" lon="11.832442473842617"><ele>248.7142857142857</ele><time>2026-05-01T06:44:18Z</time></trkpt><trkpt lat="43.426361845884976" lon="11.832359761469585"><ele>248.57142857142856</ele><time>2026-05-01T06:44:19Z</time></trkpt><trkpt lat="43.42632131210696" lon="11.832275370751436"><ele>248.42857142857144</ele><time>2026-05-01T06:44:20Z</time></trkpt><trkpt lat="43.426280509272246" lon="11.832190813118096"><ele>248.2857142857143</ele><time>2026-05-01T06:44:21Z</time></trkpt><trkpt lat="43.426235738355444" lon="11.832107078608592"><ele>248.14285714285717</ele><time>2026-05-01T06:44:22Z</time></trkpt><trkpt lat="43.42619162678631" lon="11.832025579180337"><ele>248.0</ele><time>2026-05-01T06:44:23Z</time></trkpt><trkpt lat="43.42614864084452" lon="11.831942382521115"><ele>247.85714285714286</ele><time>2026-05-01T06:44:24Z</time></trkpt><trkpt lat="43.426105986964174" lon="11.83186231024104"><ele>247.71428571428572</ele><time>2026-05-01T06:44:25Z</time></trkpt><trkpt lat="43.426060341884224" lon="11.83178196162721"><ele>247.57142857142858</ele><time>2026-05-01T06:44:26Z</time></trkpt><trkpt lat="43.42601528691325" lon="11.831702241603317"><ele>247.42857142857144</ele><time>2026-05-01T06:44:26.999Z</time></trkpt><trkpt lat="43.42597409160894" lon="11.831621549700245"><ele>247.28571428571428</ele><time>2026-05-01T06:44:27.999Z</time></trkpt><trkpt lat="43.425931943489765" lon="11.831537584635315"><ele>247.14285714285717</ele><time>2026-05-01T06:44:28.999Z</time></trkpt><trkpt lat="43.42589512901879" lon="11.831451587031347"><ele>247.0</ele><time>2026-05-01T06:44:29.999Z</time></trkpt><trkpt lat="43.425851303166695" lon="11.831370871682108"><ele>247.0</ele><time>2026-05-01T06:44:30.999Z</time></trkpt><trkpt lat="43.4258113560996" lon="11.831288869099389"><ele>247.0</ele><time>2026-05-01T06:44:31.999Z</time></trkpt><trkpt lat="43.42577178259277" lon="11.831204652823034"><ele>247.0</ele><time>2026-05-01T06:44:32.999Z</time></trkpt><trkpt lat="43.42573324738165" lon="11.831123954399462"><ele>247.0</ele><time>2026-05-01T06:44:33.999Z</time></trkpt><trkpt lat="43.42569293547359" lon="11.831043951515815"><ele>247.0</ele><time>2026-05-01T06:44:34.999Z</time></trkpt><trkpt lat="43.42565200424069" lon="11.830962532251782"><ele>247.0</ele><time>2026-05-01T06:44:35.999Z</time></trkpt><trkpt lat="43.42561008453808" lon="11.83088122586126"><ele>247.0</ele><time>2026-05-01T06:44:36.999Z</time></trkpt><trkpt lat="43.42556953205844" lon="11.830798630106186"><ele>247.0</ele><time>2026-05-01T06:44:37.999Z</time></trkpt><trkpt lat="43.42552799251475" lon="11.830717532771436"><ele>247.0</ele><time>2026-05-01T06:44:38.999Z</time></trkpt><trkpt lat="43.425488386564325" lon="11.830634078538244"><ele>247.0</ele><time>2026-05-01T06:44:39.999Z</time></trkpt><trkpt lat="43.42544939162281" lon="11.830553693476098"><ele>247.0</ele><time>2026-05-01T06:44:40.999Z</time></trkpt><trkpt lat="43.4254088090877" lon="11.83047183846694"><ele>247.0</ele><time>2026-05-01T06:44:41.999Z</time></trkpt><trkpt lat="43.42536887463744" lon="11.830389921007557"><ele>247.0</ele><time>2026-05-01T06:44:42.999Z</time></trkpt><trkpt lat="43.42533026318233" lon="11.830310617595698"><ele>247.0</ele><time>2026-05-01T06:44:43.999Z</time></trkpt><trkpt lat="43.42528900357444" lon="11.830228974916917"><ele>247.0</ele><time>2026-05-01T06:44:44.999Z</time></trkpt><trkpt lat="43.42524856512235" lon="11.830147544997352"><ele>247.0</ele><time>2026-05-01T06:44:45.999Z</time></trkpt><trkpt lat="43.42520901344988" lon="11.830064659564979"><ele>247.0</ele><time>2026-05-01T06:44:46.999Z</time></trkpt><trkpt lat="43.42516875635971" lon="11.829981420534832"><ele>247.0</ele><time>2026-05-01T06:44:47.999Z</time></trkpt><trkpt lat="43.425128647774216" lon="11.829900350606634"><ele>247.0</ele><time>2026-05-01T06:44:48.999Z</time></trkpt><trkpt lat="43.42508951308542" lon="11.829818430464014"><ele>247.0</ele><time>2026-05-01T06:44:49.999Z</time></trkpt><trkpt lat="43.4250520604134" lon="11.829737243720375"><ele>247.0</ele><time>2026-05-01T06:44:50.999Z</time></trkpt><trkpt lat="43.42501367400461" lon="11.829654685872663"><ele>247.0</ele><time>2026-05-01T06:44:51.999Z</time></trkpt><trkpt lat="43.42497380121434" lon="11.829572497852025"><ele>247.0</ele><time>2026-05-01T06:44:52.999Z</time></trkpt><trkpt lat="43.424934445807594" lon="11.829492102698566"><ele>247.0</ele><time>2026-05-01T06:44:53.999Z</time></trkpt><trkpt lat="43.42489790183724" lon="11.829409726836852"><ele>247.0</ele><time>2026-05-01T06:44:54.999Z</time></trkpt><trkpt lat="43.42486004542208" lon="11.829329414402348"><ele>247.0</ele><time>2026-05-01T06:44:55.999Z</time></trkpt><trkpt lat="43.42482155601774" lon="11.829250979356386"><ele>247.0</ele><time>2026-05-01T06:44:56.999Z</time></trkpt><trkpt lat="43.42478300911654" lon="11.829170484727618"><ele>247.0</ele><time>2026-05-01T06:44:57.999Z</time></trkpt><trkpt lat="43.42474405082793" lon="11.829092069254871"><ele>247.0</ele><time>2026-05-01T06:44:58.999Z</time></trkpt><trkpt lat="43.42470536776721" lon="11.829014624088343"><ele>247.0</ele><time>2026-05-01T06:44:59.999Z</time></trkpt><trkpt lat="43.42466525624366" lon="11.828934590498193"><ele>247.0</ele><time>2026-05-01T06:45:00.999Z</time></trkpt><trkpt lat="43.424627422363564" lon="11.82885944442995"><ele>247.0</ele><time>2026-05-01T06:45:01.999Z</time></trkpt><trkpt lat="43.42458998966906" lon="11.82877997280605"><ele>247.0</ele><time>2026-05-01T06:45:02.999Z</time></trkpt><trkpt lat="43.42455185217587" lon="11.82870437898868"><ele>247.0</ele><time>2026-05-01T06:45:03.999Z</time></trkpt><trkpt lat="43.42451526898377" lon="11.828628367874616"><ele>247.0</ele><time>2026-05-01T06:45:04.999Z</time></trkpt><trkpt lat="43.42447799915921" lon="11.828550385962702"><ele>247.0</ele><time>2026-05-01T06:45:05.999Z</time></trkpt><trkpt lat="43.42444246467776" lon="11.82847184824268"><ele>247.0</ele><time>2026-05-01T06:45:06.999Z</time></trkpt><trkpt lat="43.42440452443473" lon="11.828397960810928"><ele>247.0</ele><time>2026-05-01T06:45:07.999Z</time></trkpt><trkpt lat="43.42436748731811" lon="11.82832226439128"><ele>247.0</ele><time>2026-05-01T06:45:08.999Z</time></trkpt><trkpt lat="43.42433044266958" lon="11.82824767025332"><ele>247.0</ele><time>2026-05-01T06:45:09.999Z</time></trkpt><trkpt lat="43.42429466128161" lon="11.82816854818891"><ele>247.0</ele><time>2026-05-01T06:45:10.999Z</time></trkpt><trkpt lat="43.424255472964084" lon="11.828091240971315"><ele>247.0</ele><time>2026-05-01T06:45:11.999Z</time></trkpt><trkpt lat="43.42421890511755" lon="11.82801349794868"><ele>247.0</ele><time>2026-05-01T06:45:12.999Z</time></trkpt><trkpt lat="43.42418152320085" lon="11.827937455539669"><ele>247.0</ele><time>2026-05-01T06:45:13.999Z</time></trkpt><trkpt lat="43.42414563730528" lon="11.82786054097113"><ele>247.0</ele><time>2026-05-01T06:45:14.999Z</time></trkpt><trkpt lat="43.4241087370266" lon="11.827785351113842"><ele>247.0</ele><time>2026-05-01T06:45:15.999Z</time></trkpt><trkpt lat="43.424074073301824" lon="11.827707492349372"><ele>247.0</ele><time>2026-05-01T06:45:16.999Z</time></trkpt><trkpt lat="43.42403784291239" lon="11.82763192511831"><ele>247.0</ele><time>2026-05-01T06:45:17.999Z</time></trkpt><trkpt lat="43.42400183999196" lon="11.827557553934849"><ele>247.0</ele><time>2026-05-01T06:45:18.999Z</time></trkpt><trkpt lat="43.423965629824444" lon="11.82748127726927"><ele>247.0</ele><time>2026-05-01T06:45:19.998Z</time></trkpt><trkpt lat="43.42392980361365" lon="11.827405319701146"><ele>247.0</ele><time>2026-05-01T06:45:20.998Z</time></trkpt><trkpt lat="43.42389373444613" lon="11.827330547859233"><ele>247.0</ele><time>2026-05-01T06:45:21.998Z</time></trkpt><trkpt lat="43.42385834275141" lon="11.827254816355385"><ele>247.0</ele><time>2026-05-01T06:45:22.998Z</time></trkpt><trkpt lat="43.42382129437967" lon="11.827180699342414"><ele>247.0</ele><time>2026-05-01T06:45:23.998Z</time></trkpt><trkpt lat="43.42378292186819" lon="11.82710644888535"><ele>247.0</ele><time>2026-05-01T06:45:24.998Z</time></trkpt><trkpt lat="43.423748910669374" lon="11.82703044538264"><ele>247.0</ele><time>2026-05-01T06:45:25.998Z</time></trkpt><trkpt lat="43.42371233485245" lon="11.826955901171251"><ele>247.14285714285717</ele><time>2026-05-01T06:45:26.998Z</time></trkpt><trkpt lat="43.423676713039846" lon="11.826882113952864"><ele>247.28571428571428</ele><time>2026-05-01T06:45:27.998Z</time></trkpt><trkpt lat="43.42364158329875" lon="11.82680651563918"><ele>247.42857142857144</ele><time>2026-05-01T06:45:28.998Z</time></trkpt><trkpt lat="43.42357284277764" lon="11.826662050419085"><ele>247.57142857142858</ele><time>2026-05-01T06:45:30.998Z</time></trkpt><trkpt lat="43.42353725933669" lon="11.826588258990645"><ele>247.71428571428572</ele><time>2026-05-01T06:45:31.998Z</time></trkpt><trkpt lat="43.42350237740258" lon="11.826515799670359"><ele>247.85714285714286</ele><time>2026-05-01T06:45:32.998Z</time></trkpt><trkpt lat="43.42346772097742" lon="11.826442944202036"><ele>248.0</ele><time>2026-05-01T06:45:33.998Z</time></trkpt><trkpt lat="43.42343410624198" lon="11.826366653713913"><ele>248.14285714285717</ele><time>2026-05-01T06:45:34.998Z</time></trkpt><trkpt lat="43.42339896400303" lon="11.826290012821241"><ele>248.2857142857143</ele><time>2026-05-01T06:45:35.998Z</time></trkpt><trkpt lat="43.42336085650187" lon="11.82621223491967"><ele>248.42857142857144</ele><time>2026-05-01T06:45:36.998Z</time></trkpt><trkpt lat="43.42332362609606" lon="11.826134176895158"><ele>248.57142857142856</ele><time>2026-05-01T06:45:37.998Z</time></trkpt><trkpt lat="43.4232866148478" lon="11.826054919129803"><ele>248.7142857142857</ele><time>2026-05-01T06:45:38.998Z</time></trkpt><trkpt lat="43.42324911980668" lon="11.825976504101602"><ele>248.85714285714283</ele><time>2026-05-01T06:45:39.998Z</time></trkpt><trkpt lat="43.423212743557734" lon="11.825895174795772"><ele>249.0</ele><time>2026-05-01T06:45:40.998Z</time></trkpt><trkpt lat="43.42317472330002" lon="11.825807436505876"><ele>248.7142857142857</ele><time>2026-05-01T06:45:41.998Z</time></trkpt><trkpt lat="43.42313703398148" lon="11.825730681773246"><ele>248.4285714285714</ele><time>2026-05-01T06:45:42.998Z</time></trkpt><trkpt lat="43.42310134030081" lon="11.82565288944737"><ele>248.14285714285714</ele><time>2026-05-01T06:45:43.998Z</time></trkpt><trkpt lat="43.42306361894743" lon="11.825577092327356"><ele>247.85714285714283</ele><time>2026-05-01T06:45:44.998Z</time></trkpt><trkpt lat="43.42302550498453" lon="11.825500060726197"><ele>247.57142857142856</ele><time>2026-05-01T06:45:45.998Z</time></trkpt><trkpt lat="43.422985721551065" lon="11.825420480201057"><ele>247.28571428571428</ele><time>2026-05-01T06:45:47Z</time></trkpt><trkpt lat="43.422949154140255" lon="11.825344796351352"><ele>247.0</ele><time>2026-05-01T06:45:48Z</time></trkpt><trkpt lat="43.42291309673568" lon="11.82527237308822"><ele>246.99999999999997</ele><time>2026-05-01T06:45:49Z</time></trkpt><trkpt lat="43.42287837954827" lon="11.825192701876071"><ele>247.0</ele><time>2026-05-01T06:45:50Z</time></trkpt><trkpt lat="43.42283857979118" lon="11.825120900786299"><ele>247.0</ele><time>2026-05-01T06:45:51Z</time></trkpt><trkpt lat="43.42280555273157" lon="11.825044061029082"><ele>247.0</ele><time>2026-05-01T06:45:52Z</time></trkpt><trkpt lat="43.422768543869125" lon="11.824962213837752"><ele>246.99999999999997</ele><time>2026-05-01T06:45:53Z</time></trkpt><trkpt lat="43.422698315872346" lon="11.824814410911555"><ele>247.0</ele><time>2026-05-01T06:45:55Z</time></trkpt><trkpt lat="43.42266389872619" lon="11.824739772319282"><ele>246.71428571428572</ele><time>2026-05-01T06:45:56Z</time></trkpt><trkpt lat="43.4226275369935" lon="11.824664119640417"><ele>246.42857142857142</ele><time>2026-05-01T06:45:57Z</time></trkpt><trkpt lat="43.42259223474756" lon="11.824589077478866"><ele>246.14285714285714</ele><time>2026-05-01T06:45:58Z</time></trkpt><trkpt lat="43.422555249864956" lon="11.824511631955545"><ele>245.85714285714286</ele><time>2026-05-01T06:45:59Z</time></trkpt><trkpt lat="43.42251854561224" lon="11.824436841068316"><ele>245.57142857142856</ele><time>2026-05-01T06:46:00Z</time></trkpt><trkpt lat="43.422484127007905" lon="11.824362733089998"><ele>245.28571428571428</ele><time>2026-05-01T06:46:01Z</time></trkpt><trkpt lat="43.42244905777685" lon="11.824284236412959"><ele>245.0</ele><time>2026-05-01T06:46:02Z</time></trkpt><trkpt lat="43.42241245009892" lon="11.824209353599898"><ele>245.0</ele><time>2026-05-01T06:46:03Z</time></trkpt><trkpt lat="43.42237497304748" lon="11.824131981163806"><ele>245.0</ele><time>2026-05-01T06:46:04Z</time></trkpt><trkpt lat="43.422338674856604" lon="11.824056163175337"><ele>245.0</ele><time>2026-05-01T06:46:05Z</time></trkpt><trkpt lat="43.42230185025655" lon="11.823981679092403"><ele>245.0</ele><time>2026-05-01T06:46:06Z</time></trkpt><trkpt lat="43.42226477776104" lon="11.823905349695064"><ele>245.0</ele><time>2026-05-01T06:46:07Z</time></trkpt><trkpt lat="43.42222548553553" lon="11.82382637554747"><ele>245.0</ele><time>2026-05-01T06:46:08Z</time></trkpt><trkpt lat="43.422187757153544" lon="11.82374855000102"><ele>245.0</ele><time>2026-05-01T06:46:09Z</time></trkpt><trkpt lat="43.42214975506462" lon="11.823669673594585"><ele>244.71428571428572</ele><time>2026-05-01T06:46:10Z</time></trkpt><trkpt lat="43.42211137952136" lon="11.823586899034861"><ele>244.42857142857144</ele><time>2026-05-01T06:46:11Z</time></trkpt><trkpt lat="43.42207308108548" lon="11.823505010512159"><ele>244.14285714285714</ele><time>2026-05-01T06:46:12Z</time></trkpt><trkpt lat="43.42203390341942" lon="11.823425381652006"><ele>243.85714285714286</ele><time>2026-05-01T06:46:13Z</time></trkpt><trkpt lat="43.42199393896088" lon="11.823343963715592"><ele>243.57142857142858</ele><time>2026-05-01T06:46:14Z</time></trkpt><trkpt lat="43.4219559476466" lon="11.823258469219121"><ele>243.28571428571428</ele><time>2026-05-01T06:46:15Z</time></trkpt><trkpt lat="43.4219162751881" lon="11.823172557811946"><ele>243.0</ele><time>2026-05-01T06:46:16Z</time></trkpt><trkpt lat="43.42187564999894" lon="11.823087113235133"><ele>242.85714285714283</ele><time>2026-05-01T06:46:17Z</time></trkpt><trkpt lat="43.42183680168566" lon="11.822999830826943"><ele>242.71428571428572</ele><time>2026-05-01T06:46:18Z</time></trkpt><trkpt lat="43.42179993930031" lon="11.822914871351164"><ele>242.57142857142856</ele><time>2026-05-01T06:46:19Z</time></trkpt><trkpt lat="43.42175597353748" lon="11.822827289301618"><ele>242.42857142857142</ele><time>2026-05-01T06:46:20Z</time></trkpt><trkpt lat="43.421716863289596" lon="11.822746137058521"><ele>242.28571428571428</ele><time>2026-05-01T06:46:21Z</time></trkpt><trkpt lat="43.42167621181878" lon="11.82266527919493"><ele>242.14285714285714</ele><time>2026-05-01T06:46:22Z</time></trkpt><trkpt lat="43.4216367492521" lon="11.822580614546037"><ele>242.0</ele><time>2026-05-01T06:46:23Z</time></trkpt><trkpt lat="43.421599522407206" lon="11.822497671080702"><ele>242.42857142857142</ele><time>2026-05-01T06:46:24Z</time></trkpt><trkpt lat="43.421560351712294" lon="11.82241111322178"><ele>242.85714285714283</ele><time>2026-05-01T06:46:25Z</time></trkpt><trkpt lat="43.421521407228994" lon="11.822328084608838"><ele>243.28571428571428</ele><time>2026-05-01T06:46:26Z</time></trkpt><trkpt lat="43.42147978804908" lon="11.822242668740305"><ele>243.71428571428572</ele><time>2026-05-01T06:46:27Z</time></trkpt><trkpt lat="43.42144005792157" lon="11.822161062089847"><ele>244.14285714285714</ele><time>2026-05-01T06:46:28Z</time></trkpt><trkpt lat="43.4214026724966" lon="11.82207781845993"><ele>244.57142857142856</ele><time>2026-05-01T06:46:29Z</time></trkpt><trkpt lat="43.42136521856959" lon="11.821994904623354"><ele>245.0</ele><time>2026-05-01T06:46:30Z</time></trkpt><trkpt lat="43.421324894887064" lon="11.821911656921671"><ele>244.85714285714286</ele><time>2026-05-01T06:46:31Z</time></trkpt><trkpt lat="43.42128705162215" lon="11.821827284571311"><ele>244.71428571428572</ele><time>2026-05-01T06:46:32Z</time></trkpt><trkpt lat="43.42124674337389" lon="11.821744010631251"><ele>244.57142857142856</ele><time>2026-05-01T06:46:33Z</time></trkpt><trkpt lat="43.4212078627376" lon="11.82166148247834"><ele>244.42857142857142</ele><time>2026-05-01T06:46:34Z</time></trkpt><trkpt lat="43.42117005017425" lon="11.821579199792218"><ele>244.28571428571428</ele><time>2026-05-01T06:46:35Z</time></trkpt><trkpt lat="43.42113257532908" lon="11.821497915262285"><ele>244.1428571428571</ele><time>2026-05-01T06:46:35.999Z</time></trkpt><trkpt lat="43.42109335169883" lon="11.821417763350757"><ele>243.99999999999997</ele><time>2026-05-01T06:46:36.999Z</time></trkpt><trkpt lat="43.421054945340735" lon="11.821338647083268"><ele>243.99999999999997</ele><time>2026-05-01T06:46:37.999Z</time></trkpt><trkpt lat="43.42101757581509" lon="11.82126019189301"><ele>244.0</ele><time>2026-05-01T06:46:38.999Z</time></trkpt><trkpt lat="43.420979255376636" lon="11.821182936011"><ele>243.99999999999997</ele><time>2026-05-01T06:46:39.999Z</time></trkpt><trkpt lat="43.42094360006809" lon="11.821104275198387"><ele>243.99999999999997</ele><time>2026-05-01T06:46:40.999Z</time></trkpt><trkpt lat="43.42090828174113" lon="11.821025564506812"><ele>244.0</ele><time>2026-05-01T06:46:41.999Z</time></trkpt><trkpt lat="43.4208729543576" lon="11.820948386832418"><ele>243.99999999999997</ele><time>2026-05-01T06:46:42.999Z</time></trkpt><trkpt lat="43.420836736963594" lon="11.820873240007419"><ele>243.99999999999997</ele><time>2026-05-01T06:46:43.999Z</time></trkpt><trkpt lat="43.420799229269264" lon="11.820792223569791"><ele>244.1428571428571</ele><time>2026-05-01T06:46:44.999Z</time></trkpt><trkpt lat="43.42076346689541" lon="11.820715166264806"><ele>244.28571428571428</ele><time>2026-05-01T06:46:45.999Z</time></trkpt><trkpt lat="43.42072741876085" lon="11.820638738254763"><ele>244.42857142857142</ele><time>2026-05-01T06:46:46.999Z</time></trkpt><trkpt lat="43.420690472712586" lon="11.820563237311541"><ele>244.57142857142856</ele><time>2026-05-01T06:46:47.999Z</time></trkpt><trkpt lat="43.42065591169977" lon="11.82048507028037"><ele>244.71428571428572</ele><time>2026-05-01T06:46:48.999Z</time></trkpt><trkpt lat="43.42062042552515" lon="11.820407191494605"><ele>244.85714285714286</ele><time>2026-05-01T06:46:49.999Z</time></trkpt><trkpt lat="43.420585279081195" lon="11.820327138704199"><ele>245.0</ele><time>2026-05-01T06:46:50.999Z</time></trkpt><trkpt lat="43.42054741539468" lon="11.82024894467606"><ele>245.0</ele><time>2026-05-01T06:46:51.999Z</time></trkpt><trkpt lat="43.42051036258784" lon="11.82017375362116"><ele>245.0</ele><time>2026-05-01T06:46:52.999Z</time></trkpt><trkpt lat="43.42047324379917" lon="11.820092129655455"><ele>245.0</ele><time>2026-05-01T06:46:53.999Z</time></trkpt><trkpt lat="43.4204359884833" lon="11.82001649456285"><ele>245.0</ele><time>2026-05-01T06:46:54.999Z</time></trkpt><trkpt lat="43.4203999555711" lon="11.819937635562518"><ele>245.0</ele><time>2026-05-01T06:46:55.999Z</time></trkpt><trkpt lat="43.42036463260335" lon="11.819861289676295"><ele>245.0</ele><time>2026-05-01T06:46:56.999Z</time></trkpt><trkpt lat="43.42032799886086" lon="11.819784286219004"><ele>245.0</ele><time>2026-05-01T06:46:57.999Z</time></trkpt><trkpt lat="43.42029371185989" lon="11.819705800442257"><ele>245.0</ele><time>2026-05-01T06:46:58.999Z</time></trkpt><trkpt lat="43.42025720470343" lon="11.819628578394695"><ele>245.0</ele><time>2026-05-01T06:46:59.999Z</time></trkpt><trkpt lat="43.42022231052328" lon="11.819553005347553"><ele>245.0</ele><time>2026-05-01T06:47:00.999Z</time></trkpt><trkpt lat="43.42018368228024" lon="11.819475655717934"><ele>245.0</ele><time>2026-05-01T06:47:01.999Z</time></trkpt><trkpt lat="43.42014751566541" lon="11.819398744969922"><ele>245.0</ele><time>2026-05-01T06:47:02.999Z</time></trkpt><trkpt lat="43.4201125246218" lon="11.819320589787976"><ele>245.0</ele><time>2026-05-01T06:47:03.999Z</time></trkpt><trkpt lat="43.42007595710623" lon="11.819244835136535"><ele>245.0</ele><time>2026-05-01T06:47:04.999Z</time></trkpt><trkpt lat="43.42003782465204" lon="11.819169254473339"><ele>245.0</ele><time>2026-05-01T06:47:05.999Z</time></trkpt><trkpt lat="43.420001560402945" lon="11.819089510770102"><ele>245.0</ele><time>2026-05-01T06:47:06.999Z</time></trkpt><trkpt lat="43.41996568746937" lon="11.819013948434"><ele>245.0</ele><time>2026-05-01T06:47:07.999Z</time></trkpt><trkpt lat="43.419927641307595" lon="11.818936328553823"><ele>245.0</ele><time>2026-05-01T06:47:08.999Z</time></trkpt><trkpt lat="43.41988954921664" lon="11.818860441557248"><ele>245.0</ele><time>2026-05-01T06:47:09.999Z</time></trkpt><trkpt lat="43.41985298244244" lon="11.818780484825604"><ele>245.0</ele><time>2026-05-01T06:47:10.999Z</time></trkpt><trkpt lat="43.41981544979695" lon="11.818701921164461"><ele>245.0</ele><time>2026-05-01T06:47:11.999Z</time></trkpt><trkpt lat="43.419777411623606" lon="11.818624467958283"><ele>245.0</ele><time>2026-05-01T06:47:12.999Z</time></trkpt><trkpt lat="43.419743514621246" lon="11.818548095379802"><ele>245.0</ele><time>2026-05-01T06:47:13.999Z</time></trkpt><trkpt lat="43.41969989042915" lon="11.818466293125379"><ele>245.0</ele><time>2026-05-01T06:47:14.999Z</time></trkpt><trkpt lat="43.41966247525956" lon="11.818389479478272"><ele>245.0</ele><time>2026-05-01T06:47:15.999Z</time></trkpt><trkpt lat="43.419627723809214" lon="11.818312299669529"><ele>245.0</ele><time>2026-05-01T06:47:16.999Z</time></trkpt><trkpt lat="43.41959313597752" lon="11.818231962232048"><ele>245.0</ele><time>2026-05-01T06:47:17.999Z</time></trkpt><trkpt lat="43.41955765494407" lon="11.818157546190516"><ele>245.0</ele><time>2026-05-01T06:47:18.999Z</time></trkpt><trkpt lat="43.419518397146696" lon="11.818077653351095"><ele>244.85714285714286</ele><time>2026-05-01T06:47:19.999Z</time></trkpt><trkpt lat="43.41948417102507" lon="11.817999522140287"><ele>244.71428571428572</ele><time>2026-05-01T06:47:20.999Z</time></trkpt><trkpt lat="43.41944673037898" lon="11.817923268662039"><ele>244.57142857142856</ele><time>2026-05-01T06:47:21.999Z</time></trkpt><trkpt lat="43.41940891719493" lon="11.817843213132988"><ele>244.42857142857142</ele><time>2026-05-01T06:47:22.999Z</time></trkpt><trkpt lat="43.41937379609827" lon="11.817768919515885"><ele>244.28571428571428</ele><time>2026-05-01T06:47:23.999Z</time></trkpt><trkpt lat="43.419335492769086" lon="11.817695457309902"><ele>244.1428571428571</ele><time>2026-05-01T06:47:24.999Z</time></trkpt><trkpt lat="43.41930192373243" lon="11.817618808690911"><ele>243.99999999999997</ele><time>2026-05-01T06:47:25.998Z</time></trkpt><trkpt lat="43.41926460803782" lon="11.817543990498436"><ele>243.99999999999997</ele><time>2026-05-01T06:47:26.998Z</time></trkpt><trkpt lat="43.419228820637066" lon="11.817463381075763"><ele>244.0</ele><time>2026-05-01T06:47:27.998Z</time></trkpt><trkpt lat="43.41919518010986" lon="11.817389654812862"><ele>243.99999999999997</ele><time>2026-05-01T06:47:28.998Z</time></trkpt><trkpt lat="43.41916154542513" lon="11.81731631978855"><ele>243.99999999999997</ele><time>2026-05-01T06:47:29.998Z</time></trkpt><trkpt lat="43.419125018098846" lon="11.817241498381719"><ele>244.0</ele><time>2026-05-01T06:47:30.998Z</time></trkpt><trkpt lat="43.41908689198876" lon="11.81716382053606"><ele>243.99999999999997</ele><time>2026-05-01T06:47:31.998Z</time></trkpt><trkpt lat="43.41905240099002" lon="11.817089523591042"><ele>243.99999999999997</ele><time>2026-05-01T06:47:32.998Z</time></trkpt><trkpt lat="43.41901599781755" lon="11.817013960544646"><ele>244.0</ele><time>2026-05-01T06:47:33.998Z</time></trkpt><trkpt lat="43.418948726754245" lon="11.816862076078193"><ele>243.99999999999997</ele><time>2026-05-01T06:47:35.998Z</time></trkpt><trkpt lat="43.41887646830217" lon="11.816713040266608"><ele>243.99999999999997</ele><time>2026-05-01T06:47:37.998Z</time></trkpt><trkpt lat="43.418841077073395" lon="11.81663231562853"><ele>244.0</ele><time>2026-05-01T06:47:38.998Z</time></trkpt><trkpt lat="43.418806657986515" lon="11.816556319852214"><ele>244.0</ele><time>2026-05-01T06:47:39.998Z</time></trkpt><trkpt lat="43.41877041320177" lon="11.81647440912731"><ele>243.71428571428567</ele><time>2026-05-01T06:47:40.998Z</time></trkpt><trkpt lat="43.41873399250046" lon="11.816399700665412"><ele>243.42857142857142</ele><time>2026-05-01T06:47:41.998Z</time></trkpt><trkpt lat="43.41869879840557" lon="11.81632006354776"><ele>243.1428571428571</ele><time>2026-05-01T06:47:42.998Z</time></trkpt><trkpt lat="43.41866398198348" lon="11.816243590709076"><ele>242.85714285714283</ele><time>2026-05-01T06:47:43.998Z</time></trkpt><trkpt lat="43.418626533901296" lon="11.816165577595102"><ele>242.57142857142856</ele><time>2026-05-01T06:47:44.998Z</time></trkpt><trkpt lat="43.41859365627981" lon="11.816086213460608"><ele>242.28571428571428</ele><time>2026-05-01T06:47:45.998Z</time></trkpt><trkpt lat="43.4185531635759" lon="11.816012578244349"><ele>242.0</ele><time>2026-05-01T06:47:46.998Z</time></trkpt><trkpt lat="43.418516028200315" lon="11.815935061920998"><ele>242.0</ele><time>2026-05-01T06:47:47.998Z</time></trkpt><trkpt lat="43.41848102576991" lon="11.815857019368519"><ele>241.99999999999997</ele><time>2026-05-01T06:47:48.998Z</time></trkpt><trkpt lat="43.41843948702341" lon="11.81578010991194"><ele>242.0</ele><time>2026-05-01T06:47:49.998Z</time></trkpt><trkpt lat="43.41840096742036" lon="11.815698642937567"><ele>242.0</ele><time>2026-05-01T06:47:50.998Z</time></trkpt><trkpt lat="43.41836454189775" lon="11.815616227676877"><ele>241.99999999999997</ele><time>2026-05-01T06:47:51.998Z</time></trkpt><trkpt lat="43.41832681046277" lon="11.81553670145879"><ele>242.0</ele><time>2026-05-01T06:47:53Z</time></trkpt><trkpt lat="43.41829083167448" lon="11.815458194700122"><ele>242.0</ele><time>2026-05-01T06:47:54Z</time></trkpt><trkpt lat="43.418253133468006" lon="11.815378605864069"><ele>242.00000000000003</ele><time>2026-05-01T06:47:55Z</time></trkpt><trkpt lat="43.418217260683925" lon="11.815297815139234"><ele>242.0</ele><time>2026-05-01T06:47:56Z</time></trkpt><trkpt lat="43.4181809316084" lon="11.815220391995968"><ele>242.0</ele><time>2026-05-01T06:47:57Z</time></trkpt><trkpt lat="43.418143194337254" lon="11.815143229582429"><ele>242.0</ele><time>2026-05-01T06:47:58Z</time></trkpt><trkpt lat="43.41810399047234" lon="11.815067716099348"><ele>242.00000000000003</ele><time>2026-05-01T06:47:59Z</time></trkpt><trkpt lat="43.41806717845164" lon="11.814994999274932"><ele>242.0</ele><time>2026-05-01T06:48:00Z</time></trkpt><trkpt lat="43.41799360742564" lon="11.814854333620655"><ele>241.85714285714283</ele><time>2026-05-01T06:48:02Z</time></trkpt><trkpt lat="43.41795678394361" lon="11.814780942321615"><ele>241.7142857142857</ele><time>2026-05-01T06:48:03Z</time></trkpt><trkpt lat="43.417919397515135" lon="11.814709406010847"><ele>241.57142857142856</ele><time>2026-05-01T06:48:04Z</time></trkpt><trkpt lat="43.41788291245846" lon="11.81463752424001"><ele>241.42857142857144</ele><time>2026-05-01T06:48:05Z</time></trkpt><trkpt lat="43.41784766730566" lon="11.814564223069231"><ele>241.2857142857143</ele><time>2026-05-01T06:48:06Z</time></trkpt><trkpt lat="43.41780712224948" lon="11.814488620006856"><ele>241.14285714285717</ele><time>2026-05-01T06:48:07Z</time></trkpt><trkpt lat="43.417767602173285" lon="11.814409682629217"><ele>241.0</ele><time>2026-05-01T06:48:08Z</time></trkpt><trkpt lat="43.417730895200556" lon="11.814334219478502"><ele>241.42857142857144</ele><time>2026-05-01T06:48:09Z</time></trkpt><trkpt lat="43.41769402180619" lon="11.814256780369917"><ele>241.8571428571429</ele><time>2026-05-01T06:48:10Z</time></trkpt><trkpt lat="43.417657276568704" lon="11.814179552442285"><ele>242.28571428571428</ele><time>2026-05-01T06:48:11Z</time></trkpt><trkpt lat="43.41762070232061" lon="11.814101213950043"><ele>242.71428571428572</ele><time>2026-05-01T06:48:12Z</time></trkpt><trkpt lat="43.417584735203796" lon="11.814025409976706"><ele>243.14285714285714</ele><time>2026-05-01T06:48:13Z</time></trkpt><trkpt lat="43.417548499461326" lon="11.813950132144262"><ele>243.57142857142856</ele><time>2026-05-01T06:48:14Z</time></trkpt><trkpt lat="43.4175135328582" lon="11.81387420931386"><ele>243.99999999999997</ele><time>2026-05-01T06:48:15Z</time></trkpt><trkpt lat="43.41747554361822" lon="11.813795796834402"><ele>243.99999999999997</ele><time>2026-05-01T06:48:16Z</time></trkpt><trkpt lat="43.417438440301794" lon="11.813722317996376"><ele>244.0</ele><time>2026-05-01T06:48:17Z</time></trkpt><trkpt lat="43.41740285405219" lon="11.813643822272695"><ele>243.99999999999997</ele><time>2026-05-01T06:48:18Z</time></trkpt><trkpt lat="43.417363908497315" lon="11.813564431059667"><ele>243.99999999999997</ele><time>2026-05-01T06:48:19Z</time></trkpt><trkpt lat="43.41732658650575" lon="11.813488587801555"><ele>244.0</ele><time>2026-05-01T06:48:20Z</time></trkpt><trkpt lat="43.4172891513288" lon="11.813412807011364"><ele>243.99999999999997</ele><time>2026-05-01T06:48:21Z</time></trkpt><trkpt lat="43.41725049214171" lon="11.813332337610074"><ele>243.99999999999997</ele><time>2026-05-01T06:48:22Z</time></trkpt><trkpt lat="43.41721457687888" lon="11.813253179615414"><ele>243.99999999999997</ele><time>2026-05-01T06:48:23Z</time></trkpt><trkpt lat="43.41717668172405" lon="11.813176140140193"><ele>244.0</ele><time>2026-05-01T06:48:24Z</time></trkpt><trkpt lat="43.417139678965384" lon="11.813095444691564"><ele>243.99999999999997</ele><time>2026-05-01T06:48:25Z</time></trkpt><trkpt lat="43.41710081780135" lon="11.813016405040916"><ele>243.99999999999997</ele><time>2026-05-01T06:48:26Z</time></trkpt><trkpt lat="43.417062995891136" lon="11.812935437909147"><ele>244.0</ele><time>2026-05-01T06:48:27Z</time></trkpt><trkpt lat="43.41702603900044" lon="11.812858469162954"><ele>243.99999999999997</ele><time>2026-05-01T06:48:28Z</time></trkpt><trkpt lat="43.416987662939924" lon="11.812777737123113"><ele>243.99999999999997</ele><time>2026-05-01T06:48:29Z</time></trkpt><trkpt lat="43.41695002170434" lon="11.81269916689168"><ele>244.1428571428571</ele><time>2026-05-01T06:48:30Z</time></trkpt><trkpt lat="43.41691237455834" lon="11.812620170933686"><ele>244.28571428571428</ele><time>2026-05-01T06:48:31Z</time></trkpt><trkpt lat="43.41687375607778" lon="11.812543830901772"><ele>244.42857142857142</ele><time>2026-05-01T06:48:32Z</time></trkpt><trkpt lat="43.4168367252635" lon="11.812462729460199"><ele>244.57142857142856</ele><time>2026-05-01T06:48:33Z</time></trkpt><trkpt lat="43.41679979105244" lon="11.812384045336493"><ele>244.71428571428572</ele><time>2026-05-01T06:48:34Z</time></trkpt><trkpt lat="43.416765332607476" lon="11.812305185013164"><ele>244.85714285714286</ele><time>2026-05-01T06:48:35Z</time></trkpt><trkpt lat="43.416726425176414" lon="11.812229729957432"><ele>245.0</ele><time>2026-05-01T06:48:36Z</time></trkpt><trkpt lat="43.41669067996238" lon="11.812153169941308"><ele>245.0</ele><time>2026-05-01T06:48:37Z</time></trkpt><trkpt lat="43.416654061530714" lon="11.812074662641335"><ele>245.0</ele><time>2026-05-01T06:48:38Z</time></trkpt><trkpt lat="43.41661725183329" lon="11.811997734526447"><ele>245.0</ele><time>2026-05-01T06:48:38.999Z</time></trkpt><trkpt lat="43.41658117747528" lon="11.811923225242051"><ele>245.0</ele><time>2026-05-01T06:48:39.999Z</time></trkpt><trkpt lat="43.41654518611303" lon="11.81184858194121"><ele>245.0</ele><time>2026-05-01T06:48:40.999Z</time></trkpt><trkpt lat="43.416509204459786" lon="11.81177338905634"><ele>245.0</ele><time>2026-05-01T06:48:41.999Z</time></trkpt><trkpt lat="43.4164747549034" lon="11.81169753629982"><ele>245.0</ele><time>2026-05-01T06:48:42.999Z</time></trkpt><trkpt lat="43.41643964964145" lon="11.811622434649761"><ele>245.2</ele><time>2026-05-01T06:48:43.999Z</time></trkpt><trkpt lat="43.41637313053608" lon="11.811475931564404"><ele>245.4</ele><time>2026-05-01T06:48:45.999Z</time></trkpt><trkpt lat="43.41633897903813" lon="11.811402827349818"><ele>245.60000000000002</ele><time>2026-05-01T06:48:46.999Z</time></trkpt><trkpt lat="43.416269197026104" lon="11.811258666622535"><ele>245.8</ele><time>2026-05-01T06:48:48.999Z</time></trkpt><trkpt lat="43.416200039377095" lon="11.81111261592912"><ele>246.0</ele><time>2026-05-01T06:48:50.999Z</time></trkpt><trkpt lat="43.4161648451664" lon="11.81103720223438"><ele>245.66666666666666</ele><time>2026-05-01T06:48:51.999Z</time></trkpt><trkpt lat="43.41612887784544" lon="11.810964228762566"><ele>245.33333333333331</ele><time>2026-05-01T06:48:52.999Z</time></trkpt><trkpt lat="43.416093726014154" lon="11.810889507787733"><ele>245.0</ele><time>2026-05-01T06:48:53.999Z</time></trkpt><trkpt lat="43.416059498025184" lon="11.810816024654049"><ele>244.66666666666666</ele><time>2026-05-01T06:48:54.999Z</time></trkpt><trkpt lat="43.416025337720185" lon="11.81074296114458"><ele>244.33333333333331</ele><time>2026-05-01T06:48:55.999Z</time></trkpt><trkpt lat="43.41595614545269" lon="11.81060136612175"><ele>244.0</ele><time>2026-05-01T06:48:57.999Z</time></trkpt><trkpt lat="43.4158870959454" lon="11.810458417043657"><ele>243.99999999999997</ele><time>2026-05-01T06:48:59.999Z</time></trkpt><trkpt lat="43.41585115739652" lon="11.810385191801565"><ele>244.0</ele><time>2026-05-01T06:49:00.999Z</time></trkpt><trkpt lat="43.41578205832388" lon="11.810241191779475"><ele>244.0</ele><time>2026-05-01T06:49:02.999Z</time></trkpt><trkpt lat="43.41574697336389" lon="11.810168881060433"><ele>244.0</ele><time>2026-05-01T06:49:03.999Z</time></trkpt><trkpt lat="43.415712608633775" lon="11.810093656016369"><ele>243.99999999999997</ele><time>2026-05-01T06:49:04.999Z</time></trkpt><trkpt lat="43.41564331535456" lon="11.809948291274592"><ele>244.0</ele><time>2026-05-01T06:49:06.999Z</time></trkpt><trkpt lat="43.41560661978853" lon="11.809875633274563"><ele>243.79999999999998</ele><time>2026-05-01T06:49:07.999Z</time></trkpt><trkpt lat="43.415537940138464" lon="11.80973145938146"><ele>243.59999999999997</ele><time>2026-05-01T06:49:09.999Z</time></trkpt><trkpt lat="43.41550396487511" lon="11.809656378799643"><ele>243.4</ele><time>2026-05-01T06:49:10.999Z</time></trkpt><trkpt lat="43.415438224783024" lon="11.80951698105882"><ele>243.2</ele><time>2026-05-01T06:49:12.999Z</time></trkpt><trkpt lat="43.41540524579137" lon="11.809442901417748"><ele>243.0</ele><time>2026-05-01T06:49:13.999Z</time></trkpt><trkpt lat="43.41534031977798" lon="11.809305574907155"><ele>243.5</ele><time>2026-05-01T06:49:15.999Z</time></trkpt><trkpt lat="43.41527078017747" lon="11.809165076598656"><ele>244.0</ele><time>2026-05-01T06:49:17.999Z</time></trkpt><trkpt lat="43.4152027579204" lon="11.809027913191775"><ele>244.5</ele><time>2026-05-01T06:49:19.999Z</time></trkpt><trkpt lat="43.415136858897625" lon="11.808890876870635"><ele>245.0</ele><time>2026-05-01T06:49:21.999Z</time></trkpt><trkpt lat="43.415071079433275" lon="11.80875415984739"><ele>245.0</ele><time>2026-05-01T06:49:23.999Z</time></trkpt><trkpt lat="43.41500783942137" lon="11.808615670852944"><ele>245.0</ele><time>2026-05-01T06:49:25.999Z</time></trkpt><trkpt lat="43.41494220845554" lon="11.808477479530007"><ele>245.0</ele><time>2026-05-01T06:49:27.998Z</time></trkpt><trkpt lat="43.41487130157088" lon="11.80833508910101"><ele>245.0</ele><time>2026-05-01T06:49:29.998Z</time></trkpt><trkpt lat="43.41483717157232" lon="11.808261216390889"><ele>245.0</ele><time>2026-05-01T06:49:30.998Z</time></trkpt><trkpt lat="43.41476891061599" lon="11.808112309046562"><ele>244.83333333333334</ele><time>2026-05-01T06:49:32.998Z</time></trkpt><trkpt lat="43.4146993402624" lon="11.80796675294125"><ele>244.66666666666669</ele><time>2026-05-01T06:49:34.998Z</time></trkpt><trkpt lat="43.41466532607162" lon="11.807893165437747"><ele>244.5</ele><time>2026-05-01T06:49:35.998Z</time></trkpt><trkpt lat="43.41462886935858" lon="11.807819356656205"><ele>244.33333333333331</ele><time>2026-05-01T06:49:36.998Z</time></trkpt><trkpt lat="43.414592883518715" lon="11.807745452636452"><ele>244.16666666666666</ele><time>2026-05-01T06:49:37.998Z</time></trkpt><trkpt lat="43.41455842720869" lon="11.807672222513663"><ele>244.0</ele><time>2026-05-01T06:49:38.998Z</time></trkpt><trkpt lat="43.414490012315426" lon="11.80753476944643"><ele>243.99999999999997</ele><time>2026-05-01T06:49:40.998Z</time></trkpt><trkpt lat="43.41445720942089" lon="11.807457876594606"><ele>244.0</ele><time>2026-05-01T06:49:41.998Z</time></trkpt><trkpt lat="43.41442368991603" lon="11.807383431043846"><ele>244.0</ele><time>2026-05-01T06:49:42.998Z</time></trkpt><trkpt lat="43.41438848022575" lon="11.807310692483165"><ele>244.0</ele><time>2026-05-01T06:49:43.998Z</time></trkpt><trkpt lat="43.41435275108562" lon="11.80723744659248"><ele>243.99999999999997</ele><time>2026-05-01T06:49:44.998Z</time></trkpt><trkpt lat="43.41428361588066" lon="11.807096939258397"><ele>244.0</ele><time>2026-05-01T06:49:46.998Z</time></trkpt><trkpt lat="43.41421663305662" lon="11.80695489755698"><ele>244.5</ele><time>2026-05-01T06:49:48.998Z</time></trkpt><trkpt lat="43.41415003369201" lon="11.806814391848533"><ele>245.0</ele><time>2026-05-01T06:49:50.998Z</time></trkpt><trkpt lat="43.41408017165132" lon="11.806677978675651"><ele>245.5</ele><time>2026-05-01T06:49:52.998Z</time></trkpt><trkpt lat="43.41401477257279" lon="11.806534849206606"><ele>246.0</ele><time>2026-05-01T06:49:54.998Z</time></trkpt><trkpt lat="43.4139495838568" lon="11.806397814094979"><ele>246.0</ele><time>2026-05-01T06:49:56.998Z</time></trkpt><trkpt lat="43.41388577406305" lon="11.806259027244794"><ele>246.0</ele><time>2026-05-01T06:49:59Z</time></trkpt><trkpt lat="43.413814830398806" lon="11.806118543868038"><ele>246.0</ele><time>2026-05-01T06:50:01Z</time></trkpt><trkpt lat="43.41375074519771" lon="11.805968709667185"><ele>246.0</ele><time>2026-05-01T06:50:03Z</time></trkpt><trkpt lat="43.41368014423863" lon="11.805813690044575"><ele>245.5</ele><time>2026-05-01T06:50:05Z</time></trkpt><trkpt lat="43.41361143602965" lon="11.805669567381164"><ele>245.0</ele><time>2026-05-01T06:50:07Z</time></trkpt><trkpt lat="43.413543541508034" lon="11.805525103628739"><ele>244.5</ele><time>2026-05-01T06:50:09Z</time></trkpt><trkpt lat="43.41347552840722" lon="11.805384865590273"><ele>244.0</ele><time>2026-05-01T06:50:11Z</time></trkpt><trkpt lat="43.41341161052623" lon="11.80524230253364"><ele>244.39999999999998</ele><time>2026-05-01T06:50:13Z</time></trkpt><trkpt lat="43.41334653524151" lon="11.805100833628341"><ele>244.79999999999998</ele><time>2026-05-01T06:50:15Z</time></trkpt><trkpt lat="43.413279949932225" lon="11.804960163193796"><ele>245.20000000000002</ele><time>2026-05-01T06:50:17Z</time></trkpt><trkpt lat="43.41324301567839" lon="11.804889406715002"><ele>245.60000000000002</ele><time>2026-05-01T06:50:18Z</time></trkpt><trkpt lat="43.41317713079476" lon="11.804745379594321"><ele>246.0</ele><time>2026-05-01T06:50:20Z</time></trkpt><trkpt lat="43.41314144979565" lon="11.804673535666268"><ele>246.0</ele><time>2026-05-01T06:50:21Z</time></trkpt><trkpt lat="43.4130753283969" lon="11.80453666931776"><ele>246.00000000000003</ele><time>2026-05-01T06:50:23Z</time></trkpt><trkpt lat="43.4130431073561" lon="11.80446108002724"><ele>246.00000000000003</ele><time>2026-05-01T06:50:24Z</time></trkpt><trkpt lat="43.41300642457802" lon="11.804386064012162"><ele>246.0</ele><time>2026-05-01T06:50:25Z</time></trkpt><trkpt lat="43.41294036212071" lon="11.804244442739165"><ele>246.0</ele><time>2026-05-01T06:50:27Z</time></trkpt><trkpt lat="43.41287341376916" lon="11.80410089060067"><ele>246.25</ele><time>2026-05-01T06:50:29Z</time></trkpt><trkpt lat="43.41280522287806" lon="11.803957538152833"><ele>246.5</ele><time>2026-05-01T06:50:31Z</time></trkpt><trkpt lat="43.41274065831728" lon="11.803817144594204"><ele>246.75</ele><time>2026-05-01T06:50:33Z</time></trkpt><trkpt lat="43.41267547043795" lon="11.80368086288964"><ele>247.0</ele><time>2026-05-01T06:50:35Z</time></trkpt><trkpt lat="43.41260781358259" lon="11.803546166702922"><ele>247.0</ele><time>2026-05-01T06:50:37Z</time></trkpt><trkpt lat="43.41257500507985" lon="11.803470965967508"><ele>247.0</ele><time>2026-05-01T06:50:38Z</time></trkpt><trkpt lat="43.412504440128906" lon="11.803332735639378"><ele>247.0</ele><time>2026-05-01T06:50:39.999Z</time></trkpt><trkpt lat="43.412435055449016" lon="11.803192904620108"><ele>247.0</ele><time>2026-05-01T06:50:41.999Z</time></trkpt><trkpt lat="43.412372585410736" lon="11.803054547818965"><ele>247.0</ele><time>2026-05-01T06:50:43.999Z</time></trkpt><trkpt lat="43.412306369882074" lon="11.802916423083254"><ele>246.99999999999997</ele><time>2026-05-01T06:50:45.999Z</time></trkpt><trkpt lat="43.41223991215213" lon="11.802779673605936"><ele>247.0</ele><time>2026-05-01T06:50:47.999Z</time></trkpt><trkpt lat="43.41220231025822" lon="11.802709025110163"><ele>247.0</ele><time>2026-05-01T06:50:48.999Z</time></trkpt><trkpt lat="43.41216597622632" lon="11.802637505373504"><ele>247.0</ele><time>2026-05-01T06:50:49.999Z</time></trkpt><trkpt lat="43.412100103509296" lon="11.802494872132991"><ele>246.99999999999997</ele><time>2026-05-01T06:50:51.999Z</time></trkpt><trkpt lat="43.41206295573888" lon="11.802423078937913"><ele>247.0</ele><time>2026-05-01T06:50:52.999Z</time></trkpt><trkpt lat="43.41202523747076" lon="11.802350351314287"><ele>246.8</ele><time>2026-05-01T06:50:53.999Z</time></trkpt><trkpt lat="43.41198819997182" lon="11.802278215068569"><ele>246.6</ele><time>2026-05-01T06:50:54.999Z</time></trkpt><trkpt lat="43.41195428161562" lon="11.802204794634743"><ele>246.40000000000003</ele><time>2026-05-01T06:50:55.999Z</time></trkpt><trkpt lat="43.41188624949569" lon="11.80206408903745"><ele>246.20000000000002</ele><time>2026-05-01T06:50:57.999Z</time></trkpt><trkpt lat="43.41181389459265" lon="11.801921863346173"><ele>246.0</ele><time>2026-05-01T06:50:59.999Z</time></trkpt><trkpt lat="43.41174930309324" lon="11.801775397109639"><ele>246.0</ele><time>2026-05-01T06:51:01.999Z</time></trkpt><trkpt lat="43.411676972805715" lon="11.801626994043607"><ele>246.00000000000003</ele><time>2026-05-01T06:51:03.999Z</time></trkpt><trkpt lat="43.411605649633124" lon="11.801485377082841"><ele>246.00000000000003</ele><time>2026-05-01T06:51:05.999Z</time></trkpt><trkpt lat="43.4115714698775" lon="11.801412486696142"><ele>246.0</ele><time>2026-05-01T06:51:06.999Z</time></trkpt><trkpt lat="43.411504297606875" lon="11.801267121816956"><ele>246.0</ele><time>2026-05-01T06:51:08.999Z</time></trkpt><trkpt lat="43.4114701815632" lon="11.801193184335016"><ele>246.0</ele><time>2026-05-01T06:51:09.999Z</time></trkpt><trkpt lat="43.411400161974434" lon="11.801049999849848"><ele>246.00000000000003</ele><time>2026-05-01T06:51:11.999Z</time></trkpt><trkpt lat="43.41136225265689" lon="11.800976363862002"><ele>246.00000000000003</ele><time>2026-05-01T06:51:12.999Z</time></trkpt><trkpt lat="43.41132803891048" lon="11.800901728879099"><ele>246.0</ele><time>2026-05-01T06:51:13.999Z</time></trkpt><trkpt lat="43.411260802608545" lon="11.800755478346703"><ele>246.0</ele><time>2026-05-01T06:51:15.999Z</time></trkpt><trkpt lat="43.41119223797488" lon="11.800611892589599"><ele>246.60000000000002</ele><time>2026-05-01T06:51:17.999Z</time></trkpt><trkpt lat="43.41115490887389" lon="11.800540404320568"><ele>247.20000000000002</ele><time>2026-05-01T06:51:18.999Z</time></trkpt><trkpt lat="43.41108333146564" lon="11.800393181847237"><ele>247.79999999999998</ele><time>2026-05-01T06:51:20.999Z</time></trkpt><trkpt lat="43.411015580117095" lon="11.800243852211484"><ele>248.39999999999998</ele><time>2026-05-01T06:51:22.999Z</time></trkpt><trkpt lat="43.410947221162054" lon="11.800100830011514"><ele>249.0</ele><time>2026-05-01T06:51:24.999Z</time></trkpt><trkpt lat="43.41091059306189" lon="11.800026066183053"><ele>249.39999999999998</ele><time>2026-05-01T06:51:25.999Z</time></trkpt><trkpt lat="43.41084103036824" lon="11.799885046246342"><ele>249.79999999999998</ele><time>2026-05-01T06:51:27.998Z</time></trkpt><trkpt lat="43.410803108627654" lon="11.79980404042906"><ele>250.20000000000002</ele><time>2026-05-01T06:51:28.998Z</time></trkpt><trkpt lat="43.41076604944023" lon="11.799728848072883"><ele>250.60000000000002</ele><time>2026-05-01T06:51:29.998Z</time></trkpt><trkpt lat="43.41072632175423" lon="11.799654359193102"><ele>251.0</ele><time>2026-05-01T06:51:30.998Z</time></trkpt><trkpt lat="43.410659949748144" lon="11.79949756424959"><ele>251.0</ele><time>2026-05-01T06:51:32.998Z</time></trkpt><trkpt lat="43.41062396899615" lon="11.79942599425071"><ele>251.00000000000003</ele><time>2026-05-01T06:51:33.998Z</time></trkpt><trkpt lat="43.41055533409366" lon="11.799280872803893"><ele>251.00000000000003</ele><time>2026-05-01T06:51:35.998Z</time></trkpt><trkpt lat="43.41048241120735" lon="11.799148147160247"><ele>251.0</ele><time>2026-05-01T06:51:37.998Z</time></trkpt><trkpt lat="43.41041928055457" lon="11.799022260789636"><ele>251.0</ele><time>2026-05-01T06:51:39.998Z</time></trkpt><trkpt lat="43.410339254352444" lon="11.798903761568218"><ele>250.25</ele><time>2026-05-01T06:51:41.998Z</time></trkpt><trkpt lat="43.41028123558732" lon="11.798772603108988"><ele>249.5</ele><time>2026-05-01T06:51:43.998Z</time></trkpt><trkpt lat="43.41021349525316" lon="11.798650878566498"><ele>248.75</ele><time>2026-05-01T06:51:45.998Z</time></trkpt><trkpt lat="43.41013472989164" lon="11.798531325967325"><ele>248.0</ele><time>2026-05-01T06:51:47.998Z</time></trkpt><trkpt lat="43.41004403811379" lon="11.79844083355115"><ele>248.0</ele><time>2026-05-01T06:51:49.998Z</time></trkpt><trkpt lat="43.409944400556945" lon="11.798357495991528"><ele>248.0</ele><time>2026-05-01T06:51:51.998Z</time></trkpt><trkpt lat="43.40984063519816" lon="11.798265306750634"><ele>248.0</ele><time>2026-05-01T06:51:53.998Z</time></trkpt><trkpt lat="43.40979983388287" lon="11.79809704762535"><ele>248.0</ele><time>2026-05-01T06:51:55.998Z</time></trkpt><trkpt lat="43.40984620725816" lon="11.79801184677175"><ele>248.0</ele><time>2026-05-01T06:51:56.998Z</time></trkpt><trkpt lat="43.40987159178375" lon="11.797929313074771"><ele>248.0</ele><time>2026-05-01T06:51:57.998Z</time></trkpt><trkpt lat="43.40988716542229" lon="11.797844334489959"><ele>248.0</ele><time>2026-05-01T06:51:58.998Z</time></trkpt><trkpt lat="43.409894437286304" lon="11.797671205095494"><ele>248.0</ele><time>2026-05-01T06:52:00.998Z</time></trkpt><trkpt lat="43.409904968736434" lon="11.797499351238319"><ele>248.0</ele><time>2026-05-01T06:52:02.998Z</time></trkpt><trkpt lat="43.40990312303" lon="11.797333685148173"><ele>248.0</ele><time>2026-05-01T06:52:05Z</time></trkpt><trkpt lat="43.40990117868039" lon="11.797173737873225"><ele>248.25</ele><time>2026-05-01T06:52:07Z</time></trkpt><trkpt lat="43.40990466648289" lon="11.797010480347852"><ele>248.5</ele><time>2026-05-01T06:52:09Z</time></trkpt><trkpt lat="43.4099272525075" lon="11.796852370439057"><ele>248.75</ele><time>2026-05-01T06:52:11Z</time></trkpt><trkpt lat="43.409931885838745" lon="11.796690833305508"><ele>249.0</ele><time>2026-05-01T06:52:13Z</time></trkpt><trkpt lat="43.409942706457166" lon="11.79652857672284"><ele>249.0</ele><time>2026-05-01T06:52:15Z</time></trkpt><trkpt lat="43.40995044234141" lon="11.796374452342446"><ele>249.0</ele><time>2026-05-01T06:52:17Z</time></trkpt><trkpt lat="43.40996126512143" lon="11.796216513608789"><ele>249.0</ele><time>2026-05-01T06:52:19Z</time></trkpt><trkpt lat="43.40997183195576" lon="11.796061231006448"><ele>249.0</ele><time>2026-05-01T06:52:21Z</time></trkpt><trkpt lat="43.40998139086676" lon="11.795910786967356"><ele>248.83333333333334</ele><time>2026-05-01T06:52:23Z</time></trkpt><trkpt lat="43.40998866469632" lon="11.795761466453218"><ele>248.66666666666669</ele><time>2026-05-01T06:52:25Z</time></trkpt><trkpt lat="43.41000387701369" lon="11.795623789445651"><ele>248.5</ele><time>2026-05-01T06:52:27Z</time></trkpt><trkpt lat="43.4100207943845" lon="11.795521491891089"><ele>248.33333333333334</ele><time>2026-05-01T06:52:29Z</time></trkpt><trkpt lat="43.41000332594951" lon="11.795430540133568"><ele>248.16666666666669</ele><time>2026-05-01T06:54:54.999Z</time></trkpt><trkpt lat="43.410013133743966" lon="11.795333420477792"><ele>248.0</ele><time>2026-05-01T06:54:57.999Z</time></trkpt><trkpt lat="43.410014929838724" lon="11.795246247109615"><ele>248.00000000000003</ele><time>2026-05-01T06:54:59.999Z</time></trkpt><trkpt lat="43.410025494882696" lon="11.795145676087609"><ele>248.0</ele><time>2026-05-01T06:55:01.999Z</time></trkpt><trkpt lat="43.41003034864031" lon="11.795030195066095"><ele>248.0</ele><time>2026-05-01T06:55:03.999Z</time></trkpt><trkpt lat="43.410034223330186" lon="11.794908329956176"><ele>248.0</ele><time>2026-05-01T06:55:05.999Z</time></trkpt><trkpt lat="43.41004002589836" lon="11.794781640690195"><ele>248.00000000000003</ele><time>2026-05-01T06:55:07.999Z</time></trkpt><trkpt lat="43.41005261074595" lon="11.794657911441146"><ele>248.0</ele><time>2026-05-01T06:55:09.999Z</time></trkpt><trkpt lat="43.4100592344821" lon="11.794530632398377"><ele>248.0</ele><time>2026-05-01T06:55:11.999Z</time></trkpt><trkpt lat="43.410070859624874" lon="11.794404963098554"><ele>248.0</ele><time>2026-05-01T06:55:13.999Z</time></trkpt><trkpt lat="43.410079753708395" lon="11.794281209249448"><ele>248.0</ele><time>2026-05-01T06:55:15.999Z</time></trkpt><trkpt lat="43.410078063028095" lon="11.794147972451864"><ele>248.0</ele><time>2026-05-01T06:55:17.999Z</time></trkpt><trkpt lat="43.41007408737743" lon="11.794015684823046"><ele>248.0</ele><time>2026-05-01T06:55:19.999Z</time></trkpt><trkpt lat="43.41006910695609" lon="11.793878415773468"><ele>247.8</ele><time>2026-05-01T06:55:21.999Z</time></trkpt><trkpt lat="43.41006295897308" lon="11.793739006904591"><ele>247.60000000000002</ele><time>2026-05-01T06:55:23.999Z</time></trkpt><trkpt lat="43.410053920196674" lon="11.793594335120867"><ele>247.39999999999998</ele><time>2026-05-01T06:55:25.999Z</time></trkpt><trkpt lat="43.41004300587807" lon="11.79345233453343"><ele>247.2</ele><time>2026-05-01T06:55:27.999Z</time></trkpt><trkpt lat="43.41003845773219" lon="11.793310068441249"><ele>247.0</ele><time>2026-05-01T06:55:29.999Z</time></trkpt><trkpt lat="43.41002847963239" lon="11.793165323930653"><ele>247.0</ele><time>2026-05-01T06:55:31.999Z</time></trkpt><trkpt lat="43.41002043606381" lon="11.793026091030438"><ele>247.0</ele><time>2026-05-01T06:55:33.998Z</time></trkpt><trkpt lat="43.41001264343596" lon="11.792883436194527"><ele>247.0</ele><time>2026-05-01T06:55:35.998Z</time></trkpt><trkpt lat="43.41000225756416" lon="11.792740727943322"><ele>247.0</ele><time>2026-05-01T06:55:37.998Z</time></trkpt><trkpt lat="43.40999139489847" lon="11.792597554077709"><ele>247.0</ele><time>2026-05-01T06:55:39.998Z</time></trkpt><trkpt lat="43.40998297844196" lon="11.792457285749943"><ele>247.2</ele><time>2026-05-01T06:55:41.998Z</time></trkpt><trkpt lat="43.409973206970584" lon="11.792313719370851"><ele>247.39999999999998</ele><time>2026-05-01T06:55:43.998Z</time></trkpt><trkpt lat="43.409967171931356" lon="11.792165845845236"><ele>247.60000000000002</ele><time>2026-05-01T06:55:45.998Z</time></trkpt><trkpt lat="43.40995637802561" lon="11.792017720779649"><ele>247.8</ele><time>2026-05-01T06:55:47.998Z</time></trkpt><trkpt lat="43.4099484850541" lon="11.791870805979173"><ele>248.0</ele><time>2026-05-01T06:55:49.998Z</time></trkpt><trkpt lat="43.40994014833107" lon="11.79172776089362"><ele>248.5</ele><time>2026-05-01T06:55:51.998Z</time></trkpt><trkpt lat="43.409925377531835" lon="11.791515990338288"><ele>249.0</ele><time>2026-05-01T06:55:54.998Z</time></trkpt><trkpt lat="43.409926499271144" lon="11.791379414954735"><ele>249.5</ele><time>2026-05-01T06:55:56.998Z</time></trkpt><trkpt lat="43.40996819076128" lon="11.791251056073687"><ele>250.0</ele><time>2026-05-01T06:55:58.998Z</time></trkpt><trkpt lat="43.410026742761396" lon="11.791147422038907"><ele>250.0</ele><time>2026-05-01T06:56:00.998Z</time></trkpt><trkpt lat="43.410111950340124" lon="11.79110792378985"><ele>250.0</ele><time>2026-05-01T06:56:02.998Z</time></trkpt><trkpt lat="43.41020204381642" lon="11.791094901730098"><ele>250.0</ele><time>2026-05-01T06:56:04.998Z</time></trkpt><trkpt lat="43.41027752907529" lon="11.79101503388967"><ele>250.0</ele><time>2026-05-01T06:56:06.998Z</time></trkpt><trkpt lat="43.41032692761276" lon="11.790897338342928"><ele>250.0</ele><time>2026-05-01T06:56:08.998Z</time></trkpt><trkpt lat="43.41033094566159" lon="11.790756968639736"><ele>250.0</ele><time>2026-05-01T06:56:10.998Z</time></trkpt><trkpt lat="43.410297941471285" lon="11.79062337956786"><ele>250.0</ele><time>2026-05-01T06:56:12.998Z</time></trkpt><trkpt lat="43.41021817817187" lon="11.79052675958014"><ele>250.0</ele><time>2026-05-01T06:56:14.998Z</time></trkpt><trkpt lat="43.410108836005996" lon="11.79049166553487"><ele>250.0</ele><time>2026-05-01T06:56:17Z</time></trkpt><trkpt lat="43.4100060834215" lon="11.790454119441419"><ele>250.0</ele><time>2026-05-01T06:56:19Z</time></trkpt><trkpt lat="43.409901841286974" lon="11.790397535101283"><ele>250.0</ele><time>2026-05-01T06:56:21Z</time></trkpt><trkpt lat="43.40986938419751" lon="11.790312765690743"><ele>250.0</ele><time>2026-05-01T06:56:22Z</time></trkpt><trkpt lat="43.40980705721956" lon="11.790182399484806"><ele>250.0</ele><time>2026-05-01T06:56:24Z</time></trkpt><trkpt lat="43.40975879267844" lon="11.790042632711245"><ele>250.0</ele><time>2026-05-01T06:56:26Z</time></trkpt><trkpt lat="43.409712629954036" lon="11.789905381379699"><ele>250.0</ele><time>2026-05-01T06:56:28Z</time></trkpt><trkpt lat="43.40965851638593" lon="11.789778622544608"><ele>250.6</ele><time>2026-05-01T06:56:30Z</time></trkpt><trkpt lat="43.40960569499686" lon="11.789648701022328"><ele>251.2</ele><time>2026-05-01T06:56:32Z</time></trkpt><trkpt lat="43.40955399504275" lon="11.78952737531459"><ele>251.8</ele><time>2026-05-01T06:56:34Z</time></trkpt><trkpt lat="43.40950571878084" lon="11.789398414718958"><ele>252.4</ele><time>2026-05-01T06:56:36Z</time></trkpt><trkpt lat="43.40945379871142" lon="11.789271765221894"><ele>253.0</ele><time>2026-05-01T06:56:38Z</time></trkpt><trkpt lat="43.40940253137444" lon="11.789150172624112"><ele>253.0</ele><time>2026-05-01T06:56:40Z</time></trkpt><trkpt lat="43.40935286121181" lon="11.789025554293264"><ele>253.0</ele><time>2026-05-01T06:56:42Z</time></trkpt><trkpt lat="43.40930428858013" lon="11.788902902748239"><ele>253.0</ele><time>2026-05-01T06:56:44Z</time></trkpt><trkpt lat="43.409256475040706" lon="11.788783967259407"><ele>253.0</ele><time>2026-05-01T06:56:46Z</time></trkpt><trkpt lat="43.40920498228493" lon="11.78865983067024"><ele>253.0</ele><time>2026-05-01T06:56:48Z</time></trkpt><trkpt lat="43.40915613583049" lon="11.78854350279707"><ele>254.0</ele><time>2026-05-01T06:56:50Z</time></trkpt><trkpt lat="43.40910570798454" lon="11.788426188794883"><ele>255.0</ele><time>2026-05-01T06:56:51.999Z</time></trkpt><trkpt lat="43.40906368696648" lon="11.788303203018161"><ele>256.0</ele><time>2026-05-01T06:56:53.999Z</time></trkpt><trkpt lat="43.40901408109302" lon="11.7881894315987"><ele>257.0</ele><time>2026-05-01T06:56:55.999Z</time></trkpt><trkpt lat="43.408967503536616" lon="11.788074020708239"><ele>258.0</ele><time>2026-05-01T06:56:57.999Z</time></trkpt><trkpt lat="43.40891844861756" lon="11.787965310154803"><ele>258.0</ele><time>2026-05-01T06:56:59.999Z</time></trkpt><trkpt lat="43.408874859488506" lon="11.787860003888794"><ele>258.0</ele><time>2026-05-01T06:57:01.999Z</time></trkpt><trkpt lat="43.40883247822605" lon="11.787754942203518"><ele>258.0</ele><time>2026-05-01T06:57:03.999Z</time></trkpt><trkpt lat="43.40879281190371" lon="11.787647984238536"><ele>258.0</ele><time>2026-05-01T06:57:05.999Z</time></trkpt><trkpt lat="43.40874949663803" lon="11.787541805065402"><ele>258.0</ele><time>2026-05-01T06:57:07.999Z</time></trkpt><trkpt lat="43.40871179160399" lon="11.787433321498103"><ele>258.0</ele><time>2026-05-01T06:57:09.999Z</time></trkpt><trkpt lat="43.40867445383987" lon="11.787318514467165"><ele>258.1666666666667</ele><time>2026-05-01T06:57:11.999Z</time></trkpt><trkpt lat="43.40864592099833" lon="11.787203323375943"><ele>258.3333333333333</ele><time>2026-05-01T06:57:13.999Z</time></trkpt><trkpt lat="43.408621883629905" lon="11.787083254656288"><ele>258.5</ele><time>2026-05-01T06:57:15.999Z</time></trkpt><trkpt lat="43.408604271888706" lon="11.786964455318723"><ele>258.66666666666663</ele><time>2026-05-01T06:57:17.999Z</time></trkpt><trkpt lat="43.40859030892576" lon="11.786849169909488"><ele>258.8333333333333</ele><time>2026-05-01T06:57:19.999Z</time></trkpt><trkpt lat="43.4085840916256" lon="11.786731868689655"><ele>259.0</ele><time>2026-05-01T06:57:21.999Z</time></trkpt><trkpt lat="43.40858019632898" lon="11.786616566443447"><ele>259.3333333333333</ele><time>2026-05-01T06:57:23.999Z</time></trkpt><trkpt lat="43.40858049115287" lon="11.786501897736898"><ele>259.66666666666663</ele><time>2026-05-01T06:57:25.999Z</time></trkpt><trkpt lat="43.408581985883494" lon="11.786386578758277"><ele>260.0</ele><time>2026-05-01T06:57:27.999Z</time></trkpt><trkpt lat="43.408586271267154" lon="11.786273596566009"><ele>260.3333333333333</ele><time>2026-05-01T06:57:29.999Z</time></trkpt><trkpt lat="43.4085916261944" lon="11.78615907150235"><ele>260.6666666666667</ele><time>2026-05-01T06:57:31.999Z</time></trkpt><trkpt lat="43.40860230698055" lon="11.78604392682637"><ele>261.0</ele><time>2026-05-01T06:57:33.999Z</time></trkpt><trkpt lat="43.40860902094427" lon="11.785922980468403"><ele>261.2</ele><time>2026-05-01T06:57:35.999Z</time></trkpt><trkpt lat="43.408614491245935" lon="11.785803275780276"><ele>261.40000000000003</ele><time>2026-05-01T06:57:37.998Z</time></trkpt><trkpt lat="43.408621863967774" lon="11.785681270167203"><ele>261.6</ele><time>2026-05-01T06:57:39.998Z</time></trkpt><trkpt lat="43.40863240743216" lon="11.785556283125505"><ele>261.8</ele><time>2026-05-01T06:57:41.998Z</time></trkpt><trkpt lat="43.40864273597458" lon="11.785431382238382"><ele>262.0</ele><time>2026-05-01T06:57:43.998Z</time></trkpt><trkpt lat="43.408652795486795" lon="11.785303079773271"><ele>262.2</ele><time>2026-05-01T06:57:45.998Z</time></trkpt><trkpt lat="43.4086622474639" lon="11.785176845547223"><ele>262.4</ele><time>2026-05-01T06:57:47.998Z</time></trkpt><trkpt lat="43.40867164810226" lon="11.785048974414819"><ele>262.6</ele><time>2026-05-01T06:57:49.998Z</time></trkpt><trkpt lat="43.40868138816239" lon="11.784916760678238"><ele>262.8</ele><time>2026-05-01T06:57:51.998Z</time></trkpt><trkpt lat="43.408690997809984" lon="11.784779651543706"><ele>263.0</ele><time>2026-05-01T06:57:53.998Z</time></trkpt><trkpt lat="43.408702631601926" lon="11.784645004762083"><ele>263.0</ele><time>2026-05-01T06:57:55.998Z</time></trkpt><trkpt lat="43.4087136857056" lon="11.784510768463708"><ele>263.0</ele><time>2026-05-01T06:57:57.998Z</time></trkpt><trkpt lat="43.408723148496136" lon="11.78437443995887"><ele>263.0</ele><time>2026-05-01T06:57:59.998Z</time></trkpt><trkpt lat="43.40873657296649" lon="11.784238794134755"><ele>263.0</ele><time>2026-05-01T06:58:01.998Z</time></trkpt><trkpt lat="43.408747522354695" lon="11.784103616427197"><ele>263.0</ele><time>2026-05-01T06:58:03.998Z</time></trkpt><trkpt lat="43.40875811964368" lon="11.783968491472455"><ele>263.0</ele><time>2026-05-01T06:58:05.998Z</time></trkpt><trkpt lat="43.40876715324343" lon="11.78383349151355"><ele>263.0</ele><time>2026-05-01T06:58:07.998Z</time></trkpt><trkpt lat="43.408775400077644" lon="11.783693360207835"><ele>263.0</ele><time>2026-05-01T06:58:09.998Z</time></trkpt><trkpt lat="43.408782695885684" lon="11.783559697458607"><ele>263.0</ele><time>2026-05-01T06:58:11.998Z</time></trkpt><trkpt lat="43.408794997314" lon="11.783426715275318"><ele>263.0</ele><time>2026-05-01T06:58:13.998Z</time></trkpt><trkpt lat="43.40880567383667" lon="11.783291360333461"><ele>263.0</ele><time>2026-05-01T06:58:15.998Z</time></trkpt><trkpt lat="43.40882119097404" lon="11.783150284727329"><ele>263.0</ele><time>2026-05-01T06:58:17.998Z</time></trkpt><trkpt lat="43.40883290740754" lon="11.783010332281359"><ele>263.0</ele><time>2026-05-01T06:58:19.998Z</time></trkpt><trkpt lat="43.40884959901086" lon="11.782872046807904"><ele>263.0</ele><time>2026-05-01T06:58:21.998Z</time></trkpt><trkpt lat="43.40887493708068" lon="11.782736345438714"><ele>263.0</ele><time>2026-05-01T06:58:24Z</time></trkpt><trkpt lat="43.40889952756251" lon="11.78260832816904"><ele>263.6</ele><time>2026-05-01T06:58:26Z</time></trkpt><trkpt lat="43.40893183394602" lon="11.782476486114284"><ele>264.20000000000005</ele><time>2026-05-01T06:58:28Z</time></trkpt><trkpt lat="43.4089648841131" lon="11.78234870855023"><ele>264.8</ele><time>2026-05-01T06:58:30Z</time></trkpt><trkpt lat="43.40899966880231" lon="11.782221345240846"><ele>265.40000000000003</ele><time>2026-05-01T06:58:32Z</time></trkpt><trkpt lat="43.40903582592438" lon="11.782089990492038"><ele>266.0</ele><time>2026-05-01T06:58:34Z</time></trkpt><trkpt lat="43.409071485182196" lon="11.781958221634149"><ele>265.6</ele><time>2026-05-01T06:58:36Z</time></trkpt><trkpt lat="43.40910461021862" lon="11.78182328028573"><ele>265.20000000000005</ele><time>2026-05-01T06:58:38Z</time></trkpt><trkpt lat="43.409138756919454" lon="11.781684983579769"><ele>264.79999999999995</ele><time>2026-05-01T06:58:40Z</time></trkpt><trkpt lat="43.409173616381246" lon="11.781548261504454"><ele>264.4</ele><time>2026-05-01T06:58:42Z</time></trkpt><trkpt lat="43.4092071408639" lon="11.781412157291062"><ele>264.0</ele><time>2026-05-01T06:58:44Z</time></trkpt><trkpt lat="43.409246086058445" lon="11.78127768763556"><ele>264.0</ele><time>2026-05-01T06:58:46Z</time></trkpt><trkpt lat="43.40928113387966" lon="11.781141140944035"><ele>264.0</ele><time>2026-05-01T06:58:48Z</time></trkpt><trkpt lat="43.409317146664016" lon="11.781005853399954"><ele>264.0</ele><time>2026-05-01T06:58:50Z</time></trkpt><trkpt lat="43.40935381991401" lon="11.78086878188733"><ele>264.0</ele><time>2026-05-01T06:58:52Z</time></trkpt><trkpt lat="43.40938761190663" lon="11.780732376158435"><ele>264.0</ele><time>2026-05-01T06:58:54Z</time></trkpt><trkpt lat="43.40942483359587" lon="11.780595984548011"><ele>264.0</ele><time>2026-05-01T06:58:56Z</time></trkpt><trkpt lat="43.40946303162874" lon="11.780459614723956"><ele>264.0</ele><time>2026-05-01T06:58:57.999Z</time></trkpt><trkpt lat="43.40949868923124" lon="11.780319980067686"><ele>264.0</ele><time>2026-05-01T06:58:59.999Z</time></trkpt><trkpt lat="43.409535943754484" lon="11.780183476200909"><ele>264.0</ele><time>2026-05-01T06:59:01.999Z</time></trkpt><trkpt lat="43.40957371216649" lon="11.780044440913851"><ele>264.0</ele><time>2026-05-01T06:59:03.999Z</time></trkpt><trkpt lat="43.409609166571656" lon="11.77990773217423"><ele>264.0</ele><time>2026-05-01T06:59:05.999Z</time></trkpt><trkpt lat="43.409648024538704" lon="11.779770836187787"><ele>264.0</ele><time>2026-05-01T06:59:07.999Z</time></trkpt><trkpt lat="43.40968534213637" lon="11.779635799234374"><ele>264.0</ele><time>2026-05-01T06:59:09.999Z</time></trkpt><trkpt lat="43.409721356208344" lon="11.779496383167809"><ele>264.0</ele><time>2026-05-01T06:59:11.999Z</time></trkpt><trkpt lat="43.40975841501714" lon="11.779358754377066"><ele>264.0</ele><time>2026-05-01T06:59:13.999Z</time></trkpt><trkpt lat="43.40979384826864" lon="11.779222059729591"><ele>264.59999999999997</ele><time>2026-05-01T06:59:15.999Z</time></trkpt><trkpt lat="43.40982864847507" lon="11.779091644048641"><ele>265.2</ele><time>2026-05-01T06:59:17.999Z</time></trkpt><trkpt lat="43.40986353723334" lon="11.7789566151307"><ele>265.79999999999995</ele><time>2026-05-01T06:59:19.999Z</time></trkpt><trkpt lat="43.409899047179834" lon="11.778824124213914"><ele>266.4</ele><time>2026-05-01T06:59:21.999Z</time></trkpt><trkpt lat="43.40993533532851" lon="11.77868841208078"><ele>267.0</ele><time>2026-05-01T06:59:23.999Z</time></trkpt><trkpt lat="43.40997374144256" lon="11.778556703104226"><ele>267.4</ele><time>2026-05-01T06:59:25.999Z</time></trkpt><trkpt lat="43.410006667563614" lon="11.778422671935518"><ele>267.79999999999995</ele><time>2026-05-01T06:59:27.999Z</time></trkpt><trkpt lat="43.4100400986378" lon="11.778300230979784"><ele>268.2</ele><time>2026-05-01T06:59:29.999Z</time></trkpt><trkpt lat="43.41006892978182" lon="11.778184376802795"><ele>268.59999999999997</ele><time>2026-05-01T06:59:31.999Z</time></trkpt><trkpt lat="43.41010245074997" lon="11.778072617028423"><ele>269.0</ele><time>2026-05-01T06:59:33.999Z</time></trkpt><trkpt lat="43.41013371304648" lon="11.777962324292401"><ele>269.0</ele><time>2026-05-01T06:59:35.999Z</time></trkpt><trkpt lat="43.410162643762206" lon="11.777851342002252"><ele>269.0</ele><time>2026-05-01T06:59:37.999Z</time></trkpt><trkpt lat="43.410191207789985" lon="11.777742894843655"><ele>269.0</ele><time>2026-05-01T06:59:39.999Z</time></trkpt><trkpt lat="43.41022100671299" lon="11.777637422032292"><ele>269.0</ele><time>2026-05-01T06:59:41.999Z</time></trkpt><trkpt lat="43.41024786755479" lon="11.777524095364894"><ele>269.0</ele><time>2026-05-01T06:59:43.999Z</time></trkpt><trkpt lat="43.410274783424875" lon="11.777412865580171"><ele>269.0</ele><time>2026-05-01T06:59:45.998Z</time></trkpt><trkpt lat="43.41029991174924" lon="11.777306631327692"><ele>268.6666666666667</ele><time>2026-05-01T06:59:47.998Z</time></trkpt><trkpt lat="43.41032757220184" lon="11.777200050925773"><ele>268.33333333333337</ele><time>2026-05-01T06:59:49.998Z</time></trkpt><trkpt lat="43.410355551586434" lon="11.77709476097271"><ele>268.0</ele><time>2026-05-01T06:59:51.998Z</time></trkpt><trkpt lat="43.41038292474045" lon="11.776993592361093"><ele>267.6666666666667</ele><time>2026-05-01T06:59:53.998Z</time></trkpt><trkpt lat="43.41040915968691" lon="11.776888134772037"><ele>267.3333333333333</ele><time>2026-05-01T06:59:55.998Z</time></trkpt><trkpt lat="43.41043693448685" lon="11.776785329831982"><ele>267.0</ele><time>2026-05-01T06:59:57.998Z</time></trkpt><trkpt lat="43.410459956969035" lon="11.776682897499063"><ele>267.0</ele><time>2026-05-01T06:59:59.998Z</time></trkpt><trkpt lat="43.410491062481945" lon="11.776580063441878"><ele>267.0</ele><time>2026-05-01T07:00:01.998Z</time></trkpt><trkpt lat="43.41051777604601" lon="11.776475855138735"><ele>267.0</ele><time>2026-05-01T07:00:03.998Z</time></trkpt><trkpt lat="43.4105477760085" lon="11.776361520390825"><ele>267.0</ele><time>2026-05-01T07:00:05.998Z</time></trkpt><trkpt lat="43.41058044267456" lon="11.77624271005743"><ele>267.0</ele><time>2026-05-01T07:00:07.998Z</time></trkpt><trkpt lat="43.410606814441465" lon="11.776114593327694"><ele>267.0</ele><time>2026-05-01T07:00:09.998Z</time></trkpt><trkpt lat="43.41062299409067" lon="11.775971384144444"><ele>267.75</ele><time>2026-05-01T07:00:11.998Z</time></trkpt><trkpt lat="43.41063093409852" lon="11.775823341628216"><ele>268.5</ele><time>2026-05-01T07:00:13.998Z</time></trkpt><trkpt lat="43.41062442453954" lon="11.775668134265402"><ele>269.25</ele><time>2026-05-01T07:00:15.998Z</time></trkpt><trkpt lat="43.4105984204368" lon="11.775504777464514"><ele>270.0</ele><time>2026-05-01T07:00:17.998Z</time></trkpt><trkpt lat="43.410568235547295" lon="11.775338957075736"><ele>270.0</ele><time>2026-05-01T07:00:19.998Z</time></trkpt><trkpt lat="43.4105446897235" lon="11.775256406435007"><ele>270.0</ele><time>2026-05-01T07:00:20.998Z</time></trkpt><trkpt lat="43.41052881961837" lon="11.775169005817736"><ele>270.0</ele><time>2026-05-01T07:00:21.998Z</time></trkpt><trkpt lat="43.41049226504494" lon="11.774995606532439"><ele>270.0</ele><time>2026-05-01T07:00:23.998Z</time></trkpt><trkpt lat="43.41046909780061" lon="11.774914710784321"><ele>270.0</ele><time>2026-05-01T07:00:24.998Z</time></trkpt><trkpt lat="43.410427851969935" lon="11.774740980123692"><ele>270.0</ele><time>2026-05-01T07:00:26.998Z</time></trkpt><trkpt lat="43.41040689156346" lon="11.77465417868195"><ele>270.0</ele><time>2026-05-01T07:00:27.998Z</time></trkpt><trkpt lat="43.410371568791426" lon="11.774490361475214"><ele>270.0</ele><time>2026-05-01T07:00:30Z</time></trkpt><trkpt lat="43.41035141424166" lon="11.77440641903798"><ele>270.0</ele><time>2026-05-01T07:00:31Z</time></trkpt><trkpt lat="43.410330252959106" lon="11.774323397648619"><ele>270.0</ele><time>2026-05-01T07:00:32Z</time></trkpt><trkpt lat="43.41030750436942" lon="11.774241037636763"><ele>270.0</ele><time>2026-05-01T07:00:33Z</time></trkpt><trkpt lat="43.41027454674437" lon="11.774085421355618"><ele>269.75</ele><time>2026-05-01T07:00:35Z</time></trkpt><trkpt lat="43.41023885380757" lon="11.773926662295981"><ele>269.5</ele><time>2026-05-01T07:00:37Z</time></trkpt><trkpt lat="43.410201570384004" lon="11.773770971650094"><ele>269.25</ele><time>2026-05-01T07:00:39Z</time></trkpt><trkpt lat="43.4101651488959" lon="11.773616314074847"><ele>269.0</ele><time>2026-05-01T07:00:41Z</time></trkpt><trkpt lat="43.410129842165176" lon="11.773462753570143"><ele>269.0</ele><time>2026-05-01T07:00:43Z</time></trkpt><trkpt lat="43.41009154870866" lon="11.773306809988265"><ele>269.0</ele><time>2026-05-01T07:00:45Z</time></trkpt><trkpt lat="43.41005285548713" lon="11.773149909755409"><ele>269.0</ele><time>2026-05-01T07:00:47Z</time></trkpt><trkpt lat="43.410016939546466" lon="11.772993826610232"><ele>269.0</ele><time>2026-05-01T07:00:49Z</time></trkpt><trkpt lat="43.40997541857092" lon="11.772834432487405"><ele>269.25</ele><time>2026-05-01T07:00:51Z</time></trkpt><trkpt lat="43.409936638777424" lon="11.772679819338714"><ele>269.5</ele><time>2026-05-01T07:00:53Z</time></trkpt><trkpt lat="43.409908633056396" lon="11.77251909736238"><ele>269.75</ele><time>2026-05-01T07:00:55Z</time></trkpt><trkpt lat="43.409868926493694" lon="11.772362865242904"><ele>270.0</ele><time>2026-05-01T07:00:57Z</time></trkpt><trkpt lat="43.40983291985977" lon="11.772206769947587"><ele>270.0</ele><time>2026-05-01T07:00:59Z</time></trkpt><trkpt lat="43.40979809863654" lon="11.772056662575604"><ele>270.0</ele><time>2026-05-01T07:01:01Z</time></trkpt><trkpt lat="43.4097605254322" lon="11.771904650453035"><ele>270.0</ele><time>2026-05-01T07:01:03Z</time></trkpt><trkpt lat="43.40972443348432" lon="11.77175508837431"><ele>270.0</ele><time>2026-05-01T07:01:05Z</time></trkpt><trkpt lat="43.40969124579113" lon="11.771599605665818"><ele>270.4</ele><time>2026-05-01T07:01:07Z</time></trkpt><trkpt lat="43.40966340217002" lon="11.77144643360401"><ele>270.8</ele><time>2026-05-01T07:01:08.999Z</time></trkpt><trkpt lat="43.409651181017836" lon="11.771293092007026"><ele>271.2</ele><time>2026-05-01T07:01:10.999Z</time></trkpt><trkpt lat="43.40964431306934" lon="11.771142959630689"><ele>271.6</ele><time>2026-05-01T07:01:12.999Z</time></trkpt><trkpt lat="43.409638665448405" lon="11.770991691630313"><ele>272.0</ele><time>2026-05-01T07:01:14.999Z</time></trkpt><trkpt lat="43.409631000759674" lon="11.770837041290228"><ele>272.0</ele><time>2026-05-01T07:01:16.999Z</time></trkpt><trkpt lat="43.40962595256195" lon="11.770682463522887"><ele>272.0</ele><time>2026-05-01T07:01:18.999Z</time></trkpt><trkpt lat="43.40961561106211" lon="11.770525520020511"><ele>272.0</ele><time>2026-05-01T07:01:20.999Z</time></trkpt><trkpt lat="43.409612210314144" lon="11.770369245576916"><ele>272.0</ele><time>2026-05-01T07:01:22.999Z</time></trkpt><trkpt lat="43.40960502938843" lon="11.770217301008323"><ele>272.25</ele><time>2026-05-01T07:01:24.999Z</time></trkpt><trkpt lat="43.40960318729258" lon="11.770062142598183"><ele>272.5</ele><time>2026-05-01T07:01:26.999Z</time></trkpt><trkpt lat="43.4095931900448" lon="11.769908975967644"><ele>272.75</ele><time>2026-05-01T07:01:28.999Z</time></trkpt><trkpt lat="43.40958686381201" lon="11.769751535467053"><ele>273.0</ele><time>2026-05-01T07:01:30.999Z</time></trkpt><trkpt lat="43.40958150117731" lon="11.769597125438539"><ele>273.0</ele><time>2026-05-01T07:01:32.999Z</time></trkpt><trkpt lat="43.40957400420516" lon="11.769446614116289"><ele>273.0</ele><time>2026-05-01T07:01:34.999Z</time></trkpt><trkpt lat="43.40957521719594" lon="11.769294635373743"><ele>273.0</ele><time>2026-05-01T07:01:36.999Z</time></trkpt><trkpt lat="43.40955843274059" lon="11.769183730182753"><ele>273.0</ele><time>2026-05-01T07:01:38.999Z</time></trkpt><trkpt lat="43.40965045577484" lon="11.769110868838744"><ele>273.0</ele><time>2026-05-01T07:01:39.999Z</time></trkpt><trkpt lat="43.40970108858232" lon="11.768996140268227"><ele>273.0</ele><time>2026-05-01T07:01:41.999Z</time></trkpt><trkpt lat="43.40970099382464" lon="11.768855198786396"><ele>273.0</ele><time>2026-05-01T07:01:43.999Z</time></trkpt><trkpt lat="43.409655311988324" lon="11.768722637641135"><ele>273.0</ele><time>2026-05-01T07:01:45.999Z</time></trkpt><trkpt lat="43.409600223647956" lon="11.768593510609511"><ele>273.0</ele><time>2026-05-01T07:01:47.999Z</time></trkpt><trkpt lat="43.409571742740965" lon="11.768453738320689"><ele>273.0</ele><time>2026-05-01T07:01:49.999Z</time></trkpt><trkpt lat="43.409524355346285" lon="11.768321438769897"><ele>273.0</ele><time>2026-05-01T07:01:51.999Z</time></trkpt><trkpt lat="43.40956644826153" lon="11.768230792918676"><ele>273.0</ele><time>2026-05-01T07:01:52.999Z</time></trkpt><trkpt lat="43.40957255213192" lon="11.768084417987383"><ele>273.0</ele><time>2026-05-01T07:01:54.999Z</time></trkpt><trkpt lat="43.40957711594936" lon="11.767933942296715"><ele>273.0</ele><time>2026-05-01T07:01:56.998Z</time></trkpt><trkpt lat="43.4095838213602" lon="11.767784810300787"><ele>273.0</ele><time>2026-05-01T07:01:58.998Z</time></trkpt><trkpt lat="43.40958710406922" lon="11.767633272093954"><ele>273.2</ele><time>2026-05-01T07:02:00.998Z</time></trkpt><trkpt lat="43.409590379920324" lon="11.767483112462918"><ele>273.4</ele><time>2026-05-01T07:02:02.998Z</time></trkpt><trkpt lat="43.40959469180238" lon="11.767332078487925"><ele>273.59999999999997</ele><time>2026-05-01T07:02:04.998Z</time></trkpt><trkpt lat="43.40959878631358" lon="11.767178878870531"><ele>273.8</ele><time>2026-05-01T07:02:06.998Z</time></trkpt><trkpt lat="43.40959948948145" lon="11.767027553230331"><ele>274.0</ele><time>2026-05-01T07:02:08.998Z</time></trkpt><trkpt lat="43.40960143376415" lon="11.766872020346161"><ele>274.2</ele><time>2026-05-01T07:02:10.998Z</time></trkpt><trkpt lat="43.4096062342728" lon="11.766716517500493"><ele>274.4</ele><time>2026-05-01T07:02:12.998Z</time></trkpt><trkpt lat="43.409617819756754" lon="11.766560375687066"><ele>274.6</ele><time>2026-05-01T07:02:14.998Z</time></trkpt><trkpt lat="43.40963082492626" lon="11.766413090262485"><ele>274.8</ele><time>2026-05-01T07:02:16.998Z</time></trkpt><trkpt lat="43.40965132725713" lon="11.766270797275986"><ele>275.0</ele><time>2026-05-01T07:02:18.998Z</time></trkpt><trkpt lat="43.409669762373575" lon="11.76613783334237"><ele>275.33333333333337</ele><time>2026-05-01T07:02:20.998Z</time></trkpt><trkpt lat="43.40969390935244" lon="11.766014592092237"><ele>275.6666666666667</ele><time>2026-05-01T07:02:22.998Z</time></trkpt><trkpt lat="43.40972235866716" lon="11.765902468058536"><ele>276.0</ele><time>2026-05-01T07:02:24.998Z</time></trkpt><trkpt lat="43.40974627158279" lon="11.765793883039391"><ele>276.3333333333333</ele><time>2026-05-01T07:02:26.998Z</time></trkpt><trkpt lat="43.40977449264629" lon="11.765693147044141"><ele>276.66666666666663</ele><time>2026-05-01T07:02:28.998Z</time></trkpt><trkpt lat="43.40980100079886" lon="11.765597330642997"><ele>277.0</ele><time>2026-05-01T07:02:30.998Z</time></trkpt><trkpt lat="43.409827654934524" lon="11.765502712831669"><ele>277.0</ele><time>2026-05-01T07:02:32.998Z</time></trkpt><trkpt lat="43.409853830930565" lon="11.765405546664057"><ele>277.0</ele><time>2026-05-01T07:02:35Z</time></trkpt><trkpt lat="43.40988563970789" lon="11.765305786568202"><ele>277.0</ele><time>2026-05-01T07:02:37Z</time></trkpt><trkpt lat="43.40990959112058" lon="11.765206390498"><ele>277.0</ele><time>2026-05-01T07:02:39Z</time></trkpt><trkpt lat="43.409936414223274" lon="11.765102490810966"><ele>277.0</ele><time>2026-05-01T07:02:41Z</time></trkpt><trkpt lat="43.40996419205041" lon="11.764998159724774"><ele>277.0</ele><time>2026-05-01T07:02:43Z</time></trkpt><trkpt lat="43.40999422071462" lon="11.764883338191707"><ele>277.0</ele><time>2026-05-01T07:02:45Z</time></trkpt><trkpt lat="43.41002807631112" lon="11.764768361308494"><ele>277.0</ele><time>2026-05-01T07:02:47Z</time></trkpt><trkpt lat="43.41005938373396" lon="11.764648562718072"><ele>277.0</ele><time>2026-05-01T07:02:49Z</time></trkpt><trkpt lat="43.41008189524708" lon="11.764532167928223"><ele>277.0</ele><time>2026-05-01T07:02:51Z</time></trkpt><trkpt lat="43.41009683204999" lon="11.764413945224014"><ele>277.0</ele><time>2026-05-01T07:02:53Z</time></trkpt><trkpt lat="43.410102221697244" lon="11.764290200470063"><ele>277.0</ele><time>2026-05-01T07:02:55Z</time></trkpt><trkpt lat="43.4100980575257" lon="11.764165055779648"><ele>277.2</ele><time>2026-05-01T07:02:57Z</time></trkpt><trkpt lat="43.41008535566263" lon="11.764035342137628"><ele>277.4</ele><time>2026-05-01T07:02:59Z</time></trkpt><trkpt lat="43.41006139536851" lon="11.763908285517285"><ele>277.6</ele><time>2026-05-01T07:03:01Z</time></trkpt><trkpt lat="43.41003180988808" lon="11.763786333217196"><ele>277.8</ele><time>2026-05-01T07:03:03Z</time></trkpt><trkpt lat="43.40998925551543" lon="11.763669553433228"><ele>278.0</ele><time>2026-05-01T07:03:05Z</time></trkpt><trkpt lat="43.4099484246871" lon="11.763555997990434"><ele>278.1666666666667</ele><time>2026-05-01T07:03:07Z</time></trkpt><trkpt lat="43.40990633060623" lon="11.76344731273141"><ele>278.33333333333337</ele><time>2026-05-01T07:03:09Z</time></trkpt><trkpt lat="43.40986142867838" lon="11.763342548881475"><ele>278.5</ele><time>2026-05-01T07:03:10.999Z</time></trkpt><trkpt lat="43.409816701997606" lon="11.763242814106684"><ele>278.6666666666667</ele><time>2026-05-01T07:03:12.999Z</time></trkpt><trkpt lat="43.40977425570977" lon="11.763149227422543"><ele>278.8333333333333</ele><time>2026-05-01T07:03:14.999Z</time></trkpt><trkpt lat="43.409733752076264" lon="11.763054370180132"><ele>279.0</ele><time>2026-05-01T07:03:16.999Z</time></trkpt><trkpt lat="43.40969418759402" lon="11.762964673645385"><ele>278.99999999999994</ele><time>2026-05-01T07:03:18.999Z</time></trkpt><trkpt lat="43.40965593849569" lon="11.762880553488838"><ele>279.0</ele><time>2026-05-01T07:03:20.999Z</time></trkpt><trkpt lat="43.40962432914499" lon="11.76279090476644"><ele>279.0</ele><time>2026-05-01T07:03:22.999Z</time></trkpt><trkpt lat="43.40959010205959" lon="11.762704636375014"><ele>279.0</ele><time>2026-05-01T07:03:24.999Z</time></trkpt><trkpt lat="43.40955335029558" lon="11.762621299530148"><ele>279.0</ele><time>2026-05-01T07:03:26.999Z</time></trkpt><trkpt lat="43.409517168023484" lon="11.762534332824229"><ele>278.99999999999994</ele><time>2026-05-01T07:03:28.999Z</time></trkpt><trkpt lat="43.409481275370794" lon="11.762447767199864"><ele>279.0</ele><time>2026-05-01T07:03:30.999Z</time></trkpt><trkpt lat="43.40944636156822" lon="11.762364814679138"><ele>279.57142857142856</ele><time>2026-05-01T07:03:32.999Z</time></trkpt><trkpt lat="43.409410819921824" lon="11.76228336909076"><ele>280.1428571428571</ele><time>2026-05-01T07:03:34.999Z</time></trkpt><trkpt lat="43.40937511799533" lon="11.762201449425602"><ele>280.7142857142857</ele><time>2026-05-01T07:03:36.999Z</time></trkpt><trkpt lat="43.40934007492878" lon="11.762117915266053"><ele>281.2857142857143</ele><time>2026-05-01T07:03:38.999Z</time></trkpt><trkpt lat="43.409303926220545" lon="11.762031850332452"><ele>281.8571428571429</ele><time>2026-05-01T07:03:40.999Z</time></trkpt><trkpt lat="43.409269727729885" lon="11.76195191383803"><ele>282.42857142857144</ele><time>2026-05-01T07:03:42.999Z</time></trkpt><trkpt lat="43.409236267648836" lon="11.76187315398425"><ele>283.0</ele><time>2026-05-01T07:03:44.999Z</time></trkpt><trkpt lat="43.40920300923868" lon="11.761793233669557"><ele>283.2857142857143</ele><time>2026-05-01T07:03:46.999Z</time></trkpt><trkpt lat="43.409167307738905" lon="11.761715561673839"><ele>283.5714285714286</ele><time>2026-05-01T07:03:48.999Z</time></trkpt><trkpt lat="43.40913599757379" lon="11.761638168763856"><ele>283.8571428571429</ele><time>2026-05-01T07:03:50.999Z</time></trkpt><trkpt lat="43.40910308821931" lon="11.761559228921387"><ele>284.14285714285717</ele><time>2026-05-01T07:03:52.999Z</time></trkpt><trkpt lat="43.40907014247974" lon="11.761484221353136"><ele>284.42857142857144</ele><time>2026-05-01T07:03:54.999Z</time></trkpt><trkpt lat="43.40902269403278" lon="11.761377122310323"><ele>284.7142857142857</ele><time>2026-05-01T07:03:57.998Z</time></trkpt><trkpt lat="43.40897921622004" lon="11.761272513140412"><ele>285.0</ele><time>2026-05-01T07:04:00.998Z</time></trkpt><trkpt lat="43.40893532106125" lon="11.761167509499792"><ele>285.0</ele><time>2026-05-01T07:04:03.998Z</time></trkpt><trkpt lat="43.40889067366793" lon="11.761066106624355"><ele>285.0</ele><time>2026-05-01T07:04:06.998Z</time></trkpt><trkpt lat="43.408848261638525" lon="11.76096234256005"><ele>285.0</ele><time>2026-05-01T07:04:09.998Z</time></trkpt><trkpt lat="43.40880437712385" lon="11.760865024898765"><ele>285.0</ele><time>2026-05-01T07:04:12.998Z</time></trkpt><trkpt lat="43.40876409418664" lon="11.760769442443939"><ele>285.0</ele><time>2026-05-01T07:04:15.998Z</time></trkpt><trkpt lat="43.408721868114185" lon="11.760670997498062"><ele>285.0</ele><time>2026-05-01T07:04:18.998Z</time></trkpt><trkpt lat="43.408680669017286" lon="11.760573419393774"><ele>285.6666666666667</ele><time>2026-05-01T07:04:21.998Z</time></trkpt><trkpt lat="43.408639226789276" lon="11.760470812497179"><ele>286.3333333333333</ele><time>2026-05-01T07:04:24.998Z</time></trkpt><trkpt lat="43.408595927004754" lon="11.760374452096558"><ele>287.0</ele><time>2026-05-01T07:04:27.998Z</time></trkpt><trkpt lat="43.40855736883573" lon="11.760279210436316"><ele>287.66666666666663</ele><time>2026-05-01T07:04:30.998Z</time></trkpt><trkpt lat="43.4085187376215" lon="11.760183070689715"><ele>288.3333333333333</ele><time>2026-05-01T07:04:33.998Z</time></trkpt><trkpt lat="43.40847785754469" lon="11.76008867186567"><ele>289.0</ele><time>2026-05-01T07:04:36.998Z</time></trkpt><trkpt lat="43.40843556545378" lon="11.759990324740626"><ele>289.8333333333333</ele><time>2026-05-01T07:04:39.998Z</time></trkpt><trkpt lat="43.408393465730946" lon="11.759891152463013"><ele>290.66666666666663</ele><time>2026-05-01T07:04:43Z</time></trkpt><trkpt lat="43.40835103454387" lon="11.759791017263153"><ele>291.5</ele><time>2026-05-01T07:04:46Z</time></trkpt><trkpt lat="43.40830733210346" lon="11.759691765905632"><ele>292.3333333333333</ele><time>2026-05-01T07:04:49Z</time></trkpt><trkpt lat="43.408264408846215" lon="11.759593751276546"><ele>293.1666666666667</ele><time>2026-05-01T07:04:52Z</time></trkpt><trkpt lat="43.40822125884017" lon="11.759494274374063"><ele>294.0</ele><time>2026-05-01T07:04:55Z</time></trkpt><trkpt lat="43.40817873120064" lon="11.759393937654004"><ele>293.8333333333333</ele><time>2026-05-01T07:04:58Z</time></trkpt><trkpt lat="43.408137346329376" lon="11.759295734482178"><ele>293.6666666666667</ele><time>2026-05-01T07:05:01Z</time></trkpt><trkpt lat="43.40809397701925" lon="11.759197234150639"><ele>293.5</ele><time>2026-05-01T07:05:04Z</time></trkpt><trkpt lat="43.40805259212751" lon="11.759096087591654"><ele>293.33333333333337</ele><time>2026-05-01T07:05:07Z</time></trkpt><trkpt lat="43.40800968108396" lon="11.758995660563263"><ele>293.1666666666667</ele><time>2026-05-01T07:05:10Z</time></trkpt><trkpt lat="43.40796672899564" lon="11.758891711270412"><ele>293.0</ele><time>2026-05-01T07:05:13Z</time></trkpt><trkpt lat="43.40792202954079" lon="11.758788914341084"><ele>293.0</ele><time>2026-05-01T07:05:15.999Z</time></trkpt><trkpt lat="43.40787865317288" lon="11.75868240651759"><ele>293.0</ele><time>2026-05-01T07:05:18.999Z</time></trkpt><trkpt lat="43.40783208913279" lon="11.758571863044413"><ele>293.0</ele><time>2026-05-01T07:05:21.999Z</time></trkpt><trkpt lat="43.40778144312675" lon="11.758460259737706"><ele>293.0</ele><time>2026-05-01T07:05:24.999Z</time></trkpt><trkpt lat="43.407754037654" lon="11.758377757873305"><ele>293.0</ele><time>2026-05-01T07:05:26.999Z</time></trkpt><trkpt lat="43.40772662011537" lon="11.758298355573885"><ele>293.0</ele><time>2026-05-01T07:05:28.999Z</time></trkpt><trkpt lat="43.40770720901611" lon="11.758214833257416"><ele>294.0</ele><time>2026-05-01T07:05:30.999Z</time></trkpt><trkpt lat="43.40768614118359" lon="11.758127190158485"><ele>295.0</ele><time>2026-05-01T07:05:32.999Z</time></trkpt><trkpt lat="43.40765848653989" lon="11.758006636166"><ele>296.0</ele><time>2026-05-01T07:05:35.999Z</time></trkpt><trkpt lat="43.40763551770087" lon="11.757877373527323"><ele>297.0</ele><time>2026-05-01T07:05:38.999Z</time></trkpt><trkpt lat="43.407612204938246" lon="11.757752076892116"><ele>298.0</ele><time>2026-05-01T07:05:41.999Z</time></trkpt><trkpt lat="43.407597939539926" lon="11.757667469417338"><ele>299.0</ele><time>2026-05-01T07:05:43.999Z</time></trkpt><trkpt lat="43.407597465009694" lon="11.757580508542496"><ele>299.83333333333337</ele><time>2026-05-01T07:05:45.999Z</time></trkpt><trkpt lat="43.40759191253139" lon="11.75745206196791"><ele>300.6666666666667</ele><time>2026-05-01T07:05:48.999Z</time></trkpt><trkpt lat="43.40759003524295" lon="11.757329955807625"><ele>301.5</ele><time>2026-05-01T07:05:51.999Z</time></trkpt><trkpt lat="43.40759716536016" lon="11.757204638500141"><ele>302.3333333333333</ele><time>2026-05-01T07:05:54.999Z</time></trkpt><trkpt lat="43.40760383947777" lon="11.757116198947031"><ele>303.16666666666663</ele><time>2026-05-01T07:05:56.999Z</time></trkpt><trkpt lat="43.40760831062295" lon="11.757027538743742"><ele>304.0</ele><time>2026-05-01T07:05:58.999Z</time></trkpt><trkpt lat="43.407619419883865" lon="11.756941729869627"><ele>305.0</ele><time>2026-05-01T07:06:00.999Z</time></trkpt><trkpt lat="43.4076384504279" lon="11.756853944107945"><ele>306.0</ele><time>2026-05-01T07:06:02.998Z</time></trkpt><trkpt lat="43.4076606455391" lon="11.756737468656125"><ele>307.0</ele><time>2026-05-01T07:06:05.998Z</time></trkpt><trkpt lat="43.40767924835629" lon="11.756650278556783"><ele>308.0</ele><time>2026-05-01T07:06:07.998Z</time></trkpt><trkpt lat="43.40770474618224" lon="11.756527712995494"><ele>309.0</ele><time>2026-05-01T07:06:10.998Z</time></trkpt><trkpt lat="43.40773283003909" lon="11.756450081568023"><ele>310.0</ele><time>2026-05-01T07:06:12.998Z</time></trkpt><trkpt lat="43.40776219173588" lon="11.756368475981976"><ele>311.0</ele><time>2026-05-01T07:06:14.998Z</time></trkpt><trkpt lat="43.4077883516295" lon="11.756282534222589"><ele>311.0</ele><time>2026-05-01T07:06:16.998Z</time></trkpt><trkpt lat="43.40781824589648" lon="11.75620030516321"><ele>311.0</ele><time>2026-05-01T07:06:18.998Z</time></trkpt><trkpt lat="43.40785014171352" lon="11.756118261757862"><ele>311.0</ele><time>2026-05-01T07:06:20.998Z</time></trkpt><trkpt lat="43.40789319875193" lon="11.756040195314755"><ele>311.0</ele><time>2026-05-01T07:06:22.998Z</time></trkpt><trkpt lat="43.407935203612944" lon="11.755955686529035"><ele>311.0</ele><time>2026-05-01T07:06:24.998Z</time></trkpt><trkpt lat="43.407979926659245" lon="11.755867801273792"><ele>311.0</ele><time>2026-05-01T07:06:26.998Z</time></trkpt><trkpt lat="43.40803526090679" lon="11.755782453836126"><ele>311.0</ele><time>2026-05-01T07:06:28.998Z</time></trkpt><trkpt lat="43.40808944565884" lon="11.755693555686301"><ele>311.6</ele><time>2026-05-01T07:06:30.998Z</time></trkpt><trkpt lat="43.40814755088749" lon="11.75560519964575"><ele>312.20000000000005</ele><time>2026-05-01T07:06:32.998Z</time></trkpt><trkpt lat="43.4082075064509" lon="11.755508890509548"><ele>312.79999999999995</ele><time>2026-05-01T07:06:34.998Z</time></trkpt><trkpt lat="43.40826412645101" lon="11.755417306792998"><ele>313.4</ele><time>2026-05-01T07:06:36.998Z</time></trkpt><trkpt lat="43.408323593944914" lon="11.755310441936409"><ele>314.0</ele><time>2026-05-01T07:06:38.998Z</time></trkpt><trkpt lat="43.40839452329259" lon="11.755210878463304"><ele>313.0</ele><time>2026-05-01T07:06:40.998Z</time></trkpt><trkpt lat="43.40846097139185" lon="11.755098158879354"><ele>312.0</ele><time>2026-05-01T07:06:42.998Z</time></trkpt><trkpt lat="43.40852900842281" lon="11.7549825227128"><ele>311.0</ele><time>2026-05-01T07:06:44.998Z</time></trkpt><trkpt lat="43.408593953057036" lon="11.754871350364331"><ele>310.0</ele><time>2026-05-01T07:06:47Z</time></trkpt><trkpt lat="43.40865500716655" lon="11.754755880050453"><ele>309.0</ele><time>2026-05-01T07:06:49Z</time></trkpt><trkpt lat="43.408713236504674" lon="11.754633569163836"><ele>309.0</ele><time>2026-05-01T07:06:51Z</time></trkpt><trkpt lat="43.40876907470472" lon="11.754511855796576"><ele>309.0</ele><time>2026-05-01T07:06:53Z</time></trkpt><trkpt lat="43.408835990584855" lon="11.754400910236606"><ele>309.0</ele><time>2026-05-01T07:06:55Z</time></trkpt><trkpt lat="43.40888497872406" lon="11.754269430622008"><ele>309.0</ele><time>2026-05-01T07:06:57Z</time></trkpt><trkpt lat="43.40894341148742" lon="11.75415869997335"><ele>309.0</ele><time>2026-05-01T07:06:59Z</time></trkpt><trkpt lat="43.40899554708578" lon="11.75404214822631"><ele>309.25</ele><time>2026-05-01T07:07:01Z</time></trkpt><trkpt lat="43.40905961279918" lon="11.75392892417099"><ele>309.5</ele><time>2026-05-01T07:07:03Z</time></trkpt><trkpt lat="43.4091235785802" lon="11.753792879190323"><ele>309.75</ele><time>2026-05-01T07:07:05Z</time></trkpt><trkpt lat="43.40919059341282" lon="11.753658899427894"><ele>310.0</ele><time>2026-05-01T07:07:07Z</time></trkpt><trkpt lat="43.409271307642626" lon="11.753521889546079"><ele>309.6</ele><time>2026-05-01T07:07:09Z</time></trkpt><trkpt lat="43.40934398421651" lon="11.753377158597864"><ele>309.2</ele><time>2026-05-01T07:07:11Z</time></trkpt><trkpt lat="43.4093762560824" lon="11.75329022076889"><ele>308.8</ele><time>2026-05-01T07:07:12Z</time></trkpt><trkpt lat="43.409450629948516" lon="11.753154202712993"><ele>308.4</ele><time>2026-05-01T07:07:14Z</time></trkpt><trkpt lat="43.409489964603765" lon="11.753078733432982"><ele>308.0</ele><time>2026-05-01T07:07:15Z</time></trkpt><trkpt lat="43.40952573884733" lon="11.753003039157846"><ele>308.0</ele><time>2026-05-01T07:07:16Z</time></trkpt><trkpt lat="43.40956263067215" lon="11.752926359019364"><ele>308.0</ele><time>2026-05-01T07:07:17Z</time></trkpt><trkpt lat="43.40960226769103" lon="11.752851811434965"><ele>308.0</ele><time>2026-05-01T07:07:18Z</time></trkpt><trkpt lat="43.40964079426912" lon="11.752776294452481"><ele>308.0</ele><time>2026-05-01T07:07:19Z</time></trkpt><trkpt lat="43.40967865459034" lon="11.752699721358548"><ele>308.0</ele><time>2026-05-01T07:07:20Z</time></trkpt><trkpt lat="43.409713074319974" lon="11.75262284050191"><ele>308.0</ele><time>2026-05-01T07:07:21Z</time></trkpt><trkpt lat="43.40974996626187" lon="11.752548745393552"><ele>308.0</ele><time>2026-05-01T07:07:22Z</time></trkpt><trkpt lat="43.409785147167824" lon="11.752471913724623"><ele>308.5</ele><time>2026-05-01T07:07:22.999Z</time></trkpt><trkpt lat="43.40981753962949" lon="11.752394898024052"><ele>309.0</ele><time>2026-05-01T07:07:23.999Z</time></trkpt><trkpt lat="43.40984767124506" lon="11.752316148835208"><ele>309.5</ele><time>2026-05-01T07:07:24.999Z</time></trkpt><trkpt lat="43.40987304208577" lon="11.75223494485151"><ele>310.0</ele><time>2026-05-01T07:07:25.999Z</time></trkpt><trkpt lat="43.409914780642744" lon="11.75207496251959"><ele>310.5</ele><time>2026-05-01T07:07:27.999Z</time></trkpt><trkpt lat="43.409931816702134" lon="11.751986785176841"><ele>311.0</ele><time>2026-05-01T07:07:28.999Z</time></trkpt><trkpt lat="43.409958391019934" lon="11.751813709832906"><ele>311.1428571428571</ele><time>2026-05-01T07:07:30.999Z</time></trkpt><trkpt lat="43.40996802580504" lon="11.751720581907058"><ele>311.28571428571433</ele><time>2026-05-01T07:07:31.999Z</time></trkpt><trkpt lat="43.409977157865264" lon="11.751627939899675"><ele>311.42857142857144</ele><time>2026-05-01T07:07:32.999Z</time></trkpt><trkpt lat="43.40998193662827" lon="11.751533478925868"><ele>311.57142857142856</ele><time>2026-05-01T07:07:33.999Z</time></trkpt><trkpt lat="43.4099797590463" lon="11.751436578605013"><ele>311.71428571428567</ele><time>2026-05-01T07:07:34.999Z</time></trkpt><trkpt lat="43.40997435028315" lon="11.751338561771345"><ele>311.8571428571429</ele><time>2026-05-01T07:07:35.999Z</time></trkpt><trkpt lat="43.4099685455712" lon="11.751239696370162"><ele>312.0</ele><time>2026-05-01T07:07:36.999Z</time></trkpt><trkpt lat="43.40995854217494" lon="11.751140159636428"><ele>312.0</ele><time>2026-05-01T07:07:37.999Z</time></trkpt><trkpt lat="43.40994408050719" lon="11.751043504311681"><ele>312.0</ele><time>2026-05-01T07:07:38.999Z</time></trkpt><trkpt lat="43.40992870167051" lon="11.750948957481748"><ele>312.0</ele><time>2026-05-01T07:07:39.999Z</time></trkpt><trkpt lat="43.40991691493471" lon="11.750851792198524"><ele>312.0</ele><time>2026-05-01T07:07:40.999Z</time></trkpt><trkpt lat="43.409901926589704" lon="11.750760326205153"><ele>312.0</ele><time>2026-05-01T07:07:41.999Z</time></trkpt><trkpt lat="43.409886906365244" lon="11.75067024920243"><ele>312.0</ele><time>2026-05-01T07:07:42.999Z</time></trkpt><trkpt lat="43.40987339374449" lon="11.750584793396474"><ele>312.0</ele><time>2026-05-01T07:07:43.999Z</time></trkpt><trkpt lat="43.40985096960034" lon="11.75041875868414"><ele>311.6</ele><time>2026-05-01T07:07:45.999Z</time></trkpt><trkpt lat="43.40982402390831" lon="11.750259629912232"><ele>311.2</ele><time>2026-05-01T07:07:47.999Z</time></trkpt><trkpt lat="43.40980316006793" lon="11.750120151799369"><ele>310.8</ele><time>2026-05-01T07:07:49.999Z</time></trkpt><trkpt lat="43.40978399222631" lon="11.749992999991795"><ele>310.4</ele><time>2026-05-01T07:07:51.999Z</time></trkpt><trkpt lat="43.40976493510129" lon="11.74987595109857"><ele>310.0</ele><time>2026-05-01T07:07:53.999Z</time></trkpt><trkpt lat="43.409750585407686" lon="11.749770508574814"><ele>310.0</ele><time>2026-05-01T07:07:55.999Z</time></trkpt><trkpt lat="43.40973639699517" lon="11.749671883642256"><ele>310.0</ele><time>2026-05-01T07:07:57.999Z</time></trkpt><trkpt lat="43.40971924496491" lon="11.749573491344371"><ele>310.0</ele><time>2026-05-01T07:07:59.999Z</time></trkpt><trkpt lat="43.40970472178099" lon="11.749477034793408"><ele>310.0</ele><time>2026-05-01T07:08:01.999Z</time></trkpt><trkpt lat="43.409691444641204" lon="11.749390200033906"><ele>310.0</ele><time>2026-05-01T07:08:03.999Z</time></trkpt><trkpt lat="43.409669906898216" lon="11.749268242094097"><ele>310.0</ele><time>2026-05-01T07:08:06.999Z</time></trkpt><trkpt lat="43.409654168982726" lon="11.749148836628475"><ele>310.16666666666663</ele><time>2026-05-01T07:08:09.999Z</time></trkpt><trkpt lat="43.40963367473436" lon="11.749036031161673"><ele>310.3333333333333</ele><time>2026-05-01T07:08:12.998Z</time></trkpt><trkpt lat="43.409619715044705" lon="11.748923739480889"><ele>310.5</ele><time>2026-05-01T07:08:15.998Z</time></trkpt><trkpt lat="43.40959998790334" lon="11.748816019776557"><ele>310.6666666666667</ele><time>2026-05-01T07:08:18.998Z</time></trkpt><trkpt lat="43.409583622018715" lon="11.748709417160205"><ele>310.83333333333337</ele><time>2026-05-01T07:08:21.998Z</time></trkpt><trkpt lat="43.40958151217981" lon="11.748603687690288"><ele>311.0</ele><time>2026-05-01T07:08:24.998Z</time></trkpt><trkpt lat="43.40957110371392" lon="11.748492871229429"><ele>311.6666666666667</ele><time>2026-05-01T07:08:27.998Z</time></trkpt><trkpt lat="43.409569519051566" lon="11.74838143839527"><ele>312.33333333333337</ele><time>2026-05-01T07:08:30.998Z</time></trkpt><trkpt lat="43.40956912756592" lon="11.748270208560406"><ele>313.0</ele><time>2026-05-01T07:08:33.998Z</time></trkpt><trkpt lat="43.409574790474394" lon="11.748159060043655"><ele>313.6666666666667</ele><time>2026-05-01T07:08:36.998Z</time></trkpt><trkpt lat="43.40958497481355" lon="11.748038502450159"><ele>314.3333333333333</ele><time>2026-05-01T07:08:39.998Z</time></trkpt><trkpt lat="43.409593876635164" lon="11.747917292346942"><ele>315.0</ele><time>2026-05-01T07:08:42.998Z</time></trkpt><trkpt lat="43.40959795183488" lon="11.74782749429208"><ele>315.2</ele><time>2026-05-01T07:08:44.998Z</time></trkpt><trkpt lat="43.4096171948052" lon="11.747706226911522"><ele>315.4</ele><time>2026-05-01T07:08:47.998Z</time></trkpt><trkpt lat="43.40963255046764" lon="11.747583583157649"><ele>315.6</ele><time>2026-05-01T07:08:50.998Z</time></trkpt><trkpt lat="43.40964922937497" lon="11.747462622897787"><ele>315.8</ele><time>2026-05-01T07:08:54Z</time></trkpt><trkpt lat="43.40966813762248" lon="11.747340689789617"><ele>316.0</ele><time>2026-05-01T07:08:57Z</time></trkpt><trkpt lat="43.409688686551455" lon="11.747215292294062"><ele>317.16666666666663</ele><time>2026-05-01T07:09:00Z</time></trkpt><trkpt lat="43.409701975869005" lon="11.74713041848034"><ele>318.3333333333333</ele><time>2026-05-01T07:09:02Z</time></trkpt><trkpt lat="43.409717767778005" lon="11.74700879174099"><ele>319.5</ele><time>2026-05-01T07:09:05Z</time></trkpt><trkpt lat="43.4097331858096" lon="11.746889502127205"><ele>320.6666666666667</ele><time>2026-05-01T07:09:08Z</time></trkpt><trkpt lat="43.40974398865115" lon="11.74680228097707"><ele>321.83333333333337</ele><time>2026-05-01T07:09:10Z</time></trkpt><trkpt lat="43.4097627961725" lon="11.746679236427505"><ele>323.0</ele><time>2026-05-01T07:09:13Z</time></trkpt><trkpt lat="43.4097818545265" lon="11.746555431498049"><ele>323.6666666666667</ele><time>2026-05-01T07:09:16Z</time></trkpt><trkpt lat="43.40980104073322" lon="11.74643686582145"><ele>324.33333333333337</ele><time>2026-05-01T07:09:19Z</time></trkpt><trkpt lat="43.40982035945354" lon="11.74632426472483"><ele>325.0</ele><time>2026-05-01T07:09:22Z</time></trkpt><trkpt lat="43.409836776612984" lon="11.746212795999417"><ele>325.6666666666667</ele><time>2026-05-01T07:09:25Z</time></trkpt><trkpt lat="43.4098536565596" lon="11.746105688191383"><ele>326.3333333333333</ele><time>2026-05-01T07:09:27.999Z</time></trkpt><trkpt lat="43.40986920536323" lon="11.746000886818669"><ele>327.0</ele><time>2026-05-01T07:09:30.999Z</time></trkpt><trkpt lat="43.40988342726968" lon="11.745904389629262"><ele>327.2857142857143</ele><time>2026-05-01T07:09:33.999Z</time></trkpt><trkpt lat="43.409899121982754" lon="11.745797317240726"><ele>327.57142857142856</ele><time>2026-05-01T07:09:36.999Z</time></trkpt><trkpt lat="43.40991544210206" lon="11.745700594685767"><ele>327.8571428571429</ele><time>2026-05-01T07:09:39.999Z</time></trkpt><trkpt lat="43.40992765477774" lon="11.745603105748543"><ele>328.1428571428571</ele><time>2026-05-01T07:09:42.999Z</time></trkpt><trkpt lat="43.40994354860761" lon="11.745502272535903"><ele>328.42857142857144</ele><time>2026-05-01T07:09:45.999Z</time></trkpt><trkpt lat="43.40995925874392" lon="11.745406896146882"><ele>328.7142857142857</ele><time>2026-05-01T07:09:48.999Z</time></trkpt><trkpt lat="43.40997318865671" lon="11.745306875852652"><ele>329.0</ele><time>2026-05-01T07:09:51.999Z</time></trkpt><trkpt lat="43.40999074777666" lon="11.745203914945932"><ele>329.42857142857144</ele><time>2026-05-01T07:09:54.999Z</time></trkpt><trkpt lat="43.410005865133" lon="11.745104852141537"><ele>329.8571428571429</ele><time>2026-05-01T07:09:57.999Z</time></trkpt><trkpt lat="43.41002151368843" lon="11.745005672369102"><ele>330.2857142857143</ele><time>2026-05-01T07:10:00.999Z</time></trkpt><trkpt lat="43.41003464264262" lon="11.744904515024805"><ele>330.7142857142857</ele><time>2026-05-01T07:10:03.999Z</time></trkpt><trkpt lat="43.410049537948275" lon="11.744801840626108"><ele>331.14285714285717</ele><time>2026-05-01T07:10:06.999Z</time></trkpt><trkpt lat="43.410064520436144" lon="11.74470033905868"><ele>331.57142857142856</ele><time>2026-05-01T07:10:09.999Z</time></trkpt><trkpt lat="43.41007745336937" lon="11.74459729582915"><ele>332.0</ele><time>2026-05-01T07:10:12.999Z</time></trkpt><trkpt lat="43.41009350727646" lon="11.744487815412402"><ele>332.0</ele><time>2026-05-01T07:10:15.998Z</time></trkpt><trkpt lat="43.41011023963375" lon="11.744382304569738"><ele>332.0</ele><time>2026-05-01T07:10:18.998Z</time></trkpt><trkpt lat="43.410123995686895" lon="11.744268069641778"><ele>332.0</ele><time>2026-05-01T07:10:21.998Z</time></trkpt><trkpt lat="43.410143589212744" lon="11.744153753937514"><ele>332.0</ele><time>2026-05-01T07:10:24.998Z</time></trkpt><trkpt lat="43.41016355359207" lon="11.744039382866296"><ele>332.0</ele><time>2026-05-01T07:10:27.998Z</time></trkpt><trkpt lat="43.4101852280948" lon="11.74392262874125"><ele>332.0</ele><time>2026-05-01T07:10:30.998Z</time></trkpt><trkpt lat="43.410214146835614" lon="11.743803263424352"><ele>331.6666666666667</ele><time>2026-05-01T07:10:33.998Z</time></trkpt><trkpt lat="43.410248503748" lon="11.743680390741355"><ele>331.33333333333337</ele><time>2026-05-01T07:10:36.998Z</time></trkpt><trkpt lat="43.41027385155026" lon="11.743590419713732"><ele>331.0</ele><time>2026-05-01T07:10:38.998Z</time></trkpt><trkpt lat="43.41030221471803" lon="11.743501101179035"><ele>330.6666666666667</ele><time>2026-05-01T07:10:40.998Z</time></trkpt><trkpt lat="43.41033411850825" lon="11.743408643370133"><ele>330.3333333333333</ele><time>2026-05-01T07:10:42.998Z</time></trkpt><trkpt lat="43.41036594178251" lon="11.74331526561387"><ele>330.0</ele><time>2026-05-01T07:10:44.998Z</time></trkpt><trkpt lat="43.410403451463075" lon="11.743221923477783"><ele>330.0</ele><time>2026-05-01T07:10:46.998Z</time></trkpt><trkpt lat="43.410443996816184" lon="11.743128612701126"><ele>330.0</ele><time>2026-05-01T07:10:48.998Z</time></trkpt><trkpt lat="43.41048482525856" lon="11.743034425642998"><ele>330.0</ele><time>2026-05-01T07:10:50.998Z</time></trkpt><trkpt lat="43.41052896178003" lon="11.742939925665526"><ele>330.0</ele><time>2026-05-01T07:10:52.998Z</time></trkpt><trkpt lat="43.4105765399605" lon="11.742850720678371"><ele>330.0</ele><time>2026-05-01T07:10:54.998Z</time></trkpt><trkpt lat="43.41062166093915" lon="11.74275907438846"><ele>330.0</ele><time>2026-05-01T07:10:56.998Z</time></trkpt><trkpt lat="43.41067102117972" lon="11.742672924695057"><ele>331.8333333333333</ele><time>2026-05-01T07:10:59Z</time></trkpt><trkpt lat="43.41071973358521" lon="11.742584116732495"><ele>333.6666666666667</ele><time>2026-05-01T07:11:01Z</time></trkpt><trkpt lat="43.410767163725595" lon="11.742498981308296"><ele>335.5</ele><time>2026-05-01T07:11:03Z</time></trkpt><trkpt lat="43.4108187681273" lon="11.742411566139536"><ele>337.33333333333337</ele><time>2026-05-01T07:11:05Z</time></trkpt><trkpt lat="43.41086630014708" lon="11.742320806687585"><ele>339.1666666666667</ele><time>2026-05-01T07:11:07Z</time></trkpt><trkpt lat="43.410918744180194" lon="11.74222943311658"><ele>341.0</ele><time>2026-05-01T07:11:09Z</time></trkpt><trkpt lat="43.41097257500336" lon="11.742135085581658"><ele>341.0</ele><time>2026-05-01T07:11:11Z</time></trkpt><trkpt lat="43.411025906180136" lon="11.742038263472143"><ele>341.0</ele><time>2026-05-01T07:11:13Z</time></trkpt><trkpt lat="43.41107989666269" lon="11.741934555441075"><ele>341.0</ele><time>2026-05-01T07:11:15Z</time></trkpt><trkpt lat="43.41113992303062" lon="11.74183562016563"><ele>341.0</ele><time>2026-05-01T07:11:17Z</time></trkpt><trkpt lat="43.411190934678324" lon="11.74172978489664"><ele>341.0</ele><time>2026-05-01T07:11:19Z</time></trkpt><trkpt lat="43.41124867107634" lon="11.74162766271703"><ele>340.6</ele><time>2026-05-01T07:11:21Z</time></trkpt><trkpt lat="43.41130745712025" lon="11.741524611558985"><ele>340.20000000000005</ele><time>2026-05-01T07:11:23Z</time></trkpt><trkpt lat="43.41136832509345" lon="11.741416093459469"><ele>339.79999999999995</ele><time>2026-05-01T07:11:25Z</time></trkpt><trkpt lat="43.411430116323686" lon="11.741300827144789"><ele>339.4</ele><time>2026-05-01T07:11:27Z</time></trkpt><trkpt lat="43.41150152294877" lon="11.741168759794231"><ele>339.0</ele><time>2026-05-01T07:11:29Z</time></trkpt><trkpt lat="43.411573346289956" lon="11.741041269038973"><ele>338.5</ele><time>2026-05-01T07:11:30.999Z</time></trkpt><trkpt lat="43.41161169124624" lon="11.740969070214051"><ele>338.0</ele><time>2026-05-01T07:11:31.999Z</time></trkpt><trkpt lat="43.411692259702505" lon="11.740837411692407"><ele>337.5</ele><time>2026-05-01T07:11:33.999Z</time></trkpt><trkpt lat="43.41176873140034" lon="11.740697133694843"><ele>337.0</ele><time>2026-05-01T07:11:35.999Z</time></trkpt><trkpt lat="43.4118087375578" lon="11.74062360634006"><ele>336.5</ele><time>2026-05-01T07:11:36.999Z</time></trkpt><trkpt lat="43.411845117414195" lon="11.740552867668397"><ele>336.0</ele><time>2026-05-01T07:11:37.999Z</time></trkpt><trkpt lat="43.41188498566751" lon="11.740483532674949"><ele>336.0</ele><time>2026-05-01T07:11:38.999Z</time></trkpt><trkpt lat="43.41192675998728" lon="11.740417924367966"><ele>336.0</ele><time>2026-05-01T07:11:39.999Z</time></trkpt><trkpt lat="43.411967934146425" lon="11.74034434643397"><ele>336.0</ele><time>2026-05-01T07:11:40.999Z</time></trkpt><trkpt lat="43.41200692017319" lon="11.740273532424656"><ele>336.0</ele><time>2026-05-01T07:11:41.999Z</time></trkpt><trkpt lat="43.41204472130553" lon="11.740202440955676"><ele>336.0</ele><time>2026-05-01T07:11:42.999Z</time></trkpt><trkpt lat="43.41208605794225" lon="11.740130598438219"><ele>336.0</ele><time>2026-05-01T07:11:43.999Z</time></trkpt><trkpt lat="43.4121626664549" lon="11.739992180597897"><ele>336.20000000000005</ele><time>2026-05-01T07:11:45.999Z</time></trkpt><trkpt lat="43.412233970483534" lon="11.73986391612911"><ele>336.40000000000003</ele><time>2026-05-01T07:11:47.999Z</time></trkpt><trkpt lat="43.41230984239176" lon="11.739727089056753"><ele>336.6</ele><time>2026-05-01T07:11:49.999Z</time></trkpt><trkpt lat="43.4123526609213" lon="11.739662881128497"><ele>336.8</ele><time>2026-05-01T07:11:50.999Z</time></trkpt><trkpt lat="43.41239207700702" lon="11.739592115938198"><ele>337.0</ele><time>2026-05-01T07:11:51.999Z</time></trkpt><trkpt lat="43.412469962853315" lon="11.739460477911903"><ele>337.00000000000006</ele><time>2026-05-01T07:11:53.999Z</time></trkpt><trkpt lat="43.412510506671964" lon="11.73939155054219"><ele>337.0</ele><time>2026-05-01T07:11:54.999Z</time></trkpt><trkpt lat="43.41255683012724" lon="11.739325377413873"><ele>337.0</ele><time>2026-05-01T07:11:55.999Z</time></trkpt><trkpt lat="43.412608737240234" lon="11.739264971855444"><ele>337.0</ele><time>2026-05-01T07:11:56.999Z</time></trkpt><trkpt lat="43.41265515897327" lon="11.739197215896574"><ele>337.0</ele><time>2026-05-01T07:11:57.999Z</time></trkpt><trkpt lat="43.41270530629796" lon="11.739130828400594"><ele>337.00000000000006</ele><time>2026-05-01T07:11:58.999Z</time></trkpt><trkpt lat="43.41275772894689" lon="11.739062451756196"><ele>337.0</ele><time>2026-05-01T07:11:59.999Z</time></trkpt><trkpt lat="43.41281254024691" lon="11.738993766655831"><ele>336.16666666666663</ele><time>2026-05-01T07:12:00.999Z</time></trkpt><trkpt lat="43.41287017362062" lon="11.738923283142213"><ele>335.3333333333333</ele><time>2026-05-01T07:12:01.999Z</time></trkpt><trkpt lat="43.412928299044175" lon="11.738850166904408"><ele>334.5</ele><time>2026-05-01T07:12:02.999Z</time></trkpt><trkpt lat="43.41298640803731" lon="11.738774771023582"><ele>333.6666666666667</ele><time>2026-05-01T07:12:03.999Z</time></trkpt><trkpt lat="43.41304807624863" lon="11.738700796278664"><ele>332.83333333333337</ele><time>2026-05-01T07:12:04.999Z</time></trkpt><trkpt lat="43.41310913594065" lon="11.73862564782721"><ele>332.0</ele><time>2026-05-01T07:12:05.999Z</time></trkpt><trkpt lat="43.41316620020752" lon="11.738546996212467"><ele>330.6666666666667</ele><time>2026-05-01T07:12:06.999Z</time></trkpt><trkpt lat="43.41323173262203" lon="11.738468256451776"><ele>329.33333333333337</ele><time>2026-05-01T07:12:07.999Z</time></trkpt><trkpt lat="43.41329349608" lon="11.738388697779518"><ele>328.0</ele><time>2026-05-01T07:12:08.999Z</time></trkpt><trkpt lat="43.41335537359222" lon="11.738309812408389"><ele>326.6666666666667</ele><time>2026-05-01T07:12:09.999Z</time></trkpt><trkpt lat="43.41341934302052" lon="11.738231302813848"><ele>325.3333333333333</ele><time>2026-05-01T07:12:10.999Z</time></trkpt><trkpt lat="43.413480861705104" lon="11.738151407829932"><ele>324.0</ele><time>2026-05-01T07:12:11.999Z</time></trkpt><trkpt lat="43.41354239751514" lon="11.738075332006204"><ele>324.0</ele><time>2026-05-01T07:12:12.999Z</time></trkpt><trkpt lat="43.413603280248495" lon="11.73800001779835"><ele>324.0</ele><time>2026-05-01T07:12:13.999Z</time></trkpt><trkpt lat="43.4136613225539" lon="11.737925012102634"><ele>324.0</ele><time>2026-05-01T07:12:14.999Z</time></trkpt><trkpt lat="43.413722107703144" lon="11.737856291520156"><ele>324.0</ele><time>2026-05-01T07:12:15.999Z</time></trkpt><trkpt lat="43.413781993589424" lon="11.737782123698565"><ele>324.0</ele><time>2026-05-01T07:12:16.999Z</time></trkpt><trkpt lat="43.41384258263446" lon="11.737704940063319"><ele>324.0</ele><time>2026-05-01T07:12:17.999Z</time></trkpt><trkpt lat="43.41390090310942" lon="11.73763234288084"><ele>324.1666666666667</ele><time>2026-05-01T07:12:18.999Z</time></trkpt><trkpt lat="43.413961857692364" lon="11.737555906692291"><ele>324.3333333333333</ele><time>2026-05-01T07:12:19.998Z</time></trkpt><trkpt lat="43.414021832470404" lon="11.737487386635786"><ele>324.5</ele><time>2026-05-01T07:12:20.998Z</time></trkpt><trkpt lat="43.41408502679745" lon="11.737420519567232"><ele>324.66666666666663</ele><time>2026-05-01T07:12:21.998Z</time></trkpt><trkpt lat="43.41414656266314" lon="11.737356844399434"><ele>324.8333333333333</ele><time>2026-05-01T07:12:22.998Z</time></trkpt><trkpt lat="43.41420730634249" lon="11.737292634594219"><ele>325.0</ele><time>2026-05-01T07:12:23.998Z</time></trkpt><trkpt lat="43.41427431885333" lon="11.73723392720351"><ele>325.0</ele><time>2026-05-01T07:12:24.998Z</time></trkpt><trkpt lat="43.414336550731136" lon="11.737175366863207"><ele>325.0</ele><time>2026-05-01T07:12:25.998Z</time></trkpt><trkpt lat="43.4144006068972" lon="11.737118028597799"><ele>325.0</ele><time>2026-05-01T07:12:26.998Z</time></trkpt><trkpt lat="43.4144673943867" lon="11.737059813498496"><ele>325.0</ele><time>2026-05-01T07:12:27.998Z</time></trkpt><trkpt lat="43.41453449461091" lon="11.737002608327384"><ele>325.0</ele><time>2026-05-01T07:12:28.998Z</time></trkpt><trkpt lat="43.414597156270126" lon="11.736945936699662"><ele>325.0</ele><time>2026-05-01T07:12:29.998Z</time></trkpt><trkpt lat="43.414663286180506" lon="11.736886568544374"><ele>324.57142857142856</ele><time>2026-05-01T07:12:30.998Z</time></trkpt><trkpt lat="43.41472761605992" lon="11.736828574116078"><ele>324.14285714285717</ele><time>2026-05-01T07:12:31.998Z</time></trkpt><trkpt lat="43.41478949062385" lon="11.736770742148128"><ele>323.7142857142857</ele><time>2026-05-01T07:12:32.998Z</time></trkpt><trkpt lat="43.414852145532606" lon="11.736714407105792"><ele>323.2857142857143</ele><time>2026-05-01T07:12:33.998Z</time></trkpt><trkpt lat="43.414915844613674" lon="11.736654966012727"><ele>322.8571428571429</ele><time>2026-05-01T07:12:34.998Z</time></trkpt><trkpt lat="43.41497711352298" lon="11.736601486716145"><ele>322.42857142857144</ele><time>2026-05-01T07:12:35.998Z</time></trkpt><trkpt lat="43.41503961656901" lon="11.736548554804061"><ele>322.0</ele><time>2026-05-01T07:12:36.998Z</time></trkpt><trkpt lat="43.415099106280906" lon="11.736495989406494"><ele>322.0</ele><time>2026-05-01T07:12:37.998Z</time></trkpt><trkpt lat="43.41516039408872" lon="11.736435156016093"><ele>322.0</ele><time>2026-05-01T07:12:38.998Z</time></trkpt><trkpt lat="43.41522227475149" lon="11.736377216139232"><ele>322.0</ele><time>2026-05-01T07:12:39.998Z</time></trkpt><trkpt lat="43.41528214962126" lon="11.736325798785552"><ele>322.0</ele><time>2026-05-01T07:12:40.998Z</time></trkpt><trkpt lat="43.41534299684107" lon="11.736274847465275"><ele>322.0</ele><time>2026-05-01T07:12:41.998Z</time></trkpt><trkpt lat="43.41540039789513" lon="11.736222644976833"><ele>322.0</ele><time>2026-05-01T07:12:42.998Z</time></trkpt><trkpt lat="43.41545550197593" lon="11.736169837348479"><ele>322.0</ele><time>2026-05-01T07:12:43.998Z</time></trkpt><trkpt lat="43.415507357852185" lon="11.736120638145199"><ele>321.8333333333333</ele><time>2026-05-01T07:12:44.998Z</time></trkpt><trkpt lat="43.41556441484094" lon="11.736076150388845"><ele>321.66666666666663</ele><time>2026-05-01T07:12:45.998Z</time></trkpt><trkpt lat="43.41561726744308" lon="11.73602798723194"><ele>321.5</ele><time>2026-05-01T07:12:46.998Z</time></trkpt><trkpt lat="43.41570699058418" lon="11.735949084830224"><ele>321.3333333333333</ele><time>2026-05-01T07:12:48.998Z</time></trkpt><trkpt lat="43.415788549992676" lon="11.735875485679374"><ele>321.1666666666667</ele><time>2026-05-01T07:12:50.998Z</time></trkpt><trkpt lat="43.41585684707177" lon="11.7358063630511"><ele>321.0</ele><time>2026-05-01T07:12:52.998Z</time></trkpt><trkpt lat="43.41591040273357" lon="11.735736498765956"><ele>321.0</ele><time>2026-05-01T07:12:54.998Z</time></trkpt><trkpt lat="43.41596316177531" lon="11.735678240793451"><ele>321.0</ele><time>2026-05-01T07:12:56.998Z</time></trkpt><trkpt lat="43.416019990909334" lon="11.735582963153641"><ele>321.0</ele><time>2026-05-01T07:12:59.998Z</time></trkpt><trkpt lat="43.41606304172791" lon="11.735486689443155"><ele>321.0</ele><time>2026-05-01T07:13:02.998Z</time></trkpt><trkpt lat="43.41609849022761" lon="11.735395916423744"><ele>321.0</ele><time>2026-05-01T07:13:06Z</time></trkpt><trkpt lat="43.41611877293021" lon="11.735293751916315"><ele>321.0</ele><time>2026-05-01T07:13:09Z</time></trkpt><trkpt lat="43.416136640317845" lon="11.735184913133066"><ele>321.5</ele><time>2026-05-01T07:13:12Z</time></trkpt><trkpt lat="43.41613855136263" lon="11.735077908093803"><ele>322.0</ele><time>2026-05-01T07:13:15Z</time></trkpt><trkpt lat="43.41613590019443" lon="11.734972128563856"><ele>322.5</ele><time>2026-05-01T07:13:18Z</time></trkpt><trkpt lat="43.41613163328698" lon="11.734860141417348"><ele>323.0</ele><time>2026-05-01T07:13:21Z</time></trkpt><trkpt lat="43.416126098548" lon="11.734751692947217"><ele>323.5</ele><time>2026-05-01T07:13:24Z</time></trkpt><trkpt lat="43.41612304076679" lon="11.734645948052332"><ele>324.0</ele><time>2026-05-01T07:13:27Z</time></trkpt><trkpt lat="43.416124553293656" lon="11.734541193983242"><ele>324.0</ele><time>2026-05-01T07:13:30Z</time></trkpt><trkpt lat="43.416136119247206" lon="11.734435930896504"><ele>324.0</ele><time>2026-05-01T07:13:33Z</time></trkpt><trkpt lat="43.416156122492794" lon="11.734336903449403"><ele>324.0</ele><time>2026-05-01T07:13:36Z</time></trkpt><trkpt lat="43.41618577520865" lon="11.734251580196082"><ele>324.0</ele><time>2026-05-01T07:13:38.999Z</time></trkpt><trkpt lat="43.416227080211634" lon="11.734170366094528"><ele>324.0</ele><time>2026-05-01T07:13:41.999Z</time></trkpt><trkpt lat="43.41627521326095" lon="11.734096064946911"><ele>324.0</ele><time>2026-05-01T07:13:44.999Z</time></trkpt><trkpt lat="43.41632771019793" lon="11.734029132648141"><ele>324.0</ele><time>2026-05-01T07:13:47.999Z</time></trkpt><trkpt lat="43.41638732273545" lon="11.733983538649905"><ele>325.7142857142857</ele><time>2026-05-01T07:13:50.999Z</time></trkpt><trkpt lat="43.41644232780568" lon="11.733936787100049"><ele>327.42857142857144</ele><time>2026-05-01T07:13:53.999Z</time></trkpt><trkpt lat="43.41650165638331" lon="11.733896595282244"><ele>329.1428571428571</ele><time>2026-05-01T07:13:56.999Z</time></trkpt><trkpt lat="43.416558722741456" lon="11.733858030631549"><ele>330.8571428571429</ele><time>2026-05-01T07:13:59.999Z</time></trkpt><trkpt lat="43.41661799875304" lon="11.73382587830082"><ele>332.57142857142856</ele><time>2026-05-01T07:14:02.999Z</time></trkpt><trkpt lat="43.416675186331766" lon="11.733788732098214"><ele>334.2857142857143</ele><time>2026-05-01T07:14:05.999Z</time></trkpt><trkpt lat="43.41673515217242" lon="11.733754193790793"><ele>336.0</ele><time>2026-05-01T07:14:08.999Z</time></trkpt><trkpt lat="43.416795146502" lon="11.7337158821881"><ele>336.0</ele><time>2026-05-01T07:14:11.999Z</time></trkpt><trkpt lat="43.416856927788096" lon="11.733682022758476"><ele>336.0</ele><time>2026-05-01T07:14:14.999Z</time></trkpt><trkpt lat="43.41691642440738" lon="11.733647416428639"><ele>336.0</ele><time>2026-05-01T07:14:17.999Z</time></trkpt><trkpt lat="43.41697987509727" lon="11.73361557064153"><ele>336.0</ele><time>2026-05-01T07:14:20.999Z</time></trkpt><trkpt lat="43.417037322110716" lon="11.733579243504543"><ele>336.0</ele><time>2026-05-01T07:14:23.999Z</time></trkpt><trkpt lat="43.41709746082189" lon="11.733550461137352"><ele>336.0</ele><time>2026-05-01T07:14:26.999Z</time></trkpt><trkpt lat="43.41715880965431" lon="11.733504843040711"><ele>336.0</ele><time>2026-05-01T07:14:29.998Z</time></trkpt><trkpt lat="43.4172175330104" lon="11.733471534663217"><ele>336.8333333333333</ele><time>2026-05-01T07:14:32.998Z</time></trkpt><trkpt lat="43.41727685974316" lon="11.733431708683861"><ele>337.6666666666667</ele><time>2026-05-01T07:14:35.998Z</time></trkpt><trkpt lat="43.41735160369383" lon="11.733381466877034"><ele>338.5</ele><time>2026-05-01T07:14:39.998Z</time></trkpt><trkpt lat="43.41742839161485" lon="11.733341837222158"><ele>339.33333333333337</ele><time>2026-05-01T07:14:43.998Z</time></trkpt><trkpt lat="43.41750152948701" lon="11.733295479464093"><ele>340.1666666666667</ele><time>2026-05-01T07:14:47.998Z</time></trkpt><trkpt lat="43.41757446936807" lon="11.73325146841327"><ele>341.0</ele><time>2026-05-01T07:14:51.998Z</time></trkpt><trkpt lat="43.41764481213778" lon="11.733208418749689"><ele>341.0</ele><time>2026-05-01T07:14:55.998Z</time></trkpt><trkpt lat="43.417714624131605" lon="11.733163421676583"><ele>341.0</ele><time>2026-05-01T07:14:59.998Z</time></trkpt><trkpt lat="43.41777550896037" lon="11.733102649910244"><ele>341.0</ele><time>2026-05-01T07:15:03.998Z</time></trkpt><trkpt lat="43.417831106113674" lon="11.733030005498145"><ele>341.0</ele><time>2026-05-01T07:15:07.998Z</time></trkpt><trkpt lat="43.41788126940951" lon="11.732945145710275"><ele>341.0</ele><time>2026-05-01T07:15:12Z</time></trkpt><trkpt lat="43.4179105864363" lon="11.732855991633455"><ele>341.0</ele><time>2026-05-01T07:15:16Z</time></trkpt><trkpt lat="43.41794674360334" lon="11.732783850448868"><ele>341.0</ele><time>2026-05-01T07:15:19Z</time></trkpt><trkpt lat="43.41796782271261" lon="11.732692557698112"><ele>341.33333333333337</ele><time>2026-05-01T07:15:22Z</time></trkpt><trkpt lat="43.417982166290635" lon="11.732592613251802"><ele>341.6666666666667</ele><time>2026-05-01T07:15:26Z</time></trkpt><trkpt lat="43.417987096798306" lon="11.732492003061873"><ele>342.0</ele><time>2026-05-01T07:15:30Z</time></trkpt><trkpt lat="43.41798634553052" lon="11.732386556547622"><ele>342.3333333333333</ele><time>2026-05-01T07:15:34Z</time></trkpt><trkpt lat="43.417966921184615" lon="11.732280672084892"><ele>342.66666666666663</ele><time>2026-05-01T07:15:38Z</time></trkpt><trkpt lat="43.417947543600334" lon="11.73217516051479"><ele>343.0</ele><time>2026-05-01T07:15:42Z</time></trkpt><trkpt lat="43.41791925765332" lon="11.732075229662687"><ele>343.0</ele><time>2026-05-01T07:15:45.999Z</time></trkpt><trkpt lat="43.41788473956392" lon="11.731978755469038"><ele>343.0</ele><time>2026-05-01T07:15:49.999Z</time></trkpt><trkpt lat="43.41785108916085" lon="11.731881711304819"><ele>343.0</ele><time>2026-05-01T07:15:53.999Z</time></trkpt><trkpt lat="43.417818000878896" lon="11.731784929256367"><ele>343.0</ele><time>2026-05-01T07:15:57.999Z</time></trkpt><trkpt lat="43.41778482979303" lon="11.73168643805785"><ele>343.0</ele><time>2026-05-01T07:16:01.999Z</time></trkpt><trkpt lat="43.41775420492187" lon="11.731591567770662"><ele>343.0</ele><time>2026-05-01T07:16:05.999Z</time></trkpt><trkpt lat="43.417733611840816" lon="11.731490827563745"><ele>344.3333333333333</ele><time>2026-05-01T07:16:09.999Z</time></trkpt><trkpt lat="43.417713441112525" lon="11.731389693394398"><ele>345.66666666666663</ele><time>2026-05-01T07:16:13.999Z</time></trkpt><trkpt lat="43.417706162312264" lon="11.731286720103958"><ele>347.0</ele><time>2026-05-01T07:16:17.999Z</time></trkpt><trkpt lat="43.41769748102756" lon="11.731182635202309"><ele>348.3333333333333</ele><time>2026-05-01T07:16:21.999Z</time></trkpt><trkpt lat="43.41769889951105" lon="11.731078022961993"><ele>349.6666666666667</ele><time>2026-05-01T07:16:25.999Z</time></trkpt><trkpt lat="43.4177052894179" lon="11.730971012213866"><ele>351.0</ele><time>2026-05-01T07:16:29.999Z</time></trkpt><trkpt lat="43.41771712483041" lon="11.730860540866608"><ele>351.8333333333333</ele><time>2026-05-01T07:16:33.998Z</time></trkpt><trkpt lat="43.41773080449401" lon="11.73075565581833"><ele>352.6666666666667</ele><time>2026-05-01T07:16:37.998Z</time></trkpt><trkpt lat="43.41775358191003" lon="11.730657068553556"><ele>353.5</ele><time>2026-05-01T07:16:41.998Z</time></trkpt><trkpt lat="43.41777700528293" lon="11.730554055719319"><ele>354.33333333333337</ele><time>2026-05-01T07:16:45.998Z</time></trkpt><trkpt lat="43.41780235917691" lon="11.730471057446348"><ele>355.1666666666667</ele><time>2026-05-01T07:16:49.998Z</time></trkpt><trkpt lat="43.41783743945573" lon="11.730369617349965"><ele>356.0</ele><time>2026-05-01T07:16:53.998Z</time></trkpt><trkpt lat="43.41787696391062" lon="11.730271781780603"><ele>357.6666666666667</ele><time>2026-05-01T07:16:57.998Z</time></trkpt><trkpt lat="43.417923866101916" lon="11.73019344309025"><ele>359.33333333333337</ele><time>2026-05-01T07:17:01.998Z</time></trkpt><trkpt lat="43.4179746854976" lon="11.730113199639261"><ele>361.0</ele><time>2026-05-01T07:17:05.998Z</time></trkpt><trkpt lat="43.41803341933496" lon="11.730038655469997"><ele>362.6666666666667</ele><time>2026-05-01T07:17:09.998Z</time></trkpt><trkpt lat="43.418093082903724" lon="11.729970709274347"><ele>364.3333333333333</ele><time>2026-05-01T07:17:13.998Z</time></trkpt><trkpt lat="43.418152480895785" lon="11.729909717822883"><ele>366.0</ele><time>2026-05-01T07:17:18Z</time></trkpt><trkpt lat="43.41821111518369" lon="11.729841937941572"><ele>367.5</ele><time>2026-05-01T07:17:22Z</time></trkpt><trkpt lat="43.418269717486965" lon="11.72977991289611"><ele>369.0</ele><time>2026-05-01T07:17:26Z</time></trkpt><trkpt lat="43.41832957424145" lon="11.729710113957069"><ele>370.5</ele><time>2026-05-01T07:17:30Z</time></trkpt><trkpt lat="43.41839409625132" lon="11.729641134966894"><ele>372.0</ele><time>2026-05-01T07:17:34Z</time></trkpt><trkpt lat="43.41844817501429" lon="11.72955835426831"><ele>373.5</ele><time>2026-05-01T07:17:38Z</time></trkpt><trkpt lat="43.4184838962548" lon="11.729486076375753"><ele>375.0</ele><time>2026-05-01T07:17:41Z</time></trkpt><trkpt lat="43.418514811692006" lon="11.729377738455005"><ele>375.5714285714286</ele><time>2026-05-01T07:17:45Z</time></trkpt><trkpt lat="43.41852726325456" lon="11.72929263320782"><ele>376.1428571428571</ele><time>2026-05-01T07:17:48Z</time></trkpt><trkpt lat="43.41852805555723" lon="11.729201436614877"><ele>376.7142857142857</ele><time>2026-05-01T07:17:51Z</time></trkpt><trkpt lat="43.418517725626806" lon="11.729109589304722"><ele>377.28571428571433</ele><time>2026-05-01T07:17:54Z</time></trkpt><trkpt lat="43.418493243338006" lon="11.7290221378884"><ele>377.8571428571429</ele><time>2026-05-01T07:17:56.999Z</time></trkpt><trkpt lat="43.418453463333805" lon="11.728942250940307"><ele>378.42857142857144</ele><time>2026-05-01T07:17:59.999Z</time></trkpt><trkpt lat="43.418404179416086" lon="11.728872641421646"><ele>379.0</ele><time>2026-05-01T07:18:02.999Z</time></trkpt><trkpt lat="43.418342649454054" lon="11.728814252376786"><ele>379.00000000000006</ele><time>2026-05-01T07:18:05.999Z</time></trkpt><trkpt lat="43.41827544609559" lon="11.72876869265109"><ele>379.0</ele><time>2026-05-01T07:18:08.999Z</time></trkpt><trkpt lat="43.41820489967953" lon="11.728750868592416"><ele>379.0</ele><time>2026-05-01T07:18:11.999Z</time></trkpt><trkpt lat="43.418132163754585" lon="11.728751760363261"><ele>379.0</ele><time>2026-05-01T07:18:14.999Z</time></trkpt><trkpt lat="43.418061599268114" lon="11.728770749390598"><ele>379.0</ele><time>2026-05-01T07:18:17.999Z</time></trkpt><trkpt lat="43.41799711484984" lon="11.728812818866173"><ele>379.00000000000006</ele><time>2026-05-01T07:18:20.999Z</time></trkpt><trkpt lat="43.41793455402087" lon="11.728878368447461"><ele>379.0</ele><time>2026-05-01T07:18:23.999Z</time></trkpt><trkpt lat="43.417879268439805" lon="11.728945097975076"><ele>379.42857142857144</ele><time>2026-05-01T07:18:26.999Z</time></trkpt><trkpt lat="43.4178182208818" lon="11.729009377024655"><ele>379.8571428571429</ele><time>2026-05-01T07:18:29.999Z</time></trkpt><trkpt lat="43.417762555303575" lon="11.729068163981774"><ele>380.28571428571433</ele><time>2026-05-01T07:18:32.999Z</time></trkpt><trkpt lat="43.41770435602318" lon="11.729119673251022"><ele>380.7142857142857</ele><time>2026-05-01T07:18:35.999Z</time></trkpt><trkpt lat="43.41763862035185" lon="11.729176067880696"><ele>381.1428571428571</ele><time>2026-05-01T07:18:38.999Z</time></trkpt><trkpt lat="43.41757464626911" lon="11.729218716006837"><ele>381.5714285714286</ele><time>2026-05-01T07:18:41.999Z</time></trkpt><trkpt lat="43.41751005385189" lon="11.729252285624533"><ele>382.0</ele><time>2026-05-01T07:18:44.999Z</time></trkpt><trkpt lat="43.41744307942367" lon="11.729291794468375"><ele>382.0</ele><time>2026-05-01T07:18:47.998Z</time></trkpt><trkpt lat="43.41737538536555" lon="11.729315694348179"><ele>382.0</ele><time>2026-05-01T07:18:50.998Z</time></trkpt><trkpt lat="43.41730794369347" lon="11.729323274352025"><ele>382.0</ele><time>2026-05-01T07:18:53.998Z</time></trkpt><trkpt lat="43.417243687889986" lon="11.729303013699484"><ele>382.0</ele><time>2026-05-01T07:18:56.998Z</time></trkpt><trkpt lat="43.41717960974866" lon="11.729269001886752"><ele>382.0</ele><time>2026-05-01T07:18:59.998Z</time></trkpt><trkpt lat="43.417127032023465" lon="11.729217598572555"><ele>382.0</ele><time>2026-05-01T07:19:02.998Z</time></trkpt><trkpt lat="43.41707949878298" lon="11.729132327142995"><ele>382.0</ele><time>2026-05-01T07:19:06.998Z</time></trkpt><trkpt lat="43.41705228921983" lon="11.729053681688006"><ele>382.0</ele><time>2026-05-01T07:19:09.998Z</time></trkpt><trkpt lat="43.41704871395648" lon="11.72894296217279"><ele>382.0</ele><time>2026-05-01T07:19:13.998Z</time></trkpt><trkpt lat="43.41706264184414" lon="11.728853530404145"><ele>382.0</ele><time>2026-05-01T07:19:16.998Z</time></trkpt><trkpt lat="43.41709283907244" lon="11.728773079221714"><ele>382.0</ele><time>2026-05-01T07:19:19.998Z</time></trkpt><trkpt lat="43.41714954277012" lon="11.728692984993783"><ele>382.0</ele><time>2026-05-01T07:19:24Z</time></trkpt><trkpt lat="43.41720049766045" lon="11.728639474867887"><ele>382.0</ele><time>2026-05-01T07:19:27Z</time></trkpt><trkpt lat="43.41727904874445" lon="11.728588950202315"><ele>382.0</ele><time>2026-05-01T07:19:31Z</time></trkpt><trkpt lat="43.41736002799833" lon="11.728552317549758"><ele>384.42857142857144</ele><time>2026-05-01T07:19:35Z</time></trkpt><trkpt lat="43.417418679690904" lon="11.728516098119703"><ele>386.85714285714283</ele><time>2026-05-01T07:19:38Z</time></trkpt><trkpt lat="43.41748085129966" lon="11.728483327906154"><ele>389.2857142857143</ele><time>2026-05-01T07:19:41Z</time></trkpt><trkpt lat="43.41754335098873" lon="11.728452699746724"><ele>391.7142857142857</ele><time>2026-05-01T07:19:44Z</time></trkpt><trkpt lat="43.417613154328386" lon="11.728420170412766"><ele>394.1428571428571</ele><time>2026-05-01T07:19:47Z</time></trkpt><trkpt lat="43.41767389534202" lon="11.728387929215689"><ele>396.57142857142856</ele><time>2026-05-01T07:19:50Z</time></trkpt><trkpt lat="43.41773391083925" lon="11.728348581984944"><ele>399.0</ele><time>2026-05-01T07:19:53Z</time></trkpt><trkpt lat="43.41779121060913" lon="11.728310956821597"><ele>399.0</ele><time>2026-05-01T07:19:56Z</time></trkpt><trkpt lat="43.417851581782784" lon="11.728281631424824"><ele>399.0</ele><time>2026-05-01T07:19:59Z</time></trkpt><trkpt lat="43.417907947857486" lon="11.728242122100804"><ele>399.0</ele><time>2026-05-01T07:20:01.999Z</time></trkpt><trkpt lat="43.41796747561951" lon="11.72820309247423"><ele>399.0</ele><time>2026-05-01T07:20:04.999Z</time></trkpt><trkpt lat="43.418040561019254" lon="11.728152928335158"><ele>399.0</ele><time>2026-05-01T07:20:08.999Z</time></trkpt><trkpt lat="43.41809974842996" lon="11.728115248903489"><ele>399.0</ele><time>2026-05-01T07:20:11.999Z</time></trkpt><trkpt lat="43.41816155262258" lon="11.7280783520358"><ele>399.0</ele><time>2026-05-01T07:20:14.999Z</time></trkpt><trkpt lat="43.418221459441035" lon="11.728039356375653"><ele>397.7142857142857</ele><time>2026-05-01T07:20:17.999Z</time></trkpt><trkpt lat="43.41828428603036" lon="11.728015380362786"><ele>396.42857142857144</ele><time>2026-05-01T07:20:20.999Z</time></trkpt><trkpt lat="43.41834934122344" lon="11.72799012374937"><ele>395.1428571428571</ele><time>2026-05-01T07:20:23.999Z</time></trkpt><trkpt lat="43.418414919874714" lon="11.727980452107273"><ele>393.8571428571429</ele><time>2026-05-01T07:20:26.999Z</time></trkpt><trkpt lat="43.41848032854806" lon="11.72796829820958"><ele>392.57142857142856</ele><time>2026-05-01T07:20:29.999Z</time></trkpt><trkpt lat="43.41856394053322" lon="11.727969147657527"><ele>391.2857142857143</ele><time>2026-05-01T07:20:33.999Z</time></trkpt><trkpt lat="43.41864073403502" lon="11.727976415976483"><ele>390.0</ele><time>2026-05-01T07:20:37.999Z</time></trkpt><trkpt lat="43.41871896135281" lon="11.727986246184633"><ele>390.0</ele><time>2026-05-01T07:20:41.999Z</time></trkpt><trkpt lat="43.41879777398199" lon="11.727996536657201"><ele>390.0</ele><time>2026-05-01T07:20:45.999Z</time></trkpt><trkpt lat="43.4188631173435" lon="11.728008663680352"><ele>390.0</ele><time>2026-05-01T07:20:48.999Z</time></trkpt><trkpt lat="43.41894212522694" lon="11.728037878531879"><ele>390.0</ele><time>2026-05-01T07:20:52.999Z</time></trkpt><trkpt lat="43.41900122113389" lon="11.728070149513588"><ele>390.0</ele><time>2026-05-01T07:20:55.998Z</time></trkpt><trkpt lat="43.419075841411654" lon="11.728120353750851"><ele>390.0</ele><time>2026-05-01T07:20:59.998Z</time></trkpt><trkpt lat="43.41914300918501" lon="11.728184370744332"><ele>391.0</ele><time>2026-05-01T07:21:03.998Z</time></trkpt><trkpt lat="43.41919076700405" lon="11.728258803534905"><ele>392.0</ele><time>2026-05-01T07:21:06.998Z</time></trkpt><trkpt lat="43.41923138514991" lon="11.728333055545086"><ele>393.0</ele><time>2026-05-01T07:21:09.998Z</time></trkpt><trkpt lat="43.41927215132013" lon="11.728419958696906"><ele>394.0</ele><time>2026-05-01T07:21:12.998Z</time></trkpt><trkpt lat="43.41930115960345" lon="11.72849879425881"><ele>395.0</ele><time>2026-05-01T07:21:15.998Z</time></trkpt><trkpt lat="43.419331915578695" lon="11.728579456561334"><ele>396.0</ele><time>2026-05-01T07:21:18.998Z</time></trkpt><trkpt lat="43.41936538916008" lon="11.728668255002225"><ele>397.0</ele><time>2026-05-01T07:21:21.998Z</time></trkpt><trkpt lat="43.41939568851148" lon="11.72875347378378"><ele>397.0</ele><time>2026-05-01T07:21:24.998Z</time></trkpt><trkpt lat="43.419429200159634" lon="11.728836651553307"><ele>397.0</ele><time>2026-05-01T07:21:27.998Z</time></trkpt><trkpt lat="43.41945766398775" lon="11.728926309002494"><ele>397.0</ele><time>2026-05-01T07:21:31Z</time></trkpt><trkpt lat="43.41949119536491" lon="11.729005471943864"><ele>397.0</ele><time>2026-05-01T07:21:34Z</time></trkpt><trkpt lat="43.41952560127728" lon="11.729091704810838"><ele>397.0</ele><time>2026-05-01T07:21:37Z</time></trkpt><trkpt lat="43.41955632466175" lon="11.729175335723506"><ele>397.0</ele><time>2026-05-01T07:21:40Z</time></trkpt><trkpt lat="43.41959158691796" lon="11.729261686257262"><ele>397.0</ele><time>2026-05-01T07:21:43Z</time></trkpt><trkpt lat="43.41962567708887" lon="11.72934639627921"><ele>398.7142857142857</ele><time>2026-05-01T07:21:46Z</time></trkpt><trkpt lat="43.41965902005481" lon="11.729430322180667"><ele>400.42857142857144</ele><time>2026-05-01T07:21:49Z</time></trkpt><trkpt lat="43.41969084583208" lon="11.72951322194974"><ele>402.1428571428571</ele><time>2026-05-01T07:21:52Z</time></trkpt><trkpt lat="43.419725132473076" lon="11.729603690355859"><ele>403.8571428571429</ele><time>2026-05-01T07:21:55Z</time></trkpt><trkpt lat="43.41976454325842" lon="11.729705032908514"><ele>405.5714285714286</ele><time>2026-05-01T07:21:59Z</time></trkpt><trkpt lat="43.41979356616236" lon="11.729784788306052"><ele>407.2857142857143</ele><time>2026-05-01T07:22:02Z</time></trkpt><trkpt lat="43.41983204086986" lon="11.729888084098217"><ele>409.0</ele><time>2026-05-01T07:22:06Z</time></trkpt><trkpt lat="43.41986393780887" lon="11.729965560149978"><ele>409.0</ele><time>2026-05-01T07:22:08.999Z</time></trkpt><trkpt lat="43.41989391727979" lon="11.730043237542212"><ele>409.0</ele><time>2026-05-01T07:22:11.999Z</time></trkpt><trkpt lat="43.419923725642185" lon="11.73012120826126"><ele>409.0</ele><time>2026-05-01T07:22:14.999Z</time></trkpt><trkpt lat="43.41997632740654" lon="11.730209391476075"><ele>409.0</ele><time>2026-05-01T07:22:18.999Z</time></trkpt><trkpt lat="43.42003132807621" lon="11.730283993423152"><ele>409.0</ele><time>2026-05-01T07:22:22.999Z</time></trkpt><trkpt lat="43.42009150384008" lon="11.730348393409725"><ele>409.0</ele><time>2026-05-01T07:22:26.999Z</time></trkpt><trkpt lat="43.42014870083526" lon="11.730397339274221"><ele>409.0</ele><time>2026-05-01T07:22:29.999Z</time></trkpt><trkpt lat="43.4202217430802" lon="11.730442149835948"><ele>409.1666666666667</ele><time>2026-05-01T07:22:33.999Z</time></trkpt><trkpt lat="43.42030124209669" lon="11.730462625994742"><ele>409.33333333333337</ele><time>2026-05-01T07:22:37.999Z</time></trkpt><trkpt lat="43.42037940683248" lon="11.730484648333327"><ele>409.5</ele><time>2026-05-01T07:22:41.999Z</time></trkpt><trkpt lat="43.42044234941705" lon="11.730482059272525"><ele>409.66666666666663</ele><time>2026-05-01T07:22:44.999Z</time></trkpt><trkpt lat="43.42052257413834" lon="11.73046009460264"><ele>409.8333333333333</ele><time>2026-05-01T07:22:48.999Z</time></trkpt><trkpt lat="43.42060067796878" lon="11.730432305768222"><ele>410.0</ele><time>2026-05-01T07:22:52.999Z</time></trkpt><trkpt lat="43.420680712427014" lon="11.730391342042847"><ele>410.0</ele><time>2026-05-01T07:22:56.999Z</time></trkpt><trkpt lat="43.4207389006755" lon="11.730356355238248"><ele>410.0</ele><time>2026-05-01T07:22:59.998Z</time></trkpt><trkpt lat="43.420807278439476" lon="11.730305711000328"><ele>410.0</ele><time>2026-05-01T07:23:02.998Z</time></trkpt><trkpt lat="43.420872088954155" lon="11.730259629302735"><ele>410.0</ele><time>2026-05-01T07:23:05.998Z</time></trkpt><trkpt lat="43.420933872863195" lon="11.730222227838375"><ele>410.0</ele><time>2026-05-01T07:23:08.998Z</time></trkpt><trkpt lat="43.420999829714944" lon="11.730174431910289"><ele>410.0</ele><time>2026-05-01T07:23:11.998Z</time></trkpt><trkpt lat="43.42106953583361" lon="11.73012163226803"><ele>410.0</ele><time>2026-05-01T07:23:15.998Z</time></trkpt><trkpt lat="43.421129713144964" lon="11.730073521671958"><ele>411.42857142857144</ele><time>2026-05-01T07:23:18.998Z</time></trkpt><trkpt lat="43.421193045341916" lon="11.730033308645936"><ele>412.85714285714283</ele><time>2026-05-01T07:23:20.998Z</time></trkpt><trkpt lat="43.42125344521484" lon="11.7299853811279"><ele>414.2857142857143</ele><time>2026-05-01T07:23:23.998Z</time></trkpt><trkpt lat="43.42131621056117" lon="11.729940918989291"><ele>415.7142857142857</ele><time>2026-05-01T07:23:26.998Z</time></trkpt><trkpt lat="43.42137990142974" lon="11.729897779263073"><ele>417.1428571428571</ele><time>2026-05-01T07:23:29.998Z</time></trkpt><trkpt lat="43.42144208006209" lon="11.729854639299557"><ele>418.57142857142856</ele><time>2026-05-01T07:23:32.998Z</time></trkpt><trkpt lat="43.421506356333595" lon="11.729811216979382"><ele>420.0</ele><time>2026-05-01T07:23:36Z</time></trkpt><trkpt lat="43.421569799816155" lon="11.729765774917825"><ele>420.2857142857143</ele><time>2026-05-01T07:23:39Z</time></trkpt><trkpt lat="43.421628769687075" lon="11.729724009282638"><ele>420.57142857142856</ele><time>2026-05-01T07:23:42Z</time></trkpt><trkpt lat="43.421696460551615" lon="11.729678286489257"><ele>420.8571428571429</ele><time>2026-05-01T07:23:45Z</time></trkpt><trkpt lat="43.42176013573294" lon="11.729638608773586"><ele>421.1428571428571</ele><time>2026-05-01T07:23:48Z</time></trkpt><trkpt lat="43.42182665758137" lon="11.729603158563926"><ele>421.42857142857144</ele><time>2026-05-01T07:23:51Z</time></trkpt><trkpt lat="43.42189851178644" lon="11.729577149440066"><ele>421.7142857142857</ele><time>2026-05-01T07:23:54Z</time></trkpt><trkpt lat="43.42196231543553" lon="11.729537353171919"><ele>422.0</ele><time>2026-05-01T07:23:57Z</time></trkpt><trkpt lat="43.42202930362498" lon="11.729490653913507"><ele>421.99999999999994</ele><time>2026-05-01T07:24:00Z</time></trkpt><trkpt lat="43.4220876002499" lon="11.729439827118755"><ele>422.0</ele><time>2026-05-01T07:24:03Z</time></trkpt><trkpt lat="43.42212825749494" lon="11.72936014135528"><ele>422.0</ele><time>2026-05-01T07:24:26.999Z</time></trkpt><trkpt lat="43.42216470023294" lon="11.729243199303552"><ele>422.0</ele><time>2026-05-01T07:24:29.999Z</time></trkpt><trkpt lat="43.42216628377222" lon="11.729136671397823"><ele>421.99999999999994</ele><time>2026-05-01T07:24:31.999Z</time></trkpt><trkpt lat="43.42215196608807" lon="11.729010859928678"><ele>422.0</ele><time>2026-05-01T07:24:33.999Z</time></trkpt><trkpt lat="43.422091030478725" lon="11.728869320926876"><ele>422.8333333333333</ele><time>2026-05-01T07:24:35.999Z</time></trkpt><trkpt lat="43.42204702358191" lon="11.728797121124753"><ele>423.66666666666663</ele><time>2026-05-01T07:24:36.999Z</time></trkpt><trkpt lat="43.4219998593952" lon="11.728714073204742"><ele>424.5</ele><time>2026-05-01T07:24:37.999Z</time></trkpt><trkpt lat="43.42195580705926" lon="11.72862011749305"><ele>425.33333333333337</ele><time>2026-05-01T07:24:38.999Z</time></trkpt><trkpt lat="43.421905879758185" lon="11.728520831727542"><ele>426.1666666666667</ele><time>2026-05-01T07:24:39.999Z</time></trkpt><trkpt lat="43.42185451235279" lon="11.728416242361925"><ele>427.0</ele><time>2026-05-01T07:24:40.999Z</time></trkpt><trkpt lat="43.42181540507215" lon="11.728314120901427"><ele>427.0</ele><time>2026-05-01T07:24:41.999Z</time></trkpt><trkpt lat="43.421754108389116" lon="11.728193058014574"><ele>427.00000000000006</ele><time>2026-05-01T07:24:42.999Z</time></trkpt><trkpt lat="43.421704792297255" lon="11.728063932728034"><ele>427.00000000000006</ele><time>2026-05-01T07:24:43.999Z</time></trkpt><trkpt lat="43.42165980244235" lon="11.727929665468011"><ele>427.0</ele><time>2026-05-01T07:24:44.999Z</time></trkpt><trkpt lat="43.42161430844815" lon="11.727792681128747"><ele>427.0</ele><time>2026-05-01T07:24:45.999Z</time></trkpt><trkpt lat="43.4215693289417" lon="11.727650666231527"><ele>425.5</ele><time>2026-05-01T07:24:46.999Z</time></trkpt><trkpt lat="43.42151918057404" lon="11.727506741892766"><ele>424.0</ele><time>2026-05-01T07:24:47.999Z</time></trkpt><trkpt lat="43.4214649919501" lon="11.7273685972717"><ele>422.5</ele><time>2026-05-01T07:24:48.999Z</time></trkpt><trkpt lat="43.42144065090705" lon="11.727212596538507"><ele>421.0</ele><time>2026-05-01T07:24:49.999Z</time></trkpt><trkpt lat="43.421483193047365" lon="11.727051492217214"><ele>421.0</ele><time>2026-05-01T07:24:50.999Z</time></trkpt><trkpt lat="43.42157735024659" lon="11.726926514642876"><ele>421.0</ele><time>2026-05-01T07:24:51.999Z</time></trkpt><trkpt lat="43.42169956562341" lon="11.726877527572054"><ele>421.0</ele><time>2026-05-01T07:24:52.999Z</time></trkpt><trkpt lat="43.421812494464085" lon="11.726912820419177"><ele>421.0</ele><time>2026-05-01T07:24:53.999Z</time></trkpt><trkpt lat="43.42187021804372" lon="11.72705519528608"><ele>421.0</ele><time>2026-05-01T07:24:54.999Z</time></trkpt><trkpt lat="43.421859387295065" lon="11.727195822241708"><ele>421.0</ele><time>2026-05-01T07:24:55.999Z</time></trkpt><trkpt lat="43.42186716876428" lon="11.727334595376032"><ele>421.0</ele><time>2026-05-01T07:24:56.999Z</time></trkpt><trkpt lat="43.42186774089067" lon="11.727471294810675"><ele>421.0</ele><time>2026-05-01T07:24:57.999Z</time></trkpt><trkpt lat="43.421870312244764" lon="11.727616486203459"><ele>421.0</ele><time>2026-05-01T07:24:58.999Z</time></trkpt><trkpt lat="43.42188033784425" lon="11.72776242105345"><ele>420.20000000000005</ele><time>2026-05-01T07:24:59.999Z</time></trkpt><trkpt lat="43.42190655337579" lon="11.727905300319062"><ele>419.40000000000003</ele><time>2026-05-01T07:25:00.999Z</time></trkpt><trkpt lat="43.421967768373705" lon="11.728033053058947"><ele>418.6</ele><time>2026-05-01T07:25:01.999Z</time></trkpt><trkpt lat="43.422064381886095" lon="11.728114215005323"><ele>417.8</ele><time>2026-05-01T07:25:02.998Z</time></trkpt><trkpt lat="43.42218003254131" lon="11.728129108491988"><ele>417.0</ele><time>2026-05-01T07:25:03.998Z</time></trkpt><trkpt lat="43.4222892920217" lon="11.728091896949264"><ele>417.0</ele><time>2026-05-01T07:25:04.998Z</time></trkpt><trkpt lat="43.42238260206368" lon="11.728002501589712"><ele>417.0</ele><time>2026-05-01T07:25:05.998Z</time></trkpt><trkpt lat="43.42245094486739" lon="11.727882853376602"><ele>417.0</ele><time>2026-05-01T07:25:06.998Z</time></trkpt><trkpt lat="43.42249550048246" lon="11.727750035615156"><ele>417.0</ele><time>2026-05-01T07:25:07.998Z</time></trkpt><trkpt lat="43.42253806143639" lon="11.727620444450537"><ele>417.0</ele><time>2026-05-01T07:25:08.998Z</time></trkpt><trkpt lat="43.422597603249464" lon="11.727501510770788"><ele>414.8</ele><time>2026-05-01T07:25:09.998Z</time></trkpt><trkpt lat="43.42266467023242" lon="11.727391423512334"><ele>412.6</ele><time>2026-05-01T07:25:10.998Z</time></trkpt><trkpt lat="43.4227400281981" lon="11.72728987385424"><ele>410.40000000000003</ele><time>2026-05-01T07:25:11.998Z</time></trkpt><trkpt lat="43.4228204417429" lon="11.727184088030516"><ele>408.20000000000005</ele><time>2026-05-01T07:25:12.998Z</time></trkpt><trkpt lat="43.42290473363398" lon="11.727079008603656"><ele>406.0</ele><time>2026-05-01T07:25:13.998Z</time></trkpt><trkpt lat="43.422986723043216" lon="11.726963877074446"><ele>402.5</ele><time>2026-05-01T07:25:14.998Z</time></trkpt><trkpt lat="43.423077218033086" lon="11.726855550445967"><ele>399.0</ele><time>2026-05-01T07:25:15.998Z</time></trkpt><trkpt lat="43.423176421489615" lon="11.726766923736015"><ele>395.5</ele><time>2026-05-01T07:25:16.998Z</time></trkpt><trkpt lat="43.42328970244466" lon="11.726689588888334"><ele>392.0</ele><time>2026-05-01T07:25:17.998Z</time></trkpt><trkpt lat="43.42340859454245" lon="11.726636178875072"><ele>392.0</ele><time>2026-05-01T07:25:18.998Z</time></trkpt><trkpt lat="43.423537752772106" lon="11.726608570599147"><ele>392.0</ele><time>2026-05-01T07:25:19.998Z</time></trkpt><trkpt lat="43.423666491461276" lon="11.726583433684453"><ele>392.0</ele><time>2026-05-01T07:25:20.998Z</time></trkpt><trkpt lat="43.42379471440371" lon="11.72657325822082"><ele>392.0</ele><time>2026-05-01T07:25:21.998Z</time></trkpt><trkpt lat="43.42392335837439" lon="11.726572305055194"><ele>391.5</ele><time>2026-05-01T07:25:22.998Z</time></trkpt><trkpt lat="43.424050628069374" lon="11.726577327662763"><ele>391.0</ele><time>2026-05-01T07:25:23.998Z</time></trkpt><trkpt lat="43.424181493393654" lon="11.726574238652319"><ele>390.5</ele><time>2026-05-01T07:25:24.998Z</time></trkpt><trkpt lat="43.424314125324926" lon="11.726563513944724"><ele>390.0</ele><time>2026-05-01T07:25:25.998Z</time></trkpt><trkpt lat="43.42444464769249" lon="11.726557202926069"><ele>390.0</ele><time>2026-05-01T07:25:26.998Z</time></trkpt><trkpt lat="43.42456867702866" lon="11.72653957802801"><ele>390.0</ele><time>2026-05-01T07:25:27.998Z</time></trkpt><trkpt lat="43.4246740050387" lon="11.726464840686015"><ele>390.0</ele><time>2026-05-01T07:25:28.998Z</time></trkpt><trkpt lat="43.4247604659493" lon="11.726345921461762"><ele>390.0</ele><time>2026-05-01T07:25:29.998Z</time></trkpt><trkpt lat="43.42481567584029" lon="11.726202277341391"><ele>390.0</ele><time>2026-05-01T07:25:30.998Z</time></trkpt><trkpt lat="43.4248111265768" lon="11.726039702391837"><ele>390.0</ele><time>2026-05-01T07:25:31.998Z</time></trkpt><trkpt lat="43.42475467119256" lon="11.725885459150081"><ele>390.0</ele><time>2026-05-01T07:25:32.998Z</time></trkpt><trkpt lat="43.42466631822755" lon="11.725782895635723"><ele>390.0</ele><time>2026-05-01T07:25:33.998Z</time></trkpt><trkpt lat="43.424563759575854" lon="11.725715528776945"><ele>388.8</ele><time>2026-05-01T07:25:34.998Z</time></trkpt><trkpt lat="43.42445566201101" lon="11.725680403758265"><ele>387.6</ele><time>2026-05-01T07:25:35.998Z</time></trkpt><trkpt lat="43.424353441538265" lon="11.725642308743486"><ele>386.4</ele><time>2026-05-01T07:25:36.998Z</time></trkpt><trkpt lat="43.42425063668789" lon="11.725593612737212"><ele>385.2</ele><time>2026-05-01T07:25:37.998Z</time></trkpt><trkpt lat="43.4241454703351" lon="11.725551164227298"><ele>384.0</ele><time>2026-05-01T07:25:38.998Z</time></trkpt><trkpt lat="43.424035169741984" lon="11.725492853314654"><ele>384.0</ele><time>2026-05-01T07:25:39.998Z</time></trkpt><trkpt lat="43.42393651168911" lon="11.725418200328257"><ele>384.0</ele><time>2026-05-01T07:25:41Z</time></trkpt><trkpt lat="43.42383865190825" lon="11.725342292669309"><ele>384.0</ele><time>2026-05-01T07:25:42Z</time></trkpt><trkpt lat="43.42373817059218" lon="11.7252673962785"><ele>384.0</ele><time>2026-05-01T07:25:43Z</time></trkpt><trkpt lat="43.42363958859897" lon="11.725194398566403"><ele>383.25</ele><time>2026-05-01T07:25:44Z</time></trkpt><trkpt lat="43.42353932702438" lon="11.725129506849306"><ele>382.5</ele><time>2026-05-01T07:25:45Z</time></trkpt><trkpt lat="43.4234335727807" lon="11.725081590312636"><ele>381.75</ele><time>2026-05-01T07:25:46Z</time></trkpt><trkpt lat="43.42331796980471" lon="11.725053872694028"><ele>381.0</ele><time>2026-05-01T07:25:47Z</time></trkpt><trkpt lat="43.42320700541497" lon="11.725030888099525"><ele>381.0</ele><time>2026-05-01T07:25:48Z</time></trkpt><trkpt lat="43.42309318594701" lon="11.72499691081748"><ele>381.0</ele><time>2026-05-01T07:25:49Z</time></trkpt><trkpt lat="43.42298057634412" lon="11.72495099303589"><ele>381.0</ele><time>2026-05-01T07:25:50Z</time></trkpt><trkpt lat="43.42287004420888" lon="11.724898268655918"><ele>381.0</ele><time>2026-05-01T07:25:51Z</time></trkpt><trkpt lat="43.42275842809549" lon="11.724834792055232"><ele>380.25</ele><time>2026-05-01T07:25:52Z</time></trkpt><trkpt lat="43.42265448648284" lon="11.724757607636224"><ele>379.5</ele><time>2026-05-01T07:25:53Z</time></trkpt><trkpt lat="43.42255589668649" lon="11.724675267286646"><ele>378.75</ele><time>2026-05-01T07:25:54Z</time></trkpt><trkpt lat="43.422461338059335" lon="11.72458281021361"><ele>378.0</ele><time>2026-05-01T07:25:55Z</time></trkpt><trkpt lat="43.42238512886144" lon="11.724465295349153"><ele>377.25</ele><time>2026-05-01T07:25:56Z</time></trkpt><trkpt lat="43.42233460018233" lon="11.724316048143338"><ele>376.5</ele><time>2026-05-01T07:25:57Z</time></trkpt><trkpt lat="43.42232403858845" lon="11.724154072432214"><ele>375.75</ele><time>2026-05-01T07:25:58Z</time></trkpt><trkpt lat="43.42233559732965" lon="11.724001903125954"><ele>375.0</ele><time>2026-05-01T07:25:59Z</time></trkpt><trkpt lat="43.42233318300293" lon="11.723855528986471"><ele>375.0</ele><time>2026-05-01T07:26:00Z</time></trkpt><trkpt lat="43.42232980471601" lon="11.72370649547614"><ele>375.0</ele><time>2026-05-01T07:26:01Z</time></trkpt><trkpt lat="43.422322012356744" lon="11.723562407443097"><ele>375.0</ele><time>2026-05-01T07:26:02Z</time></trkpt><trkpt lat="43.42231766922581" lon="11.723418575007905"><ele>375.0</ele><time>2026-05-01T07:26:03Z</time></trkpt><trkpt lat="43.42231522333332" lon="11.723278379379144"><ele>375.0</ele><time>2026-05-01T07:26:04Z</time></trkpt><trkpt lat="43.422318641088246" lon="11.723135221803624"><ele>374.0</ele><time>2026-05-01T07:26:05Z</time></trkpt><trkpt lat="43.42232829026733" lon="11.72299101317245"><ele>373.0</ele><time>2026-05-01T07:26:06Z</time></trkpt><trkpt lat="43.42233782341178" lon="11.72284834368819"><ele>372.0</ele><time>2026-05-01T07:26:07Z</time></trkpt><trkpt lat="43.4223491112563" lon="11.7227097239375"><ele>371.0</ele><time>2026-05-01T07:26:08Z</time></trkpt><trkpt lat="43.422366832890475" lon="11.722567924609997"><ele>370.0</ele><time>2026-05-01T07:26:09Z</time></trkpt><trkpt lat="43.42237538816077" lon="11.722439340334674"><ele>369.2</ele><time>2026-05-01T07:26:10Z</time></trkpt><trkpt lat="43.42238266676673" lon="11.722299889732819"><ele>368.4</ele><time>2026-05-01T07:26:11Z</time></trkpt><trkpt lat="43.42239063746702" lon="11.722166032604068"><ele>367.6</ele><time>2026-05-01T07:26:12Z</time></trkpt><trkpt lat="43.42239783806935" lon="11.722031445998482"><ele>366.8</ele><time>2026-05-01T07:26:13Z</time></trkpt><trkpt lat="43.42241276456973" lon="11.72190057019227"><ele>366.0</ele><time>2026-05-01T07:26:14Z</time></trkpt><trkpt lat="43.42241806279939" lon="11.72177895148281"><ele>365.8333333333333</ele><time>2026-05-01T07:26:15Z</time></trkpt><trkpt lat="43.42242085729017" lon="11.721651717028143"><ele>365.6666666666667</ele><time>2026-05-01T07:26:16Z</time></trkpt><trkpt lat="43.42241318439118" lon="11.721533139514003"><ele>365.5</ele><time>2026-05-01T07:26:17Z</time></trkpt><trkpt lat="43.42240703055165" lon="11.721410724045132"><ele>365.33333333333337</ele><time>2026-05-01T07:26:18Z</time></trkpt><trkpt lat="43.422390234497435" lon="11.721292539799736"><ele>365.1666666666667</ele><time>2026-05-01T07:26:19Z</time></trkpt><trkpt lat="43.4223735204294" lon="11.72117443253646"><ele>365.0</ele><time>2026-05-01T07:26:20Z</time></trkpt><trkpt lat="43.422359835142274" lon="11.721056027013125"><ele>365.4</ele><time>2026-05-01T07:26:21Z</time></trkpt><trkpt lat="43.42234137240834" lon="11.720934451694434"><ele>365.8</ele><time>2026-05-01T07:26:21.999Z</time></trkpt><trkpt lat="43.42232832925285" lon="11.720813486112206"><ele>366.20000000000005</ele><time>2026-05-01T07:26:22.999Z</time></trkpt><trkpt lat="43.4223176405372" lon="11.72068597211147"><ele>366.6</ele><time>2026-05-01T07:26:23.999Z</time></trkpt><trkpt lat="43.42231492572453" lon="11.720558662046145"><ele>367.0</ele><time>2026-05-01T07:26:24.999Z</time></trkpt><trkpt lat="43.42231589899752" lon="11.720426690349756"><ele>367.0</ele><time>2026-05-01T07:26:25.999Z</time></trkpt><trkpt lat="43.42232929522983" lon="11.720293784111018"><ele>367.0</ele><time>2026-05-01T07:26:26.999Z</time></trkpt><trkpt lat="43.42233942423881" lon="11.72015204498767"><ele>367.0</ele><time>2026-05-01T07:26:27.999Z</time></trkpt><trkpt lat="43.42235690131175" lon="11.720016867472484"><ele>367.0</ele><time>2026-05-01T07:26:28.999Z</time></trkpt><trkpt lat="43.42237273238464" lon="11.719881325832567"><ele>367.0</ele><time>2026-05-01T07:26:29.999Z</time></trkpt><trkpt lat="43.42238956945762" lon="11.719744761178605"><ele>366.8</ele><time>2026-05-01T07:26:30.999Z</time></trkpt><trkpt lat="43.42240229569959" lon="11.719599729547"><ele>366.6</ele><time>2026-05-01T07:26:31.999Z</time></trkpt><trkpt lat="43.42242720822308" lon="11.719459549020907"><ele>366.40000000000003</ele><time>2026-05-01T07:26:32.999Z</time></trkpt><trkpt lat="43.42245264564395" lon="11.719321846144938"><ele>366.20000000000005</ele><time>2026-05-01T07:26:33.999Z</time></trkpt><trkpt lat="43.42248333591737" lon="11.71919643890481"><ele>366.0</ele><time>2026-05-01T07:26:34.999Z</time></trkpt><trkpt lat="43.422526252338" lon="11.719048992524785"><ele>364.4</ele><time>2026-05-01T07:26:35.999Z</time></trkpt><trkpt lat="43.42256441171354" lon="11.7189113250623"><ele>362.8</ele><time>2026-05-01T07:26:36.999Z</time></trkpt><trkpt lat="43.42260919957644" lon="11.718773737419486"><ele>361.2</ele><time>2026-05-01T07:26:37.999Z</time></trkpt><trkpt lat="43.42265237283154" lon="11.718633356831416"><ele>359.59999999999997</ele><time>2026-05-01T07:26:38.999Z</time></trkpt><trkpt lat="43.422699401125186" lon="11.718499806325843"><ele>358.0</ele><time>2026-05-01T07:26:39.999Z</time></trkpt><trkpt lat="43.42273171691506" lon="11.718351027895181"><ele>356.25</ele><time>2026-05-01T07:26:40.999Z</time></trkpt><trkpt lat="43.42274415148921" lon="11.718199437231164"><ele>354.5</ele><time>2026-05-01T07:26:41.999Z</time></trkpt><trkpt lat="43.42273858674577" lon="11.718036103548767"><ele>352.75</ele><time>2026-05-01T07:26:42.999Z</time></trkpt><trkpt lat="43.422720003487626" lon="11.717879358497083"><ele>351.0</ele><time>2026-05-01T07:26:43.999Z</time></trkpt><trkpt lat="43.42268815460037" lon="11.717733005463812"><ele>350.5</ele><time>2026-05-01T07:26:44.999Z</time></trkpt><trkpt lat="43.42264732700311" lon="11.717580710291456"><ele>350.0</ele><time>2026-05-01T07:26:45.999Z</time></trkpt><trkpt lat="43.4225945827287" lon="11.717442420286892"><ele>349.5</ele><time>2026-05-01T07:26:46.999Z</time></trkpt><trkpt lat="43.422532011286044" lon="11.717303163534352"><ele>349.0</ele><time>2026-05-01T07:26:47.999Z</time></trkpt><trkpt lat="43.42247175003352" lon="11.717168720190298"><ele>349.0</ele><time>2026-05-01T07:26:48.999Z</time></trkpt><trkpt lat="43.42241834232238" lon="11.717038211996211"><ele>349.0</ele><time>2026-05-01T07:26:49.999Z</time></trkpt><trkpt lat="43.42236654099302" lon="11.716911509383644"><ele>349.0</ele><time>2026-05-01T07:26:50.999Z</time></trkpt><trkpt lat="43.4223160594388" lon="11.716794866706355"><ele>349.0</ele><time>2026-05-01T07:26:51.999Z</time></trkpt><trkpt lat="43.422262629576075" lon="11.716669510488375"><ele>349.0</ele><time>2026-05-01T07:26:52.999Z</time></trkpt><trkpt lat="43.42220787867051" lon="11.7165363110467"><ele>349.79999999999995</ele><time>2026-05-01T07:26:53.999Z</time></trkpt><trkpt lat="43.42216060600807" lon="11.71643368484982"><ele>350.59999999999997</ele><time>2026-05-01T07:26:54.999Z</time></trkpt><trkpt lat="43.422105308268016" lon="11.716321864710757"><ele>351.4</ele><time>2026-05-01T07:26:55.999Z</time></trkpt><trkpt lat="43.422046318030056" lon="11.71621434889005"><ele>352.2</ele><time>2026-05-01T07:26:56.999Z</time></trkpt><trkpt lat="43.42198337678951" lon="11.716106470061938"><ele>353.0</ele><time>2026-05-01T07:26:57.999Z</time></trkpt><trkpt lat="43.421922320834064" lon="11.715998604523794"><ele>351.2</ele><time>2026-05-01T07:26:58.999Z</time></trkpt><trkpt lat="43.421863892782405" lon="11.715890947582835"><ele>349.4</ele><time>2026-05-01T07:26:59.999Z</time></trkpt><trkpt lat="43.42180816751529" lon="11.71578391584605"><ele>347.59999999999997</ele><time>2026-05-01T07:27:00.999Z</time></trkpt><trkpt lat="43.42175320191271" lon="11.71567348956403"><ele>345.79999999999995</ele><time>2026-05-01T07:27:01.999Z</time></trkpt><trkpt lat="43.42170947059352" lon="11.715558462429016"><ele>344.0</ele><time>2026-05-01T07:27:02.999Z</time></trkpt><trkpt lat="43.42167480529356" lon="11.715433424546854"><ele>344.0</ele><time>2026-05-01T07:27:03.999Z</time></trkpt><trkpt lat="43.42164969191654" lon="11.715304797650111"><ele>344.0</ele><time>2026-05-01T07:27:04.999Z</time></trkpt><trkpt lat="43.42163070792389" lon="11.715177968805275"><ele>344.0</ele><time>2026-05-01T07:27:05.999Z</time></trkpt><trkpt lat="43.42162145053173" lon="11.715050800134359"><ele>344.0</ele><time>2026-05-01T07:27:06.999Z</time></trkpt><trkpt lat="43.42161906959475" lon="11.714923455325472"><ele>344.0</ele><time>2026-05-01T07:27:07.999Z</time></trkpt><trkpt lat="43.42162724671408" lon="11.71479961325433"><ele>344.0</ele><time>2026-05-01T07:27:08.999Z</time></trkpt><trkpt lat="43.42165003268655" lon="11.71467438515218"><ele>344.0</ele><time>2026-05-01T07:27:09.999Z</time></trkpt><trkpt lat="43.42168582136504" lon="11.71455877653797"><ele>344.0</ele><time>2026-05-01T07:27:10.998Z</time></trkpt><trkpt lat="43.42172697746155" lon="11.714446107112943"><ele>344.0</ele><time>2026-05-01T07:27:11.998Z</time></trkpt><trkpt lat="43.4217803712233" lon="11.714345670779553"><ele>344.0</ele><time>2026-05-01T07:27:12.998Z</time></trkpt><trkpt lat="43.42183798999534" lon="11.714254056047121"><ele>343.6</ele><time>2026-05-01T07:27:13.998Z</time></trkpt><trkpt lat="43.4218937378877" lon="11.714154506619295"><ele>343.2</ele><time>2026-05-01T07:27:14.998Z</time></trkpt><trkpt lat="43.421949420491714" lon="11.714058040841042"><ele>342.8</ele><time>2026-05-01T07:27:15.998Z</time></trkpt><trkpt lat="43.42200406543391" lon="11.713960098713502"><ele>342.40000000000003</ele><time>2026-05-01T07:27:16.998Z</time></trkpt><trkpt lat="43.42205813530805" lon="11.713860758825312"><ele>342.0</ele><time>2026-05-01T07:27:17.998Z</time></trkpt><trkpt lat="43.42211228782095" lon="11.713760890192074"><ele>342.5</ele><time>2026-05-01T07:27:18.998Z</time></trkpt><trkpt lat="43.42216940116024" lon="11.71366354332103"><ele>343.0</ele><time>2026-05-01T07:27:19.998Z</time></trkpt><trkpt lat="43.4222246850564" lon="11.71356666912115"><ele>343.5</ele><time>2026-05-01T07:27:20.998Z</time></trkpt><trkpt lat="43.42227800249536" lon="11.713472078656897"><ele>344.0</ele><time>2026-05-01T07:27:21.998Z</time></trkpt><trkpt lat="43.42233330606803" lon="11.713376748375763"><ele>344.5</ele><time>2026-05-01T07:27:22.998Z</time></trkpt><trkpt lat="43.422388421193624" lon="11.713275614676206"><ele>345.0</ele><time>2026-05-01T07:27:23.998Z</time></trkpt><trkpt lat="43.422441980474396" lon="11.713177563272254"><ele>345.0</ele><time>2026-05-01T07:27:24.998Z</time></trkpt><trkpt lat="43.42249630900687" lon="11.71307821125512"><ele>345.0</ele><time>2026-05-01T07:27:25.998Z</time></trkpt><trkpt lat="43.42254339010704" lon="11.712974632943075"><ele>345.0</ele><time>2026-05-01T07:27:26.998Z</time></trkpt><trkpt lat="43.42258385924599" lon="11.712860358669465"><ele>345.0</ele><time>2026-05-01T07:27:27.998Z</time></trkpt><trkpt lat="43.422616182952204" lon="11.712741987177258"><ele>345.0</ele><time>2026-05-01T07:27:28.998Z</time></trkpt><trkpt lat="43.42264014719022" lon="11.712618074072083"><ele>344.8</ele><time>2026-05-01T07:27:29.998Z</time></trkpt><trkpt lat="43.42265277545514" lon="11.712487850976613"><ele>344.6</ele><time>2026-05-01T07:27:30.998Z</time></trkpt><trkpt lat="43.42265659486686" lon="11.71235729373722"><ele>344.4</ele><time>2026-05-01T07:27:31.998Z</time></trkpt><trkpt lat="43.42265316545584" lon="11.712229029995507"><ele>344.2</ele><time>2026-05-01T07:27:32.998Z</time></trkpt><trkpt lat="43.422647561021755" lon="11.712100980053615"><ele>344.0</ele><time>2026-05-01T07:27:33.998Z</time></trkpt><trkpt lat="43.42264283582777" lon="11.71197471416189"><ele>344.0</ele><time>2026-05-01T07:27:34.998Z</time></trkpt><trkpt lat="43.42264030100594" lon="11.711844316491732"><ele>344.0</ele><time>2026-05-01T07:27:35.998Z</time></trkpt><trkpt lat="43.42263735143603" lon="11.711717411207868"><ele>344.0</ele><time>2026-05-01T07:27:36.998Z</time></trkpt><trkpt lat="43.42263444257906" lon="11.711591304403361"><ele>344.0</ele><time>2026-05-01T07:27:37.998Z</time></trkpt><trkpt lat="43.422630968291266" lon="11.711467849991813"><ele>344.0</ele><time>2026-05-01T07:27:38.998Z</time></trkpt><trkpt lat="43.42262889034983" lon="11.711345335020457"><ele>344.0</ele><time>2026-05-01T07:27:39.998Z</time></trkpt><trkpt lat="43.42262546937946" lon="11.711223776727957"><ele>344.0</ele><time>2026-05-01T07:27:40.998Z</time></trkpt><trkpt lat="43.422624732657596" lon="11.711100037408684"><ele>344.0</ele><time>2026-05-01T07:27:41.998Z</time></trkpt><trkpt lat="43.422628531013025" lon="11.710981172852398"><ele>344.0</ele><time>2026-05-01T07:27:42.998Z</time></trkpt><trkpt lat="43.42264091448062" lon="11.710859450434306"><ele>344.0</ele><time>2026-05-01T07:27:43.998Z</time></trkpt><trkpt lat="43.42264803042919" lon="11.710735808185298"><ele>344.0</ele><time>2026-05-01T07:27:44.998Z</time></trkpt><trkpt lat="43.422658791273655" lon="11.71061403043662"><ele>343.2</ele><time>2026-05-01T07:27:45.998Z</time></trkpt><trkpt lat="43.422672382528994" lon="11.710492847579966"><ele>342.4</ele><time>2026-05-01T07:27:47Z</time></trkpt><trkpt lat="43.42269008511439" lon="11.710368054323876"><ele>341.6</ele><time>2026-05-01T07:27:48Z</time></trkpt><trkpt lat="43.42269959846565" lon="11.710245407413394"><ele>340.8</ele><time>2026-05-01T07:27:49Z</time></trkpt><trkpt lat="43.42271027671015" lon="11.710121791955904"><ele>340.0</ele><time>2026-05-01T07:27:50Z</time></trkpt><trkpt lat="43.422727804928776" lon="11.709995333356279"><ele>339.4</ele><time>2026-05-01T07:27:51Z</time></trkpt><trkpt lat="43.422740686750586" lon="11.709875173429234"><ele>338.8</ele><time>2026-05-01T07:27:52Z</time></trkpt><trkpt lat="43.42275049850886" lon="11.709749012608205"><ele>338.20000000000005</ele><time>2026-05-01T07:27:53Z</time></trkpt><trkpt lat="43.42276351427491" lon="11.709623598743947"><ele>337.6</ele><time>2026-05-01T07:27:54Z</time></trkpt><trkpt lat="43.42278043044734" lon="11.709500112091954"><ele>337.0</ele><time>2026-05-01T07:27:55Z</time></trkpt><trkpt lat="43.42279345306986" lon="11.70937252687199"><ele>336.40000000000003</ele><time>2026-05-01T07:27:56Z</time></trkpt><trkpt lat="43.42281241667713" lon="11.709244938045632"><ele>335.8</ele><time>2026-05-01T07:27:57Z</time></trkpt><trkpt lat="43.422835267653696" lon="11.709121749543641"><ele>335.2</ele><time>2026-05-01T07:27:58Z</time></trkpt><trkpt lat="43.42286108828786" lon="11.70899763602347"><ele>334.6</ele><time>2026-05-01T07:27:59Z</time></trkpt><trkpt lat="43.422886733533005" lon="11.708874010196418"><ele>334.0</ele><time>2026-05-01T07:28:00Z</time></trkpt><trkpt lat="43.42291204218959" lon="11.708748107037906"><ele>334.0</ele><time>2026-05-01T07:28:01Z</time></trkpt><trkpt lat="43.42293864143849" lon="11.708619588056125"><ele>334.0</ele><time>2026-05-01T07:28:02Z</time></trkpt><trkpt lat="43.4229658134514" lon="11.70849549505518"><ele>334.0</ele><time>2026-05-01T07:28:03Z</time></trkpt><trkpt lat="43.42299095303351" lon="11.70836385908285"><ele>334.0</ele><time>2026-05-01T07:28:04Z</time></trkpt><trkpt lat="43.423016728049596" lon="11.708233284260455"><ele>334.0</ele><time>2026-05-01T07:28:05Z</time></trkpt><trkpt lat="43.423039440513264" lon="11.708103666129041"><ele>334.2</ele><time>2026-05-01T07:28:06Z</time></trkpt><trkpt lat="43.423062730145126" lon="11.707974372411892"><ele>334.4</ele><time>2026-05-01T07:28:07Z</time></trkpt><trkpt lat="43.42308912147261" lon="11.70784549293136"><ele>334.6</ele><time>2026-05-01T07:28:08Z</time></trkpt><trkpt lat="43.423115726894174" lon="11.707719399017986"><ele>334.8</ele><time>2026-05-01T07:28:09Z</time></trkpt><trkpt lat="43.42313972769287" lon="11.707593940206365"><ele>335.0</ele><time>2026-05-01T07:28:10Z</time></trkpt><trkpt lat="43.42316378562176" lon="11.70746751005101"><ele>335.0</ele><time>2026-05-01T07:28:11Z</time></trkpt><trkpt lat="43.42319164048162" lon="11.70734340119847"><ele>335.0</ele><time>2026-05-01T07:28:12Z</time></trkpt><trkpt lat="43.42321386153722" lon="11.707220949681675"><ele>335.0</ele><time>2026-05-01T07:28:13Z</time></trkpt><trkpt lat="43.42323729299683" lon="11.707098098372255"><ele>335.0</ele><time>2026-05-01T07:28:14Z</time></trkpt><trkpt lat="43.42325837998593" lon="11.70697188637647"><ele>335.0</ele><time>2026-05-01T07:28:15Z</time></trkpt><trkpt lat="43.42327885318612" lon="11.706847092301413"><ele>333.8</ele><time>2026-05-01T07:28:16Z</time></trkpt><trkpt lat="43.423293162532325" lon="11.706721297934145"><ele>332.6</ele><time>2026-05-01T07:28:17Z</time></trkpt><trkpt lat="43.423298717550274" lon="11.70659205033908"><ele>331.4</ele><time>2026-05-01T07:28:18Z</time></trkpt><trkpt lat="43.423293703796176" lon="11.70646641550756"><ele>330.2</ele><time>2026-05-01T07:28:19Z</time></trkpt><trkpt lat="43.4232894439194" lon="11.706337460207065"><ele>329.0</ele><time>2026-05-01T07:28:20Z</time></trkpt><trkpt lat="43.42328796691909" lon="11.706210760818289"><ele>329.0</ele><time>2026-05-01T07:28:21Z</time></trkpt><trkpt lat="43.42328898872659" lon="11.706089170165518"><ele>329.0</ele><time>2026-05-01T07:28:22Z</time></trkpt><trkpt lat="43.423289324930856" lon="11.705959423752946"><ele>329.0</ele><time>2026-05-01T07:28:23Z</time></trkpt><trkpt lat="43.42328587615427" lon="11.705832357221208"><ele>329.0</ele><time>2026-05-01T07:28:24Z</time></trkpt><trkpt lat="43.42328270198129" lon="11.705708379576429"><ele>329.0</ele><time>2026-05-01T07:28:25Z</time></trkpt><trkpt lat="43.42328695983795" lon="11.705583417758612"><ele>329.2</ele><time>2026-05-01T07:28:26Z</time></trkpt><trkpt lat="43.42329395152394" lon="11.705455062561871"><ele>329.4</ele><time>2026-05-01T07:28:26.999Z</time></trkpt><trkpt lat="43.42330550745877" lon="11.705323829316894"><ele>329.6</ele><time>2026-05-01T07:28:27.999Z</time></trkpt><trkpt lat="43.42331869112466" lon="11.705192015333267"><ele>329.8</ele><time>2026-05-01T07:28:28.999Z</time></trkpt><trkpt lat="43.42333540043773" lon="11.705061175237338"><ele>330.0</ele><time>2026-05-01T07:28:29.999Z</time></trkpt><trkpt lat="43.42335402792855" lon="11.704928678918177"><ele>330.0</ele><time>2026-05-01T07:28:30.999Z</time></trkpt><trkpt lat="43.423374499238875" lon="11.704793826223304"><ele>330.0</ele><time>2026-05-01T07:28:31.999Z</time></trkpt><trkpt lat="43.42339101922709" lon="11.704659693973456"><ele>330.0</ele><time>2026-05-01T07:28:32.999Z</time></trkpt><trkpt lat="43.42340729354149" lon="11.704521486668831"><ele>330.0</ele><time>2026-05-01T07:28:33.999Z</time></trkpt><trkpt lat="43.423421295023914" lon="11.70437999504581"><ele>330.0</ele><time>2026-05-01T07:28:34.999Z</time></trkpt><trkpt lat="43.42343729014104" lon="11.704241864113106"><ele>329.4</ele><time>2026-05-01T07:28:35.999Z</time></trkpt><trkpt lat="43.42345185292562" lon="11.704103848172796"><ele>328.8</ele><time>2026-05-01T07:28:36.999Z</time></trkpt><trkpt lat="43.42346344341172" lon="11.70395916305892"><ele>328.20000000000005</ele><time>2026-05-01T07:28:37.999Z</time></trkpt><trkpt lat="43.423480525884145" lon="11.703819101030497"><ele>327.6</ele><time>2026-05-01T07:28:38.999Z</time></trkpt><trkpt lat="43.423499775420744" lon="11.703676497342656"><ele>327.0</ele><time>2026-05-01T07:28:39.999Z</time></trkpt><trkpt lat="43.4235228179499" lon="11.703533863501658"><ele>326.8</ele><time>2026-05-01T07:28:40.999Z</time></trkpt><trkpt lat="43.423539139965854" lon="11.703395288849885"><ele>326.6</ele><time>2026-05-01T07:28:41.999Z</time></trkpt><trkpt lat="43.42355575690171" lon="11.70325281089461"><ele>326.40000000000003</ele><time>2026-05-01T07:28:42.999Z</time></trkpt><trkpt lat="43.423566247391875" lon="11.70311155528643"><ele>326.20000000000005</ele><time>2026-05-01T07:28:43.999Z</time></trkpt><trkpt lat="43.42357091934268" lon="11.702972909132958"><ele>326.0</ele><time>2026-05-01T07:28:44.999Z</time></trkpt><trkpt lat="43.4235746930119" lon="11.702831857127467"><ele>325.6</ele><time>2026-05-01T07:28:45.999Z</time></trkpt><trkpt lat="43.423568261385746" lon="11.70269661829127"><ele>325.20000000000005</ele><time>2026-05-01T07:28:46.999Z</time></trkpt><trkpt lat="43.4235499549445" lon="11.702562500195448"><ele>324.79999999999995</ele><time>2026-05-01T07:28:47.999Z</time></trkpt><trkpt lat="43.42352062152596" lon="11.702432616748261"><ele>324.4</ele><time>2026-05-01T07:28:48.999Z</time></trkpt><trkpt lat="43.42348888306338" lon="11.702303684474515"><ele>324.0</ele><time>2026-05-01T07:28:49.999Z</time></trkpt><trkpt lat="43.42345917226246" lon="11.702180988876105"><ele>324.0</ele><time>2026-05-01T07:28:50.999Z</time></trkpt><trkpt lat="43.42343326451945" lon="11.702056800786782"><ele>324.0</ele><time>2026-05-01T07:28:51.999Z</time></trkpt><trkpt lat="43.423403236197124" lon="11.701927958938771"><ele>324.0</ele><time>2026-05-01T07:28:52.999Z</time></trkpt><trkpt lat="43.423373359535454" lon="11.701807310431157"><ele>324.0</ele><time>2026-05-01T07:28:53.999Z</time></trkpt><trkpt lat="43.42334614460774" lon="11.701681031159945"><ele>324.0</ele><time>2026-05-01T07:28:54.999Z</time></trkpt><trkpt lat="43.42332268644179" lon="11.701559470084007"><ele>324.2</ele><time>2026-05-01T07:28:55.999Z</time></trkpt><trkpt lat="43.42330189612276" lon="11.701437475794716"><ele>324.4</ele><time>2026-05-01T07:28:56.999Z</time></trkpt><trkpt lat="43.42328095751896" lon="11.701310802900945"><ele>324.6</ele><time>2026-05-01T07:28:57.999Z</time></trkpt><trkpt lat="43.4232708423682" lon="11.701186258168267"><ele>324.8</ele><time>2026-05-01T07:28:58.999Z</time></trkpt><trkpt lat="43.423271211873846" lon="11.701056903049249"><ele>325.0</ele><time>2026-05-01T07:28:59.999Z</time></trkpt><trkpt lat="43.42327473843994" lon="11.700928911810513"><ele>324.4</ele><time>2026-05-01T07:29:00.999Z</time></trkpt><trkpt lat="43.423280845811774" lon="11.700797593674482"><ele>323.8</ele><time>2026-05-01T07:29:01.999Z</time></trkpt><trkpt lat="43.42328896612441" lon="11.700674630725299"><ele>323.20000000000005</ele><time>2026-05-01T07:29:02.999Z</time></trkpt><trkpt lat="43.42329598588918" lon="11.700550103064106"><ele>322.6</ele><time>2026-05-01T07:29:03.999Z</time></trkpt><trkpt lat="43.4233027929592" lon="11.700423079700156"><ele>322.0</ele><time>2026-05-01T07:29:04.999Z</time></trkpt><trkpt lat="43.4233118639547" lon="11.700296169981579"><ele>321.8</ele><time>2026-05-01T07:29:05.999Z</time></trkpt><trkpt lat="43.423322808875994" lon="11.700167992607538"><ele>321.6</ele><time>2026-05-01T07:29:06.999Z</time></trkpt><trkpt lat="43.423333663554324" lon="11.70004461115726"><ele>321.40000000000003</ele><time>2026-05-01T07:29:07.999Z</time></trkpt><trkpt lat="43.423342811957795" lon="11.699910835847852"><ele>321.20000000000005</ele><time>2026-05-01T07:29:08.999Z</time></trkpt><trkpt lat="43.423349123649714" lon="11.69978205892113"><ele>321.0</ele><time>2026-05-01T07:29:09.999Z</time></trkpt><trkpt lat="43.42335693302554" lon="11.699650705939797"><ele>321.0</ele><time>2026-05-01T07:29:10.999Z</time></trkpt><trkpt lat="43.42335835474204" lon="11.699520892257922"><ele>321.0</ele><time>2026-05-01T07:29:11.999Z</time></trkpt><trkpt lat="43.42335524461619" lon="11.699387093001755"><ele>321.0</ele><time>2026-05-01T07:29:12.999Z</time></trkpt><trkpt lat="43.423350366236235" lon="11.69925451014019"><ele>321.0</ele><time>2026-05-01T07:29:13.999Z</time></trkpt><trkpt lat="43.42334787530801" lon="11.699134816094636"><ele>321.0</ele><time>2026-05-01T07:29:14.998Z</time></trkpt><trkpt lat="43.423345190096875" lon="11.698998403156143"><ele>320.8</ele><time>2026-05-01T07:29:15.998Z</time></trkpt><trkpt lat="43.423341786353944" lon="11.69886380320481"><ele>320.6</ele><time>2026-05-01T07:29:16.998Z</time></trkpt><trkpt lat="43.423339481907774" lon="11.698733447363246"><ele>320.4</ele><time>2026-05-01T07:29:17.998Z</time></trkpt><trkpt lat="43.423337870361536" lon="11.698604272246756"><ele>320.2</ele><time>2026-05-01T07:29:18.998Z</time></trkpt><trkpt lat="43.42333475619998" lon="11.698473367708463"><ele>320.0</ele><time>2026-05-01T07:29:19.998Z</time></trkpt><trkpt lat="43.42333198594455" lon="11.698343624308547"><ele>320.0</ele><time>2026-05-01T07:29:20.998Z</time></trkpt><trkpt lat="43.423329881002026" lon="11.698213809931998"><ele>320.0</ele><time>2026-05-01T07:29:21.998Z</time></trkpt><trkpt lat="43.42332845116428" lon="11.698086419961363"><ele>320.0</ele><time>2026-05-01T07:29:22.998Z</time></trkpt><trkpt lat="43.42332416082369" lon="11.697962055098746"><ele>320.0</ele><time>2026-05-01T07:29:23.998Z</time></trkpt><trkpt lat="43.42332096210014" lon="11.69783795388611"><ele>320.0</ele><time>2026-05-01T07:29:24.998Z</time></trkpt><trkpt lat="43.42331062228998" lon="11.697716323212381"><ele>319.5</ele><time>2026-05-01T07:29:25.998Z</time></trkpt><trkpt lat="43.42329534825775" lon="11.697596144508069"><ele>319.0</ele><time>2026-05-01T07:29:26.998Z</time></trkpt><trkpt lat="43.42327912501178" lon="11.69747535908394"><ele>318.5</ele><time>2026-05-01T07:29:27.998Z</time></trkpt><trkpt lat="43.423258489017186" lon="11.697353174850498"><ele>318.0</ele><time>2026-05-01T07:29:28.998Z</time></trkpt><trkpt lat="43.42323681306341" lon="11.697233786600432"><ele>317.5</ele><time>2026-05-01T07:29:29.998Z</time></trkpt><trkpt lat="43.42321891728619" lon="11.697115428582842"><ele>317.0</ele><time>2026-05-01T07:29:30.998Z</time></trkpt><trkpt lat="43.423199056690564" lon="11.696996435798889"><ele>317.5</ele><time>2026-05-01T07:29:31.998Z</time></trkpt><trkpt lat="43.42318174816137" lon="11.696880845644067"><ele>318.0</ele><time>2026-05-01T07:29:32.998Z</time></trkpt><trkpt lat="43.42316536204084" lon="11.696770258775635"><ele>318.5</ele><time>2026-05-01T07:29:33.998Z</time></trkpt><trkpt lat="43.423144433088794" lon="11.696660472578282"><ele>319.0</ele><time>2026-05-01T07:29:34.998Z</time></trkpt><trkpt lat="43.4231252455979" lon="11.696552756539326"><ele>319.5</ele><time>2026-05-01T07:29:35.998Z</time></trkpt><trkpt lat="43.42310728615881" lon="11.696446154428088"><ele>320.0</ele><time>2026-05-01T07:29:36.998Z</time></trkpt><trkpt lat="43.42309224411978" lon="11.696343603123177"><ele>320.0</ele><time>2026-05-01T07:29:37.998Z</time></trkpt><trkpt lat="43.42308267901086" lon="11.696239615974694"><ele>320.0</ele><time>2026-05-01T07:29:38.998Z</time></trkpt><trkpt lat="43.42307107801506" lon="11.696139399695387"><ele>320.0</ele><time>2026-05-01T07:29:39.998Z</time></trkpt><trkpt lat="43.423068680760814" lon="11.696038416767014"><ele>320.0</ele><time>2026-05-01T07:29:40.998Z</time></trkpt><trkpt lat="43.42307813329914" lon="11.695952662188304"><ele>320.0</ele><time>2026-05-01T07:29:41.998Z</time></trkpt><trkpt lat="43.423080239323454" lon="11.695857716909446"><ele>320.0</ele><time>2026-05-01T07:29:42.998Z</time></trkpt><trkpt lat="43.423091196134294" lon="11.695764870010127"><ele>320.0</ele><time>2026-05-01T07:29:43.998Z</time></trkpt><trkpt lat="43.423106924807065" lon="11.695675325181314"><ele>319.6666666666667</ele><time>2026-05-01T07:29:44.998Z</time></trkpt><trkpt lat="43.423121667135334" lon="11.695590730491213"><ele>319.33333333333337</ele><time>2026-05-01T07:29:45.998Z</time></trkpt><trkpt lat="43.42315091019215" lon="11.695433596338718"><ele>319.0</ele><time>2026-05-01T07:29:47.998Z</time></trkpt><trkpt lat="43.42317212245129" lon="11.695347231458637"><ele>318.6666666666667</ele><time>2026-05-01T07:29:48.998Z</time></trkpt><trkpt lat="43.423191284514644" lon="11.69526068064112"><ele>318.3333333333333</ele><time>2026-05-01T07:29:49.998Z</time></trkpt><trkpt lat="43.423227583062086" lon="11.695103951739032"><ele>318.0</ele><time>2026-05-01T07:29:51.998Z</time></trkpt><trkpt lat="43.42326247133531" lon="11.694951291700168"><ele>316.75</ele><time>2026-05-01T07:29:54Z</time></trkpt><trkpt lat="43.42329504065082" lon="11.6947837660871"><ele>315.5</ele><time>2026-05-01T07:29:56Z</time></trkpt><trkpt lat="43.42333309605532" lon="11.694631231995174"><ele>314.25</ele><time>2026-05-01T07:29:58Z</time></trkpt><trkpt lat="43.42336917213361" lon="11.694477386848588"><ele>313.0</ele><time>2026-05-01T07:30:00Z</time></trkpt><trkpt lat="43.42340393100452" lon="11.69432592560157"><ele>312.0</ele><time>2026-05-01T07:30:02Z</time></trkpt><trkpt lat="43.423437781035126" lon="11.694174999878076"><ele>311.0</ele><time>2026-05-01T07:30:04Z</time></trkpt><trkpt lat="43.42347046868816" lon="11.69402333070245"><ele>310.0</ele><time>2026-05-01T07:30:06Z</time></trkpt><trkpt lat="43.42350602209401" lon="11.693876523283322"><ele>309.0</ele><time>2026-05-01T07:30:08Z</time></trkpt><trkpt lat="43.4235504916799" lon="11.693735147636401"><ele>309.0</ele><time>2026-05-01T07:30:10Z</time></trkpt><trkpt lat="43.423602962053394" lon="11.693598523732524"><ele>309.0</ele><time>2026-05-01T07:30:12Z</time></trkpt><trkpt lat="43.423664262215226" lon="11.693470980840141"><ele>309.0</ele><time>2026-05-01T07:30:14Z</time></trkpt><trkpt lat="43.423737188837364" lon="11.693353902937364"><ele>309.0</ele><time>2026-05-01T07:30:16Z</time></trkpt><trkpt lat="43.42381443956374" lon="11.693228964011944"><ele>308.8</ele><time>2026-05-01T07:30:18Z</time></trkpt><trkpt lat="43.42389424284013" lon="11.693111724123984"><ele>308.59999999999997</ele><time>2026-05-01T07:30:20Z</time></trkpt><trkpt lat="43.42397275633257" lon="11.692988110018883"><ele>308.4</ele><time>2026-05-01T07:30:22Z</time></trkpt><trkpt lat="43.42405775390171" lon="11.692862663464485"><ele>308.2</ele><time>2026-05-01T07:30:24Z</time></trkpt><trkpt lat="43.424100172888046" lon="11.692794527855003"><ele>308.0</ele><time>2026-05-01T07:30:25Z</time></trkpt><trkpt lat="43.42414171176413" lon="11.692720151822382"><ele>308.0</ele><time>2026-05-01T07:30:26Z</time></trkpt><trkpt lat="43.4242188948084" lon="11.692582207060921"><ele>308.0</ele><time>2026-05-01T07:30:28Z</time></trkpt><trkpt lat="43.42428909656556" lon="11.692441114463225"><ele>308.0</ele><time>2026-05-01T07:30:30Z</time></trkpt><trkpt lat="43.42431802031055" lon="11.692362267419655"><ele>308.0</ele><time>2026-05-01T07:30:31Z</time></trkpt><trkpt lat="43.42436832713443" lon="11.692222155391232"><ele>308.0</ele><time>2026-05-01T07:30:32.999Z</time></trkpt><trkpt lat="43.42441853017303" lon="11.692080233887982"><ele>308.0</ele><time>2026-05-01T07:30:34.999Z</time></trkpt><trkpt lat="43.42447613992356" lon="11.691950525788599"><ele>308.0</ele><time>2026-05-01T07:30:36.999Z</time></trkpt><trkpt lat="43.4245058407521" lon="11.691865422468487"><ele>308.0</ele><time>2026-05-01T07:30:37.999Z</time></trkpt><trkpt lat="43.42452975416261" lon="11.691776842652185"><ele>308.0</ele><time>2026-05-01T07:30:38.999Z</time></trkpt><trkpt lat="43.42458483632277" lon="11.691628466742193"><ele>308.0</ele><time>2026-05-01T07:30:40.999Z</time></trkpt><trkpt lat="43.42463537569231" lon="11.69147674471325"><ele>308.14285714285717</ele><time>2026-05-01T07:30:42.999Z</time></trkpt><trkpt lat="43.42465970137134" lon="11.69139491453066"><ele>308.2857142857143</ele><time>2026-05-01T07:30:43.999Z</time></trkpt><trkpt lat="43.42471188979306" lon="11.691240423653134"><ele>308.42857142857144</ele><time>2026-05-01T07:30:45.999Z</time></trkpt><trkpt lat="43.42473672291229" lon="11.691160332524174"><ele>308.57142857142856</ele><time>2026-05-01T07:30:46.999Z</time></trkpt><trkpt lat="43.42475660558252" lon="11.691075567912009"><ele>308.7142857142857</ele><time>2026-05-01T07:30:47.999Z</time></trkpt><trkpt lat="43.42477168577473" lon="11.690990855570226"><ele>308.8571428571429</ele><time>2026-05-01T07:30:48.999Z</time></trkpt><trkpt lat="43.4247829646283" lon="11.690903156405296"><ele>309.0</ele><time>2026-05-01T07:30:49.999Z</time></trkpt><trkpt lat="43.42479245928867" lon="11.690816948154632"><ele>309.0</ele><time>2026-05-01T07:30:50.999Z</time></trkpt><trkpt lat="43.42479327922683" lon="11.690727058732465"><ele>309.0</ele><time>2026-05-01T07:30:51.999Z</time></trkpt><trkpt lat="43.42478818083695" lon="11.690633689699261"><ele>309.0</ele><time>2026-05-01T07:30:52.999Z</time></trkpt><trkpt lat="43.424766890093714" lon="11.690461809218325"><ele>309.0</ele><time>2026-05-01T07:30:54.999Z</time></trkpt><trkpt lat="43.42472901836727" lon="11.69030305511452"><ele>309.0</ele><time>2026-05-01T07:30:56.999Z</time></trkpt><trkpt lat="43.424679273022456" lon="11.690152085218294"><ele>308.3333333333333</ele><time>2026-05-01T07:30:58.999Z</time></trkpt><trkpt lat="43.42461647770082" lon="11.690003473814944"><ele>307.6666666666667</ele><time>2026-05-01T07:31:00.999Z</time></trkpt><trkpt lat="43.424578708060125" lon="11.689928535278035"><ele>307.0</ele><time>2026-05-01T07:31:01.999Z</time></trkpt><trkpt lat="43.4245469664983" lon="11.689849885522948"><ele>306.33333333333337</ele><time>2026-05-01T07:31:02.999Z</time></trkpt><trkpt lat="43.424513346650784" lon="11.689772347103313"><ele>305.6666666666667</ele><time>2026-05-01T07:31:03.999Z</time></trkpt><trkpt lat="43.424482989606624" lon="11.689693139067279"><ele>305.0</ele><time>2026-05-01T07:31:04.999Z</time></trkpt><trkpt lat="43.42445416212091" lon="11.689609596566033"><ele>305.0</ele><time>2026-05-01T07:31:05.999Z</time></trkpt><trkpt lat="43.42443163794597" lon="11.689526665262521"><ele>305.0</ele><time>2026-05-01T07:31:06.999Z</time></trkpt><trkpt lat="43.424407912092256" lon="11.689433800804887"><ele>305.0</ele><time>2026-05-01T07:31:07.999Z</time></trkpt><trkpt lat="43.424390985131" lon="11.689336106256983"><ele>305.0</ele><time>2026-05-01T07:31:08.999Z</time></trkpt><trkpt lat="43.42438457694756" lon="11.689239730251801"><ele>305.0</ele><time>2026-05-01T07:31:09.999Z</time></trkpt><trkpt lat="43.424374857617956" lon="11.689137706412168"><ele>305.0</ele><time>2026-05-01T07:31:10.999Z</time></trkpt><trkpt lat="43.4243774668104" lon="11.689039156674683"><ele>305.0</ele><time>2026-05-01T07:31:11.999Z</time></trkpt><trkpt lat="43.42438498571018" lon="11.688942760322451"><ele>304.7142857142857</ele><time>2026-05-01T07:31:12.999Z</time></trkpt><trkpt lat="43.42439960311123" lon="11.688844033135638"><ele>304.4285714285714</ele><time>2026-05-01T07:31:13.999Z</time></trkpt><trkpt lat="43.424414540351805" lon="11.688745674952154"><ele>304.1428571428571</ele><time>2026-05-01T07:31:14.999Z</time></trkpt><trkpt lat="43.42444142926097" lon="11.688657781727205"><ele>303.8571428571429</ele><time>2026-05-01T07:31:15.999Z</time></trkpt><trkpt lat="43.42446717270009" lon="11.6885648901037"><ele>303.57142857142856</ele><time>2026-05-01T07:31:16.999Z</time></trkpt><trkpt lat="43.42449343723992" lon="11.688472693031665"><ele>303.2857142857143</ele><time>2026-05-01T07:31:17.999Z</time></trkpt><trkpt lat="43.42452754397708" lon="11.688389695080263"><ele>303.0</ele><time>2026-05-01T07:31:18.999Z</time></trkpt><trkpt lat="43.42454914998619" lon="11.688299825861558"><ele>302.7142857142857</ele><time>2026-05-01T07:31:19.999Z</time></trkpt><trkpt lat="43.424569468538834" lon="11.688208352850877"><ele>302.42857142857144</ele><time>2026-05-01T07:31:20.998Z</time></trkpt><trkpt lat="43.42458907862636" lon="11.688114809959615"><ele>302.1428571428571</ele><time>2026-05-01T07:31:21.998Z</time></trkpt><trkpt lat="43.42459902642573" lon="11.688011119695416"><ele>301.8571428571429</ele><time>2026-05-01T07:31:22.998Z</time></trkpt><trkpt lat="43.424609598651806" lon="11.687916178097026"><ele>301.57142857142856</ele><time>2026-05-01T07:31:23.998Z</time></trkpt><trkpt lat="43.424610680650595" lon="11.687817429467163"><ele>301.2857142857143</ele><time>2026-05-01T07:31:24.998Z</time></trkpt><trkpt lat="43.42460756672025" lon="11.687715248373507"><ele>301.0</ele><time>2026-05-01T07:31:25.998Z</time></trkpt><trkpt lat="43.42459782963426" lon="11.687617338158633"><ele>300.66666666666663</ele><time>2026-05-01T07:31:26.998Z</time></trkpt><trkpt lat="43.4245766573582" lon="11.68751244030905"><ele>300.3333333333333</ele><time>2026-05-01T07:31:27.998Z</time></trkpt><trkpt lat="43.42455211249966" lon="11.687411123077352"><ele>300.0</ele><time>2026-05-01T07:31:28.998Z</time></trkpt><trkpt lat="43.42452358965711" lon="11.687305155002601"><ele>299.6666666666667</ele><time>2026-05-01T07:31:29.998Z</time></trkpt><trkpt lat="43.424493160414215" lon="11.687204272720063"><ele>299.33333333333337</ele><time>2026-05-01T07:31:30.998Z</time></trkpt><trkpt lat="43.4244654175277" lon="11.687107195280998"><ele>299.0</ele><time>2026-05-01T07:31:31.998Z</time></trkpt><trkpt lat="43.424433907719916" lon="11.687001470721041"><ele>299.1666666666667</ele><time>2026-05-01T07:31:32.998Z</time></trkpt><trkpt lat="43.42440550146882" lon="11.686894725038261"><ele>299.33333333333337</ele><time>2026-05-01T07:31:33.998Z</time></trkpt><trkpt lat="43.42437386775107" lon="11.686791206492837"><ele>299.5</ele><time>2026-05-01T07:31:34.998Z</time></trkpt><trkpt lat="43.424343297289326" lon="11.686687221653631"><ele>299.6666666666667</ele><time>2026-05-01T07:31:35.998Z</time></trkpt><trkpt lat="43.42431207487171" lon="11.686583981970944"><ele>299.8333333333333</ele><time>2026-05-01T07:31:36.998Z</time></trkpt><trkpt lat="43.42428316711178" lon="11.686482387663574"><ele>300.0</ele><time>2026-05-01T07:31:37.998Z</time></trkpt><trkpt lat="43.424253498698555" lon="11.68638101179979"><ele>300.0</ele><time>2026-05-01T07:31:38.998Z</time></trkpt><trkpt lat="43.424223989248446" lon="11.686279563462268"><ele>300.0</ele><time>2026-05-01T07:31:39.998Z</time></trkpt><trkpt lat="43.424192237477996" lon="11.686177680964564"><ele>300.0</ele><time>2026-05-01T07:31:40.998Z</time></trkpt><trkpt lat="43.424172146324224" lon="11.686087864691693"><ele>300.0</ele><time>2026-05-01T07:31:41.998Z</time></trkpt><trkpt lat="43.42413372030932" lon="11.685978579404301"><ele>300.0</ele><time>2026-05-01T07:31:42.998Z</time></trkpt><trkpt lat="43.42410512898611" lon="11.685879122557685"><ele>300.0</ele><time>2026-05-01T07:31:43.998Z</time></trkpt><trkpt lat="43.424075241656325" lon="11.68578058315564"><ele>300.0</ele><time>2026-05-01T07:31:44.998Z</time></trkpt><trkpt lat="43.42404583063359" lon="11.68568200807192"><ele>300.0</ele><time>2026-05-01T07:31:45.998Z</time></trkpt><trkpt lat="43.4240154882242" lon="11.685584917016218"><ele>300.0</ele><time>2026-05-01T07:31:46.998Z</time></trkpt><trkpt lat="43.42398731532474" lon="11.685486862510649"><ele>300.0</ele><time>2026-05-01T07:31:47.998Z</time></trkpt><trkpt lat="43.423960930045055" lon="11.68539219162306"><ele>300.0</ele><time>2026-05-01T07:31:48.998Z</time></trkpt><trkpt lat="43.423931927220515" lon="11.685292990679555"><ele>300.0</ele><time>2026-05-01T07:31:49.998Z</time></trkpt><trkpt lat="43.423911740047785" lon="11.685194328966473"><ele>300.1428571428571</ele><time>2026-05-01T07:31:50.998Z</time></trkpt><trkpt lat="43.42387606368255" lon="11.685101790036251"><ele>300.2857142857143</ele><time>2026-05-01T07:31:51.998Z</time></trkpt><trkpt lat="43.42384784222759" lon="11.685005763891432"><ele>300.42857142857144</ele><time>2026-05-01T07:31:52.998Z</time></trkpt><trkpt lat="43.42381912929202" lon="11.684912061165223"><ele>300.57142857142856</ele><time>2026-05-01T07:31:53.998Z</time></trkpt><trkpt lat="43.42379172668698" lon="11.68481745219719"><ele>300.7142857142857</ele><time>2026-05-01T07:31:54.998Z</time></trkpt><trkpt lat="43.42376598345486" lon="11.684726506925847"><ele>300.85714285714283</ele><time>2026-05-01T07:31:55.998Z</time></trkpt><trkpt lat="43.423736170862114" lon="11.684635276176799"><ele>301.0</ele><time>2026-05-01T07:31:56.998Z</time></trkpt><trkpt lat="43.42370931827698" lon="11.684540242695507"><ele>300.0</ele><time>2026-05-01T07:31:57.998Z</time></trkpt><trkpt lat="43.423682454658874" lon="11.684444243104002"><ele>299.0</ele><time>2026-05-01T07:31:59Z</time></trkpt><trkpt lat="43.42365839943961" lon="11.684351748554347"><ele>298.0</ele><time>2026-05-01T07:32:00Z</time></trkpt><trkpt lat="43.42363677643624" lon="11.684252887507212"><ele>297.0</ele><time>2026-05-01T07:32:01Z</time></trkpt><trkpt lat="43.42362315198438" lon="11.684151155464205"><ele>296.0</ele><time>2026-05-01T07:32:02Z</time></trkpt><trkpt lat="43.42361544275849" lon="11.684045219025572"><ele>295.0</ele><time>2026-05-01T07:32:03Z</time></trkpt><trkpt lat="43.42361050567127" lon="11.683938017952602"><ele>294.66666666666663</ele><time>2026-05-01T07:32:04Z</time></trkpt><trkpt lat="43.42360673983303" lon="11.683832198093226"><ele>294.3333333333333</ele><time>2026-05-01T07:32:05Z</time></trkpt><trkpt lat="43.42360502590643" lon="11.683723375392093"><ele>294.0</ele><time>2026-05-01T07:32:06Z</time></trkpt><trkpt lat="43.423598354707345" lon="11.68361658446392"><ele>293.6666666666667</ele><time>2026-05-01T07:32:07Z</time></trkpt><trkpt lat="43.42359490173943" lon="11.683508176382084"><ele>293.33333333333337</ele><time>2026-05-01T07:32:08Z</time></trkpt><trkpt lat="43.423584682361984" lon="11.68340040313159"><ele>293.0</ele><time>2026-05-01T07:32:09Z</time></trkpt><trkpt lat="43.423577537214975" lon="11.683293251811397"><ele>293.0</ele><time>2026-05-01T07:32:10Z</time></trkpt><trkpt lat="43.42356335611407" lon="11.683181014754512"><ele>293.0</ele><time>2026-05-01T07:32:11Z</time></trkpt><trkpt lat="43.42353404682249" lon="11.683077084677143"><ele>293.0</ele><time>2026-05-01T07:32:12Z</time></trkpt><trkpt lat="43.42350327969937" lon="11.682974627025288"><ele>293.0</ele><time>2026-05-01T07:32:13Z</time></trkpt><trkpt lat="43.42347302705169" lon="11.68287332703252"><ele>293.0</ele><time>2026-05-01T07:32:14Z</time></trkpt><trkpt lat="43.42344080353671" lon="11.682773090537884"><ele>293.0</ele><time>2026-05-01T07:32:15Z</time></trkpt><trkpt lat="43.42340796616772" lon="11.682675425680147"><ele>293.0</ele><time>2026-05-01T07:32:16Z</time></trkpt><trkpt lat="43.423376042626174" lon="11.682573240203793"><ele>293.0</ele><time>2026-05-01T07:32:17Z</time></trkpt><trkpt lat="43.42334609249602" lon="11.682474664725682"><ele>293.0</ele><time>2026-05-01T07:32:18Z</time></trkpt><trkpt lat="43.42331586410364" lon="11.682379018904443"><ele>293.0</ele><time>2026-05-01T07:32:19Z</time></trkpt><trkpt lat="43.423285852690874" lon="11.682285942806253"><ele>293.0</ele><time>2026-05-01T07:32:20Z</time></trkpt><trkpt lat="43.423253211268346" lon="11.682192911935955"><ele>293.0</ele><time>2026-05-01T07:32:21Z</time></trkpt><trkpt lat="43.42321680899451" lon="11.68210029863585"><ele>292.99999999999994</ele><time>2026-05-01T07:32:22Z</time></trkpt><trkpt lat="43.42318126702428" lon="11.68201366022123"><ele>293.0</ele><time>2026-05-01T07:32:23Z</time></trkpt><trkpt lat="43.42313150136837" lon="11.681925050833177"><ele>293.0</ele><time>2026-05-01T07:32:24Z</time></trkpt><trkpt lat="43.42310034216478" lon="11.681844034173528"><ele>293.0</ele><time>2026-05-01T07:32:25Z</time></trkpt><trkpt lat="43.42306143879659" lon="11.681761883819211"><ele>293.0</ele><time>2026-05-01T07:32:26Z</time></trkpt><trkpt lat="43.423021850238335" lon="11.681679148797302"><ele>292.99999999999994</ele><time>2026-05-01T07:32:27Z</time></trkpt><trkpt lat="43.42297973333779" lon="11.681595296517294"><ele>293.0</ele><time>2026-05-01T07:32:28Z</time></trkpt><trkpt lat="43.42293783504224" lon="11.681510742501715"><ele>292.71428571428567</ele><time>2026-05-01T07:32:29Z</time></trkpt><trkpt lat="43.42289652462436" lon="11.681426458568602"><ele>292.42857142857144</ele><time>2026-05-01T07:32:30Z</time></trkpt><trkpt lat="43.42285120346119" lon="11.6813411446165"><ele>292.1428571428571</ele><time>2026-05-01T07:32:31Z</time></trkpt><trkpt lat="43.42281084309682" lon="11.68125731506873"><ele>291.85714285714283</ele><time>2026-05-01T07:32:32Z</time></trkpt><trkpt lat="43.422768737530134" lon="11.681174892104774"><ele>291.57142857142856</ele><time>2026-05-01T07:32:33Z</time></trkpt><trkpt lat="43.422725391188976" lon="11.681098248371969"><ele>291.2857142857143</ele><time>2026-05-01T07:32:34Z</time></trkpt><trkpt lat="43.42268046559483" lon="11.68102155253585"><ele>291.0</ele><time>2026-05-01T07:32:35Z</time></trkpt><trkpt lat="43.422642799540675" lon="11.680939951123474"><ele>291.0</ele><time>2026-05-01T07:32:36Z</time></trkpt><trkpt lat="43.42259614124318" lon="11.680857121895837"><ele>291.0</ele><time>2026-05-01T07:32:37Z</time></trkpt><trkpt lat="43.422549787058536" lon="11.680781195656424"><ele>291.0</ele><time>2026-05-01T07:32:38Z</time></trkpt><trkpt lat="43.42250500940125" lon="11.680703810148968"><ele>291.0</ele><time>2026-05-01T07:32:38.999Z</time></trkpt><trkpt lat="43.4224562184355" lon="11.680624614424605"><ele>291.0</ele><time>2026-05-01T07:32:39.999Z</time></trkpt><trkpt lat="43.422411218888946" lon="11.680546394711914"><ele>291.0</ele><time>2026-05-01T07:32:40.999Z</time></trkpt><trkpt lat="43.422365101024326" lon="11.680465369965496"><ele>291.0</ele><time>2026-05-01T07:32:41.999Z</time></trkpt><trkpt lat="43.422323179839864" lon="11.680386041874382"><ele>291.0</ele><time>2026-05-01T07:32:42.999Z</time></trkpt><trkpt lat="43.42227288810606" lon="11.680305499406275"><ele>291.0</ele><time>2026-05-01T07:32:43.999Z</time></trkpt><trkpt lat="43.42222501560939" lon="11.680223889286125"><ele>291.0</ele><time>2026-05-01T07:32:44.999Z</time></trkpt><trkpt lat="43.42217941316614" lon="11.68014319889368"><ele>291.0</ele><time>2026-05-01T07:32:45.999Z</time></trkpt><trkpt lat="43.42213600532338" lon="11.680060635368775"><ele>291.0</ele><time>2026-05-01T07:32:46.999Z</time></trkpt><trkpt lat="43.42209404271104" lon="11.679976157609033"><ele>291.0</ele><time>2026-05-01T07:32:47.999Z</time></trkpt><trkpt lat="43.42205642476865" lon="11.679884825092396"><ele>290.57142857142856</ele><time>2026-05-01T07:32:48.999Z</time></trkpt><trkpt lat="43.42202653982994" lon="11.679792263935294"><ele>290.1428571428571</ele><time>2026-05-01T07:32:49.999Z</time></trkpt><trkpt lat="43.42200396528439" lon="11.679696850703316"><ele>289.7142857142857</ele><time>2026-05-01T07:32:50.999Z</time></trkpt><trkpt lat="43.42199200637826" lon="11.67960358580343"><ele>289.2857142857143</ele><time>2026-05-01T07:32:51.999Z</time></trkpt><trkpt lat="43.42198010332772" lon="11.67950893878553"><ele>288.8571428571429</ele><time>2026-05-01T07:32:52.999Z</time></trkpt><trkpt lat="43.42196891874188" lon="11.679414323426677"><ele>288.42857142857144</ele><time>2026-05-01T07:32:53.999Z</time></trkpt><trkpt lat="43.42196459911731" lon="11.679319599492667"><ele>288.0</ele><time>2026-05-01T07:32:54.999Z</time></trkpt><trkpt lat="43.42196120037933" lon="11.67922792518072"><ele>288.00000000000006</ele><time>2026-05-01T07:32:55.999Z</time></trkpt><trkpt lat="43.421960227564206" lon="11.679133814315215"><ele>288.0</ele><time>2026-05-01T07:32:56.999Z</time></trkpt><trkpt lat="43.42195720369856" lon="11.67903919544874"><ele>288.0</ele><time>2026-05-01T07:32:57.999Z</time></trkpt><trkpt lat="43.42195401862037" lon="11.678944498978057"><ele>288.0</ele><time>2026-05-01T07:32:58.999Z</time></trkpt><trkpt lat="43.42194919739987" lon="11.678850620708662"><ele>288.0</ele><time>2026-05-01T07:32:59.999Z</time></trkpt><trkpt lat="43.421944509752116" lon="11.678753937483938"><ele>288.00000000000006</ele><time>2026-05-01T07:33:00.999Z</time></trkpt><trkpt lat="43.42193873696009" lon="11.678654360707252"><ele>288.0</ele><time>2026-05-01T07:33:01.999Z</time></trkpt><trkpt lat="43.42193389915715" lon="11.678551415121673"><ele>287.8333333333333</ele><time>2026-05-01T07:33:02.999Z</time></trkpt><trkpt lat="43.42192894884374" lon="11.678446966827641"><ele>287.6666666666667</ele><time>2026-05-01T07:33:03.999Z</time></trkpt><trkpt lat="43.42192316586723" lon="11.678338391614359"><ele>287.5</ele><time>2026-05-01T07:33:04.999Z</time></trkpt><trkpt lat="43.42191737151831" lon="11.678226588622374"><ele>287.33333333333337</ele><time>2026-05-01T07:33:05.999Z</time></trkpt><trkpt lat="43.42191047338623" lon="11.678112345788788"><ele>287.1666666666667</ele><time>2026-05-01T07:33:06.999Z</time></trkpt><trkpt lat="43.42190537024887" lon="11.67799776031372"><ele>287.0</ele><time>2026-05-01T07:33:07.999Z</time></trkpt><trkpt lat="43.421899368234556" lon="11.677885275622996"><ele>286.6666666666667</ele><time>2026-05-01T07:33:08.999Z</time></trkpt><trkpt lat="43.4218914993767" lon="11.677767856766078"><ele>286.33333333333337</ele><time>2026-05-01T07:33:09.999Z</time></trkpt><trkpt lat="43.4218804915559" lon="11.677653007233179"><ele>286.0</ele><time>2026-05-01T07:33:10.999Z</time></trkpt><trkpt lat="43.42186984216824" lon="11.67753970479012"><ele>285.6666666666667</ele><time>2026-05-01T07:33:11.999Z</time></trkpt><trkpt lat="43.4218606727521" lon="11.677425734729216"><ele>285.3333333333333</ele><time>2026-05-01T07:33:12.999Z</time></trkpt><trkpt lat="43.42185012006885" lon="11.677311639321857"><ele>285.0</ele><time>2026-05-01T07:33:13.999Z</time></trkpt><trkpt lat="43.42183817059049" lon="11.677198920563923"><ele>285.0</ele><time>2026-05-01T07:33:14.999Z</time></trkpt><trkpt lat="43.4218259711853" lon="11.677091076341526"><ele>285.0</ele><time>2026-05-01T07:33:15.999Z</time></trkpt><trkpt lat="43.42181463958357" lon="11.676980297343016"><ele>285.0</ele><time>2026-05-01T07:33:16.999Z</time></trkpt><trkpt lat="43.42180034159097" lon="11.676869796118973"><ele>285.0</ele><time>2026-05-01T07:33:17.999Z</time></trkpt><trkpt lat="43.42178999136369" lon="11.67675779920814"><ele>285.0</ele><time>2026-05-01T07:33:18.999Z</time></trkpt><trkpt lat="43.421779108071846" lon="11.676648707418328"><ele>285.0</ele><time>2026-05-01T07:33:19.999Z</time></trkpt><trkpt lat="43.421765333845926" lon="11.676542316023813"><ele>285.1666666666667</ele><time>2026-05-01T07:33:20.999Z</time></trkpt><trkpt lat="43.42175361366987" lon="11.67643811625779"><ele>285.3333333333333</ele><time>2026-05-01T07:33:21.999Z</time></trkpt><trkpt lat="43.4217440005559" lon="11.676333494165302"><ele>285.5</ele><time>2026-05-01T07:33:22.999Z</time></trkpt><trkpt lat="43.421731114827665" lon="11.676225347620422"><ele>285.66666666666663</ele><time>2026-05-01T07:33:23.999Z</time></trkpt><trkpt lat="43.42171925138914" lon="11.67611925175216"><ele>285.8333333333333</ele><time>2026-05-01T07:33:24.999Z</time></trkpt><trkpt lat="43.4217033253372" lon="11.676008316764166"><ele>286.0</ele><time>2026-05-01T07:33:25.999Z</time></trkpt><trkpt lat="43.42169171891303" lon="11.675903759868982"><ele>286.0</ele><time>2026-05-01T07:33:26.998Z</time></trkpt><trkpt lat="43.42168153194854" lon="11.675800406908236"><ele>286.0</ele><time>2026-05-01T07:33:27.998Z</time></trkpt><trkpt lat="43.42166849762568" lon="11.675693643852112"><ele>286.0</ele><time>2026-05-01T07:33:28.998Z</time></trkpt><trkpt lat="43.421659151004924" lon="11.675587529148064"><ele>286.0</ele><time>2026-05-01T07:33:29.998Z</time></trkpt><trkpt lat="43.421648178091594" lon="11.675482553188925"><ele>286.0</ele><time>2026-05-01T07:33:30.998Z</time></trkpt><trkpt lat="43.421638751210544" lon="11.675377527808733"><ele>286.0</ele><time>2026-05-01T07:33:31.998Z</time></trkpt><trkpt lat="43.421629194340056" lon="11.675273672043994"><ele>285.99999999999994</ele><time>2026-05-01T07:33:32.998Z</time></trkpt><trkpt lat="43.421615159460515" lon="11.675169973697816"><ele>286.0</ele><time>2026-05-01T07:33:33.998Z</time></trkpt><trkpt lat="43.421598611940304" lon="11.675068978321146"><ele>286.0</ele><time>2026-05-01T07:33:34.998Z</time></trkpt><trkpt lat="43.42158660685145" lon="11.674970973316212"><ele>286.0</ele><time>2026-05-01T07:33:35.998Z</time></trkpt><trkpt lat="43.42156894056415" lon="11.67487499792771"><ele>286.0</ele><time>2026-05-01T07:33:36.998Z</time></trkpt><trkpt lat="43.421550946097426" lon="11.674778835985373"><ele>285.99999999999994</ele><time>2026-05-01T07:33:37.998Z</time></trkpt><trkpt lat="43.42153071954395" lon="11.674685925868209"><ele>286.0</ele><time>2026-05-01T07:33:38.998Z</time></trkpt><trkpt lat="43.421513594029676" lon="11.674596973348198"><ele>285.99999999999994</ele><time>2026-05-01T07:33:39.998Z</time></trkpt><trkpt lat="43.421494523607834" lon="11.674506457228128"><ele>286.0</ele><time>2026-05-01T07:33:40.998Z</time></trkpt><trkpt lat="43.4214739945477" lon="11.674417807377925"><ele>286.0</ele><time>2026-05-01T07:33:41.998Z</time></trkpt><trkpt lat="43.42145146032483" lon="11.67432449842662"><ele>286.0</ele><time>2026-05-01T07:33:42.998Z</time></trkpt><trkpt lat="43.42143969710658" lon="11.674236535971987"><ele>286.0</ele><time>2026-05-01T07:33:43.998Z</time></trkpt><trkpt lat="43.421413428086446" lon="11.674145959824386"><ele>285.99999999999994</ele><time>2026-05-01T07:33:44.998Z</time></trkpt><trkpt lat="43.42139727228418" lon="11.674053299507793"><ele>286.0</ele><time>2026-05-01T07:33:45.998Z</time></trkpt><trkpt lat="43.42137861711819" lon="11.673965259200337"><ele>286.5</ele><time>2026-05-01T07:33:46.998Z</time></trkpt><trkpt lat="43.421357671877544" lon="11.673875216184793"><ele>287.0</ele><time>2026-05-01T07:33:47.998Z</time></trkpt><trkpt lat="43.42134220328412" lon="11.673788055745336"><ele>287.5</ele><time>2026-05-01T07:33:48.998Z</time></trkpt><trkpt lat="43.421308713457464" lon="11.673617605709506"><ele>288.0</ele><time>2026-05-01T07:33:50.998Z</time></trkpt><trkpt lat="43.42128876388656" lon="11.673531750051295"><ele>288.5</ele><time>2026-05-01T07:33:51.998Z</time></trkpt><trkpt lat="43.42126060137043" lon="11.67337239234966"><ele>289.0</ele><time>2026-05-01T07:33:53.998Z</time></trkpt><trkpt lat="43.42123732031171" lon="11.673215141515247"><ele>287.0</ele><time>2026-05-01T07:33:55.998Z</time></trkpt><trkpt lat="43.42122830545713" lon="11.673051995011853"><ele>285.0</ele><time>2026-05-01T07:33:57.998Z</time></trkpt><trkpt lat="43.42124059451309" lon="11.67289491153554"><ele>283.0</ele><time>2026-05-01T07:33:59.998Z</time></trkpt><trkpt lat="43.421261787498004" lon="11.672740177458852"><ele>281.0</ele><time>2026-05-01T07:34:01.998Z</time></trkpt><trkpt lat="43.42129897970779" lon="11.672589287204154"><ele>283.25</ele><time>2026-05-01T07:34:03.998Z</time></trkpt><trkpt lat="43.42134869173537" lon="11.672443742297526"><ele>285.5</ele><time>2026-05-01T07:34:06Z</time></trkpt><trkpt lat="43.42139676572823" lon="11.672299660103391"><ele>287.75</ele><time>2026-05-01T07:34:08Z</time></trkpt><trkpt lat="43.421450798354655" lon="11.672154712970302"><ele>290.0</ele><time>2026-05-01T07:34:10Z</time></trkpt><trkpt lat="43.42151135678864" lon="11.672004971588578"><ele>288.6666666666667</ele><time>2026-05-01T07:34:12Z</time></trkpt><trkpt lat="43.42156709823049" lon="11.67185289820371"><ele>287.33333333333337</ele><time>2026-05-01T07:34:14Z</time></trkpt><trkpt lat="43.42159691331166" lon="11.671773806630693"><ele>286.0</ele><time>2026-05-01T07:34:15Z</time></trkpt><trkpt lat="43.42162623243559" lon="11.671692559936744"><ele>284.6666666666667</ele><time>2026-05-01T07:34:16Z</time></trkpt><trkpt lat="43.42165651056237" lon="11.671607971415382"><ele>283.3333333333333</ele><time>2026-05-01T07:34:17Z</time></trkpt><trkpt lat="43.42168414266426" lon="11.671522408828572"><ele>282.0</ele><time>2026-05-01T07:34:18Z</time></trkpt><trkpt lat="43.42171090392213" lon="11.67143242768279"><ele>282.0</ele><time>2026-05-01T07:34:19Z</time></trkpt><trkpt lat="43.4217421478823" lon="11.671353755537698"><ele>282.0</ele><time>2026-05-01T07:34:20Z</time></trkpt><trkpt lat="43.421771148348995" lon="11.671269910236395"><ele>282.0</ele><time>2026-05-01T07:34:21Z</time></trkpt><trkpt lat="43.421831486610316" lon="11.671112737209512"><ele>282.0</ele><time>2026-05-01T07:34:23Z</time></trkpt><trkpt lat="43.42185964959864" lon="11.671030604485527"><ele>282.0</ele><time>2026-05-01T07:34:24Z</time></trkpt><trkpt lat="43.42191601596026" lon="11.670876223606003"><ele>281.1666666666667</ele><time>2026-05-01T07:34:26Z</time></trkpt><trkpt lat="43.42197040521039" lon="11.670722841511964"><ele>280.3333333333333</ele><time>2026-05-01T07:34:28Z</time></trkpt><trkpt lat="43.421996100663485" lon="11.670643108410069"><ele>279.5</ele><time>2026-05-01T07:34:29Z</time></trkpt><trkpt lat="43.42202016692269" lon="11.670561043952286"><ele>278.66666666666663</ele><time>2026-05-01T07:34:30Z</time></trkpt><trkpt lat="43.42203959629555" lon="11.670471751569368"><ele>277.8333333333333</ele><time>2026-05-01T07:34:31Z</time></trkpt><trkpt lat="43.42205975223646" lon="11.670383072650068"><ele>277.0</ele><time>2026-05-01T07:34:32Z</time></trkpt><trkpt lat="43.42207676316543" lon="11.670296640889068"><ele>276.85714285714283</ele><time>2026-05-01T07:34:33Z</time></trkpt><trkpt lat="43.422089660806215" lon="11.670204353594904"><ele>276.71428571428567</ele><time>2026-05-01T07:34:34Z</time></trkpt><trkpt lat="43.422101112175454" lon="11.67011359071217"><ele>276.57142857142856</ele><time>2026-05-01T07:34:35Z</time></trkpt><trkpt lat="43.42210996041625" lon="11.670022304126373"><ele>276.42857142857144</ele><time>2026-05-01T07:34:36Z</time></trkpt><trkpt lat="43.42211549932819" lon="11.669930852421885"><ele>276.28571428571433</ele><time>2026-05-01T07:34:37Z</time></trkpt><trkpt lat="43.42211422501399" lon="11.669837553343362"><ele>276.14285714285717</ele><time>2026-05-01T07:34:38Z</time></trkpt><trkpt lat="43.42211601789947" lon="11.669744362697141"><ele>276.0</ele><time>2026-05-01T07:34:39Z</time></trkpt><trkpt lat="43.42211295601822" lon="11.669650146113943"><ele>276.0</ele><time>2026-05-01T07:34:40Z</time></trkpt><trkpt lat="43.42210726523056" lon="11.669556831381088"><ele>276.0</ele><time>2026-05-01T07:34:41Z</time></trkpt><trkpt lat="43.422113788363724" lon="11.66946078169741"><ele>276.0</ele><time>2026-05-01T07:34:41.999Z</time></trkpt><trkpt lat="43.42212403098252" lon="11.669368308362436"><ele>276.0</ele><time>2026-05-01T07:34:42.999Z</time></trkpt><trkpt lat="43.422141598532576" lon="11.669276326042217"><ele>276.0</ele><time>2026-05-01T07:34:43.999Z</time></trkpt><trkpt lat="43.422160040634346" lon="11.669184917927728"><ele>276.0</ele><time>2026-05-01T07:34:44.999Z</time></trkpt><trkpt lat="43.42218128282364" lon="11.669093552077872"><ele>276.0</ele><time>2026-05-01T07:34:45.999Z</time></trkpt><trkpt lat="43.422201389398424" lon="11.669001052038793"><ele>276.42857142857144</ele><time>2026-05-01T07:34:46.999Z</time></trkpt><trkpt lat="43.42222532495269" lon="11.668911020030803"><ele>276.8571428571429</ele><time>2026-05-01T07:34:47.999Z</time></trkpt><trkpt lat="43.42225089961924" lon="11.668820626124049"><ele>277.2857142857143</ele><time>2026-05-01T07:34:48.999Z</time></trkpt><trkpt lat="43.42227692414916" lon="11.668726667229038"><ele>277.7142857142857</ele><time>2026-05-01T07:34:49.999Z</time></trkpt><trkpt lat="43.42229716299197" lon="11.668629980579148"><ele>278.1428571428571</ele><time>2026-05-01T07:34:50.999Z</time></trkpt><trkpt lat="43.42232088163281" lon="11.668540920175621"><ele>278.57142857142856</ele><time>2026-05-01T07:34:51.999Z</time></trkpt><trkpt lat="43.42234940056677" lon="11.668452079811686"><ele>279.0</ele><time>2026-05-01T07:34:52.999Z</time></trkpt><trkpt lat="43.42238335838445" lon="11.668365018944277"><ele>278.99999999999994</ele><time>2026-05-01T07:34:53.999Z</time></trkpt><trkpt lat="43.42241445909333" lon="11.668278948417584"><ele>279.0</ele><time>2026-05-01T07:34:54.999Z</time></trkpt><trkpt lat="43.4224553833526" lon="11.668199766829822"><ele>279.0</ele><time>2026-05-01T07:34:55.999Z</time></trkpt><trkpt lat="43.42249553427456" lon="11.66811882015816"><ele>279.0</ele><time>2026-05-01T07:34:56.999Z</time></trkpt><trkpt lat="43.42253644800477" lon="11.668037886125811"><ele>279.0</ele><time>2026-05-01T07:34:57.999Z</time></trkpt><trkpt lat="43.42257524707664" lon="11.667952034310119"><ele>278.99999999999994</ele><time>2026-05-01T07:34:58.999Z</time></trkpt><trkpt lat="43.42262019193848" lon="11.66787357427399"><ele>279.0</ele><time>2026-05-01T07:34:59.999Z</time></trkpt><trkpt lat="43.42265717341067" lon="11.667787581357251"><ele>278.1666666666667</ele><time>2026-05-01T07:35:00.999Z</time></trkpt><trkpt lat="43.422696716948934" lon="11.667691386311631"><ele>277.3333333333333</ele><time>2026-05-01T07:35:01.999Z</time></trkpt><trkpt lat="43.42273717549252" lon="11.66760508101437"><ele>276.5</ele><time>2026-05-01T07:35:02.999Z</time></trkpt><trkpt lat="43.422778630650924" lon="11.667520175559867"><ele>275.66666666666663</ele><time>2026-05-01T07:35:03.999Z</time></trkpt><trkpt lat="43.42281930926495" lon="11.667432374939924"><ele>274.8333333333333</ele><time>2026-05-01T07:35:04.999Z</time></trkpt><trkpt lat="43.422862295603395" lon="11.667342251732645"><ele>274.0</ele><time>2026-05-01T07:35:05.999Z</time></trkpt><trkpt lat="43.42290468917251" lon="11.667251746418264"><ele>274.0</ele><time>2026-05-01T07:35:06.999Z</time></trkpt><trkpt lat="43.42294475123001" lon="11.667156778319084"><ele>274.0</ele><time>2026-05-01T07:35:07.999Z</time></trkpt><trkpt lat="43.42298833684915" lon="11.667073356952137"><ele>274.0</ele><time>2026-05-01T07:35:08.999Z</time></trkpt><trkpt lat="43.42302905425291" lon="11.66698081389925"><ele>274.0</ele><time>2026-05-01T07:35:09.999Z</time></trkpt><trkpt lat="43.42307186141946" lon="11.666895568313072"><ele>274.0</ele><time>2026-05-01T07:35:10.999Z</time></trkpt><trkpt lat="43.42311342099638" lon="11.666808350166852"><ele>274.0</ele><time>2026-05-01T07:35:11.999Z</time></trkpt><trkpt lat="43.423155116974414" lon="11.666721044915818"><ele>274.14285714285717</ele><time>2026-05-01T07:35:12.999Z</time></trkpt><trkpt lat="43.4231950928559" lon="11.666630304655591"><ele>274.2857142857143</ele><time>2026-05-01T07:35:13.999Z</time></trkpt><trkpt lat="43.4232340776613" lon="11.666541251790049"><ele>274.42857142857144</ele><time>2026-05-01T07:35:14.999Z</time></trkpt><trkpt lat="43.4232757644788" lon="11.666455622833524"><ele>274.57142857142856</ele><time>2026-05-01T07:35:15.999Z</time></trkpt><trkpt lat="43.42331652680035" lon="11.666368975980332"><ele>274.7142857142857</ele><time>2026-05-01T07:35:16.999Z</time></trkpt><trkpt lat="43.42335697534967" lon="11.666285898946667"><ele>274.8571428571429</ele><time>2026-05-01T07:35:17.999Z</time></trkpt><trkpt lat="43.42339843243195" lon="11.666203121588692"><ele>275.0</ele><time>2026-05-01T07:35:18.999Z</time></trkpt><trkpt lat="43.4234399501102" lon="11.66612147759143"><ele>274.42857142857144</ele><time>2026-05-01T07:35:19.999Z</time></trkpt><trkpt lat="43.42348128731959" lon="11.666038342770435"><ele>273.85714285714283</ele><time>2026-05-01T07:35:20.999Z</time></trkpt><trkpt lat="43.42352261645341" lon="11.665957135679681"><ele>273.2857142857143</ele><time>2026-05-01T07:35:21.999Z</time></trkpt><trkpt lat="43.42356975933927" lon="11.665879552310876"><ele>272.7142857142857</ele><time>2026-05-01T07:35:22.999Z</time></trkpt><trkpt lat="43.423615929233804" lon="11.665804546685267"><ele>272.14285714285717</ele><time>2026-05-01T07:35:23.999Z</time></trkpt><trkpt lat="43.42366431736952" lon="11.66573105054894"><ele>271.57142857142856</ele><time>2026-05-01T07:35:24.999Z</time></trkpt><trkpt lat="43.42371456580306" lon="11.665657563092202"><ele>271.0</ele><time>2026-05-01T07:35:25.999Z</time></trkpt><trkpt lat="43.42376170519936" lon="11.66558472036998"><ele>271.0</ele><time>2026-05-01T07:35:26.999Z</time></trkpt><trkpt lat="43.42380858159697" lon="11.665509203104275"><ele>271.0</ele><time>2026-05-01T07:35:27.999Z</time></trkpt><trkpt lat="43.42385299358479" lon="11.66544007912943"><ele>271.0</ele><time>2026-05-01T07:35:28.998Z</time></trkpt><trkpt lat="43.423897234189624" lon="11.665367144369027"><ele>271.0</ele><time>2026-05-01T07:35:29.998Z</time></trkpt><trkpt lat="43.423941136361165" lon="11.665298559131179"><ele>271.0</ele><time>2026-05-01T07:35:30.998Z</time></trkpt><trkpt lat="43.42398718722858" lon="11.665228831926616"><ele>271.0</ele><time>2026-05-01T07:35:31.998Z</time></trkpt><trkpt lat="43.424037728701364" lon="11.665167387118757"><ele>271.0</ele><time>2026-05-01T07:35:32.998Z</time></trkpt><trkpt lat="43.4240899001964" lon="11.665104040133523"><ele>270.2</ele><time>2026-05-01T07:35:33.998Z</time></trkpt><trkpt lat="43.42414445984722" lon="11.665056059217804"><ele>269.40000000000003</ele><time>2026-05-01T07:35:34.998Z</time></trkpt><trkpt lat="43.42425062895712" lon="11.664968797035666"><ele>268.6</ele><time>2026-05-01T07:35:36.998Z</time></trkpt><trkpt lat="43.424357409405566" lon="11.664910834373567"><ele>267.8</ele><time>2026-05-01T07:35:38.998Z</time></trkpt><trkpt lat="43.42446586759102" lon="11.66486477597867"><ele>267.0</ele><time>2026-05-01T07:35:40.998Z</time></trkpt><trkpt lat="43.42457484280525" lon="11.664826122153723"><ele>267.5</ele><time>2026-05-01T07:35:42.998Z</time></trkpt><trkpt lat="43.42468770034772" lon="11.664789020215382"><ele>268.0</ele><time>2026-05-01T07:35:44.998Z</time></trkpt><trkpt lat="43.42480055685282" lon="11.664752923792506"><ele>268.5</ele><time>2026-05-01T07:35:46.998Z</time></trkpt><trkpt lat="43.42490821923593" lon="11.664714589605582"><ele>269.0</ele><time>2026-05-01T07:35:48.998Z</time></trkpt><trkpt lat="43.42501278720265" lon="11.664677648396367"><ele>269.0</ele><time>2026-05-01T07:35:50.998Z</time></trkpt><trkpt lat="43.425118946355575" lon="11.664637189087598"><ele>269.0</ele><time>2026-05-01T07:35:52.998Z</time></trkpt><trkpt lat="43.42522836684381" lon="11.664602948472305"><ele>269.0</ele><time>2026-05-01T07:35:54.998Z</time></trkpt><trkpt lat="43.425339720499565" lon="11.664566196947233"><ele>269.0</ele><time>2026-05-01T07:35:56.998Z</time></trkpt><trkpt lat="43.42545783257566" lon="11.664523199107107"><ele>269.1666666666667</ele><time>2026-05-01T07:35:58.998Z</time></trkpt><trkpt lat="43.42557599528089" lon="11.664479031007021"><ele>269.33333333333337</ele><time>2026-05-01T07:36:00.998Z</time></trkpt><trkpt lat="43.42569835550854" lon="11.664436679415372"><ele>269.5</ele><time>2026-05-01T07:36:02.998Z</time></trkpt><trkpt lat="43.42576086774666" lon="11.664417186868578"><ele>269.6666666666667</ele><time>2026-05-01T07:36:03.998Z</time></trkpt><trkpt lat="43.425824809770496" lon="11.664397568134927"><ele>269.8333333333333</ele><time>2026-05-01T07:36:04.998Z</time></trkpt><trkpt lat="43.42588716436071" lon="11.66437459530535"><ele>270.0</ele><time>2026-05-01T07:36:05.998Z</time></trkpt><trkpt lat="43.42595026420746" lon="11.66435051084437"><ele>269.1666666666667</ele><time>2026-05-01T07:36:06.998Z</time></trkpt><trkpt lat="43.426012421873224" lon="11.664327983656122"><ele>268.3333333333333</ele><time>2026-05-01T07:36:07.998Z</time></trkpt><trkpt lat="43.426075086121195" lon="11.664307377773907"><ele>267.5</ele><time>2026-05-01T07:36:08.998Z</time></trkpt><trkpt lat="43.42613756438791" lon="11.664286676760886"><ele>266.66666666666663</ele><time>2026-05-01T07:36:09.998Z</time></trkpt><trkpt lat="43.42625743480724" lon="11.66423960076065"><ele>265.8333333333333</ele><time>2026-05-01T07:36:12Z</time></trkpt><trkpt lat="43.42637430062244" lon="11.664185579074914"><ele>265.0</ele><time>2026-05-01T07:36:14Z</time></trkpt><trkpt lat="43.42648876786356" lon="11.664118964693543"><ele>265.0</ele><time>2026-05-01T07:36:16Z</time></trkpt><trkpt lat="43.42660369984309" lon="11.66404745089788"><ele>265.0</ele><time>2026-05-01T07:36:18Z</time></trkpt><trkpt lat="43.426662688050136" lon="11.664009418251887"><ele>265.0</ele><time>2026-05-01T07:36:19Z</time></trkpt><trkpt lat="43.426722916044696" lon="11.663968738621254"><ele>265.0</ele><time>2026-05-01T07:36:20Z</time></trkpt><trkpt lat="43.42678131644228" lon="11.663931132847882"><ele>265.0</ele><time>2026-05-01T07:36:21Z</time></trkpt><trkpt lat="43.42684046111583" lon="11.663894873839531"><ele>265.0</ele><time>2026-05-01T07:36:22Z</time></trkpt><trkpt lat="43.426953184766695" lon="11.663826847420266"><ele>265.0</ele><time>2026-05-01T07:36:24Z</time></trkpt><trkpt lat="43.427059597567016" lon="11.663756356414579"><ele>265.0</ele><time>2026-05-01T07:36:26Z</time></trkpt><trkpt lat="43.42716579370754" lon="11.663688127577855"><ele>265.0</ele><time>2026-05-01T07:36:28Z</time></trkpt><trkpt lat="43.42726732827086" lon="11.663624028879303"><ele>265.0</ele><time>2026-05-01T07:36:30Z</time></trkpt><trkpt lat="43.42737163160387" lon="11.66355512470909"><ele>264.0</ele><time>2026-05-01T07:36:32Z</time></trkpt><trkpt lat="43.42747567774976" lon="11.663485196235824"><ele>263.0</ele><time>2026-05-01T07:36:34Z</time></trkpt><trkpt lat="43.4275807455738" lon="11.663419344332263"><ele>262.0</ele><time>2026-05-01T07:36:36Z</time></trkpt><trkpt lat="43.42768643759572" lon="11.663347046286525"><ele>261.0</ele><time>2026-05-01T07:36:38Z</time></trkpt><trkpt lat="43.42779637780831" lon="11.663278098957642"><ele>261.0</ele><time>2026-05-01T07:36:40Z</time></trkpt><trkpt lat="43.42790391959651" lon="11.663211590404693"><ele>261.0</ele><time>2026-05-01T07:36:42Z</time></trkpt><trkpt lat="43.42801517925243" lon="11.663144070796637"><ele>261.0</ele><time>2026-05-01T07:36:44Z</time></trkpt><trkpt lat="43.42812916280559" lon="11.663072522981158"><ele>261.0</ele><time>2026-05-01T07:36:46Z</time></trkpt><trkpt lat="43.42824352679631" lon="11.663003657653908"><ele>260.8</ele><time>2026-05-01T07:36:47.999Z</time></trkpt><trkpt lat="43.42835741307113" lon="11.662932244888138"><ele>260.6</ele><time>2026-05-01T07:36:49.999Z</time></trkpt><trkpt lat="43.42841444836818" lon="11.662894879073926"><ele>260.4</ele><time>2026-05-01T07:36:50.999Z</time></trkpt><trkpt lat="43.428526613338526" lon="11.662821745726246"><ele>260.2</ele><time>2026-05-01T07:36:52.999Z</time></trkpt><trkpt lat="43.428638699588916" lon="11.662750971599351"><ele>260.0</ele><time>2026-05-01T07:36:54.999Z</time></trkpt><trkpt lat="43.428749495254074" lon="11.662679055728747"><ele>259.5</ele><time>2026-05-01T07:36:56.999Z</time></trkpt><trkpt lat="43.42886043060007" lon="11.66261461969139"><ele>259.0</ele><time>2026-05-01T07:36:58.999Z</time></trkpt><trkpt lat="43.42896788267009" lon="11.662538582665785"><ele>258.5</ele><time>2026-05-01T07:37:00.999Z</time></trkpt><trkpt lat="43.42906663032872" lon="11.662458267422352"><ele>258.0</ele><time>2026-05-01T07:37:02.999Z</time></trkpt><trkpt lat="43.429163518265305" lon="11.662364236426729"><ele>258.0</ele><time>2026-05-01T07:37:04.999Z</time></trkpt><trkpt lat="43.42925964646908" lon="11.662267190024906"><ele>258.0</ele><time>2026-05-01T07:37:06.999Z</time></trkpt><trkpt lat="43.42935542620338" lon="11.662178449275666"><ele>258.0</ele><time>2026-05-01T07:37:08.999Z</time></trkpt><trkpt lat="43.429444258981405" lon="11.662080371774483"><ele>258.0</ele><time>2026-05-01T07:37:10.999Z</time></trkpt><trkpt lat="43.42953360734432" lon="11.661986841203893"><ele>258.0</ele><time>2026-05-01T07:37:12.999Z</time></trkpt><trkpt lat="43.42962584300105" lon="11.661891737035265"><ele>258.0</ele><time>2026-05-01T07:37:14.999Z</time></trkpt><trkpt lat="43.42971242790444" lon="11.661800971159087"><ele>258.0</ele><time>2026-05-01T07:37:16.999Z</time></trkpt><trkpt lat="43.429800235699716" lon="11.661717950631319"><ele>258.0</ele><time>2026-05-01T07:37:18.999Z</time></trkpt><trkpt lat="43.429889500120225" lon="11.661632047585362"><ele>258.0</ele><time>2026-05-01T07:37:20.999Z</time></trkpt><trkpt lat="43.429985765977484" lon="11.661558306907859"><ele>257.8</ele><time>2026-05-01T07:37:22.999Z</time></trkpt><trkpt lat="43.43008033692502" lon="11.661492061309009"><ele>257.6</ele><time>2026-05-01T07:37:24.999Z</time></trkpt><trkpt lat="43.430179749724886" lon="11.661429970553181"><ele>257.4</ele><time>2026-05-01T07:37:26.999Z</time></trkpt><trkpt lat="43.43027706831459" lon="11.661378428742314"><ele>257.2</ele><time>2026-05-01T07:37:28.999Z</time></trkpt><trkpt lat="43.43037613308454" lon="11.66133878444884"><ele>257.0</ele><time>2026-05-01T07:37:30.999Z</time></trkpt><trkpt lat="43.430472210790036" lon="11.661301625712225"><ele>257.2</ele><time>2026-05-01T07:37:32.999Z</time></trkpt><trkpt lat="43.43057494354118" lon="11.661272576303201"><ele>257.4</ele><time>2026-05-01T07:37:34.998Z</time></trkpt><trkpt lat="43.43067494189971" lon="11.661249624392436"><ele>257.6</ele><time>2026-05-01T07:37:36.998Z</time></trkpt><trkpt lat="43.430776211722254" lon="11.661233664653627"><ele>257.8</ele><time>2026-05-01T07:37:38.998Z</time></trkpt><trkpt lat="43.43088413272039" lon="11.66121837429629"><ele>258.0</ele><time>2026-05-01T07:37:40.998Z</time></trkpt><trkpt lat="43.43099043470636" lon="11.661204308684937"><ele>258.0</ele><time>2026-05-01T07:37:42.998Z</time></trkpt><trkpt lat="43.43110295491273" lon="11.661191175158288"><ele>258.0</ele><time>2026-05-01T07:37:44.998Z</time></trkpt><trkpt lat="43.431214703960585" lon="11.66117237078746"><ele>258.0</ele><time>2026-05-01T07:37:46.998Z</time></trkpt><trkpt lat="43.43132432620313" lon="11.661157981183184"><ele>258.0</ele><time>2026-05-01T07:37:48.998Z</time></trkpt><trkpt lat="43.4314363109551" lon="11.661142917335598"><ele>258.0</ele><time>2026-05-01T07:37:50.998Z</time></trkpt><trkpt lat="43.43155379883985" lon="11.661125521175736"><ele>257.75</ele><time>2026-05-01T07:37:52.998Z</time></trkpt><trkpt lat="43.43166912102736" lon="11.661108976388144"><ele>257.5</ele><time>2026-05-01T07:37:54.998Z</time></trkpt><trkpt lat="43.43178471325798" lon="11.661089796387186"><ele>257.25</ele><time>2026-05-01T07:37:56.998Z</time></trkpt><trkpt lat="43.4318980860493" lon="11.661074799371887"><ele>257.0</ele><time>2026-05-01T07:37:58.998Z</time></trkpt><trkpt lat="43.4320082904638" lon="11.66105660375859"><ele>257.0</ele><time>2026-05-01T07:38:00.998Z</time></trkpt><trkpt lat="43.432119085191374" lon="11.661044262154933"><ele>257.0</ele><time>2026-05-01T07:38:02.998Z</time></trkpt><trkpt lat="43.43223058750906" lon="11.661024390436218"><ele>257.0</ele><time>2026-05-01T07:38:04.998Z</time></trkpt><trkpt lat="43.43234141148997" lon="11.660996737496191"><ele>257.0</ele><time>2026-05-01T07:38:06.998Z</time></trkpt><trkpt lat="43.432460470786765" lon="11.66096102194832"><ele>256.75</ele><time>2026-05-01T07:38:08.998Z</time></trkpt><trkpt lat="43.43257516853571" lon="11.660923177965886"><ele>256.5</ele><time>2026-05-01T07:38:10.998Z</time></trkpt><trkpt lat="43.432688890299126" lon="11.660885673550384"><ele>256.25</ele><time>2026-05-01T07:38:12.998Z</time></trkpt><trkpt lat="43.43280765652108" lon="11.66084518933057"><ele>256.0</ele><time>2026-05-01T07:38:14.998Z</time></trkpt><trkpt lat="43.43292959896375" lon="11.660807003011657"><ele>256.2</ele><time>2026-05-01T07:38:17Z</time></trkpt><trkpt lat="43.432992661873804" lon="11.660784962016377"><ele>256.40000000000003</ele><time>2026-05-01T07:38:18Z</time></trkpt><trkpt lat="43.4331096494728" lon="11.660744660538628"><ele>256.6</ele><time>2026-05-01T07:38:20Z</time></trkpt><trkpt lat="43.433224084829405" lon="11.660709043810815"><ele>256.8</ele><time>2026-05-01T07:38:22Z</time></trkpt><trkpt lat="43.43333572456117" lon="11.660673487043217"><ele>257.0</ele><time>2026-05-01T07:38:24Z</time></trkpt><trkpt lat="43.433447819434356" lon="11.660639384421309"><ele>257.0</ele><time>2026-05-01T07:38:26Z</time></trkpt><trkpt lat="43.43355962172099" lon="11.660606301694642"><ele>257.0</ele><time>2026-05-01T07:38:28Z</time></trkpt><trkpt lat="43.43367179164563" lon="11.660567057229411"><ele>257.0</ele><time>2026-05-01T07:38:30Z</time></trkpt><trkpt lat="43.433781241233966" lon="11.660530451109176"><ele>257.0</ele><time>2026-05-01T07:38:32Z</time></trkpt><trkpt lat="43.433884929926194" lon="11.660490290923219"><ele>257.6</ele><time>2026-05-01T07:38:34Z</time></trkpt><trkpt lat="43.43398857932969" lon="11.660451927886372"><ele>258.2</ele><time>2026-05-01T07:38:36Z</time></trkpt><trkpt lat="43.43409654049429" lon="11.660410739451102"><ele>258.8</ele><time>2026-05-01T07:38:38Z</time></trkpt><trkpt lat="43.434207559701406" lon="11.660365274617641"><ele>259.4</ele><time>2026-05-01T07:38:40Z</time></trkpt><trkpt lat="43.4343148519898" lon="11.66032116522541"><ele>260.0</ele><time>2026-05-01T07:38:42Z</time></trkpt><trkpt lat="43.434422635467435" lon="11.660273855663485"><ele>259.0</ele><time>2026-05-01T07:38:44Z</time></trkpt><trkpt lat="43.43452834454451" lon="11.660237461041833"><ele>258.0</ele><time>2026-05-01T07:38:46Z</time></trkpt><trkpt lat="43.4346288154376" lon="11.66019162620691"><ele>257.0</ele><time>2026-05-01T07:38:48Z</time></trkpt><trkpt lat="43.43473264701272" lon="11.660156343562473"><ele>256.0</ele><time>2026-05-01T07:38:50Z</time></trkpt><trkpt lat="43.43483806053681" lon="11.660109232182913"><ele>255.0</ele><time>2026-05-01T07:38:52Z</time></trkpt><trkpt lat="43.43494413746298" lon="11.660070824110383"><ele>255.0</ele><time>2026-05-01T07:38:53.999Z</time></trkpt><trkpt lat="43.43505326466176" lon="11.660026919383753"><ele>255.0</ele><time>2026-05-01T07:38:55.999Z</time></trkpt><trkpt lat="43.43516040339734" lon="11.659985480640321"><ele>255.0</ele><time>2026-05-01T07:38:57.999Z</time></trkpt><trkpt lat="43.435267550246714" lon="11.659941111549987"><ele>255.0</ele><time>2026-05-01T07:38:59.999Z</time></trkpt><trkpt lat="43.435374831952494" lon="11.659898216344128"><ele>255.0</ele><time>2026-05-01T07:39:01.999Z</time></trkpt><trkpt lat="43.43547820063792" lon="11.659856072234923"><ele>254.6</ele><time>2026-05-01T07:39:03.999Z</time></trkpt><trkpt lat="43.43558078562449" lon="11.65981587329949"><ele>254.2</ele><time>2026-05-01T07:39:05.999Z</time></trkpt><trkpt lat="43.43568172657793" lon="11.65977487627249"><ele>253.8</ele><time>2026-05-01T07:39:07.999Z</time></trkpt><trkpt lat="43.435782585387116" lon="11.65973873905835"><ele>253.4</ele><time>2026-05-01T07:39:09.999Z</time></trkpt><trkpt lat="43.435881120860756" lon="11.65970716822517"><ele>253.0</ele><time>2026-05-01T07:39:11.999Z</time></trkpt><trkpt lat="43.43598138933447" lon="11.659662968335617"><ele>252.99999999999997</ele><time>2026-05-01T07:39:13.999Z</time></trkpt><trkpt lat="43.436073876959355" lon="11.659629089681111"><ele>253.0</ele><time>2026-05-01T07:39:15.999Z</time></trkpt><trkpt lat="43.43614814909955" lon="11.659575766112102"><ele>253.0</ele><time>2026-05-01T07:39:17.999Z</time></trkpt><trkpt lat="43.43621279197494" lon="11.659557845747411"><ele>253.0</ele><time>2026-05-01T07:39:19.999Z</time></trkpt><trkpt lat="43.43620194846352" lon="11.659441606834203"><ele>252.99999999999997</ele><time>2026-05-01T07:39:20.999Z</time></trkpt><trkpt lat="43.43620283455043" lon="11.65935173798285"><ele>253.0</ele><time>2026-05-01T07:39:22.999Z</time></trkpt><trkpt lat="43.43619210047382" lon="11.65926066374104"><ele>253.16666666666666</ele><time>2026-05-01T07:39:24.999Z</time></trkpt><trkpt lat="43.43614705681666" lon="11.659182976728562"><ele>253.33333333333331</ele><time>2026-05-01T07:39:26.999Z</time></trkpt><trkpt lat="43.43607953206766" lon="11.659149215889835"><ele>253.5</ele><time>2026-05-01T07:39:28.999Z</time></trkpt><trkpt lat="43.43600983665911" lon="11.659114441100568"><ele>253.66666666666669</ele><time>2026-05-01T07:39:30.999Z</time></trkpt><trkpt lat="43.43594273238699" lon="11.65906611755026"><ele>253.83333333333334</ele><time>2026-05-01T07:39:32.999Z</time></trkpt><trkpt lat="43.43586955285595" lon="11.659020913387856"><ele>254.0</ele><time>2026-05-01T07:39:34.999Z</time></trkpt><trkpt lat="43.43579190697776" lon="11.658977764699952"><ele>254.0</ele><time>2026-05-01T07:39:36.999Z</time></trkpt><trkpt lat="43.43571775510444" lon="11.658915680619671"><ele>253.99999999999997</ele><time>2026-05-01T07:39:38.999Z</time></trkpt><trkpt lat="43.43563981894293" lon="11.658841286322787"><ele>253.99999999999997</ele><time>2026-05-01T07:39:40.999Z</time></trkpt><trkpt lat="43.4355616475307" lon="11.658762926322508"><ele>254.0</ele><time>2026-05-01T07:39:42.998Z</time></trkpt><trkpt lat="43.43548296455699" lon="11.6586681504769"><ele>254.0</ele><time>2026-05-01T07:39:44.998Z</time></trkpt><trkpt lat="43.435410892110994" lon="11.658564311327554"><ele>253.75</ele><time>2026-05-01T07:39:46.998Z</time></trkpt><trkpt lat="43.43533474336454" lon="11.658449672463883"><ele>253.5</ele><time>2026-05-01T07:39:48.998Z</time></trkpt><trkpt lat="43.43526912219691" lon="11.658319548953408"><ele>253.25</ele><time>2026-05-01T07:39:50.998Z</time></trkpt><trkpt lat="43.435208676504175" lon="11.658179220531512"><ele>253.0</ele><time>2026-05-01T07:39:52.998Z</time></trkpt><trkpt lat="43.43515885517444" lon="11.658030267325069"><ele>253.0</ele><time>2026-05-01T07:39:54.998Z</time></trkpt><trkpt lat="43.43512484952646" lon="11.65787690421242"><ele>253.0</ele><time>2026-05-01T07:39:56.998Z</time></trkpt><trkpt lat="43.4350992002323" lon="11.65771661523861"><ele>253.0</ele><time>2026-05-01T07:39:58.998Z</time></trkpt><trkpt lat="43.43508678882879" lon="11.657561179169564"><ele>253.0</ele><time>2026-05-01T07:40:00.998Z</time></trkpt><trkpt lat="43.43508178601768" lon="11.657404484242337"><ele>253.4</ele><time>2026-05-01T07:40:02.998Z</time></trkpt><trkpt lat="43.43508876577288" lon="11.65725569922625"><ele>253.8</ele><time>2026-05-01T07:40:04.998Z</time></trkpt><trkpt lat="43.43509858401191" lon="11.657113543939051"><ele>254.2</ele><time>2026-05-01T07:40:06.998Z</time></trkpt><trkpt lat="43.435121936198286" lon="11.656981768631617"><ele>254.6</ele><time>2026-05-01T07:40:08.998Z</time></trkpt><trkpt lat="43.435144831741255" lon="11.6568587019402"><ele>255.0</ele><time>2026-05-01T07:40:10.998Z</time></trkpt><trkpt lat="43.43517190699265" lon="11.656745319675524"><ele>255.2857142857143</ele><time>2026-05-01T07:40:12.998Z</time></trkpt><trkpt lat="43.435196834832006" lon="11.656633242601805"><ele>255.5714285714286</ele><time>2026-05-01T07:40:14.998Z</time></trkpt><trkpt lat="43.43521932669663" lon="11.656528532981566"><ele>255.85714285714286</ele><time>2026-05-01T07:40:16.998Z</time></trkpt><trkpt lat="43.43524237838704" lon="11.65643107323267"><ele>256.14285714285717</ele><time>2026-05-01T07:40:18.998Z</time></trkpt><trkpt lat="43.43526438938002" lon="11.656339552678915"><ele>256.42857142857144</ele><time>2026-05-01T07:40:20.998Z</time></trkpt><trkpt lat="43.435279756754305" lon="11.65625296280706"><ele>256.7142857142857</ele><time>2026-05-01T07:40:23Z</time></trkpt><trkpt lat="43.43530105791326" lon="11.656171090130599"><ele>257.0</ele><time>2026-05-01T07:40:25Z</time></trkpt><trkpt lat="43.43532520471995" lon="11.656048390768415"><ele>257.83333333333337</ele><time>2026-05-01T07:40:28Z</time></trkpt><trkpt lat="43.43534946124884" lon="11.65592205691391"><ele>258.6666666666667</ele><time>2026-05-01T07:40:31Z</time></trkpt><trkpt lat="43.435368881344125" lon="11.655837956880028"><ele>259.5</ele><time>2026-05-01T07:40:33Z</time></trkpt><trkpt lat="43.43538409321159" lon="11.655752645815705"><ele>260.3333333333333</ele><time>2026-05-01T07:40:35Z</time></trkpt><trkpt lat="43.435414347350466" lon="11.655630979724686"><ele>261.16666666666663</ele><time>2026-05-01T07:40:38Z</time></trkpt><trkpt lat="43.43543895627295" lon="11.655507657158193"><ele>262.0</ele><time>2026-05-01T07:40:41Z</time></trkpt><trkpt lat="43.43546596090625" lon="11.655389439898384"><ele>261.8333333333333</ele><time>2026-05-01T07:40:44Z</time></trkpt><trkpt lat="43.43549339837054" lon="11.655268750026027"><ele>261.66666666666663</ele><time>2026-05-01T07:40:47Z</time></trkpt><trkpt lat="43.43552052582327" lon="11.655147564977069"><ele>261.5</ele><time>2026-05-01T07:40:50Z</time></trkpt><trkpt lat="43.435553514558336" lon="11.655036714352521"><ele>261.3333333333333</ele><time>2026-05-01T07:40:53Z</time></trkpt><trkpt lat="43.435571299107615" lon="11.65491335455656"><ele>261.1666666666667</ele><time>2026-05-01T07:40:56Z</time></trkpt><trkpt lat="43.43559455448897" lon="11.654802113069332"><ele>261.0</ele><time>2026-05-01T07:40:59Z</time></trkpt><trkpt lat="43.43562470936347" lon="11.654703128649055"><ele>261.0</ele><time>2026-05-01T07:41:01.999Z</time></trkpt><trkpt lat="43.435648503816026" lon="11.654582201989408"><ele>261.0</ele><time>2026-05-01T07:41:04.999Z</time></trkpt><trkpt lat="43.43567011401569" lon="11.654466813495972"><ele>261.0</ele><time>2026-05-01T07:41:07.999Z</time></trkpt><trkpt lat="43.435688144547775" lon="11.65435566850224"><ele>261.0</ele><time>2026-05-01T07:41:10.999Z</time></trkpt><trkpt lat="43.43571384576476" lon="11.654241870850072"><ele>261.0</ele><time>2026-05-01T07:41:13.999Z</time></trkpt><trkpt lat="43.43573500655595" lon="11.654127484914603"><ele>261.0</ele><time>2026-05-01T07:41:16.999Z</time></trkpt><trkpt lat="43.43575336377296" lon="11.654013141166702"><ele>262.2</ele><time>2026-05-01T07:41:19.999Z</time></trkpt><trkpt lat="43.435771126081576" lon="11.653893650833089"><ele>263.40000000000003</ele><time>2026-05-01T07:41:22.999Z</time></trkpt><trkpt lat="43.43578896972911" lon="11.653773962916445"><ele>264.6</ele><time>2026-05-01T07:41:25.999Z</time></trkpt><trkpt lat="43.43580595465505" lon="11.653653427388063"><ele>265.8</ele><time>2026-05-01T07:41:28.999Z</time></trkpt><trkpt lat="43.43582116250147" lon="11.653530692471042"><ele>267.0</ele><time>2026-05-01T07:41:31.999Z</time></trkpt><trkpt lat="43.43583933014918" lon="11.653404995201294"><ele>267.28571428571433</ele><time>2026-05-01T07:41:34.999Z</time></trkpt><trkpt lat="43.435851710275365" lon="11.653319870016839"><ele>267.57142857142856</ele><time>2026-05-01T07:41:36.999Z</time></trkpt><trkpt lat="43.43586521136017" lon="11.653232960980024"><ele>267.8571428571429</ele><time>2026-05-01T07:41:38.999Z</time></trkpt><trkpt lat="43.43587388724596" lon="11.65313711754653"><ele>268.14285714285717</ele><time>2026-05-01T07:41:40.999Z</time></trkpt><trkpt lat="43.43589033184925" lon="11.653043463805702"><ele>268.42857142857144</ele><time>2026-05-01T07:41:42.999Z</time></trkpt><trkpt lat="43.43590389324273" lon="11.65294660148896"><ele>268.7142857142857</ele><time>2026-05-01T07:41:44.999Z</time></trkpt><trkpt lat="43.435922786108264" lon="11.652852238224323"><ele>269.0</ele><time>2026-05-01T07:41:46.999Z</time></trkpt><trkpt lat="43.43593502905027" lon="11.652754461418024"><ele>269.2857142857143</ele><time>2026-05-01T07:41:48.998Z</time></trkpt><trkpt lat="43.43594932439711" lon="11.65266034467565"><ele>269.5714285714286</ele><time>2026-05-01T07:41:50.998Z</time></trkpt><trkpt lat="43.43596325442542" lon="11.652567229400107"><ele>269.8571428571429</ele><time>2026-05-01T07:41:52.998Z</time></trkpt><trkpt lat="43.43598061906461" lon="11.652476063147008"><ele>270.14285714285717</ele><time>2026-05-01T07:41:54.998Z</time></trkpt><trkpt lat="43.43599061703519" lon="11.652377544535328"><ele>270.42857142857144</ele><time>2026-05-01T07:41:56.998Z</time></trkpt><trkpt lat="43.43600893230207" lon="11.652275888713021"><ele>270.7142857142857</ele><time>2026-05-01T07:41:58.998Z</time></trkpt><trkpt lat="43.43602494397492" lon="11.6521803044295"><ele>271.0</ele><time>2026-05-01T07:42:00.998Z</time></trkpt><trkpt lat="43.43604411347808" lon="11.652073325820279"><ele>271.0</ele><time>2026-05-01T07:42:02.998Z</time></trkpt><trkpt lat="43.43606728655069" lon="11.651961451106759"><ele>271.0</ele><time>2026-05-01T07:42:04.998Z</time></trkpt><trkpt lat="43.436096663032096" lon="11.651846552529742"><ele>271.0</ele><time>2026-05-01T07:42:06.998Z</time></trkpt><trkpt lat="43.43612470499251" lon="11.65173591700685"><ele>271.0</ele><time>2026-05-01T07:42:08.998Z</time></trkpt><trkpt lat="43.43614885507745" lon="11.651620842994635"><ele>271.0</ele><time>2026-05-01T07:42:10.998Z</time></trkpt><trkpt lat="43.43617730907538" lon="11.651499170496395"><ele>271.0</ele><time>2026-05-01T07:42:12.998Z</time></trkpt><trkpt lat="43.43620471581136" lon="11.651374226565876"><ele>271.0</ele><time>2026-05-01T07:42:14.998Z</time></trkpt><trkpt lat="43.43624204132405" lon="11.651243094512985"><ele>271.0</ele><time>2026-05-01T07:42:16.998Z</time></trkpt><trkpt lat="43.43628142346004" lon="11.651096659658588"><ele>271.0</ele><time>2026-05-01T07:42:18.998Z</time></trkpt><trkpt lat="43.4363251639864" lon="11.65094291940754"><ele>271.0</ele><time>2026-05-01T07:42:20.998Z</time></trkpt><trkpt lat="43.43637821647793" lon="11.65078589128042"><ele>271.0</ele><time>2026-05-01T07:42:22.998Z</time></trkpt><trkpt lat="43.436406854425464" lon="11.650701921217294"><ele>271.0</ele><time>2026-05-01T07:42:23.998Z</time></trkpt><trkpt lat="43.43643741303814" lon="11.650612297961203"><ele>271.0</ele><time>2026-05-01T07:42:24.998Z</time></trkpt><trkpt lat="43.436470586377325" lon="11.650522165436813"><ele>271.0</ele><time>2026-05-01T07:42:25.998Z</time></trkpt><trkpt lat="43.43650234910655" lon="11.65042954655971"><ele>271.0</ele><time>2026-05-01T07:42:26.998Z</time></trkpt><trkpt lat="43.43653611735969" lon="11.650334781991985"><ele>271.0</ele><time>2026-05-01T07:42:27.998Z</time></trkpt><trkpt lat="43.43657493565331" lon="11.650239729232878"><ele>271.0</ele><time>2026-05-01T07:42:29Z</time></trkpt><trkpt lat="43.43661369094079" lon="11.650134695076286"><ele>270.3333333333333</ele><time>2026-05-01T07:42:30Z</time></trkpt><trkpt lat="43.436652756100735" lon="11.650026296246965"><ele>269.66666666666663</ele><time>2026-05-01T07:42:31Z</time></trkpt><trkpt lat="43.43669144622429" lon="11.649917578691916"><ele>269.0</ele><time>2026-05-01T07:42:32Z</time></trkpt><trkpt lat="43.43673365851557" lon="11.649811606447495"><ele>268.3333333333333</ele><time>2026-05-01T07:42:33Z</time></trkpt><trkpt lat="43.43677442996922" lon="11.64970153741601"><ele>267.6666666666667</ele><time>2026-05-01T07:42:34Z</time></trkpt><trkpt lat="43.43681728078006" lon="11.649589871056197"><ele>267.0</ele><time>2026-05-01T07:42:35Z</time></trkpt><trkpt lat="43.436858893577245" lon="11.649479497048691"><ele>266.0</ele><time>2026-05-01T07:42:36Z</time></trkpt><trkpt lat="43.43690133226994" lon="11.649369240473868"><ele>265.0</ele><time>2026-05-01T07:42:37Z</time></trkpt><trkpt lat="43.43694737959162" lon="11.649254474544792"><ele>264.0</ele><time>2026-05-01T07:42:38Z</time></trkpt><trkpt lat="43.43699597993668" lon="11.649138147310401"><ele>263.0</ele><time>2026-05-01T07:42:39Z</time></trkpt><trkpt lat="43.4370372800215" lon="11.649024601462946"><ele>262.0</ele><time>2026-05-01T07:42:40Z</time></trkpt><trkpt lat="43.43708188714926" lon="11.648911830088698"><ele>262.0</ele><time>2026-05-01T07:42:41Z</time></trkpt><trkpt lat="43.43712333839711" lon="11.648798829581981"><ele>262.0</ele><time>2026-05-01T07:42:42Z</time></trkpt><trkpt lat="43.437165511113875" lon="11.64868329519341"><ele>262.0</ele><time>2026-05-01T07:42:43Z</time></trkpt><trkpt lat="43.437211468429126" lon="11.648571599116533"><ele>262.0</ele><time>2026-05-01T07:42:44Z</time></trkpt><trkpt lat="43.43725354464187" lon="11.64846273529846"><ele>262.0</ele><time>2026-05-01T07:42:45Z</time></trkpt><trkpt lat="43.437298326688754" lon="11.648348209114245"><ele>261.3333333333333</ele><time>2026-05-01T07:42:46Z</time></trkpt><trkpt lat="43.437340629163856" lon="11.648232762102435"><ele>260.66666666666663</ele><time>2026-05-01T07:42:47Z</time></trkpt><trkpt lat="43.43738005509176" lon="11.648126200230061"><ele>260.0</ele><time>2026-05-01T07:42:48Z</time></trkpt><trkpt lat="43.43741913091891" lon="11.648017356749605"><ele>259.3333333333333</ele><time>2026-05-01T07:42:49Z</time></trkpt><trkpt lat="43.43746016061342" lon="11.64791173559328"><ele>258.6666666666667</ele><time>2026-05-01T07:42:50Z</time></trkpt><trkpt lat="43.43750149470334" lon="11.647807345980862"><ele>258.0</ele><time>2026-05-01T07:42:51Z</time></trkpt><trkpt lat="43.43754012796217" lon="11.647701211559873"><ele>258.0</ele><time>2026-05-01T07:42:52Z</time></trkpt><trkpt lat="43.43757951234696" lon="11.647599688188869"><ele>258.0</ele><time>2026-05-01T07:42:53Z</time></trkpt><trkpt lat="43.43761701647151" lon="11.647495975515167"><ele>258.0</ele><time>2026-05-01T07:42:54Z</time></trkpt><trkpt lat="43.43765762127376" lon="11.647388640475668"><ele>258.0</ele><time>2026-05-01T07:42:55Z</time></trkpt><trkpt lat="43.43769532717016" lon="11.647287101361918"><ele>258.0</ele><time>2026-05-01T07:42:56Z</time></trkpt><trkpt lat="43.437731659975626" lon="11.647180166141553"><ele>258.0</ele><time>2026-05-01T07:42:57Z</time></trkpt><trkpt lat="43.43776309028766" lon="11.647073116590489"><ele>258.0</ele><time>2026-05-01T07:42:58Z</time></trkpt><trkpt lat="43.437792994032115" lon="11.646968065870745"><ele>258.0</ele><time>2026-05-01T07:42:59Z</time></trkpt><trkpt lat="43.43781987643978" lon="11.646862156617393"><ele>258.0</ele><time>2026-05-01T07:43:00Z</time></trkpt><trkpt lat="43.43784184545948" lon="11.64675634683504"><ele>258.0</ele><time>2026-05-01T07:43:01Z</time></trkpt><trkpt lat="43.43786331061173" lon="11.646648287828265"><ele>258.0</ele><time>2026-05-01T07:43:02Z</time></trkpt><trkpt lat="43.437878689489565" lon="11.646538389252862"><ele>258.0</ele><time>2026-05-01T07:43:03Z</time></trkpt><trkpt lat="43.43789075516384" lon="11.646436620444168"><ele>257.85714285714283</ele><time>2026-05-01T07:43:04Z</time></trkpt><trkpt lat="43.43790096843085" lon="11.646335050577695"><ele>257.7142857142857</ele><time>2026-05-01T07:43:05Z</time></trkpt><trkpt lat="43.43790946768649" lon="11.646234012535563"><ele>257.57142857142856</ele><time>2026-05-01T07:43:06Z</time></trkpt><trkpt lat="43.43791322642821" lon="11.646131859302963"><ele>257.42857142857144</ele><time>2026-05-01T07:43:07Z</time></trkpt><trkpt lat="43.4379181235757" lon="11.646044267904795"><ele>257.2857142857143</ele><time>2026-05-01T07:43:08Z</time></trkpt><trkpt lat="43.4379180256452" lon="11.645939886615233"><ele>257.1428571428571</ele><time>2026-05-01T07:43:08.999Z</time></trkpt><trkpt lat="43.437919435648496" lon="11.645840588662159"><ele>257.0</ele><time>2026-05-01T07:43:09.999Z</time></trkpt><trkpt lat="43.437916466224614" lon="11.64574405987462"><ele>257.0</ele><time>2026-05-01T07:43:10.999Z</time></trkpt><trkpt lat="43.437910804069865" lon="11.645648047582998"><ele>257.0</ele><time>2026-05-01T07:43:11.999Z</time></trkpt><trkpt lat="43.43790630706962" lon="11.645548401044143"><ele>257.0</ele><time>2026-05-01T07:43:12.999Z</time></trkpt><trkpt lat="43.43789377782233" lon="11.645450640609864"><ele>257.0</ele><time>2026-05-01T07:43:13.999Z</time></trkpt><trkpt lat="43.43788087021541" lon="11.64535053991874"><ele>257.0</ele><time>2026-05-01T07:43:14.999Z</time></trkpt><trkpt lat="43.437864678903544" lon="11.645249480314105"><ele>257.0</ele><time>2026-05-01T07:43:15.999Z</time></trkpt><trkpt lat="43.43784960405833" lon="11.645147572261596"><ele>257.0</ele><time>2026-05-01T07:43:16.999Z</time></trkpt><trkpt lat="43.4378278240515" lon="11.645046385870355"><ele>257.0</ele><time>2026-05-01T07:43:17.999Z</time></trkpt><trkpt lat="43.437808603406296" lon="11.64494649366492"><ele>257.0</ele><time>2026-05-01T07:43:18.999Z</time></trkpt><trkpt lat="43.437788984363394" lon="11.644843077039916"><ele>257.0</ele><time>2026-05-01T07:43:19.999Z</time></trkpt><trkpt lat="43.437767822905286" lon="11.644739660964959"><ele>257.0</ele><time>2026-05-01T07:43:20.999Z</time></trkpt><trkpt lat="43.43774580706877" lon="11.64463455312803"><ele>257.0</ele><time>2026-05-01T07:43:21.999Z</time></trkpt><trkpt lat="43.43772545865353" lon="11.644524748377245"><ele>257.0</ele><time>2026-05-01T07:43:22.999Z</time></trkpt><trkpt lat="43.437710061976745" lon="11.644415305396311"><ele>256.5</ele><time>2026-05-01T07:43:23.999Z</time></trkpt><trkpt lat="43.437697692460695" lon="11.644302640811466"><ele>256.0</ele><time>2026-05-01T07:43:24.999Z</time></trkpt><trkpt lat="43.43768568947616" lon="11.644188715186022"><ele>255.5</ele><time>2026-05-01T07:43:25.999Z</time></trkpt><trkpt lat="43.437677290727635" lon="11.644068122843407"><ele>255.0</ele><time>2026-05-01T07:43:26.999Z</time></trkpt><trkpt lat="43.437671299690116" lon="11.643951769720477"><ele>254.50000000000003</ele><time>2026-05-01T07:43:27.999Z</time></trkpt><trkpt lat="43.43766938838257" lon="11.643835983917757"><ele>254.0</ele><time>2026-05-01T07:43:28.999Z</time></trkpt><trkpt lat="43.437669972192104" lon="11.643717764259748"><ele>253.16666666666669</ele><time>2026-05-01T07:43:29.999Z</time></trkpt><trkpt lat="43.437676039376655" lon="11.643601024689868"><ele>252.33333333333334</ele><time>2026-05-01T07:43:30.999Z</time></trkpt><trkpt lat="43.43768467534352" lon="11.643484170088845"><ele>251.5</ele><time>2026-05-01T07:43:31.999Z</time></trkpt><trkpt lat="43.43769779100513" lon="11.643367215040904"><ele>250.66666666666669</ele><time>2026-05-01T07:43:32.999Z</time></trkpt><trkpt lat="43.43771162415212" lon="11.643252335761781"><ele>249.83333333333334</ele><time>2026-05-01T07:43:33.999Z</time></trkpt><trkpt lat="43.437729188684905" lon="11.643138728085443"><ele>249.0</ele><time>2026-05-01T07:43:34.999Z</time></trkpt><trkpt lat="43.43775282910322" lon="11.643028580871503"><ele>249.0</ele><time>2026-05-01T07:43:35.999Z</time></trkpt><trkpt lat="43.43777661388907" lon="11.642922672656997"><ele>249.0</ele><time>2026-05-01T07:43:36.999Z</time></trkpt><trkpt lat="43.43779774936" lon="11.642817632662707"><ele>249.0</ele><time>2026-05-01T07:43:37.999Z</time></trkpt><trkpt lat="43.43782402841866" lon="11.642717579976084"><ele>249.0</ele><time>2026-05-01T07:43:38.999Z</time></trkpt><trkpt lat="43.43784904771233" lon="11.642616244184206"><ele>249.0</ele><time>2026-05-01T07:43:39.999Z</time></trkpt><trkpt lat="43.43787843808337" lon="11.6425161987847"><ele>249.0</ele><time>2026-05-01T07:43:40.999Z</time></trkpt><trkpt lat="43.437903691919374" lon="11.642414873924992"><ele>249.5</ele><time>2026-05-01T07:43:41.999Z</time></trkpt><trkpt lat="43.43793036748523" lon="11.642314759886169"><ele>250.0</ele><time>2026-05-01T07:43:42.999Z</time></trkpt><trkpt lat="43.43795502336096" lon="11.642212751110913"><ele>250.5</ele><time>2026-05-01T07:43:43.999Z</time></trkpt><trkpt lat="43.4379807174726" lon="11.642112368591386"><ele>251.0</ele><time>2026-05-01T07:43:44.999Z</time></trkpt><trkpt lat="43.43800675641518" lon="11.642010058609989"><ele>251.5</ele><time>2026-05-01T07:43:45.999Z</time></trkpt><trkpt lat="43.43803285292099" lon="11.64190883910426"><ele>252.0</ele><time>2026-05-01T07:43:46.999Z</time></trkpt><trkpt lat="43.43806001924475" lon="11.641806850111099"><ele>250.83333333333334</ele><time>2026-05-01T07:43:47.999Z</time></trkpt><trkpt lat="43.43808652685204" lon="11.641705002561508"><ele>249.66666666666669</ele><time>2026-05-01T07:43:48.999Z</time></trkpt><trkpt lat="43.43811367143945" lon="11.641601566532314"><ele>248.5</ele><time>2026-05-01T07:43:49.999Z</time></trkpt><trkpt lat="43.43813919897746" lon="11.641498156134917"><ele>247.33333333333334</ele><time>2026-05-01T07:43:50.999Z</time></trkpt><trkpt lat="43.438163913057174" lon="11.64139354166868"><ele>246.16666666666669</ele><time>2026-05-01T07:43:51.999Z</time></trkpt><trkpt lat="43.43818937088656" lon="11.641287498110037"><ele>245.0</ele><time>2026-05-01T07:43:52.999Z</time></trkpt><trkpt lat="43.438217821176494" lon="11.64118111360616"><ele>245.16666666666669</ele><time>2026-05-01T07:43:53.999Z</time></trkpt><trkpt lat="43.438244385213515" lon="11.641073631222735"><ele>245.33333333333334</ele><time>2026-05-01T07:43:54.999Z</time></trkpt><trkpt lat="43.438271645466756" lon="11.64096441227374"><ele>245.5</ele><time>2026-05-01T07:43:55.999Z</time></trkpt><trkpt lat="43.43829862566685" lon="11.640854333080329"><ele>245.66666666666669</ele><time>2026-05-01T07:43:56.998Z</time></trkpt><trkpt lat="43.43832873596065" lon="11.640745804913609"><ele>245.83333333333334</ele><time>2026-05-01T07:43:57.998Z</time></trkpt><trkpt lat="43.438356980961316" lon="11.64063655593688"><ele>246.0</ele><time>2026-05-01T07:43:58.998Z</time></trkpt><trkpt lat="43.43838406040882" lon="11.640526094577162"><ele>246.0</ele><time>2026-05-01T07:43:59.998Z</time></trkpt><trkpt lat="43.43841253596973" lon="11.640417739865732"><ele>246.0</ele><time>2026-05-01T07:44:00.998Z</time></trkpt><trkpt lat="43.43844141584113" lon="11.640308503673674"><ele>246.0</ele><time>2026-05-01T07:44:01.998Z</time></trkpt><trkpt lat="43.43847042418579" lon="11.64019852747395"><ele>246.0</ele><time>2026-05-01T07:44:02.998Z</time></trkpt><trkpt lat="43.43849963343372" lon="11.640089353226038"><ele>246.0</ele><time>2026-05-01T07:44:03.998Z</time></trkpt><trkpt lat="43.438527037979526" lon="11.63998322806223"><ele>246.0</ele><time>2026-05-01T07:44:04.998Z</time></trkpt><trkpt lat="43.438552933666685" lon="11.639879019704892"><ele>246.33333333333334</ele><time>2026-05-01T07:44:05.998Z</time></trkpt><trkpt lat="43.43857939691128" lon="11.639775286579178"><ele>246.66666666666669</ele><time>2026-05-01T07:44:06.998Z</time></trkpt><trkpt lat="43.43860608088681" lon="11.639673004775073"><ele>247.0</ele><time>2026-05-01T07:44:07.998Z</time></trkpt><trkpt lat="43.438631262650155" lon="11.63957172003369"><ele>247.33333333333334</ele><time>2026-05-01T07:44:08.998Z</time></trkpt><trkpt lat="43.43865770956889" lon="11.639472181801397"><ele>247.66666666666669</ele><time>2026-05-01T07:44:09.998Z</time></trkpt><trkpt lat="43.438683477895786" lon="11.63937631018994"><ele>248.0</ele><time>2026-05-01T07:44:10.998Z</time></trkpt><trkpt lat="43.4387092386892" lon="11.63927813912645"><ele>247.2857142857143</ele><time>2026-05-01T07:44:11.998Z</time></trkpt><trkpt lat="43.43873365190808" lon="11.639178560225593"><ele>246.5714285714286</ele><time>2026-05-01T07:44:12.998Z</time></trkpt><trkpt lat="43.43875827171129" lon="11.639081672558271"><ele>245.85714285714286</ele><time>2026-05-01T07:44:13.998Z</time></trkpt><trkpt lat="43.43878356652874" lon="11.63898683508529"><ele>245.14285714285717</ele><time>2026-05-01T07:44:14.998Z</time></trkpt><trkpt lat="43.43881043352107" lon="11.63889100661024"><ele>244.42857142857144</ele><time>2026-05-01T07:44:15.998Z</time></trkpt><trkpt lat="43.438836604045335" lon="11.638793483669453"><ele>243.71428571428572</ele><time>2026-05-01T07:44:16.998Z</time></trkpt><trkpt lat="43.438861200916726" lon="11.63869593944471"><ele>243.0</ele><time>2026-05-01T07:44:17.998Z</time></trkpt><trkpt lat="43.43888651481791" lon="11.638598120699005"><ele>243.0</ele><time>2026-05-01T07:44:18.998Z</time></trkpt><trkpt lat="43.43891404331413" lon="11.638502828842752"><ele>243.0</ele><time>2026-05-01T07:44:19.998Z</time></trkpt><trkpt lat="43.438941278122726" lon="11.638408184611437"><ele>243.0</ele><time>2026-05-01T07:44:20.998Z</time></trkpt><trkpt lat="43.43897050803912" lon="11.638315738363369"><ele>243.0</ele><time>2026-05-01T07:44:21.998Z</time></trkpt><trkpt lat="43.43900298943127" lon="11.638226492773807"><ele>243.0</ele><time>2026-05-01T07:44:22.998Z</time></trkpt><trkpt lat="43.43904021827304" lon="11.638139549788427"><ele>243.0</ele><time>2026-05-01T07:44:23.998Z</time></trkpt><trkpt lat="43.43907667418976" lon="11.638052672557945"><ele>243.0</ele><time>2026-05-01T07:44:24.998Z</time></trkpt><trkpt lat="43.43911814014796" lon="11.637971192061583"><ele>243.0</ele><time>2026-05-01T07:44:25.998Z</time></trkpt><trkpt lat="43.43915867242889" lon="11.637886570583985"><ele>243.0</ele><time>2026-05-01T07:44:26.998Z</time></trkpt><trkpt lat="43.43920120335871" lon="11.637806705446264"><ele>243.0</ele><time>2026-05-01T07:44:27.998Z</time></trkpt><trkpt lat="43.43924635140004" lon="11.637727661270286"><ele>243.0</ele><time>2026-05-01T07:44:28.998Z</time></trkpt><trkpt lat="43.43929090041982" lon="11.63765046606695"><ele>243.0</ele><time>2026-05-01T07:44:29.998Z</time></trkpt><trkpt lat="43.43933876386015" lon="11.637576535661372"><ele>243.0</ele><time>2026-05-01T07:44:30.998Z</time></trkpt><trkpt lat="43.43938589498566" lon="11.637505241638548"><ele>243.0</ele><time>2026-05-01T07:44:31.998Z</time></trkpt><trkpt lat="43.43943182151333" lon="11.637435788413017"><ele>243.0</ele><time>2026-05-01T07:44:32.998Z</time></trkpt><trkpt lat="43.439476991255795" lon="11.637366463505975"><ele>243.0</ele><time>2026-05-01T07:44:33.998Z</time></trkpt><trkpt lat="43.43952185536781" lon="11.637297457321456"><ele>243.0</ele><time>2026-05-01T07:44:35Z</time></trkpt><trkpt lat="43.4395646219401" lon="11.637226202201461"><ele>243.0</ele><time>2026-05-01T07:44:36Z</time></trkpt><trkpt lat="43.43961090430285" lon="11.637160531477333"><ele>243.0</ele><time>2026-05-01T07:44:37Z</time></trkpt><trkpt lat="43.4396568198448" lon="11.63709203572092"><ele>243.0</ele><time>2026-05-01T07:44:38Z</time></trkpt><trkpt lat="43.43970268903258" lon="11.637027552929002"><ele>243.0</ele><time>2026-05-01T07:44:39Z</time></trkpt><trkpt lat="43.439745101669395" lon="11.63695702747207"><ele>243.0</ele><time>2026-05-01T07:44:40Z</time></trkpt><trkpt lat="43.439786244408694" lon="11.63688920524933"><ele>243.0</ele><time>2026-05-01T07:44:41Z</time></trkpt><trkpt lat="43.43983111500403" lon="11.636822916765151"><ele>243.0</ele><time>2026-05-01T07:44:42Z</time></trkpt><trkpt lat="43.439874685175994" lon="11.636753163945349"><ele>243.0</ele><time>2026-05-01T07:44:43Z</time></trkpt><trkpt lat="43.439919115052255" lon="11.636684271372683"><ele>243.0</ele><time>2026-05-01T07:44:44Z</time></trkpt><trkpt lat="43.439963592086954" lon="11.636614950650792"><ele>243.0</ele><time>2026-05-01T07:44:45Z</time></trkpt><trkpt lat="43.44001088544377" lon="11.63654334869161"><ele>243.0</ele><time>2026-05-01T07:44:46Z</time></trkpt><trkpt lat="43.440057800660774" lon="11.636470162788207"><ele>243.0</ele><time>2026-05-01T07:44:47Z</time></trkpt><trkpt lat="43.44010459994146" lon="11.636398026188152"><ele>243.0</ele><time>2026-05-01T07:44:48Z</time></trkpt><trkpt lat="43.44015323706834" lon="11.636329388707109"><ele>243.0</ele><time>2026-05-01T07:44:49Z</time></trkpt><trkpt lat="43.44020065174763" lon="11.636256276549135"><ele>243.0</ele><time>2026-05-01T07:44:50Z</time></trkpt><trkpt lat="43.440244628980444" lon="11.636181877172982"><ele>243.0</ele><time>2026-05-01T07:44:51Z</time></trkpt><trkpt lat="43.440291717876825" lon="11.636112463172877"><ele>243.0</ele><time>2026-05-01T07:44:52Z</time></trkpt><trkpt lat="43.440339210734074" lon="11.636043449196407"><ele>243.0</ele><time>2026-05-01T07:44:53Z</time></trkpt><trkpt lat="43.440385904210274" lon="11.635973204470597"><ele>243.0</ele><time>2026-05-01T07:44:54Z</time></trkpt><trkpt lat="43.440431863467694" lon="11.635902851347"><ele>243.0</ele><time>2026-05-01T07:44:55Z</time></trkpt><trkpt lat="43.440476888922184" lon="11.635833159702376"><ele>243.0</ele><time>2026-05-01T07:44:56Z</time></trkpt><trkpt lat="43.440523652020644" lon="11.635761714884206"><ele>243.0</ele><time>2026-05-01T07:44:57Z</time></trkpt><trkpt lat="43.440570667754294" lon="11.63569325174079"><ele>243.0</ele><time>2026-05-01T07:44:58Z</time></trkpt><trkpt lat="43.440619686403146" lon="11.635623119194577"><ele>243.0</ele><time>2026-05-01T07:44:59Z</time></trkpt><trkpt lat="43.44066973427934" lon="11.635557515138728"><ele>243.0</ele><time>2026-05-01T07:45:00Z</time></trkpt><trkpt lat="43.44072207949824" lon="11.635486302865623"><ele>243.0</ele><time>2026-05-01T07:45:01Z</time></trkpt><trkpt lat="43.44077462925195" lon="11.635417522950704"><ele>243.0</ele><time>2026-05-01T07:45:02Z</time></trkpt><trkpt lat="43.44083090530668" lon="11.635345765059176"><ele>243.0</ele><time>2026-05-01T07:45:03Z</time></trkpt><trkpt lat="43.44088572282164" lon="11.635275999991551"><ele>243.0</ele><time>2026-05-01T07:45:04Z</time></trkpt><trkpt lat="43.440943175854386" lon="11.635204576927258"><ele>243.0</ele><time>2026-05-01T07:45:05Z</time></trkpt><trkpt lat="43.44100039058328" lon="11.635139633252761"><ele>243.0</ele><time>2026-05-01T07:45:06Z</time></trkpt><trkpt lat="43.44105935595628" lon="11.635069144362111"><ele>243.5</ele><time>2026-05-01T07:45:07Z</time></trkpt><trkpt lat="43.441119257537686" lon="11.635004375734464"><ele>244.0</ele><time>2026-05-01T07:45:08Z</time></trkpt><trkpt lat="43.44118228003546" lon="11.634937107049756"><ele>244.5</ele><time>2026-05-01T07:45:09Z</time></trkpt><trkpt lat="43.44124178872375" lon="11.634872587666159"><ele>245.0</ele><time>2026-05-01T07:45:10Z</time></trkpt><trkpt lat="43.44130685010254" lon="11.634809894569898"><ele>245.5</ele><time>2026-05-01T07:45:11Z</time></trkpt><trkpt lat="43.44137123806456" lon="11.634747757417781"><ele>246.0</ele><time>2026-05-01T07:45:12Z</time></trkpt><trkpt lat="43.4414377026638" lon="11.63469458889262"><ele>244.60000000000002</ele><time>2026-05-01T07:45:13Z</time></trkpt><trkpt lat="43.44150529817341" lon="11.634650153405708"><ele>243.20000000000002</ele><time>2026-05-01T07:45:13.999Z</time></trkpt><trkpt lat="43.44156657683813" lon="11.634609725014794"><ele>241.79999999999998</ele><time>2026-05-01T07:45:14.999Z</time></trkpt><trkpt lat="43.441624415873136" lon="11.634572553006683"><ele>240.39999999999998</ele><time>2026-05-01T07:45:15.999Z</time></trkpt><trkpt lat="43.44173333823086" lon="11.634493379483947"><ele>239.0</ele><time>2026-05-01T07:45:17.999Z</time></trkpt><trkpt lat="43.441843194717805" lon="11.63442245967116"><ele>239.0</ele><time>2026-05-01T07:45:19.999Z</time></trkpt><trkpt lat="43.44195012523555" lon="11.634345701248902"><ele>238.99999999999997</ele><time>2026-05-01T07:45:21.999Z</time></trkpt><trkpt lat="43.44205866989253" lon="11.63426376399"><ele>238.99999999999997</ele><time>2026-05-01T07:45:23.999Z</time></trkpt><trkpt lat="43.442111752786104" lon="11.634212719922834"><ele>239.0</ele><time>2026-05-01T07:45:24.999Z</time></trkpt><trkpt lat="43.44220851208181" lon="11.634095799765953"><ele>239.0</ele><time>2026-05-01T07:45:26.999Z</time></trkpt><trkpt lat="43.44225434302194" lon="11.634030955534403"><ele>239.00000000000003</ele><time>2026-05-01T07:45:27.999Z</time></trkpt><trkpt lat="43.442293886505134" lon="11.633958513803849"><ele>239.0</ele><time>2026-05-01T07:45:28.999Z</time></trkpt><trkpt lat="43.44232997438985" lon="11.633887381717757"><ele>239.00000000000003</ele><time>2026-05-01T07:45:29.999Z</time></trkpt><trkpt lat="43.442362924466956" lon="11.6338084283453"><ele>239.00000000000003</ele><time>2026-05-01T07:45:30.999Z</time></trkpt><trkpt lat="43.4423905198027" lon="11.633729363045113"><ele>239.0</ele><time>2026-05-01T07:45:31.999Z</time></trkpt><trkpt lat="43.442437125752186" lon="11.633570787289267"><ele>239.00000000000003</ele><time>2026-05-01T07:45:33.999Z</time></trkpt><trkpt lat="43.44245570063265" lon="11.63348756108687"><ele>239.00000000000003</ele><time>2026-05-01T07:45:34.999Z</time></trkpt><trkpt lat="43.44248064926533" lon="11.633319082303858"><ele>239.0</ele><time>2026-05-01T07:45:36.999Z</time></trkpt><trkpt lat="43.44248719212586" lon="11.633149406321584"><ele>238.99999999999997</ele><time>2026-05-01T07:45:38.999Z</time></trkpt><trkpt lat="43.44247648660177" lon="11.632977952780788"><ele>238.99999999999997</ele><time>2026-05-01T07:45:40.999Z</time></trkpt><trkpt lat="43.442464230617176" lon="11.632888317110943"><ele>239.0</ele><time>2026-05-01T07:45:41.999Z</time></trkpt><trkpt lat="43.44243525830941" lon="11.632718592841687"><ele>239.0</ele><time>2026-05-01T07:45:43.999Z</time></trkpt><trkpt lat="43.44241412068582" lon="11.632630520651766"><ele>239.00000000000003</ele><time>2026-05-01T07:45:44.999Z</time></trkpt><trkpt lat="43.442395620847556" lon="11.632542622167522"><ele>239.0</ele><time>2026-05-01T07:45:45.999Z</time></trkpt><trkpt lat="43.44237817070534" lon="11.632450865258896"><ele>239.00000000000003</ele><time>2026-05-01T07:45:46.999Z</time></trkpt><trkpt lat="43.442362680827415" lon="11.632361599267119"><ele>239.00000000000003</ele><time>2026-05-01T07:45:47.999Z</time></trkpt><trkpt lat="43.442346314599696" lon="11.632270403244132"><ele>239.0</ele><time>2026-05-01T07:45:48.999Z</time></trkpt><trkpt lat="43.44233267500751" lon="11.632175932572565"><ele>239.00000000000003</ele><time>2026-05-01T07:45:49.999Z</time></trkpt><trkpt lat="43.442325313006705" lon="11.6320771874788"><ele>239.00000000000003</ele><time>2026-05-01T07:45:50.999Z</time></trkpt><trkpt lat="43.44231944190127" lon="11.631977613091706"><ele>238.5714285714286</ele><time>2026-05-01T07:45:51.999Z</time></trkpt><trkpt lat="43.44231621972764" lon="11.631876635755287"><ele>238.14285714285717</ele><time>2026-05-01T07:45:52.999Z</time></trkpt><trkpt lat="43.44231718689122" lon="11.631778112851752"><ele>237.71428571428572</ele><time>2026-05-01T07:45:53.999Z</time></trkpt><trkpt lat="43.44232407632358" lon="11.631677034136962"><ele>237.2857142857143</ele><time>2026-05-01T07:45:54.999Z</time></trkpt><trkpt lat="43.44233597249497" lon="11.63157872543574"><ele>236.8571428571429</ele><time>2026-05-01T07:45:55.999Z</time></trkpt><trkpt lat="43.44235404980992" lon="11.631482749668606"><ele>236.42857142857142</ele><time>2026-05-01T07:45:56.999Z</time></trkpt><trkpt lat="43.442374384698574" lon="11.63138576747529"><ele>236.0</ele><time>2026-05-01T07:45:57.999Z</time></trkpt><trkpt lat="43.442394091293096" lon="11.631291734480488"><ele>236.00000000000003</ele><time>2026-05-01T07:45:58.999Z</time></trkpt><trkpt lat="43.44242043311687" lon="11.631203065107295"><ele>236.0</ele><time>2026-05-01T07:45:59.999Z</time></trkpt><trkpt lat="43.44245160018909" lon="11.631121454578794"><ele>236.0</ele><time>2026-05-01T07:46:00.999Z</time></trkpt><trkpt lat="43.4424811122627" lon="11.631039802052479"><ele>236.0</ele><time>2026-05-01T07:46:01.998Z</time></trkpt><trkpt lat="43.44254017212411" lon="11.630897296607955"><ele>236.00000000000003</ele><time>2026-05-01T07:46:03.998Z</time></trkpt><trkpt lat="43.44260740057142" lon="11.63078585408591"><ele>236.0</ele><time>2026-05-01T07:46:05.998Z</time></trkpt><trkpt lat="43.44269117263793" lon="11.630687639619932"><ele>236.0</ele><time>2026-05-01T07:46:07.998Z</time></trkpt><trkpt lat="43.44277622673746" lon="11.630602698647607"><ele>236.00000000000003</ele><time>2026-05-01T07:46:09.998Z</time></trkpt><trkpt lat="43.44286105848488" lon="11.630520190124445"><ele>236.00000000000003</ele><time>2026-05-01T07:46:11.998Z</time></trkpt><trkpt lat="43.44294331484124" lon="11.630439807862388"><ele>236.0</ele><time>2026-05-01T07:46:13.998Z</time></trkpt><trkpt lat="43.443031295944316" lon="11.630370976469585"><ele>236.0</ele><time>2026-05-01T07:46:15.998Z</time></trkpt><trkpt lat="43.44311580398282" lon="11.630294284194699"><ele>236.8</ele><time>2026-05-01T07:46:17.998Z</time></trkpt><trkpt lat="43.44319822192237" lon="11.630220587973307"><ele>237.60000000000002</ele><time>2026-05-01T07:46:19.998Z</time></trkpt><trkpt lat="43.443278057821246" lon="11.630139044310326"><ele>238.4</ele><time>2026-05-01T07:46:21.998Z</time></trkpt><trkpt lat="43.44336203365869" lon="11.630061235082811"><ele>239.2</ele><time>2026-05-01T07:46:23.998Z</time></trkpt><trkpt lat="43.44344080240106" lon="11.629988024562671"><ele>240.0</ele><time>2026-05-01T07:46:25.998Z</time></trkpt><trkpt lat="43.44352349191919" lon="11.629912312590639"><ele>240.0</ele><time>2026-05-01T07:46:27.998Z</time></trkpt><trkpt lat="43.44360995236319" lon="11.629832848452141"><ele>240.0</ele><time>2026-05-01T07:46:29.998Z</time></trkpt><trkpt lat="43.44369520615579" lon="11.629751817144248"><ele>240.0</ele><time>2026-05-01T07:46:31.998Z</time></trkpt><trkpt lat="43.443784515282736" lon="11.629672550970048"><ele>240.0</ele><time>2026-05-01T07:46:33.998Z</time></trkpt><trkpt lat="43.443878569636645" lon="11.629584571075716"><ele>240.0</ele><time>2026-05-01T07:46:35.998Z</time></trkpt><trkpt lat="43.44398245666393" lon="11.629497211530916"><ele>239.57142857142858</ele><time>2026-05-01T07:46:37.998Z</time></trkpt><trkpt lat="43.44403497673283" lon="11.629447691521081"><ele>239.1428571428571</ele><time>2026-05-01T07:46:38.998Z</time></trkpt><trkpt lat="43.44408904252763" lon="11.629400195013606"><ele>238.7142857142857</ele><time>2026-05-01T07:46:39.998Z</time></trkpt><trkpt lat="43.444145035047335" lon="11.629340548007281"><ele>238.28571428571428</ele><time>2026-05-01T07:46:41Z</time></trkpt><trkpt lat="43.444202040489174" lon="11.629281432728092"><ele>237.85714285714283</ele><time>2026-05-01T07:46:42Z</time></trkpt><trkpt lat="43.444260492736504" lon="11.629226886143012"><ele>237.4285714285714</ele><time>2026-05-01T07:46:43Z</time></trkpt><trkpt lat="43.44432217151836" lon="11.62917115828136"><ele>236.99999999999997</ele><time>2026-05-01T07:46:44Z</time></trkpt><trkpt lat="43.44438348615208" lon="11.62910982920758"><ele>237.0</ele><time>2026-05-01T07:46:45Z</time></trkpt><trkpt lat="43.444442874311335" lon="11.62904985233008"><ele>237.0</ele><time>2026-05-01T07:46:46Z</time></trkpt><trkpt lat="43.44450142777177" lon="11.628984219668814"><ele>237.0</ele><time>2026-05-01T07:46:47Z</time></trkpt><trkpt lat="43.44455069245497" lon="11.628907146569354"><ele>237.0</ele><time>2026-05-01T07:46:48Z</time></trkpt><trkpt lat="43.4445932347358" lon="11.628817972674806"><ele>237.0</ele><time>2026-05-01T07:46:49Z</time></trkpt><trkpt lat="43.44463604801013" lon="11.628732554914535"><ele>237.0</ele><time>2026-05-01T07:46:50Z</time></trkpt><trkpt lat="43.4446697428484" lon="11.628642422629007"><ele>237.83333333333334</ele><time>2026-05-01T07:46:51Z</time></trkpt><trkpt lat="43.44470065207283" lon="11.628548629752377"><ele>238.66666666666669</ele><time>2026-05-01T07:46:52Z</time></trkpt><trkpt lat="43.444723091539906" lon="11.628448333600163"><ele>239.5</ele><time>2026-05-01T07:46:53Z</time></trkpt><trkpt lat="43.44474320277158" lon="11.628350003943574"><ele>240.33333333333334</ele><time>2026-05-01T07:46:54Z</time></trkpt><trkpt lat="43.44475892322054" lon="11.628249657803847"><ele>241.16666666666669</ele><time>2026-05-01T07:46:55Z</time></trkpt><trkpt lat="43.444758232445565" lon="11.628140491345786"><ele>242.0</ele><time>2026-05-01T07:46:56Z</time></trkpt><trkpt lat="43.44475158555069" lon="11.62802960354909"><ele>242.00000000000003</ele><time>2026-05-01T07:46:57Z</time></trkpt><trkpt lat="43.44475040326653" lon="11.627919011326274"><ele>242.0</ele><time>2026-05-01T07:46:58Z</time></trkpt><trkpt lat="43.4447402309744" lon="11.627807862657324"><ele>242.0</ele><time>2026-05-01T07:46:59Z</time></trkpt><trkpt lat="43.44471687447277" lon="11.627701936505263"><ele>242.0</ele><time>2026-05-01T07:47:00Z</time></trkpt><trkpt lat="43.444698413498436" lon="11.627599325283265"><ele>242.00000000000003</ele><time>2026-05-01T07:47:01Z</time></trkpt><trkpt lat="43.444667616874405" lon="11.627499783369581"><ele>242.0</ele><time>2026-05-01T07:47:02Z</time></trkpt><trkpt lat="43.44462941665935" lon="11.627404647379032"><ele>240.33333333333334</ele><time>2026-05-01T07:47:03Z</time></trkpt><trkpt lat="43.44458559038339" lon="11.627306849237739"><ele>238.66666666666669</ele><time>2026-05-01T07:47:04Z</time></trkpt><trkpt lat="43.44454977719415" lon="11.627213263223084"><ele>237.0</ele><time>2026-05-01T07:47:05Z</time></trkpt><trkpt lat="43.44451127444824" lon="11.62712126039248"><ele>235.33333333333331</ele><time>2026-05-01T07:47:06Z</time></trkpt><trkpt lat="43.44447227822648" lon="11.62704134313562"><ele>233.66666666666666</ele><time>2026-05-01T07:47:07Z</time></trkpt><trkpt lat="43.444439997347" lon="11.626949864550603"><ele>232.0</ele><time>2026-05-01T07:47:08Z</time></trkpt><trkpt lat="43.44440451145041" lon="11.62686531067553"><ele>231.8571428571429</ele><time>2026-05-01T07:47:09Z</time></trkpt><trkpt lat="43.4443709190602" lon="11.626780548152398"><ele>231.71428571428572</ele><time>2026-05-01T07:47:10Z</time></trkpt><trkpt lat="43.4443367933082" lon="11.626698740550376"><ele>231.57142857142858</ele><time>2026-05-01T07:47:11Z</time></trkpt><trkpt lat="43.44430234159995" lon="11.626619479128559"><ele>231.42857142857144</ele><time>2026-05-01T07:47:12Z</time></trkpt><trkpt lat="43.444270840729686" lon="11.626542084793035"><ele>231.28571428571428</ele><time>2026-05-01T07:47:13Z</time></trkpt><trkpt lat="43.44424390167676" lon="11.626463141127235"><ele>231.14285714285714</ele><time>2026-05-01T07:47:14Z</time></trkpt><trkpt lat="43.44420843120555" lon="11.626383223515415"><ele>231.0</ele><time>2026-05-01T07:47:15Z</time></trkpt><trkpt lat="43.444178763588546" lon="11.626302575447815"><ele>231.0</ele><time>2026-05-01T07:47:15.999Z</time></trkpt><trkpt lat="43.44414470042261" lon="11.626224873120213"><ele>231.0</ele><time>2026-05-01T07:47:16.999Z</time></trkpt><trkpt lat="43.44410974091735" lon="11.62614643257099"><ele>231.0</ele><time>2026-05-01T07:47:17.999Z</time></trkpt><trkpt lat="43.44407871165444" lon="11.626067356869022"><ele>231.0</ele><time>2026-05-01T07:47:18.999Z</time></trkpt><trkpt lat="43.44404743182796" lon="11.625986026864604"><ele>231.0</ele><time>2026-05-01T07:47:19.999Z</time></trkpt><trkpt lat="43.44401509261245" lon="11.625904780533768"><ele>231.0</ele><time>2026-05-01T07:47:20.999Z</time></trkpt><trkpt lat="43.44398240821937" lon="11.625825849780762"><ele>231.0</ele><time>2026-05-01T07:47:21.999Z</time></trkpt><trkpt lat="43.443951140849755" lon="11.625747762126428"><ele>231.33333333333334</ele><time>2026-05-01T07:47:22.999Z</time></trkpt><trkpt lat="43.44391881865574" lon="11.62567265748587"><ele>231.66666666666669</ele><time>2026-05-01T07:47:23.999Z</time></trkpt><trkpt lat="43.44388781722351" lon="11.625593960244448"><ele>232.0</ele><time>2026-05-01T07:47:24.999Z</time></trkpt><trkpt lat="43.44382909929184" lon="11.625443397036992"><ele>232.33333333333334</ele><time>2026-05-01T07:47:26.999Z</time></trkpt><trkpt lat="43.44379680212939" lon="11.625368176068715"><ele>232.66666666666669</ele><time>2026-05-01T07:47:27.999Z</time></trkpt><trkpt lat="43.44373724172909" lon="11.625216801047271"><ele>233.0</ele><time>2026-05-01T07:47:29.999Z</time></trkpt><trkpt lat="43.443675994637" lon="11.62507057568383"><ele>233.0</ele><time>2026-05-01T07:47:31.999Z</time></trkpt><trkpt lat="43.44361735423927" lon="11.624926734280601"><ele>233.0</ele><time>2026-05-01T07:47:33.999Z</time></trkpt><trkpt lat="43.44355935216412" lon="11.624783263085147"><ele>233.0</ele><time>2026-05-01T07:47:35.999Z</time></trkpt><trkpt lat="43.443491969499476" lon="11.62463886338455"><ele>233.0</ele><time>2026-05-01T07:47:37.999Z</time></trkpt><trkpt lat="43.4434207120249" lon="11.624493356701352"><ele>233.16666666666669</ele><time>2026-05-01T07:47:39.999Z</time></trkpt><trkpt lat="43.443381380687164" lon="11.624422072295463"><ele>233.33333333333334</ele><time>2026-05-01T07:47:40.999Z</time></trkpt><trkpt lat="43.443306775868194" lon="11.624284386910592"><ele>233.5</ele><time>2026-05-01T07:47:42.999Z</time></trkpt><trkpt lat="43.44326246328831" lon="11.62420866521141"><ele>233.66666666666669</ele><time>2026-05-01T07:47:43.999Z</time></trkpt><trkpt lat="43.44322695111264" lon="11.624126855036574"><ele>233.83333333333334</ele><time>2026-05-01T07:47:44.999Z</time></trkpt><trkpt lat="43.44318712419916" lon="11.624058676380546"><ele>234.0</ele><time>2026-05-01T07:47:45.999Z</time></trkpt><trkpt lat="43.443110815673" lon="11.6239163537309"><ele>234.0</ele><time>2026-05-01T07:47:47.999Z</time></trkpt><trkpt lat="43.443070165561544" lon="11.623848344301202"><ele>234.00000000000003</ele><time>2026-05-01T07:47:48.999Z</time></trkpt><trkpt lat="43.44302963922654" lon="11.623772839755354"><ele>234.0</ele><time>2026-05-01T07:47:49.999Z</time></trkpt><trkpt lat="43.442993439488504" lon="11.623698550856897"><ele>234.0</ele><time>2026-05-01T07:47:50.999Z</time></trkpt><trkpt lat="43.442955667971624" lon="11.62362530437861"><ele>234.00000000000003</ele><time>2026-05-01T07:47:51.999Z</time></trkpt><trkpt lat="43.44291606048158" lon="11.623554074867332"><ele>234.0</ele><time>2026-05-01T07:47:52.999Z</time></trkpt><trkpt lat="43.44287427684511" lon="11.623484414913488"><ele>234.0</ele><time>2026-05-01T07:47:53.999Z</time></trkpt><trkpt lat="43.44283252656236" lon="11.62341573950188"><ele>234.39999999999998</ele><time>2026-05-01T07:47:54.999Z</time></trkpt><trkpt lat="43.442797260619294" lon="11.623342046503431"><ele>234.79999999999998</ele><time>2026-05-01T07:47:55.999Z</time></trkpt><trkpt lat="43.442722393369955" lon="11.623206819074005"><ele>235.20000000000002</ele><time>2026-05-01T07:47:57.999Z</time></trkpt><trkpt lat="43.4426850238507" lon="11.623135937739473"><ele>235.60000000000002</ele><time>2026-05-01T07:47:58.999Z</time></trkpt><trkpt lat="43.44261560642329" lon="11.623003844266883"><ele>236.0</ele><time>2026-05-01T07:48:00.999Z</time></trkpt><trkpt lat="43.442547532104065" lon="11.622880892934857"><ele>235.20000000000002</ele><time>2026-05-01T07:48:02.998Z</time></trkpt><trkpt lat="43.44248130884094" lon="11.622760323436093"><ele>234.40000000000003</ele><time>2026-05-01T07:48:04.998Z</time></trkpt><trkpt lat="43.44241414107666" lon="11.622642514215734"><ele>233.6</ele><time>2026-05-01T07:48:06.998Z</time></trkpt><trkpt lat="43.44237959481234" lon="11.622508206609384"><ele>232.8</ele><time>2026-05-01T07:48:08.998Z</time></trkpt><trkpt lat="43.44236181352837" lon="11.622392015213453"><ele>232.0</ele><time>2026-05-01T07:48:10.998Z</time></trkpt><trkpt lat="43.442474655708374" lon="11.622290200946727"><ele>231.99999999999997</ele><time>2026-05-01T07:48:12.998Z</time></trkpt><trkpt lat="43.44255764741819" lon="11.622252803354565"><ele>232.0</ele><time>2026-05-01T07:48:14.998Z</time></trkpt><trkpt lat="43.44264794722636" lon="11.622234791540071"><ele>232.0</ele><time>2026-05-01T07:48:16.998Z</time></trkpt><trkpt lat="43.4427364036368" lon="11.622221643579264"><ele>232.0</ele><time>2026-05-01T07:48:18.998Z</time></trkpt><trkpt lat="43.44282145331469" lon="11.622204890133535"><ele>231.99999999999997</ele><time>2026-05-01T07:48:20.998Z</time></trkpt><trkpt lat="43.442909064117295" lon="11.62218626611891"><ele>232.0</ele><time>2026-05-01T07:48:22.998Z</time></trkpt><trkpt lat="43.442994298848966" lon="11.622170213256153"><ele>232.49999999999997</ele><time>2026-05-01T07:48:24.998Z</time></trkpt><trkpt lat="43.44307633275763" lon="11.622158343519667"><ele>233.0</ele><time>2026-05-01T07:48:26.998Z</time></trkpt><trkpt lat="43.44316235506872" lon="11.622141313996476"><ele>233.5</ele><time>2026-05-01T07:48:28.998Z</time></trkpt><trkpt lat="43.443250405602726" lon="11.622125327125774"><ele>234.0</ele><time>2026-05-01T07:48:30.998Z</time></trkpt><trkpt lat="43.44333165160352" lon="11.622094573134792"><ele>234.49999999999997</ele><time>2026-05-01T07:48:32.998Z</time></trkpt><trkpt lat="43.44340750916871" lon="11.62204714142356"><ele>235.0</ele><time>2026-05-01T07:48:34.998Z</time></trkpt><trkpt lat="43.44347514334899" lon="11.621983300293305"><ele>234.66666666666666</ele><time>2026-05-01T07:48:36.998Z</time></trkpt><trkpt lat="43.44353803718302" lon="11.62192758083292"><ele>234.33333333333331</ele><time>2026-05-01T07:48:38.998Z</time></trkpt><trkpt lat="43.44359984463645" lon="11.6218753890423"><ele>234.0</ele><time>2026-05-01T07:48:40.998Z</time></trkpt><trkpt lat="43.443656190183546" lon="11.62182087153631"><ele>233.66666666666669</ele><time>2026-05-01T07:48:42.998Z</time></trkpt><trkpt lat="43.44370686667419" lon="11.621767467466878"><ele>233.33333333333334</ele><time>2026-05-01T07:48:44.998Z</time></trkpt><trkpt lat="43.44378149103412" lon="11.621697127114981"><ele>233.0</ele><time>2026-05-01T07:48:48Z</time></trkpt><trkpt lat="43.44384650982793" lon="11.621625886274586"><ele>233.71428571428572</ele><time>2026-05-01T07:48:51Z</time></trkpt><trkpt lat="43.44390157365415" lon="11.621558056149567"><ele>234.42857142857142</ele><time>2026-05-01T07:48:54Z</time></trkpt><trkpt lat="43.443957585304894" lon="11.621481353209044"><ele>235.14285714285714</ele><time>2026-05-01T07:48:57Z</time></trkpt><trkpt lat="43.44402180554123" lon="11.62142059964289"><ele>235.85714285714286</ele><time>2026-05-01T07:49:00Z</time></trkpt><trkpt lat="43.4440787375975" lon="11.62135816391673"><ele>236.57142857142856</ele><time>2026-05-01T07:49:03Z</time></trkpt><trkpt lat="43.44413481659222" lon="11.621302155395611"><ele>237.28571428571428</ele><time>2026-05-01T07:49:06Z</time></trkpt><trkpt lat="43.444194407660085" lon="11.621245532403465"><ele>238.0</ele><time>2026-05-01T07:49:09Z</time></trkpt><trkpt lat="43.444251260737154" lon="11.621178981764643"><ele>238.14285714285714</ele><time>2026-05-01T07:49:12Z</time></trkpt><trkpt lat="43.44430668676517" lon="11.62111562049962"><ele>238.28571428571428</ele><time>2026-05-01T07:49:15Z</time></trkpt><trkpt lat="43.444365707649645" lon="11.621064030055734"><ele>238.42857142857144</ele><time>2026-05-01T07:49:18Z</time></trkpt><trkpt lat="43.44442278778721" lon="11.621005691558366"><ele>238.57142857142858</ele><time>2026-05-01T07:49:21Z</time></trkpt><trkpt lat="43.44448181616984" lon="11.620946696492737"><ele>238.71428571428572</ele><time>2026-05-01T07:49:24Z</time></trkpt><trkpt lat="43.44454517135674" lon="11.620884937085714"><ele>238.8571428571429</ele><time>2026-05-01T07:49:26.999Z</time></trkpt><trkpt lat="43.44460802307115" lon="11.620819578348755"><ele>239.00000000000003</ele><time>2026-05-01T07:49:29.999Z</time></trkpt><trkpt lat="43.444673362310745" lon="11.620750525001815"><ele>240.33333333333334</ele><time>2026-05-01T07:49:32.999Z</time></trkpt><trkpt lat="43.44473855546939" lon="11.620687513619574"><ele>241.66666666666669</ele><time>2026-05-01T07:49:35.999Z</time></trkpt><trkpt lat="43.44480789472339" lon="11.620616455379917"><ele>243.0</ele><time>2026-05-01T07:49:38.999Z</time></trkpt><trkpt lat="43.44487443984803" lon="11.620547689060002"><ele>244.33333333333331</ele><time>2026-05-01T07:49:41.999Z</time></trkpt><trkpt lat="43.444948360289466" lon="11.620480897164285"><ele>245.66666666666666</ele><time>2026-05-01T07:49:44.999Z</time></trkpt><trkpt lat="43.44502058308222" lon="11.620404438905663"><ele>247.0</ele><time>2026-05-01T07:49:47.999Z</time></trkpt><trkpt lat="43.44507047872765" lon="11.62034699592578"><ele>246.83333333333331</ele><time>2026-05-01T07:49:49.999Z</time></trkpt><trkpt lat="43.4451345960537" lon="11.620293219259715"><ele>246.66666666666666</ele><time>2026-05-01T07:49:51.999Z</time></trkpt><trkpt lat="43.445197467149946" lon="11.620227909752439"><ele>246.5</ele><time>2026-05-01T07:49:53.999Z</time></trkpt><trkpt lat="43.445264497519084" lon="11.620163064365443"><ele>246.33333333333331</ele><time>2026-05-01T07:49:55.999Z</time></trkpt><trkpt lat="43.44533555832504" lon="11.62008303129654"><ele>246.16666666666666</ele><time>2026-05-01T07:49:57.999Z</time></trkpt><trkpt lat="43.445411864824955" lon="11.620011502282411"><ele>246.0</ele><time>2026-05-01T07:49:59.999Z</time></trkpt><trkpt lat="43.4454952736287" lon="11.619936821304133"><ele>246.0</ele><time>2026-05-01T07:50:01.999Z</time></trkpt><trkpt lat="43.44558049284684" lon="11.619848928766789"><ele>246.00000000000003</ele><time>2026-05-01T07:50:03.999Z</time></trkpt><trkpt lat="43.44566829686788" lon="11.619766195951632"><ele>246.00000000000003</ele><time>2026-05-01T07:50:05.999Z</time></trkpt><trkpt lat="43.445755131204" lon="11.619680718318843"><ele>246.0</ele><time>2026-05-01T07:50:07.999Z</time></trkpt><trkpt lat="43.44583656962403" lon="11.619596428031889"><ele>246.0</ele><time>2026-05-01T07:50:09.999Z</time></trkpt><trkpt lat="43.44592246708579" lon="11.619518826594295"><ele>244.5</ele><time>2026-05-01T07:50:11.999Z</time></trkpt><trkpt lat="43.44600882343678" lon="11.619433041674732"><ele>243.0</ele><time>2026-05-01T07:50:13.998Z</time></trkpt><trkpt lat="43.44609668018902" lon="11.619334800887316"><ele>241.5</ele><time>2026-05-01T07:50:15.998Z</time></trkpt><trkpt lat="43.44618836239461" lon="11.61924042333461"><ele>240.0</ele><time>2026-05-01T07:50:17.998Z</time></trkpt><trkpt lat="43.44629056357096" lon="11.619146489631962"><ele>240.0</ele><time>2026-05-01T07:50:19.998Z</time></trkpt><trkpt lat="43.4463417631998" lon="11.61908794495051"><ele>240.0</ele><time>2026-05-01T07:50:20.998Z</time></trkpt><trkpt lat="43.44644433565679" lon="11.618982561445076"><ele>240.0</ele><time>2026-05-01T07:50:22.998Z</time></trkpt><trkpt lat="43.4465465258991" lon="11.618878529776998"><ele>240.0</ele><time>2026-05-01T07:50:24.998Z</time></trkpt><trkpt lat="43.4466000907678" lon="11.618823535482843"><ele>240.0</ele><time>2026-05-01T07:50:25.998Z</time></trkpt><trkpt lat="43.44665219592736" lon="11.618772982063271"><ele>240.0</ele><time>2026-05-01T07:50:26.998Z</time></trkpt><trkpt lat="43.44670745310479" lon="11.618719034451185"><ele>240.0</ele><time>2026-05-01T07:50:27.998Z</time></trkpt><trkpt lat="43.44676254818709" lon="11.61866635261446"><ele>240.0</ele><time>2026-05-01T07:50:28.998Z</time></trkpt><trkpt lat="43.44681721542585" lon="11.618610813073216"><ele>240.0</ele><time>2026-05-01T07:50:29.998Z</time></trkpt><trkpt lat="43.44687099083527" lon="11.61855857601777"><ele>240.0</ele><time>2026-05-01T07:50:30.998Z</time></trkpt><trkpt lat="43.44692576660653" lon="11.618502324179945"><ele>240.0</ele><time>2026-05-01T07:50:31.998Z</time></trkpt><trkpt lat="43.44697913073723" lon="11.6184546002361"><ele>240.0</ele><time>2026-05-01T07:50:32.998Z</time></trkpt><trkpt lat="43.44703170540303" lon="11.618404793317417"><ele>239.71428571428572</ele><time>2026-05-01T07:50:33.998Z</time></trkpt><trkpt lat="43.447082181086365" lon="11.618348042395322"><ele>239.42857142857142</ele><time>2026-05-01T07:50:34.998Z</time></trkpt><trkpt lat="43.447135060632796" lon="11.618293096819032"><ele>239.14285714285714</ele><time>2026-05-01T07:50:35.998Z</time></trkpt><trkpt lat="43.4471900373053" lon="11.61824164229308"><ele>238.85714285714286</ele><time>2026-05-01T07:50:36.998Z</time></trkpt><trkpt lat="43.44724284531001" lon="11.61819015099264"><ele>238.57142857142856</ele><time>2026-05-01T07:50:37.998Z</time></trkpt><trkpt lat="43.44729672331459" lon="11.618139753748716"><ele>238.28571428571428</ele><time>2026-05-01T07:50:38.998Z</time></trkpt><trkpt lat="43.44735202825573" lon="11.618088201581388"><ele>238.0</ele><time>2026-05-01T07:50:39.998Z</time></trkpt><trkpt lat="43.447407298254184" lon="11.618034878813294"><ele>237.85714285714286</ele><time>2026-05-01T07:50:40.998Z</time></trkpt><trkpt lat="43.44746212660824" lon="11.617981506743838"><ele>237.71428571428572</ele><time>2026-05-01T07:50:41.998Z</time></trkpt><trkpt lat="43.4475183712341" lon="11.617926065221491"><ele>237.57142857142856</ele><time>2026-05-01T07:50:42.998Z</time></trkpt><trkpt lat="43.44757620962903" lon="11.617869955940213"><ele>237.42857142857142</ele><time>2026-05-01T07:50:43.998Z</time></trkpt><trkpt lat="43.44763302555251" lon="11.617814864943078"><ele>237.28571428571428</ele><time>2026-05-01T07:50:44.998Z</time></trkpt><trkpt lat="43.447690706764966" lon="11.617759588988742"><ele>237.1428571428571</ele><time>2026-05-01T07:50:45.998Z</time></trkpt><trkpt lat="43.447746293790075" lon="11.617701027069618"><ele>236.99999999999997</ele><time>2026-05-01T07:50:46.998Z</time></trkpt><trkpt lat="43.447804482956336" lon="11.617643390520481"><ele>236.85714285714283</ele><time>2026-05-01T07:50:47.998Z</time></trkpt><trkpt lat="43.44786151543198" lon="11.61759079951657"><ele>236.71428571428572</ele><time>2026-05-01T07:50:48.998Z</time></trkpt><trkpt lat="43.447920725109086" lon="11.617529650980476"><ele>236.57142857142856</ele><time>2026-05-01T07:50:49.998Z</time></trkpt><trkpt lat="43.44798007195832" lon="11.61747088258498"><ele>236.42857142857142</ele><time>2026-05-01T07:50:50.998Z</time></trkpt><trkpt lat="43.44803977451087" lon="11.61741367127531"><ele>236.28571428571428</ele><time>2026-05-01T07:50:51.998Z</time></trkpt><trkpt lat="43.448102387108705" lon="11.617351348470054"><ele>236.14285714285714</ele><time>2026-05-01T07:50:53Z</time></trkpt><trkpt lat="43.44816208669468" lon="11.617290863268277"><ele>236.0</ele><time>2026-05-01T07:50:54Z</time></trkpt><trkpt lat="43.44822172104045" lon="11.617232470996917"><ele>236.0</ele><time>2026-05-01T07:50:55Z</time></trkpt><trkpt lat="43.44828269656349" lon="11.617172936948704"><ele>236.0</ele><time>2026-05-01T07:50:56Z</time></trkpt><trkpt lat="43.44834305596739" lon="11.617114994521497"><ele>236.0</ele><time>2026-05-01T07:50:57Z</time></trkpt><trkpt lat="43.448399937428086" lon="11.617060199349929"><ele>236.0</ele><time>2026-05-01T07:50:58Z</time></trkpt><trkpt lat="43.448456501860946" lon="11.617002156750663"><ele>236.0</ele><time>2026-05-01T07:50:59Z</time></trkpt><trkpt lat="43.44851187398847" lon="11.616944959510459"><ele>236.0</ele><time>2026-05-01T07:51:00Z</time></trkpt><trkpt lat="43.44856695508444" lon="11.616895775260755"><ele>236.0</ele><time>2026-05-01T07:51:01Z</time></trkpt><trkpt lat="43.44862241934066" lon="11.616836635618077"><ele>235.85714285714283</ele><time>2026-05-01T07:51:02Z</time></trkpt><trkpt lat="43.448680285325345" lon="11.616781915315334"><ele>235.71428571428572</ele><time>2026-05-01T07:51:03Z</time></trkpt><trkpt lat="43.448734542660816" lon="11.616732516887573"><ele>235.57142857142856</ele><time>2026-05-01T07:51:04Z</time></trkpt><trkpt lat="43.4487918774048" lon="11.616681056992869"><ele>235.42857142857142</ele><time>2026-05-01T07:51:05Z</time></trkpt><trkpt lat="43.448848046285484" lon="11.61663305996854"><ele>235.28571428571428</ele><time>2026-05-01T07:51:06Z</time></trkpt><trkpt lat="43.44890557483955" lon="11.616583279119439"><ele>235.14285714285714</ele><time>2026-05-01T07:51:07Z</time></trkpt><trkpt lat="43.44896256656918" lon="11.616543179410048"><ele>235.0</ele><time>2026-05-01T07:51:08Z</time></trkpt><trkpt lat="43.44902281025664" lon="11.616506187268605"><ele>235.0</ele><time>2026-05-01T07:51:09Z</time></trkpt><trkpt lat="43.449080895782735" lon="11.61647236556578"><ele>235.0</ele><time>2026-05-01T07:51:10Z</time></trkpt><trkpt lat="43.44919442047054" lon="11.616412938222137"><ele>235.0</ele><time>2026-05-01T07:51:12Z</time></trkpt><trkpt lat="43.44930727822643" lon="11.61635613221903"><ele>235.0</ele><time>2026-05-01T07:51:14Z</time></trkpt><trkpt lat="43.44941709862245" lon="11.616298820515809"><ele>235.0</ele><time>2026-05-01T07:51:16Z</time></trkpt><trkpt lat="43.44953024355021" lon="11.61624105872393"><ele>235.75</ele><time>2026-05-01T07:51:18Z</time></trkpt><trkpt lat="43.44964093437561" lon="11.616185888744543"><ele>236.5</ele><time>2026-05-01T07:51:20Z</time></trkpt><trkpt lat="43.449753253859186" lon="11.61613074080956"><ele>237.25</ele><time>2026-05-01T07:51:22Z</time></trkpt><trkpt lat="43.44986194621082" lon="11.616075406797421"><ele>238.0</ele><time>2026-05-01T07:51:24Z</time></trkpt><trkpt lat="43.44997073937715" lon="11.61601915392101"><ele>236.5</ele><time>2026-05-01T07:51:26Z</time></trkpt><trkpt lat="43.450076235702255" lon="11.615965193921525"><ele>235.0</ele><time>2026-05-01T07:51:27.999Z</time></trkpt><trkpt lat="43.45018352542282" lon="11.615908129893574"><ele>233.5</ele><time>2026-05-01T07:51:29.999Z</time></trkpt><trkpt lat="43.450294928946626" lon="11.615851500997769"><ele>232.0</ele><time>2026-05-01T07:51:31.999Z</time></trkpt><trkpt lat="43.4504027835135" lon="11.61579608968695"><ele>232.75</ele><time>2026-05-01T07:51:33.999Z</time></trkpt><trkpt lat="43.45051266067303" lon="11.615736497123402"><ele>233.5</ele><time>2026-05-01T07:51:35.999Z</time></trkpt><trkpt lat="43.45061972749635" lon="11.615684366725922"><ele>234.25</ele><time>2026-05-01T07:51:37.999Z</time></trkpt><trkpt lat="43.45072557834892" lon="11.615630128039756"><ele>235.0</ele><time>2026-05-01T07:51:39.999Z</time></trkpt><trkpt lat="43.450835963786595" lon="11.61557170903339"><ele>235.0</ele><time>2026-05-01T07:51:41.999Z</time></trkpt><trkpt lat="43.450895243876325" lon="11.615541285302681"><ele>235.0</ele><time>2026-05-01T07:51:42.999Z</time></trkpt><trkpt lat="43.451008416218805" lon="11.615482443698626"><ele>235.0</ele><time>2026-05-01T07:51:44.999Z</time></trkpt><trkpt lat="43.45112211687133" lon="11.61542776758808"><ele>235.0</ele><time>2026-05-01T07:51:46.999Z</time></trkpt><trkpt lat="43.451233927862155" lon="11.615365443784086"><ele>235.0</ele><time>2026-05-01T07:51:48.999Z</time></trkpt><trkpt lat="43.45134529959026" lon="11.615311082926768"><ele>234.0</ele><time>2026-05-01T07:51:50.999Z</time></trkpt><trkpt lat="43.451453976373756" lon="11.61525588803967"><ele>233.0</ele><time>2026-05-01T07:51:52.999Z</time></trkpt><trkpt lat="43.451567927462854" lon="11.615197979721827"><ele>232.0</ele><time>2026-05-01T07:51:54.999Z</time></trkpt><trkpt lat="43.45167996778317" lon="11.615141075833051"><ele>231.0</ele><time>2026-05-01T07:51:56.999Z</time></trkpt><trkpt lat="43.45179163326803" lon="11.615082916326996"><ele>231.0</ele><time>2026-05-01T07:51:58.999Z</time></trkpt><trkpt lat="43.45189988433847" lon="11.615029899097104"><ele>231.0</ele><time>2026-05-01T07:52:00.999Z</time></trkpt><trkpt lat="43.452012465466424" lon="11.614979220879276"><ele>231.0</ele><time>2026-05-01T07:52:02.999Z</time></trkpt><trkpt lat="43.45212277133765" lon="11.614916009156397"><ele>231.0</ele><time>2026-05-01T07:52:04.999Z</time></trkpt><trkpt lat="43.45223442346756" lon="11.614859729407375"><ele>231.75</ele><time>2026-05-01T07:52:06.999Z</time></trkpt><trkpt lat="43.45234473508359" lon="11.614802813470874"><ele>232.5</ele><time>2026-05-01T07:52:08.999Z</time></trkpt><trkpt lat="43.45245545172371" lon="11.614744212990736"><ele>233.25</ele><time>2026-05-01T07:52:10.999Z</time></trkpt><trkpt lat="43.452567777243196" lon="11.61468767792926"><ele>234.0</ele><time>2026-05-01T07:52:12.999Z</time></trkpt><trkpt lat="43.452681014375486" lon="11.61463172820744"><ele>234.0</ele><time>2026-05-01T07:52:14.998Z</time></trkpt><trkpt lat="43.45279296861826" lon="11.614573483070286"><ele>234.0</ele><time>2026-05-01T07:52:16.998Z</time></trkpt><trkpt lat="43.45290548825622" lon="11.614516534168825"><ele>234.0</ele><time>2026-05-01T07:52:18.998Z</time></trkpt><trkpt lat="43.45301570573773" lon="11.614456557446264"><ele>234.0</ele><time>2026-05-01T07:52:20.998Z</time></trkpt><trkpt lat="43.453129065501095" lon="11.61440578550782"><ele>233.42857142857144</ele><time>2026-05-01T07:52:22.998Z</time></trkpt><trkpt lat="43.45319188031307" lon="11.614379966209635"><ele>232.8571428571429</ele><time>2026-05-01T07:52:23.998Z</time></trkpt><trkpt lat="43.45325905577257" lon="11.61436187782198"><ele>232.28571428571428</ele><time>2026-05-01T07:52:24.998Z</time></trkpt><trkpt lat="43.45332686335335" lon="11.614354106493451"><ele>231.71428571428572</ele><time>2026-05-01T07:52:25.998Z</time></trkpt><trkpt lat="43.453394853332966" lon="11.614356604740516"><ele>231.14285714285714</ele><time>2026-05-01T07:52:26.998Z</time></trkpt><trkpt lat="43.4534615435968" lon="11.61436066696194"><ele>230.57142857142856</ele><time>2026-05-01T07:52:27.998Z</time></trkpt><trkpt lat="43.45352521702612" lon="11.614385277790293"><ele>229.99999999999997</ele><time>2026-05-01T07:52:28.998Z</time></trkpt><trkpt lat="43.45359395017158" lon="11.614403375610376"><ele>230.00000000000003</ele><time>2026-05-01T07:52:29.998Z</time></trkpt><trkpt lat="43.45365776516072" lon="11.614423531243046"><ele>230.0</ele><time>2026-05-01T07:52:30.998Z</time></trkpt><trkpt lat="43.45376840467241" lon="11.614466218126204"><ele>230.0</ele><time>2026-05-01T07:52:32.998Z</time></trkpt><trkpt lat="43.453837353329504" lon="11.614491546816186"><ele>230.0</ele><time>2026-05-01T07:52:33.998Z</time></trkpt><trkpt lat="43.45390051087406" lon="11.614514653017821"><ele>230.00000000000003</ele><time>2026-05-01T07:52:34.998Z</time></trkpt><trkpt lat="43.453961716020586" lon="11.614538224370392"><ele>230.0</ele><time>2026-05-01T07:52:35.998Z</time></trkpt><trkpt lat="43.45407545611421" lon="11.614596970286556"><ele>229.99999999999997</ele><time>2026-05-01T07:52:37.998Z</time></trkpt><trkpt lat="43.454132123640015" lon="11.61464272702652"><ele>230.0</ele><time>2026-05-01T07:52:38.998Z</time></trkpt><trkpt lat="43.45418394345343" lon="11.614699800543088"><ele>229.99999999999997</ele><time>2026-05-01T07:52:39.998Z</time></trkpt><trkpt lat="43.4542339485983" lon="11.614762219625824"><ele>229.99999999999997</ele><time>2026-05-01T07:52:40.998Z</time></trkpt><trkpt lat="43.454276084692275" lon="11.614836248844535"><ele>230.0</ele><time>2026-05-01T07:52:41.998Z</time></trkpt><trkpt lat="43.454313547958286" lon="11.614912995349066"><ele>229.99999999999997</ele><time>2026-05-01T07:52:42.998Z</time></trkpt><trkpt lat="43.45434990330538" lon="11.614999219025945"><ele>229.99999999999997</ele><time>2026-05-01T07:52:43.998Z</time></trkpt><trkpt lat="43.454383205456246" lon="11.615077579987393"><ele>229.99999999999997</ele><time>2026-05-01T07:52:44.998Z</time></trkpt><trkpt lat="43.454417150366524" lon="11.615158357985457"><ele>230.0</ele><time>2026-05-01T07:52:45.998Z</time></trkpt><trkpt lat="43.454453201722785" lon="11.615236793372484"><ele>229.99999999999997</ele><time>2026-05-01T07:52:46.998Z</time></trkpt><trkpt lat="43.45449483551869" lon="11.61530937118034"><ele>229.99999999999997</ele><time>2026-05-01T07:52:47.998Z</time></trkpt><trkpt lat="43.45454275107845" lon="11.615377822756905"><ele>230.0</ele><time>2026-05-01T07:52:48.998Z</time></trkpt><trkpt lat="43.454590463776356" lon="11.61544668430396"><ele>229.99999999999997</ele><time>2026-05-01T07:52:49.998Z</time></trkpt><trkpt lat="43.45464458829915" lon="11.615505770800413"><ele>229.99999999999997</ele><time>2026-05-01T07:52:50.998Z</time></trkpt><trkpt lat="43.454701228343026" lon="11.615570899916566"><ele>229.99999999999997</ele><time>2026-05-01T07:52:51.998Z</time></trkpt><trkpt lat="43.45476320787011" lon="11.615609287463304"><ele>230.0</ele><time>2026-05-01T07:52:52.998Z</time></trkpt><trkpt lat="43.45482774480723" lon="11.615642144800256"><ele>229.99999999999997</ele><time>2026-05-01T07:52:53.998Z</time></trkpt><trkpt lat="43.45489583092177" lon="11.615680999419025"><ele>229.99999999999997</ele><time>2026-05-01T07:52:54.998Z</time></trkpt><trkpt lat="43.45496237524157" lon="11.615714983596193"><ele>230.0</ele><time>2026-05-01T07:52:55.998Z</time></trkpt><trkpt lat="43.45503060314165" lon="11.61574115752822"><ele>229.99999999999997</ele><time>2026-05-01T07:52:56.998Z</time></trkpt><trkpt lat="43.45509445886845" lon="11.615756570121896"><ele>229.99999999999997</ele><time>2026-05-01T07:52:57.998Z</time></trkpt><trkpt lat="43.45516336976768" lon="11.615767322192681"><ele>230.0</ele><time>2026-05-01T07:52:59Z</time></trkpt><trkpt lat="43.45522786725605" lon="11.615765933643702"><ele>230.0</ele><time>2026-05-01T07:53:00Z</time></trkpt><trkpt lat="43.45535077380783" lon="11.615759922067689"><ele>230.0</ele><time>2026-05-01T07:53:02Z</time></trkpt><trkpt lat="43.45546873383021" lon="11.615736654159438"><ele>230.0</ele><time>2026-05-01T07:53:04Z</time></trkpt><trkpt lat="43.4555750355712" lon="11.615703612984634"><ele>230.0</ele><time>2026-05-01T07:53:06Z</time></trkpt><trkpt lat="43.45567863993307" lon="11.615675220470594"><ele>230.4285714285714</ele><time>2026-05-01T07:53:08Z</time></trkpt><trkpt lat="43.45575609332557" lon="11.615645810399101"><ele>230.85714285714283</ele><time>2026-05-01T07:53:10Z</time></trkpt><trkpt lat="43.45583345528562" lon="11.615617950438681"><ele>231.28571428571428</ele><time>2026-05-01T07:53:12Z</time></trkpt><trkpt lat="43.455900647193474" lon="11.615598473039059"><ele>231.7142857142857</ele><time>2026-05-01T07:53:14Z</time></trkpt><trkpt lat="43.455967994770894" lon="11.61558017287021"><ele>232.1428571428571</ele><time>2026-05-01T07:53:16Z</time></trkpt><trkpt lat="43.456028528807956" lon="11.615555741633852"><ele>232.57142857142858</ele><time>2026-05-01T07:53:18Z</time></trkpt><trkpt lat="43.45609102997702" lon="11.615534985762729"><ele>233.0</ele><time>2026-05-01T07:53:20Z</time></trkpt><trkpt lat="43.456177817854616" lon="11.615501529540744"><ele>233.00000000000003</ele><time>2026-05-01T07:53:23Z</time></trkpt><trkpt lat="43.45625959110539" lon="11.615479884294512"><ele>233.0</ele><time>2026-05-01T07:53:26Z</time></trkpt><trkpt lat="43.456338438487904" lon="11.61545590085185"><ele>233.0</ele><time>2026-05-01T07:53:29Z</time></trkpt><trkpt lat="43.45640196518947" lon="11.61542897578143"><ele>233.0</ele><time>2026-05-01T07:53:31Z</time></trkpt><trkpt lat="43.45648943027251" lon="11.615387831183709"><ele>233.00000000000003</ele><time>2026-05-01T07:53:34Z</time></trkpt><trkpt lat="43.45657718819227" lon="11.615343495606414"><ele>233.0</ele><time>2026-05-01T07:53:36.999Z</time></trkpt><trkpt lat="43.45663974085149" lon="11.615301189318732"><ele>232.4</ele><time>2026-05-01T07:53:38.999Z</time></trkpt><trkpt lat="43.456708277094364" lon="11.615248870367852"><ele>231.8</ele><time>2026-05-01T07:53:40.999Z</time></trkpt><trkpt lat="43.456787726817254" lon="11.6151911608325"><ele>231.2</ele><time>2026-05-01T07:53:42.999Z</time></trkpt><trkpt lat="43.45686909363943" lon="11.615111394069038"><ele>230.6</ele><time>2026-05-01T07:53:44.999Z</time></trkpt><trkpt lat="43.456953251167555" lon="11.615022254244973"><ele>230.0</ele><time>2026-05-01T07:53:46.999Z</time></trkpt><trkpt lat="43.457043583366584" lon="11.614911615198334"><ele>229.99999999999997</ele><time>2026-05-01T07:53:48.999Z</time></trkpt><trkpt lat="43.45709288744475" lon="11.614855957064005"><ele>230.0</ele><time>2026-05-01T07:53:49.999Z</time></trkpt><trkpt lat="43.45717945453842" lon="11.614733573778254"><ele>229.99999999999997</ele><time>2026-05-01T07:53:51.999Z</time></trkpt><trkpt lat="43.45722553178666" lon="11.61467385383924"><ele>229.99999999999997</ele><time>2026-05-01T07:53:52.999Z</time></trkpt><trkpt lat="43.457266040781654" lon="11.614599898550985"><ele>230.0</ele><time>2026-05-01T07:53:53.999Z</time></trkpt><trkpt lat="43.45730818960855" lon="11.614532804544927"><ele>229.99999999999997</ele><time>2026-05-01T07:53:54.999Z</time></trkpt><trkpt lat="43.457347863295155" lon="11.614465354660208"><ele>229.99999999999997</ele><time>2026-05-01T07:53:55.999Z</time></trkpt><trkpt lat="43.457392706032955" lon="11.614393556337486"><ele>230.16666666666669</ele><time>2026-05-01T07:53:56.999Z</time></trkpt><trkpt lat="43.45743434939366" lon="11.614307307160981"><ele>230.33333333333334</ele><time>2026-05-01T07:53:57.999Z</time></trkpt><trkpt lat="43.45747644887019" lon="11.614214873084338"><ele>230.5</ele><time>2026-05-01T07:53:58.999Z</time></trkpt><trkpt lat="43.45752117495123" lon="11.614128042076628"><ele>230.66666666666669</ele><time>2026-05-01T07:53:59.999Z</time></trkpt><trkpt lat="43.457565474618875" lon="11.61403317065525"><ele>230.83333333333334</ele><time>2026-05-01T07:54:00.999Z</time></trkpt><trkpt lat="43.457611732281414" lon="11.61393560970526"><ele>231.0</ele><time>2026-05-01T07:54:01.999Z</time></trkpt><trkpt lat="43.45766688872359" lon="11.613836605257047"><ele>231.0</ele><time>2026-05-01T07:54:02.999Z</time></trkpt><trkpt lat="43.45771641349267" lon="11.613728349061535"><ele>231.00000000000003</ele><time>2026-05-01T07:54:03.999Z</time></trkpt><trkpt lat="43.457775288258794" lon="11.613611276447186"><ele>231.00000000000003</ele><time>2026-05-01T07:54:04.999Z</time></trkpt><trkpt lat="43.45785569835962" lon="11.613509848081998"><ele>231.0</ele><time>2026-05-01T07:54:05.999Z</time></trkpt><trkpt lat="43.457943207866464" lon="11.613415976536754"><ele>231.0</ele><time>2026-05-01T07:54:06.999Z</time></trkpt><trkpt lat="43.458028175339514" lon="11.613317233374293"><ele>231.0</ele><time>2026-05-01T07:54:07.999Z</time></trkpt><trkpt lat="43.45811976421598" lon="11.613233608510367"><ele>231.00000000000003</ele><time>2026-05-01T07:54:08.999Z</time></trkpt><trkpt lat="43.45820159620172" lon="11.61315915061968"><ele>231.00000000000003</ele><time>2026-05-01T07:54:09.999Z</time></trkpt><trkpt lat="43.45828552714261" lon="11.613088864232383"><ele>231.0</ele><time>2026-05-01T07:54:10.999Z</time></trkpt><trkpt lat="43.458364133373756" lon="11.61301869564298"><ele>231.0</ele><time>2026-05-01T07:54:11.999Z</time></trkpt><trkpt lat="43.45843936239843" lon="11.6129492107884"><ele>231.0</ele><time>2026-05-01T07:54:12.999Z</time></trkpt><trkpt lat="43.45851107198166" lon="11.612890234611386"><ele>231.0</ele><time>2026-05-01T07:54:13.999Z</time></trkpt><trkpt lat="43.45858153581722" lon="11.612833458743857"><ele>231.0</ele><time>2026-05-01T07:54:14.999Z</time></trkpt><trkpt lat="43.45865014332165" lon="11.612780109207948"><ele>231.0</ele><time>2026-05-01T07:54:15.999Z</time></trkpt><trkpt lat="43.45871863333077" lon="11.612723639631806"><ele>231.0</ele><time>2026-05-01T07:54:16.999Z</time></trkpt><trkpt lat="43.45878268065522" lon="11.612684818923105"><ele>231.0</ele><time>2026-05-01T07:54:17.999Z</time></trkpt><trkpt lat="43.458844060372826" lon="11.612644610734282"><ele>230.57142857142856</ele><time>2026-05-01T07:54:18.999Z</time></trkpt><trkpt lat="43.45890510741053" lon="11.612609425535817"><ele>230.14285714285714</ele><time>2026-05-01T07:54:19.999Z</time></trkpt><trkpt lat="43.45896630029359" lon="11.612583107501804"><ele>229.71428571428572</ele><time>2026-05-01T07:54:20.999Z</time></trkpt><trkpt lat="43.45903185306488" lon="11.612544751734996"><ele>229.28571428571428</ele><time>2026-05-01T07:54:21.999Z</time></trkpt><trkpt lat="43.4590984216541" lon="11.612530303342005"><ele>228.85714285714283</ele><time>2026-05-01T07:54:22.999Z</time></trkpt><trkpt lat="43.459172473417475" lon="11.612497458603121"><ele>228.42857142857142</ele><time>2026-05-01T07:54:23.999Z</time></trkpt><trkpt lat="43.45924409451693" lon="11.6124731671445"><ele>228.0</ele><time>2026-05-01T07:54:24.999Z</time></trkpt><trkpt lat="43.45932074867437" lon="11.612477742398744"><ele>228.0</ele><time>2026-05-01T07:54:25.998Z</time></trkpt><trkpt lat="43.459396590700706" lon="11.61247618245727"><ele>228.0</ele><time>2026-05-01T07:54:26.998Z</time></trkpt><trkpt lat="43.45947299011153" lon="11.61248510673623"><ele>228.0</ele><time>2026-05-01T07:54:27.998Z</time></trkpt><trkpt lat="43.459548779228854" lon="11.61249283338385"><ele>228.0</ele><time>2026-05-01T07:54:28.998Z</time></trkpt><trkpt lat="43.459623705008916" lon="11.612516498542231"><ele>228.0</ele><time>2026-05-01T07:54:29.998Z</time></trkpt><trkpt lat="43.459697756755375" lon="11.612541205401754"><ele>228.0</ele><time>2026-05-01T07:54:30.998Z</time></trkpt><trkpt lat="43.45976839712438" lon="11.612582171861714"><ele>228.5</ele><time>2026-05-01T07:54:31.998Z</time></trkpt><trkpt lat="43.459836377195984" lon="11.612637949147432"><ele>229.0</ele><time>2026-05-01T07:54:32.998Z</time></trkpt><trkpt lat="43.459898062161606" lon="11.612711082782049"><ele>229.5</ele><time>2026-05-01T07:54:33.998Z</time></trkpt><trkpt lat="43.45995431384342" lon="11.612792772655007"><ele>230.0</ele><time>2026-05-01T07:54:34.998Z</time></trkpt><trkpt lat="43.4600054274042" lon="11.61287681184669"><ele>230.5</ele><time>2026-05-01T07:54:35.998Z</time></trkpt><trkpt lat="43.46004660999986" lon="11.612971211436545"><ele>231.0</ele><time>2026-05-01T07:54:36.998Z</time></trkpt><trkpt lat="43.460086583548765" lon="11.613067075545038"><ele>231.0</ele><time>2026-05-01T07:54:37.998Z</time></trkpt><trkpt lat="43.460126075556886" lon="11.613160672816463"><ele>231.0</ele><time>2026-05-01T07:54:38.998Z</time></trkpt><trkpt lat="43.46016950190833" lon="11.613254994680124"><ele>231.0</ele><time>2026-05-01T07:54:39.998Z</time></trkpt><trkpt lat="43.46021816780649" lon="11.61334394180889"><ele>231.0</ele><time>2026-05-01T07:54:40.998Z</time></trkpt><trkpt lat="43.46026002860628" lon="11.613433400333294"><ele>231.0</ele><time>2026-05-01T07:54:41.998Z</time></trkpt><trkpt lat="43.46031068353241" lon="11.613508918126927"><ele>231.0</ele><time>2026-05-01T07:54:42.998Z</time></trkpt><trkpt lat="43.46036592813129" lon="11.613586235393171"><ele>231.0</ele><time>2026-05-01T07:54:43.998Z</time></trkpt><trkpt lat="43.46042410453275" lon="11.61365455063107"><ele>231.00000000000003</ele><time>2026-05-01T07:54:44.998Z</time></trkpt><trkpt lat="43.46048667193248" lon="11.613702874497255"><ele>231.00000000000003</ele><time>2026-05-01T07:54:45.998Z</time></trkpt><trkpt lat="43.4606169576945" lon="11.613767667383444"><ele>231.0</ele><time>2026-05-01T07:54:47.998Z</time></trkpt><trkpt lat="43.46067264322282" lon="11.613812555170977"><ele>231.0</ele><time>2026-05-01T07:54:48.998Z</time></trkpt><trkpt lat="43.46078283805793" lon="11.613886248000188"><ele>230.8</ele><time>2026-05-01T07:54:50.998Z</time></trkpt><trkpt lat="43.46083955287594" lon="11.613925379594086"><ele>230.60000000000002</ele><time>2026-05-01T07:54:51.998Z</time></trkpt><trkpt lat="43.46093768174663" lon="11.61400105467838"><ele>230.4</ele><time>2026-05-01T07:54:53.998Z</time></trkpt><trkpt lat="43.46103459207339" lon="11.614069909734589"><ele>230.2</ele><time>2026-05-01T07:54:55.998Z</time></trkpt><trkpt lat="43.4611298663738" lon="11.614138542318498"><ele>230.0</ele><time>2026-05-01T07:54:57.998Z</time></trkpt><trkpt lat="43.46122258029539" lon="11.614200772490554"><ele>228.6</ele><time>2026-05-01T07:54:59.998Z</time></trkpt><trkpt lat="43.461316624751305" lon="11.61426673600669"><ele>227.2</ele><time>2026-05-01T07:55:01.998Z</time></trkpt><trkpt lat="43.46140447510099" lon="11.614287044420776"><ele>225.8</ele><time>2026-05-01T07:55:03.998Z</time></trkpt><trkpt lat="43.46149581650101" lon="11.614269821848456"><ele>224.4</ele><time>2026-05-01T07:55:06Z</time></trkpt><trkpt lat="43.461583099817" lon="11.614241826460932"><ele>223.0</ele><time>2026-05-01T07:55:08Z</time></trkpt><trkpt lat="43.46166865902634" lon="11.614179890986161"><ele>223.0</ele><time>2026-05-01T07:55:10Z</time></trkpt><trkpt lat="43.46174846238916" lon="11.614091952488142"><ele>223.0</ele><time>2026-05-01T07:55:12Z</time></trkpt><trkpt lat="43.46182920243475" lon="11.614025946070413"><ele>223.0</ele><time>2026-05-01T07:55:14Z</time></trkpt><trkpt lat="43.4619136037394" lon="11.613950982291362"><ele>223.0</ele><time>2026-05-01T07:55:16Z</time></trkpt><trkpt lat="43.46200054585822" lon="11.613874784888708"><ele>223.0</ele><time>2026-05-01T07:55:18Z</time></trkpt><trkpt lat="43.46209070955248" lon="11.613799403942041"><ele>222.60000000000002</ele><time>2026-05-01T07:55:20Z</time></trkpt><trkpt lat="43.46217741128459" lon="11.613721163006344"><ele>222.20000000000002</ele><time>2026-05-01T07:55:22Z</time></trkpt><trkpt lat="43.46226434210992" lon="11.613666202082289"><ele>221.8</ele><time>2026-05-01T07:55:24Z</time></trkpt><trkpt lat="43.46235415041436" lon="11.613604878875218"><ele>221.4</ele><time>2026-05-01T07:55:26Z</time></trkpt><trkpt lat="43.462450281832886" lon="11.613564365513001"><ele>221.0</ele><time>2026-05-01T07:55:28Z</time></trkpt><trkpt lat="43.462545922154156" lon="11.61352803134296"><ele>221.0</ele><time>2026-05-01T07:55:30Z</time></trkpt><trkpt lat="43.462638464826846" lon="11.613505834623309"><ele>221.00000000000003</ele><time>2026-05-01T07:55:32Z</time></trkpt><trkpt lat="43.46272734344342" lon="11.613484547014513"><ele>221.00000000000003</ele><time>2026-05-01T07:55:34Z</time></trkpt><trkpt lat="43.462819035034784" lon="11.61346002218764"><ele>221.0</ele><time>2026-05-01T07:55:36Z</time></trkpt><trkpt lat="43.46291330397783" lon="11.613435665531307"><ele>221.0</ele><time>2026-05-01T07:55:38Z</time></trkpt><trkpt lat="43.46300897603365" lon="11.613413010049829"><ele>221.8</ele><time>2026-05-01T07:55:40Z</time></trkpt><trkpt lat="43.46310527107399" lon="11.613395605275516"><ele>222.60000000000002</ele><time>2026-05-01T07:55:42Z</time></trkpt><trkpt lat="43.463203480860074" lon="11.613372084101774"><ele>223.4</ele><time>2026-05-01T07:55:43.999Z</time></trkpt><trkpt lat="43.463301309533826" lon="11.613341118783422"><ele>224.2</ele><time>2026-05-01T07:55:45.999Z</time></trkpt><trkpt lat="43.46339479130813" lon="11.613323441868088"><ele>225.0</ele><time>2026-05-01T07:55:47.999Z</time></trkpt><trkpt lat="43.463485426602965" lon="11.613299016208456"><ele>225.0</ele><time>2026-05-01T07:55:49.999Z</time></trkpt><trkpt lat="43.46357096056015" lon="11.613275096522484"><ele>225.0</ele><time>2026-05-01T07:55:51.999Z</time></trkpt><trkpt lat="43.4636550675321" lon="11.613250702246217"><ele>225.0</ele><time>2026-05-01T07:55:53.999Z</time></trkpt><trkpt lat="43.46373603644057" lon="11.613235850061589"><ele>225.0</ele><time>2026-05-01T07:55:55.999Z</time></trkpt><trkpt lat="43.46381315726667" lon="11.613211561217968"><ele>225.0</ele><time>2026-05-01T07:55:57.999Z</time></trkpt><trkpt lat="43.463891632747206" lon="11.613194279887093"><ele>225.0</ele><time>2026-05-01T07:55:59.999Z</time></trkpt><trkpt lat="43.463968342615864" lon="11.613168971678784"><ele>225.83333333333334</ele><time>2026-05-01T07:56:01.999Z</time></trkpt><trkpt lat="43.46404350829835" lon="11.613146993771759"><ele>226.66666666666669</ele><time>2026-05-01T07:56:03.999Z</time></trkpt><trkpt lat="43.46412210072544" lon="11.613129412839799"><ele>227.5</ele><time>2026-05-01T07:56:05.999Z</time></trkpt><trkpt lat="43.464201781028414" lon="11.613110633208537"><ele>228.33333333333334</ele><time>2026-05-01T07:56:07.999Z</time></trkpt><trkpt lat="43.46428121991567" lon="11.613086547564452"><ele>229.16666666666669</ele><time>2026-05-01T07:56:09.999Z</time></trkpt><trkpt lat="43.4643615474591" lon="11.613062942052427"><ele>230.0</ele><time>2026-05-01T07:56:11.999Z</time></trkpt><trkpt lat="43.46444154480675" lon="11.613044424517648"><ele>230.00000000000003</ele><time>2026-05-01T07:56:13.999Z</time></trkpt><trkpt lat="43.46452022222451" lon="11.613022226193001"><ele>230.0</ele><time>2026-05-01T07:56:15.999Z</time></trkpt><trkpt lat="43.4645956784715" lon="11.613000624224568"><ele>230.0</ele><time>2026-05-01T07:56:17.999Z</time></trkpt><trkpt lat="43.46467158524926" lon="11.612978051409772"><ele>230.0</ele><time>2026-05-01T07:56:19.999Z</time></trkpt><trkpt lat="43.4647452445954" lon="11.612955035814657"><ele>230.00000000000003</ele><time>2026-05-01T07:56:21.999Z</time></trkpt><trkpt lat="43.464820843230704" lon="11.612940489474855"><ele>230.0</ele><time>2026-05-01T07:56:23.999Z</time></trkpt><trkpt lat="43.46489571004925" lon="11.61292029568033"><ele>230.83333333333334</ele><time>2026-05-01T07:56:25.999Z</time></trkpt><trkpt lat="43.464973591004785" lon="11.61290073552366"><ele>231.66666666666669</ele><time>2026-05-01T07:56:27.999Z</time></trkpt><trkpt lat="43.46505251068463" lon="11.612878237443294"><ele>232.5</ele><time>2026-05-01T07:56:29.999Z</time></trkpt><trkpt lat="43.465127820176384" lon="11.61286477528711"><ele>233.33333333333331</ele><time>2026-05-01T07:56:31.998Z</time></trkpt><trkpt lat="43.4652029722631" lon="11.612842755807105"><ele>234.16666666666666</ele><time>2026-05-01T07:56:33.998Z</time></trkpt><trkpt lat="43.46527928704446" lon="11.612819189418722"><ele>235.0</ele><time>2026-05-01T07:56:35.998Z</time></trkpt><trkpt lat="43.46535565217032" lon="11.612801775594283"><ele>234.99999999999997</ele><time>2026-05-01T07:56:37.998Z</time></trkpt><trkpt lat="43.465431787641236" lon="11.612782178421467"><ele>235.0</ele><time>2026-05-01T07:56:39.998Z</time></trkpt><trkpt lat="43.465508443071535" lon="11.612765991569884"><ele>235.0</ele><time>2026-05-01T07:56:41.998Z</time></trkpt><trkpt lat="43.465586894775306" lon="11.612741550840612"><ele>235.0</ele><time>2026-05-01T07:56:43.998Z</time></trkpt><trkpt lat="43.465660142799" lon="11.612720819282249"><ele>234.99999999999997</ele><time>2026-05-01T07:56:45.998Z</time></trkpt><trkpt lat="43.46573617433478" lon="11.612703247690947"><ele>235.0</ele><time>2026-05-01T07:56:47.998Z</time></trkpt><trkpt lat="43.46581334038323" lon="11.612678387692833"><ele>234.99999999999997</ele><time>2026-05-01T07:56:49.998Z</time></trkpt><trkpt lat="43.46588578455931" lon="11.612664781664707"><ele>235.0</ele><time>2026-05-01T07:56:51.998Z</time></trkpt><trkpt lat="43.46595990264626" lon="11.612637988081284"><ele>235.0</ele><time>2026-05-01T07:56:53.998Z</time></trkpt><trkpt lat="43.46603373799311" lon="11.61263112386702"><ele>235.0</ele><time>2026-05-01T07:56:55.998Z</time></trkpt><trkpt lat="43.46611079502915" lon="11.612613125586417"><ele>234.99999999999997</ele><time>2026-05-01T07:56:57.998Z</time></trkpt><trkpt lat="43.46618080870215" lon="11.612596397486493"><ele>235.0</ele><time>2026-05-01T07:56:59.998Z</time></trkpt><trkpt lat="43.46625962176405" lon="11.61257560585859"><ele>234.66666666666666</ele><time>2026-05-01T07:57:01.998Z</time></trkpt><trkpt lat="43.46633801953659" lon="11.612555146093506"><ele>234.33333333333331</ele><time>2026-05-01T07:57:03.998Z</time></trkpt><trkpt lat="43.46641421301996" lon="11.612537718801315"><ele>234.0</ele><time>2026-05-01T07:57:05.998Z</time></trkpt><trkpt lat="43.46648784276434" lon="11.612512993526966"><ele>233.66666666666669</ele><time>2026-05-01T07:57:07.998Z</time></trkpt><trkpt lat="43.46656222575745" lon="11.612500190707836"><ele>233.33333333333334</ele><time>2026-05-01T07:57:09.998Z</time></trkpt><trkpt lat="43.46664076895148" lon="11.612481423665143"><ele>233.0</ele><time>2026-05-01T07:57:12Z</time></trkpt><trkpt lat="43.46671928906468" lon="11.61246480868925"><ele>233.00000000000003</ele><time>2026-05-01T07:57:14Z</time></trkpt><trkpt lat="43.466799224177976" lon="11.612452360002658"><ele>233.0</ele><time>2026-05-01T07:57:16Z</time></trkpt><trkpt lat="43.4668751423129" lon="11.612441216694876"><ele>233.0</ele><time>2026-05-01T07:57:18Z</time></trkpt><trkpt lat="43.46695049092897" lon="11.61243432609682"><ele>233.0</ele><time>2026-05-01T07:57:20Z</time></trkpt><trkpt lat="43.46702749434011" lon="11.612437232597832"><ele>233.00000000000003</ele><time>2026-05-01T07:57:22Z</time></trkpt><trkpt lat="43.467104135969905" lon="11.612442223071046"><ele>233.0</ele><time>2026-05-01T07:57:24Z</time></trkpt><trkpt lat="43.467182182805885" lon="11.612450372588784"><ele>233.16666666666669</ele><time>2026-05-01T07:57:26Z</time></trkpt><trkpt lat="43.4672607244277" lon="11.612463031228739"><ele>233.33333333333334</ele><time>2026-05-01T07:57:28Z</time></trkpt><trkpt lat="43.46733653914997" lon="11.612481836426666"><ele>233.5</ele><time>2026-05-01T07:57:30Z</time></trkpt><trkpt lat="43.46741062772757" lon="11.612506424313555"><ele>233.66666666666669</ele><time>2026-05-01T07:57:32Z</time></trkpt><trkpt lat="43.467487144573965" lon="11.6125299378994"><ele>233.83333333333334</ele><time>2026-05-01T07:57:34Z</time></trkpt><trkpt lat="43.46756122496164" lon="11.612559295808765"><ele>234.0</ele><time>2026-05-01T07:57:36Z</time></trkpt><trkpt lat="43.46763555465878" lon="11.612598652155231"><ele>234.0</ele><time>2026-05-01T07:57:38Z</time></trkpt><trkpt lat="43.4677070308075" lon="11.612635983164942"><ele>234.0</ele><time>2026-05-01T07:57:40Z</time></trkpt><trkpt lat="43.467777020044785" lon="11.612680846294642"><ele>234.0</ele><time>2026-05-01T07:57:42Z</time></trkpt><trkpt lat="43.46784406593836" lon="11.61272895058545"><ele>234.0</ele><time>2026-05-01T07:57:44Z</time></trkpt><trkpt lat="43.467910076491215" lon="11.61278274985473"><ele>234.0</ele><time>2026-05-01T07:57:46Z</time></trkpt><trkpt lat="43.467980295186706" lon="11.61283784969537"><ele>234.0</ele><time>2026-05-01T07:57:47.999Z</time></trkpt><trkpt lat="43.46804735518181" lon="11.612898371227692"><ele>234.0</ele><time>2026-05-01T07:57:49.999Z</time></trkpt><trkpt lat="43.468106747858634" lon="11.612966338169354"><ele>234.00000000000003</ele><time>2026-05-01T07:57:51.999Z</time></trkpt><trkpt lat="43.468163899745655" lon="11.613032243738472"><ele>234.0</ele><time>2026-05-01T07:57:53.999Z</time></trkpt><trkpt lat="43.46822094655605" lon="11.613092973850321"><ele>234.0</ele><time>2026-05-01T07:57:55.999Z</time></trkpt><trkpt lat="43.46827833037832" lon="11.613154930496512"><ele>234.00000000000003</ele><time>2026-05-01T07:57:57.999Z</time></trkpt><trkpt lat="43.46834069932422" lon="11.613220557812829"><ele>234.0</ele><time>2026-05-01T07:57:59.999Z</time></trkpt><trkpt lat="43.468399999695315" lon="11.61327405442117"><ele>234.0</ele><time>2026-05-01T07:58:01.999Z</time></trkpt><trkpt lat="43.46845756043258" lon="11.613336823428293"><ele>234.0</ele><time>2026-05-01T07:58:03.999Z</time></trkpt><trkpt lat="43.468518854081154" lon="11.613396356105055"><ele>234.00000000000003</ele><time>2026-05-01T07:58:05.999Z</time></trkpt><trkpt lat="43.4685748785192" lon="11.613457443525819"><ele>234.0</ele><time>2026-05-01T07:58:07.999Z</time></trkpt><trkpt lat="43.46862899056311" lon="11.613511772357878"><ele>234.0</ele><time>2026-05-01T07:58:09.999Z</time></trkpt><trkpt lat="43.46868657752907" lon="11.613565566557122"><ele>234.00000000000003</ele><time>2026-05-01T07:58:11.999Z</time></trkpt><trkpt lat="43.468743886232055" lon="11.613610682126826"><ele>234.0</ele><time>2026-05-01T07:58:13.999Z</time></trkpt><trkpt lat="43.46881446876115" lon="11.613584000708032"><ele>234.0</ele><time>2026-05-01T07:58:15.999Z</time></trkpt><trkpt lat="43.46888363059916" lon="11.61350525626062"><ele>234.0</ele><time>2026-05-01T07:58:17.999Z</time></trkpt><trkpt lat="43.46894548843521" lon="11.6134176961891"><ele>234.00000000000003</ele><time>2026-05-01T07:58:19.999Z</time></trkpt><trkpt lat="43.468947161659585" lon="11.613323655388815"><ele>234.0</ele><time>2026-05-01T08:02:08.999Z</time></trkpt><trkpt lat="43.46892439927829" lon="11.61323869718195"><ele>234.0</ele><time>2026-05-01T08:02:11.999Z</time></trkpt><trkpt lat="43.46884908993102" lon="11.613239181377104"><ele>234.00000000000003</ele><time>2026-05-01T08:02:14.999Z</time></trkpt><trkpt lat="43.46881527302725" lon="11.613343688745884"><ele>234.0</ele><time>2026-05-01T08:02:17.999Z</time></trkpt><trkpt lat="43.46879339146022" lon="11.613428848309375"><ele>234.0</ele><time>2026-05-01T08:02:20.999Z</time></trkpt><trkpt lat="43.46876354050374" lon="11.61351925499889"><ele>234.0</ele><time>2026-05-01T08:02:23.999Z</time></trkpt><trkpt lat="43.46875383863415" lon="11.613621408112085"><ele>234.0</ele><time>2026-05-01T08:02:26.999Z</time></trkpt><trkpt lat="43.46882106403641" lon="11.613711334635823"><ele>234.0</ele><time>2026-05-01T08:02:29.999Z</time></trkpt><trkpt lat="43.468894532937476" lon="11.613792924244157"><ele>234.0</ele><time>2026-05-01T08:02:32.999Z</time></trkpt><trkpt lat="43.468946361812684" lon="11.613845689795642"><ele>234.0</ele><time>2026-05-01T08:02:34.999Z</time></trkpt><trkpt lat="43.46900081130634" lon="11.613894458106252"><ele>234.0</ele><time>2026-05-01T08:02:36.999Z</time></trkpt><trkpt lat="43.469050050221284" lon="11.613950341464223"><ele>234.85714285714286</ele><time>2026-05-01T08:02:38.999Z</time></trkpt><trkpt lat="43.469129188316565" lon="11.614024825996207"><ele>235.71428571428572</ele><time>2026-05-01T08:02:41.999Z</time></trkpt><trkpt lat="43.46918132699679" lon="11.614081667931096"><ele>236.57142857142858</ele><time>2026-05-01T08:02:43.999Z</time></trkpt><trkpt lat="43.46923603637804" lon="11.614134009207119"><ele>237.42857142857144</ele><time>2026-05-01T08:02:45.998Z</time></trkpt><trkpt lat="43.46928804323175" lon="11.614186850371677"><ele>238.28571428571428</ele><time>2026-05-01T08:02:47.998Z</time></trkpt><trkpt lat="43.4693422284299" lon="11.61424700071306"><ele>239.14285714285717</ele><time>2026-05-01T08:02:49.998Z</time></trkpt><trkpt lat="43.46939904690456" lon="11.614300909312314"><ele>240.0</ele><time>2026-05-01T08:02:51.998Z</time></trkpt><trkpt lat="43.46945342653904" lon="11.614356139332967"><ele>240.0</ele><time>2026-05-01T08:02:53.998Z</time></trkpt><trkpt lat="43.46950968193914" lon="11.614416461900934"><ele>240.0</ele><time>2026-05-01T08:02:55.998Z</time></trkpt><trkpt lat="43.46956639435056" lon="11.614473878407303"><ele>240.0</ele><time>2026-05-01T08:02:57.998Z</time></trkpt><trkpt lat="43.46962538713636" lon="11.614535430143382"><ele>240.0</ele><time>2026-05-01T08:02:59.998Z</time></trkpt><trkpt lat="43.469682036425475" lon="11.614587898776849"><ele>240.0</ele><time>2026-05-01T08:03:01.998Z</time></trkpt><trkpt lat="43.46974089000892" lon="11.614643605813514"><ele>240.0</ele><time>2026-05-01T08:03:03.998Z</time></trkpt><trkpt lat="43.46979290732544" lon="11.614698118795092"><ele>240.0</ele><time>2026-05-01T08:03:05.998Z</time></trkpt><trkpt lat="43.46985295117597" lon="11.614746032950533"><ele>240.42857142857144</ele><time>2026-05-01T08:03:07.998Z</time></trkpt><trkpt lat="43.46991011882665" lon="11.614796125972294"><ele>240.85714285714283</ele><time>2026-05-01T08:03:09.998Z</time></trkpt><trkpt lat="43.46996926058205" lon="11.61484082719653"><ele>241.28571428571428</ele><time>2026-05-01T08:03:11.998Z</time></trkpt><trkpt lat="43.470030419057316" lon="11.614881609318795"><ele>241.71428571428572</ele><time>2026-05-01T08:03:13.998Z</time></trkpt><trkpt lat="43.470094925093555" lon="11.614918130109704"><ele>242.14285714285717</ele><time>2026-05-01T08:03:15.998Z</time></trkpt><trkpt lat="43.470162993515025" lon="11.614952267075958"><ele>242.57142857142856</ele><time>2026-05-01T08:03:17.998Z</time></trkpt><trkpt lat="43.47023232189585" lon="11.614977145117546"><ele>243.0</ele><time>2026-05-01T08:03:19.998Z</time></trkpt><trkpt lat="43.47030564006256" lon="11.615007933041115"><ele>243.0</ele><time>2026-05-01T08:03:21.998Z</time></trkpt><trkpt lat="43.47037987780563" lon="11.615021462977312"><ele>243.0</ele><time>2026-05-01T08:03:23.998Z</time></trkpt><trkpt lat="43.47045443922462" lon="11.615036052227795"><ele>243.0</ele><time>2026-05-01T08:03:25.998Z</time></trkpt><trkpt lat="43.47052911967342" lon="11.615040570097916"><ele>243.0</ele><time>2026-05-01T08:03:27.998Z</time></trkpt><trkpt lat="43.47060091066926" lon="11.615039048140275"><ele>243.0</ele><time>2026-05-01T08:03:29.999Z</time></trkpt><trkpt lat="43.47067109074713" lon="11.615033292210116"><ele>243.0</ele><time>2026-05-01T08:03:31.999Z</time></trkpt><trkpt lat="43.470745359126376" lon="11.615027710427869"><ele>243.0</ele><time>2026-05-01T08:03:33.999Z</time></trkpt><trkpt lat="43.470819549514665" lon="11.615017242961548"><ele>243.83333333333334</ele><time>2026-05-01T08:03:35.999Z</time></trkpt><trkpt lat="43.47089678939015" lon="11.615000488328018"><ele>244.66666666666669</ele><time>2026-05-01T08:03:37.999Z</time></trkpt><trkpt lat="43.47097244362572" lon="11.614992804039423"><ele>245.5</ele><time>2026-05-01T08:03:39.999Z</time></trkpt><trkpt lat="43.47104782375645" lon="11.614981449034422"><ele>246.33333333333334</ele><time>2026-05-01T08:03:42Z</time></trkpt><trkpt lat="43.471123246239884" lon="11.614974361829429"><ele>247.16666666666669</ele><time>2026-05-01T08:03:44Z</time></trkpt><trkpt lat="43.471199040472705" lon="11.614971171415396"><ele>248.0</ele><time>2026-05-01T08:03:45.999Z</time></trkpt><trkpt lat="43.471276412783034" lon="11.614978359089424"><ele>248.66666666666669</ele><time>2026-05-01T08:03:47.999Z</time></trkpt><trkpt lat="43.47135113219582" lon="11.614991712737378"><ele>249.33333333333334</ele><time>2026-05-01T08:03:49.999Z</time></trkpt><trkpt lat="43.47142646862689" lon="11.61501107083892"><ele>250.0</ele><time>2026-05-01T08:03:51.999Z</time></trkpt><trkpt lat="43.47150062616259" lon="11.615029063752209"><ele>250.66666666666669</ele><time>2026-05-01T08:03:53.999Z</time></trkpt><trkpt lat="43.47157119210886" lon="11.615059776765467"><ele>251.33333333333334</ele><time>2026-05-01T08:03:55.999Z</time></trkpt><trkpt lat="43.471639607570275" lon="11.615103571010257"><ele>252.0</ele><time>2026-05-01T08:03:57.999Z</time></trkpt><trkpt lat="43.47170619373987" lon="11.615145576030233"><ele>252.0</ele><time>2026-05-01T08:03:59.999Z</time></trkpt><trkpt lat="43.47176790794729" lon="11.615195903512406"><ele>252.0</ele><time>2026-05-01T08:04:01.999Z</time></trkpt><trkpt lat="43.4718325083413" lon="11.615242832424272"><ele>252.0</ele><time>2026-05-01T08:04:03.999Z</time></trkpt><trkpt lat="43.47189469860755" lon="11.615297416493153"><ele>252.0</ele><time>2026-05-01T08:04:05.999Z</time></trkpt><trkpt lat="43.471956302530856" lon="11.615353637670827"><ele>252.0</ele><time>2026-05-01T08:04:07.999Z</time></trkpt><trkpt lat="43.47201515868962" lon="11.615412401522047"><ele>252.0</ele><time>2026-05-01T08:04:09.999Z</time></trkpt><trkpt lat="43.472075332700754" lon="11.615467326080385"><ele>252.0</ele><time>2026-05-01T08:04:11.999Z</time></trkpt><trkpt lat="43.47213543277737" lon="11.615520519160695"><ele>251.83333333333334</ele><time>2026-05-01T08:04:13.999Z</time></trkpt><trkpt lat="43.47220246396641" lon="11.615581152069591"><ele>251.66666666666669</ele><time>2026-05-01T08:04:15.999Z</time></trkpt><trkpt lat="43.47226817907857" lon="11.61563263148796"><ele>251.5</ele><time>2026-05-01T08:04:17.999Z</time></trkpt><trkpt lat="43.4723372991894" lon="11.615680631855028"><ele>251.33333333333334</ele><time>2026-05-01T08:04:19.999Z</time></trkpt><trkpt lat="43.47240774997523" lon="11.615729495715676"><ele>251.16666666666669</ele><time>2026-05-01T08:04:21.999Z</time></trkpt><trkpt lat="43.472484482174124" lon="11.615783080350157"><ele>251.0</ele><time>2026-05-01T08:04:23.999Z</time></trkpt><trkpt lat="43.47256266492363" lon="11.615834779483315"><ele>251.00000000000003</ele><time>2026-05-01T08:04:25.999Z</time></trkpt><trkpt lat="43.472640371206325" lon="11.615882737149686"><ele>251.0</ele><time>2026-05-01T08:04:27.999Z</time></trkpt><trkpt lat="43.472720966300884" lon="11.615927127377047"><ele>251.0</ele><time>2026-05-01T08:04:29.999Z</time></trkpt><trkpt lat="43.4728019490835" lon="11.61596927317676"><ele>251.0</ele><time>2026-05-01T08:04:31.999Z</time></trkpt><trkpt lat="43.4728857618321" lon="11.61601616665682"><ele>251.00000000000003</ele><time>2026-05-01T08:04:33.999Z</time></trkpt><trkpt lat="43.472968061361556" lon="11.61606217257008"><ele>251.0</ele><time>2026-05-01T08:04:35.999Z</time></trkpt><trkpt lat="43.47304714164166" lon="11.616108860065717"><ele>250.50000000000003</ele><time>2026-05-01T08:04:37.999Z</time></trkpt><trkpt lat="43.47312103487378" lon="11.6161512418296"><ele>250.0</ele><time>2026-05-01T08:04:39.999Z</time></trkpt><trkpt lat="43.47319460741862" lon="11.61619662956146"><ele>249.5</ele><time>2026-05-01T08:04:41.999Z</time></trkpt><trkpt lat="43.47327332227609" lon="11.616242948413513"><ele>249.0</ele><time>2026-05-01T08:04:43.999Z</time></trkpt><trkpt lat="43.47334987288612" lon="11.616293079455275"><ele>248.50000000000003</ele><time>2026-05-01T08:04:45.999Z</time></trkpt><trkpt lat="43.47342948145688" lon="11.616351545456984"><ele>248.0</ele><time>2026-05-01T08:04:47.999Z</time></trkpt><trkpt lat="43.47351499161173" lon="11.61641045228103"><ele>248.00000000000003</ele><time>2026-05-01T08:04:49.999Z</time></trkpt><trkpt lat="43.473613187919305" lon="11.61646317736419"><ele>248.0</ele><time>2026-05-01T08:04:51.998Z</time></trkpt><trkpt lat="43.4737253751618" lon="11.616530225796799"><ele>248.0</ele><time>2026-05-01T08:04:53.998Z</time></trkpt><trkpt lat="43.47378640170749" lon="11.616566865024133"><ele>248.0</ele><time>2026-05-01T08:04:54.998Z</time></trkpt><trkpt lat="43.4738494121565" lon="11.616603387608565"><ele>248.00000000000003</ele><time>2026-05-01T08:04:55.998Z</time></trkpt><trkpt lat="43.47391507596731" lon="11.61664285638762"><ele>248.0</ele><time>2026-05-01T08:04:56.998Z</time></trkpt><trkpt lat="43.47398212318408" lon="11.61668729024369"><ele>247.16666666666669</ele><time>2026-05-01T08:04:57.998Z</time></trkpt><trkpt lat="43.47405288375445" lon="11.616729290238693"><ele>246.33333333333334</ele><time>2026-05-01T08:04:58.998Z</time></trkpt><trkpt lat="43.47412602391178" lon="11.61676887371366"><ele>245.5</ele><time>2026-05-01T08:04:59.998Z</time></trkpt><trkpt lat="43.474200495034765" lon="11.616809862611753"><ele>244.66666666666669</ele><time>2026-05-01T08:05:00.998Z</time></trkpt><trkpt lat="43.4742738638321" lon="11.616856693726854"><ele>243.83333333333334</ele><time>2026-05-01T08:05:01.998Z</time></trkpt><trkpt lat="43.474351318458794" lon="11.616901764781918"><ele>243.0</ele><time>2026-05-01T08:05:02.998Z</time></trkpt><trkpt lat="43.474429888073644" lon="11.616947785720136"><ele>242.66666666666666</ele><time>2026-05-01T08:05:03.998Z</time></trkpt><trkpt lat="43.47451183674089" lon="11.616994917451402"><ele>242.33333333333331</ele><time>2026-05-01T08:05:04.998Z</time></trkpt><trkpt lat="43.47458997723259" lon="11.617047821356966"><ele>242.0</ele><time>2026-05-01T08:05:05.998Z</time></trkpt><trkpt lat="43.474669690959296" lon="11.617099560921071"><ele>241.66666666666666</ele><time>2026-05-01T08:05:06.998Z</time></trkpt><trkpt lat="43.47475105441293" lon="11.617148235553472"><ele>241.33333333333331</ele><time>2026-05-01T08:05:07.998Z</time></trkpt><trkpt lat="43.47483547085702" lon="11.617204503608582"><ele>241.0</ele><time>2026-05-01T08:05:08.998Z</time></trkpt><trkpt lat="43.47492084930198" lon="11.617251483857203"><ele>240.60000000000002</ele><time>2026-05-01T08:05:09.998Z</time></trkpt><trkpt lat="43.47500677536528" lon="11.61730501347776"><ele>240.20000000000002</ele><time>2026-05-01T08:05:10.998Z</time></trkpt><trkpt lat="43.475090158387395" lon="11.61735202867802"><ele>239.79999999999998</ele><time>2026-05-01T08:05:11.998Z</time></trkpt><trkpt lat="43.47517499445755" lon="11.617401911809855"><ele>239.39999999999998</ele><time>2026-05-01T08:05:12.998Z</time></trkpt><trkpt lat="43.47525911290108" lon="11.617454791055112"><ele>239.0</ele><time>2026-05-01T08:05:13.998Z</time></trkpt><trkpt lat="43.47534419112586" lon="11.617505549728618"><ele>239.0</ele><time>2026-05-01T08:05:14.998Z</time></trkpt><trkpt lat="43.475428206601315" lon="11.61755733733188"><ele>238.99999999999997</ele><time>2026-05-01T08:05:15.998Z</time></trkpt><trkpt lat="43.4755102445475" lon="11.61760895795245"><ele>238.99999999999997</ele><time>2026-05-01T08:05:16.998Z</time></trkpt><trkpt lat="43.47559487164704" lon="11.6176589145919"><ele>239.0</ele><time>2026-05-01T08:05:17.998Z</time></trkpt><trkpt lat="43.4756792350712" lon="11.617708307214482"><ele>239.0</ele><time>2026-05-01T08:05:18.998Z</time></trkpt><trkpt lat="43.47576453361518" lon="11.61775894824591"><ele>239.66666666666669</ele><time>2026-05-01T08:05:19.998Z</time></trkpt><trkpt lat="43.47584657747213" lon="11.617809026271376"><ele>240.33333333333334</ele><time>2026-05-01T08:05:20.998Z</time></trkpt><trkpt lat="43.475926401437164" lon="11.617860449540627"><ele>241.0</ele><time>2026-05-01T08:05:21.998Z</time></trkpt><trkpt lat="43.4760086944569" lon="11.617907671676237"><ele>241.66666666666669</ele><time>2026-05-01T08:05:22.998Z</time></trkpt><trkpt lat="43.476088356710804" lon="11.61795935831941"><ele>242.33333333333334</ele><time>2026-05-01T08:05:23.998Z</time></trkpt><trkpt lat="43.47617069396005" lon="11.618009561134683"><ele>243.0</ele><time>2026-05-01T08:05:24.998Z</time></trkpt><trkpt lat="43.47625304667707" lon="11.618055030395066"><ele>240.60000000000002</ele><time>2026-05-01T08:05:25.998Z</time></trkpt><trkpt lat="43.47633417078928" lon="11.618105553318006"><ele>238.20000000000002</ele><time>2026-05-01T08:05:26.998Z</time></trkpt><trkpt lat="43.47641725061967" lon="11.6181541503434"><ele>235.8</ele><time>2026-05-01T08:05:27.998Z</time></trkpt><trkpt lat="43.47650098310682" lon="11.618201891243556"><ele>233.4</ele><time>2026-05-01T08:05:28.998Z</time></trkpt><trkpt lat="43.47658620857881" lon="11.618260582975285"><ele>231.0</ele><time>2026-05-01T08:05:29.998Z</time></trkpt><trkpt lat="43.47666990181884" lon="11.618323628892073"><ele>231.0</ele><time>2026-05-01T08:05:30.998Z</time></trkpt><trkpt lat="43.476751123761524" lon="11.618396155624696"><ele>231.00000000000003</ele><time>2026-05-01T08:05:31.998Z</time></trkpt><trkpt lat="43.476825834274145" lon="11.618474952056378"><ele>231.00000000000003</ele><time>2026-05-01T08:05:32.998Z</time></trkpt><trkpt lat="43.476898174601054" lon="11.618566657399857"><ele>231.0</ele><time>2026-05-01T08:05:33.998Z</time></trkpt><trkpt lat="43.476965551316795" lon="11.618664210444198"><ele>231.0</ele><time>2026-05-01T08:05:35Z</time></trkpt><trkpt lat="43.47702308505431" lon="11.618770545428836"><ele>231.4</ele><time>2026-05-01T08:05:36Z</time></trkpt><trkpt lat="43.47707895714605" lon="11.61888428927354"><ele>231.8</ele><time>2026-05-01T08:05:37Z</time></trkpt><trkpt lat="43.4771297946178" lon="11.619004742797326"><ele>232.20000000000002</ele><time>2026-05-01T08:05:38Z</time></trkpt><trkpt lat="43.477176547694995" lon="11.619121610477194"><ele>232.60000000000002</ele><time>2026-05-01T08:05:39Z</time></trkpt><trkpt lat="43.47721398079848" lon="11.619249988245263"><ele>233.0</ele><time>2026-05-01T08:05:40Z</time></trkpt><trkpt lat="43.477245416831245" lon="11.619377173823501"><ele>231.8</ele><time>2026-05-01T08:05:41Z</time></trkpt><trkpt lat="43.477276482230145" lon="11.619506222449607"><ele>230.60000000000002</ele><time>2026-05-01T08:05:42Z</time></trkpt><trkpt lat="43.47731032793042" lon="11.619631224440237"><ele>229.39999999999998</ele><time>2026-05-01T08:05:43Z</time></trkpt><trkpt lat="43.47734239872692" lon="11.619754414598908"><ele>228.2</ele><time>2026-05-01T08:05:44Z</time></trkpt><trkpt lat="43.47737541352466" lon="11.61987673965322"><ele>227.0</ele><time>2026-05-01T08:05:45Z</time></trkpt><trkpt lat="43.47741089135539" lon="11.61999720039884"><ele>227.0</ele><time>2026-05-01T08:05:46Z</time></trkpt><trkpt lat="43.4774449932407" lon="11.620120814053676"><ele>227.0</ele><time>2026-05-01T08:05:47Z</time></trkpt><trkpt lat="43.47748620887599" lon="11.620242642185639"><ele>227.0</ele><time>2026-05-01T08:05:48Z</time></trkpt><trkpt lat="43.47751249775409" lon="11.6203594529682"><ele>227.0</ele><time>2026-05-01T08:05:49Z</time></trkpt><trkpt lat="43.47754799895097" lon="11.620477083444984"><ele>227.0</ele><time>2026-05-01T08:05:50Z</time></trkpt><trkpt lat="43.477582616219046" lon="11.620595318786894"><ele>226.2</ele><time>2026-05-01T08:05:51Z</time></trkpt><trkpt lat="43.47761496333198" lon="11.620715406356442"><ele>225.39999999999998</ele><time>2026-05-01T08:05:52Z</time></trkpt><trkpt lat="43.477643904487444" lon="11.620833405076208"><ele>224.60000000000002</ele><time>2026-05-01T08:05:53Z</time></trkpt><trkpt lat="43.47767714901145" lon="11.620951841563944"><ele>223.8</ele><time>2026-05-01T08:05:54Z</time></trkpt><trkpt lat="43.477710179637036" lon="11.621070697037954"><ele>223.0</ele><time>2026-05-01T08:05:55Z</time></trkpt><trkpt lat="43.47774042499081" lon="11.621189906814374"><ele>222.4</ele><time>2026-05-01T08:05:56Z</time></trkpt><trkpt lat="43.4777724042547" lon="11.621306053842941"><ele>221.8</ele><time>2026-05-01T08:05:57Z</time></trkpt><trkpt lat="43.47780555301183" lon="11.62142224504646"><ele>221.2</ele><time>2026-05-01T08:05:58Z</time></trkpt><trkpt lat="43.47783565500719" lon="11.621538968621001"><ele>220.6</ele><time>2026-05-01T08:05:59Z</time></trkpt><trkpt lat="43.477865843657" lon="11.621657229414899"><ele>220.0</ele><time>2026-05-01T08:06:00Z</time></trkpt><trkpt lat="43.47790394718711" lon="11.621770465168211"><ele>218.4</ele><time>2026-05-01T08:06:01Z</time></trkpt><trkpt lat="43.47794921501694" lon="11.62187969082936"><ele>216.8</ele><time>2026-05-01T08:06:02Z</time></trkpt><trkpt lat="43.47800037113555" lon="11.62198169533363"><ele>215.2</ele><time>2026-05-01T08:06:03Z</time></trkpt><trkpt lat="43.47805665565051" lon="11.622076675233465"><ele>213.6</ele><time>2026-05-01T08:06:03.999Z</time></trkpt><trkpt lat="43.47812179708044" lon="11.622175479684723"><ele>212.0</ele><time>2026-05-01T08:06:04.999Z</time></trkpt><trkpt lat="43.47820402601606" lon="11.622248101282828"><ele>211.0</ele><time>2026-05-01T08:06:05.999Z</time></trkpt><trkpt lat="43.47829085821893" lon="11.622307788046568"><ele>210.0</ele><time>2026-05-01T08:06:06.999Z</time></trkpt><trkpt lat="43.47838917916823" lon="11.622338314134717"><ele>209.0</ele><time>2026-05-01T08:06:07.999Z</time></trkpt><trkpt lat="43.47848820802754" lon="11.622344777436858"><ele>208.0</ele><time>2026-05-01T08:06:08.999Z</time></trkpt><trkpt lat="43.47858748952661" lon="11.622332896852605"><ele>207.0</ele><time>2026-05-01T08:06:09.999Z</time></trkpt><trkpt lat="43.47867857981486" lon="11.622326523940899"><ele>205.0</ele><time>2026-05-01T08:06:10.999Z</time></trkpt><trkpt lat="43.47877088523224" lon="11.622325730024826"><ele>203.0</ele><time>2026-05-01T08:06:11.999Z</time></trkpt><trkpt lat="43.47886428785947" lon="11.622319401078792"><ele>201.0</ele><time>2026-05-01T08:06:12.999Z</time></trkpt><trkpt lat="43.47895977979672" lon="11.62231103439089"><ele>199.0</ele><time>2026-05-01T08:06:13.999Z</time></trkpt><trkpt lat="43.47905416562136" lon="11.622292414991863"><ele>197.0</ele><time>2026-05-01T08:06:14.999Z</time></trkpt><trkpt lat="43.47914647314481" lon="11.622266922853214"><ele>197.0</ele><time>2026-05-01T08:06:15.999Z</time></trkpt><trkpt lat="43.47923942739023" lon="11.622221351767577"><ele>197.0</ele><time>2026-05-01T08:06:16.999Z</time></trkpt><trkpt lat="43.4793272485962" lon="11.622160868886686"><ele>197.0</ele><time>2026-05-01T08:06:17.999Z</time></trkpt><trkpt lat="43.47941732489255" lon="11.62209547414554"><ele>197.0</ele><time>2026-05-01T08:06:18.999Z</time></trkpt><trkpt lat="43.47950898414717" lon="11.62202363988929"><ele>197.0</ele><time>2026-05-01T08:06:19.999Z</time></trkpt><trkpt lat="43.47959831160493" lon="11.621950930555501"><ele>197.39999999999998</ele><time>2026-05-01T08:06:20.999Z</time></trkpt><trkpt lat="43.47968671360858" lon="11.621876612205467"><ele>197.79999999999998</ele><time>2026-05-01T08:06:21.999Z</time></trkpt><trkpt lat="43.47977739842145" lon="11.621805659450274"><ele>198.2</ele><time>2026-05-01T08:06:22.999Z</time></trkpt><trkpt lat="43.47986778512829" lon="11.621726831283086"><ele>198.6</ele><time>2026-05-01T08:06:23.999Z</time></trkpt><trkpt lat="43.47995313145975" lon="11.621651636448492"><ele>199.0</ele><time>2026-05-01T08:06:24.999Z</time></trkpt><trkpt lat="43.48003801923918" lon="11.621577518140722"><ele>199.0</ele><time>2026-05-01T08:06:25.999Z</time></trkpt><trkpt lat="43.48012111453353" lon="11.62150401118704"><ele>199.0</ele><time>2026-05-01T08:06:26.999Z</time></trkpt><trkpt lat="43.480203389952194" lon="11.62142533774388"><ele>199.0</ele><time>2026-05-01T08:06:27.999Z</time></trkpt><trkpt lat="43.48028300286555" lon="11.62134331825626"><ele>199.0</ele><time>2026-05-01T08:06:28.999Z</time></trkpt><trkpt lat="43.4803611647796" lon="11.621262017246309"><ele>199.0</ele><time>2026-05-01T08:06:29.999Z</time></trkpt><trkpt lat="43.480440836296154" lon="11.621191378362681"><ele>197.6</ele><time>2026-05-01T08:06:30.999Z</time></trkpt><trkpt lat="43.48052066940066" lon="11.621110121669728"><ele>196.2</ele><time>2026-05-01T08:06:31.999Z</time></trkpt><trkpt lat="43.4806021282551" lon="11.621029041847816"><ele>194.79999999999998</ele><time>2026-05-01T08:06:32.999Z</time></trkpt><trkpt lat="43.48068510924608" lon="11.620946713499592"><ele>193.39999999999998</ele><time>2026-05-01T08:06:33.999Z</time></trkpt><trkpt lat="43.480771525183584" lon="11.620866407617038"><ele>192.0</ele><time>2026-05-01T08:06:34.999Z</time></trkpt><trkpt lat="43.480856415535534" lon="11.620795670370107"><ele>192.0</ele><time>2026-05-01T08:06:35.999Z</time></trkpt><trkpt lat="43.480945362721954" lon="11.620732443021572"><ele>192.0</ele><time>2026-05-01T08:06:36.999Z</time></trkpt><trkpt lat="43.481019018623535" lon="11.620668590589958"><ele>192.0</ele><time>2026-05-01T08:06:37.999Z</time></trkpt><trkpt lat="43.481104427350296" lon="11.62058716250994"><ele>192.0</ele><time>2026-05-01T08:06:38.999Z</time></trkpt><trkpt lat="43.48117163626519" lon="11.620493548846044"><ele>192.0</ele><time>2026-05-01T08:06:39.999Z</time></trkpt><trkpt lat="43.481228341198495" lon="11.62038509497354"><ele>189.8</ele><time>2026-05-01T08:06:40.999Z</time></trkpt><trkpt lat="43.481265942813565" lon="11.620260255829663"><ele>187.6</ele><time>2026-05-01T08:06:41.999Z</time></trkpt><trkpt lat="43.481294734872264" lon="11.620127144614498"><ele>185.4</ele><time>2026-05-01T08:06:42.999Z</time></trkpt><trkpt lat="43.48132129172373" lon="11.619994361123679"><ele>183.20000000000002</ele><time>2026-05-01T08:06:43.999Z</time></trkpt><trkpt lat="43.48135105181491" lon="11.61985681673929"><ele>181.0</ele><time>2026-05-01T08:06:44.999Z</time></trkpt><trkpt lat="43.481379858707356" lon="11.619721660681815"><ele>181.0</ele><time>2026-05-01T08:06:45.999Z</time></trkpt><trkpt lat="43.48141438098685" lon="11.619591281952914"><ele>181.0</ele><time>2026-05-01T08:06:46.999Z</time></trkpt><trkpt lat="43.48145782647071" lon="11.61946272749213"><ele>181.0</ele><time>2026-05-01T08:06:47.999Z</time></trkpt><trkpt lat="43.481512811506924" lon="11.619347578798003"><ele>181.0</ele><time>2026-05-01T08:06:48.999Z</time></trkpt><trkpt lat="43.48158036810508" lon="11.619242983474834"><ele>181.0</ele><time>2026-05-01T08:06:49.999Z</time></trkpt><trkpt lat="43.48165570942958" lon="11.619154475856012"><ele>182.20000000000002</ele><time>2026-05-01T08:06:50.999Z</time></trkpt><trkpt lat="43.481736155448665" lon="11.619074732138472"><ele>183.4</ele><time>2026-05-01T08:06:51.999Z</time></trkpt><trkpt lat="43.48182027580276" lon="11.619015032816947"><ele>184.6</ele><time>2026-05-01T08:06:52.999Z</time></trkpt><trkpt lat="43.48190470371905" lon="11.618952966357536"><ele>185.8</ele><time>2026-05-01T08:06:53.999Z</time></trkpt><trkpt lat="43.48198850984696" lon="11.618903626872445"><ele>187.0</ele><time>2026-05-01T08:06:54.999Z</time></trkpt><trkpt lat="43.48207076051189" lon="11.618845958049421"><ele>186.39999999999998</ele><time>2026-05-01T08:06:55.999Z</time></trkpt><trkpt lat="43.48214839763695" lon="11.618779765659317"><ele>185.79999999999998</ele><time>2026-05-01T08:06:56.999Z</time></trkpt><trkpt lat="43.482227428256635" lon="11.618726342729179"><ele>185.2</ele><time>2026-05-01T08:06:57.999Z</time></trkpt><trkpt lat="43.48230948174546" lon="11.618668847546685"><ele>184.6</ele><time>2026-05-01T08:06:58.999Z</time></trkpt><trkpt lat="43.48239164925858" lon="11.618609433124705"><ele>184.0</ele><time>2026-05-01T08:06:59.999Z</time></trkpt><trkpt lat="43.482478131138684" lon="11.61855811069143"><ele>184.0</ele><time>2026-05-01T08:07:00.999Z</time></trkpt><trkpt lat="43.482566529417795" lon="11.618503638446398"><ele>184.0</ele><time>2026-05-01T08:07:01.999Z</time></trkpt><trkpt lat="43.48265232020763" lon="11.618453677207585"><ele>184.0</ele><time>2026-05-01T08:07:02.999Z</time></trkpt><trkpt lat="43.48274142299916" lon="11.618413246781666"><ele>184.0</ele><time>2026-05-01T08:07:03.998Z</time></trkpt><trkpt lat="43.48283812830328" lon="11.618390322264665"><ele>184.0</ele><time>2026-05-01T08:07:04.998Z</time></trkpt><trkpt lat="43.48293637198966" lon="11.618384032853406"><ele>183.2</ele><time>2026-05-01T08:07:05.998Z</time></trkpt><trkpt lat="43.4830344319062" lon="11.618403936999492"><ele>182.39999999999998</ele><time>2026-05-01T08:07:06.998Z</time></trkpt><trkpt lat="43.483129219417314" lon="11.618439996391018"><ele>181.6</ele><time>2026-05-01T08:07:07.998Z</time></trkpt><trkpt lat="43.483218117885464" lon="11.61849470207793"><ele>180.8</ele><time>2026-05-01T08:07:08.998Z</time></trkpt><trkpt lat="43.4833000748802" lon="11.61857084615828"><ele>180.0</ele><time>2026-05-01T08:07:09.998Z</time></trkpt><trkpt lat="43.48337031255618" lon="11.618655194346003"><ele>178.83333333333334</ele><time>2026-05-01T08:07:10.998Z</time></trkpt><trkpt lat="43.483434268667715" lon="11.618743527817708"><ele>177.66666666666666</ele><time>2026-05-01T08:07:11.998Z</time></trkpt><trkpt lat="43.483498318971236" lon="11.618821722399632"><ele>176.5</ele><time>2026-05-01T08:07:12.998Z</time></trkpt><trkpt lat="43.4835606967386" lon="11.618900155584718"><ele>175.33333333333331</ele><time>2026-05-01T08:07:13.998Z</time></trkpt><trkpt lat="43.483623930860176" lon="11.618982223236033"><ele>174.16666666666666</ele><time>2026-05-01T08:07:14.998Z</time></trkpt><trkpt lat="43.48368671798285" lon="11.619059764888059"><ele>173.0</ele><time>2026-05-01T08:07:15.998Z</time></trkpt><trkpt lat="43.48374915267411" lon="11.619141409066605"><ele>173.0</ele><time>2026-05-01T08:07:16.998Z</time></trkpt><trkpt lat="43.48381477522009" lon="11.619220794003148"><ele>173.0</ele><time>2026-05-01T08:07:17.998Z</time></trkpt><trkpt lat="43.48387786193549" lon="11.619302392325746"><ele>173.0</ele><time>2026-05-01T08:07:18.998Z</time></trkpt><trkpt lat="43.48394427783376" lon="11.619377716873055"><ele>173.0</ele><time>2026-05-01T08:07:19.998Z</time></trkpt><trkpt lat="43.484011167266445" lon="11.619457913887995"><ele>173.0</ele><time>2026-05-01T08:07:20.998Z</time></trkpt><trkpt lat="43.484076939185826" lon="11.619539740660109"><ele>173.0</ele><time>2026-05-01T08:07:21.998Z</time></trkpt><trkpt lat="43.484142548087796" lon="11.619622652857867"><ele>173.5</ele><time>2026-05-01T08:07:22.998Z</time></trkpt><trkpt lat="43.48420850730415" lon="11.619700891761063"><ele>174.0</ele><time>2026-05-01T08:07:23.998Z</time></trkpt><trkpt lat="43.48427620983887" lon="11.619777277145053"><ele>174.5</ele><time>2026-05-01T08:07:24.998Z</time></trkpt><trkpt lat="43.48433644671917" lon="11.61985860824913"><ele>175.0</ele><time>2026-05-01T08:07:25.998Z</time></trkpt><trkpt lat="43.4843975036219" lon="11.619935402386908"><ele>175.5</ele><time>2026-05-01T08:07:26.998Z</time></trkpt><trkpt lat="43.48445968631182" lon="11.620009726414082"><ele>176.0</ele><time>2026-05-01T08:07:27.998Z</time></trkpt><trkpt lat="43.48452202035148" lon="11.620086663468673"><ele>176.0</ele><time>2026-05-01T08:07:28.998Z</time></trkpt><trkpt lat="43.48458130736638" lon="11.620153143224819"><ele>176.0</ele><time>2026-05-01T08:07:29.998Z</time></trkpt><trkpt lat="43.48463866611647" lon="11.620224143862883"><ele>176.0</ele><time>2026-05-01T08:07:30.998Z</time></trkpt><trkpt lat="43.48469715986042" lon="11.62029186056048"><ele>176.0</ele><time>2026-05-01T08:07:31.998Z</time></trkpt><trkpt lat="43.48475064040549" lon="11.620366963550486"><ele>176.0</ele><time>2026-05-01T08:07:32.998Z</time></trkpt><trkpt lat="43.48480753450046" lon="11.620440466679797"><ele>176.0</ele><time>2026-05-01T08:07:33.998Z</time></trkpt><trkpt lat="43.48486246186252" lon="11.620508156347364"><ele>176.0</ele><time>2026-05-01T08:07:34.998Z</time></trkpt><trkpt lat="43.48492076340388" lon="11.620577811855078"><ele>176.0</ele><time>2026-05-01T08:07:35.998Z</time></trkpt><trkpt lat="43.48497031386466" lon="11.62064643061638"><ele>176.0</ele><time>2026-05-01T08:07:36.998Z</time></trkpt><trkpt lat="43.48502096848636" lon="11.620707900314951"><ele>176.0</ele><time>2026-05-01T08:07:37.998Z</time></trkpt><trkpt lat="43.48506991718296" lon="11.620774201310484"><ele>176.0</ele><time>2026-05-01T08:07:38.998Z</time></trkpt><trkpt lat="43.485121482943995" lon="11.62084043373481"><ele>176.0</ele><time>2026-05-01T08:07:40Z</time></trkpt><trkpt lat="43.48517405798085" lon="11.620896483291979"><ele>176.0</ele><time>2026-05-01T08:07:41Z</time></trkpt><trkpt lat="43.485232429778655" lon="11.620961318433642"><ele>176.0</ele><time>2026-05-01T08:07:42Z</time></trkpt><trkpt lat="43.48531693730442" lon="11.621091994762718"><ele>176.0</ele><time>2026-05-01T08:07:44Z</time></trkpt><trkpt lat="43.48536502251311" lon="11.621152288840792"><ele>176.0</ele><time>2026-05-01T08:07:45Z</time></trkpt><trkpt lat="43.485413352600474" lon="11.62121003152697"><ele>176.0</ele><time>2026-05-01T08:07:46Z</time></trkpt><trkpt lat="43.48546067899661" lon="11.621269992631763"><ele>176.0</ele><time>2026-05-01T08:07:47Z</time></trkpt><trkpt lat="43.48555011858993" lon="11.621383851616287"><ele>176.0</ele><time>2026-05-01T08:07:49Z</time></trkpt><trkpt lat="43.485637123608775" lon="11.621500032131708"><ele>176.4</ele><time>2026-05-01T08:07:51Z</time></trkpt><trkpt lat="43.48572072102387" lon="11.621604901166432"><ele>176.8</ele><time>2026-05-01T08:07:53Z</time></trkpt><trkpt lat="43.48580159794213" lon="11.62170365911238"><ele>177.20000000000002</ele><time>2026-05-01T08:07:55Z</time></trkpt><trkpt lat="43.48588101354123" lon="11.621792014368715"><ele>177.60000000000002</ele><time>2026-05-01T08:07:57Z</time></trkpt><trkpt lat="43.48596482525534" lon="11.621853051905706"><ele>178.0</ele><time>2026-05-01T08:07:59Z</time></trkpt><trkpt lat="43.48604995381325" lon="11.621898337796724"><ele>178.0</ele><time>2026-05-01T08:08:01Z</time></trkpt><trkpt lat="43.48613528834286" lon="11.621934372756353"><ele>178.0</ele><time>2026-05-01T08:08:03Z</time></trkpt><trkpt lat="43.48622235967808" lon="11.62196553332962"><ele>178.0</ele><time>2026-05-01T08:08:05Z</time></trkpt><trkpt lat="43.48630367409556" lon="11.621993523015535"><ele>178.0</ele><time>2026-05-01T08:08:07Z</time></trkpt><trkpt lat="43.48638264502494" lon="11.622023312116257"><ele>178.0</ele><time>2026-05-01T08:08:09Z</time></trkpt><trkpt lat="43.4864597492366" lon="11.6220482253836"><ele>178.0</ele><time>2026-05-01T08:08:11Z</time></trkpt><trkpt lat="43.48653317151122" lon="11.622067074622333"><ele>179.99999999999997</ele><time>2026-05-01T08:08:13Z</time></trkpt><trkpt lat="43.486605395830935" lon="11.622093017616953"><ele>182.0</ele><time>2026-05-01T08:08:15Z</time></trkpt><trkpt lat="43.48667595826949" lon="11.622120723199954"><ele>184.0</ele><time>2026-05-01T08:08:17Z</time></trkpt><trkpt lat="43.48674718738543" lon="11.622146208694586"><ele>186.0</ele><time>2026-05-01T08:08:19Z</time></trkpt><trkpt lat="43.486820433106516" lon="11.62216835250537"><ele>188.0</ele><time>2026-05-01T08:08:21Z</time></trkpt><trkpt lat="43.48689388888142" lon="11.622197461326978"><ele>189.99999999999997</ele><time>2026-05-01T08:08:23Z</time></trkpt><trkpt lat="43.48696608170727" lon="11.622226089896088"><ele>192.0</ele><time>2026-05-01T08:08:25Z</time></trkpt><trkpt lat="43.48703675836255" lon="11.622252598421365"><ele>191.33333333333334</ele><time>2026-05-01T08:08:27Z</time></trkpt><trkpt lat="43.48710745296757" lon="11.622275522291158"><ele>190.66666666666666</ele><time>2026-05-01T08:08:29Z</time></trkpt><trkpt lat="43.487187922204996" lon="11.622312034629449"><ele>190.0</ele><time>2026-05-01T08:08:30.999Z</time></trkpt><trkpt lat="43.48727706933864" lon="11.6223468289766"><ele>189.33333333333331</ele><time>2026-05-01T08:08:32.999Z</time></trkpt><trkpt lat="43.48736833327188" lon="11.622392766909595"><ele>188.66666666666666</ele><time>2026-05-01T08:08:34.999Z</time></trkpt><trkpt lat="43.48746928170392" lon="11.62240434021757"><ele>188.0</ele><time>2026-05-01T08:08:36.999Z</time></trkpt><trkpt lat="43.48757576625295" lon="11.622411056500528"><ele>188.0</ele><time>2026-05-01T08:08:38.999Z</time></trkpt><trkpt lat="43.487687126009575" lon="11.62238072767911"><ele>188.0</ele><time>2026-05-01T08:08:40.999Z</time></trkpt><trkpt lat="43.4877889692981" lon="11.622328889501363"><ele>188.0</ele><time>2026-05-01T08:08:42.999Z</time></trkpt><trkpt lat="43.48789340158786" lon="11.6222673877593"><ele>188.0</ele><time>2026-05-01T08:08:44.999Z</time></trkpt><trkpt lat="43.48799331491584" lon="11.622215512916515"><ele>188.0</ele><time>2026-05-01T08:08:46.999Z</time></trkpt><trkpt lat="43.48809155167584" lon="11.622166672715636"><ele>189.16666666666666</ele><time>2026-05-01T08:08:48.999Z</time></trkpt><trkpt lat="43.48817883198114" lon="11.622122657522052"><ele>190.33333333333331</ele><time>2026-05-01T08:08:50.999Z</time></trkpt><trkpt lat="43.48825953644929" lon="11.62208224268566"><ele>191.5</ele><time>2026-05-01T08:08:52.999Z</time></trkpt><trkpt lat="43.48833167593423" lon="11.62204842160161"><ele>192.66666666666666</ele><time>2026-05-01T08:08:54.999Z</time></trkpt><trkpt lat="43.488403245231154" lon="11.62200422486298"><ele>193.83333333333334</ele><time>2026-05-01T08:08:56.999Z</time></trkpt><trkpt lat="43.48846877604076" lon="11.621975792894252"><ele>195.0</ele><time>2026-05-01T08:08:58.999Z</time></trkpt><trkpt lat="43.48853031193695" lon="11.621939966063916"><ele>193.5</ele><time>2026-05-01T08:09:00.999Z</time></trkpt><trkpt lat="43.48859148512151" lon="11.621903936629788"><ele>192.0</ele><time>2026-05-01T08:09:02.999Z</time></trkpt><trkpt lat="43.488677898898985" lon="11.621861806149829"><ele>190.5</ele><time>2026-05-01T08:09:05.999Z</time></trkpt><trkpt lat="43.488757791249945" lon="11.621818823480048"><ele>189.0</ele><time>2026-05-01T08:09:08.999Z</time></trkpt><trkpt lat="43.48883819623536" lon="11.621782016948176"><ele>187.5</ele><time>2026-05-01T08:09:11.999Z</time></trkpt><trkpt lat="43.48890943361491" lon="11.621746298790624"><ele>186.0</ele><time>2026-05-01T08:09:14.999Z</time></trkpt><trkpt lat="43.488971741288275" lon="11.621705188636845"><ele>186.00000000000003</ele><time>2026-05-01T08:09:17.999Z</time></trkpt><trkpt lat="43.48903853697846" lon="11.6216660450173"><ele>186.0</ele><time>2026-05-01T08:09:20.999Z</time></trkpt><trkpt lat="43.48910252140444" lon="11.621613102652358"><ele>186.0</ele><time>2026-05-01T08:09:23.999Z</time></trkpt><trkpt lat="43.489164677611925" lon="11.621537624234113"><ele>186.0</ele><time>2026-05-01T08:09:26.998Z</time></trkpt><trkpt lat="43.48920887458862" lon="11.621473846747705"><ele>186.0</ele><time>2026-05-01T08:09:28.998Z</time></trkpt><trkpt lat="43.4892551826462" lon="11.621403044304056"><ele>186.00000000000003</ele><time>2026-05-01T08:09:30.998Z</time></trkpt><trkpt lat="43.489309263392094" lon="11.621317751301092"><ele>186.0</ele><time>2026-05-01T08:09:32.998Z</time></trkpt><trkpt lat="43.48936056542618" lon="11.621214666551605"><ele>184.0</ele><time>2026-05-01T08:09:34.998Z</time></trkpt><trkpt lat="43.48940950909823" lon="11.621090041082493"><ele>182.0</ele><time>2026-05-01T08:09:36.998Z</time></trkpt><trkpt lat="43.4894456460726" lon="11.62094043777527"><ele>180.0</ele><time>2026-05-01T08:09:38.998Z</time></trkpt><trkpt lat="43.48945864383463" lon="11.620850965854537"><ele>178.0</ele><time>2026-05-01T08:09:39.998Z</time></trkpt><trkpt lat="43.48946418620128" lon="11.620754385849692"><ele>176.0</ele><time>2026-05-01T08:09:40.998Z</time></trkpt><trkpt lat="43.48946512941928" lon="11.620650083722781"><ele>174.0</ele><time>2026-05-01T08:09:41.998Z</time></trkpt><trkpt lat="43.48946528646015" lon="11.620541073465954"><ele>174.0</ele><time>2026-05-01T08:09:42.998Z</time></trkpt><trkpt lat="43.48946450009875" lon="11.620429848193053"><ele>174.0</ele><time>2026-05-01T08:09:43.998Z</time></trkpt><trkpt lat="43.48946073071224" lon="11.620315667205537"><ele>174.0</ele><time>2026-05-01T08:09:44.998Z</time></trkpt><trkpt lat="43.48945937508242" lon="11.620200136015516"><ele>174.0</ele><time>2026-05-01T08:09:46Z</time></trkpt><trkpt lat="43.48945643311388" lon="11.620080750815346"><ele>174.0</ele><time>2026-05-01T08:09:47.001Z</time></trkpt><trkpt lat="43.489452002202604" lon="11.61995935078168"><ele>174.0</ele><time>2026-05-01T08:09:48Z</time></trkpt><trkpt lat="43.48944996870402" lon="11.619832812152483"><ele>173.2</ele><time>2026-05-01T08:09:49Z</time></trkpt><trkpt lat="43.48944805308267" lon="11.619707125201373"><ele>172.39999999999998</ele><time>2026-05-01T08:09:50Z</time></trkpt><trkpt lat="43.489445633338185" lon="11.61958057736595"><ele>171.6</ele><time>2026-05-01T08:09:51Z</time></trkpt><trkpt lat="43.48944248177661" lon="11.619450692618104"><ele>170.8</ele><time>2026-05-01T08:09:52Z</time></trkpt><trkpt lat="43.48944003138444" lon="11.619321016786468"><ele>170.0</ele><time>2026-05-01T08:09:53Z</time></trkpt><trkpt lat="43.48943792491393" lon="11.619190024785869"><ele>169.6</ele><time>2026-05-01T08:09:54Z</time></trkpt><trkpt lat="43.489441690599676" lon="11.619053100399189"><ele>169.2</ele><time>2026-05-01T08:09:55Z</time></trkpt><trkpt lat="43.48945185273707" lon="11.618912447275912"><ele>168.8</ele><time>2026-05-01T08:09:56Z</time></trkpt><trkpt lat="43.48948309664669" lon="11.618774046567207"><ele>168.4</ele><time>2026-05-01T08:09:57Z</time></trkpt><trkpt lat="43.48953667541577" lon="11.618643520921639"><ele>168.0</ele><time>2026-05-01T08:09:58Z</time></trkpt><trkpt lat="43.489613953961296" lon="11.61853413970018"><ele>167.8</ele><time>2026-05-01T08:09:59Z</time></trkpt><trkpt lat="43.489706550197965" lon="11.618454761719102"><ele>167.60000000000002</ele><time>2026-05-01T08:10:00Z</time></trkpt><trkpt lat="43.489806544327664" lon="11.618398906705174"><ele>167.39999999999998</ele><time>2026-05-01T08:10:01Z</time></trkpt><trkpt lat="43.4899068924448" lon="11.618353065564834"><ele>167.2</ele><time>2026-05-01T08:10:02Z</time></trkpt><trkpt lat="43.49000860867161" lon="11.618321854972013"><ele>167.0</ele><time>2026-05-01T08:10:03Z</time></trkpt><trkpt lat="43.49011089351867" lon="11.618293398198334"><ele>167.0</ele><time>2026-05-01T08:10:04Z</time></trkpt><trkpt lat="43.49021576384298" lon="11.618273374165133"><ele>167.0</ele><time>2026-05-01T08:10:05Z</time></trkpt><trkpt lat="43.49031830302625" lon="11.618278031847133"><ele>167.0</ele><time>2026-05-01T08:10:06Z</time></trkpt><trkpt lat="43.490416816218286" lon="11.618292528693187"><ele>167.0</ele><time>2026-05-01T08:10:07Z</time></trkpt><trkpt lat="43.49051548846434" lon="11.618311317949766"><ele>167.0</ele><time>2026-05-01T08:10:08Z</time></trkpt><trkpt lat="43.490610582872016" lon="11.618341235025937"><ele>166.5</ele><time>2026-05-01T08:10:09Z</time></trkpt><trkpt lat="43.490704870503926" lon="11.618381959315574"><ele>166.0</ele><time>2026-05-01T08:10:10Z</time></trkpt><trkpt lat="43.4907875412098" lon="11.61843024998595"><ele>165.5</ele><time>2026-05-01T08:10:11Z</time></trkpt><trkpt lat="43.49086697852947" lon="11.618473261315186"><ele>165.0</ele><time>2026-05-01T08:10:12Z</time></trkpt><trkpt lat="43.49094335962303" lon="11.618517637914957"><ele>164.5</ele><time>2026-05-01T08:10:13Z</time></trkpt><trkpt lat="43.491014786830675" lon="11.61855568417933"><ele>164.0</ele><time>2026-05-01T08:10:14Z</time></trkpt><trkpt lat="43.4910866945183" lon="11.61857279985674"><ele>163.99999999999997</ele><time>2026-05-01T08:10:15Z</time></trkpt><trkpt lat="43.491160594143025" lon="11.618574590518019"><ele>164.0</ele><time>2026-05-01T08:10:16Z</time></trkpt><trkpt lat="43.49123467543634" lon="11.618578067426936"><ele>164.0</ele><time>2026-05-01T08:10:17Z</time></trkpt><trkpt lat="43.49130185626074" lon="11.618566355339022"><ele>164.0</ele><time>2026-05-01T08:10:18Z</time></trkpt><trkpt lat="43.49137051065323" lon="11.618544453297178"><ele>164.0</ele><time>2026-05-01T08:10:19Z</time></trkpt><trkpt lat="43.49143936842994" lon="11.61853746749154"><ele>163.99999999999997</ele><time>2026-05-01T08:10:20Z</time></trkpt><trkpt lat="43.49151764567274" lon="11.618521884789637"><ele>164.0</ele><time>2026-05-01T08:10:21Z</time></trkpt><trkpt lat="43.49159258796116" lon="11.61850990572584"><ele>164.28571428571428</ele><time>2026-05-01T08:10:22Z</time></trkpt><trkpt lat="43.4916670829536" lon="11.618490450394642"><ele>164.57142857142856</ele><time>2026-05-01T08:10:23Z</time></trkpt><trkpt lat="43.491737923841704" lon="11.61847815486141"><ele>164.85714285714283</ele><time>2026-05-01T08:10:24Z</time></trkpt><trkpt lat="43.491807747162426" lon="11.618463866759045"><ele>165.14285714285714</ele><time>2026-05-01T08:10:25Z</time></trkpt><trkpt lat="43.491878226790206" lon="11.618452078892407"><ele>165.42857142857144</ele><time>2026-05-01T08:10:26Z</time></trkpt><trkpt lat="43.49194829592967" lon="11.618438526104306"><ele>165.7142857142857</ele><time>2026-05-01T08:10:27Z</time></trkpt><trkpt lat="43.49201857889691" lon="11.618433538885842"><ele>166.0</ele><time>2026-05-01T08:10:28Z</time></trkpt><trkpt lat="43.49208618028512" lon="11.618432010137672"><ele>165.57142857142856</ele><time>2026-05-01T08:10:29Z</time></trkpt><trkpt lat="43.4921527440097" lon="11.618433843105375"><ele>165.14285714285717</ele><time>2026-05-01T08:10:30Z</time></trkpt><trkpt lat="43.492221942802054" lon="11.618437337020778"><ele>164.71428571428572</ele><time>2026-05-01T08:10:31Z</time></trkpt><trkpt lat="43.49228769747391" lon="11.61844020120298"><ele>164.28571428571428</ele><time>2026-05-01T08:10:32Z</time></trkpt><trkpt lat="43.49235320972289" lon="11.61845587836662"><ele>163.85714285714283</ele><time>2026-05-01T08:10:33Z</time></trkpt><trkpt lat="43.492418548665775" lon="11.618483733829091"><ele>163.42857142857144</ele><time>2026-05-01T08:10:34Z</time></trkpt><trkpt lat="43.492481395437466" lon="11.618525042710914"><ele>163.0</ele><time>2026-05-01T08:10:34.999Z</time></trkpt><trkpt lat="43.492548092232646" lon="11.61855977008509"><ele>163.0</ele><time>2026-05-01T08:10:35.999Z</time></trkpt><trkpt lat="43.49261255205494" lon="11.618597305041549"><ele>163.0</ele><time>2026-05-01T08:10:36.999Z</time></trkpt><trkpt lat="43.492675958797484" lon="11.618641615491466"><ele>163.0</ele><time>2026-05-01T08:10:37.999Z</time></trkpt><trkpt lat="43.49273577313596" lon="11.618685328418884"><ele>163.0</ele><time>2026-05-01T08:10:38.999Z</time></trkpt><trkpt lat="43.49280229642088" lon="11.618722924684233"><ele>163.0</ele><time>2026-05-01T08:10:39.999Z</time></trkpt><trkpt lat="43.492865992947614" lon="11.618770696547168"><ele>163.0</ele><time>2026-05-01T08:10:40.999Z</time></trkpt><trkpt lat="43.492934136462495" lon="11.618809516217539"><ele>163.0</ele><time>2026-05-01T08:10:41.999Z</time></trkpt><trkpt lat="43.49300365778216" lon="11.618857469969754"><ele>163.16666666666669</ele><time>2026-05-01T08:10:42.999Z</time></trkpt><trkpt lat="43.493079882757094" lon="11.618896669961252"><ele>163.33333333333334</ele><time>2026-05-01T08:10:43.999Z</time></trkpt><trkpt lat="43.49315499164911" lon="11.61894625046719"><ele>163.5</ele><time>2026-05-01T08:10:44.999Z</time></trkpt><trkpt lat="43.49323196254489" lon="11.618998966570826"><ele>163.66666666666666</ele><time>2026-05-01T08:10:45.999Z</time></trkpt><trkpt lat="43.493313386523496" lon="11.619032949914608"><ele>163.83333333333331</ele><time>2026-05-01T08:10:46.999Z</time></trkpt><trkpt lat="43.49339921981552" lon="11.619039324967826"><ele>164.0</ele><time>2026-05-01T08:10:47.999Z</time></trkpt><trkpt lat="43.49348582080668" lon="11.619011940705002"><ele>164.0</ele><time>2026-05-01T08:10:48.999Z</time></trkpt><trkpt lat="43.49356581024104" lon="11.618965787633684"><ele>164.0</ele><time>2026-05-01T08:10:49.999Z</time></trkpt><trkpt lat="43.493636083039725" lon="11.618900522854425"><ele>164.0</ele><time>2026-05-01T08:10:50.999Z</time></trkpt><trkpt lat="43.493708327754455" lon="11.61883338232301"><ele>164.0</ele><time>2026-05-01T08:10:51.999Z</time></trkpt><trkpt lat="43.493778481129546" lon="11.618778732507113"><ele>164.0</ele><time>2026-05-01T08:10:52.999Z</time></trkpt><trkpt lat="43.4938410777199" lon="11.618730093283663"><ele>164.0</ele><time>2026-05-01T08:10:53.999Z</time></trkpt><trkpt lat="43.49390690417504" lon="11.618671970335287"><ele>163.28571428571428</ele><time>2026-05-01T08:10:54.999Z</time></trkpt><trkpt lat="43.49397306764788" lon="11.618622561641079"><ele>162.57142857142856</ele><time>2026-05-01T08:10:55.999Z</time></trkpt><trkpt lat="43.49403770409109" lon="11.618568848893045"><ele>161.85714285714283</ele><time>2026-05-01T08:10:56.999Z</time></trkpt><trkpt lat="43.49410193690873" lon="11.61851360870938"><ele>161.14285714285714</ele><time>2026-05-01T08:10:57.999Z</time></trkpt><trkpt lat="43.49416069501021" lon="11.618463555864537"><ele>160.42857142857144</ele><time>2026-05-01T08:10:58.999Z</time></trkpt><trkpt lat="43.49422462715763" lon="11.618414252355699"><ele>159.7142857142857</ele><time>2026-05-01T08:10:59.999Z</time></trkpt><trkpt lat="43.49428417461868" lon="11.618367939208545"><ele>159.0</ele><time>2026-05-01T08:11:00.999Z</time></trkpt><trkpt lat="43.49434444531354" lon="11.618321730573644"><ele>159.0</ele><time>2026-05-01T08:11:01.999Z</time></trkpt><trkpt lat="43.49440434411683" lon="11.618273832886786"><ele>159.0</ele><time>2026-05-01T08:11:02.999Z</time></trkpt><trkpt lat="43.49446334359414" lon="11.618232802008523"><ele>159.0</ele><time>2026-05-01T08:11:03.999Z</time></trkpt><trkpt lat="43.49458167469228" lon="11.618148679645678"><ele>159.0</ele><time>2026-05-01T08:11:05.999Z</time></trkpt><trkpt lat="43.494699153397534" lon="11.618076704682306"><ele>159.0</ele><time>2026-05-01T08:11:07.999Z</time></trkpt><trkpt lat="43.494758452748734" lon="11.618035804406993"><ele>159.0</ele><time>2026-05-01T08:11:08.999Z</time></trkpt><trkpt lat="43.49481415858306" lon="11.617993892893397"><ele>159.0</ele><time>2026-05-01T08:11:09.999Z</time></trkpt><trkpt lat="43.49487427599834" lon="11.61795737849386"><ele>159.0</ele><time>2026-05-01T08:11:10.999Z</time></trkpt><trkpt lat="43.494929635299094" lon="11.617913030747465"><ele>159.0</ele><time>2026-05-01T08:11:11.999Z</time></trkpt><trkpt lat="43.49499151480201" lon="11.617874834113476"><ele>159.0</ele><time>2026-05-01T08:11:12.999Z</time></trkpt><trkpt lat="43.49505005029788" lon="11.617836182263273"><ele>159.0</ele><time>2026-05-01T08:11:13.999Z</time></trkpt><trkpt lat="43.49510990414531" lon="11.617790809501646"><ele>159.0</ele><time>2026-05-01T08:11:14.999Z</time></trkpt><trkpt lat="43.49516462383666" lon="11.6177443957352"><ele>158.6</ele><time>2026-05-01T08:11:15.999Z</time></trkpt><trkpt lat="43.49522815428157" lon="11.617701842387172"><ele>158.2</ele><time>2026-05-01T08:11:16.999Z</time></trkpt><trkpt lat="43.495286713088575" lon="11.617661974867215"><ele>157.79999999999998</ele><time>2026-05-01T08:11:17.999Z</time></trkpt><trkpt lat="43.49534727799784" lon="11.617622541349094"><ele>157.4</ele><time>2026-05-01T08:11:18.999Z</time></trkpt><trkpt lat="43.495463705025344" lon="11.61754732680064"><ele>157.0</ele><time>2026-05-01T08:11:20.999Z</time></trkpt><trkpt lat="43.49557814247696" lon="11.61746909015017"><ele>157.0</ele><time>2026-05-01T08:11:22.999Z</time></trkpt><trkpt lat="43.49569678529962" lon="11.617402596950201"><ele>157.0</ele><time>2026-05-01T08:11:24.999Z</time></trkpt><trkpt lat="43.4958165516878" lon="11.617331191588532"><ele>157.0</ele><time>2026-05-01T08:11:26.998Z</time></trkpt><trkpt lat="43.49593088661748" lon="11.617283663746667"><ele>157.0</ele><time>2026-05-01T08:11:28.998Z</time></trkpt><trkpt lat="43.49599359099859" lon="11.61726784956211"><ele>157.0</ele><time>2026-05-01T08:11:29.998Z</time></trkpt><trkpt lat="43.496113389613065" lon="11.617236420927433"><ele>157.0</ele><time>2026-05-01T08:11:31.998Z</time></trkpt><trkpt lat="43.49623341078228" lon="11.61722147734658"><ele>157.0</ele><time>2026-05-01T08:11:33.998Z</time></trkpt><trkpt lat="43.49629633317317" lon="11.617212762433269"><ele>157.0</ele><time>2026-05-01T08:11:34.998Z</time></trkpt><trkpt lat="43.49641398689086" lon="11.617202597893073"><ele>157.0</ele><time>2026-05-01T08:11:36.998Z</time></trkpt><trkpt lat="43.49653382600768" lon="11.617206075617235"><ele>157.0</ele><time>2026-05-01T08:11:38.998Z</time></trkpt><trkpt lat="43.49663644415721" lon="11.617236072469565"><ele>157.0</ele><time>2026-05-01T08:11:40.998Z</time></trkpt><trkpt lat="43.49675291449957" lon="11.617266286635788"><ele>157.0</ele><time>2026-05-01T08:11:42.998Z</time></trkpt><trkpt lat="43.496861986207016" lon="11.617301990734937"><ele>157.0</ele><time>2026-05-01T08:11:44.998Z</time></trkpt><trkpt lat="43.496974903078" lon="11.617347670052494"><ele>157.0</ele><time>2026-05-01T08:11:46.998Z</time></trkpt><trkpt lat="43.497085841505324" lon="11.617403275992594"><ele>156.75</ele><time>2026-05-01T08:11:48.998Z</time></trkpt><trkpt lat="43.497195643553" lon="11.617428623734508"><ele>156.5</ele><time>2026-05-01T08:11:50.998Z</time></trkpt><trkpt lat="43.497301051401855" lon="11.617486973813412"><ele>156.25</ele><time>2026-05-01T08:11:53Z</time></trkpt><trkpt lat="43.4974037292753" lon="11.617544048788728"><ele>156.0</ele><time>2026-05-01T08:11:55Z</time></trkpt><trkpt lat="43.497513436430104" lon="11.617594610474066"><ele>156.0</ele><time>2026-05-01T08:11:57Z</time></trkpt><trkpt lat="43.49762083902265" lon="11.61764648328464"><ele>156.0</ele><time>2026-05-01T08:11:59Z</time></trkpt><trkpt lat="43.49772352107754" lon="11.6176977530368"><ele>156.0</ele><time>2026-05-01T08:12:01Z</time></trkpt><trkpt lat="43.49782207044533" lon="11.617754247669655"><ele>156.0</ele><time>2026-05-01T08:12:03Z</time></trkpt><trkpt lat="43.497916628528664" lon="11.617814570304702"><ele>156.0</ele><time>2026-05-01T08:12:05Z</time></trkpt><trkpt lat="43.49801714305753" lon="11.617879096579225"><ele>156.4</ele><time>2026-05-01T08:12:07Z</time></trkpt><trkpt lat="43.49811113479995" lon="11.617951702536539"><ele>156.8</ele><time>2026-05-01T08:12:09Z</time></trkpt><trkpt lat="43.49821006583105" lon="11.618033013110722"><ele>157.20000000000002</ele><time>2026-05-01T08:12:11Z</time></trkpt><trkpt lat="43.49830039283467" lon="11.61812252322463"><ele>157.6</ele><time>2026-05-01T08:12:13Z</time></trkpt><trkpt lat="43.49839148885734" lon="11.618212912549483"><ele>158.0</ele><time>2026-05-01T08:12:15Z</time></trkpt><trkpt lat="43.49847927843329" lon="11.618294272445413"><ele>158.0</ele><time>2026-05-01T08:12:17Z</time></trkpt><trkpt lat="43.4985674045595" lon="11.618368897461652"><ele>158.0</ele><time>2026-05-01T08:12:19Z</time></trkpt><trkpt lat="43.49865291535163" lon="11.61846925784738"><ele>158.0</ele><time>2026-05-01T08:12:21Z</time></trkpt><trkpt lat="43.49873840612703" lon="11.618544370234432"><ele>158.0</ele><time>2026-05-01T08:12:23Z</time></trkpt><trkpt lat="43.498798210444804" lon="11.618575642040353"><ele>158.0</ele><time>2026-05-01T08:12:25Z</time></trkpt><trkpt lat="43.49888043968987" lon="11.618393667497307"><ele>158.0</ele><time>2026-05-01T08:12:26Z</time></trkpt><trkpt lat="43.49893840030925" lon="11.618267824616556"><ele>158.0</ele><time>2026-05-01T08:12:28Z</time></trkpt><trkpt lat="43.499008082411564" lon="11.618152378506664"><ele>158.0</ele><time>2026-05-01T08:12:30Z</time></trkpt><trkpt lat="43.499077893885215" lon="11.61802331526449"><ele>158.0</ele><time>2026-05-01T08:12:32Z</time></trkpt><trkpt lat="43.49914149455704" lon="11.617884095881564"><ele>157.5</ele><time>2026-05-01T08:12:34Z</time></trkpt><trkpt lat="43.49920813182772" lon="11.617750779910684"><ele>157.0</ele><time>2026-05-01T08:12:36Z</time></trkpt><trkpt lat="43.49927154396081" lon="11.617611602386653"><ele>156.5</ele><time>2026-05-01T08:12:38Z</time></trkpt><trkpt lat="43.49933435367333" lon="11.617462999672991"><ele>156.0</ele><time>2026-05-01T08:12:39.999Z</time></trkpt><trkpt lat="43.49939220412357" lon="11.617321852410049"><ele>156.0</ele><time>2026-05-01T08:12:41.999Z</time></trkpt><trkpt lat="43.49943734698892" lon="11.6172032260168"><ele>156.0</ele><time>2026-05-01T08:12:43.999Z</time></trkpt><trkpt lat="43.49948089426558" lon="11.617091762864554"><ele>156.0</ele><time>2026-05-01T08:12:45.999Z</time></trkpt><trkpt lat="43.499522058738954" lon="11.616974963465472"><ele>156.0</ele><time>2026-05-01T08:12:47.999Z</time></trkpt><trkpt lat="43.499566606683985" lon="11.61685936120417"><ele>156.0</ele><time>2026-05-01T08:12:49.999Z</time></trkpt><trkpt lat="43.49960956587477" lon="11.61674301216472"><ele>155.6</ele><time>2026-05-01T08:12:51.999Z</time></trkpt><trkpt lat="43.49965914606614" lon="11.616622484266902"><ele>155.2</ele><time>2026-05-01T08:12:53.999Z</time></trkpt><trkpt lat="43.49970688273519" lon="11.616498302013268"><ele>154.8</ele><time>2026-05-01T08:12:55.999Z</time></trkpt><trkpt lat="43.499764975736944" lon="11.616361024927068"><ele>154.4</ele><time>2026-05-01T08:12:57.999Z</time></trkpt><trkpt lat="43.49980143646913" lon="11.616282974098509"><ele>154.0</ele><time>2026-05-01T08:12:58.999Z</time></trkpt><trkpt lat="43.499839335256226" lon="11.616202211126382"><ele>154.14285714285714</ele><time>2026-05-01T08:12:59.999Z</time></trkpt><trkpt lat="43.49989694408532" lon="11.616136743325118"><ele>154.28571428571428</ele><time>2026-05-01T08:13:00.999Z</time></trkpt><trkpt lat="43.49994968210799" lon="11.616068677349299"><ele>154.42857142857144</ele><time>2026-05-01T08:13:01.999Z</time></trkpt><trkpt lat="43.50000409121918" lon="11.61600070755774"><ele>154.57142857142856</ele><time>2026-05-01T08:13:02.999Z</time></trkpt><trkpt lat="43.50005982494423" lon="11.615935733774219"><ele>154.71428571428572</ele><time>2026-05-01T08:13:03.999Z</time></trkpt><trkpt lat="43.500111481516214" lon="11.615867053656679"><ele>154.85714285714286</ele><time>2026-05-01T08:13:04.999Z</time></trkpt><trkpt lat="43.50016873204702" lon="11.615801728835827"><ele>155.0</ele><time>2026-05-01T08:13:05.999Z</time></trkpt><trkpt lat="43.50022276379165" lon="11.61573296966537"><ele>155.0</ele><time>2026-05-01T08:13:06.999Z</time></trkpt><trkpt lat="43.50027561702514" lon="11.615657696668373"><ele>155.0</ele><time>2026-05-01T08:13:07.999Z</time></trkpt><trkpt lat="43.50032734819097" lon="11.615597871173247"><ele>155.0</ele><time>2026-05-01T08:13:08.999Z</time></trkpt><trkpt lat="43.50038166349478" lon="11.615536622339846"><ele>155.0</ele><time>2026-05-01T08:13:09.999Z</time></trkpt><trkpt lat="43.500436776438654" lon="11.615466819460696"><ele>155.0</ele><time>2026-05-01T08:13:10.999Z</time></trkpt><trkpt lat="43.50048726488425" lon="11.615397122076466"><ele>155.0</ele><time>2026-05-01T08:13:11.999Z</time></trkpt><trkpt lat="43.50053892209453" lon="11.615334372968775"><ele>155.0</ele><time>2026-05-01T08:13:12.999Z</time></trkpt><trkpt lat="43.50059150442003" lon="11.615272370427919"><ele>155.0</ele><time>2026-05-01T08:13:13.999Z</time></trkpt><trkpt lat="43.500642207225205" lon="11.615210280044254"><ele>155.0</ele><time>2026-05-01T08:13:14.999Z</time></trkpt><trkpt lat="43.50069449033274" lon="11.61514392588535"><ele>155.0</ele><time>2026-05-01T08:13:15.999Z</time></trkpt><trkpt lat="43.50074300618562" lon="11.61507934288346"><ele>155.0</ele><time>2026-05-01T08:13:16.999Z</time></trkpt><trkpt lat="43.50079573215667" lon="11.615022493864407"><ele>155.0</ele><time>2026-05-01T08:13:17.999Z</time></trkpt><trkpt lat="43.50084267546384" lon="11.614956247781425"><ele>155.0</ele><time>2026-05-01T08:13:18.999Z</time></trkpt><trkpt lat="43.50089856999003" lon="11.614900988631174"><ele>155.0</ele><time>2026-05-01T08:13:19.999Z</time></trkpt><trkpt lat="43.5009461833776" lon="11.61483298941617"><ele>155.0</ele><time>2026-05-01T08:13:20.999Z</time></trkpt><trkpt lat="43.500997408091244" lon="11.614770019070741"><ele>155.0</ele><time>2026-05-01T08:13:21.999Z</time></trkpt><trkpt lat="43.501049712102926" lon="11.614710339100343"><ele>155.0</ele><time>2026-05-01T08:13:22.999Z</time></trkpt><trkpt lat="43.50110086669453" lon="11.614651039036968"><ele>155.0</ele><time>2026-05-01T08:13:23.999Z</time></trkpt><trkpt lat="43.50114827163328" lon="11.614586062607309"><ele>155.0</ele><time>2026-05-01T08:13:24.999Z</time></trkpt><trkpt lat="43.50120418335399" lon="11.614535902938377"><ele>155.0</ele><time>2026-05-01T08:13:25.999Z</time></trkpt><trkpt lat="43.5012504407076" lon="11.61446860308881"><ele>155.0</ele><time>2026-05-01T08:13:26.999Z</time></trkpt><trkpt lat="43.501297444492856" lon="11.614404674244852"><ele>154.71428571428572</ele><time>2026-05-01T08:13:27.998Z</time></trkpt><trkpt lat="43.50135092720786" lon="11.614348543658926"><ele>154.42857142857142</ele><time>2026-05-01T08:13:28.998Z</time></trkpt><trkpt lat="43.50139711308558" lon="11.614282967484787"><ele>154.14285714285714</ele><time>2026-05-01T08:13:29.998Z</time></trkpt><trkpt lat="43.50144819812569" lon="11.61422410655322"><ele>153.85714285714286</ele><time>2026-05-01T08:13:30.998Z</time></trkpt><trkpt lat="43.501500072249236" lon="11.614169454903502"><ele>153.57142857142858</ele><time>2026-05-01T08:13:31.998Z</time></trkpt><trkpt lat="43.501546398951895" lon="11.614103047482926"><ele>153.28571428571428</ele><time>2026-05-01T08:13:32.998Z</time></trkpt><trkpt lat="43.50159924194255" lon="11.61404731560547"><ele>153.0</ele><time>2026-05-01T08:13:33.998Z</time></trkpt><trkpt lat="43.50164779712227" lon="11.613985537714557"><ele>153.0</ele><time>2026-05-01T08:13:34.998Z</time></trkpt><trkpt lat="43.501743536796226" lon="11.613870778990163"><ele>153.0</ele><time>2026-05-01T08:13:36.998Z</time></trkpt><trkpt lat="43.50179728299117" lon="11.6138183801431"><ele>153.0</ele><time>2026-05-01T08:13:37.998Z</time></trkpt><trkpt lat="43.501883102709044" lon="11.613699005840976"><ele>153.0</ele><time>2026-05-01T08:13:39.998Z</time></trkpt><trkpt lat="43.50192996748195" lon="11.613640899936561"><ele>153.0</ele><time>2026-05-01T08:13:40.998Z</time></trkpt><trkpt lat="43.50197487110389" lon="11.613579587262617"><ele>153.0</ele><time>2026-05-01T08:13:41.998Z</time></trkpt><trkpt lat="43.5020195025883" lon="11.613513388778244"><ele>153.0</ele><time>2026-05-01T08:13:42.998Z</time></trkpt><trkpt lat="43.50206973301101" lon="11.613457148574302"><ele>153.0</ele><time>2026-05-01T08:13:43.998Z</time></trkpt><trkpt lat="43.50216471448679" lon="11.613339155153026"><ele>153.0</ele><time>2026-05-01T08:13:45.998Z</time></trkpt><trkpt lat="43.502211612471534" lon="11.613280879090048"><ele>153.0</ele><time>2026-05-01T08:13:46.998Z</time></trkpt><trkpt lat="43.50225979043094" lon="11.613219232598505"><ele>153.0</ele><time>2026-05-01T08:13:47.998Z</time></trkpt><trkpt lat="43.50230879238629" lon="11.613160204483972"><ele>153.0</ele><time>2026-05-01T08:13:48.998Z</time></trkpt><trkpt lat="43.5023549747355" lon="11.613099166736665"><ele>152.83333333333334</ele><time>2026-05-01T08:13:49.998Z</time></trkpt><trkpt lat="43.502450379216064" lon="11.612977590766015"><ele>152.66666666666666</ele><time>2026-05-01T08:13:51.998Z</time></trkpt><trkpt lat="43.502500182397405" lon="11.6129211226929"><ele>152.5</ele><time>2026-05-01T08:13:52.998Z</time></trkpt><trkpt lat="43.50254933486333" lon="11.61285863840761"><ele>152.33333333333331</ele><time>2026-05-01T08:13:53.998Z</time></trkpt><trkpt lat="43.5025998315239" lon="11.61279977897582"><ele>152.16666666666666</ele><time>2026-05-01T08:13:54.998Z</time></trkpt><trkpt lat="43.5026480454115" lon="11.61274025155868"><ele>152.0</ele><time>2026-05-01T08:13:55.998Z</time></trkpt><trkpt lat="43.5026991957249" lon="11.612680586533134"><ele>152.0</ele><time>2026-05-01T08:13:56.998Z</time></trkpt><trkpt lat="43.50275035107638" lon="11.612622032446172"><ele>152.0</ele><time>2026-05-01T08:13:58Z</time></trkpt><trkpt lat="43.50280119084058" lon="11.6125627742345"><ele>152.0</ele><time>2026-05-01T08:13:59Z</time></trkpt><trkpt lat="43.50285276217863" lon="11.612501270012453"><ele>152.0</ele><time>2026-05-01T08:14:00Z</time></trkpt><trkpt lat="43.50290224305102" lon="11.61244100692951"><ele>152.0</ele><time>2026-05-01T08:14:01Z</time></trkpt><trkpt lat="43.50295030890517" lon="11.612376241175381"><ele>152.0</ele><time>2026-05-01T08:14:02Z</time></trkpt><trkpt lat="43.503001974896165" lon="11.612314398590042"><ele>152.0</ele><time>2026-05-01T08:14:03Z</time></trkpt><trkpt lat="43.50305541538579" lon="11.612255900900534"><ele>151.5</ele><time>2026-05-01T08:14:04Z</time></trkpt><trkpt lat="43.50310449068233" lon="11.612197028510268"><ele>151.0</ele><time>2026-05-01T08:14:05Z</time></trkpt><trkpt lat="43.503154437319424" lon="11.612131607479402"><ele>150.5</ele><time>2026-05-01T08:14:06Z</time></trkpt><trkpt lat="43.503202835245695" lon="11.612073364469381"><ele>150.0</ele><time>2026-05-01T08:14:07Z</time></trkpt><trkpt lat="43.503306743957" lon="11.61197673471042"><ele>149.5</ele><time>2026-05-01T08:14:09Z</time></trkpt><trkpt lat="43.50335182621608" lon="11.611912789159529"><ele>149.0</ele><time>2026-05-01T08:14:10Z</time></trkpt><trkpt lat="43.50340136887273" lon="11.611855542633824"><ele>149.0</ele><time>2026-05-01T08:14:11Z</time></trkpt><trkpt lat="43.5035045556588" lon="11.611781598548601"><ele>149.0</ele><time>2026-05-01T08:14:13Z</time></trkpt><trkpt lat="43.50360803260231" lon="11.611748447897368"><ele>149.0</ele><time>2026-05-01T08:14:15Z</time></trkpt><trkpt lat="43.50371246971082" lon="11.611747497309784"><ele>149.0</ele><time>2026-05-01T08:14:17Z</time></trkpt><trkpt lat="43.50380870676043" lon="11.611701911061255"><ele>149.0</ele><time>2026-05-01T08:14:19Z</time></trkpt><trkpt lat="43.503879178585194" lon="11.6115846787458"><ele>149.5</ele><time>2026-05-01T08:14:21Z</time></trkpt><trkpt lat="43.50391131566046" lon="11.611441706653311"><ele>150.0</ele><time>2026-05-01T08:14:23Z</time></trkpt><trkpt lat="43.503923547467174" lon="11.611294116222002"><ele>150.5</ele><time>2026-05-01T08:14:25Z</time></trkpt><trkpt lat="43.50392806571479" lon="11.61113634657073"><ele>151.0</ele><time>2026-05-01T08:14:27Z</time></trkpt><trkpt lat="43.504040906849454" lon="11.611019536327596"><ele>151.0</ele><time>2026-05-01T08:14:29Z</time></trkpt><trkpt lat="43.504147725620676" lon="11.610931156104625"><ele>151.0</ele><time>2026-05-01T08:14:31Z</time></trkpt><trkpt lat="43.504254714796986" lon="11.6108475057438"><ele>151.0</ele><time>2026-05-01T08:14:33Z</time></trkpt><trkpt lat="43.5042775306684" lon="11.610756345142041"><ele>151.0</ele><time>2026-05-01T08:14:34Z</time></trkpt><trkpt lat="43.50436982542646" lon="11.610643829279624"><ele>151.0</ele><time>2026-05-01T08:14:36Z</time></trkpt><trkpt lat="43.504455086410594" lon="11.610539888240448"><ele>151.0</ele><time>2026-05-01T08:14:38Z</time></trkpt><trkpt lat="43.504545731316966" lon="11.610465132529757"><ele>151.0</ele><time>2026-05-01T08:14:40Z</time></trkpt><trkpt lat="43.5046017572701" lon="11.610335902155951"><ele>151.0</ele><time>2026-05-01T08:14:42Z</time></trkpt><trkpt lat="43.50468659806101" lon="11.6102393647752"><ele>151.0</ele><time>2026-05-01T08:14:43.999Z</time></trkpt><trkpt lat="43.5047799425869" lon="11.610149957894734"><ele>151.0</ele><time>2026-05-01T08:14:45.999Z</time></trkpt><trkpt lat="43.50486076433198" lon="11.610036680146315"><ele>151.25</ele><time>2026-05-01T08:14:47.999Z</time></trkpt><trkpt lat="43.50494525165076" lon="11.609929080579718"><ele>151.5</ele><time>2026-05-01T08:14:49.999Z</time></trkpt><trkpt lat="43.50504061884926" lon="11.609836369725821"><ele>151.75</ele><time>2026-05-01T08:14:51.999Z</time></trkpt><trkpt lat="43.50512323626994" lon="11.609722233501767"><ele>152.0</ele><time>2026-05-01T08:14:53.999Z</time></trkpt><trkpt lat="43.50520077272337" lon="11.609606402322846"><ele>152.0</ele><time>2026-05-01T08:14:55.999Z</time></trkpt><trkpt lat="43.50527484026576" lon="11.60948537557383"><ele>152.0</ele><time>2026-05-01T08:14:57.999Z</time></trkpt><trkpt lat="43.5053419308609" lon="11.609348511843356"><ele>152.0</ele><time>2026-05-01T08:14:59.999Z</time></trkpt><trkpt lat="43.50539716813574" lon="11.609204939058205"><ele>152.0</ele><time>2026-05-01T08:15:01.999Z</time></trkpt><trkpt lat="43.505461033500694" lon="11.609057014184588"><ele>152.0</ele><time>2026-05-01T08:15:03.999Z</time></trkpt><trkpt lat="43.505529173835036" lon="11.60891371027193"><ele>152.0</ele><time>2026-05-01T08:15:05.999Z</time></trkpt><trkpt lat="43.50556654287723" lon="11.608841733389895"><ele>152.0</ele><time>2026-05-01T08:15:06.999Z</time></trkpt><trkpt lat="43.50559691401999" lon="11.608762562095412"><ele>152.0</ele><time>2026-05-01T08:15:07.999Z</time></trkpt><trkpt lat="43.50565702045625" lon="11.608612871277403"><ele>152.0</ele><time>2026-05-01T08:15:09.999Z</time></trkpt><trkpt lat="43.505711216064064" lon="11.608465964205012"><ele>151.6</ele><time>2026-05-01T08:15:11.999Z</time></trkpt><trkpt lat="43.50576968758268" lon="11.608327159172447"><ele>151.2</ele><time>2026-05-01T08:15:13.999Z</time></trkpt><trkpt lat="43.50585598823057" lon="11.608222942987762"><ele>150.8</ele><time>2026-05-01T08:15:15.999Z</time></trkpt><trkpt lat="43.50593539449882" lon="11.608158177673154"><ele>150.4</ele><time>2026-05-01T08:15:17.999Z</time></trkpt><trkpt lat="43.5059968118934" lon="11.608105086359862"><ele>150.0</ele><time>2026-05-01T08:15:20.999Z</time></trkpt><trkpt lat="43.50593868856753" lon="11.607974388815375"><ele>150.0</ele><time>2026-05-01T08:15:21.999Z</time></trkpt><trkpt lat="43.50597493481775" lon="11.607880131393625"><ele>150.0</ele><time>2026-05-01T08:15:23.999Z</time></trkpt><trkpt lat="43.50600864785556" lon="11.607768811073646"><ele>150.0</ele><time>2026-05-01T08:15:25.999Z</time></trkpt><trkpt lat="43.50604054082139" lon="11.607648724675753"><ele>150.0</ele><time>2026-05-01T08:15:27.999Z</time></trkpt><trkpt lat="43.50607908612639" lon="11.607521788909834"><ele>150.0</ele><time>2026-05-01T08:15:29.999Z</time></trkpt><trkpt lat="43.506110009744084" lon="11.607383786103927"><ele>150.4</ele><time>2026-05-01T08:15:31.998Z</time></trkpt><trkpt lat="43.50613976646923" lon="11.607242631234794"><ele>150.8</ele><time>2026-05-01T08:15:33.998Z</time></trkpt><trkpt lat="43.50616456365895" lon="11.607098092350308"><ele>151.2</ele><time>2026-05-01T08:15:35.998Z</time></trkpt><trkpt lat="43.50619119652321" lon="11.606955655856078"><ele>151.6</ele><time>2026-05-01T08:15:37.998Z</time></trkpt><trkpt lat="43.506213946128184" lon="11.606810617627032"><ele>152.0</ele><time>2026-05-01T08:15:39.998Z</time></trkpt><trkpt lat="43.50623611046216" lon="11.606668203237646"><ele>152.0</ele><time>2026-05-01T08:15:41.998Z</time></trkpt><trkpt lat="43.50626058639275" lon="11.606523225493863"><ele>152.0</ele><time>2026-05-01T08:15:43.998Z</time></trkpt><trkpt lat="43.50628220614965" lon="11.606378436168633"><ele>152.0</ele><time>2026-05-01T08:15:45.998Z</time></trkpt><trkpt lat="43.50631216012711" lon="11.606232321063324"><ele>152.0</ele><time>2026-05-01T08:15:47.998Z</time></trkpt><trkpt lat="43.506339994420316" lon="11.606086993626317"><ele>152.0</ele><time>2026-05-01T08:15:49.998Z</time></trkpt><trkpt lat="43.5063700581035" lon="11.60594231810399"><ele>152.0</ele><time>2026-05-01T08:15:51.998Z</time></trkpt><trkpt lat="43.50640171254757" lon="11.605798179150545"><ele>152.0</ele><time>2026-05-01T08:15:53.998Z</time></trkpt><trkpt lat="43.50643469751355" lon="11.605661428896447"><ele>152.0</ele><time>2026-05-01T08:15:55.998Z</time></trkpt><trkpt lat="43.50646769863568" lon="11.605527197145713"><ele>152.0</ele><time>2026-05-01T08:15:57.998Z</time></trkpt><trkpt lat="43.506498171300144" lon="11.605400311777025"><ele>152.0</ele><time>2026-05-01T08:15:59.998Z</time></trkpt><trkpt lat="43.5065270200336" lon="11.605279582846752"><ele>151.83333333333331</ele><time>2026-05-01T08:16:01.998Z</time></trkpt><trkpt lat="43.50655542934928" lon="11.605165421395709"><ele>151.66666666666666</ele><time>2026-05-01T08:16:04Z</time></trkpt><trkpt lat="43.506582592586994" lon="11.605057402438451"><ele>151.5</ele><time>2026-05-01T08:16:06Z</time></trkpt><trkpt lat="43.50661052302313" lon="11.604946782557509"><ele>151.33333333333334</ele><time>2026-05-01T08:16:08Z</time></trkpt><trkpt lat="43.50664213246165" lon="11.604827991871767"><ele>151.16666666666669</ele><time>2026-05-01T08:16:10Z</time></trkpt><trkpt lat="43.50667443533208" lon="11.604705921871247"><ele>151.0</ele><time>2026-05-01T08:16:12Z</time></trkpt><trkpt lat="43.506719706124535" lon="11.604582813337881"><ele>151.4</ele><time>2026-05-01T08:16:14Z</time></trkpt><trkpt lat="43.50677326459839" lon="11.604443082685258"><ele>151.8</ele><time>2026-05-01T08:16:16Z</time></trkpt><trkpt lat="43.50681074634967" lon="11.604285343218214"><ele>152.20000000000002</ele><time>2026-05-01T08:16:18Z</time></trkpt><trkpt lat="43.50685207442035" lon="11.604124903848762"><ele>152.6</ele><time>2026-05-01T08:16:20Z</time></trkpt><trkpt lat="43.50687437003547" lon="11.604040713168521"><ele>153.0</ele><time>2026-05-01T08:16:21Z</time></trkpt><trkpt lat="43.50689988096144" lon="11.603957863744398"><ele>153.0</ele><time>2026-05-01T08:16:22Z</time></trkpt><trkpt lat="43.5069216869474" lon="11.603874921744733"><ele>153.0</ele><time>2026-05-01T08:16:23Z</time></trkpt><trkpt lat="43.506941500338854" lon="11.603787387795403"><ele>153.0</ele><time>2026-05-01T08:16:24Z</time></trkpt><trkpt lat="43.50695939327497" lon="11.603700676000269"><ele>153.0</ele><time>2026-05-01T08:16:25Z</time></trkpt><trkpt lat="43.50698169152121" lon="11.603612662261009"><ele>153.0</ele><time>2026-05-01T08:16:26Z</time></trkpt><trkpt lat="43.50701154326467" lon="11.603527974120482"><ele>153.0</ele><time>2026-05-01T08:16:27Z</time></trkpt><trkpt lat="43.507036341774274" lon="11.60344328579672"><ele>153.0</ele><time>2026-05-01T08:16:28Z</time></trkpt><trkpt lat="43.507060279084065" lon="11.603360804687895"><ele>152.71428571428572</ele><time>2026-05-01T08:16:29Z</time></trkpt><trkpt lat="43.50708506793871" lon="11.603275810268567"><ele>152.42857142857144</ele><time>2026-05-01T08:16:30Z</time></trkpt><trkpt lat="43.50710913121214" lon="11.603193335447479"><ele>152.14285714285717</ele><time>2026-05-01T08:16:31Z</time></trkpt><trkpt lat="43.5071381335091" lon="11.603111129132412"><ele>151.85714285714286</ele><time>2026-05-01T08:16:32Z</time></trkpt><trkpt lat="43.50716371263893" lon="11.603025347239786"><ele>151.57142857142858</ele><time>2026-05-01T08:16:33Z</time></trkpt><trkpt lat="43.50718767740592" lon="11.60293896907371"><ele>151.2857142857143</ele><time>2026-05-01T08:16:34Z</time></trkpt><trkpt lat="43.50721306934533" lon="11.602857266298791"><ele>151.0</ele><time>2026-05-01T08:16:35Z</time></trkpt><trkpt lat="43.50726863798962" lon="11.602699056084411"><ele>150.8</ele><time>2026-05-01T08:16:37Z</time></trkpt><trkpt lat="43.50732013611741" lon="11.602543301335594"><ele>150.6</ele><time>2026-05-01T08:16:39Z</time></trkpt><trkpt lat="43.50734625273569" lon="11.602461577146236"><ele>150.4</ele><time>2026-05-01T08:16:40Z</time></trkpt><trkpt lat="43.50740059054277" lon="11.602312989900687"><ele>150.2</ele><time>2026-05-01T08:16:42Z</time></trkpt><trkpt lat="43.507429967368815" lon="11.602234941471439"><ele>150.0</ele><time>2026-05-01T08:16:43Z</time></trkpt><trkpt lat="43.5074860177269" lon="11.602087997269102"><ele>150.25</ele><time>2026-05-01T08:16:44.999Z</time></trkpt><trkpt lat="43.50754593949275" lon="11.601943732323962"><ele>150.5</ele><time>2026-05-01T08:16:46.999Z</time></trkpt><trkpt lat="43.50761682383852" lon="11.601807320190701"><ele>150.75</ele><time>2026-05-01T08:16:48.999Z</time></trkpt><trkpt lat="43.50768466632698" lon="11.601670200373931"><ele>151.0</ele><time>2026-05-01T08:16:50.999Z</time></trkpt><trkpt lat="43.507754910380356" lon="11.601542703059748"><ele>151.0</ele><time>2026-05-01T08:16:52.999Z</time></trkpt><trkpt lat="43.50782975436926" lon="11.60142160344442"><ele>151.0</ele><time>2026-05-01T08:16:54.999Z</time></trkpt><trkpt lat="43.507899168187954" lon="11.601301679355686"><ele>151.0</ele><time>2026-05-01T08:16:56.999Z</time></trkpt><trkpt lat="43.507964749320685" lon="11.601167647565504"><ele>151.0</ele><time>2026-05-01T08:16:58.999Z</time></trkpt><trkpt lat="43.508030240379426" lon="11.601042625177726"><ele>151.0</ele><time>2026-05-01T08:17:00.999Z</time></trkpt><trkpt lat="43.50809701953301" lon="11.600918220964322"><ele>151.0</ele><time>2026-05-01T08:17:02.999Z</time></trkpt><trkpt lat="43.50816550694918" lon="11.60079213102164"><ele>151.0</ele><time>2026-05-01T08:17:04.999Z</time></trkpt><trkpt lat="43.50821871194707" lon="11.600666458508675"><ele>151.0</ele><time>2026-05-01T08:17:06.999Z</time></trkpt><trkpt lat="43.50828687030741" lon="11.600546819550924"><ele>151.0</ele><time>2026-05-01T08:17:08.999Z</time></trkpt><trkpt lat="43.508350189077724" lon="11.600433757056942"><ele>151.2</ele><time>2026-05-01T08:17:10.999Z</time></trkpt><trkpt lat="43.50841350099876" lon="11.600316342720136"><ele>151.39999999999998</ele><time>2026-05-01T08:17:12.999Z</time></trkpt><trkpt lat="43.50847145789373" lon="11.600203740853043"><ele>151.6</ele><time>2026-05-01T08:17:14.999Z</time></trkpt><trkpt lat="43.50853605043327" lon="11.600097002444324"><ele>151.79999999999998</ele><time>2026-05-01T08:17:16.999Z</time></trkpt><trkpt lat="43.50859332111105" lon="11.599987302833513"><ele>152.0</ele><time>2026-05-01T08:17:18.999Z</time></trkpt><trkpt lat="43.50865621803442" lon="11.599881869568513"><ele>152.0</ele><time>2026-05-01T08:17:20.999Z</time></trkpt><trkpt lat="43.50871292276935" lon="11.599774367717195"><ele>152.0</ele><time>2026-05-01T08:17:22.999Z</time></trkpt><trkpt lat="43.50877087982862" lon="11.599663064587578"><ele>152.0</ele><time>2026-05-01T08:17:24.999Z</time></trkpt><trkpt lat="43.50882351605653" lon="11.599550968012124"><ele>152.0</ele><time>2026-05-01T08:17:26.999Z</time></trkpt><trkpt lat="43.50888427385822" lon="11.599447047036975"><ele>152.0</ele><time>2026-05-01T08:17:28.999Z</time></trkpt><trkpt lat="43.50894630773332" lon="11.599344634485671"><ele>152.0</ele><time>2026-05-01T08:17:30.998Z</time></trkpt><trkpt lat="43.50900001370695" lon="11.599234195317633"><ele>152.0</ele><time>2026-05-01T08:17:32.998Z</time></trkpt><trkpt lat="43.50904614512422" lon="11.599113696918511"><ele>152.0</ele><time>2026-05-01T08:17:34.998Z</time></trkpt><trkpt lat="43.509114699843" lon="11.599006429639791"><ele>152.0</ele><time>2026-05-01T08:17:36.998Z</time></trkpt><trkpt lat="43.50918278106945" lon="11.598894866524029"><ele>152.0</ele><time>2026-05-01T08:17:38.998Z</time></trkpt><trkpt lat="43.50925798983783" lon="11.598788462620519"><ele>152.0</ele><time>2026-05-01T08:17:40.998Z</time></trkpt><trkpt lat="43.509334052446924" lon="11.598670435703355"><ele>152.0</ele><time>2026-05-01T08:17:42.998Z</time></trkpt><trkpt lat="43.50941651964975" lon="11.598550707946098"><ele>152.0</ele><time>2026-05-01T08:17:44.998Z</time></trkpt><trkpt lat="43.509458280307584" lon="11.598485560748916"><ele>152.0</ele><time>2026-05-01T08:17:45.998Z</time></trkpt><trkpt lat="43.50953785948525" lon="11.598354378227357"><ele>152.0</ele><time>2026-05-01T08:17:47.998Z</time></trkpt><trkpt lat="43.50957977155035" lon="11.59828442568721"><ele>151.83333333333331</ele><time>2026-05-01T08:17:48.998Z</time></trkpt><trkpt lat="43.50967031402527" lon="11.598156305026539"><ele>151.66666666666666</ele><time>2026-05-01T08:17:50.998Z</time></trkpt><trkpt lat="43.5097162789101" lon="11.598086178797072"><ele>151.5</ele><time>2026-05-01T08:17:51.998Z</time></trkpt><trkpt lat="43.50976442830911" lon="11.59802246854788"><ele>151.33333333333334</ele><time>2026-05-01T08:17:52.998Z</time></trkpt><trkpt lat="43.509812949395084" lon="11.597953864980386"><ele>151.16666666666669</ele><time>2026-05-01T08:17:53.998Z</time></trkpt><trkpt lat="43.509864827219374" lon="11.59788147729064"><ele>151.0</ele><time>2026-05-01T08:17:54.998Z</time></trkpt><trkpt lat="43.50991387618911" lon="11.597811465674196"><ele>150.85714285714286</ele><time>2026-05-01T08:17:55.998Z</time></trkpt><trkpt lat="43.509963654696485" lon="11.59774062607902"><ele>150.71428571428572</ele><time>2026-05-01T08:17:56.998Z</time></trkpt><trkpt lat="43.5100171467821" lon="11.597666834995763"><ele>150.57142857142856</ele><time>2026-05-01T08:17:57.998Z</time></trkpt><trkpt lat="43.51006844004893" lon="11.597592680798611"><ele>150.42857142857144</ele><time>2026-05-01T08:17:58.998Z</time></trkpt><trkpt lat="43.510124558052595" lon="11.597524440006994"><ele>150.28571428571428</ele><time>2026-05-01T08:17:59.998Z</time></trkpt><trkpt lat="43.51017425938027" lon="11.597448703912873"><ele>150.14285714285714</ele><time>2026-05-01T08:18:00.998Z</time></trkpt><trkpt lat="43.51022660497552" lon="11.597376758587052"><ele>150.0</ele><time>2026-05-01T08:18:01.998Z</time></trkpt><trkpt lat="43.51027978843546" lon="11.597305913319316"><ele>149.99999999999997</ele><time>2026-05-01T08:18:02.998Z</time></trkpt><trkpt lat="43.510329864952645" lon="11.59723264233322"><ele>150.0</ele><time>2026-05-01T08:18:03.998Z</time></trkpt><trkpt lat="43.510381350685265" lon="11.59716305673062"><ele>150.0</ele><time>2026-05-01T08:18:04.998Z</time></trkpt><trkpt lat="43.5104312342152" lon="11.597089366708374"><ele>150.0</ele><time>2026-05-01T08:18:05.998Z</time></trkpt><trkpt lat="43.510484449839346" lon="11.597020123439965"><ele>150.0</ele><time>2026-05-01T08:18:06.998Z</time></trkpt><trkpt lat="43.510537174191924" lon="11.596951535106848"><ele>149.99999999999997</ele><time>2026-05-01T08:18:07.998Z</time></trkpt><trkpt lat="43.51059055381245" lon="11.59687414722663"><ele>150.0</ele><time>2026-05-01T08:18:09Z</time></trkpt><trkpt lat="43.51064303396037" lon="11.596808351799927"><ele>149.7142857142857</ele><time>2026-05-01T08:18:10Z</time></trkpt><trkpt lat="43.51069378854891" lon="11.596743151738998"><ele>149.42857142857142</ele><time>2026-05-01T08:18:11Z</time></trkpt><trkpt lat="43.51074911794993" lon="11.596674173222993"><ele>149.14285714285714</ele><time>2026-05-01T08:18:12Z</time></trkpt><trkpt lat="43.510800848250916" lon="11.596604787749163"><ele>148.85714285714283</ele><time>2026-05-01T08:18:13Z</time></trkpt><trkpt lat="43.51085210110502" lon="11.596532338187066"><ele>148.57142857142856</ele><time>2026-05-01T08:18:14Z</time></trkpt><trkpt lat="43.51090442970517" lon="11.596462939169143"><ele>148.28571428571428</ele><time>2026-05-01T08:18:15Z</time></trkpt><trkpt lat="43.51095418405201" lon="11.596396334252109"><ele>148.0</ele><time>2026-05-01T08:18:16Z</time></trkpt><trkpt lat="43.51100483462668" lon="11.596323634552036"><ele>148.0</ele><time>2026-05-01T08:18:17Z</time></trkpt><trkpt lat="43.51105700154804" lon="11.596263778347815"><ele>148.0</ele><time>2026-05-01T08:18:18Z</time></trkpt><trkpt lat="43.5111086130484" lon="11.59619331331645"><ele>148.0</ele><time>2026-05-01T08:18:19Z</time></trkpt><trkpt lat="43.51115168731708" lon="11.596118135446646"><ele>148.0</ele><time>2026-05-01T08:18:20Z</time></trkpt><trkpt lat="43.511205591645" lon="11.596056191093435"><ele>148.0</ele><time>2026-05-01T08:18:21Z</time></trkpt><trkpt lat="43.51125696064531" lon="11.595992362495856"><ele>148.0</ele><time>2026-05-01T08:18:22Z</time></trkpt><trkpt lat="43.51130683900452" lon="11.595931096769302"><ele>148.0</ele><time>2026-05-01T08:18:23Z</time></trkpt><trkpt lat="43.51135810848819" lon="11.595858456626484"><ele>148.0</ele><time>2026-05-01T08:18:24Z</time></trkpt><trkpt lat="43.511448789480184" lon="11.59572378230731"><ele>148.0</ele><time>2026-05-01T08:18:26Z</time></trkpt><trkpt lat="43.511499751486916" lon="11.595656855172773"><ele>148.0</ele><time>2026-05-01T08:18:27Z</time></trkpt><trkpt lat="43.51154975674792" lon="11.595592424927121"><ele>148.0</ele><time>2026-05-01T08:18:28Z</time></trkpt><trkpt lat="43.51159679836307" lon="11.595523206718632"><ele>148.0</ele><time>2026-05-01T08:18:29Z</time></trkpt><trkpt lat="43.51164414036867" lon="11.595458390430467"><ele>148.0</ele><time>2026-05-01T08:18:30Z</time></trkpt><trkpt lat="43.51169107481681" lon="11.595385975958445"><ele>148.0</ele><time>2026-05-01T08:18:31Z</time></trkpt><trkpt lat="43.51173824223704" lon="11.595324951910214"><ele>148.0</ele><time>2026-05-01T08:18:32Z</time></trkpt><trkpt lat="43.51178198217194" lon="11.595252408023113"><ele>148.0</ele><time>2026-05-01T08:18:33Z</time></trkpt><trkpt lat="43.51182785519413" lon="11.59518915238957"><ele>148.0</ele><time>2026-05-01T08:18:34Z</time></trkpt><trkpt lat="43.51187300645906" lon="11.595123638383509"><ele>148.0</ele><time>2026-05-01T08:18:35Z</time></trkpt><trkpt lat="43.511918721866216" lon="11.595061030519501"><ele>148.0</ele><time>2026-05-01T08:18:36Z</time></trkpt><trkpt lat="43.511968139975146" lon="11.595000815734249"><ele>148.0</ele><time>2026-05-01T08:18:37Z</time></trkpt><trkpt lat="43.51201728435596" lon="11.594942498624407"><ele>148.33333333333334</ele><time>2026-05-01T08:18:38Z</time></trkpt><trkpt lat="43.51210644988707" lon="11.594818608835462"><ele>148.66666666666669</ele><time>2026-05-01T08:18:40Z</time></trkpt><trkpt lat="43.51215274057569" lon="11.594755893946594"><ele>149.0</ele><time>2026-05-01T08:18:41Z</time></trkpt><trkpt lat="43.512198317648206" lon="11.594692813127917"><ele>149.33333333333334</ele><time>2026-05-01T08:18:42Z</time></trkpt><trkpt lat="43.51224469690606" lon="11.594628694954594"><ele>149.66666666666666</ele><time>2026-05-01T08:18:43Z</time></trkpt><trkpt lat="43.512290772928104" lon="11.594565156111667"><ele>150.0</ele><time>2026-05-01T08:18:44Z</time></trkpt><trkpt lat="43.512379293467994" lon="11.594444787113854"><ele>150.0</ele><time>2026-05-01T08:18:45.999Z</time></trkpt><trkpt lat="43.512470788325" lon="11.594323135770361"><ele>150.0</ele><time>2026-05-01T08:18:47.999Z</time></trkpt><trkpt lat="43.51251837704506" lon="11.594258656768181"><ele>150.0</ele><time>2026-05-01T08:18:48.999Z</time></trkpt><trkpt lat="43.51260976439288" lon="11.5941377046704"><ele>150.0</ele><time>2026-05-01T08:18:50.999Z</time></trkpt><trkpt lat="43.5126984700597" lon="11.594007344708851"><ele>150.0</ele><time>2026-05-01T08:18:52.999Z</time></trkpt><trkpt lat="43.512739878449786" lon="11.593939202302062"><ele>150.0</ele><time>2026-05-01T08:18:53.999Z</time></trkpt><trkpt lat="43.51278817195018" lon="11.59387442570275"><ele>150.0</ele><time>2026-05-01T08:18:54.999Z</time></trkpt><trkpt lat="43.512881008568485" lon="11.593752706669903"><ele>150.0</ele><time>2026-05-01T08:18:56.999Z</time></trkpt><trkpt lat="43.512926891245016" lon="11.593687656603633"><ele>150.0</ele><time>2026-05-01T08:18:57.999Z</time></trkpt><trkpt lat="43.513015177063195" lon="11.593565655143514"><ele>150.16666666666666</ele><time>2026-05-01T08:18:59.999Z</time></trkpt><trkpt lat="43.51306106065266" lon="11.593495093002563"><ele>150.33333333333334</ele><time>2026-05-01T08:19:00.999Z</time></trkpt><trkpt lat="43.51310729446172" lon="11.593430559169345"><ele>150.5</ele><time>2026-05-01T08:19:01.999Z</time></trkpt><trkpt lat="43.513156130827475" lon="11.593369908972448"><ele>150.66666666666669</ele><time>2026-05-01T08:19:02.999Z</time></trkpt><trkpt lat="43.51324360411154" lon="11.593238689919843"><ele>150.83333333333334</ele><time>2026-05-01T08:19:04.999Z</time></trkpt><trkpt lat="43.513289915600026" lon="11.593178144005217"><ele>151.0</ele><time>2026-05-01T08:19:05.999Z</time></trkpt><trkpt lat="43.51333198951048" lon="11.593111779449544"><ele>151.0</ele><time>2026-05-01T08:19:06.999Z</time></trkpt><trkpt lat="43.51342874594137" lon="11.593004987153074"><ele>151.0</ele><time>2026-05-01T08:19:08.999Z</time></trkpt><trkpt lat="43.513471762665745" lon="11.592940615122926"><ele>151.0</ele><time>2026-05-01T08:19:09.999Z</time></trkpt><trkpt lat="43.513509761483334" lon="11.592868899232071"><ele>151.0</ele><time>2026-05-01T08:19:10.999Z</time></trkpt><trkpt lat="43.51355216601625" lon="11.592802405207921"><ele>151.0</ele><time>2026-05-01T08:19:11.999Z</time></trkpt><trkpt lat="43.51362840946214" lon="11.592668646736179"><ele>151.0</ele><time>2026-05-01T08:19:13.999Z</time></trkpt><trkpt lat="43.51370855457087" lon="11.59255228477316"><ele>150.8</ele><time>2026-05-01T08:19:15.999Z</time></trkpt><trkpt lat="43.51378240432388" lon="11.592435412807692"><ele>150.6</ele><time>2026-05-01T08:19:17.999Z</time></trkpt><trkpt lat="43.51385544961233" lon="11.592328902034819"><ele>150.4</ele><time>2026-05-01T08:19:19.999Z</time></trkpt><trkpt lat="43.51393561577162" lon="11.59221952958898"><ele>150.2</ele><time>2026-05-01T08:19:21.999Z</time></trkpt><trkpt lat="43.51401031461931" lon="11.592109718656857"><ele>150.0</ele><time>2026-05-01T08:19:23.999Z</time></trkpt><trkpt lat="43.51408826349617" lon="11.591986295656884"><ele>150.0</ele><time>2026-05-01T08:19:25.999Z</time></trkpt><trkpt lat="43.51413138235884" lon="11.591921637098823"><ele>150.0</ele><time>2026-05-01T08:19:26.999Z</time></trkpt><trkpt lat="43.51421217410941" lon="11.591797950295772"><ele>150.0</ele><time>2026-05-01T08:19:28.999Z</time></trkpt><trkpt lat="43.51425752859603" lon="11.591735453006226"><ele>150.0</ele><time>2026-05-01T08:19:29.999Z</time></trkpt><trkpt lat="43.51434741584725" lon="11.591614380548615"><ele>150.0</ele><time>2026-05-01T08:19:31.998Z</time></trkpt><trkpt lat="43.5143925271461" lon="11.591552924489495"><ele>150.0</ele><time>2026-05-01T08:19:32.998Z</time></trkpt><trkpt lat="43.51448298635299" lon="11.591431927237581"><ele>149.99999999999997</ele><time>2026-05-01T08:19:34.998Z</time></trkpt><trkpt lat="43.514529508936796" lon="11.591364895830852"><ele>150.0</ele><time>2026-05-01T08:19:35.998Z</time></trkpt><trkpt lat="43.51457666647568" lon="11.591298630930332"><ele>150.0</ele><time>2026-05-01T08:19:36.998Z</time></trkpt><trkpt lat="43.51462658547347" lon="11.591231587409276"><ele>150.0</ele><time>2026-05-01T08:19:37.998Z</time></trkpt><trkpt lat="43.51467585002347" lon="11.591165346853373"><ele>150.0</ele><time>2026-05-01T08:19:38.998Z</time></trkpt><trkpt lat="43.51472140747378" lon="11.591095288638552"><ele>149.99999999999997</ele><time>2026-05-01T08:19:39.998Z</time></trkpt><trkpt lat="43.51477347804788" lon="11.591023735104256"><ele>150.0</ele><time>2026-05-01T08:19:40.998Z</time></trkpt><trkpt lat="43.514824741883274" lon="11.590955022226849"><ele>149.7142857142857</ele><time>2026-05-01T08:19:41.998Z</time></trkpt><trkpt lat="43.51486995049393" lon="11.59088338866271"><ele>149.42857142857142</ele><time>2026-05-01T08:19:42.998Z</time></trkpt><trkpt lat="43.51490816732799" lon="11.590797559257158"><ele>149.14285714285714</ele><time>2026-05-01T08:19:43.998Z</time></trkpt><trkpt lat="43.5149478420809" lon="11.590714761157185"><ele>148.85714285714283</ele><time>2026-05-01T08:19:44.998Z</time></trkpt><trkpt lat="43.515006468510954" lon="11.590657233578812"><ele>148.57142857142856</ele><time>2026-05-01T08:19:45.998Z</time></trkpt><trkpt lat="43.51506945211056" lon="11.590606044881651"><ele>148.28571428571428</ele><time>2026-05-01T08:19:46.998Z</time></trkpt><trkpt lat="43.51512577959155" lon="11.590542575327188"><ele>148.0</ele><time>2026-05-01T08:19:47.998Z</time></trkpt><trkpt lat="43.51517793829792" lon="11.59047665117706"><ele>148.0</ele><time>2026-05-01T08:19:48.998Z</time></trkpt><trkpt lat="43.515230094447794" lon="11.590409375934406"><ele>148.0</ele><time>2026-05-01T08:19:49.998Z</time></trkpt><trkpt lat="43.51528184224908" lon="11.590342630139007"><ele>148.0</ele><time>2026-05-01T08:19:50.998Z</time></trkpt><trkpt lat="43.51533395772647" lon="11.590274645325128"><ele>148.0</ele><time>2026-05-01T08:19:51.998Z</time></trkpt><trkpt lat="43.515381862557426" lon="11.59020526860001"><ele>148.0</ele><time>2026-05-01T08:19:52.998Z</time></trkpt><trkpt lat="43.51543104298043" lon="11.590139335338442"><ele>148.0</ele><time>2026-05-01T08:19:53.998Z</time></trkpt><trkpt lat="43.51547770192985" lon="11.590069660529474"><ele>148.0</ele><time>2026-05-01T08:19:54.998Z</time></trkpt><trkpt lat="43.51552275016989" lon="11.589999370882426"><ele>147.8</ele><time>2026-05-01T08:19:55.998Z</time></trkpt><trkpt lat="43.51556441617097" lon="11.589927002641147"><ele>147.60000000000002</ele><time>2026-05-01T08:19:56.998Z</time></trkpt><trkpt lat="43.51560455805485" lon="11.589856619513158"><ele>147.39999999999998</ele><time>2026-05-01T08:19:57.998Z</time></trkpt><trkpt lat="43.515642118038585" lon="11.589779186085147"><ele>147.2</ele><time>2026-05-01T08:19:58.998Z</time></trkpt><trkpt lat="43.51571278288828" lon="11.589634944027042"><ele>147.0</ele><time>2026-05-01T08:20:00.998Z</time></trkpt><trkpt lat="43.515781333292075" lon="11.58948503282825"><ele>147.0</ele><time>2026-05-01T08:20:02.998Z</time></trkpt><trkpt lat="43.515813829513554" lon="11.589406425655946"><ele>147.0</ele><time>2026-05-01T08:20:03.998Z</time></trkpt><trkpt lat="43.515843304084825" lon="11.589327898324907"><ele>147.0</ele><time>2026-05-01T08:20:04.998Z</time></trkpt><trkpt lat="43.5158706541162" lon="11.589245697892109"><ele>147.0</ele><time>2026-05-01T08:20:05.998Z</time></trkpt><trkpt lat="43.51589876316302" lon="11.589164459464396"><ele>147.0</ele><time>2026-05-01T08:20:06.998Z</time></trkpt><trkpt lat="43.515925317495565" lon="11.589079049572353"><ele>147.0</ele><time>2026-05-01T08:20:07.998Z</time></trkpt><trkpt lat="43.51595032278429" lon="11.588997042594189"><ele>147.0</ele><time>2026-05-01T08:20:08.998Z</time></trkpt><trkpt lat="43.515976154083695" lon="11.588912903992506"><ele>147.0</ele><time>2026-05-01T08:20:09.998Z</time></trkpt><trkpt lat="43.516002072796404" lon="11.588830342514221"><ele>147.0</ele><time>2026-05-01T08:20:10.998Z</time></trkpt><trkpt lat="43.51602861572043" lon="11.588746914434518"><ele>147.0</ele><time>2026-05-01T08:20:11.998Z</time></trkpt><trkpt lat="43.51605133786253" lon="11.588662193961778"><ele>147.0</ele><time>2026-05-01T08:20:12.998Z</time></trkpt><trkpt lat="43.516074294912485" lon="11.588576566427399"><ele>147.0</ele><time>2026-05-01T08:20:13.998Z</time></trkpt><trkpt lat="43.51609634152648" lon="11.588493366426027"><ele>147.0</ele><time>2026-05-01T08:20:15Z</time></trkpt><trkpt lat="43.51612143927382" lon="11.588408804344551"><ele>147.0</ele><time>2026-05-01T08:20:16Z</time></trkpt><trkpt lat="43.51614838436162" lon="11.588326083978286"><ele>146.85714285714286</ele><time>2026-05-01T08:20:17Z</time></trkpt><trkpt lat="43.51617427007338" lon="11.588243607911739"><ele>146.71428571428572</ele><time>2026-05-01T08:20:18Z</time></trkpt><trkpt lat="43.51620092111647" lon="11.588160974188341"><ele>146.57142857142856</ele><time>2026-05-01T08:20:19Z</time></trkpt><trkpt lat="43.516226216336314" lon="11.588076939159606"><ele>146.42857142857144</ele><time>2026-05-01T08:20:20Z</time></trkpt><trkpt lat="43.51625312999742" lon="11.587991642675894"><ele>146.28571428571428</ele><time>2026-05-01T08:20:21Z</time></trkpt><trkpt lat="43.51627853897468" lon="11.587909629656798"><ele>146.14285714285714</ele><time>2026-05-01T08:20:22Z</time></trkpt><trkpt lat="43.51630322312713" lon="11.587822059183674"><ele>146.0</ele><time>2026-05-01T08:20:23Z</time></trkpt><trkpt lat="43.51632966693112" lon="11.587733023175051"><ele>146.33333333333331</ele><time>2026-05-01T08:20:24Z</time></trkpt><trkpt lat="43.51635505891304" lon="11.587650008396604"><ele>146.66666666666666</ele><time>2026-05-01T08:20:25Z</time></trkpt><trkpt lat="43.51638047027253" lon="11.587563577858457"><ele>147.0</ele><time>2026-05-01T08:20:26Z</time></trkpt><trkpt lat="43.516404808752576" lon="11.587478942709806"><ele>147.33333333333334</ele><time>2026-05-01T08:20:27Z</time></trkpt><trkpt lat="43.51645652129457" lon="11.587317285630512"><ele>147.66666666666669</ele><time>2026-05-01T08:20:29Z</time></trkpt><trkpt lat="43.516490039518935" lon="11.587233779911486"><ele>148.0</ele><time>2026-05-01T08:20:30Z</time></trkpt><trkpt lat="43.516507274020576" lon="11.587148732235702"><ele>148.0</ele><time>2026-05-01T08:20:31Z</time></trkpt><trkpt lat="43.51653332181561" lon="11.587063987385145"><ele>148.0</ele><time>2026-05-01T08:20:32Z</time></trkpt><trkpt lat="43.516557943842635" lon="11.586979651144121"><ele>148.0</ele><time>2026-05-01T08:20:33Z</time></trkpt><trkpt lat="43.516584066295145" lon="11.586897994293198"><ele>148.0</ele><time>2026-05-01T08:20:34Z</time></trkpt><trkpt lat="43.51661173683742" lon="11.586816016917215"><ele>148.0</ele><time>2026-05-01T08:20:35Z</time></trkpt><trkpt lat="43.516635538858274" lon="11.58673111691011"><ele>148.0</ele><time>2026-05-01T08:20:36Z</time></trkpt><trkpt lat="43.51665838071246" lon="11.586648986234387"><ele>148.0</ele><time>2026-05-01T08:20:37Z</time></trkpt><trkpt lat="43.5166826926902" lon="11.586565771255719"><ele>148.16666666666669</ele><time>2026-05-01T08:20:38Z</time></trkpt><trkpt lat="43.51671033825406" lon="11.586485116724942"><ele>148.33333333333334</ele><time>2026-05-01T08:20:39Z</time></trkpt><trkpt lat="43.51676058376317" lon="11.586321243280393"><ele>148.5</ele><time>2026-05-01T08:20:41Z</time></trkpt><trkpt lat="43.51678563125644" lon="11.586239967589181"><ele>148.66666666666666</ele><time>2026-05-01T08:20:42Z</time></trkpt><trkpt lat="43.51680929367897" lon="11.586155697167479"><ele>148.83333333333331</ele><time>2026-05-01T08:20:43Z</time></trkpt><trkpt lat="43.516834567052186" lon="11.586074052517494"><ele>149.0</ele><time>2026-05-01T08:20:44Z</time></trkpt><trkpt lat="43.51685972175265" lon="11.58599432409121"><ele>149.0</ele><time>2026-05-01T08:20:45Z</time></trkpt><trkpt lat="43.51688309208552" lon="11.585913668372571"><ele>149.0</ele><time>2026-05-01T08:20:46Z</time></trkpt><trkpt lat="43.51690594959507" lon="11.585831935742238"><ele>149.0</ele><time>2026-05-01T08:20:47Z</time></trkpt><trkpt lat="43.516930123388256" lon="11.585750008753958"><ele>149.0</ele><time>2026-05-01T08:20:48Z</time></trkpt><trkpt lat="43.51695118305257" lon="11.585667217611814"><ele>149.0</ele><time>2026-05-01T08:20:49Z</time></trkpt><trkpt lat="43.51697577755225" lon="11.585584330917063"><ele>149.0</ele><time>2026-05-01T08:20:50Z</time></trkpt><trkpt lat="43.517001699988555" lon="11.58550391779519"><ele>149.0</ele><time>2026-05-01T08:20:50.999Z</time></trkpt><trkpt lat="43.51702945392837" lon="11.585421730316854"><ele>149.0</ele><time>2026-05-01T08:20:51.999Z</time></trkpt><trkpt lat="43.517051614214324" lon="11.585336186452285"><ele>148.66666666666666</ele><time>2026-05-01T08:20:52.999Z</time></trkpt><trkpt lat="43.51707946191521" lon="11.585251121511345"><ele>148.33333333333331</ele><time>2026-05-01T08:20:53.999Z</time></trkpt><trkpt lat="43.51710692738309" lon="11.585167568948226"><ele>148.0</ele><time>2026-05-01T08:20:54.999Z</time></trkpt><trkpt lat="43.51712920739973" lon="11.585079051500296"><ele>147.66666666666666</ele><time>2026-05-01T08:20:55.999Z</time></trkpt><trkpt lat="43.51715269834813" lon="11.584997980617928"><ele>147.33333333333334</ele><time>2026-05-01T08:20:56.999Z</time></trkpt><trkpt lat="43.51717917429225" lon="11.584914497311056"><ele>147.0</ele><time>2026-05-01T08:20:57.999Z</time></trkpt><trkpt lat="43.51722751919544" lon="11.584755153063519"><ele>147.0</ele><time>2026-05-01T08:20:59.999Z</time></trkpt><trkpt lat="43.5172534661281" lon="11.584674144010087"><ele>147.0</ele><time>2026-05-01T08:21:00.999Z</time></trkpt><trkpt lat="43.51727901509235" lon="11.584592199511073"><ele>147.0</ele><time>2026-05-01T08:21:01.999Z</time></trkpt><trkpt lat="43.51732710024707" lon="11.584431906786696"><ele>147.0</ele><time>2026-05-01T08:21:03.999Z</time></trkpt><trkpt lat="43.51737218678815" lon="11.584276102743676"><ele>147.0</ele><time>2026-05-01T08:21:05.999Z</time></trkpt><trkpt lat="43.517397988508115" lon="11.58419434301308"><ele>147.0</ele><time>2026-05-01T08:21:06.999Z</time></trkpt><trkpt lat="43.517423614125434" lon="11.584113813801293"><ele>147.2</ele><time>2026-05-01T08:21:07.999Z</time></trkpt><trkpt lat="43.51744576109956" lon="11.584032397295335"><ele>147.39999999999998</ele><time>2026-05-01T08:21:08.999Z</time></trkpt><trkpt lat="43.51749319320282" lon="11.583873326579681"><ele>147.60000000000002</ele><time>2026-05-01T08:21:10.999Z</time></trkpt><trkpt lat="43.517536568287014" lon="11.583715345711711"><ele>147.8</ele><time>2026-05-01T08:21:12.999Z</time></trkpt><trkpt lat="43.517560850752986" lon="11.583631555696844"><ele>148.0</ele><time>2026-05-01T08:21:13.999Z</time></trkpt><trkpt lat="43.5176071669096" lon="11.583477772685233"><ele>148.20000000000002</ele><time>2026-05-01T08:21:15.999Z</time></trkpt><trkpt lat="43.51763043155478" lon="11.583396709376574"><ele>148.4</ele><time>2026-05-01T08:21:16.999Z</time></trkpt><trkpt lat="43.517681604227256" lon="11.583241990959225"><ele>148.60000000000002</ele><time>2026-05-01T08:21:18.999Z</time></trkpt><trkpt lat="43.51772975030703" lon="11.58308517846353"><ele>148.8</ele><time>2026-05-01T08:21:20.999Z</time></trkpt><trkpt lat="43.517780454920235" lon="11.582928300771853"><ele>149.0</ele><time>2026-05-01T08:21:22.999Z</time></trkpt><trkpt lat="43.51780749749345" lon="11.582849755243535"><ele>149.4</ele><time>2026-05-01T08:21:23.999Z</time></trkpt><trkpt lat="43.517859107769425" lon="11.582694113068717"><ele>149.8</ele><time>2026-05-01T08:21:25.999Z</time></trkpt><trkpt lat="43.51791145769775" lon="11.582537859290174"><ele>150.2</ele><time>2026-05-01T08:21:27.999Z</time></trkpt><trkpt lat="43.51795575470421" lon="11.582380341372069"><ele>150.6</ele><time>2026-05-01T08:21:29.999Z</time></trkpt><trkpt lat="43.51797747502784" lon="11.582296577892372"><ele>151.0</ele><time>2026-05-01T08:21:30.999Z</time></trkpt><trkpt lat="43.51802735654698" lon="11.58213912352782"><ele>150.16666666666669</ele><time>2026-05-01T08:21:32.999Z</time></trkpt><trkpt lat="43.518052290493245" lon="11.582056609775316"><ele>149.33333333333334</ele><time>2026-05-01T08:21:33.999Z</time></trkpt><trkpt lat="43.518075386170615" lon="11.581973182084086"><ele>148.5</ele><time>2026-05-01T08:21:34.999Z</time></trkpt><trkpt lat="43.51812309826898" lon="11.581813705884901"><ele>147.66666666666666</ele><time>2026-05-01T08:21:36.998Z</time></trkpt><trkpt lat="43.51814630050905" lon="11.58172749199796"><ele>146.83333333333331</ele><time>2026-05-01T08:21:37.998Z</time></trkpt><trkpt lat="43.518194919918336" lon="11.581566770577627"><ele>146.0</ele><time>2026-05-01T08:21:39.998Z</time></trkpt><trkpt lat="43.518213995022265" lon="11.581481964514948"><ele>146.0</ele><time>2026-05-01T08:21:40.998Z</time></trkpt><trkpt lat="43.51825827913976" lon="11.581322274819659"><ele>146.0</ele><time>2026-05-01T08:21:42.998Z</time></trkpt><trkpt lat="43.51830422123711" lon="11.58116475313773"><ele>146.0</ele><time>2026-05-01T08:21:44.998Z</time></trkpt><trkpt lat="43.51832838612026" lon="11.58108302770747"><ele>146.0</ele><time>2026-05-01T08:21:45.998Z</time></trkpt><trkpt lat="43.518374146919" lon="11.580927087933423"><ele>146.0</ele><time>2026-05-01T08:21:47.998Z</time></trkpt><trkpt lat="43.51842301341381" lon="11.580765837269102"><ele>147.0</ele><time>2026-05-01T08:21:49.998Z</time></trkpt><trkpt lat="43.51846906090221" lon="11.580608006971953"><ele>148.0</ele><time>2026-05-01T08:21:51.998Z</time></trkpt><trkpt lat="43.51851428457556" lon="11.580450045979239"><ele>149.0</ele><time>2026-05-01T08:21:53.998Z</time></trkpt><trkpt lat="43.51855860455223" lon="11.580302694594694"><ele>150.0</ele><time>2026-05-01T08:21:55.998Z</time></trkpt><trkpt lat="43.51860202143977" lon="11.580157236595321"><ele>150.25</ele><time>2026-05-01T08:21:57.998Z</time></trkpt><trkpt lat="43.51864630000851" lon="11.580012584829843"><ele>150.5</ele><time>2026-05-01T08:21:59.998Z</time></trkpt><trkpt lat="43.51869153709428" lon="11.579865192705437"><ele>150.75</ele><time>2026-05-01T08:22:01.998Z</time></trkpt><trkpt lat="43.5187363217026" lon="11.579718966092583"><ele>151.0</ele><time>2026-05-01T08:22:03.998Z</time></trkpt><trkpt lat="43.51877732727006" lon="11.57957398498506"><ele>150.25</ele><time>2026-05-01T08:22:05.998Z</time></trkpt><trkpt lat="43.51881640809771" lon="11.579421285056606"><ele>149.5</ele><time>2026-05-01T08:22:07.998Z</time></trkpt><trkpt lat="43.518861955069454" lon="11.579281165027941"><ele>148.75</ele><time>2026-05-01T08:22:09.998Z</time></trkpt><trkpt lat="43.518906675644516" lon="11.579137492075036"><ele>148.0</ele><time>2026-05-01T08:22:11.998Z</time></trkpt><trkpt lat="43.51895468500625" lon="11.578994943632937"><ele>148.0</ele><time>2026-05-01T08:22:13.998Z</time></trkpt><trkpt lat="43.518999411816125" lon="11.578841762164583"><ele>148.0</ele><time>2026-05-01T08:22:15.998Z</time></trkpt><trkpt lat="43.519049564910254" lon="11.578693280294452"><ele>148.0</ele><time>2026-05-01T08:22:17.998Z</time></trkpt><trkpt lat="43.51909497878879" lon="11.578535629985241"><ele>148.0</ele><time>2026-05-01T08:22:19.998Z</time></trkpt><trkpt lat="43.51914327784905" lon="11.578381140057608"><ele>148.0</ele><time>2026-05-01T08:22:22Z</time></trkpt><trkpt lat="43.51918732356007" lon="11.578216975703917"><ele>148.0</ele><time>2026-05-01T08:22:24Z</time></trkpt><trkpt lat="43.51923738288703" lon="11.578055180224078"><ele>148.0</ele><time>2026-05-01T08:22:26Z</time></trkpt><trkpt lat="43.51928179598919" lon="11.57789403661964"><ele>148.0</ele><time>2026-05-01T08:22:28Z</time></trkpt><trkpt lat="43.51932531025473" lon="11.577735477995565"><ele>148.0</ele><time>2026-05-01T08:22:30Z</time></trkpt><trkpt lat="43.519370475525236" lon="11.577579041823816"><ele>148.0</ele><time>2026-05-01T08:22:32Z</time></trkpt><trkpt lat="43.519393226267034" lon="11.577495343904282"><ele>148.0</ele><time>2026-05-01T08:22:33Z</time></trkpt><trkpt lat="43.519420794239856" lon="11.577413897324766"><ele>148.0</ele><time>2026-05-01T08:22:34Z</time></trkpt><trkpt lat="43.51946943768546" lon="11.577254862944997"><ele>148.0</ele><time>2026-05-01T08:22:36Z</time></trkpt><trkpt lat="43.51949261991925" lon="11.577173268089012"><ele>148.0</ele><time>2026-05-01T08:22:37Z</time></trkpt><trkpt lat="43.51951755031995" lon="11.577087839522548"><ele>148.0</ele><time>2026-05-01T08:22:38Z</time></trkpt><trkpt lat="43.51954554928323" lon="11.577002256859599"><ele>148.0</ele><time>2026-05-01T08:22:39Z</time></trkpt><trkpt lat="43.519592846783695" lon="11.576841418177679"><ele>148.0</ele><time>2026-05-01T08:22:41Z</time></trkpt><trkpt lat="43.51963582447582" lon="11.57667579749033"><ele>148.0</ele><time>2026-05-01T08:22:43Z</time></trkpt><trkpt lat="43.51968231867064" lon="11.576515397352182"><ele>148.0</ele><time>2026-05-01T08:22:45Z</time></trkpt><trkpt lat="43.519727902405634" lon="11.576359288973693"><ele>148.0</ele><time>2026-05-01T08:22:47Z</time></trkpt><trkpt lat="43.51977364639866" lon="11.57620560277076"><ele>148.0</ele><time>2026-05-01T08:22:49Z</time></trkpt><trkpt lat="43.51981838653974" lon="11.57605364697509"><ele>148.0</ele><time>2026-05-01T08:22:51Z</time></trkpt><trkpt lat="43.51987694808671" lon="11.57590471882888"><ele>148.0</ele><time>2026-05-01T08:22:53Z</time></trkpt><trkpt lat="43.51991566686095" lon="11.575772304577116"><ele>148.0</ele><time>2026-05-01T08:22:55Z</time></trkpt><trkpt lat="43.51995764877106" lon="11.575641020037061"><ele>148.0</ele><time>2026-05-01T08:22:57Z</time></trkpt><trkpt lat="43.51999479448761" lon="11.575518230086379"><ele>148.0</ele><time>2026-05-01T08:22:58.999Z</time></trkpt><trkpt lat="43.52002993077965" lon="11.575416230787797"><ele>148.0</ele><time>2026-05-01T08:23:00.999Z</time></trkpt><trkpt lat="43.52006168961918" lon="11.575300353268522"><ele>148.0</ele><time>2026-05-01T08:23:02.999Z</time></trkpt><trkpt lat="43.52009719944346" lon="11.575161968579778"><ele>148.20000000000002</ele><time>2026-05-01T08:23:04.999Z</time></trkpt><trkpt lat="43.52013686693223" lon="11.575040198702643"><ele>148.4</ele><time>2026-05-01T08:23:06.999Z</time></trkpt><trkpt lat="43.52018061843527" lon="11.574895349769102"><ele>148.60000000000002</ele><time>2026-05-01T08:23:08.999Z</time></trkpt><trkpt lat="43.520224801409555" lon="11.574744501005666"><ele>148.8</ele><time>2026-05-01T08:23:10.999Z</time></trkpt><trkpt lat="43.52026315024315" lon="11.574594813280452"><ele>149.0</ele><time>2026-05-01T08:23:12.999Z</time></trkpt><trkpt lat="43.520307973494184" lon="11.574443070830586"><ele>149.2</ele><time>2026-05-01T08:23:14.999Z</time></trkpt><trkpt lat="43.5203331492766" lon="11.574361816115156"><ele>149.4</ele><time>2026-05-01T08:23:15.999Z</time></trkpt><trkpt lat="43.520378723384205" lon="11.57420531533828"><ele>149.6</ele><time>2026-05-01T08:23:17.999Z</time></trkpt><trkpt lat="43.520428456535605" lon="11.574047237424548"><ele>149.8</ele><time>2026-05-01T08:23:19.999Z</time></trkpt><trkpt lat="43.52045015068659" lon="11.573960162084635"><ele>150.0</ele><time>2026-05-01T08:23:20.999Z</time></trkpt><trkpt lat="43.52049227483304" lon="11.573807567362666"><ele>149.66666666666666</ele><time>2026-05-01T08:23:22.999Z</time></trkpt><trkpt lat="43.52051645196583" lon="11.573725497014939"><ele>149.33333333333334</ele><time>2026-05-01T08:23:23.999Z</time></trkpt><trkpt lat="43.520560353699246" lon="11.57357194953159"><ele>149.0</ele><time>2026-05-01T08:23:25.999Z</time></trkpt><trkpt lat="43.520587207060984" lon="11.573490810825179"><ele>148.66666666666669</ele><time>2026-05-01T08:23:26.999Z</time></trkpt><trkpt lat="43.52063479631444" lon="11.573339022190122"><ele>148.33333333333334</ele><time>2026-05-01T08:23:28.999Z</time></trkpt><trkpt lat="43.52065835422912" lon="11.57325622606683"><ele>148.0</ele><time>2026-05-01T08:23:29.999Z</time></trkpt><trkpt lat="43.52068313553947" lon="11.573175796057447"><ele>148.0</ele><time>2026-05-01T08:23:30.999Z</time></trkpt><trkpt lat="43.52070852237014" lon="11.573092115637326"><ele>148.0</ele><time>2026-05-01T08:23:31.999Z</time></trkpt><trkpt lat="43.52073316474593" lon="11.573006803855547"><ele>148.0</ele><time>2026-05-01T08:23:32.999Z</time></trkpt><trkpt lat="43.52075947387377" lon="11.57292678022826"><ele>148.0</ele><time>2026-05-01T08:23:33.999Z</time></trkpt><trkpt lat="43.52078512018549" lon="11.572846889173585"><ele>148.0</ele><time>2026-05-01T08:23:34.999Z</time></trkpt><trkpt lat="43.52081173731365" lon="11.572765403286066"><ele>148.0</ele><time>2026-05-01T08:23:35.999Z</time></trkpt><trkpt lat="43.52088042952803" lon="11.572622938820757"><ele>148.0</ele><time>2026-05-01T08:23:37.999Z</time></trkpt><trkpt lat="43.52099485699431" lon="11.572550688995314"><ele>148.4</ele><time>2026-05-01T08:23:39.999Z</time></trkpt><trkpt lat="43.521107784004826" lon="11.572502255922625"><ele>148.8</ele><time>2026-05-01T08:23:41.999Z</time></trkpt><trkpt lat="43.52121278964689" lon="11.572435532638906"><ele>149.2</ele><time>2026-05-01T08:23:43.999Z</time></trkpt><trkpt lat="43.52128623752183" lon="11.572446830240684"><ele>149.6</ele><time>2026-05-01T08:23:44.999Z</time></trkpt><trkpt lat="43.521401055471635" lon="11.572381403861604"><ele>150.0</ele><time>2026-05-01T08:23:46.998Z</time></trkpt><trkpt lat="43.52146044414876" lon="11.572344681911824"><ele>150.0</ele><time>2026-05-01T08:23:47.998Z</time></trkpt><trkpt lat="43.521520859471934" lon="11.572316582821294"><ele>150.0</ele><time>2026-05-01T08:23:48.998Z</time></trkpt><trkpt lat="43.521579293743514" lon="11.572279186812567"><ele>150.0</ele><time>2026-05-01T08:23:49.998Z</time></trkpt><trkpt lat="43.521700236019356" lon="11.572212650153618"><ele>150.0</ele><time>2026-05-01T08:23:51.998Z</time></trkpt><trkpt lat="43.52175974419711" lon="11.572181591098541"><ele>150.0</ele><time>2026-05-01T08:23:52.998Z</time></trkpt><trkpt lat="43.521819629108876" lon="11.572148786999238"><ele>150.0</ele><time>2026-05-01T08:23:53.998Z</time></trkpt><trkpt lat="43.52187987016527" lon="11.572112385034659"><ele>150.0</ele><time>2026-05-01T08:23:54.998Z</time></trkpt><trkpt lat="43.521940981413195" lon="11.572080427118868"><ele>150.0</ele><time>2026-05-01T08:23:55.998Z</time></trkpt><trkpt lat="43.522004019900635" lon="11.57205437017345"><ele>150.0</ele><time>2026-05-01T08:23:56.998Z</time></trkpt><trkpt lat="43.522062839112486" lon="11.572011444123714"><ele>150.0</ele><time>2026-05-01T08:23:57.998Z</time></trkpt><trkpt lat="43.52217920421414" lon="11.571936776525002"><ele>150.0</ele><time>2026-05-01T08:23:59.998Z</time></trkpt><trkpt lat="43.52229103141094" lon="11.571882554316083"><ele>150.0</ele><time>2026-05-01T08:24:01.998Z</time></trkpt><trkpt lat="43.52239696974704" lon="11.571823494337835"><ele>150.0</ele><time>2026-05-01T08:24:03.998Z</time></trkpt><trkpt lat="43.52249926300247" lon="11.57175570882843"><ele>150.0</ele><time>2026-05-01T08:24:05.998Z</time></trkpt><trkpt lat="43.52257378814597" lon="11.571717076320903"><ele>150.0</ele><time>2026-05-01T08:24:07.998Z</time></trkpt><trkpt lat="43.522640115030235" lon="11.57169700011281"><ele>150.0</ele><time>2026-05-01T08:24:10.998Z</time></trkpt><trkpt lat="43.52270097931196" lon="11.571659196982397"><ele>150.0</ele><time>2026-05-01T08:24:14.998Z</time></trkpt><trkpt lat="43.522780775885884" lon="11.571623720145642"><ele>150.0</ele><time>2026-05-01T08:24:44Z</time></trkpt><trkpt lat="43.52286754480051" lon="11.571573150889298"><ele>149.85714285714283</ele><time>2026-05-01T08:24:47Z</time></trkpt><trkpt lat="43.52293169993642" lon="11.571529214170624"><ele>149.71428571428572</ele><time>2026-05-01T08:24:49Z</time></trkpt><trkpt lat="43.52299685305659" lon="11.571486913564785"><ele>149.57142857142856</ele><time>2026-05-01T08:24:51Z</time></trkpt><trkpt lat="43.52306279719276" lon="11.571450233225722"><ele>149.42857142857142</ele><time>2026-05-01T08:24:53Z</time></trkpt><trkpt lat="43.52313273133728" lon="11.57140959104107"><ele>149.28571428571428</ele><time>2026-05-01T08:24:55Z</time></trkpt><trkpt lat="43.52320201456093" lon="11.571376690273702"><ele>149.14285714285714</ele><time>2026-05-01T08:24:57Z</time></trkpt><trkpt lat="43.52326412146172" lon="11.571323654476199"><ele>149.0</ele><time>2026-05-01T08:24:59Z</time></trkpt><trkpt lat="43.523327878403414" lon="11.571275790910375"><ele>149.0</ele><time>2026-05-01T08:25:01Z</time></trkpt><trkpt lat="43.523388727914615" lon="11.571249181658075"><ele>149.0</ele><time>2026-05-01T08:25:04Z</time></trkpt><trkpt lat="43.52344981285351" lon="11.57116982622969"><ele>149.0</ele><time>2026-05-01T08:26:01.998Z</time></trkpt><trkpt lat="43.52352200483702" lon="11.571100275988819"><ele>149.0</ele><time>2026-05-01T08:26:04.998Z</time></trkpt><trkpt lat="43.52357777686885" lon="11.57104830487109"><ele>149.0</ele><time>2026-05-01T08:26:06.998Z</time></trkpt><trkpt lat="43.52363877460393" lon="11.570993525029829"><ele>149.0</ele><time>2026-05-01T08:26:08.998Z</time></trkpt><trkpt lat="43.52370198409167" lon="11.570926555420252"><ele>149.2</ele><time>2026-05-01T08:26:10.998Z</time></trkpt><trkpt lat="43.52376951130844" lon="11.570851713897303"><ele>149.4</ele><time>2026-05-01T08:26:12.998Z</time></trkpt><trkpt lat="43.52383643646155" lon="11.570784902638472"><ele>149.6</ele><time>2026-05-01T08:26:14.998Z</time></trkpt><trkpt lat="43.52391514840533" lon="11.570714924026415"><ele>149.8</ele><time>2026-05-01T08:26:16.998Z</time></trkpt><trkpt lat="43.5239914486025" lon="11.570631090303417"><ele>150.0</ele><time>2026-05-01T08:26:18.998Z</time></trkpt><trkpt lat="43.524072497978615" lon="11.570546609796828"><ele>150.0</ele><time>2026-05-01T08:26:20.998Z</time></trkpt><trkpt lat="43.52415798242746" lon="11.57046097890425"><ele>150.0</ele><time>2026-05-01T08:26:22.998Z</time></trkpt><trkpt lat="43.52424215949823" lon="11.570374593853728"><ele>150.0</ele><time>2026-05-01T08:26:24.998Z</time></trkpt><trkpt lat="43.52433321727642" lon="11.570288509736885"><ele>150.0</ele><time>2026-05-01T08:26:26.998Z</time></trkpt><trkpt lat="43.524426772256064" lon="11.57020099404527"><ele>150.0</ele><time>2026-05-01T08:26:28.998Z</time></trkpt><trkpt lat="43.524518339656126" lon="11.570103727568274"><ele>149.6</ele><time>2026-05-01T08:26:30.998Z</time></trkpt><trkpt lat="43.52461632397617" lon="11.570008127874962"><ele>149.2</ele><time>2026-05-01T08:26:33Z</time></trkpt><trkpt lat="43.5247160357837" lon="11.569899376743072"><ele>148.8</ele><time>2026-05-01T08:26:35Z</time></trkpt><trkpt lat="43.524818974500356" lon="11.569799534950903"><ele>148.4</ele><time>2026-05-01T08:26:37Z</time></trkpt><trkpt lat="43.52487481166621" lon="11.569751479592847"><ele>148.0</ele><time>2026-05-01T08:26:38Z</time></trkpt><trkpt lat="43.524928280857274" lon="11.569701374705426"><ele>148.0</ele><time>2026-05-01T08:26:39Z</time></trkpt><trkpt lat="43.524981539623006" lon="11.569645303062718"><ele>148.0</ele><time>2026-05-01T08:26:40Z</time></trkpt><trkpt lat="43.525031617228194" lon="11.569590609702981"><ele>148.0</ele><time>2026-05-01T08:26:41Z</time></trkpt><trkpt lat="43.52511650747789" lon="11.569498167106392"><ele>148.0</ele><time>2026-05-01T08:26:43Z</time></trkpt><trkpt lat="43.52520192904202" lon="11.56942902067648"><ele>148.0</ele><time>2026-05-01T08:26:45Z</time></trkpt><trkpt lat="43.52527802340737" lon="11.56933986876507"><ele>148.0</ele><time>2026-05-01T08:26:47Z</time></trkpt><trkpt lat="43.525362735288766" lon="11.569266319867552"><ele>147.8</ele><time>2026-05-01T08:26:49Z</time></trkpt><trkpt lat="43.52543243857059" lon="11.569194643924384"><ele>147.60000000000002</ele><time>2026-05-01T08:26:51Z</time></trkpt><trkpt lat="43.525504616531585" lon="11.569132447717138"><ele>147.39999999999998</ele><time>2026-05-01T08:26:53Z</time></trkpt><trkpt lat="43.525584551067375" lon="11.569055244686785"><ele>147.2</ele><time>2026-05-01T08:26:55Z</time></trkpt><trkpt lat="43.525668349017835" lon="11.568974295773502"><ele>147.0</ele><time>2026-05-01T08:26:57Z</time></trkpt><trkpt lat="43.52575053889776" lon="11.568901604439736"><ele>147.0</ele><time>2026-05-01T08:26:59Z</time></trkpt><trkpt lat="43.52583251203303" lon="11.568822180170415"><ele>147.0</ele><time>2026-05-01T08:27:01Z</time></trkpt><trkpt lat="43.52590369305036" lon="11.56873990915773"><ele>147.0</ele><time>2026-05-01T08:27:03Z</time></trkpt><trkpt lat="43.525985616843776" lon="11.568655284699929"><ele>147.0</ele><time>2026-05-01T08:27:05Z</time></trkpt><trkpt lat="43.52604292124945" lon="11.568603194943993"><ele>147.0</ele><time>2026-05-01T08:27:07Z</time></trkpt><trkpt lat="43.52610201260186" lon="11.568549315879173"><ele>147.0</ele><time>2026-05-01T08:27:08.999Z</time></trkpt><trkpt lat="43.52616750818556" lon="11.568486838244278"><ele>147.0</ele><time>2026-05-01T08:27:10.999Z</time></trkpt><trkpt lat="43.52623568725186" lon="11.568416367976116"><ele>147.0</ele><time>2026-05-01T08:27:12.999Z</time></trkpt><trkpt lat="43.526321139879485" lon="11.56832743575444"><ele>147.0</ele><time>2026-05-01T08:27:14.999Z</time></trkpt><trkpt lat="43.52641653389431" lon="11.568245217075885"><ele>147.0</ele><time>2026-05-01T08:27:16.999Z</time></trkpt><trkpt lat="43.52649949026461" lon="11.568160181855118"><ele>147.0</ele><time>2026-05-01T08:27:18.999Z</time></trkpt><trkpt lat="43.52659484646569" lon="11.568081610270621"><ele>147.0</ele><time>2026-05-01T08:27:20.999Z</time></trkpt><trkpt lat="43.52668504966982" lon="11.567992648047161"><ele>147.0</ele><time>2026-05-01T08:27:22.999Z</time></trkpt><trkpt lat="43.526777134907924" lon="11.567900924262059"><ele>147.0</ele><time>2026-05-01T08:27:24.999Z</time></trkpt><trkpt lat="43.52687308292101" lon="11.567814553017312"><ele>147.0</ele><time>2026-05-01T08:27:26.999Z</time></trkpt><trkpt lat="43.5269695526161" lon="11.567716226448566"><ele>146.6</ele><time>2026-05-01T08:27:28.999Z</time></trkpt><trkpt lat="43.52706609785806" lon="11.567627584217384"><ele>146.2</ele><time>2026-05-01T08:27:30.999Z</time></trkpt><trkpt lat="43.52715779083448" lon="11.567535692351438"><ele>145.8</ele><time>2026-05-01T08:27:32.999Z</time></trkpt><trkpt lat="43.52720888251459" lon="11.567481118807569"><ele>145.4</ele><time>2026-05-01T08:27:33.999Z</time></trkpt><trkpt lat="43.5273069518083" lon="11.567388749755581"><ele>145.0</ele><time>2026-05-01T08:27:35.999Z</time></trkpt><trkpt lat="43.52740825237657" lon="11.567289403952309"><ele>145.0</ele><time>2026-05-01T08:27:37.999Z</time></trkpt><trkpt lat="43.527504321818306" lon="11.567190502820612"><ele>145.0</ele><time>2026-05-01T08:27:39.999Z</time></trkpt><trkpt lat="43.52760399530563" lon="11.567095708599823"><ele>145.0</ele><time>2026-05-01T08:27:41.999Z</time></trkpt><trkpt lat="43.52770394404622" lon="11.566998542857233"><ele>145.0</ele><time>2026-05-01T08:27:43.999Z</time></trkpt><trkpt lat="43.52780530638898" lon="11.566898781334514"><ele>145.0</ele><time>2026-05-01T08:27:45.999Z</time></trkpt><trkpt lat="43.52790729446136" lon="11.566798803473365"><ele>145.0</ele><time>2026-05-01T08:27:47.999Z</time></trkpt><trkpt lat="43.52800988255535" lon="11.566701343810154"><ele>145.0</ele><time>2026-05-01T08:27:49.999Z</time></trkpt><trkpt lat="43.52811489403431" lon="11.566601905601031"><ele>145.0</ele><time>2026-05-01T08:27:51.999Z</time></trkpt><trkpt lat="43.52820762455681" lon="11.566489609726155"><ele>145.0</ele><time>2026-05-01T08:27:53.999Z</time></trkpt><trkpt lat="43.528306157831146" lon="11.566393061193704"><ele>145.0</ele><time>2026-05-01T08:27:55.998Z</time></trkpt><trkpt lat="43.52839556326214" lon="11.566298927364718"><ele>145.0</ele><time>2026-05-01T08:27:57.998Z</time></trkpt><trkpt lat="43.52846442683032" lon="11.566216893796852"><ele>145.0</ele><time>2026-05-01T08:27:59.998Z</time></trkpt><trkpt lat="43.5285183519909" lon="11.566162159864648"><ele>145.0</ele><time>2026-05-01T08:28:01.998Z</time></trkpt><trkpt lat="43.52858219869626" lon="11.566111097627244"><ele>145.16666666666669</ele><time>2026-05-01T08:28:04.998Z</time></trkpt><trkpt lat="43.52864181859343" lon="11.566055762981419"><ele>145.33333333333334</ele><time>2026-05-01T08:28:07.998Z</time></trkpt><trkpt lat="43.52869868711204" lon="11.565997143572615"><ele>145.5</ele><time>2026-05-01T08:28:09.998Z</time></trkpt><trkpt lat="43.52876580279705" lon="11.565924589157254"><ele>145.66666666666666</ele><time>2026-05-01T08:28:11.998Z</time></trkpt><trkpt lat="43.528838603396956" lon="11.565849242922464"><ele>145.83333333333331</ele><time>2026-05-01T08:28:13.998Z</time></trkpt><trkpt lat="43.52891736584143" lon="11.565785260618627"><ele>146.0</ele><time>2026-05-01T08:28:15.998Z</time></trkpt><trkpt lat="43.528994673909644" lon="11.56571718367536"><ele>145.8</ele><time>2026-05-01T08:28:17.998Z</time></trkpt><trkpt lat="43.5290800755914" lon="11.565643333791026"><ele>145.6</ele><time>2026-05-01T08:28:19.998Z</time></trkpt><trkpt lat="43.52916527843606" lon="11.565566757854599"><ele>145.4</ele><time>2026-05-01T08:28:21.998Z</time></trkpt><trkpt lat="43.52924995460208" lon="11.565490247518872"><ele>145.2</ele><time>2026-05-01T08:28:23.998Z</time></trkpt><trkpt lat="43.529331387170714" lon="11.565408956473822"><ele>145.0</ele><time>2026-05-01T08:28:25.998Z</time></trkpt><trkpt lat="43.52941554975205" lon="11.565328788740251"><ele>145.0</ele><time>2026-05-01T08:28:27.998Z</time></trkpt><trkpt lat="43.52950113451097" lon="11.565248834199702"><ele>145.0</ele><time>2026-05-01T08:28:29.998Z</time></trkpt><trkpt lat="43.5295788571536" lon="11.565171082921905"><ele>145.0</ele><time>2026-05-01T08:28:31.998Z</time></trkpt><trkpt lat="43.52966045479536" lon="11.565085223698242"><ele>145.0</ele><time>2026-05-01T08:28:33.998Z</time></trkpt><trkpt lat="43.52973887215229" lon="11.565008618428033"><ele>145.0</ele><time>2026-05-01T08:28:35.998Z</time></trkpt><trkpt lat="43.52981908615865" lon="11.564926858270907"><ele>145.2</ele><time>2026-05-01T08:28:37.998Z</time></trkpt><trkpt lat="43.52989891381505" lon="11.564851458372708"><ele>145.4</ele><time>2026-05-01T08:28:40Z</time></trkpt><trkpt lat="43.5299742513101" lon="11.564771632792223"><ele>145.6</ele><time>2026-05-01T08:28:42Z</time></trkpt><trkpt lat="43.5300507279079" lon="11.564699624630265"><ele>145.8</ele><time>2026-05-01T08:28:44Z</time></trkpt><trkpt lat="43.53013043048039" lon="11.564620580094783"><ele>146.0</ele><time>2026-05-01T08:28:46Z</time></trkpt><trkpt lat="43.5302076241093" lon="11.564541232705704"><ele>146.0</ele><time>2026-05-01T08:28:48Z</time></trkpt><trkpt lat="43.53028648961273" lon="11.56446594408983"><ele>146.0</ele><time>2026-05-01T08:28:50Z</time></trkpt><trkpt lat="43.530361837905936" lon="11.56439356907445"><ele>146.0</ele><time>2026-05-01T08:28:52Z</time></trkpt><trkpt lat="43.530431743113006" lon="11.564323560128168"><ele>146.0</ele><time>2026-05-01T08:28:54Z</time></trkpt><trkpt lat="43.530504792636314" lon="11.564250989900858"><ele>146.0</ele><time>2026-05-01T08:28:56Z</time></trkpt><trkpt lat="43.53057907274602" lon="11.56417986974913"><ele>146.0</ele><time>2026-05-01T08:28:58Z</time></trkpt><trkpt lat="43.53065416190622" lon="11.564106739204274"><ele>146.0</ele><time>2026-05-01T08:29:00Z</time></trkpt><trkpt lat="43.53072809420169" lon="11.564033486760563"><ele>146.0</ele><time>2026-05-01T08:29:02Z</time></trkpt><trkpt lat="43.53080751449174" lon="11.563960405405366"><ele>146.0</ele><time>2026-05-01T08:29:04Z</time></trkpt><trkpt lat="43.53088141192057" lon="11.563888368332968"><ele>146.0</ele><time>2026-05-01T08:29:06Z</time></trkpt><trkpt lat="43.53095707815774" lon="11.56380832228498"><ele>146.0</ele><time>2026-05-01T08:29:08Z</time></trkpt><trkpt lat="43.53104010918159" lon="11.563733293947973"><ele>146.0</ele><time>2026-05-01T08:29:10Z</time></trkpt><trkpt lat="43.53112559712342" lon="11.563651250502001"><ele>146.0</ele><time>2026-05-01T08:29:12Z</time></trkpt><trkpt lat="43.53121402333585" lon="11.56356163595525"><ele>146.0</ele><time>2026-05-01T08:29:13.999Z</time></trkpt><trkpt lat="43.53130555374161" lon="11.563465913541966"><ele>146.0</ele><time>2026-05-01T08:29:15.999Z</time></trkpt><trkpt lat="43.53140027083361" lon="11.563371004874652"><ele>145.8</ele><time>2026-05-01T08:29:17.999Z</time></trkpt><trkpt lat="43.53150049314299" lon="11.563277392196806"><ele>145.6</ele><time>2026-05-01T08:29:19.999Z</time></trkpt><trkpt lat="43.53159967955326" lon="11.563183433979948"><ele>145.4</ele><time>2026-05-01T08:29:21.999Z</time></trkpt><trkpt lat="43.53165110909442" lon="11.563131958552928"><ele>145.2</ele><time>2026-05-01T08:29:22.999Z</time></trkpt><trkpt lat="43.53170416090869" lon="11.563081558520055"><ele>145.0</ele><time>2026-05-01T08:29:23.999Z</time></trkpt><trkpt lat="43.53180433620992" lon="11.562982366914516"><ele>145.0</ele><time>2026-05-01T08:29:25.999Z</time></trkpt><trkpt lat="43.53190550362636" lon="11.562887328460706"><ele>145.0</ele><time>2026-05-01T08:29:27.999Z</time></trkpt><trkpt lat="43.53200319318681" lon="11.562783869739842"><ele>145.0</ele><time>2026-05-01T08:29:29.999Z</time></trkpt><trkpt lat="43.532106617585065" lon="11.562685859843022"><ele>145.0</ele><time>2026-05-01T08:29:31.999Z</time></trkpt><trkpt lat="43.53221133696486" lon="11.562595414957903"><ele>144.75</ele><time>2026-05-01T08:29:33.999Z</time></trkpt><trkpt lat="43.53230995947274" lon="11.56249026063041"><ele>144.5</ele><time>2026-05-01T08:29:35.999Z</time></trkpt><trkpt lat="43.532413537051745" lon="11.562393568077043"><ele>144.25</ele><time>2026-05-01T08:29:37.999Z</time></trkpt><trkpt lat="43.53251279835334" lon="11.562292591222866"><ele>144.0</ele><time>2026-05-01T08:29:39.999Z</time></trkpt><trkpt lat="43.53261620049887" lon="11.562191959677198"><ele>144.0</ele><time>2026-05-01T08:29:41.999Z</time></trkpt><trkpt lat="43.53266627729924" lon="11.562137857673982"><ele>144.0</ele><time>2026-05-01T08:29:42.999Z</time></trkpt><trkpt lat="43.532766484222776" lon="11.5620398615027"><ele>144.0</ele><time>2026-05-01T08:29:44.999Z</time></trkpt><trkpt lat="43.532852059503185" lon="11.56191522714995"><ele>144.0</ele><time>2026-05-01T08:29:46.999Z</time></trkpt><trkpt lat="43.53294013868548" lon="11.561804349119088"><ele>144.0</ele><time>2026-05-01T08:29:48.999Z</time></trkpt><trkpt lat="43.53304329687377" lon="11.561722030935938"><ele>143.5</ele><time>2026-05-01T08:29:50.999Z</time></trkpt><trkpt lat="43.53315426414247" lon="11.561654999832696"><ele>143.0</ele><time>2026-05-01T08:29:52.999Z</time></trkpt><trkpt lat="43.533250181967304" lon="11.561560096653754"><ele>142.5</ele><time>2026-05-01T08:29:54.999Z</time></trkpt><trkpt lat="43.53334774854628" lon="11.561466051418416"><ele>142.0</ele><time>2026-05-01T08:29:56.999Z</time></trkpt><trkpt lat="43.53344288729493" lon="11.5613732430146"><ele>142.0</ele><time>2026-05-01T08:29:58.999Z</time></trkpt><trkpt lat="43.533534292121985" lon="11.561268900643393"><ele>142.0</ele><time>2026-05-01T08:30:00.998Z</time></trkpt><trkpt lat="43.53362470375529" lon="11.56116674376535"><ele>142.0</ele><time>2026-05-01T08:30:02.998Z</time></trkpt><trkpt lat="43.533721522020514" lon="11.561061242712551"><ele>142.0</ele><time>2026-05-01T08:30:04.998Z</time></trkpt><trkpt lat="43.53381778041982" lon="11.560965410316594"><ele>142.5</ele><time>2026-05-01T08:30:06.998Z</time></trkpt><trkpt lat="43.53391399676502" lon="11.56086466376144"><ele>143.0</ele><time>2026-05-01T08:30:08.998Z</time></trkpt><trkpt lat="43.53401821761274" lon="11.560779452538105"><ele>143.5</ele><time>2026-05-01T08:30:10.998Z</time></trkpt><trkpt lat="43.53411759762218" lon="11.560685942631531"><ele>144.0</ele><time>2026-05-01T08:30:12.998Z</time></trkpt><trkpt lat="43.53421812563997" lon="11.560594114783694"><ele>144.0</ele><time>2026-05-01T08:30:14.998Z</time></trkpt><trkpt lat="43.534316130793904" lon="11.560492686423238"><ele>144.0</ele><time>2026-05-01T08:30:16.998Z</time></trkpt><trkpt lat="43.53440803943792" lon="11.560402974509717"><ele>144.0</ele><time>2026-05-01T08:30:18.998Z</time></trkpt><trkpt lat="43.53450079132868" lon="11.560325354505569"><ele>144.0</ele><time>2026-05-01T08:30:20.998Z</time></trkpt><trkpt lat="43.53459922652876" lon="11.560269404303966"><ele>143.8</ele><time>2026-05-01T08:30:22.998Z</time></trkpt><trkpt lat="43.534697485435615" lon="11.560249432438697"><ele>143.60000000000002</ele><time>2026-05-01T08:30:24.998Z</time></trkpt><trkpt lat="43.53480697706331" lon="11.560271906378519"><ele>143.4</ele><time>2026-05-01T08:30:26.998Z</time></trkpt><trkpt lat="43.53491342140056" lon="11.560298634916013"><ele>143.20000000000002</ele><time>2026-05-01T08:30:28.998Z</time></trkpt><trkpt lat="43.53503448091612" lon="11.560303332297499"><ele>143.0</ele><time>2026-05-01T08:30:30.998Z</time></trkpt><trkpt lat="43.535096196273635" lon="11.560278350388938"><ele>143.0</ele><time>2026-05-01T08:30:31.998Z</time></trkpt><trkpt lat="43.535203757770304" lon="11.560195715241141"><ele>143.0</ele><time>2026-05-01T08:30:33.998Z</time></trkpt><trkpt lat="43.53528114074731" lon="11.56006327091793"><ele>143.0</ele><time>2026-05-01T08:30:35.998Z</time></trkpt><trkpt lat="43.53530004633901" lon="11.5599712753677"><ele>143.0</ele><time>2026-05-01T08:30:36.998Z</time></trkpt><trkpt lat="43.5353190726868" lon="11.55988005960023"><ele>143.0</ele><time>2026-05-01T08:30:37.998Z</time></trkpt><trkpt lat="43.53533432217121" lon="11.55979312810121"><ele>143.0</ele><time>2026-05-01T08:30:38.998Z</time></trkpt><trkpt lat="43.53532972992574" lon="11.559704248436978"><ele>143.0</ele><time>2026-05-01T08:30:39.998Z</time></trkpt><trkpt lat="43.53538368530262" lon="11.559625799024044"><ele>143.0</ele><time>2026-05-01T08:30:40.998Z</time></trkpt><trkpt lat="43.53541627049627" lon="11.559549174318025"><ele>143.0</ele><time>2026-05-01T08:30:41.998Z</time></trkpt><trkpt lat="43.53545491856258" lon="11.559475781854024"><ele>143.0</ele><time>2026-05-01T08:30:42.998Z</time></trkpt><trkpt lat="43.535484596012935" lon="11.559392141948322"><ele>143.0</ele><time>2026-05-01T08:30:43.998Z</time></trkpt><trkpt lat="43.53559656035621" lon="11.55927602525423"><ele>143.0</ele><time>2026-05-01T08:30:46Z</time></trkpt><trkpt lat="43.53564902483628" lon="11.559217451561219"><ele>142.57142857142856</ele><time>2026-05-01T08:30:47Z</time></trkpt><trkpt lat="43.53570531437362" lon="11.559164766551175"><ele>142.14285714285714</ele><time>2026-05-01T08:30:48Z</time></trkpt><trkpt lat="43.535758338633485" lon="11.5591088600577"><ele>141.71428571428572</ele><time>2026-05-01T08:30:49Z</time></trkpt><trkpt lat="43.53581322320654" lon="11.559058434419194"><ele>141.28571428571428</ele><time>2026-05-01T08:30:50Z</time></trkpt><trkpt lat="43.53586881423729" lon="11.55900251153598"><ele>140.85714285714286</ele><time>2026-05-01T08:30:51Z</time></trkpt><trkpt lat="43.535923254124555" lon="11.558948361816512"><ele>140.42857142857142</ele><time>2026-05-01T08:30:52Z</time></trkpt><trkpt lat="43.53597910763068" lon="11.558893807217187"><ele>140.0</ele><time>2026-05-01T08:30:53Z</time></trkpt><trkpt lat="43.5360345100021" lon="11.55883721011106"><ele>140.0</ele><time>2026-05-01T08:30:54Z</time></trkpt><trkpt lat="43.536088982184815" lon="11.558783032905732"><ele>140.0</ele><time>2026-05-01T08:30:55Z</time></trkpt><trkpt lat="43.53613951844474" lon="11.558720096455607"><ele>140.0</ele><time>2026-05-01T08:30:56Z</time></trkpt><trkpt lat="43.53619818261286" lon="11.55866937135593"><ele>140.0</ele><time>2026-05-01T08:30:57Z</time></trkpt><trkpt lat="43.53624856543791" lon="11.558614455538867"><ele>140.0</ele><time>2026-05-01T08:30:58Z</time></trkpt><trkpt lat="43.536301022001695" lon="11.558563292171366"><ele>140.0</ele><time>2026-05-01T08:30:59Z</time></trkpt><trkpt lat="43.536351892633306" lon="11.5585086399315"><ele>140.0</ele><time>2026-05-01T08:31:00Z</time></trkpt><trkpt lat="43.536405383191905" lon="11.558455586841776"><ele>139.8</ele><time>2026-05-01T08:31:01Z</time></trkpt><trkpt lat="43.536457814372625" lon="11.558399664803952"><ele>139.6</ele><time>2026-05-01T08:31:02Z</time></trkpt><trkpt lat="43.536503960849195" lon="11.558340326919367"><ele>139.4</ele><time>2026-05-01T08:31:03Z</time></trkpt><trkpt lat="43.53659546865034" lon="11.558233909354884"><ele>139.2</ele><time>2026-05-01T08:31:05Z</time></trkpt><trkpt lat="43.53668733507008" lon="11.55812617985566"><ele>139.0</ele><time>2026-05-01T08:31:07Z</time></trkpt><trkpt lat="43.53677965618161" lon="11.558010359617938"><ele>139.0</ele><time>2026-05-01T08:31:09Z</time></trkpt><trkpt lat="43.53687088303027" lon="11.557902472553216"><ele>139.0</ele><time>2026-05-01T08:31:11Z</time></trkpt><trkpt lat="43.536919603398694" lon="11.557845300937421"><ele>139.0</ele><time>2026-05-01T08:31:12Z</time></trkpt><trkpt lat="43.53700645244309" lon="11.557722112489543"><ele>139.0</ele><time>2026-05-01T08:31:14Z</time></trkpt><trkpt lat="43.53704965679609" lon="11.557656088089043"><ele>139.0</ele><time>2026-05-01T08:31:15Z</time></trkpt><trkpt lat="43.53713219960454" lon="11.55752212031343"><ele>139.0</ele><time>2026-05-01T08:31:17Z</time></trkpt><trkpt lat="43.5371777107395" lon="11.55746135356337"><ele>139.0</ele><time>2026-05-01T08:31:18Z</time></trkpt><trkpt lat="43.5372192994747" lon="11.557390462357208"><ele>139.0</ele><time>2026-05-01T08:31:19Z</time></trkpt><trkpt lat="43.537258104095024" lon="11.557314989356238"><ele>139.0</ele><time>2026-05-01T08:31:20Z</time></trkpt><trkpt lat="43.53730020109127" lon="11.557245878374196"><ele>139.0</ele><time>2026-05-01T08:31:21Z</time></trkpt><trkpt lat="43.5373421490881" lon="11.55717537277758"><ele>139.0</ele><time>2026-05-01T08:31:21.999Z</time></trkpt><trkpt lat="43.537383897929686" lon="11.557100685051006"><ele>139.0</ele><time>2026-05-01T08:31:22.999Z</time></trkpt><trkpt lat="43.53742291797754" lon="11.55702749213894"><ele>139.0</ele><time>2026-05-01T08:31:23.999Z</time></trkpt><trkpt lat="43.537463438724764" lon="11.5569498612981"><ele>139.0</ele><time>2026-05-01T08:31:24.999Z</time></trkpt><trkpt lat="43.53750420974893" lon="11.556876253459096"><ele>139.0</ele><time>2026-05-01T08:31:25.999Z</time></trkpt><trkpt lat="43.53753987253191" lon="11.556797750438449"><ele>139.0</ele><time>2026-05-01T08:31:26.999Z</time></trkpt><trkpt lat="43.53757387429883" lon="11.556716299247284"><ele>139.0</ele><time>2026-05-01T08:31:27.999Z</time></trkpt><trkpt lat="43.537614767381164" lon="11.556639903498414"><ele>139.0</ele><time>2026-05-01T08:31:28.999Z</time></trkpt><trkpt lat="43.537650197297154" lon="11.556564798363977"><ele>139.0</ele><time>2026-05-01T08:31:29.999Z</time></trkpt><trkpt lat="43.53768922541264" lon="11.556491348321329"><ele>139.0</ele><time>2026-05-01T08:31:30.999Z</time></trkpt><trkpt lat="43.53772807331475" lon="11.556408737218518"><ele>139.0</ele><time>2026-05-01T08:31:31.999Z</time></trkpt><trkpt lat="43.537763841945775" lon="11.556331949355426"><ele>139.0</ele><time>2026-05-01T08:31:32.999Z</time></trkpt><trkpt lat="43.537799837614536" lon="11.556258933535306"><ele>139.0</ele><time>2026-05-01T08:31:33.999Z</time></trkpt><trkpt lat="43.53783586827723" lon="11.556180605312427"><ele>139.0</ele><time>2026-05-01T08:31:34.999Z</time></trkpt><trkpt lat="43.537872341873715" lon="11.556105126137393"><ele>139.0</ele><time>2026-05-01T08:31:35.999Z</time></trkpt><trkpt lat="43.53790937152632" lon="11.55602902657693"><ele>139.0</ele><time>2026-05-01T08:31:36.999Z</time></trkpt><trkpt lat="43.53794542878499" lon="11.555954809654436"><ele>139.0</ele><time>2026-05-01T08:31:37.999Z</time></trkpt><trkpt lat="43.53798174371424" lon="11.555878139505962"><ele>139.0</ele><time>2026-05-01T08:31:38.999Z</time></trkpt><trkpt lat="43.53801688833073" lon="11.555799414054754"><ele>139.0</ele><time>2026-05-01T08:31:39.999Z</time></trkpt><trkpt lat="43.53805572109051" lon="11.555725723246272"><ele>139.0</ele><time>2026-05-01T08:31:40.999Z</time></trkpt><trkpt lat="43.538095546466465" lon="11.55565607686133"><ele>139.0</ele><time>2026-05-01T08:31:41.999Z</time></trkpt><trkpt lat="43.53812756806146" lon="11.555577420917004"><ele>139.0</ele><time>2026-05-01T08:31:42.999Z</time></trkpt><trkpt lat="43.538198480923676" lon="11.555442277302387"><ele>139.25</ele><time>2026-05-01T08:31:44.999Z</time></trkpt><trkpt lat="43.53826466717704" lon="11.555298130665486"><ele>139.5</ele><time>2026-05-01T08:31:46.999Z</time></trkpt><trkpt lat="43.53833481733941" lon="11.555163227369551"><ele>139.75</ele><time>2026-05-01T08:31:48.999Z</time></trkpt><trkpt lat="43.53839461966279" lon="11.555020444513266"><ele>140.0</ele><time>2026-05-01T08:31:50.999Z</time></trkpt><trkpt lat="43.53846392188575" lon="11.554905898230073"><ele>140.0</ele><time>2026-05-01T08:31:52.999Z</time></trkpt><trkpt lat="43.538566614766395" lon="11.554867423460967"><ele>140.0</ele><time>2026-05-01T08:31:54.999Z</time></trkpt><trkpt lat="43.53867236048238" lon="11.55484013717697"><ele>140.0</ele><time>2026-05-01T08:31:56.999Z</time></trkpt><trkpt lat="43.53875895185094" lon="11.554743567380328"><ele>140.0</ele><time>2026-05-01T08:31:58.999Z</time></trkpt><trkpt lat="43.53881132065362" lon="11.55461166663964"><ele>140.0</ele><time>2026-05-01T08:32:00.999Z</time></trkpt><trkpt lat="43.53881140386841" lon="11.554461068580554"><ele>139.6</ele><time>2026-05-01T08:32:02.999Z</time></trkpt><trkpt lat="43.53879360726971" lon="11.554316835980929"><ele>139.2</ele><time>2026-05-01T08:32:04.999Z</time></trkpt><trkpt lat="43.53875175329538" lon="11.554214090245646"><ele>138.8</ele><time>2026-05-01T08:32:06.999Z</time></trkpt><trkpt lat="43.53884027297306" lon="11.554102222410842"><ele>138.4</ele><time>2026-05-01T08:32:07.999Z</time></trkpt><trkpt lat="43.53892094558733" lon="11.553989620352802"><ele>138.0</ele><time>2026-05-01T08:32:09.998Z</time></trkpt><trkpt lat="43.5390007441444" lon="11.5538625900488"><ele>138.0</ele><time>2026-05-01T08:32:11.998Z</time></trkpt><trkpt lat="43.53904545890752" lon="11.55379840063665"><ele>138.0</ele><time>2026-05-01T08:32:12.998Z</time></trkpt><trkpt lat="43.53908781436731" lon="11.553730267895652"><ele>138.0</ele><time>2026-05-01T08:32:13.998Z</time></trkpt><trkpt lat="43.53912801487097" lon="11.553660030665824"><ele>138.0</ele><time>2026-05-01T08:32:14.998Z</time></trkpt><trkpt lat="43.5391729837756" lon="11.553591407256986"><ele>138.0</ele><time>2026-05-01T08:32:15.998Z</time></trkpt><trkpt lat="43.53922013007979" lon="11.553515173270545"><ele>138.0</ele><time>2026-05-01T08:32:16.998Z</time></trkpt><trkpt lat="43.53926473713663" lon="11.553440611423481"><ele>138.0</ele><time>2026-05-01T08:32:17.998Z</time></trkpt><trkpt lat="43.53930936199548" lon="11.55336900387847"><ele>137.85714285714286</ele><time>2026-05-01T08:32:18.998Z</time></trkpt><trkpt lat="43.539352099234975" lon="11.553296174164068"><ele>137.71428571428572</ele><time>2026-05-01T08:32:19.998Z</time></trkpt><trkpt lat="43.539395302773215" lon="11.553226240723838"><ele>137.57142857142858</ele><time>2026-05-01T08:32:20.998Z</time></trkpt><trkpt lat="43.53944176979948" lon="11.553157783275427"><ele>137.42857142857144</ele><time>2026-05-01T08:32:21.998Z</time></trkpt><trkpt lat="43.539488990144534" lon="11.553092265910937"><ele>137.28571428571428</ele><time>2026-05-01T08:32:22.998Z</time></trkpt><trkpt lat="43.539531321964944" lon="11.55302727563792"><ele>137.14285714285717</ele><time>2026-05-01T08:32:23.998Z</time></trkpt><trkpt lat="43.53957908575785" lon="11.552959263948974"><ele>137.0</ele><time>2026-05-01T08:32:24.998Z</time></trkpt><trkpt lat="43.53963266351629" lon="11.5528985272011"><ele>137.14285714285717</ele><time>2026-05-01T08:32:25.998Z</time></trkpt><trkpt lat="43.53968153258165" lon="11.55283827238843"><ele>137.28571428571428</ele><time>2026-05-01T08:32:26.998Z</time></trkpt><trkpt lat="43.5397298224207" lon="11.552773100749453"><ele>137.42857142857144</ele><time>2026-05-01T08:32:27.998Z</time></trkpt><trkpt lat="43.5397845490759" lon="11.55271740411131"><ele>137.57142857142858</ele><time>2026-05-01T08:32:28.998Z</time></trkpt><trkpt lat="43.53983362639102" lon="11.55265721624595"><ele>137.71428571428572</ele><time>2026-05-01T08:32:29.998Z</time></trkpt><trkpt lat="43.53988279285905" lon="11.552594645518244"><ele>137.85714285714286</ele><time>2026-05-01T08:32:30.998Z</time></trkpt><trkpt lat="43.53993279411764" lon="11.552541550654796"><ele>138.0</ele><time>2026-05-01T08:32:31.998Z</time></trkpt><trkpt lat="43.53998879567405" lon="11.552486007224678"><ele>138.0</ele><time>2026-05-01T08:32:32.998Z</time></trkpt><trkpt lat="43.54003974295044" lon="11.552428815599287"><ele>138.0</ele><time>2026-05-01T08:32:33.998Z</time></trkpt><trkpt lat="43.540089772480314" lon="11.552372126753495"><ele>138.0</ele><time>2026-05-01T08:32:34.998Z</time></trkpt><trkpt lat="43.540145820451855" lon="11.552326727829053"><ele>138.0</ele><time>2026-05-01T08:32:35.998Z</time></trkpt><trkpt lat="43.54019933138567" lon="11.552272430005257"><ele>138.0</ele><time>2026-05-01T08:32:36.998Z</time></trkpt><trkpt lat="43.54025593770606" lon="11.55222286574461"><ele>138.0</ele><time>2026-05-01T08:32:37.998Z</time></trkpt><trkpt lat="43.54036423757643" lon="11.552122868534953"><ele>138.0</ele><time>2026-05-01T08:32:39.998Z</time></trkpt><trkpt lat="43.54041696124933" lon="11.552075007786808"><ele>138.0</ele><time>2026-05-01T08:32:40.998Z</time></trkpt><trkpt lat="43.54047045828163" lon="11.552028950887358"><ele>138.0</ele><time>2026-05-01T08:32:41.998Z</time></trkpt><trkpt lat="43.54057695156351" lon="11.551933913812425"><ele>138.0</ele><time>2026-05-01T08:32:43.998Z</time></trkpt><trkpt lat="43.54063132952032" lon="11.551889398075698"><ele>138.0</ele><time>2026-05-01T08:32:44.998Z</time></trkpt><trkpt lat="43.54068649298925" lon="11.551838971019064"><ele>138.0</ele><time>2026-05-01T08:32:45.998Z</time></trkpt><trkpt lat="43.540791466165615" lon="11.55174783607699"><ele>138.0</ele><time>2026-05-01T08:32:47.998Z</time></trkpt><trkpt lat="43.540896404706544" lon="11.55165340370224"><ele>138.0</ele><time>2026-05-01T08:32:49.998Z</time></trkpt><trkpt lat="43.54100022611034" lon="11.55156377100962"><ele>138.0</ele><time>2026-05-01T08:32:52Z</time></trkpt><trkpt lat="43.54110617878982" lon="11.55147778083051"><ele>138.0</ele><time>2026-05-01T08:32:54Z</time></trkpt><trkpt lat="43.54121136843594" lon="11.551388345626942"><ele>138.25</ele><time>2026-05-01T08:32:56Z</time></trkpt><trkpt lat="43.54131666263008" lon="11.551291502662343"><ele>138.5</ele><time>2026-05-01T08:32:58Z</time></trkpt><trkpt lat="43.54141663307812" lon="11.551206977845032"><ele>138.75</ele><time>2026-05-01T08:33:00Z</time></trkpt><trkpt lat="43.54151845256021" lon="11.55111981494085"><ele>139.0</ele><time>2026-05-01T08:33:02Z</time></trkpt><trkpt lat="43.5416192700745" lon="11.551027532666216"><ele>139.0</ele><time>2026-05-01T08:33:04Z</time></trkpt><trkpt lat="43.54170960009246" lon="11.550952912420478"><ele>139.0</ele><time>2026-05-01T08:33:06Z</time></trkpt><trkpt lat="43.541800359283535" lon="11.550873535960928"><ele>139.0</ele><time>2026-05-01T08:33:08Z</time></trkpt><trkpt lat="43.541894717950456" lon="11.55079000727581"><ele>139.0</ele><time>2026-05-01T08:33:10Z</time></trkpt><trkpt lat="43.541990856653136" lon="11.55071156624075"><ele>139.0</ele><time>2026-05-01T08:33:12Z</time></trkpt><trkpt lat="43.54208192767636" lon="11.55063605005655"><ele>138.8</ele><time>2026-05-01T08:33:14Z</time></trkpt><trkpt lat="43.542174476945206" lon="11.550553847196918"><ele>138.60000000000002</ele><time>2026-05-01T08:33:16Z</time></trkpt><trkpt lat="43.542265428361" lon="11.550474307920512"><ele>138.4</ele><time>2026-05-01T08:33:18Z</time></trkpt><trkpt lat="43.54235770977415" lon="11.550402397525591"><ele>138.20000000000002</ele><time>2026-05-01T08:33:20Z</time></trkpt><trkpt lat="43.54244735483606" lon="11.550327685427755"><ele>138.0</ele><time>2026-05-01T08:33:22Z</time></trkpt><trkpt lat="43.54253235066617" lon="11.5502406252316"><ele>138.4</ele><time>2026-05-01T08:33:24Z</time></trkpt><trkpt lat="43.54262018903656" lon="11.550155681952596"><ele>138.8</ele><time>2026-05-01T08:33:26Z</time></trkpt><trkpt lat="43.542707509945984" lon="11.550074578794"><ele>139.2</ele><time>2026-05-01T08:33:28Z</time></trkpt><trkpt lat="43.54279759346499" lon="11.549997665058031"><ele>139.6</ele><time>2026-05-01T08:33:30Z</time></trkpt><trkpt lat="43.5428851579216" lon="11.54992070150454"><ele>140.0</ele><time>2026-05-01T08:33:31.999Z</time></trkpt><trkpt lat="43.54297116889766" lon="11.54984540976923"><ele>140.0</ele><time>2026-05-01T08:33:33.999Z</time></trkpt><trkpt lat="43.54305807993548" lon="11.549769938573169"><ele>140.0</ele><time>2026-05-01T08:33:35.999Z</time></trkpt><trkpt lat="43.54314225245284" lon="11.549700263922627"><ele>140.0</ele><time>2026-05-01T08:33:37.999Z</time></trkpt><trkpt lat="43.54321945992556" lon="11.54962917804629"><ele>140.0</ele><time>2026-05-01T08:33:39.999Z</time></trkpt><trkpt lat="43.5432896610499" lon="11.549572911185859"><ele>140.0</ele><time>2026-05-01T08:33:41.999Z</time></trkpt><trkpt lat="43.54335642683231" lon="11.549513395658684"><ele>140.0</ele><time>2026-05-01T08:33:43.999Z</time></trkpt><trkpt lat="43.54342718165893" lon="11.549454924334983"><ele>140.0</ele><time>2026-05-01T08:33:45.999Z</time></trkpt><trkpt lat="43.543508903665455" lon="11.549382656762862"><ele>140.0</ele><time>2026-05-01T08:33:47.999Z</time></trkpt><trkpt lat="43.54360020480403" lon="11.549310534657252"><ele>140.0</ele><time>2026-05-01T08:33:49.999Z</time></trkpt><trkpt lat="43.543697757507225" lon="11.549226084544463"><ele>140.0</ele><time>2026-05-01T08:33:51.999Z</time></trkpt><trkpt lat="43.54379727506423" lon="11.549136208386917"><ele>139.33333333333331</ele><time>2026-05-01T08:33:53.999Z</time></trkpt><trkpt lat="43.543900556249994" lon="11.549043723832131"><ele>138.66666666666666</ele><time>2026-05-01T08:33:55.999Z</time></trkpt><trkpt lat="43.54395358155302" lon="11.548994443602789"><ele>138.0</ele><time>2026-05-01T08:33:56.999Z</time></trkpt><trkpt lat="43.54400797540166" lon="11.548947379740508"><ele>137.33333333333334</ele><time>2026-05-01T08:33:57.999Z</time></trkpt><trkpt lat="43.544061958493394" lon="11.548897186490372"><ele>136.66666666666669</ele><time>2026-05-01T08:33:58.999Z</time></trkpt><trkpt lat="43.544117245436" lon="11.548847763381195"><ele>136.0</ele><time>2026-05-01T08:33:59.999Z</time></trkpt><trkpt lat="43.54417236489742" lon="11.548794474363216"><ele>136.0</ele><time>2026-05-01T08:34:00.999Z</time></trkpt><trkpt lat="43.54422818054095" lon="11.54874581164042"><ele>136.0</ele><time>2026-05-01T08:34:01.999Z</time></trkpt><trkpt lat="43.54428122672354" lon="11.54869879729706"><ele>136.0</ele><time>2026-05-01T08:34:02.999Z</time></trkpt><trkpt lat="43.5443927860293" lon="11.548624578874138"><ele>136.0</ele><time>2026-05-01T08:34:04.999Z</time></trkpt><trkpt lat="43.54454707475951" lon="11.548556556943392"><ele>136.0</ele><time>2026-05-01T08:34:07.999Z</time></trkpt><trkpt lat="43.54466239729254" lon="11.548584832581293"><ele>136.5</ele><time>2026-05-01T08:34:09.999Z</time></trkpt><trkpt lat="43.54477891387808" lon="11.548600702220305"><ele>137.0</ele><time>2026-05-01T08:34:11.999Z</time></trkpt><trkpt lat="43.544889444317334" lon="11.548541898611553"><ele>137.5</ele><time>2026-05-01T08:34:13.999Z</time></trkpt><trkpt lat="43.544975585199346" lon="11.548420624201098"><ele>138.0</ele><time>2026-05-01T08:34:15.999Z</time></trkpt><trkpt lat="43.54501440248242" lon="11.548261303106596"><ele>138.0</ele><time>2026-05-01T08:34:17.999Z</time></trkpt><trkpt lat="43.545007176200066" lon="11.54810505156315"><ele>138.0</ele><time>2026-05-01T08:34:19.998Z</time></trkpt><trkpt lat="43.545113288607354" lon="11.547956152140559"><ele>138.0</ele><time>2026-05-01T08:34:21.998Z</time></trkpt><trkpt lat="43.545163528324515" lon="11.547898329502198"><ele>138.0</ele><time>2026-05-01T08:34:22.998Z</time></trkpt><trkpt lat="43.5452668557869" lon="11.547812850141645"><ele>138.0</ele><time>2026-05-01T08:34:24.998Z</time></trkpt><trkpt lat="43.54532156092018" lon="11.547768689278763"><ele>138.0</ele><time>2026-05-01T08:34:25.998Z</time></trkpt><trkpt lat="43.54537589526999" lon="11.547722064024578"><ele>138.0</ele><time>2026-05-01T08:34:26.998Z</time></trkpt><trkpt lat="43.545426871967535" lon="11.547668975932886"><ele>138.0</ele><time>2026-05-01T08:34:27.998Z</time></trkpt><trkpt lat="43.54553225327032" lon="11.547578777021085"><ele>138.0</ele><time>2026-05-01T08:34:29.998Z</time></trkpt><trkpt lat="43.54563277350426" lon="11.547489094360222"><ele>138.0</ele><time>2026-05-01T08:34:31.998Z</time></trkpt><trkpt lat="43.54568315659891" lon="11.547436381149392"><ele>137.75</ele><time>2026-05-01T08:34:32.998Z</time></trkpt><trkpt lat="43.54578682475323" lon="11.547336626828747"><ele>137.5</ele><time>2026-05-01T08:34:34.998Z</time></trkpt><trkpt lat="43.54589064568957" lon="11.547245968131806"><ele>137.25</ele><time>2026-05-01T08:34:36.998Z</time></trkpt><trkpt lat="43.54599252378541" lon="11.547150051829927"><ele>137.0</ele><time>2026-05-01T08:34:38.998Z</time></trkpt><trkpt lat="43.54609517223664" lon="11.54706102230886"><ele>137.0</ele><time>2026-05-01T08:34:40.998Z</time></trkpt><trkpt lat="43.54619842114646" lon="11.546968851794338"><ele>137.0</ele><time>2026-05-01T08:34:42.998Z</time></trkpt><trkpt lat="43.54629855220737" lon="11.546881034126041"><ele>137.0</ele><time>2026-05-01T08:34:44.998Z</time></trkpt><trkpt lat="43.546397590448855" lon="11.546793136251987"><ele>137.0</ele><time>2026-05-01T08:34:46.998Z</time></trkpt><trkpt lat="43.546495633388254" lon="11.54670952789688"><ele>136.25</ele><time>2026-05-01T08:34:48.998Z</time></trkpt><trkpt lat="43.54659466384656" lon="11.546625603953451"><ele>135.5</ele><time>2026-05-01T08:34:50.998Z</time></trkpt><trkpt lat="43.54668983813853" lon="11.546537864949066"><ele>134.75</ele><time>2026-05-01T08:34:52.998Z</time></trkpt><trkpt lat="43.54679291782701" lon="11.54645104886187"><ele>134.0</ele><time>2026-05-01T08:34:54.998Z</time></trkpt><trkpt lat="43.54689354535444" lon="11.546362946400626"><ele>134.0</ele><time>2026-05-01T08:34:57Z</time></trkpt><trkpt lat="43.54699110783566" lon="11.546276439474664"><ele>134.0</ele><time>2026-05-01T08:34:59Z</time></trkpt><trkpt lat="43.54709054867455" lon="11.54618716854182"><ele>134.0</ele><time>2026-05-01T08:35:01Z</time></trkpt><trkpt lat="43.54718845300599" lon="11.546096706440414"><ele>134.0</ele><time>2026-05-01T08:35:03Z</time></trkpt><trkpt lat="43.547288856752026" lon="11.54600929139517"><ele>134.25</ele><time>2026-05-01T08:35:05Z</time></trkpt><trkpt lat="43.54738899355677" lon="11.545918343595458"><ele>134.5</ele><time>2026-05-01T08:35:07Z</time></trkpt><trkpt lat="43.547492069671385" lon="11.545831409733232"><ele>134.75</ele><time>2026-05-01T08:35:09Z</time></trkpt><trkpt lat="43.547592045964386" lon="11.545740300511614"><ele>135.0</ele><time>2026-05-01T08:35:11Z</time></trkpt><trkpt lat="43.54769471015192" lon="11.54565014659238"><ele>135.0</ele><time>2026-05-01T08:35:13Z</time></trkpt><trkpt lat="43.547798541412874" lon="11.545556656422335"><ele>135.0</ele><time>2026-05-01T08:35:15Z</time></trkpt><trkpt lat="43.547900114299104" lon="11.545464189670604"><ele>135.0</ele><time>2026-05-01T08:35:17Z</time></trkpt><trkpt lat="43.547999807137685" lon="11.545377934409911"><ele>135.0</ele><time>2026-05-01T08:35:19Z</time></trkpt><trkpt lat="43.548101731197335" lon="11.545289446526967"><ele>135.25</ele><time>2026-05-01T08:35:21Z</time></trkpt><trkpt lat="43.54820145973927" lon="11.545203858264006"><ele>135.5</ele><time>2026-05-01T08:35:23Z</time></trkpt><trkpt lat="43.54830063069614" lon="11.545112674962889"><ele>135.75</ele><time>2026-05-01T08:35:25Z</time></trkpt><trkpt lat="43.54840059259054" lon="11.545025924392224"><ele>136.0</ele><time>2026-05-01T08:35:27Z</time></trkpt><trkpt lat="43.54850106601273" lon="11.544932723115972"><ele>136.0</ele><time>2026-05-01T08:35:29Z</time></trkpt><trkpt lat="43.548601805468785" lon="11.54484033502045"><ele>136.0</ele><time>2026-05-01T08:35:31Z</time></trkpt><trkpt lat="43.54870662035859" lon="11.544750214209742"><ele>136.0</ele><time>2026-05-01T08:35:33Z</time></trkpt><trkpt lat="43.54875944936927" lon="11.544702227173364"><ele>136.0</ele><time>2026-05-01T08:35:34Z</time></trkpt><trkpt lat="43.54886101032827" lon="11.544603843740877"><ele>136.0</ele><time>2026-05-01T08:35:35.999Z</time></trkpt><trkpt lat="43.548916356964156" lon="11.544552271703244"><ele>136.25</ele><time>2026-05-01T08:35:36.999Z</time></trkpt><trkpt lat="43.54902113933029" lon="11.544462701367676"><ele>136.5</ele><time>2026-05-01T08:35:38.999Z</time></trkpt><trkpt lat="43.549118312752576" lon="11.544381380084294"><ele>136.75</ele><time>2026-05-01T08:35:40.999Z</time></trkpt><trkpt lat="43.54921295566753" lon="11.544285634277418"><ele>137.0</ele><time>2026-05-01T08:35:42.999Z</time></trkpt><trkpt lat="43.54930182769852" lon="11.544192882165301"><ele>137.0</ele><time>2026-05-01T08:35:44.999Z</time></trkpt><trkpt lat="43.54940345123259" lon="11.544119414328586"><ele>137.0</ele><time>2026-05-01T08:35:46.999Z</time></trkpt><trkpt lat="43.549501069317905" lon="11.54403591964916"><ele>137.0</ele><time>2026-05-01T08:35:48.999Z</time></trkpt><trkpt lat="43.54960308211388" lon="11.543959583430475"><ele>137.0</ele><time>2026-05-01T08:35:50.999Z</time></trkpt><trkpt lat="43.54969621655002" lon="11.543866026374532"><ele>137.0</ele><time>2026-05-01T08:35:52.999Z</time></trkpt><trkpt lat="43.549794999081406" lon="11.543783158454051"><ele>137.0</ele><time>2026-05-01T08:35:54.999Z</time></trkpt><trkpt lat="43.549893229837515" lon="11.543690205743074"><ele>137.0</ele><time>2026-05-01T08:35:56.999Z</time></trkpt><trkpt lat="43.549987538278614" lon="11.543603639289891"><ele>137.0</ele><time>2026-05-01T08:35:58.999Z</time></trkpt><trkpt lat="43.550086975840294" lon="11.543515778916145"><ele>137.0</ele><time>2026-05-01T08:36:00.999Z</time></trkpt><trkpt lat="43.550184093425685" lon="11.5434286729502"><ele>137.0</ele><time>2026-05-01T08:36:02.999Z</time></trkpt><trkpt lat="43.55028118344918" lon="11.543344139471145"><ele>137.0</ele><time>2026-05-01T08:36:04.999Z</time></trkpt><trkpt lat="43.55037614096144" lon="11.543256464956876"><ele>137.0</ele><time>2026-05-01T08:36:06.999Z</time></trkpt><trkpt lat="43.550474469931245" lon="11.543173053306498"><ele>137.25</ele><time>2026-05-01T08:36:08.999Z</time></trkpt><trkpt lat="43.550571554282264" lon="11.543087708460979"><ele>137.5</ele><time>2026-05-01T08:36:10.999Z</time></trkpt><trkpt lat="43.55066251883549" lon="11.542994944851129"><ele>137.75</ele><time>2026-05-01T08:36:12.999Z</time></trkpt><trkpt lat="43.550758655539724" lon="11.542916989787466"><ele>138.0</ele><time>2026-05-01T08:36:14.999Z</time></trkpt><trkpt lat="43.55085248619969" lon="11.542835973255341"><ele>138.0</ele><time>2026-05-01T08:36:16.999Z</time></trkpt><trkpt lat="43.5509431430917" lon="11.542750332796144"><ele>138.0</ele><time>2026-05-01T08:36:18.999Z</time></trkpt><trkpt lat="43.55099360024357" lon="11.542697406759649"><ele>138.0</ele><time>2026-05-01T08:36:19.999Z</time></trkpt><trkpt lat="43.551082822214575" lon="11.542618983275084"><ele>138.0</ele><time>2026-05-01T08:36:21.999Z</time></trkpt><trkpt lat="43.55117491105178" lon="11.54253902733303"><ele>138.0</ele><time>2026-05-01T08:36:23.998Z</time></trkpt><trkpt lat="43.551267762932426" lon="11.542459361298024"><ele>137.8</ele><time>2026-05-01T08:36:25.998Z</time></trkpt><trkpt lat="43.5513577950658" lon="11.542373455214891"><ele>137.60000000000002</ele><time>2026-05-01T08:36:27.998Z</time></trkpt><trkpt lat="43.55145161917402" lon="11.542294061653214"><ele>137.39999999999998</ele><time>2026-05-01T08:36:29.998Z</time></trkpt><trkpt lat="43.55154590386325" lon="11.542211399249888"><ele>137.2</ele><time>2026-05-01T08:36:31.998Z</time></trkpt><trkpt lat="43.551632030471865" lon="11.542130581918387"><ele>137.0</ele><time>2026-05-01T08:36:33.998Z</time></trkpt><trkpt lat="43.55171498354893" lon="11.542057257529647"><ele>137.2</ele><time>2026-05-01T08:36:35.998Z</time></trkpt><trkpt lat="43.55179123204648" lon="11.541984021407085"><ele>137.39999999999998</ele><time>2026-05-01T08:36:37.998Z</time></trkpt><trkpt lat="43.55186781259925" lon="11.54191094068954"><ele>137.60000000000002</ele><time>2026-05-01T08:36:39.998Z</time></trkpt><trkpt lat="43.5519512641824" lon="11.541836939371297"><ele>137.8</ele><time>2026-05-01T08:36:41.998Z</time></trkpt><trkpt lat="43.552037448054826" lon="11.541774223410766"><ele>138.0</ele><time>2026-05-01T08:36:43.998Z</time></trkpt><trkpt lat="43.55214902672868" lon="11.541805278514731"><ele>137.25</ele><time>2026-05-01T08:36:45.998Z</time></trkpt><trkpt lat="43.55225872597545" lon="11.541808088916339"><ele>136.5</ele><time>2026-05-01T08:36:47.998Z</time></trkpt><trkpt lat="43.5523463965091" lon="11.541680524027251"><ele>135.75</ele><time>2026-05-01T08:36:49.998Z</time></trkpt><trkpt lat="43.55239366932778" lon="11.541534591545018"><ele>135.0</ele><time>2026-05-01T08:36:51.998Z</time></trkpt><trkpt lat="43.552452247244624" lon="11.541391321137214"><ele>135.0</ele><time>2026-05-01T08:36:53.998Z</time></trkpt><trkpt lat="43.552556624112746" lon="11.541294195667215"><ele>135.0</ele><time>2026-05-01T08:36:55.998Z</time></trkpt><trkpt lat="43.55261285992355" lon="11.541250595434542"><ele>135.0</ele><time>2026-05-01T08:36:56.998Z</time></trkpt><trkpt lat="43.55271536285266" lon="11.541158625055443"><ele>135.0</ele><time>2026-05-01T08:36:58.998Z</time></trkpt><trkpt lat="43.55276904649548" lon="11.541106835220159"><ele>135.0</ele><time>2026-05-01T08:36:59.998Z</time></trkpt><trkpt lat="43.552822985883864" lon="11.541055419328174"><ele>135.0</ele><time>2026-05-01T08:37:00.998Z</time></trkpt><trkpt lat="43.55292762348774" lon="11.540963345557312"><ele>135.6</ele><time>2026-05-01T08:37:03Z</time></trkpt><trkpt lat="43.55303012412177" lon="11.540871486772112"><ele>136.2</ele><time>2026-05-01T08:37:05Z</time></trkpt><trkpt lat="43.55313315577529" lon="11.540774721254039"><ele>136.8</ele><time>2026-05-01T08:37:07Z</time></trkpt><trkpt lat="43.553187014333176" lon="11.5407246083015"><ele>137.4</ele><time>2026-05-01T08:37:08Z</time></trkpt><trkpt lat="43.553291602505766" lon="11.540639241251029"><ele>138.0</ele><time>2026-05-01T08:37:10Z</time></trkpt><trkpt lat="43.55334171757282" lon="11.540584906276345"><ele>138.0</ele><time>2026-05-01T08:37:11Z</time></trkpt><trkpt lat="43.5534469936685" lon="11.540495151116492"><ele>138.0</ele><time>2026-05-01T08:37:13Z</time></trkpt><trkpt lat="43.55350055291796" lon="11.540441851543175"><ele>138.0</ele><time>2026-05-01T08:37:14Z</time></trkpt><trkpt lat="43.553606216194105" lon="11.540344390177212"><ele>138.0</ele><time>2026-05-01T08:37:16Z</time></trkpt><trkpt lat="43.55365918756041" lon="11.540293851034875"><ele>138.0</ele><time>2026-05-01T08:37:17Z</time></trkpt><trkpt lat="43.55376695230159" lon="11.540203110367832"><ele>138.0</ele><time>2026-05-01T08:37:19Z</time></trkpt><trkpt lat="43.55381906554837" lon="11.54014882475743"><ele>138.0</ele><time>2026-05-01T08:37:20Z</time></trkpt><trkpt lat="43.55387288746752" lon="11.5401001610516"><ele>138.0</ele><time>2026-05-01T08:37:21Z</time></trkpt><trkpt lat="43.55392935964456" lon="11.540053515956224"><ele>138.0</ele><time>2026-05-01T08:37:22Z</time></trkpt><trkpt lat="43.5539858764392" lon="11.540005885819857"><ele>138.0</ele><time>2026-05-01T08:37:23Z</time></trkpt><trkpt lat="43.554041373987346" lon="11.539959010177675"><ele>138.0</ele><time>2026-05-01T08:37:24Z</time></trkpt><trkpt lat="43.554095556441816" lon="11.539910341792798"><ele>138.0</ele><time>2026-05-01T08:37:25Z</time></trkpt><trkpt lat="43.55414962412954" lon="11.539858595403608"><ele>138.0</ele><time>2026-05-01T08:37:26Z</time></trkpt><trkpt lat="43.55425262292779" lon="11.53976836559284"><ele>138.0</ele><time>2026-05-01T08:37:28Z</time></trkpt><trkpt lat="43.55435366099868" lon="11.539676500679835"><ele>138.0</ele><time>2026-05-01T08:37:30Z</time></trkpt><trkpt lat="43.55440840249093" lon="11.539628817119198"><ele>138.0</ele><time>2026-05-01T08:37:31Z</time></trkpt><trkpt lat="43.55451253943844" lon="11.53953707131439"><ele>138.0</ele><time>2026-05-01T08:37:33Z</time></trkpt><trkpt lat="43.55461188944662" lon="11.539448333874933"><ele>137.25</ele><time>2026-05-01T08:37:35Z</time></trkpt><trkpt lat="43.5547116473482" lon="11.539349429760051"><ele>136.5</ele><time>2026-05-01T08:37:37Z</time></trkpt><trkpt lat="43.554812489496804" lon="11.539267242601854"><ele>135.75</ele><time>2026-05-01T08:37:39Z</time></trkpt><trkpt lat="43.55490714498898" lon="11.539192327045658"><ele>135.0</ele><time>2026-05-01T08:37:40.999Z</time></trkpt><trkpt lat="43.55499776264291" lon="11.539128836256468"><ele>135.0</ele><time>2026-05-01T08:37:42.999Z</time></trkpt><trkpt lat="43.55508793790559" lon="11.539065183295461"><ele>135.0</ele><time>2026-05-01T08:37:44.999Z</time></trkpt><trkpt lat="43.555175936513855" lon="11.539005194905949"><ele>135.0</ele><time>2026-05-01T08:37:46.999Z</time></trkpt><trkpt lat="43.55525853747443" lon="11.538954897777222"><ele>135.0</ele><time>2026-05-01T08:37:48.999Z</time></trkpt><trkpt lat="43.55534576910811" lon="11.5389168438944"><ele>135.0</ele><time>2026-05-01T08:37:50.999Z</time></trkpt><trkpt lat="43.5554365111796" lon="11.538890414339592"><ele>135.0</ele><time>2026-05-01T08:37:52.999Z</time></trkpt><trkpt lat="43.555526101926596" lon="11.53886395225709"><ele>135.0</ele><time>2026-05-01T08:37:54.999Z</time></trkpt><trkpt lat="43.555621703702464" lon="11.538847656726896"><ele>135.0</ele><time>2026-05-01T08:37:56.999Z</time></trkpt><trkpt lat="43.55571745755901" lon="11.538837177003876"><ele>135.0</ele><time>2026-05-01T08:37:58.999Z</time></trkpt><trkpt lat="43.555817502213934" lon="11.538830745777663"><ele>135.0</ele><time>2026-05-01T08:38:00.999Z</time></trkpt><trkpt lat="43.55592310326333" lon="11.538820540683943"><ele>135.0</ele><time>2026-05-01T08:38:02.999Z</time></trkpt><trkpt lat="43.55602582899236" lon="11.53878227899013"><ele>135.0</ele><time>2026-05-01T08:38:04.999Z</time></trkpt><trkpt lat="43.5561363821788" lon="11.538823822976418"><ele>135.0</ele><time>2026-05-01T08:38:06.999Z</time></trkpt><trkpt lat="43.556232661382765" lon="11.538842626869531"><ele>135.0</ele><time>2026-05-01T08:38:08.999Z</time></trkpt><trkpt lat="43.556324065997146" lon="11.53885370660203"><ele>135.0</ele><time>2026-05-01T08:38:10.999Z</time></trkpt><trkpt lat="43.55641291203965" lon="11.538870460638943"><ele>135.0</ele><time>2026-05-01T08:38:12.999Z</time></trkpt><trkpt lat="43.556492186246736" lon="11.538886701543518"><ele>135.0</ele><time>2026-05-01T08:38:14.999Z</time></trkpt><trkpt lat="43.556569575419424" lon="11.53891380301598"><ele>135.0</ele><time>2026-05-01T08:38:16.999Z</time></trkpt><trkpt lat="43.55664299032328" lon="11.538930910251144"><ele>135.0</ele><time>2026-05-01T08:38:18.999Z</time></trkpt><trkpt lat="43.55671368937454" lon="11.538950614814"><ele>135.0</ele><time>2026-05-01T08:38:20.999Z</time></trkpt><trkpt lat="43.55679154425637" lon="11.53897360094545"><ele>135.0</ele><time>2026-05-01T08:38:22.999Z</time></trkpt><trkpt lat="43.556875650172564" lon="11.538998101157414"><ele>135.0</ele><time>2026-05-01T08:38:24.999Z</time></trkpt><trkpt lat="43.556962214073614" lon="11.539020814799558"><ele>135.0</ele><time>2026-05-01T08:38:26.999Z</time></trkpt><trkpt lat="43.55704747046567" lon="11.539048114795401"><ele>135.0</ele><time>2026-05-01T08:38:28.999Z</time></trkpt><trkpt lat="43.55713560677662" lon="11.539075896637552"><ele>135.0</ele><time>2026-05-01T08:38:30.998Z</time></trkpt><trkpt lat="43.55722624516737" lon="11.539099300808303"><ele>135.0</ele><time>2026-05-01T08:38:32.998Z</time></trkpt><trkpt lat="43.55731941067697" lon="11.53912111984611"><ele>134.8</ele><time>2026-05-01T08:38:34.998Z</time></trkpt><trkpt lat="43.55741030341893" lon="11.539140411530399"><ele>134.6</ele><time>2026-05-01T08:38:36.998Z</time></trkpt><trkpt lat="43.55750450013187" lon="11.53915404483518"><ele>134.4</ele><time>2026-05-01T08:38:38.998Z</time></trkpt><trkpt lat="43.55759751858925" lon="11.539170133843331"><ele>134.2</ele><time>2026-05-01T08:38:40.998Z</time></trkpt><trkpt lat="43.55769139610258" lon="11.539182436575452"><ele>134.0</ele><time>2026-05-01T08:38:42.998Z</time></trkpt><trkpt lat="43.55778213516974" lon="11.539189528829546"><ele>134.0</ele><time>2026-05-01T08:38:44.998Z</time></trkpt><trkpt lat="43.55787732445315" lon="11.539185331683871"><ele>134.0</ele><time>2026-05-01T08:38:46.998Z</time></trkpt><trkpt lat="43.557973956343154" lon="11.539179791212439"><ele>134.0</ele><time>2026-05-01T08:38:48.998Z</time></trkpt><trkpt lat="43.558070278144385" lon="11.539170334225206"><ele>134.0</ele><time>2026-05-01T08:38:50.998Z</time></trkpt><trkpt lat="43.558169670668015" lon="11.539156674757393"><ele>134.0</ele><time>2026-05-01T08:38:52.998Z</time></trkpt><trkpt lat="43.558271956217624" lon="11.539147293791538"><ele>134.0</ele><time>2026-05-01T08:38:54.998Z</time></trkpt><trkpt lat="43.558370988229996" lon="11.539120942717206"><ele>134.0</ele><time>2026-05-01T08:38:56.998Z</time></trkpt><trkpt lat="43.55847021808527" lon="11.539101553881052"><ele>134.0</ele><time>2026-05-01T08:38:58.998Z</time></trkpt><trkpt lat="43.5585744341363" lon="11.539072683300155"><ele>134.0</ele><time>2026-05-01T08:39:00.998Z</time></trkpt><trkpt lat="43.55868082421757" lon="11.539048769602546"><ele>134.0</ele><time>2026-05-01T08:39:02.998Z</time></trkpt><trkpt lat="43.558780193678025" lon="11.539018021240476"><ele>134.0</ele><time>2026-05-01T08:39:04.998Z</time></trkpt><trkpt lat="43.5588720236283" lon="11.53898700481464"><ele>134.0</ele><time>2026-05-01T08:39:06.998Z</time></trkpt><trkpt lat="43.55895692914028" lon="11.53895443123609"><ele>134.0</ele><time>2026-05-01T08:39:09Z</time></trkpt><trkpt lat="43.559035835855006" lon="11.538916654372441"><ele>134.0</ele><time>2026-05-01T08:39:11Z</time></trkpt><trkpt lat="43.559111451793136" lon="11.538888262934938"><ele>134.0</ele><time>2026-05-01T08:39:13Z</time></trkpt><trkpt lat="43.55919382630946" lon="11.538846031726822"><ele>134.0</ele><time>2026-05-01T08:39:15Z</time></trkpt><trkpt lat="43.55927446005634" lon="11.538804371546208"><ele>134.0</ele><time>2026-05-01T08:39:17Z</time></trkpt><trkpt lat="43.55935564292014" lon="11.538758625739069"><ele>134.0</ele><time>2026-05-01T08:39:19Z</time></trkpt><trkpt lat="43.55943927436763" lon="11.538703902543483"><ele>134.0</ele><time>2026-05-01T08:39:21Z</time></trkpt><trkpt lat="43.559525883344385" lon="11.538648074627455"><ele>134.0</ele><time>2026-05-01T08:39:23Z</time></trkpt><trkpt lat="43.55961074369515" lon="11.538592369273056"><ele>134.0</ele><time>2026-05-01T08:39:25Z</time></trkpt><trkpt lat="43.5596903749557" lon="11.538540837802646"><ele>134.4</ele><time>2026-05-01T08:39:27Z</time></trkpt><trkpt lat="43.55975756729215" lon="11.538510909444872"><ele>134.8</ele><time>2026-05-01T08:39:29Z</time></trkpt><trkpt lat="43.55985053897073" lon="11.538698181874722"><ele>135.2</ele><time>2026-05-01T08:39:34Z</time></trkpt><trkpt lat="43.559934165510164" lon="11.538696630877395"><ele>135.6</ele><time>2026-05-01T08:39:36Z</time></trkpt><trkpt lat="43.55999758932588" lon="11.538697800237019"><ele>136.0</ele><time>2026-05-01T08:39:38Z</time></trkpt><trkpt lat="43.56007282467241" lon="11.53866393299706"><ele>136.0</ele><time>2026-05-01T08:39:40Z</time></trkpt><trkpt lat="43.560140964002564" lon="11.538595974789752"><ele>136.0</ele><time>2026-05-01T08:39:42Z</time></trkpt><trkpt lat="43.56021812533689" lon="11.538546612879106"><ele>136.0</ele><time>2026-05-01T08:39:44Z</time></trkpt><trkpt lat="43.560302504041545" lon="11.538508651329971"><ele>136.0</ele><time>2026-05-01T08:39:45.999Z</time></trkpt><trkpt lat="43.560382423263576" lon="11.53845950367322"><ele>136.0</ele><time>2026-05-01T08:39:47.999Z</time></trkpt><trkpt lat="43.560463917991726" lon="11.538411244345887"><ele>136.0</ele><time>2026-05-01T08:39:49.999Z</time></trkpt><trkpt lat="43.56054460678845" lon="11.538364103581575"><ele>135.66666666666669</ele><time>2026-05-01T08:39:51.999Z</time></trkpt><trkpt lat="43.560628851001034" lon="11.538322876091815"><ele>135.33333333333334</ele><time>2026-05-01T08:39:53.999Z</time></trkpt><trkpt lat="43.56071568390353" lon="11.538305671250832"><ele>135.0</ele><time>2026-05-01T08:39:55.999Z</time></trkpt><trkpt lat="43.56080660737695" lon="11.538256214963885"><ele>134.66666666666666</ele><time>2026-05-01T08:39:58.999Z</time></trkpt><trkpt lat="43.56087754306247" lon="11.538196087183245"><ele>134.33333333333331</ele><time>2026-05-01T08:40:00.999Z</time></trkpt><trkpt lat="43.56095081186384" lon="11.538162354766106"><ele>134.0</ele><time>2026-05-01T08:40:02.999Z</time></trkpt><trkpt lat="43.56103369584773" lon="11.538106560026593"><ele>134.0</ele><time>2026-05-01T08:40:04.999Z</time></trkpt><trkpt lat="43.56111349671869" lon="11.538052097509226"><ele>134.0</ele><time>2026-05-01T08:40:06.999Z</time></trkpt><trkpt lat="43.56110741438232" lon="11.537886679973504"><ele>134.0</ele><time>2026-05-01T08:40:07.999Z</time></trkpt><trkpt lat="43.56124887489662" lon="11.537969245386956"><ele>134.0</ele><time>2026-05-01T08:40:09.999Z</time></trkpt><trkpt lat="43.56129774637795" lon="11.537913262258083"><ele>134.0</ele><time>2026-05-01T08:40:11.999Z</time></trkpt><trkpt lat="43.56126799237803" lon="11.537563668443552"><ele>134.4</ele><time>2026-05-01T08:40:13.999Z</time></trkpt><trkpt lat="43.561348553355856" lon="11.537510950153527"><ele>134.8</ele><time>2026-05-01T08:40:15.999Z</time></trkpt><trkpt lat="43.561441202266806" lon="11.537450321694163"><ele>135.2</ele><time>2026-05-01T08:40:17.999Z</time></trkpt><trkpt lat="43.56152460886767" lon="11.537395741328078"><ele>135.6</ele><time>2026-05-01T08:40:19.999Z</time></trkpt><trkpt lat="43.561612801011464" lon="11.537338029240958"><ele>136.0</ele><time>2026-05-01T08:40:21.999Z</time></trkpt><trkpt lat="43.56168672860653" lon="11.537289651804395"><ele>136.0</ele><time>2026-05-01T08:40:23.999Z</time></trkpt><trkpt lat="43.56177766534804" lon="11.5372301437626"><ele>136.0</ele><time>2026-05-01T08:40:25.999Z</time></trkpt><trkpt lat="43.56186441650528" lon="11.537173374703308"><ele>136.0</ele><time>2026-05-01T08:40:27.999Z</time></trkpt><trkpt lat="43.56194687070472" lon="11.537119417562147"><ele>136.0</ele><time>2026-05-01T08:40:29.999Z</time></trkpt><trkpt lat="43.56203437408354" lon="11.53706215619683"><ele>136.0</ele><time>2026-05-01T08:40:31.999Z</time></trkpt><trkpt lat="43.56212526897852" lon="11.537002676117321"><ele>136.4</ele><time>2026-05-01T08:40:33.998Z</time></trkpt><trkpt lat="43.562207875088525" lon="11.536947412063027"><ele>136.8</ele><time>2026-05-01T08:40:35.998Z</time></trkpt><trkpt lat="43.56229017352314" lon="11.536892730780712"><ele>137.20000000000002</ele><time>2026-05-01T08:40:37.998Z</time></trkpt><trkpt lat="43.56238302147077" lon="11.536831040283214"><ele>137.6</ele><time>2026-05-01T08:40:39.998Z</time></trkpt><trkpt lat="43.56246643567552" lon="11.53677561786712"><ele>138.0</ele><time>2026-05-01T08:40:41.998Z</time></trkpt><trkpt lat="43.5625468820569" lon="11.536722364374707"><ele>138.0</ele><time>2026-05-01T08:40:43.998Z</time></trkpt><trkpt lat="43.56262779533034" lon="11.536669803480804"><ele>138.0</ele><time>2026-05-01T08:40:45.998Z</time></trkpt><trkpt lat="43.56271862636246" lon="11.536610800191948"><ele>138.0</ele><time>2026-05-01T08:40:47.998Z</time></trkpt><trkpt lat="43.562810623072664" lon="11.536551039646426"><ele>138.0</ele><time>2026-05-01T08:40:49.998Z</time></trkpt><trkpt lat="43.56289068768833" lon="11.53649903009443"><ele>138.0</ele><time>2026-05-01T08:40:51.998Z</time></trkpt><trkpt lat="43.562990639302186" lon="11.536433770536242"><ele>137.83333333333334</ele><time>2026-05-01T08:40:53.998Z</time></trkpt><trkpt lat="43.56307932739332" lon="11.53637559269108"><ele>137.66666666666666</ele><time>2026-05-01T08:40:55.998Z</time></trkpt><trkpt lat="43.563144618281946" lon="11.536333252824376"><ele>137.5</ele><time>2026-05-01T08:40:57.998Z</time></trkpt><trkpt lat="43.563226249697614" lon="11.53628031643415"><ele>137.33333333333331</ele><time>2026-05-01T08:41:00.998Z</time></trkpt><trkpt lat="43.56329499727696" lon="11.53623573502445"><ele>137.16666666666666</ele><time>2026-05-01T08:41:02.998Z</time></trkpt><trkpt lat="43.56335824731979" lon="11.536193507794609"><ele>137.0</ele><time>2026-05-01T08:41:04.998Z</time></trkpt><trkpt lat="43.563425175694164" lon="11.536148380437897"><ele>137.0</ele><time>2026-05-01T08:41:06.998Z</time></trkpt><trkpt lat="43.5634933132754" lon="11.536102437857508"><ele>137.0</ele><time>2026-05-01T08:41:08.998Z</time></trkpt><trkpt lat="43.56356788886846" lon="11.536052154314543"><ele>137.0</ele><time>2026-05-01T08:41:10.998Z</time></trkpt><trkpt lat="43.56364760955056" lon="11.535999359174129"><ele>137.0</ele><time>2026-05-01T08:41:12.998Z</time></trkpt><trkpt lat="43.56372903211036" lon="11.535946515414366"><ele>137.0</ele><time>2026-05-01T08:41:15Z</time></trkpt><trkpt lat="43.56380839021223" lon="11.535895049450984"><ele>137.0</ele><time>2026-05-01T08:41:17Z</time></trkpt><trkpt lat="43.563881009352244" lon="11.535848776423922"><ele>136.66666666666666</ele><time>2026-05-01T08:41:19Z</time></trkpt><trkpt lat="43.5639649142974" lon="11.535795833544952"><ele>136.33333333333331</ele><time>2026-05-01T08:41:21Z</time></trkpt><trkpt lat="43.56403278716031" lon="11.535752997905922"><ele>136.0</ele><time>2026-05-01T08:41:23Z</time></trkpt><trkpt lat="43.564103599375" lon="11.535708036202028"><ele>135.66666666666666</ele><time>2026-05-01T08:41:25Z</time></trkpt><trkpt lat="43.56417860711901" lon="11.535660378541632"><ele>135.33333333333334</ele><time>2026-05-01T08:41:27Z</time></trkpt><trkpt lat="43.564259816699845" lon="11.535608780498482"><ele>135.0</ele><time>2026-05-01T08:41:29Z</time></trkpt><trkpt lat="43.56434052185155" lon="11.53555750285062"><ele>135.0</ele><time>2026-05-01T08:41:31Z</time></trkpt><trkpt lat="43.56441978126113" lon="11.5355071438082"><ele>135.0</ele><time>2026-05-01T08:41:33Z</time></trkpt><trkpt lat="43.56450108891572" lon="11.53545548341752"><ele>135.0</ele><time>2026-05-01T08:41:35Z</time></trkpt><trkpt lat="43.564586811842084" lon="11.535400817845906"><ele>135.0</ele><time>2026-05-01T08:41:37Z</time></trkpt><trkpt lat="43.56467522402514" lon="11.535344423281575"><ele>135.0</ele><time>2026-05-01T08:41:39Z</time></trkpt><trkpt lat="43.56475122119879" lon="11.535295573442896"><ele>135.0</ele><time>2026-05-01T08:41:41Z</time></trkpt><trkpt lat="43.564831497793314" lon="11.535243193044423"><ele>135.0</ele><time>2026-05-01T08:41:43Z</time></trkpt><trkpt lat="43.56489858828708" lon="11.535199416584753"><ele>135.0</ele><time>2026-05-01T08:41:45Z</time></trkpt><trkpt lat="43.564963213724724" lon="11.535157248533768"><ele>135.0</ele><time>2026-05-01T08:41:47Z</time></trkpt><trkpt lat="43.56507837690875" lon="11.535095294563396"><ele>135.0</ele><time>2026-05-01T08:41:51.999Z</time></trkpt><trkpt lat="43.565147671434204" lon="11.53510114811344"><ele>135.0</ele><time>2026-05-01T08:41:53.999Z</time></trkpt><trkpt lat="43.56519896072055" lon="11.53500489188226"><ele>135.0</ele><time>2026-05-01T08:41:55.999Z</time></trkpt><trkpt lat="43.56526899706529" lon="11.534960229721676"><ele>135.0</ele><time>2026-05-01T08:41:57.999Z</time></trkpt><trkpt lat="43.56533865178634" lon="11.534915811113361"><ele>135.0</ele><time>2026-05-01T08:41:59.999Z</time></trkpt><trkpt lat="43.565392616776556" lon="11.534822354480948"><ele>135.0</ele><time>2026-05-01T08:42:01.999Z</time></trkpt><trkpt lat="43.565482450022756" lon="11.534764588053196"><ele>135.0</ele><time>2026-05-01T08:42:04.999Z</time></trkpt><trkpt lat="43.56568411086904" lon="11.534643901829751"><ele>134.8</ele><time>2026-05-01T08:42:07.999Z</time></trkpt><trkpt lat="43.565783585558684" lon="11.534698851880433"><ele>134.6</ele><time>2026-05-01T08:42:12.999Z</time></trkpt><trkpt lat="43.56586201015644" lon="11.534704388141048"><ele>134.4</ele><time>2026-05-01T08:42:15.999Z</time></trkpt><trkpt lat="43.565955803324414" lon="11.534906855572546"><ele>134.2</ele><time>2026-05-01T08:42:22.999Z</time></trkpt><trkpt lat="43.56598525424922" lon="11.535018881524996"><ele>134.0</ele><time>2026-05-01T08:42:24.999Z</time></trkpt><trkpt lat="43.56601253696926" lon="11.535102389643688"><ele>134.0</ele><time>2026-05-01T08:42:26.999Z</time></trkpt><trkpt lat="43.566045064004136" lon="11.535182747486056"><ele>134.0</ele><time>2026-05-01T08:42:28.999Z</time></trkpt><trkpt lat="43.566074226503815" lon="11.53526593893807"><ele>134.0</ele><time>2026-05-01T08:42:30.999Z</time></trkpt><trkpt lat="43.56610404006721" lon="11.535354743831123"><ele>134.0</ele><time>2026-05-01T08:42:32.999Z</time></trkpt><trkpt lat="43.56613662592916" lon="11.535451863894044"><ele>134.0</ele><time>2026-05-01T08:42:34.999Z</time></trkpt><trkpt lat="43.566168519516296" lon="11.53555123722031"><ele>134.0</ele><time>2026-05-01T08:42:36.999Z</time></trkpt><trkpt lat="43.56620545981121" lon="11.535655004765582"><ele>134.0</ele><time>2026-05-01T08:42:38.999Z</time></trkpt><trkpt lat="43.56624580342739" lon="11.535768624953025"><ele>134.2</ele><time>2026-05-01T08:42:40.998Z</time></trkpt><trkpt lat="43.566281196218874" lon="11.535887268613674"><ele>134.4</ele><time>2026-05-01T08:42:42.998Z</time></trkpt><trkpt lat="43.56632137833442" lon="11.53599915586142"><ele>134.6</ele><time>2026-05-01T08:42:44.998Z</time></trkpt><trkpt lat="43.566359829090395" lon="11.536121496321806"><ele>134.8</ele><time>2026-05-01T08:42:46.998Z</time></trkpt><trkpt lat="43.56640487986842" lon="11.536253641260373"><ele>135.0</ele><time>2026-05-01T08:42:48.998Z</time></trkpt><trkpt lat="43.56645408046192" lon="11.536401078958386"><ele>135.0</ele><time>2026-05-01T08:42:50.998Z</time></trkpt><trkpt lat="43.56648200929083" lon="11.53648232678921"><ele>135.0</ele><time>2026-05-01T08:42:51.998Z</time></trkpt><trkpt lat="43.56650294114709" lon="11.536564912461158"><ele>135.0</ele><time>2026-05-01T08:42:52.998Z</time></trkpt><trkpt lat="43.566559133944715" lon="11.536714124236726"><ele>135.0</ele><time>2026-05-01T08:42:54.998Z</time></trkpt><trkpt lat="43.56660508401676" lon="11.536802026423784"><ele>135.0</ele><time>2026-05-01T08:42:56.998Z</time></trkpt><trkpt lat="43.56674774942813" lon="11.536668301588447"><ele>135.0</ele><time>2026-05-01T08:42:57.998Z</time></trkpt><trkpt lat="43.56686098473524" lon="11.536614454983217"><ele>135.0</ele><time>2026-05-01T08:42:59.998Z</time></trkpt><trkpt lat="43.56696082486038" lon="11.536528618941166"><ele>135.0</ele><time>2026-05-01T08:43:01.998Z</time></trkpt><trkpt lat="43.5670679009081" lon="11.536454812168222"><ele>135.0</ele><time>2026-05-01T08:43:03.998Z</time></trkpt><trkpt lat="43.567168200715344" lon="11.536383415746462"><ele>135.25</ele><time>2026-05-01T08:43:05.998Z</time></trkpt><trkpt lat="43.56726495804153" lon="11.536311987887327"><ele>135.5</ele><time>2026-05-01T08:43:07.998Z</time></trkpt><trkpt lat="43.567366860819625" lon="11.536249949125317"><ele>135.75</ele><time>2026-05-01T08:43:09.998Z</time></trkpt><trkpt lat="43.56747438118731" lon="11.536191134781918"><ele>136.0</ele><time>2026-05-01T08:43:11.998Z</time></trkpt><trkpt lat="43.56758058896575" lon="11.536120057702357"><ele>136.2</ele><time>2026-05-01T08:43:13.998Z</time></trkpt><trkpt lat="43.567686144225554" lon="11.536047320466828"><ele>136.39999999999998</ele><time>2026-05-01T08:43:15.998Z</time></trkpt><trkpt lat="43.5677436328476" lon="11.536011083146352"><ele>136.6</ele><time>2026-05-01T08:43:16.998Z</time></trkpt><trkpt lat="43.5678544382046" lon="11.535937428418494"><ele>136.79999999999998</ele><time>2026-05-01T08:43:18.998Z</time></trkpt><trkpt lat="43.56796132181005" lon="11.535864789498314"><ele>137.0</ele><time>2026-05-01T08:43:21Z</time></trkpt><trkpt lat="43.5680672415208" lon="11.535794084468606"><ele>137.0</ele><time>2026-05-01T08:43:23Z</time></trkpt><trkpt lat="43.568170307523395" lon="11.535727001203878"><ele>137.0</ele><time>2026-05-01T08:43:25Z</time></trkpt><trkpt lat="43.5682798950845" lon="11.53566417979128"><ele>137.0</ele><time>2026-05-01T08:43:27Z</time></trkpt><trkpt lat="43.56838476421266" lon="11.535599362716125"><ele>137.0</ele><time>2026-05-01T08:43:29Z</time></trkpt><trkpt lat="43.56844131077476" lon="11.535559991304488"><ele>137.0</ele><time>2026-05-01T08:43:30Z</time></trkpt><trkpt lat="43.568546522466505" lon="11.535493075981297"><ele>137.0</ele><time>2026-05-01T08:43:32Z</time></trkpt><trkpt lat="43.56864814794452" lon="11.5354211685601"><ele>137.0</ele><time>2026-05-01T08:43:34Z</time></trkpt><trkpt lat="43.568750202226916" lon="11.535353371864366"><ele>137.0</ele><time>2026-05-01T08:43:36Z</time></trkpt><trkpt lat="43.56885747049012" lon="11.53527825794363"><ele>137.0</ele><time>2026-05-01T08:43:38Z</time></trkpt><trkpt lat="43.568965011021376" lon="11.535208659967545"><ele>136.4</ele><time>2026-05-01T08:43:40Z</time></trkpt><trkpt lat="43.56906597932575" lon="11.535144690033276"><ele>135.79999999999998</ele><time>2026-05-01T08:43:42Z</time></trkpt><trkpt lat="43.5691248358089" lon="11.535110685160612"><ele>135.2</ele><time>2026-05-01T08:43:43Z</time></trkpt><trkpt lat="43.5692265260008" lon="11.535033794342018"><ele>134.6</ele><time>2026-05-01T08:43:45Z</time></trkpt><trkpt lat="43.56932913159816" lon="11.53496116913511"><ele>134.0</ele><time>2026-05-01T08:43:47Z</time></trkpt><trkpt lat="43.56942640810589" lon="11.534900568355509"><ele>133.8</ele><time>2026-05-01T08:43:49Z</time></trkpt><trkpt lat="43.569527916545006" lon="11.534834131758402"><ele>133.60000000000002</ele><time>2026-05-01T08:43:51Z</time></trkpt><trkpt lat="43.569631520182085" lon="11.534770800821713"><ele>133.4</ele><time>2026-05-01T08:43:53Z</time></trkpt><trkpt lat="43.569732775516115" lon="11.534699813733955"><ele>133.20000000000002</ele><time>2026-05-01T08:43:54.999Z</time></trkpt><trkpt lat="43.56982986945953" lon="11.534630614859129"><ele>133.0</ele><time>2026-05-01T08:43:56.999Z</time></trkpt><trkpt lat="43.569928008655964" lon="11.534567717977005"><ele>133.0</ele><time>2026-05-01T08:43:58.999Z</time></trkpt><trkpt lat="43.57002405637779" lon="11.534506526577577"><ele>133.0</ele><time>2026-05-01T08:44:00.999Z</time></trkpt><trkpt lat="43.57011683368759" lon="11.534441166210353"><ele>133.0</ele><time>2026-05-01T08:44:02.999Z</time></trkpt><trkpt lat="43.57021034984247" lon="11.53438490507258"><ele>133.0</ele><time>2026-05-01T08:44:04.999Z</time></trkpt><trkpt lat="43.57030289933312" lon="11.53431302990047"><ele>133.0</ele><time>2026-05-01T08:44:06.999Z</time></trkpt><trkpt lat="43.57039552396057" lon="11.53425840574276"><ele>133.0</ele><time>2026-05-01T08:44:08.999Z</time></trkpt><trkpt lat="43.57048498271264" lon="11.534197673002279"><ele>133.0</ele><time>2026-05-01T08:44:10.999Z</time></trkpt><trkpt lat="43.57057696051193" lon="11.534131938858662"><ele>133.0</ele><time>2026-05-01T08:44:12.999Z</time></trkpt><trkpt lat="43.57066933430882" lon="11.53406947048283"><ele>133.0</ele><time>2026-05-01T08:44:14.999Z</time></trkpt><trkpt lat="43.57075886349722" lon="11.53401452292807"><ele>133.0</ele><time>2026-05-01T08:44:16.999Z</time></trkpt><trkpt lat="43.57084760910719" lon="11.533951386145965"><ele>133.0</ele><time>2026-05-01T08:44:18.999Z</time></trkpt><trkpt lat="43.570980121952" lon="11.533862318247929"><ele>133.0</ele><time>2026-05-01T08:44:21.999Z</time></trkpt><trkpt lat="43.571070189597215" lon="11.533805953498351"><ele>133.0</ele><time>2026-05-01T08:44:23.999Z</time></trkpt><trkpt lat="43.57115983961938" lon="11.533747165797545"><ele>133.0</ele><time>2026-05-01T08:44:25.999Z</time></trkpt><trkpt lat="43.571249805078615" lon="11.533686753228121"><ele>133.0</ele><time>2026-05-01T08:44:27.999Z</time></trkpt><trkpt lat="43.57133574188105" lon="11.533622940220726"><ele>133.20000000000002</ele><time>2026-05-01T08:44:29.999Z</time></trkpt><trkpt lat="43.57142683615953" lon="11.53356594083448"><ele>133.4</ele><time>2026-05-01T08:44:31.999Z</time></trkpt><trkpt lat="43.57151811389324" lon="11.53350645374459"><ele>133.60000000000002</ele><time>2026-05-01T08:44:33.999Z</time></trkpt><trkpt lat="43.57161134436251" lon="11.533446830594862"><ele>133.8</ele><time>2026-05-01T08:44:35.999Z</time></trkpt><trkpt lat="43.57170667717435" lon="11.533379605698354"><ele>134.0</ele><time>2026-05-01T08:44:37.999Z</time></trkpt><trkpt lat="43.57180302189723" lon="11.533315074920866"><ele>134.0</ele><time>2026-05-01T08:44:39.999Z</time></trkpt><trkpt lat="43.571898736595045" lon="11.533252611879483"><ele>134.0</ele><time>2026-05-01T08:44:41.999Z</time></trkpt><trkpt lat="43.571994916720556" lon="11.533190221772267"><ele>134.0</ele><time>2026-05-01T08:44:43.998Z</time></trkpt><trkpt lat="43.57208807151312" lon="11.53312533461176"><ele>134.0</ele><time>2026-05-01T08:44:45.998Z</time></trkpt><trkpt lat="43.57217976073831" lon="11.533049748502387"><ele>134.0</ele><time>2026-05-01T08:44:47.998Z</time></trkpt><trkpt lat="43.572243490831475" lon="11.533060858522052"><ele>133.8</ele><time>2026-05-01T08:44:48.998Z</time></trkpt><trkpt lat="43.57234412966959" lon="11.533080755961828"><ele>133.60000000000002</ele><time>2026-05-01T08:44:50.998Z</time></trkpt><trkpt lat="43.57244829825604" lon="11.53312478728436"><ele>133.4</ele><time>2026-05-01T08:44:52.998Z</time></trkpt><trkpt lat="43.572547857069104" lon="11.533086053795197"><ele>133.20000000000002</ele><time>2026-05-01T08:44:54.998Z</time></trkpt><trkpt lat="43.57261621089778" lon="11.53298390173341"><ele>133.0</ele><time>2026-05-01T08:44:56.998Z</time></trkpt><trkpt lat="43.57265467147942" lon="11.532849652260012"><ele>133.0</ele><time>2026-05-01T08:44:58.998Z</time></trkpt><trkpt lat="43.57281142728564" lon="11.532805791193468"><ele>133.0</ele><time>2026-05-01T08:45:00.998Z</time></trkpt><trkpt lat="43.57292634646024" lon="11.532814794829369"><ele>133.0</ele><time>2026-05-01T08:45:02.998Z</time></trkpt><trkpt lat="43.57303925168245" lon="11.53283582241204"><ele>133.0</ele><time>2026-05-01T08:45:04.998Z</time></trkpt><trkpt lat="43.57315548042076" lon="11.532876194333394"><ele>132.25</ele><time>2026-05-01T08:45:06.998Z</time></trkpt><trkpt lat="43.57326624213441" lon="11.532928320875934"><ele>131.5</ele><time>2026-05-01T08:45:08.998Z</time></trkpt><trkpt lat="43.57337725161266" lon="11.532999292069716"><ele>130.75</ele><time>2026-05-01T08:45:10.998Z</time></trkpt><trkpt lat="43.57348276051946" lon="11.533076188601994"><ele>130.0</ele><time>2026-05-01T08:45:12.998Z</time></trkpt><trkpt lat="43.57358632879099" lon="11.533162469800876"><ele>130.0</ele><time>2026-05-01T08:45:14.998Z</time></trkpt><trkpt lat="43.573687974581844" lon="11.533250007041888"><ele>130.0</ele><time>2026-05-01T08:45:16.998Z</time></trkpt><trkpt lat="43.57378781675574" lon="11.533340493331071"><ele>130.0</ele><time>2026-05-01T08:45:18.998Z</time></trkpt><trkpt lat="43.57388742440346" lon="11.533432284791559"><ele>130.0</ele><time>2026-05-01T08:45:20.998Z</time></trkpt><trkpt lat="43.57398994665373" lon="11.533517452141748"><ele>130.75</ele><time>2026-05-01T08:45:22.998Z</time></trkpt><trkpt lat="43.57409059765148" lon="11.533606480070489"><ele>131.5</ele><time>2026-05-01T08:45:24.998Z</time></trkpt><trkpt lat="43.574194128086305" lon="11.533698367486155"><ele>132.25</ele><time>2026-05-01T08:45:27Z</time></trkpt><trkpt lat="43.57429042202843" lon="11.533789767957158"><ele>133.0</ele><time>2026-05-01T08:45:29Z</time></trkpt><trkpt lat="43.574390586108755" lon="11.53387568789927"><ele>133.0</ele><time>2026-05-01T08:45:31Z</time></trkpt><trkpt lat="43.574493557914025" lon="11.533963612679754"><ele>133.0</ele><time>2026-05-01T08:45:33Z</time></trkpt><trkpt lat="43.574589425371" lon="11.534053192512411"><ele>133.0</ele><time>2026-05-01T08:45:35Z</time></trkpt><trkpt lat="43.5746912445806" lon="11.534138218365026"><ele>133.0</ele><time>2026-05-01T08:45:37Z</time></trkpt><trkpt lat="43.57479190708465" lon="11.534234955273536"><ele>133.0</ele><time>2026-05-01T08:45:39Z</time></trkpt><trkpt lat="43.57489144805376" lon="11.534322089023801"><ele>133.0</ele><time>2026-05-01T08:45:41Z</time></trkpt><trkpt lat="43.574990065392925" lon="11.534411800456152"><ele>133.0</ele><time>2026-05-01T08:45:43Z</time></trkpt><trkpt lat="43.57509153272724" lon="11.534501187889681"><ele>133.0</ele><time>2026-05-01T08:45:45Z</time></trkpt><trkpt lat="43.57519353218839" lon="11.534587330293787"><ele>133.0</ele><time>2026-05-01T08:45:47Z</time></trkpt><trkpt lat="43.57524659966987" lon="11.534635487044692"><ele>133.0</ele><time>2026-05-01T08:45:48Z</time></trkpt><trkpt lat="43.57534543194613" lon="11.534728119107612"><ele>133.0</ele><time>2026-05-01T08:45:50Z</time></trkpt><trkpt lat="43.57540057522551" lon="11.534770691602374"><ele>133.0</ele><time>2026-05-01T08:45:51Z</time></trkpt><trkpt lat="43.575500589287934" lon="11.534864176136379"><ele>133.0</ele><time>2026-05-01T08:45:53Z</time></trkpt><trkpt lat="43.57559845777094" lon="11.534947661277693"><ele>133.0</ele><time>2026-05-01T08:45:55Z</time></trkpt><trkpt lat="43.57569998627159" lon="11.535024842426854"><ele>133.0</ele><time>2026-05-01T08:45:57Z</time></trkpt><trkpt lat="43.57579546844515" lon="11.535120632401359"><ele>133.0</ele><time>2026-05-01T08:45:59Z</time></trkpt><trkpt lat="43.57588435308033" lon="11.535201242469082"><ele>133.0</ele><time>2026-05-01T08:46:01Z</time></trkpt><trkpt lat="43.575977027819924" lon="11.535278715044825"><ele>133.0</ele><time>2026-05-01T08:46:03Z</time></trkpt><trkpt lat="43.57603296303847" lon="11.53532706007799"><ele>133.0</ele><time>2026-05-01T08:46:03.999Z</time></trkpt><trkpt lat="43.576100584227476" lon="11.535351609355589"><ele>133.0</ele><time>2026-05-01T08:46:04.999Z</time></trkpt><trkpt lat="43.57616103364353" lon="11.535430534807158"><ele>133.0</ele><time>2026-05-01T08:46:06.999Z</time></trkpt><trkpt lat="43.57626500116867" lon="11.535498820499694"><ele>133.0</ele><time>2026-05-01T08:46:08.999Z</time></trkpt><trkpt lat="43.57633908703941" lon="11.535617510072239"><ele>133.0</ele><time>2026-05-01T08:46:10.999Z</time></trkpt><trkpt lat="43.576355951490825" lon="11.535762168798794"><ele>133.4</ele><time>2026-05-01T08:46:12.999Z</time></trkpt><trkpt lat="43.57636436211684" lon="11.535904352647226"><ele>133.8</ele><time>2026-05-01T08:46:14.999Z</time></trkpt><trkpt lat="43.576402479020594" lon="11.536027046315873"><ele>134.2</ele><time>2026-05-01T08:46:16.999Z</time></trkpt><trkpt lat="43.57647948374533" lon="11.536101119774672"><ele>134.6</ele><time>2026-05-01T08:46:18.999Z</time></trkpt><trkpt lat="43.57658053273786" lon="11.536120003096695"><ele>135.0</ele><time>2026-05-01T08:46:20.999Z</time></trkpt><trkpt lat="43.57666511466017" lon="11.536083676478867"><ele>135.0</ele><time>2026-05-01T08:46:22.999Z</time></trkpt><trkpt lat="43.57673540166706" lon="11.535999967545417"><ele>135.0</ele><time>2026-05-01T08:46:24.999Z</time></trkpt><trkpt lat="43.57677487224744" lon="11.535890252995227"><ele>135.0</ele><time>2026-05-01T08:46:26.999Z</time></trkpt><trkpt lat="43.576848814083384" lon="11.535796821174406"><ele>135.0</ele><time>2026-05-01T08:46:28.999Z</time></trkpt><trkpt lat="43.57690083142412" lon="11.535690193300564"><ele>135.0</ele><time>2026-05-01T08:46:30.999Z</time></trkpt><trkpt lat="43.57695833118107" lon="11.53560207158769"><ele>135.0</ele><time>2026-05-01T08:46:32.999Z</time></trkpt><trkpt lat="43.57700067695598" lon="11.535514060813906"><ele>135.0</ele><time>2026-05-01T08:46:34.999Z</time></trkpt><trkpt lat="43.57704970946886" lon="11.53543381707625"><ele>135.0</ele><time>2026-05-01T08:46:36.999Z</time></trkpt><trkpt lat="43.57710759348298" lon="11.535344736327607"><ele>135.0</ele><time>2026-05-01T08:46:38.999Z</time></trkpt><trkpt lat="43.577153337558926" lon="11.535267193651974"><ele>135.0</ele><time>2026-05-01T08:46:40.999Z</time></trkpt><trkpt lat="43.57720314474703" lon="11.53518938551401"><ele>135.0</ele><time>2026-05-01T08:46:42.999Z</time></trkpt><trkpt lat="43.57725083356525" lon="11.535098552103271"><ele>135.2</ele><time>2026-05-01T08:46:44.999Z</time></trkpt><trkpt lat="43.57731468366966" lon="11.535001985320394"><ele>135.4</ele><time>2026-05-01T08:46:46.999Z</time></trkpt><trkpt lat="43.57738888266113" lon="11.534918749541303"><ele>135.6</ele><time>2026-05-01T08:46:48.999Z</time></trkpt><trkpt lat="43.57746333563705" lon="11.534826918558238"><ele>135.8</ele><time>2026-05-01T08:46:50.999Z</time></trkpt><trkpt lat="43.57754532770777" lon="11.534741950076471"><ele>136.0</ele><time>2026-05-01T08:46:52.999Z</time></trkpt><trkpt lat="43.57764340844417" lon="11.534681840988341"><ele>136.0</ele><time>2026-05-01T08:46:54.998Z</time></trkpt><trkpt lat="43.57773885350371" lon="11.534682962943348"><ele>136.0</ele><time>2026-05-01T08:46:56.998Z</time></trkpt><trkpt lat="43.5778045184427" lon="11.534700062562873"><ele>136.0</ele><time>2026-05-01T08:46:58.998Z</time></trkpt><trkpt lat="43.57789702991825" lon="11.53467109231624"><ele>136.0</ele><time>2026-05-01T08:47:00.998Z</time></trkpt><trkpt lat="43.577980606279155" lon="11.534582896428093"><ele>136.0</ele><time>2026-05-01T08:47:02.998Z</time></trkpt><trkpt lat="43.578044760376436" lon="11.534469328567567"><ele>136.2</ele><time>2026-05-01T08:47:04.998Z</time></trkpt><trkpt lat="43.57807275729648" lon="11.534326658154253"><ele>136.39999999999998</ele><time>2026-05-01T08:47:06.998Z</time></trkpt><trkpt lat="43.578041957649496" lon="11.534181545990748"><ele>136.6</ele><time>2026-05-01T08:47:08.998Z</time></trkpt><trkpt lat="43.57797022888521" lon="11.534068774775589"><ele>136.79999999999998</ele><time>2026-05-01T08:47:10.998Z</time></trkpt><trkpt lat="43.57801762839266" lon="11.533956734555177"><ele>137.0</ele><time>2026-05-01T08:47:11.998Z</time></trkpt><trkpt lat="43.578009818242535" lon="11.533815002441655"><ele>137.0</ele><time>2026-05-01T08:47:13.998Z</time></trkpt><trkpt lat="43.57808002578254" lon="11.533754525553913"><ele>137.0</ele><time>2026-05-01T08:47:14.998Z</time></trkpt><trkpt lat="43.57812564359472" lon="11.533640059395552"><ele>137.0</ele><time>2026-05-01T08:47:16.998Z</time></trkpt><trkpt lat="43.57817091770633" lon="11.533535647271023"><ele>137.0</ele><time>2026-05-01T08:47:18.998Z</time></trkpt><trkpt lat="43.57821186172706" lon="11.533438017710552"><ele>137.0</ele><time>2026-05-01T08:47:20.998Z</time></trkpt><trkpt lat="43.57825380889707" lon="11.533342943703143"><ele>137.0</ele><time>2026-05-01T08:47:22.998Z</time></trkpt><trkpt lat="43.57829720450882" lon="11.533239134058665"><ele>136.2</ele><time>2026-05-01T08:47:24.998Z</time></trkpt><trkpt lat="43.5783441237678" lon="11.533132688440043"><ele>135.39999999999998</ele><time>2026-05-01T08:47:26.998Z</time></trkpt><trkpt lat="43.57839241777797" lon="11.533026663543003"><ele>134.60000000000002</ele><time>2026-05-01T08:47:28.998Z</time></trkpt><trkpt lat="43.5784501639042" lon="11.532913690137585"><ele>133.8</ele><time>2026-05-01T08:47:30.998Z</time></trkpt><trkpt lat="43.57851351912059" lon="11.532789862215688"><ele>133.0</ele><time>2026-05-01T08:47:33Z</time></trkpt><trkpt lat="43.57858037090863" lon="11.53266461839363"><ele>133.0</ele><time>2026-05-01T08:47:35Z</time></trkpt><trkpt lat="43.57864687869284" lon="11.532533496725181"><ele>133.0</ele><time>2026-05-01T08:47:37Z</time></trkpt><trkpt lat="43.57871765153334" lon="11.532401952641463"><ele>133.0</ele><time>2026-05-01T08:47:39Z</time></trkpt><trkpt lat="43.578790476159185" lon="11.532268546243065"><ele>133.0</ele><time>2026-05-01T08:47:41Z</time></trkpt><trkpt lat="43.57885997029148" lon="11.532129283418367"><ele>132.66666666666669</ele><time>2026-05-01T08:47:43Z</time></trkpt><trkpt lat="43.578934317234" lon="11.531994165599261"><ele>132.33333333333334</ele><time>2026-05-01T08:47:45Z</time></trkpt><trkpt lat="43.57901012224206" lon="11.53185500458113"><ele>132.0</ele><time>2026-05-01T08:47:47Z</time></trkpt><trkpt lat="43.57905114057411" lon="11.531784119506579"><ele>131.66666666666666</ele><time>2026-05-01T08:47:48Z</time></trkpt><trkpt lat="43.57908801505177" lon="11.531713456358123"><ele>131.33333333333331</ele><time>2026-05-01T08:47:49Z</time></trkpt><trkpt lat="43.57912522707076" lon="11.53164271645455"><ele>131.0</ele><time>2026-05-01T08:47:50Z</time></trkpt><trkpt lat="43.5791647985389" lon="11.531573546427419"><ele>131.0</ele><time>2026-05-01T08:47:51Z</time></trkpt><trkpt lat="43.57920211321082" lon="11.531503134386874"><ele>131.0</ele><time>2026-05-01T08:47:52Z</time></trkpt><trkpt lat="43.57927129777952" lon="11.531366239291973"><ele>131.0</ele><time>2026-05-01T08:47:54Z</time></trkpt><trkpt lat="43.57934101596845" lon="11.531232273908316"><ele>131.0</ele><time>2026-05-01T08:47:56Z</time></trkpt><trkpt lat="43.5794150701232" lon="11.531102580923271"><ele>131.0</ele><time>2026-05-01T08:47:58Z</time></trkpt><trkpt lat="43.57948337563132" lon="11.5309717278239"><ele>130.5</ele><time>2026-05-01T08:48:00Z</time></trkpt><trkpt lat="43.579554933675546" lon="11.530847344514214"><ele>130.0</ele><time>2026-05-01T08:48:02Z</time></trkpt><trkpt lat="43.579622470310255" lon="11.530722426734608"><ele>129.5</ele><time>2026-05-01T08:48:03.999Z</time></trkpt><trkpt lat="43.57969172038046" lon="11.530599298174492"><ele>129.0</ele><time>2026-05-01T08:48:05.999Z</time></trkpt><trkpt lat="43.579765244646" lon="11.53048257158429"><ele>129.0</ele><time>2026-05-01T08:48:07.999Z</time></trkpt><trkpt lat="43.57984123222803" lon="11.530367055529808"><ele>129.0</ele><time>2026-05-01T08:48:09.999Z</time></trkpt><trkpt lat="43.57992313351134" lon="11.530256762284038"><ele>129.0</ele><time>2026-05-01T08:48:11.999Z</time></trkpt><trkpt lat="43.58001066907638" lon="11.530153725340424"><ele>129.0</ele><time>2026-05-01T08:48:13.999Z</time></trkpt><trkpt lat="43.580106906841706" lon="11.53006335487337"><ele>129.0</ele><time>2026-05-01T08:48:15.999Z</time></trkpt><trkpt lat="43.580204822105365" lon="11.529984602604104"><ele>129.0</ele><time>2026-05-01T08:48:17.999Z</time></trkpt><trkpt lat="43.58030110828237" lon="11.529903530155838"><ele>129.0</ele><time>2026-05-01T08:48:19.999Z</time></trkpt><trkpt lat="43.580400330800735" lon="11.529822771024135"><ele>129.0</ele><time>2026-05-01T08:48:21.999Z</time></trkpt><trkpt lat="43.580497285520096" lon="11.52974893950114"><ele>129.0</ele><time>2026-05-01T08:48:23.999Z</time></trkpt><trkpt lat="43.58057704810274" lon="11.529654043758235"><ele>129.0</ele><time>2026-05-01T08:48:25.999Z</time></trkpt><trkpt lat="43.580659402726006" lon="11.529556081483847"><ele>129.0</ele><time>2026-05-01T08:48:27.999Z</time></trkpt><trkpt lat="43.58073892278343" lon="11.52944583579668"><ele>129.0</ele><time>2026-05-01T08:48:29.999Z</time></trkpt><trkpt lat="43.58081400413429" lon="11.529331842773647"><ele>129.0</ele><time>2026-05-01T08:48:31.999Z</time></trkpt><trkpt lat="43.58087948652322" lon="11.529209709055856"><ele>129.0</ele><time>2026-05-01T08:48:33.999Z</time></trkpt><trkpt lat="43.580943727633716" lon="11.529084777549198"><ele>129.0</ele><time>2026-05-01T08:48:35.999Z</time></trkpt><trkpt lat="43.58099520288004" lon="11.528955737969277"><ele>129.0</ele><time>2026-05-01T08:48:37.999Z</time></trkpt><trkpt lat="43.58103999360149" lon="11.52881173948269"><ele>129.0</ele><time>2026-05-01T08:48:39.999Z</time></trkpt><trkpt lat="43.58109414470345" lon="11.528668285907772"><ele>129.0</ele><time>2026-05-01T08:48:41.999Z</time></trkpt><trkpt lat="43.58114416665454" lon="11.528521196950603"><ele>131.25</ele><time>2026-05-01T08:48:43.999Z</time></trkpt><trkpt lat="43.581193168101194" lon="11.528379662921683"><ele>133.5</ele><time>2026-05-01T08:48:45.999Z</time></trkpt><trkpt lat="43.5812386392371" lon="11.528232258422378"><ele>135.75</ele><time>2026-05-01T08:48:47.999Z</time></trkpt><trkpt lat="43.581286837332854" lon="11.528091298868011"><ele>138.0</ele><time>2026-05-01T08:48:49.999Z</time></trkpt><trkpt lat="43.581333319762905" lon="11.527952112271981"><ele>137.0</ele><time>2026-05-01T08:48:51.999Z</time></trkpt><trkpt lat="43.58138131926859" lon="11.527814301718708"><ele>136.0</ele><time>2026-05-01T08:48:53.999Z</time></trkpt><trkpt lat="43.58143137081563" lon="11.527675265347701"><ele>135.0</ele><time>2026-05-01T08:48:55.998Z</time></trkpt><trkpt lat="43.58148620725384" lon="11.527533998323166"><ele>134.0</ele><time>2026-05-01T08:48:57.998Z</time></trkpt><trkpt lat="43.58154233576248" lon="11.527392674648546"><ele>134.0</ele><time>2026-05-01T08:48:59.998Z</time></trkpt><trkpt lat="43.58158831244899" lon="11.527247357217307"><ele>134.0</ele><time>2026-05-01T08:49:01.998Z</time></trkpt><trkpt lat="43.5816462127967" lon="11.527109770033526"><ele>134.0</ele><time>2026-05-01T08:49:03.998Z</time></trkpt><trkpt lat="43.58170051215545" lon="11.526967930124881"><ele>134.0</ele><time>2026-05-01T08:49:05.998Z</time></trkpt><trkpt lat="43.58175929131486" lon="11.526829790905333"><ele>133.75</ele><time>2026-05-01T08:49:07.998Z</time></trkpt><trkpt lat="43.58181660887023" lon="11.52669365465735"><ele>133.5</ele><time>2026-05-01T08:49:09.998Z</time></trkpt><trkpt lat="43.58190980670678" lon="11.526491231983147"><ele>133.25</ele><time>2026-05-01T08:49:12.998Z</time></trkpt><trkpt lat="43.58197385580858" lon="11.52635990915145"><ele>133.0</ele><time>2026-05-01T08:49:14.998Z</time></trkpt><trkpt lat="43.58203935370355" lon="11.52622458874456"><ele>133.5</ele><time>2026-05-01T08:49:16.998Z</time></trkpt><trkpt lat="43.58210537293724" lon="11.526090546514007"><ele>134.0</ele><time>2026-05-01T08:49:18.998Z</time></trkpt><trkpt lat="43.582171902604955" lon="11.525958652190615"><ele>134.5</ele><time>2026-05-01T08:49:20.998Z</time></trkpt><trkpt lat="43.58224691362084" lon="11.525828880507207"><ele>135.0</ele><time>2026-05-01T08:49:22.998Z</time></trkpt><trkpt lat="43.582315314752265" lon="11.525697976726773"><ele>135.0</ele><time>2026-05-01T08:49:24.998Z</time></trkpt><trkpt lat="43.582385703523606" lon="11.525564858476468"><ele>135.0</ele><time>2026-05-01T08:49:26.998Z</time></trkpt><trkpt lat="43.58246232632085" lon="11.525437404086937"><ele>135.0</ele><time>2026-05-01T08:49:28.998Z</time></trkpt><trkpt lat="43.582538700798295" lon="11.525306170857018"><ele>135.0</ele><time>2026-05-01T08:49:30.998Z</time></trkpt><trkpt lat="43.58261581265705" lon="11.525179947050518"><ele>134.25</ele><time>2026-05-01T08:49:32.998Z</time></trkpt><trkpt lat="43.58269096452166" lon="11.525047229066107"><ele>133.5</ele><time>2026-05-01T08:49:34.998Z</time></trkpt><trkpt lat="43.58277390016743" lon="11.52492009783713"><ele>132.75</ele><time>2026-05-01T08:49:36.998Z</time></trkpt><trkpt lat="43.5828593805086" lon="11.52479283945842"><ele>132.0</ele><time>2026-05-01T08:49:39Z</time></trkpt><trkpt lat="43.58294271218686" lon="11.524663243847828"><ele>132.14285714285714</ele><time>2026-05-01T08:49:41Z</time></trkpt><trkpt lat="43.582984991700975" lon="11.524596714880314"><ele>132.28571428571428</ele><time>2026-05-01T08:49:42Z</time></trkpt><trkpt lat="43.583027844336286" lon="11.52453093559245"><ele>132.42857142857144</ele><time>2026-05-01T08:49:43Z</time></trkpt><trkpt lat="43.58307096813256" lon="11.52446605513643"><ele>132.57142857142856</ele><time>2026-05-01T08:49:44Z</time></trkpt><trkpt lat="43.58311646901612" lon="11.524398899302094"><ele>132.71428571428572</ele><time>2026-05-01T08:49:45Z</time></trkpt><trkpt lat="43.58316250302101" lon="11.52433485398495"><ele>132.85714285714286</ele><time>2026-05-01T08:49:46Z</time></trkpt><trkpt lat="43.583207315401836" lon="11.524267839466269"><ele>133.0</ele><time>2026-05-01T08:49:47Z</time></trkpt><trkpt lat="43.583253101246996" lon="11.52420080268752"><ele>133.0</ele><time>2026-05-01T08:49:48Z</time></trkpt><trkpt lat="43.5833012862797" lon="11.524135158330655"><ele>133.0</ele><time>2026-05-01T08:49:49Z</time></trkpt><trkpt lat="43.583347888783855" lon="11.524071116603466"><ele>133.0</ele><time>2026-05-01T08:49:50Z</time></trkpt><trkpt lat="43.583395670207246" lon="11.524003734178573"><ele>133.0</ele><time>2026-05-01T08:49:51Z</time></trkpt><trkpt lat="43.58344297954268" lon="11.523937872334123"><ele>133.0</ele><time>2026-05-01T08:49:52Z</time></trkpt><trkpt lat="43.58349000236077" lon="11.523869052046182"><ele>133.0</ele><time>2026-05-01T08:49:53Z</time></trkpt><trkpt lat="43.58353685814866" lon="11.523800808682568"><ele>133.0</ele><time>2026-05-01T08:49:54Z</time></trkpt><trkpt lat="43.583585404052684" lon="11.523733455462297"><ele>133.0</ele><time>2026-05-01T08:49:55Z</time></trkpt><trkpt lat="43.58363324737019" lon="11.523664341571983"><ele>133.0</ele><time>2026-05-01T08:49:56Z</time></trkpt><trkpt lat="43.58367841051969" lon="11.523594212957038"><ele>133.0</ele><time>2026-05-01T08:49:57Z</time></trkpt><trkpt lat="43.583727431869306" lon="11.523525654318021"><ele>133.0</ele><time>2026-05-01T08:49:58Z</time></trkpt><trkpt lat="43.58377669618914" lon="11.523456099122363"><ele>133.0</ele><time>2026-05-01T08:49:59Z</time></trkpt><trkpt lat="43.58382429524088" lon="11.523387103809155"><ele>133.0</ele><time>2026-05-01T08:50:00Z</time></trkpt><trkpt lat="43.583876419492874" lon="11.523316569539267"><ele>133.0</ele><time>2026-05-01T08:50:01Z</time></trkpt><trkpt lat="43.58392370032284" lon="11.523246504825389"><ele>133.28571428571428</ele><time>2026-05-01T08:50:02Z</time></trkpt><trkpt lat="43.58397133497185" lon="11.523178062310597"><ele>133.57142857142856</ele><time>2026-05-01T08:50:03Z</time></trkpt><trkpt lat="43.584019077130314" lon="11.52311281611469"><ele>133.85714285714286</ele><time>2026-05-01T08:50:04Z</time></trkpt><trkpt lat="43.584066991866706" lon="11.523044398667329"><ele>134.14285714285714</ele><time>2026-05-01T08:50:05Z</time></trkpt><trkpt lat="43.58411173169475" lon="11.522980522824609"><ele>134.42857142857142</ele><time>2026-05-01T08:50:06Z</time></trkpt><trkpt lat="43.584157669463984" lon="11.52291549981769"><ele>134.71428571428572</ele><time>2026-05-01T08:50:07Z</time></trkpt><trkpt lat="43.584205161848416" lon="11.522851648920057"><ele>135.0</ele><time>2026-05-01T08:50:08Z</time></trkpt><trkpt lat="43.58425204620214" lon="11.52278685204157"><ele>134.33333333333334</ele><time>2026-05-01T08:50:08.999Z</time></trkpt><trkpt lat="43.584297962827506" lon="11.522720968115033"><ele>133.66666666666666</ele><time>2026-05-01T08:50:09.999Z</time></trkpt><trkpt lat="43.58434444972193" lon="11.522655745281316"><ele>133.0</ele><time>2026-05-01T08:50:10.999Z</time></trkpt><trkpt lat="43.58438991292955" lon="11.522590692571313"><ele>132.33333333333331</ele><time>2026-05-01T08:50:11.999Z</time></trkpt><trkpt lat="43.58447702263378" lon="11.522469464556462"><ele>131.66666666666666</ele><time>2026-05-01T08:50:13.999Z</time></trkpt><trkpt lat="43.58452174474665" lon="11.522407380972405"><ele>131.0</ele><time>2026-05-01T08:50:14.999Z</time></trkpt><trkpt lat="43.584608191128396" lon="11.522283861731841"><ele>131.2</ele><time>2026-05-01T08:50:16.999Z</time></trkpt><trkpt lat="43.58465135136395" lon="11.522219960567705"><ele>131.39999999999998</ele><time>2026-05-01T08:50:17.999Z</time></trkpt><trkpt lat="43.58473700738162" lon="11.522099785515257"><ele>131.6</ele><time>2026-05-01T08:50:19.999Z</time></trkpt><trkpt lat="43.58482191920468" lon="11.521978277137958"><ele>131.79999999999998</ele><time>2026-05-01T08:50:21.999Z</time></trkpt><trkpt lat="43.584912123094064" lon="11.521866969647679"><ele>132.0</ele><time>2026-05-01T08:50:23.999Z</time></trkpt><trkpt lat="43.58499608758398" lon="11.521744021723464"><ele>132.0</ele><time>2026-05-01T08:50:25.999Z</time></trkpt><trkpt lat="43.5850798861764" lon="11.521622710703008"><ele>132.0</ele><time>2026-05-01T08:50:27.999Z</time></trkpt><trkpt lat="43.5851666723068" lon="11.521506011092393"><ele>132.0</ele><time>2026-05-01T08:50:29.999Z</time></trkpt><trkpt lat="43.585248827909" lon="11.521382026472835"><ele>132.0</ele><time>2026-05-01T08:50:31.999Z</time></trkpt><trkpt lat="43.585336247099995" lon="11.52126332094102"><ele>132.5</ele><time>2026-05-01T08:50:33.999Z</time></trkpt><trkpt lat="43.58542066266039" lon="11.521140095500131"><ele>133.0</ele><time>2026-05-01T08:50:35.999Z</time></trkpt><trkpt lat="43.58550528169386" lon="11.521022431121736"><ele>133.5</ele><time>2026-05-01T08:50:37.999Z</time></trkpt><trkpt lat="43.58558752228722" lon="11.520908083700077"><ele>134.0</ele><time>2026-05-01T08:50:39.999Z</time></trkpt><trkpt lat="43.58566966393583" lon="11.52079401113134"><ele>134.0</ele><time>2026-05-01T08:50:41.999Z</time></trkpt><trkpt lat="43.58575268523672" lon="11.520681658299544"><ele>134.0</ele><time>2026-05-01T08:50:43.999Z</time></trkpt><trkpt lat="43.58583227633451" lon="11.52056951448565"><ele>134.0</ele><time>2026-05-01T08:50:45.999Z</time></trkpt><trkpt lat="43.58591527606327" lon="11.520457684281586"><ele>134.0</ele><time>2026-05-01T08:50:47.999Z</time></trkpt><trkpt lat="43.58599663824229" lon="11.520347178648327"><ele>133.5</ele><time>2026-05-01T08:50:49.999Z</time></trkpt><trkpt lat="43.58607829552011" lon="11.520235677694425"><ele>133.0</ele><time>2026-05-01T08:50:51.999Z</time></trkpt><trkpt lat="43.58615615071675" lon="11.520122026497964"><ele>132.5</ele><time>2026-05-01T08:50:53.999Z</time></trkpt><trkpt lat="43.58623529948441" lon="11.520006905067701"><ele>132.0</ele><time>2026-05-01T08:50:55.999Z</time></trkpt><trkpt lat="43.586316914001344" lon="11.519897473238258"><ele>132.0</ele><time>2026-05-01T08:50:57.999Z</time></trkpt><trkpt lat="43.58639320518922" lon="11.51978343806972"><ele>132.0</ele><time>2026-05-01T08:50:59.999Z</time></trkpt><trkpt lat="43.586480928649706" lon="11.519666652798367"><ele>132.0</ele><time>2026-05-01T08:51:01.999Z</time></trkpt><trkpt lat="43.586566883205734" lon="11.519547578320186"><ele>132.0</ele><time>2026-05-01T08:51:03.998Z</time></trkpt><trkpt lat="43.586648608456294" lon="11.519434518661472"><ele>132.0</ele><time>2026-05-01T08:51:05.998Z</time></trkpt><trkpt lat="43.58672696721824" lon="11.519307444043116"><ele>132.0</ele><time>2026-05-01T08:51:07.998Z</time></trkpt><trkpt lat="43.58681456118048" lon="11.519190986968836"><ele>132.0</ele><time>2026-05-01T08:51:09.998Z</time></trkpt><trkpt lat="43.5868972082853" lon="11.519066634181673"><ele>132.0</ele><time>2026-05-01T08:51:11.998Z</time></trkpt><trkpt lat="43.586941853497606" lon="11.519003574683023"><ele>132.0</ele><time>2026-05-01T08:51:12.998Z</time></trkpt><trkpt lat="43.587028244881616" lon="11.518879232988361"><ele>132.0</ele><time>2026-05-01T08:51:14.998Z</time></trkpt><trkpt lat="43.587114387678625" lon="11.518755980072301"><ele>132.0</ele><time>2026-05-01T08:51:16.998Z</time></trkpt><trkpt lat="43.58715789966011" lon="11.518690787175869"><ele>132.0</ele><time>2026-05-01T08:51:17.998Z</time></trkpt><trkpt lat="43.58724282431077" lon="11.518568927606735"><ele>132.0</ele><time>2026-05-01T08:51:19.998Z</time></trkpt><trkpt lat="43.58732675816159" lon="11.518449753009813"><ele>132.0</ele><time>2026-05-01T08:51:21.998Z</time></trkpt><trkpt lat="43.587414294137105" lon="11.518333447988756"><ele>131.75</ele><time>2026-05-01T08:51:23.998Z</time></trkpt><trkpt lat="43.58749807643136" lon="11.518219399837179"><ele>131.5</ele><time>2026-05-01T08:51:25.998Z</time></trkpt><trkpt lat="43.58757964330252" lon="11.51810103826489"><ele>131.25</ele><time>2026-05-01T08:51:27.998Z</time></trkpt><trkpt lat="43.58766071978569" lon="11.517987516205144"><ele>131.0</ele><time>2026-05-01T08:51:29.998Z</time></trkpt><trkpt lat="43.58774128047824" lon="11.517866604557078"><ele>131.0</ele><time>2026-05-01T08:51:31.998Z</time></trkpt><trkpt lat="43.58782386203915" lon="11.51774877021215"><ele>131.0</ele><time>2026-05-01T08:51:33.998Z</time></trkpt><trkpt lat="43.587910835809204" lon="11.517631983210043"><ele>131.0</ele><time>2026-05-01T08:51:35.998Z</time></trkpt><trkpt lat="43.58799832438206" lon="11.517507782932222"><ele>131.0</ele><time>2026-05-01T08:51:37.998Z</time></trkpt><trkpt lat="43.58808308776501" lon="11.517391170621444"><ele>131.25</ele><time>2026-05-01T08:51:39.998Z</time></trkpt><trkpt lat="43.58816425452953" lon="11.51726877665709"><ele>131.5</ele><time>2026-05-01T08:51:41.998Z</time></trkpt><trkpt lat="43.588248668593" lon="11.517154342357223"><ele>131.75</ele><time>2026-05-01T08:51:44Z</time></trkpt><trkpt lat="43.58832722667672" lon="11.517043937148943"><ele>132.0</ele><time>2026-05-01T08:51:46Z</time></trkpt><trkpt lat="43.588405095442816" lon="11.516934340512087"><ele>132.0</ele><time>2026-05-01T08:51:48Z</time></trkpt><trkpt lat="43.58848298382182" lon="11.516821740710407"><ele>132.0</ele><time>2026-05-01T08:51:50Z</time></trkpt><trkpt lat="43.5885576656145" lon="11.516710090209164"><ele>132.0</ele><time>2026-05-01T08:51:52Z</time></trkpt><trkpt lat="43.588633897626906" lon="11.516602132538901"><ele>132.0</ele><time>2026-05-01T08:51:54Z</time></trkpt><trkpt lat="43.588705089473955" lon="11.516503523287316"><ele>132.0</ele><time>2026-05-01T08:51:56Z</time></trkpt><trkpt lat="43.588776509727616" lon="11.516405453468753"><ele>132.4</ele><time>2026-05-01T08:51:58Z</time></trkpt><trkpt lat="43.58884174981819" lon="11.516310581760523"><ele>132.79999999999998</ele><time>2026-05-01T08:52:00Z</time></trkpt><trkpt lat="43.58891070497337" lon="11.51621620210376"><ele>133.2</ele><time>2026-05-01T08:52:02Z</time></trkpt><trkpt lat="43.588979532935234" lon="11.51612007253983"><ele>133.6</ele><time>2026-05-01T08:52:04Z</time></trkpt><trkpt lat="43.58905050217307" lon="11.516024292589933"><ele>134.0</ele><time>2026-05-01T08:52:06Z</time></trkpt><trkpt lat="43.5891191134509" lon="11.515936340388505"><ele>134.0</ele><time>2026-05-01T08:52:08Z</time></trkpt><trkpt lat="43.58918589782215" lon="11.515845428705129"><ele>134.0</ele><time>2026-05-01T08:52:10Z</time></trkpt><trkpt lat="43.58925786336804" lon="11.51575238382393"><ele>134.0</ele><time>2026-05-01T08:52:12Z</time></trkpt><trkpt lat="43.58933761183547" lon="11.515666504697649"><ele>134.0</ele><time>2026-05-01T08:52:14Z</time></trkpt><trkpt lat="43.58942153226801" lon="11.515572110529446"><ele>134.0</ele><time>2026-05-01T08:52:16Z</time></trkpt><trkpt lat="43.5895099957943" lon="11.515489710861754"><ele>133.6</ele><time>2026-05-01T08:52:18Z</time></trkpt><trkpt lat="43.589603456848835" lon="11.515408649177047"><ele>133.2</ele><time>2026-05-01T08:52:20Z</time></trkpt><trkpt lat="43.58970037366795" lon="11.515340062315811"><ele>132.79999999999998</ele><time>2026-05-01T08:52:22Z</time></trkpt><trkpt lat="43.589801146765346" lon="11.515275616998942"><ele>132.4</ele><time>2026-05-01T08:52:24Z</time></trkpt><trkpt lat="43.589910462950805" lon="11.515225414199229"><ele>132.0</ele><time>2026-05-01T08:52:25.999Z</time></trkpt><trkpt lat="43.590020143465175" lon="11.515180305836967"><ele>132.0</ele><time>2026-05-01T08:52:27.999Z</time></trkpt><trkpt lat="43.59013465739547" lon="11.515153174743684"><ele>132.0</ele><time>2026-05-01T08:52:29.999Z</time></trkpt><trkpt lat="43.59024907057096" lon="11.515135050045336"><ele>132.0</ele><time>2026-05-01T08:52:31.999Z</time></trkpt><trkpt lat="43.590362931436324" lon="11.515129490758502"><ele>132.0</ele><time>2026-05-01T08:52:33.999Z</time></trkpt><trkpt lat="43.590478567099645" lon="11.515135798330025"><ele>131.83333333333334</ele><time>2026-05-01T08:52:35.999Z</time></trkpt><trkpt lat="43.59059690140447" lon="11.51515633499079"><ele>131.66666666666666</ele><time>2026-05-01T08:52:37.999Z</time></trkpt><trkpt lat="43.590715711325764" lon="11.515192165169717"><ele>131.5</ele><time>2026-05-01T08:52:39.999Z</time></trkpt><trkpt lat="43.590775886167144" lon="11.515218164601084"><ele>131.33333333333331</ele><time>2026-05-01T08:52:40.999Z</time></trkpt><trkpt lat="43.590835274280685" lon="11.515247531297788"><ele>131.16666666666666</ele><time>2026-05-01T08:52:41.999Z</time></trkpt><trkpt lat="43.59089356452695" lon="11.515280686576197"><ele>131.0</ele><time>2026-05-01T08:52:42.999Z</time></trkpt><trkpt lat="43.59095067043966" lon="11.515318995875965"><ele>131.0</ele><time>2026-05-01T08:52:43.999Z</time></trkpt><trkpt lat="43.59106137292228" lon="11.515400406848444"><ele>131.0</ele><time>2026-05-01T08:52:45.999Z</time></trkpt><trkpt lat="43.59116561497085" lon="11.515495320264044"><ele>131.0</ele><time>2026-05-01T08:52:47.999Z</time></trkpt><trkpt lat="43.59127108300053" lon="11.51559075646961"><ele>131.0</ele><time>2026-05-01T08:52:49.999Z</time></trkpt><trkpt lat="43.59137093814699" lon="11.515692653394602"><ele>131.57142857142858</ele><time>2026-05-01T08:52:51.999Z</time></trkpt><trkpt lat="43.59142420249805" lon="11.515744626854623"><ele>132.14285714285717</ele><time>2026-05-01T08:52:52.999Z</time></trkpt><trkpt lat="43.59147286585568" lon="11.515800422423546"><ele>132.71428571428572</ele><time>2026-05-01T08:52:53.999Z</time></trkpt><trkpt lat="43.591524249833284" lon="11.515856776847402"><ele>133.28571428571428</ele><time>2026-05-01T08:52:54.999Z</time></trkpt><trkpt lat="43.59157264990747" lon="11.515912398331297"><ele>133.85714285714283</ele><time>2026-05-01T08:52:55.999Z</time></trkpt><trkpt lat="43.59162058977847" lon="11.515970505737483"><ele>134.42857142857142</ele><time>2026-05-01T08:52:56.999Z</time></trkpt><trkpt lat="43.59167023057257" lon="11.516029533250542"><ele>135.0</ele><time>2026-05-01T08:52:57.999Z</time></trkpt><trkpt lat="43.591767113995225" lon="11.516142570860557"><ele>135.0</ele><time>2026-05-01T08:52:59.999Z</time></trkpt><trkpt lat="43.59181570958916" lon="11.516201158495939"><ele>135.0</ele><time>2026-05-01T08:53:00.999Z</time></trkpt><trkpt lat="43.59186409839873" lon="11.516259827861159"><ele>135.0</ele><time>2026-05-01T08:53:01.999Z</time></trkpt><trkpt lat="43.59191088964371" lon="11.516320362636135"><ele>135.0</ele><time>2026-05-01T08:53:02.999Z</time></trkpt><trkpt lat="43.591956476799744" lon="11.516380708134761"><ele>135.0</ele><time>2026-05-01T08:53:03.999Z</time></trkpt><trkpt lat="43.59202455001024" lon="11.51652215975559"><ele>135.0</ele><time>2026-05-01T08:53:05.999Z</time></trkpt><trkpt lat="43.59211836752008" lon="11.516628690543676"><ele>134.6</ele><time>2026-05-01T08:53:07.999Z</time></trkpt><trkpt lat="43.592181222562914" lon="11.516639100243014"><ele>134.2</ele><time>2026-05-01T08:53:08.999Z</time></trkpt><trkpt lat="43.59230316629807" lon="11.516639710117161"><ele>133.8</ele><time>2026-05-01T08:53:10.999Z</time></trkpt><trkpt lat="43.592415450083166" lon="11.516563138295837"><ele>133.4</ele><time>2026-05-01T08:53:12.999Z</time></trkpt><trkpt lat="43.592488002384776" lon="11.516615195552836"><ele>133.0</ele><time>2026-05-01T08:53:13.999Z</time></trkpt><trkpt lat="43.59255000313874" lon="11.516662768345237"><ele>133.0</ele><time>2026-05-01T08:53:14.999Z</time></trkpt><trkpt lat="43.59267386781466" lon="11.516681922705681"><ele>133.0</ele><time>2026-05-01T08:53:16.998Z</time></trkpt><trkpt lat="43.5927971011934" lon="11.51665801881869"><ele>133.0</ele><time>2026-05-01T08:53:18.998Z</time></trkpt><trkpt lat="43.59291146311172" lon="11.516582365171187"><ele>133.0</ele><time>2026-05-01T08:53:20.998Z</time></trkpt><trkpt lat="43.592963715082185" lon="11.516531627902086"><ele>133.0</ele><time>2026-05-01T08:53:21.998Z</time></trkpt><trkpt lat="43.593019121975495" lon="11.516484680344245"><ele>132.85714285714286</ele><time>2026-05-01T08:53:22.998Z</time></trkpt><trkpt lat="43.593075971223925" lon="11.516443113953054"><ele>132.71428571428572</ele><time>2026-05-01T08:53:23.998Z</time></trkpt><trkpt lat="43.59313162529369" lon="11.516390900808236"><ele>132.57142857142856</ele><time>2026-05-01T08:53:24.998Z</time></trkpt><trkpt lat="43.59318616778889" lon="11.516339164564032"><ele>132.42857142857144</ele><time>2026-05-01T08:53:25.998Z</time></trkpt><trkpt lat="43.593246942213625" lon="11.516300903333548"><ele>132.28571428571428</ele><time>2026-05-01T08:53:26.998Z</time></trkpt><trkpt lat="43.593313038939726" lon="11.516294499691972"><ele>132.14285714285714</ele><time>2026-05-01T08:53:27.998Z</time></trkpt><trkpt lat="43.59337552301347" lon="11.516341807237431"><ele>132.0</ele><time>2026-05-01T08:53:28.998Z</time></trkpt><trkpt lat="43.59343882335424" lon="11.516357896142813"><ele>132.0</ele><time>2026-05-01T08:53:29.998Z</time></trkpt><trkpt lat="43.593542314065914" lon="11.516428412513445"><ele>132.0</ele><time>2026-05-01T08:53:31.998Z</time></trkpt><trkpt lat="43.59363095320885" lon="11.516499912250016"><ele>132.0</ele><time>2026-05-01T08:53:33.998Z</time></trkpt><trkpt lat="43.593736634903166" lon="11.516565551635447"><ele>132.0</ele><time>2026-05-01T08:53:35.998Z</time></trkpt><trkpt lat="43.59382767432375" lon="11.516632420824187"><ele>132.0</ele><time>2026-05-01T08:53:37.998Z</time></trkpt><trkpt lat="43.593919132019316" lon="11.516684492647094"><ele>132.4</ele><time>2026-05-01T08:53:39.998Z</time></trkpt><trkpt lat="43.59401725151831" lon="11.516712870328096"><ele>132.79999999999998</ele><time>2026-05-01T08:53:41.998Z</time></trkpt><trkpt lat="43.594113978761875" lon="11.516746823984573"><ele>133.2</ele><time>2026-05-01T08:53:43.998Z</time></trkpt><trkpt lat="43.59420951480428" lon="11.5167707112004"><ele>133.6</ele><time>2026-05-01T08:53:45.998Z</time></trkpt><trkpt lat="43.59430148049241" lon="11.51678232722577"><ele>134.0</ele><time>2026-05-01T08:53:47.998Z</time></trkpt><trkpt lat="43.59439100203609" lon="11.51678694904941"><ele>134.0</ele><time>2026-05-01T08:53:50Z</time></trkpt><trkpt lat="43.594476448266356" lon="11.516790268989023"><ele>134.0</ele><time>2026-05-01T08:53:52Z</time></trkpt><trkpt lat="43.59455807078017" lon="11.51677779744641"><ele>134.0</ele><time>2026-05-01T08:53:54Z</time></trkpt><trkpt lat="43.59463247202721" lon="11.516768221925737"><ele>134.0</ele><time>2026-05-01T08:53:56Z</time></trkpt><trkpt lat="43.59470452755626" lon="11.51675369986148"><ele>134.0</ele><time>2026-05-01T08:53:58Z</time></trkpt><trkpt lat="43.59477191389497" lon="11.516750015807439"><ele>134.0</ele><time>2026-05-01T08:54:00Z</time></trkpt><trkpt lat="43.594859796020025" lon="11.51673085068839"><ele>134.5</ele><time>2026-05-01T08:54:03Z</time></trkpt><trkpt lat="43.59494367342436" lon="11.51672020781093"><ele>135.0</ele><time>2026-05-01T08:54:06Z</time></trkpt><trkpt lat="43.59501900948465" lon="11.516718330213545"><ele>135.5</ele><time>2026-05-01T08:54:09Z</time></trkpt><trkpt lat="43.59509454480489" lon="11.516707663783121"><ele>136.0</ele><time>2026-05-01T08:54:12Z</time></trkpt><trkpt lat="43.59516737149801" lon="11.51669697381834"><ele>136.5</ele><time>2026-05-01T08:54:15Z</time></trkpt><trkpt lat="43.59524816749612" lon="11.51669343145248"><ele>137.0</ele><time>2026-05-01T08:54:18Z</time></trkpt><trkpt lat="43.59532974794953" lon="11.516691639119779"><ele>137.4</ele><time>2026-05-01T08:54:21Z</time></trkpt><trkpt lat="43.59541964461657" lon="11.516678356075895"><ele>137.79999999999998</ele><time>2026-05-01T08:54:24Z</time></trkpt><trkpt lat="43.59548784560255" lon="11.51667287372539"><ele>138.2</ele><time>2026-05-01T08:54:26Z</time></trkpt><trkpt lat="43.5955730857038" lon="11.516659915065603"><ele>138.6</ele><time>2026-05-01T08:54:28Z</time></trkpt><trkpt lat="43.595672503806156" lon="11.516651258296683"><ele>139.0</ele><time>2026-05-01T08:54:30Z</time></trkpt><trkpt lat="43.5957795367635" lon="11.51664809810431"><ele>139.0</ele><time>2026-05-01T08:54:31.999Z</time></trkpt><trkpt lat="43.595882967453946" lon="11.516604935361604"><ele>139.0</ele><time>2026-05-01T08:54:33.999Z</time></trkpt><trkpt lat="43.59598658831029" lon="11.51655566058697"><ele>139.0</ele><time>2026-05-01T08:54:35.999Z</time></trkpt><trkpt lat="43.59609210891269" lon="11.516489872619344"><ele>139.0</ele><time>2026-05-01T08:54:37.999Z</time></trkpt><trkpt lat="43.59620101452564" lon="11.516422142548267"><ele>139.0</ele><time>2026-05-01T08:54:39.999Z</time></trkpt><trkpt lat="43.596310037079455" lon="11.51636443970652"><ele>139.0</ele><time>2026-05-01T08:54:41.999Z</time></trkpt><trkpt lat="43.59642301681605" lon="11.516311312480953"><ele>139.0</ele><time>2026-05-01T08:54:43.999Z</time></trkpt><trkpt lat="43.596534738140896" lon="11.51624179526518"><ele>139.0</ele><time>2026-05-01T08:54:45.999Z</time></trkpt><trkpt lat="43.596592038645454" lon="11.51619444787798"><ele>139.0</ele><time>2026-05-01T08:54:46.999Z</time></trkpt><trkpt lat="43.596647862715194" lon="11.516147586807605"><ele>139.0</ele><time>2026-05-01T08:54:47.999Z</time></trkpt><trkpt lat="43.59670389009404" lon="11.51609970258236"><ele>139.0</ele><time>2026-05-01T08:54:48.999Z</time></trkpt><trkpt lat="43.59681303835468" lon="11.516002964627697"><ele>139.0</ele><time>2026-05-01T08:54:50.999Z</time></trkpt><trkpt lat="43.59692179796706" lon="11.515920325293568"><ele>139.0</ele><time>2026-05-01T08:54:52.999Z</time></trkpt><trkpt lat="43.59698200162294" lon="11.515868445518464"><ele>139.0</ele><time>2026-05-01T08:54:53.999Z</time></trkpt><trkpt lat="43.597041341071694" lon="11.515828980085224"><ele>139.0</ele><time>2026-05-01T08:54:54.999Z</time></trkpt><trkpt lat="43.597106602717105" lon="11.515780535655258"><ele>139.0</ele><time>2026-05-01T08:54:55.999Z</time></trkpt><trkpt lat="43.59715488351025" lon="11.515723007050715"><ele>139.0</ele><time>2026-05-01T08:54:56.999Z</time></trkpt><trkpt lat="43.5972230326591" lon="11.515670475326777"><ele>139.0</ele><time>2026-05-01T08:54:57.999Z</time></trkpt><trkpt lat="43.59729225540402" lon="11.515598394700088"><ele>139.0</ele><time>2026-05-01T08:54:58.999Z</time></trkpt><trkpt lat="43.59735692319552" lon="11.515539189769003"><ele>139.0</ele><time>2026-05-01T08:54:59.999Z</time></trkpt><trkpt lat="43.59742388481859" lon="11.515467758649317"><ele>139.0</ele><time>2026-05-01T08:55:00.999Z</time></trkpt><trkpt lat="43.59748946300705" lon="11.515411412603491"><ele>139.0</ele><time>2026-05-01T08:55:01.999Z</time></trkpt><trkpt lat="43.59755827165412" lon="11.51535281042123"><ele>139.0</ele><time>2026-05-01T08:55:02.999Z</time></trkpt><trkpt lat="43.597627752417786" lon="11.51528918692397"><ele>139.0</ele><time>2026-05-01T08:55:03.999Z</time></trkpt><trkpt lat="43.59768593589978" lon="11.515234850735558"><ele>139.0</ele><time>2026-05-01T08:55:04.999Z</time></trkpt><trkpt lat="43.59774539497661" lon="11.51518248860142"><ele>139.0</ele><time>2026-05-01T08:55:05.999Z</time></trkpt><trkpt lat="43.597856227043295" lon="11.515080840542709"><ele>138.4</ele><time>2026-05-01T08:55:07.999Z</time></trkpt><trkpt lat="43.59790463798276" lon="11.515022072798965"><ele>137.8</ele><time>2026-05-01T08:55:08.999Z</time></trkpt><trkpt lat="43.598006373086015" lon="11.5149309421398"><ele>137.2</ele><time>2026-05-01T08:55:10.999Z</time></trkpt><trkpt lat="43.59808922504886" lon="11.514843772111577"><ele>136.6</ele><time>2026-05-01T08:55:12.999Z</time></trkpt><trkpt lat="43.598140168868504" lon="11.514790649974106"><ele>136.0</ele><time>2026-05-01T08:55:13.999Z</time></trkpt><trkpt lat="43.59822225903182" lon="11.5147122678479"><ele>136.0</ele><time>2026-05-01T08:55:15.999Z</time></trkpt><trkpt lat="43.59830549336149" lon="11.51462233903438"><ele>136.0</ele><time>2026-05-01T08:55:17.999Z</time></trkpt><trkpt lat="43.59838902620026" lon="11.514535228097426"><ele>136.0</ele><time>2026-05-01T08:55:19.999Z</time></trkpt><trkpt lat="43.59847337718092" lon="11.514441345848725"><ele>136.0</ele><time>2026-05-01T08:55:21.999Z</time></trkpt><trkpt lat="43.59856098013366" lon="11.514343802277837"><ele>136.0</ele><time>2026-05-01T08:55:23.998Z</time></trkpt><trkpt lat="43.59866313156047" lon="11.514272368654085"><ele>136.25</ele><time>2026-05-01T08:55:25.998Z</time></trkpt><trkpt lat="43.59877270782086" lon="11.514206490280333"><ele>136.5</ele><time>2026-05-01T08:55:27.998Z</time></trkpt><trkpt lat="43.59888561975847" lon="11.514149028817354"><ele>136.75</ele><time>2026-05-01T08:55:29.998Z</time></trkpt><trkpt lat="43.5989923638659" lon="11.514079377655408"><ele>137.0</ele><time>2026-05-01T08:55:31.998Z</time></trkpt><trkpt lat="43.599087142394886" lon="11.514002945069267"><ele>137.0</ele><time>2026-05-01T08:55:33.998Z</time></trkpt><trkpt lat="43.599177337987236" lon="11.513921561447688"><ele>137.0</ele><time>2026-05-01T08:55:35.998Z</time></trkpt><trkpt lat="43.599267088431056" lon="11.513841519658593"><ele>137.0</ele><time>2026-05-01T08:55:37.998Z</time></trkpt><trkpt lat="43.599363602911296" lon="11.51377067972371"><ele>137.0</ele><time>2026-05-01T08:55:39.998Z</time></trkpt><trkpt lat="43.59946189927172" lon="11.51368115723745"><ele>137.0</ele><time>2026-05-01T08:55:41.998Z</time></trkpt><trkpt lat="43.59956055858923" lon="11.513589635980845"><ele>136.5</ele><time>2026-05-01T08:55:43.998Z</time></trkpt><trkpt lat="43.59966456037609" lon="11.513505973165719"><ele>136.0</ele><time>2026-05-01T08:55:45.998Z</time></trkpt><trkpt lat="43.599765802071396" lon="11.51340704106667"><ele>135.5</ele><time>2026-05-01T08:55:47.998Z</time></trkpt><trkpt lat="43.59986733991545" lon="11.513309759905612"><ele>135.0</ele><time>2026-05-01T08:55:49.998Z</time></trkpt><trkpt lat="43.59996118312139" lon="11.513215045248572"><ele>135.0</ele><time>2026-05-01T08:55:51.998Z</time></trkpt><trkpt lat="43.60005223670158" lon="11.513114908498872"><ele>135.0</ele><time>2026-05-01T08:55:53.998Z</time></trkpt><trkpt lat="43.60015284404325" lon="11.513034481183066"><ele>135.0</ele><time>2026-05-01T08:55:56Z</time></trkpt><trkpt lat="43.60023847325501" lon="11.51293513876286"><ele>135.0</ele><time>2026-05-01T08:55:58Z</time></trkpt><trkpt lat="43.60033735122821" lon="11.512872005910479"><ele>134.75</ele><time>2026-05-01T08:56:00Z</time></trkpt><trkpt lat="43.60042675933308" lon="11.512783927570155"><ele>134.5</ele><time>2026-05-01T08:56:02Z</time></trkpt><trkpt lat="43.60052252511472" lon="11.512706065910121"><ele>134.25</ele><time>2026-05-01T08:56:04Z</time></trkpt><trkpt lat="43.60060583331962" lon="11.512596896991562"><ele>134.0</ele><time>2026-05-01T08:56:06Z</time></trkpt><trkpt lat="43.60068778890111" lon="11.512485248420154"><ele>134.0</ele><time>2026-05-01T08:56:08Z</time></trkpt><trkpt lat="43.60076765196161" lon="11.512367002874827"><ele>134.0</ele><time>2026-05-01T08:56:10Z</time></trkpt><trkpt lat="43.60085009832051" lon="11.512247929295722"><ele>134.0</ele><time>2026-05-01T08:56:12Z</time></trkpt><trkpt lat="43.600938327959774" lon="11.512137911841371"><ele>134.0</ele><time>2026-05-01T08:56:14Z</time></trkpt><trkpt lat="43.60102239427674" lon="11.512015931121462"><ele>133.6</ele><time>2026-05-01T08:56:16Z</time></trkpt><trkpt lat="43.60110885497442" lon="11.51190110305063"><ele>133.2</ele><time>2026-05-01T08:56:18Z</time></trkpt><trkpt lat="43.601197808508026" lon="11.51178901084891"><ele>132.79999999999998</ele><time>2026-05-01T08:56:20Z</time></trkpt><trkpt lat="43.6012990212749" lon="11.511689971913661"><ele>132.4</ele><time>2026-05-01T08:56:22Z</time></trkpt><trkpt lat="43.60135144388698" lon="11.511641216749053"><ele>132.0</ele><time>2026-05-01T08:56:23Z</time></trkpt><trkpt lat="43.60145130448455" lon="11.511548974016575"><ele>132.0</ele><time>2026-05-01T08:56:25Z</time></trkpt><trkpt lat="43.60156235147735" lon="11.511487257510167"><ele>132.0</ele><time>2026-05-01T08:56:27Z</time></trkpt><trkpt lat="43.601660793919876" lon="11.511391724159168"><ele>132.0</ele><time>2026-05-01T08:56:29Z</time></trkpt><trkpt lat="43.601762268140305" lon="11.511304677789397"><ele>132.0</ele><time>2026-05-01T08:56:31Z</time></trkpt><trkpt lat="43.60186598315896" lon="11.511224168446573"><ele>131.75</ele><time>2026-05-01T08:56:33Z</time></trkpt><trkpt lat="43.6019682627803" lon="11.5111375520073"><ele>131.5</ele><time>2026-05-01T08:56:35Z</time></trkpt><trkpt lat="43.602075824703974" lon="11.511060096092091"><ele>131.25</ele><time>2026-05-01T08:56:37Z</time></trkpt><trkpt lat="43.60218129017176" lon="11.510972479260836"><ele>131.0</ele><time>2026-05-01T08:56:38.999Z</time></trkpt><trkpt lat="43.602285771023176" lon="11.510881545398822"><ele>131.0</ele><time>2026-05-01T08:56:40.999Z</time></trkpt><trkpt lat="43.60239070277183" lon="11.510802850133974"><ele>131.0</ele><time>2026-05-01T08:56:42.999Z</time></trkpt><trkpt lat="43.60249248942746" lon="11.510722411230285"><ele>131.0</ele><time>2026-05-01T08:56:44.999Z</time></trkpt><trkpt lat="43.60259351366008" lon="11.51064437159224"><ele>131.0</ele><time>2026-05-01T08:56:46.999Z</time></trkpt><trkpt lat="43.60268952551738" lon="11.51056235071188"><ele>131.0</ele><time>2026-05-01T08:56:48.999Z</time></trkpt><trkpt lat="43.602776055183945" lon="11.510479417389346"><ele>131.0</ele><time>2026-05-01T08:56:50.999Z</time></trkpt><trkpt lat="43.602851955627585" lon="11.510391040018359"><ele>131.0</ele><time>2026-05-01T08:56:52.999Z</time></trkpt><trkpt lat="43.602902912002165" lon="11.510278175652793"><ele>131.0</ele><time>2026-05-01T08:56:54.999Z</time></trkpt><trkpt lat="43.602961977979966" lon="11.510164638013533"><ele>131.0</ele><time>2026-05-01T08:56:56.999Z</time></trkpt><trkpt lat="43.603017939030714" lon="11.5100248434851"><ele>130.8</ele><time>2026-05-01T08:56:58.999Z</time></trkpt><trkpt lat="43.60308079158346" lon="11.509870673492788"><ele>130.6</ele><time>2026-05-01T08:57:00.999Z</time></trkpt><trkpt lat="43.60314054694935" lon="11.509716951401487"><ele>130.4</ele><time>2026-05-01T08:57:02.999Z</time></trkpt><trkpt lat="43.60320679180241" lon="11.509567700684315"><ele>130.2</ele><time>2026-05-01T08:57:04.999Z</time></trkpt><trkpt lat="43.6032406933776" lon="11.509491550000355"><ele>130.0</ele><time>2026-05-01T08:57:05.999Z</time></trkpt><trkpt lat="43.60327130773006" lon="11.509412929071921"><ele>130.0</ele><time>2026-05-01T08:57:06.999Z</time></trkpt><trkpt lat="43.603307192559626" lon="11.509339955999213"><ele>130.0</ele><time>2026-05-01T08:57:07.999Z</time></trkpt><trkpt lat="43.60334887613058" lon="11.509274139955536"><ele>130.0</ele><time>2026-05-01T08:57:08.999Z</time></trkpt><trkpt lat="43.603443933635326" lon="11.509166705430626"><ele>130.0</ele><time>2026-05-01T08:57:10.999Z</time></trkpt><trkpt lat="43.603535294056435" lon="11.509056667165732"><ele>130.0</ele><time>2026-05-01T08:57:12.999Z</time></trkpt><trkpt lat="43.60362524046749" lon="11.508954889189573"><ele>130.4</ele><time>2026-05-01T08:57:14.999Z</time></trkpt><trkpt lat="43.60370861717809" lon="11.50885307803177"><ele>130.8</ele><time>2026-05-01T08:57:16.999Z</time></trkpt><trkpt lat="43.60378005236827" lon="11.508729707010481"><ele>131.2</ele><time>2026-05-01T08:57:18.999Z</time></trkpt><trkpt lat="43.60384060361894" lon="11.508609148144224"><ele>131.6</ele><time>2026-05-01T08:57:20.999Z</time></trkpt><trkpt lat="43.603892932441624" lon="11.508486352493865"><ele>132.0</ele><time>2026-05-01T08:57:22.999Z</time></trkpt><trkpt lat="43.60393691807714" lon="11.508360351131204"><ele>132.0</ele><time>2026-05-01T08:57:24.999Z</time></trkpt><trkpt lat="43.603974239006774" lon="11.508236079419799"><ele>132.0</ele><time>2026-05-01T08:57:26.999Z</time></trkpt><trkpt lat="43.60400865553561" lon="11.508106676114505"><ele>132.0</ele><time>2026-05-01T08:57:28.999Z</time></trkpt><trkpt lat="43.60404440867126" lon="11.507983187298425"><ele>132.0</ele><time>2026-05-01T08:57:30.998Z</time></trkpt><trkpt lat="43.604076343273995" lon="11.507861304466573"><ele>132.0</ele><time>2026-05-01T08:57:32.998Z</time></trkpt><trkpt lat="43.60410921919683" lon="11.507743977325413"><ele>131.79999999999998</ele><time>2026-05-01T08:57:34.998Z</time></trkpt><trkpt lat="43.604134753953815" lon="11.50762187214534"><ele>131.6</ele><time>2026-05-01T08:57:36.998Z</time></trkpt><trkpt lat="43.60416004683067" lon="11.507497532856247"><ele>131.39999999999998</ele><time>2026-05-01T08:57:38.998Z</time></trkpt><trkpt lat="43.60418234577995" lon="11.507370391386932"><ele>131.2</ele><time>2026-05-01T08:57:40.998Z</time></trkpt><trkpt lat="43.60421020731311" lon="11.507235829076485"><ele>131.0</ele><time>2026-05-01T08:57:42.998Z</time></trkpt><trkpt lat="43.60423339372862" lon="11.507096955569894"><ele>130.4</ele><time>2026-05-01T08:57:44.998Z</time></trkpt><trkpt lat="43.60425998996515" lon="11.50695588880894"><ele>129.8</ele><time>2026-05-01T08:57:46.998Z</time></trkpt><trkpt lat="43.60428997131858" lon="11.506815417795439"><ele>129.20000000000002</ele><time>2026-05-01T08:57:48.998Z</time></trkpt><trkpt lat="43.60432151663405" lon="11.506675723242092"><ele>128.6</ele><time>2026-05-01T08:57:50.998Z</time></trkpt><trkpt lat="43.604354450615304" lon="11.506535586453758"><ele>128.0</ele><time>2026-05-01T08:57:52.998Z</time></trkpt><trkpt lat="43.60439995587533" lon="11.506396521376406"><ele>128.0</ele><time>2026-05-01T08:57:54.998Z</time></trkpt><trkpt lat="43.60445427817789" lon="11.50626841316777"><ele>128.0</ele><time>2026-05-01T08:57:56.998Z</time></trkpt><trkpt lat="43.60452072422224" lon="11.506146758670154"><ele>128.0</ele><time>2026-05-01T08:57:58.998Z</time></trkpt><trkpt lat="43.60460084381882" lon="11.506038202704008"><ele>128.0</ele><time>2026-05-01T08:58:00.998Z</time></trkpt><trkpt lat="43.60468366224447" lon="11.505930120339043"><ele>128.0</ele><time>2026-05-01T08:58:03Z</time></trkpt><trkpt lat="43.60475787567903" lon="11.505813033157976"><ele>128.0</ele><time>2026-05-01T08:58:05Z</time></trkpt><trkpt lat="43.60482917652268" lon="11.505700323121335"><ele>128.0</ele><time>2026-05-01T08:58:07Z</time></trkpt><trkpt lat="43.60490028982773" lon="11.505593590326036"><ele>128.0</ele><time>2026-05-01T08:58:09Z</time></trkpt><trkpt lat="43.60496969492351" lon="11.505488419501969"><ele>128.0</ele><time>2026-05-01T08:58:11Z</time></trkpt><trkpt lat="43.605038447908164" lon="11.50538773613992"><ele>128.0</ele><time>2026-05-01T08:58:13Z</time></trkpt><trkpt lat="43.60510858088777" lon="11.505293259695652"><ele>128.0</ele><time>2026-05-01T08:58:15Z</time></trkpt><trkpt lat="43.60517795653054" lon="11.50520222739674"><ele>128.0</ele><time>2026-05-01T08:58:17Z</time></trkpt><trkpt lat="43.60524579925198" lon="11.50511093803833"><ele>128.0</ele><time>2026-05-01T08:58:19Z</time></trkpt><trkpt lat="43.6053160211922" lon="11.505017033356513"><ele>128.0</ele><time>2026-05-01T08:58:21Z</time></trkpt><trkpt lat="43.60539042996987" lon="11.50492153317399"><ele>128.0</ele><time>2026-05-01T08:58:23Z</time></trkpt><trkpt lat="43.605473870165014" lon="11.504838742828175"><ele>128.6</ele><time>2026-05-01T08:58:25Z</time></trkpt><trkpt lat="43.6055464739553" lon="11.50473866569957"><ele>129.20000000000002</ele><time>2026-05-01T08:58:27Z</time></trkpt><trkpt lat="43.60562072321202" lon="11.504642102491841"><ele>129.8</ele><time>2026-05-01T08:58:29Z</time></trkpt><trkpt lat="43.605694622201426" lon="11.5045424599373"><ele>130.4</ele><time>2026-05-01T08:58:31Z</time></trkpt><trkpt lat="43.60577115299114" lon="11.504443261045788"><ele>131.0</ele><time>2026-05-01T08:58:33Z</time></trkpt><trkpt lat="43.60585301414789" lon="11.504353222873833"><ele>131.0</ele><time>2026-05-01T08:58:35Z</time></trkpt><trkpt lat="43.605932116458334" lon="11.504266130803236"><ele>131.0</ele><time>2026-05-01T08:58:37Z</time></trkpt><trkpt lat="43.606013827330834" lon="11.504191427068223"><ele>131.0</ele><time>2026-05-01T08:58:39Z</time></trkpt><trkpt lat="43.606101721938394" lon="11.504105236228913"><ele>131.0</ele><time>2026-05-01T08:58:41Z</time></trkpt><trkpt lat="43.6061967897412" lon="11.50402525724076"><ele>131.0</ele><time>2026-05-01T08:58:42.999Z</time></trkpt><trkpt lat="43.60629073953135" lon="11.503953321436086"><ele>130.6</ele><time>2026-05-01T08:58:44.999Z</time></trkpt><trkpt lat="43.60638613378107" lon="11.50388198229694"><ele>130.2</ele><time>2026-05-01T08:58:46.999Z</time></trkpt><trkpt lat="43.60647692838816" lon="11.503809624271252"><ele>129.8</ele><time>2026-05-01T08:58:48.999Z</time></trkpt><trkpt lat="43.606570361081836" lon="11.503739064715951"><ele>129.4</ele><time>2026-05-01T08:58:50.999Z</time></trkpt><trkpt lat="43.606662108065585" lon="11.503678240185437"><ele>129.0</ele><time>2026-05-01T08:58:52.999Z</time></trkpt><trkpt lat="43.60675593304563" lon="11.503628012540723"><ele>129.0</ele><time>2026-05-01T08:58:54.999Z</time></trkpt><trkpt lat="43.60685190588047" lon="11.503603787841321"><ele>129.0</ele><time>2026-05-01T08:58:56.999Z</time></trkpt><trkpt lat="43.606946248959886" lon="11.50357994656996"><ele>129.0</ele><time>2026-05-01T08:58:58.999Z</time></trkpt><trkpt lat="43.60703632645341" lon="11.503560661137769"><ele>129.0</ele><time>2026-05-01T08:59:00.999Z</time></trkpt><trkpt lat="43.60712628123322" lon="11.50354391068881"><ele>129.0</ele><time>2026-05-01T08:59:02.999Z</time></trkpt><trkpt lat="43.607216561139595" lon="11.503535577639113"><ele>129.2</ele><time>2026-05-01T08:59:04.999Z</time></trkpt><trkpt lat="43.6073111617734" lon="11.50352906539002"><ele>129.4</ele><time>2026-05-01T08:59:06.999Z</time></trkpt><trkpt lat="43.607407248359124" lon="11.503519572515867"><ele>129.6</ele><time>2026-05-01T08:59:08.999Z</time></trkpt><trkpt lat="43.60750519525218" lon="11.50351109718091"><ele>129.8</ele><time>2026-05-01T08:59:10.999Z</time></trkpt><trkpt lat="43.60760271658781" lon="11.503507329594134"><ele>130.0</ele><time>2026-05-01T08:59:12.999Z</time></trkpt><trkpt lat="43.60770151215357" lon="11.503502613358238"><ele>130.0</ele><time>2026-05-01T08:59:14.999Z</time></trkpt><trkpt lat="43.60779733685728" lon="11.503489345039998"><ele>130.0</ele><time>2026-05-01T08:59:16.999Z</time></trkpt><trkpt lat="43.60789255443993" lon="11.503456913224277"><ele>130.0</ele><time>2026-05-01T08:59:18.999Z</time></trkpt><trkpt lat="43.60799901582465" lon="11.503407181525935"><ele>130.0</ele><time>2026-05-01T08:59:20.999Z</time></trkpt><trkpt lat="43.60810809646378" lon="11.503331831594638"><ele>130.0</ele><time>2026-05-01T08:59:22.999Z</time></trkpt><trkpt lat="43.60816143238096" lon="11.503284289710233"><ele>129.4</ele><time>2026-05-01T08:59:23.999Z</time></trkpt><trkpt lat="43.60826616974939" lon="11.503193561735747"><ele>128.8</ele><time>2026-05-01T08:59:25.999Z</time></trkpt><trkpt lat="43.608319538862226" lon="11.503145336060454"><ele>128.2</ele><time>2026-05-01T08:59:26.999Z</time></trkpt><trkpt lat="43.60842371423196" lon="11.503053701452451"><ele>127.6</ele><time>2026-05-01T08:59:28.999Z</time></trkpt><trkpt lat="43.60852689359623" lon="11.502969999957601"><ele>127.0</ele><time>2026-05-01T08:59:30.999Z</time></trkpt><trkpt lat="43.60862197775581" lon="11.502884379749418"><ele>127.0</ele><time>2026-05-01T08:59:32.998Z</time></trkpt><trkpt lat="43.6087156315622" lon="11.50278944093878"><ele>127.0</ele><time>2026-05-01T08:59:34.998Z</time></trkpt><trkpt lat="43.60880908715008" lon="11.502696247123353"><ele>127.0</ele><time>2026-05-01T08:59:36.998Z</time></trkpt><trkpt lat="43.60889614886724" lon="11.50259451056094"><ele>127.0</ele><time>2026-05-01T08:59:38.998Z</time></trkpt><trkpt lat="43.60898088390616" lon="11.502483083229121"><ele>127.0</ele><time>2026-05-01T08:59:40.998Z</time></trkpt><trkpt lat="43.60906433017763" lon="11.50236803572816"><ele>127.0</ele><time>2026-05-01T08:59:42.998Z</time></trkpt><trkpt lat="43.60915392536959" lon="11.502267292641033"><ele>127.0</ele><time>2026-05-01T08:59:44.998Z</time></trkpt><trkpt lat="43.60925828145155" lon="11.502183080196515"><ele>127.0</ele><time>2026-05-01T08:59:46.998Z</time></trkpt><trkpt lat="43.60936498191331" lon="11.502108297827238"><ele>126.75</ele><time>2026-05-01T08:59:48.998Z</time></trkpt><trkpt lat="43.60947694441464" lon="11.502056812727547"><ele>126.5</ele><time>2026-05-01T08:59:50.998Z</time></trkpt><trkpt lat="43.60958323607811" lon="11.501998332956559"><ele>126.25</ele><time>2026-05-01T08:59:52.998Z</time></trkpt><trkpt lat="43.60969165292246" lon="11.50193923188449"><ele>126.0</ele><time>2026-05-01T08:59:54.998Z</time></trkpt><trkpt lat="43.60979868452534" lon="11.50189232881075"><ele>126.0</ele><time>2026-05-01T08:59:56.998Z</time></trkpt><trkpt lat="43.60990151750826" lon="11.501842938220138"><ele>126.0</ele><time>2026-05-01T08:59:58.998Z</time></trkpt><trkpt lat="43.61001035848217" lon="11.501789138647288"><ele>126.0</ele><time>2026-05-01T09:00:00.998Z</time></trkpt><trkpt lat="43.61012125224693" lon="11.50173877291311"><ele>126.0</ele><time>2026-05-01T09:00:02.998Z</time></trkpt><trkpt lat="43.61022462558445" lon="11.501684540313693"><ele>126.25</ele><time>2026-05-01T09:00:04.998Z</time></trkpt><trkpt lat="43.61033284327587" lon="11.50163978296518"><ele>126.5</ele><time>2026-05-01T09:00:06.998Z</time></trkpt><trkpt lat="43.61043927019112" lon="11.50158503599491"><ele>126.75</ele><time>2026-05-01T09:00:09Z</time></trkpt><trkpt lat="43.610549052924114" lon="11.501535146326326"><ele>127.0</ele><time>2026-05-01T09:00:11Z</time></trkpt><trkpt lat="43.610655856260585" lon="11.501482105111293"><ele>127.0</ele><time>2026-05-01T09:00:13Z</time></trkpt><trkpt lat="43.61076246570124" lon="11.501430165744795"><ele>126.99999999999999</ele><time>2026-05-01T09:00:15Z</time></trkpt><trkpt lat="43.610865620848884" lon="11.501377749635525"><ele>126.99999999999999</ele><time>2026-05-01T09:00:17Z</time></trkpt><trkpt lat="43.610968331961864" lon="11.50132394077588"><ele>127.0</ele><time>2026-05-01T09:00:19Z</time></trkpt><trkpt lat="43.61106765202845" lon="11.501273183722716"><ele>127.0</ele><time>2026-05-01T09:00:21Z</time></trkpt><trkpt lat="43.611164524938175" lon="11.501228382814846"><ele>126.39999999999999</ele><time>2026-05-01T09:00:23Z</time></trkpt><trkpt lat="43.6112568514108" lon="11.501187717190113"><ele>125.79999999999998</ele><time>2026-05-01T09:00:25Z</time></trkpt><trkpt lat="43.61134417989622" lon="11.501154749847744"><ele>125.2</ele><time>2026-05-01T09:00:27Z</time></trkpt><trkpt lat="43.61143546445107" lon="11.501118408413777"><ele>124.6</ele><time>2026-05-01T09:00:29Z</time></trkpt><trkpt lat="43.61153362715282" lon="11.501080815496318"><ele>124.0</ele><time>2026-05-01T09:00:31Z</time></trkpt><trkpt lat="43.611630176487395" lon="11.501055475866039"><ele>124.0</ele><time>2026-05-01T09:00:33Z</time></trkpt><trkpt lat="43.61172614157992" lon="11.50102061912798"><ele>124.0</ele><time>2026-05-01T09:00:35Z</time></trkpt><trkpt lat="43.61181989975374" lon="11.500994402861158"><ele>124.0</ele><time>2026-05-01T09:00:37Z</time></trkpt><trkpt lat="43.6119104982873" lon="11.500962898287833"><ele>124.0</ele><time>2026-05-01T09:00:39Z</time></trkpt><trkpt lat="43.612003976008936" lon="11.50093183999679"><ele>124.0</ele><time>2026-05-01T09:00:41Z</time></trkpt><trkpt lat="43.6121000899471" lon="11.500906749970422"><ele>124.4</ele><time>2026-05-01T09:00:43Z</time></trkpt><trkpt lat="43.612200178222935" lon="11.500877391499765"><ele>124.80000000000001</ele><time>2026-05-01T09:00:45Z</time></trkpt><trkpt lat="43.612302476702055" lon="11.500843142424742"><ele>125.19999999999999</ele><time>2026-05-01T09:00:47Z</time></trkpt><trkpt lat="43.612410322281754" lon="11.500806939404448"><ele>125.6</ele><time>2026-05-01T09:00:49Z</time></trkpt><trkpt lat="43.612519481164846" lon="11.500776108983478"><ele>126.0</ele><time>2026-05-01T09:00:51Z</time></trkpt><trkpt lat="43.61262722439241" lon="11.500746947845"><ele>126.0</ele><time>2026-05-01T09:00:52.999Z</time></trkpt><trkpt lat="43.612730074701496" lon="11.500703101864085"><ele>126.0</ele><time>2026-05-01T09:00:54.999Z</time></trkpt><trkpt lat="43.61283689039104" lon="11.500672747458346"><ele>126.0</ele><time>2026-05-01T09:00:56.999Z</time></trkpt><trkpt lat="43.612946727272956" lon="11.500640769758638"><ele>126.0</ele><time>2026-05-01T09:00:58.999Z</time></trkpt><trkpt lat="43.61304886715286" lon="11.500615851710496"><ele>126.0</ele><time>2026-05-01T09:01:00.999Z</time></trkpt><trkpt lat="43.61314523752702" lon="11.500592766140574"><ele>126.0</ele><time>2026-05-01T09:01:02.999Z</time></trkpt><trkpt lat="43.61323652419531" lon="11.500581566549757"><ele>126.0</ele><time>2026-05-01T09:01:04.999Z</time></trkpt><trkpt lat="43.6133240606974" lon="11.500556663505836"><ele>126.0</ele><time>2026-05-01T09:01:06.999Z</time></trkpt><trkpt lat="43.613403751799744" lon="11.500523002291365"><ele>126.0</ele><time>2026-05-01T09:01:08.999Z</time></trkpt><trkpt lat="43.613473055534016" lon="11.500497025897783"><ele>126.0</ele><time>2026-05-01T09:01:10.999Z</time></trkpt><trkpt lat="43.61354296520739" lon="11.50046941102068"><ele>126.0</ele><time>2026-05-01T09:01:12.999Z</time></trkpt><trkpt lat="43.61360967797431" lon="11.500445856562438"><ele>125.83333333333333</ele><time>2026-05-01T09:01:14.999Z</time></trkpt><trkpt lat="43.61367623353675" lon="11.500418541211788"><ele>125.66666666666666</ele><time>2026-05-01T09:01:16.999Z</time></trkpt><trkpt lat="43.61373616564711" lon="11.500386849580211"><ele>125.5</ele><time>2026-05-01T09:01:18.999Z</time></trkpt><trkpt lat="43.6138013750656" lon="11.500355081553009"><ele>125.33333333333333</ele><time>2026-05-01T09:01:20.999Z</time></trkpt><trkpt lat="43.61387432974413" lon="11.500318064342473"><ele>125.16666666666666</ele><time>2026-05-01T09:01:22.999Z</time></trkpt><trkpt lat="43.61395114118337" lon="11.500286984468902"><ele>125.0</ele><time>2026-05-01T09:01:24.999Z</time></trkpt><trkpt lat="43.614034647203276" lon="11.500241521721518"><ele>125.0</ele><time>2026-05-01T09:01:26.999Z</time></trkpt><trkpt lat="43.614130087262055" lon="11.500202686223284"><ele>125.0</ele><time>2026-05-01T09:01:28.999Z</time></trkpt><trkpt lat="43.61423030715588" lon="11.50014361109323"><ele>125.0</ele><time>2026-05-01T09:01:30.999Z</time></trkpt><trkpt lat="43.61432411544995" lon="11.50009027342962"><ele>125.0</ele><time>2026-05-01T09:01:32.999Z</time></trkpt><trkpt lat="43.61442821220879" lon="11.500039953391445"><ele>125.0</ele><time>2026-05-01T09:01:34.999Z</time></trkpt><trkpt lat="43.614520031053495" lon="11.499986784231401"><ele>124.99999999999999</ele><time>2026-05-01T09:01:36.999Z</time></trkpt><trkpt lat="43.6146036858565" lon="11.499949311429098"><ele>125.0</ele><time>2026-05-01T09:01:38.999Z</time></trkpt><trkpt lat="43.61469368898518" lon="11.499959864441314"><ele>125.0</ele><time>2026-05-01T09:01:40.999Z</time></trkpt><trkpt lat="43.61478068807291" lon="11.5000602973861"><ele>125.0</ele><time>2026-05-01T09:01:43.998Z</time></trkpt><trkpt lat="43.61483155836777" lon="11.500138637868899"><ele>124.99999999999999</ele><time>2026-05-01T09:01:45.998Z</time></trkpt><trkpt lat="43.614877595902165" lon="11.500221898154157"><ele>125.0</ele><time>2026-05-01T09:01:47.998Z</time></trkpt><trkpt lat="43.61491253214797" lon="11.500300682613593"><ele>124.99999999999999</ele><time>2026-05-01T09:01:49.998Z</time></trkpt><trkpt lat="43.61493285487617" lon="11.500387496851602"><ele>125.0</ele><time>2026-05-01T09:01:51.998Z</time></trkpt><trkpt lat="43.614924881877926" lon="11.500485499525933"><ele>125.0</ele><time>2026-05-01T09:01:53.998Z</time></trkpt><trkpt lat="43.61490324650489" lon="11.500582575303058"><ele>125.0</ele><time>2026-05-01T09:01:55.998Z</time></trkpt><trkpt lat="43.614879622510955" lon="11.500684702709641"><ele>124.99999999999999</ele><time>2026-05-01T09:01:57.998Z</time></trkpt><trkpt lat="43.614864705082915" lon="11.50079430506182"><ele>125.0</ele><time>2026-05-01T09:01:59.998Z</time></trkpt><trkpt lat="43.614849133685865" lon="11.500911103828201"><ele>125.2</ele><time>2026-05-01T09:02:01.998Z</time></trkpt><trkpt lat="43.614840012836325" lon="11.501035104972058"><ele>125.4</ele><time>2026-05-01T09:02:03.998Z</time></trkpt><trkpt lat="43.61483162227818" lon="11.50116413203364"><ele>125.6</ele><time>2026-05-01T09:02:05.998Z</time></trkpt><trkpt lat="43.61482480668646" lon="11.501289477208564"><ele>125.8</ele><time>2026-05-01T09:02:07.998Z</time></trkpt><trkpt lat="43.61482116152618" lon="11.501415575953105"><ele>126.0</ele><time>2026-05-01T09:02:09.998Z</time></trkpt><trkpt lat="43.614825760134295" lon="11.501540831082366"><ele>126.19999999999999</ele><time>2026-05-01T09:02:11.998Z</time></trkpt><trkpt lat="43.61482902201653" lon="11.501666868796695"><ele>126.39999999999999</ele><time>2026-05-01T09:02:14Z</time></trkpt><trkpt lat="43.61483483799875" lon="11.501792141031077"><ele>126.6</ele><time>2026-05-01T09:02:16Z</time></trkpt><trkpt lat="43.61484796280047" lon="11.501917533590706"><ele>126.8</ele><time>2026-05-01T09:02:18Z</time></trkpt><trkpt lat="43.61486540539861" lon="11.50204652456358"><ele>127.0</ele><time>2026-05-01T09:02:20Z</time></trkpt><trkpt lat="43.61488377137277" lon="11.50217968965318"><ele>127.0</ele><time>2026-05-01T09:02:22Z</time></trkpt><trkpt lat="43.614906373239926" lon="11.502312681817282"><ele>126.99999999999999</ele><time>2026-05-01T09:02:24Z</time></trkpt><trkpt lat="43.61493799861578" lon="11.50244217722195"><ele>126.99999999999999</ele><time>2026-05-01T09:02:26Z</time></trkpt><trkpt lat="43.61496595639786" lon="11.502570950796402"><ele>127.0</ele><time>2026-05-01T09:02:28Z</time></trkpt><trkpt lat="43.615003423216386" lon="11.50268929030638"><ele>127.0</ele><time>2026-05-01T09:02:30Z</time></trkpt><trkpt lat="43.615041014839356" lon="11.50280448230326"><ele>127.39999999999999</ele><time>2026-05-01T09:02:32Z</time></trkpt><trkpt lat="43.615084525683976" lon="11.50291836624341"><ele>127.79999999999998</ele><time>2026-05-01T09:02:34Z</time></trkpt><trkpt lat="43.61512925815035" lon="11.503029633830621"><ele>128.2</ele><time>2026-05-01T09:02:36Z</time></trkpt><trkpt lat="43.61517768529965" lon="11.503136788395665"><ele>128.6</ele><time>2026-05-01T09:02:38Z</time></trkpt><trkpt lat="43.615229089255216" lon="11.503239635674943"><ele>129.0</ele><time>2026-05-01T09:02:40Z</time></trkpt><trkpt lat="43.61528203674568" lon="11.503344374211332"><ele>129.2</ele><time>2026-05-01T09:02:42Z</time></trkpt><trkpt lat="43.61533970891682" lon="11.503442290873704"><ele>129.4</ele><time>2026-05-01T09:02:44Z</time></trkpt><trkpt lat="43.61539789806867" lon="11.503537722981706"><ele>129.6</ele><time>2026-05-01T09:02:46Z</time></trkpt><trkpt lat="43.61545914367311" lon="11.503631506065439"><ele>129.8</ele><time>2026-05-01T09:02:48Z</time></trkpt><trkpt lat="43.61552553108658" lon="11.503725769835317"><ele>130.0</ele><time>2026-05-01T09:02:50Z</time></trkpt><trkpt lat="43.615593260085376" lon="11.50381083523474"><ele>129.66666666666669</ele><time>2026-05-01T09:02:51.999Z</time></trkpt><trkpt lat="43.61565949912642" lon="11.50389133215595"><ele>129.33333333333334</ele><time>2026-05-01T09:02:53.999Z</time></trkpt><trkpt lat="43.615726992255055" lon="11.503966794859005"><ele>129.0</ele><time>2026-05-01T09:02:55.999Z</time></trkpt><trkpt lat="43.61580024096027" lon="11.504039423622718"><ele>128.66666666666666</ele><time>2026-05-01T09:02:57.999Z</time></trkpt><trkpt lat="43.615879454785016" lon="11.504108169096442"><ele>128.33333333333331</ele><time>2026-05-01T09:02:59.999Z</time></trkpt><trkpt lat="43.6159535001433" lon="11.504176700754178"><ele>128.0</ele><time>2026-05-01T09:03:01.999Z</time></trkpt><trkpt lat="43.6160392303855" lon="11.50423988492395"><ele>128.0</ele><time>2026-05-01T09:03:03.999Z</time></trkpt><trkpt lat="43.61612445058468" lon="11.50429803892215"><ele>128.0</ele><time>2026-05-01T09:03:05.999Z</time></trkpt><trkpt lat="43.61621220142516" lon="11.504358242230467"><ele>128.0</ele><time>2026-05-01T09:03:07.999Z</time></trkpt><trkpt lat="43.61630813107402" lon="11.504408478191982"><ele>128.0</ele><time>2026-05-01T09:03:09.999Z</time></trkpt><trkpt lat="43.61640219959663" lon="11.50445291096299"><ele>128.0</ele><time>2026-05-01T09:03:11.999Z</time></trkpt><trkpt lat="43.616495796683175" lon="11.504500062327017"><ele>128.20000000000002</ele><time>2026-05-01T09:03:13.999Z</time></trkpt><trkpt lat="43.61659137314761" lon="11.504534915630135"><ele>128.4</ele><time>2026-05-01T09:03:15.999Z</time></trkpt><trkpt lat="43.61668699476333" lon="11.504579322679803"><ele>128.60000000000002</ele><time>2026-05-01T09:03:17.999Z</time></trkpt><trkpt lat="43.6167824436492" lon="11.50462202615619"><ele>128.8</ele><time>2026-05-01T09:03:19.999Z</time></trkpt><trkpt lat="43.616874896896235" lon="11.504666033521719"><ele>129.0</ele><time>2026-05-01T09:03:21.999Z</time></trkpt><trkpt lat="43.616967465011115" lon="11.504708469011574"><ele>129.8</ele><time>2026-05-01T09:03:23.999Z</time></trkpt><trkpt lat="43.6170568249186" lon="11.504750694066404"><ele>130.60000000000002</ele><time>2026-05-01T09:03:25.999Z</time></trkpt><trkpt lat="43.61714976836723" lon="11.504791774286195"><ele>131.4</ele><time>2026-05-01T09:03:27.999Z</time></trkpt><trkpt lat="43.61723944369008" lon="11.504833936952325"><ele>132.20000000000002</ele><time>2026-05-01T09:03:29.999Z</time></trkpt><trkpt lat="43.617329831147856" lon="11.504880890204412"><ele>133.0</ele><time>2026-05-01T09:03:31.999Z</time></trkpt><trkpt lat="43.617422209302994" lon="11.504917780470134"><ele>133.0</ele><time>2026-05-01T09:03:33.999Z</time></trkpt><trkpt lat="43.617506534914234" lon="11.50495771353211"><ele>133.0</ele><time>2026-05-01T09:03:35.999Z</time></trkpt><trkpt lat="43.61758964665893" lon="11.505000359093685"><ele>133.0</ele><time>2026-05-01T09:03:37.999Z</time></trkpt><trkpt lat="43.61767032812248" lon="11.50503097307369"><ele>133.0</ele><time>2026-05-01T09:03:39.998Z</time></trkpt><trkpt lat="43.61774893530384" lon="11.505067018431884"><ele>133.0</ele><time>2026-05-01T09:03:41.998Z</time></trkpt><trkpt lat="43.617827085253545" lon="11.50510148102063"><ele>133.0</ele><time>2026-05-01T09:03:43.998Z</time></trkpt><trkpt lat="43.61790318183531" lon="11.505138943494552"><ele>134.16666666666669</ele><time>2026-05-01T09:03:45.998Z</time></trkpt><trkpt lat="43.61798548977584" lon="11.50517552495015"><ele>135.33333333333334</ele><time>2026-05-01T09:03:47.998Z</time></trkpt><trkpt lat="43.618066405654886" lon="11.505211632895673"><ele>136.5</ele><time>2026-05-01T09:03:49.998Z</time></trkpt><trkpt lat="43.6181446827375" lon="11.505246196777499"><ele>137.66666666666666</ele><time>2026-05-01T09:03:51.998Z</time></trkpt><trkpt lat="43.61822693594854" lon="11.505282046870569"><ele>138.83333333333331</ele><time>2026-05-01T09:03:53.998Z</time></trkpt><trkpt lat="43.61831023989975" lon="11.505312778242276"><ele>140.0</ele><time>2026-05-01T09:03:55.998Z</time></trkpt><trkpt lat="43.6183928926041" lon="11.505351193410505"><ele>140.0</ele><time>2026-05-01T09:03:57.998Z</time></trkpt><trkpt lat="43.618479461500705" lon="11.505379735222562"><ele>140.0</ele><time>2026-05-01T09:03:59.998Z</time></trkpt><trkpt lat="43.618564644862325" lon="11.50540857925659"><ele>140.0</ele><time>2026-05-01T09:04:01.998Z</time></trkpt><trkpt lat="43.61865082124269" lon="11.5054270362246"><ele>140.0</ele><time>2026-05-01T09:04:03.998Z</time></trkpt><trkpt lat="43.61874017788561" lon="11.505449417860882"><ele>140.0</ele><time>2026-05-01T09:04:05.998Z</time></trkpt><trkpt lat="43.61882843315189" lon="11.505461427821782"><ele>140.0</ele><time>2026-05-01T09:04:07.998Z</time></trkpt><trkpt lat="43.61891644777102" lon="11.505472341225836"><ele>138.2</ele><time>2026-05-01T09:04:09.998Z</time></trkpt><trkpt lat="43.61900754215821" lon="11.505479336570437"><ele>136.4</ele><time>2026-05-01T09:04:11.998Z</time></trkpt><trkpt lat="43.61909839713373" lon="11.505481619165081"><ele>134.6</ele><time>2026-05-01T09:04:13.998Z</time></trkpt><trkpt lat="43.61918936858691" lon="11.505480220934079"><ele>132.8</ele><time>2026-05-01T09:04:15.998Z</time></trkpt><trkpt lat="43.61928177344744" lon="11.5054760190216"><ele>131.0</ele><time>2026-05-01T09:04:17.998Z</time></trkpt><trkpt lat="43.61937296844659" lon="11.505471558888278"><ele>131.0</ele><time>2026-05-01T09:04:20Z</time></trkpt><trkpt lat="43.61946532073357" lon="11.505460649353939"><ele>131.0</ele><time>2026-05-01T09:04:22Z</time></trkpt><trkpt lat="43.61955910574056" lon="11.505450399083943"><ele>131.0</ele><time>2026-05-01T09:04:24Z</time></trkpt><trkpt lat="43.619653078556766" lon="11.50544471364606"><ele>131.0</ele><time>2026-05-01T09:04:26Z</time></trkpt><trkpt lat="43.619750025189" lon="11.50543693215771"><ele>131.0</ele><time>2026-05-01T09:04:28Z</time></trkpt><trkpt lat="43.61984935789599" lon="11.505432611029633"><ele>131.2</ele><time>2026-05-01T09:04:30Z</time></trkpt><trkpt lat="43.61994685139046" lon="11.50543212159041"><ele>131.39999999999998</ele><time>2026-05-01T09:04:32Z</time></trkpt><trkpt lat="43.620044099228615" lon="11.505436578475422"><ele>131.6</ele><time>2026-05-01T09:04:34Z</time></trkpt><trkpt lat="43.62014551409768" lon="11.505448569495584"><ele>131.79999999999998</ele><time>2026-05-01T09:04:36Z</time></trkpt><trkpt lat="43.62024767479602" lon="11.50545698029698"><ele>132.0</ele><time>2026-05-01T09:04:38Z</time></trkpt><trkpt lat="43.62034838551703" lon="11.505477835624376"><ele>132.2</ele><time>2026-05-01T09:04:40Z</time></trkpt><trkpt lat="43.620449168927486" lon="11.505498957507143"><ele>132.39999999999998</ele><time>2026-05-01T09:04:42Z</time></trkpt><trkpt lat="43.62054347711099" lon="11.505524226172705"><ele>132.60000000000002</ele><time>2026-05-01T09:04:44Z</time></trkpt><trkpt lat="43.62063921681109" lon="11.505561224631942"><ele>132.8</ele><time>2026-05-01T09:04:46Z</time></trkpt><trkpt lat="43.62073351438186" lon="11.505595475158652"><ele>133.0</ele><time>2026-05-01T09:04:48Z</time></trkpt><trkpt lat="43.62082465413972" lon="11.505638684596894"><ele>133.0</ele><time>2026-05-01T09:04:50Z</time></trkpt><trkpt lat="43.62092296701878" lon="11.505691250306425"><ele>133.0</ele><time>2026-05-01T09:04:52Z</time></trkpt><trkpt lat="43.621015895885854" lon="11.505744207351029"><ele>133.0</ele><time>2026-05-01T09:04:54Z</time></trkpt><trkpt lat="43.62110324232058" lon="11.505806704429066"><ele>133.0</ele><time>2026-05-01T09:04:55.999Z</time></trkpt><trkpt lat="43.621189943581996" lon="11.505865220646559"><ele>133.0</ele><time>2026-05-01T09:04:57.999Z</time></trkpt><trkpt lat="43.62127527384961" lon="11.505927618772875"><ele>133.4</ele><time>2026-05-01T09:04:59.999Z</time></trkpt><trkpt lat="43.62135995688952" lon="11.505987652545096"><ele>133.8</ele><time>2026-05-01T09:05:01.999Z</time></trkpt><trkpt lat="43.62144359390975" lon="11.506047606147686"><ele>134.2</ele><time>2026-05-01T09:05:03.999Z</time></trkpt><trkpt lat="43.62152629189968" lon="11.506106378550832"><ele>134.6</ele><time>2026-05-01T09:05:05.999Z</time></trkpt><trkpt lat="43.62160821697325" lon="11.506164286742754"><ele>135.0</ele><time>2026-05-01T09:05:07.999Z</time></trkpt><trkpt lat="43.62169085033937" lon="11.506220181724428"><ele>134.8</ele><time>2026-05-01T09:05:09.999Z</time></trkpt><trkpt lat="43.6217707205603" lon="11.506276358329622"><ele>134.6</ele><time>2026-05-01T09:05:11.999Z</time></trkpt><trkpt lat="43.621850128439405" lon="11.506336509738716"><ele>134.4</ele><time>2026-05-01T09:05:13.999Z</time></trkpt><trkpt lat="43.62192598816958" lon="11.506393881470078"><ele>134.2</ele><time>2026-05-01T09:05:15.999Z</time></trkpt><trkpt lat="43.62200956604022" lon="11.50645193725513"><ele>134.0</ele><time>2026-05-01T09:05:17.999Z</time></trkpt><trkpt lat="43.62209362835588" lon="11.50650578784511"><ele>134.0</ele><time>2026-05-01T09:05:19.999Z</time></trkpt><trkpt lat="43.62216424024711" lon="11.5065622949284"><ele>134.0</ele><time>2026-05-01T09:05:21.999Z</time></trkpt><trkpt lat="43.6222408023094" lon="11.506617858001139"><ele>134.0</ele><time>2026-05-01T09:05:23.999Z</time></trkpt><trkpt lat="43.622317816290455" lon="11.506673189411243"><ele>134.0</ele><time>2026-05-01T09:05:25.999Z</time></trkpt><trkpt lat="43.62239437281926" lon="11.5067279961917"><ele>134.0</ele><time>2026-05-01T09:05:27.999Z</time></trkpt><trkpt lat="43.62247787187682" lon="11.50678352431705"><ele>134.0</ele><time>2026-05-01T09:05:29.999Z</time></trkpt><trkpt lat="43.62255490758202" lon="11.506839427050187"><ele>134.0</ele><time>2026-05-01T09:05:31.999Z</time></trkpt><trkpt lat="43.62263661406682" lon="11.506896762967317"><ele>134.0</ele><time>2026-05-01T09:05:33.999Z</time></trkpt><trkpt lat="43.62271922196025" lon="11.50695868519728"><ele>134.0</ele><time>2026-05-01T09:05:35.999Z</time></trkpt><trkpt lat="43.622801678732294" lon="11.507016278692026"><ele>134.0</ele><time>2026-05-01T09:05:37.999Z</time></trkpt><trkpt lat="43.62288474047876" lon="11.507077684516808"><ele>134.0</ele><time>2026-05-01T09:05:39.999Z</time></trkpt><trkpt lat="43.62296667504562" lon="11.507139614921233"><ele>133.8</ele><time>2026-05-01T09:05:41.999Z</time></trkpt><trkpt lat="43.623048154625614" lon="11.507203277342787"><ele>133.60000000000002</ele><time>2026-05-01T09:05:43.999Z</time></trkpt><trkpt lat="43.62312840687694" lon="11.507273606926015"><ele>133.4</ele><time>2026-05-01T09:05:45.999Z</time></trkpt><trkpt lat="43.62320458289443" lon="11.507345321839878"><ele>133.20000000000002</ele><time>2026-05-01T09:05:47.998Z</time></trkpt><trkpt lat="43.62327742113086" lon="11.507420168286474"><ele>133.0</ele><time>2026-05-01T09:05:49.998Z</time></trkpt><trkpt lat="43.623345875179865" lon="11.507493559948804"><ele>133.0</ele><time>2026-05-01T09:05:51.998Z</time></trkpt><trkpt lat="43.62341280913908" lon="11.507578841771819"><ele>133.0</ele><time>2026-05-01T09:05:53.998Z</time></trkpt><trkpt lat="43.62347772267101" lon="11.50765873147809"><ele>133.0</ele><time>2026-05-01T09:05:55.998Z</time></trkpt><trkpt lat="43.623539285640746" lon="11.507750872197912"><ele>133.0</ele><time>2026-05-01T09:05:57.998Z</time></trkpt><trkpt lat="43.62359890162974" lon="11.507842822135576"><ele>133.0</ele><time>2026-05-01T09:05:59.998Z</time></trkpt><trkpt lat="43.623655549982324" lon="11.507938645573368"><ele>133.0</ele><time>2026-05-01T09:06:01.998Z</time></trkpt><trkpt lat="43.62371556101042" lon="11.508035544495174"><ele>133.33333333333334</ele><time>2026-05-01T09:06:03.998Z</time></trkpt><trkpt lat="43.62376905728585" lon="11.50814419902459"><ele>133.66666666666669</ele><time>2026-05-01T09:06:05.998Z</time></trkpt><trkpt lat="43.62381458491937" lon="11.508249650420588"><ele>134.0</ele><time>2026-05-01T09:06:07.998Z</time></trkpt><trkpt lat="43.62386069591424" lon="11.508350169424196"><ele>134.33333333333334</ele><time>2026-05-01T09:06:09.998Z</time></trkpt><trkpt lat="43.62390779220838" lon="11.508453439648775"><ele>134.66666666666666</ele><time>2026-05-01T09:06:11.998Z</time></trkpt><trkpt lat="43.62394502674901" lon="11.508556950390522"><ele>135.0</ele><time>2026-05-01T09:06:13.998Z</time></trkpt><trkpt lat="43.623983553693826" lon="11.508660418844434"><ele>135.16666666666666</ele><time>2026-05-01T09:06:15.998Z</time></trkpt><trkpt lat="43.6240150299332" lon="11.508761732076039"><ele>135.33333333333334</ele><time>2026-05-01T09:06:17.998Z</time></trkpt><trkpt lat="43.62404501928522" lon="11.508869314094053"><ele>135.5</ele><time>2026-05-01T09:06:19.998Z</time></trkpt><trkpt lat="43.62407585643261" lon="11.508977594422355"><ele>135.66666666666669</ele><time>2026-05-01T09:06:21.998Z</time></trkpt><trkpt lat="43.62410367563225" lon="11.509089214148032"><ele>135.83333333333334</ele><time>2026-05-01T09:06:23.998Z</time></trkpt><trkpt lat="43.624134718442335" lon="11.509200083374463"><ele>136.0</ele><time>2026-05-01T09:06:26Z</time></trkpt><trkpt lat="43.62416334715159" lon="11.50931561750138"><ele>136.0</ele><time>2026-05-01T09:06:28Z</time></trkpt><trkpt lat="43.624195922326095" lon="11.509428136015101"><ele>136.0</ele><time>2026-05-01T09:06:30Z</time></trkpt><trkpt lat="43.62422440505816" lon="11.509540005779456"><ele>136.0</ele><time>2026-05-01T09:06:32Z</time></trkpt><trkpt lat="43.62425241336457" lon="11.509656325194063"><ele>136.0</ele><time>2026-05-01T09:06:34Z</time></trkpt><trkpt lat="43.62428026788386" lon="11.509771927046684"><ele>136.0</ele><time>2026-05-01T09:06:36Z</time></trkpt><trkpt lat="43.624310541203066" lon="11.50988791836044"><ele>136.0</ele><time>2026-05-01T09:06:38Z</time></trkpt><trkpt lat="43.62433754740329" lon="11.510006930378209"><ele>136.2</ele><time>2026-05-01T09:06:40Z</time></trkpt><trkpt lat="43.624365085831684" lon="11.510126504917372"><ele>136.39999999999998</ele><time>2026-05-01T09:06:42Z</time></trkpt><trkpt lat="43.62439761499717" lon="11.51024566534941"><ele>136.6</ele><time>2026-05-01T09:06:44Z</time></trkpt><trkpt lat="43.62443102617012" lon="11.510364224802736"><ele>136.79999999999998</ele><time>2026-05-01T09:06:46Z</time></trkpt><trkpt lat="43.62446520047356" lon="11.510485479796682"><ele>137.0</ele><time>2026-05-01T09:06:48Z</time></trkpt><trkpt lat="43.62449710619343" lon="11.510604738080911"><ele>137.2</ele><time>2026-05-01T09:06:50Z</time></trkpt><trkpt lat="43.62452989433319" lon="11.51072613692754"><ele>137.39999999999998</ele><time>2026-05-01T09:06:52Z</time></trkpt><trkpt lat="43.62456054838579" lon="11.510846760523991"><ele>137.60000000000002</ele><time>2026-05-01T09:06:54Z</time></trkpt><trkpt lat="43.62459301625327" lon="11.510968662973728"><ele>137.8</ele><time>2026-05-01T09:06:56Z</time></trkpt><trkpt lat="43.62461441290371" lon="11.51108920705233"><ele>138.0</ele><time>2026-05-01T09:06:57.999Z</time></trkpt><trkpt lat="43.62462876645805" lon="11.511198980949345"><ele>138.0</ele><time>2026-05-01T09:06:59.999Z</time></trkpt><trkpt lat="43.62465629632634" lon="11.511291903410672"><ele>138.0</ele><time>2026-05-01T09:07:01.999Z</time></trkpt><trkpt lat="43.624703183225584" lon="11.51136826712096"><ele>138.0</ele><time>2026-05-01T09:07:03.999Z</time></trkpt><trkpt lat="43.624711817902174" lon="11.511454745976803"><ele>138.0</ele><time>2026-05-01T09:07:05.999Z</time></trkpt><trkpt lat="43.62483492205064" lon="11.511493402491293"><ele>138.0</ele><time>2026-05-01T09:07:07.999Z</time></trkpt><trkpt lat="43.62489755445089" lon="11.511558027548851"><ele>138.0</ele><time>2026-05-01T09:07:09.999Z</time></trkpt><trkpt lat="43.62496022951715" lon="11.511623435198842"><ele>138.0</ele><time>2026-05-01T09:07:11.999Z</time></trkpt><trkpt lat="43.62503533363447" lon="11.511686866363299"><ele>138.0</ele><time>2026-05-01T09:07:13.999Z</time></trkpt><trkpt lat="43.625110351955705" lon="11.511764208572393"><ele>138.0</ele><time>2026-05-01T09:07:15.999Z</time></trkpt><trkpt lat="43.62519188281828" lon="11.511834743784409"><ele>138.0</ele><time>2026-05-01T09:07:17.999Z</time></trkpt><trkpt lat="43.62527057339737" lon="11.51191370048819"><ele>138.0</ele><time>2026-05-01T09:07:19.999Z</time></trkpt><trkpt lat="43.62534816148852" lon="11.511983489411854"><ele>138.33333333333334</ele><time>2026-05-01T09:07:21.999Z</time></trkpt><trkpt lat="43.625424219432524" lon="11.512059095644148"><ele>138.66666666666666</ele><time>2026-05-01T09:07:23.999Z</time></trkpt><trkpt lat="43.62550101298129" lon="11.512136297365672"><ele>139.0</ele><time>2026-05-01T09:07:25.999Z</time></trkpt><trkpt lat="43.62557168399756" lon="11.51220196766277"><ele>139.33333333333331</ele><time>2026-05-01T09:07:27.999Z</time></trkpt><trkpt lat="43.625640492359054" lon="11.512265380357139"><ele>139.66666666666666</ele><time>2026-05-01T09:07:29.999Z</time></trkpt><trkpt lat="43.62571680604189" lon="11.512311966711383"><ele>140.0</ele><time>2026-05-01T09:07:31.999Z</time></trkpt><trkpt lat="43.62578439654969" lon="11.512354955830588"><ele>140.0</ele><time>2026-05-01T09:07:33.999Z</time></trkpt><trkpt lat="43.62586188349933" lon="11.512381591725674"><ele>140.0</ele><time>2026-05-01T09:07:35.999Z</time></trkpt><trkpt lat="43.62594507857164" lon="11.512405754895882"><ele>140.0</ele><time>2026-05-01T09:07:37.999Z</time></trkpt><trkpt lat="43.62602457801236" lon="11.512440377220216"><ele>140.0</ele><time>2026-05-01T09:07:39.999Z</time></trkpt><trkpt lat="43.626109850834695" lon="11.512479873233554"><ele>140.0</ele><time>2026-05-01T09:07:41.999Z</time></trkpt><trkpt lat="43.62619852110453" lon="11.512509945931063"><ele>140.0</ele><time>2026-05-01T09:07:43.999Z</time></trkpt><trkpt lat="43.626284909174444" lon="11.512542973914718"><ele>140.16666666666666</ele><time>2026-05-01T09:07:45.999Z</time></trkpt><trkpt lat="43.626371287118594" lon="11.512581427616226"><ele>140.33333333333331</ele><time>2026-05-01T09:07:47.999Z</time></trkpt><trkpt lat="43.62646143877435" lon="11.512611963562069"><ele>140.5</ele><time>2026-05-01T09:07:49.999Z</time></trkpt><trkpt lat="43.62654388014877" lon="11.512648562080303"><ele>140.66666666666666</ele><time>2026-05-01T09:07:51.998Z</time></trkpt><trkpt lat="43.62662342339515" lon="11.512698616768532"><ele>140.83333333333334</ele><time>2026-05-01T09:07:53.998Z</time></trkpt><trkpt lat="43.62670466005195" lon="11.512753263683209"><ele>141.0</ele><time>2026-05-01T09:07:55.998Z</time></trkpt><trkpt lat="43.626768206032146" lon="11.512840913265736"><ele>141.0</ele><time>2026-05-01T09:07:57.998Z</time></trkpt><trkpt lat="43.626856088877354" lon="11.512904855674995"><ele>141.0</ele><time>2026-05-01T09:07:59.998Z</time></trkpt><trkpt lat="43.62694521314888" lon="11.512955578867134"><ele>141.0</ele><time>2026-05-01T09:08:01.998Z</time></trkpt><trkpt lat="43.627036411137496" lon="11.512994740197723"><ele>141.0</ele><time>2026-05-01T09:08:03.998Z</time></trkpt><trkpt lat="43.6271279117817" lon="11.513029178671676"><ele>141.0</ele><time>2026-05-01T09:08:05.998Z</time></trkpt><trkpt lat="43.627218167937144" lon="11.51306103337492"><ele>141.16666666666666</ele><time>2026-05-01T09:08:07.998Z</time></trkpt><trkpt lat="43.62730836384988" lon="11.513088633778533"><ele>141.33333333333334</ele><time>2026-05-01T09:08:09.998Z</time></trkpt><trkpt lat="43.627393850046985" lon="11.513120759521192"><ele>141.5</ele><time>2026-05-01T09:08:11.998Z</time></trkpt><trkpt lat="43.627474647331724" lon="11.513152959341276"><ele>141.66666666666669</ele><time>2026-05-01T09:08:13.998Z</time></trkpt><trkpt lat="43.62755393769407" lon="11.513182924811652"><ele>141.83333333333334</ele><time>2026-05-01T09:08:15.998Z</time></trkpt><trkpt lat="43.627617801825274" lon="11.513244999871711"><ele>142.0</ele><time>2026-05-01T09:08:17.998Z</time></trkpt><trkpt lat="43.62766838637209" lon="11.51330879839988"><ele>142.0</ele><time>2026-05-01T09:08:19.998Z</time></trkpt><trkpt lat="43.627758782048694" lon="11.513324882284225"><ele>142.0</ele><time>2026-05-01T09:08:22.998Z</time></trkpt><trkpt lat="43.62785864760909" lon="11.513303267028748"><ele>142.0</ele><time>2026-05-01T09:08:25.998Z</time></trkpt><trkpt lat="43.62793037681096" lon="11.513286863394766"><ele>142.0</ele><time>2026-05-01T09:08:27.998Z</time></trkpt><trkpt lat="43.62800180887743" lon="11.513269981484685"><ele>142.0</ele><time>2026-05-01T09:08:29.998Z</time></trkpt><trkpt lat="43.628075543575015" lon="11.51324633246508"><ele>142.0</ele><time>2026-05-01T09:08:32Z</time></trkpt><trkpt lat="43.62814362713367" lon="11.51322360746847"><ele>142.42857142857142</ele><time>2026-05-01T09:08:34Z</time></trkpt><trkpt lat="43.62821824471577" lon="11.513199463809343"><ele>142.85714285714283</ele><time>2026-05-01T09:08:36Z</time></trkpt><trkpt lat="43.62829092527381" lon="11.513174401485104"><ele>143.28571428571428</ele><time>2026-05-01T09:08:38Z</time></trkpt><trkpt lat="43.6283615217347" lon="11.513152416223067"><ele>143.71428571428572</ele><time>2026-05-01T09:08:40Z</time></trkpt><trkpt lat="43.6284314013284" lon="11.513126092902644"><ele>144.14285714285717</ele><time>2026-05-01T09:08:42Z</time></trkpt><trkpt lat="43.62850343353372" lon="11.513099778719925"><ele>144.57142857142858</ele><time>2026-05-01T09:08:44Z</time></trkpt><trkpt lat="43.62857784581498" lon="11.51307707466907"><ele>145.0</ele><time>2026-05-01T09:08:46Z</time></trkpt><trkpt lat="43.62865094876831" lon="11.513057914879866"><ele>145.28571428571428</ele><time>2026-05-01T09:08:48Z</time></trkpt><trkpt lat="43.628720780624434" lon="11.513025626424092"><ele>145.57142857142858</ele><time>2026-05-01T09:08:50Z</time></trkpt><trkpt lat="43.62879361521992" lon="11.513003831211124"><ele>145.85714285714286</ele><time>2026-05-01T09:08:52Z</time></trkpt><trkpt lat="43.62886622474801" lon="11.512980115866753"><ele>146.14285714285714</ele><time>2026-05-01T09:08:54Z</time></trkpt><trkpt lat="43.62893657448199" lon="11.512962613225342"><ele>146.42857142857144</ele><time>2026-05-01T09:08:56Z</time></trkpt><trkpt lat="43.629006900825246" lon="11.512937057723194"><ele>146.71428571428572</ele><time>2026-05-01T09:08:58Z</time></trkpt><trkpt lat="43.62907481421736" lon="11.512915563315234"><ele>147.0</ele><time>2026-05-01T09:09:00Z</time></trkpt><trkpt lat="43.62914831080588" lon="11.512892456027743"><ele>147.0</ele><time>2026-05-01T09:09:02Z</time></trkpt><trkpt lat="43.62922018610357" lon="11.512874419682994"><ele>147.0</ele><time>2026-05-01T09:09:04Z</time></trkpt><trkpt lat="43.629295494969" lon="11.512858040767968"><ele>147.0</ele><time>2026-05-01T09:09:05.999Z</time></trkpt><trkpt lat="43.62936528158821" lon="11.512839056058844"><ele>147.0</ele><time>2026-05-01T09:09:07.999Z</time></trkpt><trkpt lat="43.62943694064511" lon="11.51282242931555"><ele>147.0</ele><time>2026-05-01T09:09:09.999Z</time></trkpt><trkpt lat="43.629506301479694" lon="11.512802851049308"><ele>147.0</ele><time>2026-05-01T09:09:11.999Z</time></trkpt><trkpt lat="43.6295786813297" lon="11.512789007261352"><ele>147.0</ele><time>2026-05-01T09:09:13.999Z</time></trkpt><trkpt lat="43.629651467297464" lon="11.512767195650753"><ele>147.0</ele><time>2026-05-01T09:09:15.999Z</time></trkpt><trkpt lat="43.6297270646739" lon="11.512745234189882"><ele>147.0</ele><time>2026-05-01T09:09:17.999Z</time></trkpt><trkpt lat="43.62979622441148" lon="11.51272584588181"><ele>147.0</ele><time>2026-05-01T09:09:19.999Z</time></trkpt><trkpt lat="43.62986240732209" lon="11.512690649926075"><ele>147.0</ele><time>2026-05-01T09:09:21.999Z</time></trkpt><trkpt lat="43.629916672304375" lon="11.512622147005478"><ele>147.0</ele><time>2026-05-01T09:09:23.999Z</time></trkpt><trkpt lat="43.62995375697539" lon="11.512540564170095"><ele>147.0</ele><time>2026-05-01T09:09:25.999Z</time></trkpt><trkpt lat="43.629973173495486" lon="11.512451794766745"><ele>147.0</ele><time>2026-05-01T09:09:27.999Z</time></trkpt><trkpt lat="43.62998199143098" lon="11.51235697729681"><ele>147.0</ele><time>2026-05-01T09:09:29.999Z</time></trkpt><trkpt lat="43.63000307913698" lon="11.512266064232012"><ele>147.0</ele><time>2026-05-01T09:09:31.999Z</time></trkpt><trkpt lat="43.630019171282086" lon="11.512173575384072"><ele>147.0</ele><time>2026-05-01T09:09:33.999Z</time></trkpt><trkpt lat="43.63003854708955" lon="11.512085843486194"><ele>147.0</ele><time>2026-05-01T09:09:35.999Z</time></trkpt><trkpt lat="43.630055630974724" lon="11.51199499153551"><ele>147.0</ele><time>2026-05-01T09:09:37.999Z</time></trkpt><trkpt lat="43.63007394370979" lon="11.511905591633425"><ele>147.0</ele><time>2026-05-01T09:09:39.999Z</time></trkpt><trkpt lat="43.6301013741449" lon="11.511814701264436"><ele>147.0</ele><time>2026-05-01T09:09:41.999Z</time></trkpt><trkpt lat="43.630117001424225" lon="11.511726267686496"><ele>147.42857142857142</ele><time>2026-05-01T09:09:43.999Z</time></trkpt><trkpt lat="43.63014169414073" lon="11.511642499633199"><ele>147.85714285714286</ele><time>2026-05-01T09:09:45.999Z</time></trkpt><trkpt lat="43.63017574041558" lon="11.511557472715031"><ele>148.28571428571428</ele><time>2026-05-01T09:09:47.999Z</time></trkpt><trkpt lat="43.63021235922449" lon="11.511483181365552"><ele>148.71428571428572</ele><time>2026-05-01T09:09:49.999Z</time></trkpt><trkpt lat="43.630268817363216" lon="11.511424771548384"><ele>149.14285714285714</ele><time>2026-05-01T09:09:51.999Z</time></trkpt><trkpt lat="43.63032714019919" lon="11.511379716425134"><ele>149.57142857142856</ele><time>2026-05-01T09:09:53.999Z</time></trkpt><trkpt lat="43.630389339593755" lon="11.511341620397907"><ele>150.0</ele><time>2026-05-01T09:09:55.999Z</time></trkpt><trkpt lat="43.63045660453366" lon="11.511314402128402"><ele>150.42857142857142</ele><time>2026-05-01T09:09:57.999Z</time></trkpt><trkpt lat="43.630520049375136" lon="11.511278029355429"><ele>150.85714285714286</ele><time>2026-05-01T09:09:59.999Z</time></trkpt><trkpt lat="43.630586166010076" lon="11.511251353197057"><ele>151.28571428571428</ele><time>2026-05-01T09:10:01.998Z</time></trkpt><trkpt lat="43.630654334669586" lon="11.511227485543179"><ele>151.71428571428572</ele><time>2026-05-01T09:10:03.998Z</time></trkpt><trkpt lat="43.6307208084545" lon="11.511197933744047"><ele>152.14285714285714</ele><time>2026-05-01T09:10:05.998Z</time></trkpt><trkpt lat="43.63078651741709" lon="11.51117782098709"><ele>152.57142857142856</ele><time>2026-05-01T09:10:07.998Z</time></trkpt><trkpt lat="43.6308524123528" lon="11.511150903918473"><ele>153.0</ele><time>2026-05-01T09:10:09.998Z</time></trkpt><trkpt lat="43.63092251150579" lon="11.511125452771472"><ele>153.42857142857142</ele><time>2026-05-01T09:10:11.998Z</time></trkpt><trkpt lat="43.6309907921542" lon="11.511101196580315"><ele>153.85714285714286</ele><time>2026-05-01T09:10:13.998Z</time></trkpt><trkpt lat="43.6310587229388" lon="11.511088996872019"><ele>154.28571428571428</ele><time>2026-05-01T09:10:15.998Z</time></trkpt><trkpt lat="43.631127433397026" lon="11.511077938487361"><ele>154.71428571428572</ele><time>2026-05-01T09:10:17.998Z</time></trkpt><trkpt lat="43.63119331457366" lon="11.511073646611568"><ele>155.14285714285714</ele><time>2026-05-01T09:10:19.998Z</time></trkpt><trkpt lat="43.631259766947544" lon="11.511079560611426"><ele>155.57142857142858</ele><time>2026-05-01T09:10:21.998Z</time></trkpt><trkpt lat="43.631349102575285" lon="11.511090808433625"><ele>156.0</ele><time>2026-05-01T09:10:24.998Z</time></trkpt><trkpt lat="43.63142838503397" lon="11.511110375470388"><ele>156.14285714285714</ele><time>2026-05-01T09:10:27.998Z</time></trkpt><trkpt lat="43.631504547935535" lon="11.511131959174481"><ele>156.28571428571428</ele><time>2026-05-01T09:10:30.998Z</time></trkpt><trkpt lat="43.63157920645313" lon="11.511138439001295"><ele>156.42857142857142</ele><time>2026-05-01T09:10:33.998Z</time></trkpt><trkpt lat="43.63164687136128" lon="11.511151176937597"><ele>156.57142857142856</ele><time>2026-05-01T09:10:36.998Z</time></trkpt><trkpt lat="43.63171719496755" lon="11.511176633229434"><ele>156.71428571428572</ele><time>2026-05-01T09:10:40Z</time></trkpt><trkpt lat="43.63178033139445" lon="11.511198210016788"><ele>156.85714285714283</ele><time>2026-05-01T09:10:43Z</time></trkpt><trkpt lat="43.6318484211631" lon="11.511208122132754"><ele>157.0</ele><time>2026-05-01T09:10:46Z</time></trkpt><trkpt lat="43.631929706548014" lon="11.511209613574097"><ele>158.28571428571428</ele><time>2026-05-01T09:10:50Z</time></trkpt><trkpt lat="43.63200778589106" lon="11.511198904897206"><ele>159.57142857142856</ele><time>2026-05-01T09:10:54Z</time></trkpt><trkpt lat="43.632077740921744" lon="11.511193363304479"><ele>160.85714285714283</ele><time>2026-05-01T09:10:58Z</time></trkpt><trkpt lat="43.632146006583554" lon="11.511176257991574"><ele>162.14285714285714</ele><time>2026-05-01T09:11:01.999Z</time></trkpt><trkpt lat="43.63220965702039" lon="11.511165706310353"><ele>163.42857142857144</ele><time>2026-05-01T09:11:05.999Z</time></trkpt><trkpt lat="43.632281990470126" lon="11.51113235924263"><ele>164.7142857142857</ele><time>2026-05-01T09:11:09.999Z</time></trkpt><trkpt lat="43.63234407888416" lon="11.511105017673396"><ele>166.0</ele><time>2026-05-01T09:11:13.999Z</time></trkpt><trkpt lat="43.63240427231998" lon="11.511076509251925"><ele>166.0</ele><time>2026-05-01T09:11:17.999Z</time></trkpt><trkpt lat="43.63246726645048" lon="11.511052762892003"><ele>166.0</ele><time>2026-05-01T09:11:21.999Z</time></trkpt><trkpt lat="43.63253441152688" lon="11.51103089768342"><ele>166.0</ele><time>2026-05-01T09:11:25.999Z</time></trkpt><trkpt lat="43.63259753078277" lon="11.511009245622565"><ele>166.0</ele><time>2026-05-01T09:11:29.999Z</time></trkpt><trkpt lat="43.63266668697984" lon="11.510969895649984"><ele>166.0</ele><time>2026-05-01T09:11:33.999Z</time></trkpt><trkpt lat="43.63273201185277" lon="11.510947295307936"><ele>166.0</ele><time>2026-05-01T09:11:37.999Z</time></trkpt><trkpt lat="43.632793983733805" lon="11.510913331319555"><ele>166.0</ele><time>2026-05-01T09:11:41.999Z</time></trkpt><trkpt lat="43.63285579844679" lon="11.510875016199908"><ele>167.28571428571428</ele><time>2026-05-01T09:11:45.999Z</time></trkpt><trkpt lat="43.632916749162696" lon="11.51083159070186"><ele>168.57142857142858</ele><time>2026-05-01T09:11:49.998Z</time></trkpt><trkpt lat="43.632976976807846" lon="11.510799233342597"><ele>169.85714285714286</ele><time>2026-05-01T09:11:53.998Z</time></trkpt><trkpt lat="43.633048148176016" lon="11.510756241722962"><ele>171.14285714285714</ele><time>2026-05-01T09:11:58.998Z</time></trkpt><trkpt lat="43.63311097964611" lon="11.510702374784692"><ele>172.42857142857144</ele><time>2026-05-01T09:12:03.998Z</time></trkpt><trkpt lat="43.633173568160935" lon="11.510648832231963"><ele>173.71428571428572</ele><time>2026-05-01T09:12:07.998Z</time></trkpt><trkpt lat="43.63323184862138" lon="11.510609994557523"><ele>175.0</ele><time>2026-05-01T09:12:12.998Z</time></trkpt><trkpt lat="43.63329132394016" lon="11.510565784737027"><ele>175.0</ele><time>2026-05-01T09:12:16.998Z</time></trkpt><trkpt lat="43.63336841314" lon="11.51051605115005"><ele>175.0</ele><time>2026-05-01T09:12:21.998Z</time></trkpt><trkpt lat="43.633430633090846" lon="11.510456888343752"><ele>175.0</ele><time>2026-05-01T09:12:26.998Z</time></trkpt><trkpt lat="43.633495006236316" lon="11.510406279586336"><ele>175.0</ele><time>2026-05-01T09:12:31.998Z</time></trkpt><trkpt lat="43.63356117120176" lon="11.510353952850819"><ele>175.0</ele><time>2026-05-01T09:12:36.998Z</time></trkpt><trkpt lat="43.633619273113545" lon="11.510310239728431"><ele>175.0</ele><time>2026-05-01T09:12:40.998Z</time></trkpt><trkpt lat="43.633680512037074" lon="11.510263873776362"><ele>175.0</ele><time>2026-05-01T09:12:44.999Z</time></trkpt><trkpt lat="43.63373790013807" lon="11.510217207890092"><ele>175.83333333333334</ele><time>2026-05-01T09:12:48.999Z</time></trkpt><trkpt lat="43.63380549056618" lon="11.510164220376625"><ele>176.66666666666669</ele><time>2026-05-01T09:12:52.999Z</time></trkpt><trkpt lat="43.63387947474764" lon="11.510111143836017"><ele>177.5</ele><time>2026-05-01T09:12:57Z</time></trkpt><trkpt lat="43.63394555273599" lon="11.510066331044309"><ele>178.33333333333334</ele><time>2026-05-01T09:13:00Z</time></trkpt><trkpt lat="43.63401861051819" lon="11.510018839087701"><ele>179.16666666666666</ele><time>2026-05-01T09:13:03Z</time></trkpt><trkpt lat="43.63409907251632" lon="11.509971016195028"><ele>180.0</ele><time>2026-05-01T09:13:06Z</time></trkpt><trkpt lat="43.634179306533085" lon="11.509939347576154"><ele>180.0</ele><time>2026-05-01T09:13:09Z</time></trkpt><trkpt lat="43.6342644674802" lon="11.509888504211599"><ele>180.0</ele><time>2026-05-01T09:13:12Z</time></trkpt><trkpt lat="43.63433295843062" lon="11.50984849745878"><ele>180.0</ele><time>2026-05-01T09:13:13.999Z</time></trkpt><trkpt lat="43.63441782901504" lon="11.50980767180787"><ele>180.0</ele><time>2026-05-01T09:13:15.999Z</time></trkpt><trkpt lat="43.634521017238676" lon="11.509759351093699"><ele>180.0</ele><time>2026-05-01T09:13:17.999Z</time></trkpt><trkpt lat="43.6346363005903" lon="11.509716143160098"><ele>179.16666666666666</ele><time>2026-05-01T09:13:19.999Z</time></trkpt><trkpt lat="43.63470598207754" lon="11.509686908986087"><ele>178.33333333333334</ele><time>2026-05-01T09:13:20.999Z</time></trkpt><trkpt lat="43.63477519142266" lon="11.509660663139758"><ele>177.5</ele><time>2026-05-01T09:13:21.999Z</time></trkpt><trkpt lat="43.63485139350493" lon="11.509624459135116"><ele>176.66666666666669</ele><time>2026-05-01T09:13:22.999Z</time></trkpt><trkpt lat="43.63493369341374" lon="11.50958511623944"><ele>175.83333333333334</ele><time>2026-05-01T09:13:23.999Z</time></trkpt><trkpt lat="43.63501750800955" lon="11.509542627211117"><ele>175.0</ele><time>2026-05-01T09:13:24.999Z</time></trkpt><trkpt lat="43.63509836963959" lon="11.50948891235365"><ele>175.0</ele><time>2026-05-01T09:13:25.999Z</time></trkpt><trkpt lat="43.635182664258764" lon="11.509425238396698"><ele>175.0</ele><time>2026-05-01T09:13:26.999Z</time></trkpt><trkpt lat="43.63526375725439" lon="11.509356479030272"><ele>175.0</ele><time>2026-05-01T09:13:27.999Z</time></trkpt><trkpt lat="43.635349521678584" lon="11.509274344584767"><ele>175.0</ele><time>2026-05-01T09:13:28.999Z</time></trkpt><trkpt lat="43.63543309815404" lon="11.509193526618684"><ele>175.0</ele><time>2026-05-01T09:13:29.999Z</time></trkpt><trkpt lat="43.63551297100194" lon="11.509105031575425"><ele>173.2</ele><time>2026-05-01T09:13:30.999Z</time></trkpt><trkpt lat="43.63559295642584" lon="11.509008716708852"><ele>171.4</ele><time>2026-05-01T09:13:31.999Z</time></trkpt><trkpt lat="43.63566788966495" lon="11.50890580113714"><ele>169.60000000000002</ele><time>2026-05-01T09:13:32.999Z</time></trkpt><trkpt lat="43.63574066736924" lon="11.508795899893144"><ele>167.8</ele><time>2026-05-01T09:13:33.999Z</time></trkpt><trkpt lat="43.6357965981481" lon="11.508672750441182"><ele>166.0</ele><time>2026-05-01T09:13:34.999Z</time></trkpt><trkpt lat="43.63584845023309" lon="11.50853107968185"><ele>164.8</ele><time>2026-05-01T09:13:35.999Z</time></trkpt><trkpt lat="43.63589293480048" lon="11.508397314490876"><ele>163.60000000000002</ele><time>2026-05-01T09:13:36.999Z</time></trkpt><trkpt lat="43.63593398714831" lon="11.508267189653974"><ele>162.4</ele><time>2026-05-01T09:13:37.999Z</time></trkpt><trkpt lat="43.63597705001577" lon="11.508138058824397"><ele>161.2</ele><time>2026-05-01T09:13:38.999Z</time></trkpt><trkpt lat="43.636019802374406" lon="11.508011537126334"><ele>160.0</ele><time>2026-05-01T09:13:39.999Z</time></trkpt><trkpt lat="43.636059331285864" lon="11.507891727912549"><ele>159.4</ele><time>2026-05-01T09:13:40.999Z</time></trkpt><trkpt lat="43.636098601103804" lon="11.507766169085588"><ele>158.8</ele><time>2026-05-01T09:13:41.999Z</time></trkpt><trkpt lat="43.63613811986652" lon="11.50764692172295"><ele>158.2</ele><time>2026-05-01T09:13:42.999Z</time></trkpt><trkpt lat="43.63617852053338" lon="11.507526632347057"><ele>157.6</ele><time>2026-05-01T09:13:43.999Z</time></trkpt><trkpt lat="43.6362199655711" lon="11.507410714354636"><ele>157.0</ele><time>2026-05-01T09:13:44.999Z</time></trkpt><trkpt lat="43.6362599077466" lon="11.507297299529794"><ele>157.0</ele><time>2026-05-01T09:13:45.999Z</time></trkpt><trkpt lat="43.636296750391914" lon="11.507184265764275"><ele>157.0</ele><time>2026-05-01T09:13:46.999Z</time></trkpt><trkpt lat="43.63633493314705" lon="11.5070743545408"><ele>157.0</ele><time>2026-05-01T09:13:47.999Z</time></trkpt><trkpt lat="43.63637575243166" lon="11.506966779390225"><ele>157.0</ele><time>2026-05-01T09:13:48.999Z</time></trkpt><trkpt lat="43.63641408803791" lon="11.506858717399025"><ele>157.0</ele><time>2026-05-01T09:13:49.999Z</time></trkpt><trkpt lat="43.636453223399855" lon="11.506752023811242"><ele>157.0</ele><time>2026-05-01T09:13:50.999Z</time></trkpt><trkpt lat="43.636490215163334" lon="11.506647511557052"><ele>156.83333333333334</ele><time>2026-05-01T09:13:51.999Z</time></trkpt><trkpt lat="43.63652756949737" lon="11.506538144344464"><ele>156.66666666666669</ele><time>2026-05-01T09:13:52.999Z</time></trkpt><trkpt lat="43.63656037451631" lon="11.50643418798177"><ele>156.5</ele><time>2026-05-01T09:13:53.999Z</time></trkpt><trkpt lat="43.636591407736006" lon="11.506336102015036"><ele>156.33333333333334</ele><time>2026-05-01T09:13:54.999Z</time></trkpt><trkpt lat="43.63662165344188" lon="11.506239575784242"><ele>156.16666666666666</ele><time>2026-05-01T09:13:55.999Z</time></trkpt><trkpt lat="43.636651862789684" lon="11.506140636308906"><ele>156.0</ele><time>2026-05-01T09:13:56.999Z</time></trkpt><trkpt lat="43.63669675144506" lon="11.506044637159352"><ele>155.5</ele><time>2026-05-01T09:13:57.999Z</time></trkpt><trkpt lat="43.63673600573036" lon="11.505948824308629"><ele>155.0</ele><time>2026-05-01T09:13:58.999Z</time></trkpt><trkpt lat="43.63677330544451" lon="11.50586877423351"><ele>154.5</ele><time>2026-05-01T09:13:59.999Z</time></trkpt><trkpt lat="43.636809030568536" lon="11.505793623730936"><ele>154.0</ele><time>2026-05-01T09:14:00.999Z</time></trkpt><trkpt lat="43.63688533922112" lon="11.505666530599264"><ele>153.5</ele><time>2026-05-01T09:14:02.999Z</time></trkpt><trkpt lat="43.636945623863866" lon="11.505558073288203"><ele>153.0</ele><time>2026-05-01T09:14:04.999Z</time></trkpt><trkpt lat="43.636999750737424" lon="11.50546339244429"><ele>151.66666666666666</ele><time>2026-05-01T09:14:06.999Z</time></trkpt><trkpt lat="43.637066759163105" lon="11.505354741107087"><ele>150.33333333333334</ele><time>2026-05-01T09:14:08.999Z</time></trkpt><trkpt lat="43.63711391277854" lon="11.505296300953919"><ele>149.0</ele><time>2026-05-01T09:14:09.999Z</time></trkpt><trkpt lat="43.63715720653236" lon="11.505222957749822"><ele>147.66666666666669</ele><time>2026-05-01T09:14:10.999Z</time></trkpt><trkpt lat="43.63720040934462" lon="11.505136662897772"><ele>146.33333333333334</ele><time>2026-05-01T09:14:11.999Z</time></trkpt><trkpt lat="43.63724415013868" lon="11.505049073059462"><ele>145.0</ele><time>2026-05-01T09:14:12.999Z</time></trkpt><trkpt lat="43.63728776577964" lon="11.50497044971909"><ele>145.0</ele><time>2026-05-01T09:14:13.999Z</time></trkpt><trkpt lat="43.63737602134784" lon="11.504858721634506"><ele>145.0</ele><time>2026-05-01T09:14:15.999Z</time></trkpt><trkpt lat="43.63744386872816" lon="11.504743426528904"><ele>145.0</ele><time>2026-05-01T09:14:17.999Z</time></trkpt><trkpt lat="43.63752381521375" lon="11.504627354814643"><ele>145.0</ele><time>2026-05-01T09:14:19.998Z</time></trkpt><trkpt lat="43.63758580982316" lon="11.504606127540972"><ele>145.0</ele><time>2026-05-01T09:14:20.998Z</time></trkpt><trkpt lat="43.63765251729363" lon="11.50462098277438"><ele>145.0</ele><time>2026-05-01T09:14:21.998Z</time></trkpt><trkpt lat="43.637710798268344" lon="11.504660286770255"><ele>145.0</ele><time>2026-05-01T09:14:22.998Z</time></trkpt><trkpt lat="43.63779534481831" lon="11.504764234508862"><ele>145.0</ele><time>2026-05-01T09:14:24.998Z</time></trkpt><trkpt lat="43.6378654386131" lon="11.504843244918861"><ele>145.0</ele><time>2026-05-01T09:14:26.998Z</time></trkpt><trkpt lat="43.63793124867179" lon="11.504905585870882"><ele>145.0</ele><time>2026-05-01T09:14:28.998Z</time></trkpt><trkpt lat="43.63799512230746" lon="11.504969457172695"><ele>145.0</ele><time>2026-05-01T09:14:30.998Z</time></trkpt><trkpt lat="43.638051016386875" lon="11.505033325117724"><ele>144.83333333333334</ele><time>2026-05-01T09:14:32.998Z</time></trkpt><trkpt lat="43.63812094227297" lon="11.505096671342521"><ele>144.66666666666669</ele><time>2026-05-01T09:14:34.998Z</time></trkpt><trkpt lat="43.638186939695764" lon="11.505159022827625"><ele>144.5</ele><time>2026-05-01T09:14:36.998Z</time></trkpt><trkpt lat="43.638255907028615" lon="11.50522797010226"><ele>144.33333333333334</ele><time>2026-05-01T09:14:38.998Z</time></trkpt><trkpt lat="43.63831310515711" lon="11.505313655808646"><ele>144.16666666666666</ele><time>2026-05-01T09:14:40.998Z</time></trkpt><trkpt lat="43.63838308087062" lon="11.505382969012938"><ele>144.0</ele><time>2026-05-01T09:14:42.998Z</time></trkpt><trkpt lat="43.63845190169036" lon="11.505449946084068"><ele>144.4</ele><time>2026-05-01T09:14:44.998Z</time></trkpt><trkpt lat="43.6385311426482" lon="11.505499723977273"><ele>144.8</ele><time>2026-05-01T09:14:46.998Z</time></trkpt><trkpt lat="43.63859827220306" lon="11.505568103365906"><ele>145.2</ele><time>2026-05-01T09:14:48.998Z</time></trkpt><trkpt lat="43.638662521979214" lon="11.505639875501764"><ele>145.6</ele><time>2026-05-01T09:14:51Z</time></trkpt><trkpt lat="43.638729387447626" lon="11.505707429946769"><ele>146.0</ele><time>2026-05-01T09:14:53Z</time></trkpt><trkpt lat="43.638825311692415" lon="11.505807961671541"><ele>146.0</ele><time>2026-05-01T09:14:56Z</time></trkpt><trkpt lat="43.63888404848444" lon="11.505867777526378"><ele>146.0</ele><time>2026-05-01T09:14:58Z</time></trkpt><trkpt lat="43.638934893411125" lon="11.505920262605468"><ele>146.0</ele><time>2026-05-01T09:15:00Z</time></trkpt><trkpt lat="43.638993893780125" lon="11.505982712566835"><ele>146.0</ele><time>2026-05-01T09:15:03Z</time></trkpt><trkpt lat="43.63905867801577" lon="11.506039860974534"><ele>146.0</ele><time>2026-05-01T09:15:06Z</time></trkpt><trkpt lat="43.639130819101716" lon="11.506114907291767"><ele>146.0</ele><time>2026-05-01T09:15:09Z</time></trkpt><trkpt lat="43.63918487907506" lon="11.506169585467013"><ele>146.0</ele><time>2026-05-01T09:15:11Z</time></trkpt><trkpt lat="43.63924035854616" lon="11.506222862578854"><ele>146.14285714285714</ele><time>2026-05-01T09:15:13Z</time></trkpt><trkpt lat="43.63929818097323" lon="11.506271970383688"><ele>146.28571428571428</ele><time>2026-05-01T09:15:15Z</time></trkpt><trkpt lat="43.63935479944374" lon="11.506327228148528"><ele>146.42857142857144</ele><time>2026-05-01T09:15:17Z</time></trkpt><trkpt lat="43.639409131592075" lon="11.506391839962477"><ele>146.57142857142856</ele><time>2026-05-01T09:15:19Z</time></trkpt><trkpt lat="43.63946542372924" lon="11.506451024653732"><ele>146.71428571428572</ele><time>2026-05-01T09:15:21Z</time></trkpt><trkpt lat="43.63952076256625" lon="11.506520176565138"><ele>146.85714285714286</ele><time>2026-05-01T09:15:23Z</time></trkpt><trkpt lat="43.6395785282328" lon="11.506581837785088"><ele>147.0</ele><time>2026-05-01T09:15:25Z</time></trkpt><trkpt lat="43.639631566008134" lon="11.506647211978565"><ele>147.14285714285714</ele><time>2026-05-01T09:15:27Z</time></trkpt><trkpt lat="43.63968422089242" lon="11.506710041795142"><ele>147.28571428571428</ele><time>2026-05-01T09:15:29Z</time></trkpt><trkpt lat="43.63972863986078" lon="11.506783991414748"><ele>147.42857142857144</ele><time>2026-05-01T09:15:31Z</time></trkpt><trkpt lat="43.63976940539374" lon="11.506861270476103"><ele>147.57142857142856</ele><time>2026-05-01T09:15:33Z</time></trkpt><trkpt lat="43.63981568200946" lon="11.506938369216408"><ele>147.71428571428572</ele><time>2026-05-01T09:15:34.999Z</time></trkpt><trkpt lat="43.639863197853074" lon="11.507010019142472"><ele>147.85714285714286</ele><time>2026-05-01T09:15:36.999Z</time></trkpt><trkpt lat="43.63990534764839" lon="11.507085096197443"><ele>148.0</ele><time>2026-05-01T09:15:38.999Z</time></trkpt><trkpt lat="43.63995043508429" lon="11.507156884275394"><ele>148.14285714285714</ele><time>2026-05-01T09:15:40.999Z</time></trkpt><trkpt lat="43.639989226586756" lon="11.507231178142876"><ele>148.28571428571428</ele><time>2026-05-01T09:15:42.999Z</time></trkpt><trkpt lat="43.6400338744742" lon="11.5073023613968"><ele>148.42857142857142</ele><time>2026-05-01T09:15:44.999Z</time></trkpt><trkpt lat="43.640076784835365" lon="11.507376910923956"><ele>148.57142857142856</ele><time>2026-05-01T09:15:46.999Z</time></trkpt><trkpt lat="43.640116152083" lon="11.507455595992964"><ele>148.7142857142857</ele><time>2026-05-01T09:15:48.999Z</time></trkpt><trkpt lat="43.64016440711523" lon="11.50752417265813"><ele>148.85714285714286</ele><time>2026-05-01T09:15:50.999Z</time></trkpt><trkpt lat="43.640207672803484" lon="11.507597281976926"><ele>149.0</ele><time>2026-05-01T09:15:52.999Z</time></trkpt><trkpt lat="43.640248409917724" lon="11.507670418198058"><ele>149.0</ele><time>2026-05-01T09:15:54.999Z</time></trkpt><trkpt lat="43.64029091339923" lon="11.507739939252675"><ele>149.0</ele><time>2026-05-01T09:15:56.999Z</time></trkpt><trkpt lat="43.64033189106939" lon="11.507809101264302"><ele>149.0</ele><time>2026-05-01T09:15:58.999Z</time></trkpt><trkpt lat="43.64037063515397" lon="11.507880096524543"><ele>149.0</ele><time>2026-05-01T09:16:00.999Z</time></trkpt><trkpt lat="43.64042120696963" lon="11.507984588418909"><ele>149.0</ele><time>2026-05-01T09:16:03.999Z</time></trkpt><trkpt lat="43.64044153333264" lon="11.50806888770448"><ele>149.0</ele><time>2026-05-01T09:16:05.999Z</time></trkpt><trkpt lat="43.640492548317305" lon="11.508180700059553"><ele>149.0</ele><time>2026-05-01T09:16:08.999Z</time></trkpt><trkpt lat="43.6405231593166" lon="11.508261687054087"><ele>149.0</ele><time>2026-05-01T09:16:10.999Z</time></trkpt><trkpt lat="43.64055322053027" lon="11.508343642145599"><ele>149.0</ele><time>2026-05-01T09:16:12.999Z</time></trkpt><trkpt lat="43.64058928294141" lon="11.508443142640582"><ele>149.0</ele><time>2026-05-01T09:16:15.999Z</time></trkpt><trkpt lat="43.64060413014203" lon="11.508543080278121"><ele>149.0</ele><time>2026-05-01T09:16:18.999Z</time></trkpt><trkpt lat="43.640576712600925" lon="11.508627345169764"><ele>149.0</ele><time>2026-05-01T09:16:20.999Z</time></trkpt><trkpt lat="43.64055712715238" lon="11.508713537764276"><ele>149.0</ele><time>2026-05-01T09:16:22.999Z</time></trkpt><trkpt lat="43.64053484728187" lon="11.508834041932335"><ele>149.0</ele><time>2026-05-01T09:16:25.999Z</time></trkpt><trkpt lat="43.640522684081866" lon="11.508961498055509"><ele>149.83333333333331</ele><time>2026-05-01T09:16:28.999Z</time></trkpt><trkpt lat="43.64052794672" lon="11.50907935242867"><ele>150.66666666666666</ele><time>2026-05-01T09:16:31.998Z</time></trkpt><trkpt lat="43.64053897578915" lon="11.509197207843334"><ele>151.5</ele><time>2026-05-01T09:16:34.998Z</time></trkpt><trkpt lat="43.640557967792084" lon="11.509309796530275"><ele>152.33333333333334</ele><time>2026-05-01T09:16:37.998Z</time></trkpt><trkpt lat="43.640563293869064" lon="11.50941812790779"><ele>153.16666666666669</ele><time>2026-05-01T09:16:40.998Z</time></trkpt><trkpt lat="43.64060828671037" lon="11.509509480319476"><ele>154.0</ele><time>2026-05-01T09:16:43.998Z</time></trkpt><trkpt lat="43.64064522534357" lon="11.509599093415465"><ele>154.28571428571428</ele><time>2026-05-01T09:16:46.998Z</time></trkpt><trkpt lat="43.64070091927554" lon="11.509674601391023"><ele>154.57142857142856</ele><time>2026-05-01T09:16:49.998Z</time></trkpt><trkpt lat="43.64074811786347" lon="11.509752432659829"><ele>154.85714285714286</ele><time>2026-05-01T09:16:52.998Z</time></trkpt><trkpt lat="43.64079874418552" lon="11.509824286639608"><ele>155.14285714285714</ele><time>2026-05-01T09:16:56Z</time></trkpt><trkpt lat="43.64085372046853" lon="11.509884770263415"><ele>155.42857142857142</ele><time>2026-05-01T09:16:59Z</time></trkpt><trkpt lat="43.64090947622076" lon="11.509939386348458"><ele>155.71428571428572</ele><time>2026-05-01T09:17:02Z</time></trkpt><trkpt lat="43.64097238710156" lon="11.509996182742617"><ele>156.0</ele><time>2026-05-01T09:17:05Z</time></trkpt><trkpt lat="43.64103636712966" lon="11.51005172995068"><ele>156.0</ele><time>2026-05-01T09:17:08Z</time></trkpt><trkpt lat="43.64109604423292" lon="11.510108690440857"><ele>156.0</ele><time>2026-05-01T09:17:11Z</time></trkpt><trkpt lat="43.64115185933118" lon="11.510165478281731"><ele>156.0</ele><time>2026-05-01T09:17:14Z</time></trkpt><trkpt lat="43.64121592796157" lon="11.510217950575381"><ele>156.0</ele><time>2026-05-01T09:17:17Z</time></trkpt><trkpt lat="43.64128158711904" lon="11.510280385843142"><ele>156.0</ele><time>2026-05-01T09:17:20Z</time></trkpt><trkpt lat="43.64134437572138" lon="11.510334676578895"><ele>156.0</ele><time>2026-05-01T09:17:23Z</time></trkpt><trkpt lat="43.64140280359693" lon="11.510392044489025"><ele>156.0</ele><time>2026-05-01T09:17:26Z</time></trkpt><trkpt lat="43.641464098949406" lon="11.510446856356824"><ele>156.0</ele><time>2026-05-01T09:17:29Z</time></trkpt><trkpt lat="43.64152582278658" lon="11.510506368183396"><ele>156.0</ele><time>2026-05-01T09:17:32Z</time></trkpt><trkpt lat="43.641591644367836" lon="11.510560002461363"><ele>156.0</ele><time>2026-05-01T09:17:35Z</time></trkpt><trkpt lat="43.641651380816505" lon="11.51062041161943"><ele>156.0</ele><time>2026-05-01T09:17:38Z</time></trkpt><trkpt lat="43.64171210067806" lon="11.510686501504049"><ele>156.0</ele><time>2026-05-01T09:17:40.999Z</time></trkpt><trkpt lat="43.64177221038136" lon="11.510754558129799"><ele>156.0</ele><time>2026-05-01T09:17:43.999Z</time></trkpt><trkpt lat="43.641828888073945" lon="11.510825627258672"><ele>156.0</ele><time>2026-05-01T09:17:46.999Z</time></trkpt><trkpt lat="43.64188494471618" lon="11.510902917646018"><ele>156.0</ele><time>2026-05-01T09:17:49.999Z</time></trkpt><trkpt lat="43.64194006926944" lon="11.510985246930776"><ele>156.0</ele><time>2026-05-01T09:17:52.999Z</time></trkpt><trkpt lat="43.64199099628153" lon="11.511070799319905"><ele>156.0</ele><time>2026-05-01T09:17:55.999Z</time></trkpt><trkpt lat="43.64203842744546" lon="11.511161269023034"><ele>156.0</ele><time>2026-05-01T09:17:58.999Z</time></trkpt><trkpt lat="43.642083408964915" lon="11.51125353577032"><ele>156.0</ele><time>2026-05-01T09:18:01.999Z</time></trkpt><trkpt lat="43.64212146310751" lon="11.51134387919782"><ele>156.33333333333334</ele><time>2026-05-01T09:18:04.999Z</time></trkpt><trkpt lat="43.642156624057925" lon="11.511449225549699"><ele>156.66666666666666</ele><time>2026-05-01T09:18:07.999Z</time></trkpt><trkpt lat="43.64218866187018" lon="11.51154621214132"><ele>157.0</ele><time>2026-05-01T09:18:10.999Z</time></trkpt><trkpt lat="43.64221194404615" lon="11.511649766069214"><ele>157.33333333333331</ele><time>2026-05-01T09:18:13.999Z</time></trkpt><trkpt lat="43.64224336443492" lon="11.511752090285366"><ele>157.66666666666666</ele><time>2026-05-01T09:18:16.999Z</time></trkpt><trkpt lat="43.642270187332905" lon="11.511861306214358"><ele>158.0</ele><time>2026-05-01T09:18:19.999Z</time></trkpt><trkpt lat="43.64229544499928" lon="11.511968344800229"><ele>159.16666666666666</ele><time>2026-05-01T09:18:22.999Z</time></trkpt><trkpt lat="43.64231347130759" lon="11.512080762941832"><ele>160.33333333333331</ele><time>2026-05-01T09:18:25.999Z</time></trkpt><trkpt lat="43.642323784154904" lon="11.51219160912842"><ele>161.5</ele><time>2026-05-01T09:18:28.999Z</time></trkpt><trkpt lat="43.64232325205304" lon="11.512295111946482"><ele>162.66666666666666</ele><time>2026-05-01T09:18:31.999Z</time></trkpt><trkpt lat="43.64230436658199" lon="11.51240210673736"><ele>163.83333333333334</ele><time>2026-05-01T09:18:34.999Z</time></trkpt><trkpt lat="43.6422946441382" lon="11.512506707039748"><ele>165.0</ele><time>2026-05-01T09:18:37.998Z</time></trkpt><trkpt lat="43.642284408594854" lon="11.512613719585662"><ele>165.0</ele><time>2026-05-01T09:18:40.998Z</time></trkpt><trkpt lat="43.64227504700787" lon="11.512727400840923"><ele>165.0</ele><time>2026-05-01T09:18:43.998Z</time></trkpt><trkpt lat="43.642270429910354" lon="11.512831771188841"><ele>165.0</ele><time>2026-05-01T09:18:46.998Z</time></trkpt><trkpt lat="43.6422572572595" lon="11.512939026007045"><ele>165.0</ele><time>2026-05-01T09:18:49.998Z</time></trkpt><trkpt lat="43.642249172250835" lon="11.513044916160926"><ele>165.0</ele><time>2026-05-01T09:18:52.998Z</time></trkpt><trkpt lat="43.64223934125649" lon="11.51314978939162"><ele>165.0</ele><time>2026-05-01T09:18:55.998Z</time></trkpt><trkpt lat="43.642231236837745" lon="11.513253867973097"><ele>166.0</ele><time>2026-05-01T09:18:58.998Z</time></trkpt><trkpt lat="43.642221637872545" lon="11.513359326012207"><ele>167.0</ele><time>2026-05-01T09:19:02Z</time></trkpt><trkpt lat="43.64220963214104" lon="11.513468228106346"><ele>168.0</ele><time>2026-05-01T09:19:05Z</time></trkpt><trkpt lat="43.64220274578057" lon="11.51358212238121"><ele>169.0</ele><time>2026-05-01T09:19:08Z</time></trkpt><trkpt lat="43.64219596641815" lon="11.513696223194723"><ele>170.0</ele><time>2026-05-01T09:19:11Z</time></trkpt><trkpt lat="43.64219131258097" lon="11.513809851875866"><ele>171.0</ele><time>2026-05-01T09:19:14Z</time></trkpt><trkpt lat="43.642195589188255" lon="11.513925586572869"><ele>171.5</ele><time>2026-05-01T09:19:17Z</time></trkpt><trkpt lat="43.64221083949577" lon="11.51405109898155"><ele>172.0</ele><time>2026-05-01T09:19:20Z</time></trkpt><trkpt lat="43.64222426863228" lon="11.514140161019274"><ele>172.5</ele><time>2026-05-01T09:19:22Z</time></trkpt><trkpt lat="43.64224190607022" lon="11.51423130991758"><ele>173.0</ele><time>2026-05-01T09:19:24Z</time></trkpt><trkpt lat="43.642262640515035" lon="11.51432585053266"><ele>173.5</ele><time>2026-05-01T09:19:26Z</time></trkpt><trkpt lat="43.64229050111728" lon="11.514421537476341"><ele>174.0</ele><time>2026-05-01T09:19:28Z</time></trkpt><trkpt lat="43.64231580468619" lon="11.514524128663183"><ele>173.39999999999998</ele><time>2026-05-01T09:19:30Z</time></trkpt><trkpt lat="43.642338143448455" lon="11.514635718721594"><ele>172.8</ele><time>2026-05-01T09:19:32Z</time></trkpt><trkpt lat="43.642368329979696" lon="11.514749843300706"><ele>172.2</ele><time>2026-05-01T09:19:34Z</time></trkpt><trkpt lat="43.642397641083335" lon="11.514865514335073"><ele>171.60000000000002</ele><time>2026-05-01T09:19:36Z</time></trkpt><trkpt lat="43.642426784494134" lon="11.514988748923212"><ele>171.0</ele><time>2026-05-01T09:19:38Z</time></trkpt><trkpt lat="43.64245937605506" lon="11.51511575801419"><ele>171.0</ele><time>2026-05-01T09:19:40Z</time></trkpt><trkpt lat="43.64248985248103" lon="11.515249668645978"><ele>171.0</ele><time>2026-05-01T09:19:42Z</time></trkpt><trkpt lat="43.64252018443398" lon="11.515383206357635"><ele>171.0</ele><time>2026-05-01T09:19:44Z</time></trkpt><trkpt lat="43.64255552717597" lon="11.51551794148074"><ele>171.0</ele><time>2026-05-01T09:19:46Z</time></trkpt><trkpt lat="43.64259002730217" lon="11.515655798900491"><ele>171.0</ele><time>2026-05-01T09:19:48Z</time></trkpt><trkpt lat="43.6426182950566" lon="11.515797467887568"><ele>171.25</ele><time>2026-05-01T09:19:49.999Z</time></trkpt><trkpt lat="43.64265319990946" lon="11.515943870403332"><ele>171.5</ele><time>2026-05-01T09:19:51.999Z</time></trkpt><trkpt lat="43.64268743790916" lon="11.516091518465295"><ele>171.75</ele><time>2026-05-01T09:19:53.999Z</time></trkpt><trkpt lat="43.64271722657836" lon="11.516246398432932"><ele>172.0</ele><time>2026-05-01T09:19:55.999Z</time></trkpt><trkpt lat="43.6427246248272" lon="11.5164070834359"><ele>172.8</ele><time>2026-05-01T09:19:57.999Z</time></trkpt><trkpt lat="43.6427188408095" lon="11.51656363497862"><ele>173.6</ele><time>2026-05-01T09:19:59.999Z</time></trkpt><trkpt lat="43.6427072092372" lon="11.516719255311264"><ele>174.4</ele><time>2026-05-01T09:20:01.999Z</time></trkpt><trkpt lat="43.64269097694479" lon="11.516865117080515"><ele>175.20000000000002</ele><time>2026-05-01T09:20:03.999Z</time></trkpt><trkpt lat="43.64266703423586" lon="11.517000713704485"><ele>176.0</ele><time>2026-05-01T09:20:05.999Z</time></trkpt><trkpt lat="43.642646343946254" lon="11.51713368127419"><ele>176.5</ele><time>2026-05-01T09:20:07.999Z</time></trkpt><trkpt lat="43.64262512786146" lon="11.517260605792444"><ele>177.0</ele><time>2026-05-01T09:20:09.999Z</time></trkpt><trkpt lat="43.642604979466846" lon="11.517381809555642"><ele>177.5</ele><time>2026-05-01T09:20:11.999Z</time></trkpt><trkpt lat="43.642580586020266" lon="11.517494108920154"><ele>178.0</ele><time>2026-05-01T09:20:13.999Z</time></trkpt><trkpt lat="43.64255571295974" lon="11.517597607559612"><ele>178.5</ele><time>2026-05-01T09:20:15.999Z</time></trkpt><trkpt lat="43.64252745758883" lon="11.517694443566292"><ele>179.0</ele><time>2026-05-01T09:20:17.999Z</time></trkpt><trkpt lat="43.64250216062074" lon="11.517780442765403"><ele>179.0</ele><time>2026-05-01T09:20:19.999Z</time></trkpt><trkpt lat="43.64247367979505" lon="11.517858394975908"><ele>179.0</ele><time>2026-05-01T09:20:21.999Z</time></trkpt><trkpt lat="43.64243171824755" lon="11.51796007347661"><ele>179.0</ele><time>2026-05-01T09:20:24.999Z</time></trkpt><trkpt lat="43.642388931481726" lon="11.518056161085267"><ele>179.0</ele><time>2026-05-01T09:20:27.999Z</time></trkpt><trkpt lat="43.64233554612764" lon="11.518135706194135"><ele>179.0</ele><time>2026-05-01T09:20:30.999Z</time></trkpt><trkpt lat="43.64228819322173" lon="11.518216225767155"><ele>179.0</ele><time>2026-05-01T09:20:33.999Z</time></trkpt><trkpt lat="43.64223660426619" lon="11.518286787949421"><ele>179.71428571428572</ele><time>2026-05-01T09:20:36.999Z</time></trkpt><trkpt lat="43.642181508730026" lon="11.518351801150756"><ele>180.42857142857144</ele><time>2026-05-01T09:20:39.999Z</time></trkpt><trkpt lat="43.642124461263094" lon="11.518411640522189"><ele>181.14285714285717</ele><time>2026-05-01T09:20:42.998Z</time></trkpt><trkpt lat="43.64207391942206" lon="11.518471622520217"><ele>181.85714285714286</ele><time>2026-05-01T09:20:45.998Z</time></trkpt><trkpt lat="43.642020249574394" lon="11.51853103565859"><ele>182.57142857142856</ele><time>2026-05-01T09:20:48.998Z</time></trkpt><trkpt lat="43.641979502342984" lon="11.518602586192149"><ele>183.2857142857143</ele><time>2026-05-01T09:22:11.999Z</time></trkpt><trkpt lat="43.641931497550296" lon="11.51867102575962"><ele>184.0</ele><time>2026-05-01T09:22:14.999Z</time></trkpt><trkpt lat="43.64187652692851" lon="11.518756132763325"><ele>184.85714285714286</ele><time>2026-05-01T09:22:18.999Z</time></trkpt><trkpt lat="43.641838886775496" lon="11.51882804013907"><ele>185.7142857142857</ele><time>2026-05-01T09:22:21.999Z</time></trkpt><trkpt lat="43.64179214461246" lon="11.51891937789228"><ele>186.57142857142856</ele><time>2026-05-01T09:22:25.999Z</time></trkpt><trkpt lat="43.64175042916968" lon="11.518989939019162"><ele>187.42857142857144</ele><time>2026-05-01T09:22:28.999Z</time></trkpt><trkpt lat="43.64170045967374" lon="11.519078966834476"><ele>188.28571428571428</ele><time>2026-05-01T09:22:32.999Z</time></trkpt><trkpt lat="43.64166395175251" lon="11.519152159167522"><ele>189.14285714285714</ele><time>2026-05-01T09:22:35.999Z</time></trkpt><trkpt lat="43.64161920933439" lon="11.51923531046001"><ele>190.0</ele><time>2026-05-01T09:22:39.999Z</time></trkpt><trkpt lat="43.6415834025796" lon="11.519307796433498"><ele>190.0</ele><time>2026-05-01T09:22:42.998Z</time></trkpt><trkpt lat="43.641540873603425" lon="11.519393160760993"><ele>190.0</ele><time>2026-05-01T09:22:46.998Z</time></trkpt><trkpt lat="43.64150891403371" lon="11.51948490111556"><ele>190.0</ele><time>2026-05-01T09:22:49.998Z</time></trkpt><trkpt lat="43.64145604273883" lon="11.519560042516677"><ele>190.0</ele><time>2026-05-01T09:22:53.998Z</time></trkpt><trkpt lat="43.64142080013172" lon="11.519636053311372"><ele>190.0</ele><time>2026-05-01T09:22:56.998Z</time></trkpt><trkpt lat="43.641372476054485" lon="11.519724371077087"><ele>190.0</ele><time>2026-05-01T09:23:00.998Z</time></trkpt><trkpt lat="43.641336093918696" lon="11.519816271717026"><ele>190.0</ele><time>2026-05-01T09:23:04.998Z</time></trkpt><trkpt lat="43.641304245171256" lon="11.519893638492581"><ele>190.57142857142858</ele><time>2026-05-01T09:23:08.998Z</time></trkpt><trkpt lat="43.64127074450016" lon="11.519975127823397"><ele>191.14285714285717</ele><time>2026-05-01T09:23:12.998Z</time></trkpt><trkpt lat="43.64124318491947" lon="11.52005707443861"><ele>191.71428571428572</ele><time>2026-05-01T09:23:17Z</time></trkpt><trkpt lat="43.64121029017743" lon="11.52013830118368"><ele>192.28571428571428</ele><time>2026-05-01T09:23:21Z</time></trkpt><trkpt lat="43.641186978338276" lon="11.520220313785346"><ele>192.85714285714286</ele><time>2026-05-01T09:23:25Z</time></trkpt><trkpt lat="43.64115919773154" lon="11.520314203620568"><ele>193.42857142857142</ele><time>2026-05-01T09:23:29Z</time></trkpt><trkpt lat="43.64112261067505" lon="11.52040083320726"><ele>194.0</ele><time>2026-05-01T09:23:33Z</time></trkpt><trkpt lat="43.64108082360305" lon="11.520483291790592"><ele>196.85714285714286</ele><time>2026-05-01T09:23:37Z</time></trkpt><trkpt lat="43.64103786465697" lon="11.520567310484228"><ele>199.71428571428572</ele><time>2026-05-01T09:23:41Z</time></trkpt><trkpt lat="43.64099881662888" lon="11.520640863929447"><ele>202.57142857142858</ele><time>2026-05-01T09:23:45Z</time></trkpt><trkpt lat="43.640958883878476" lon="11.520729170454395"><ele>205.42857142857144</ele><time>2026-05-01T09:23:50Z</time></trkpt><trkpt lat="43.64091560004815" lon="11.520808673073299"><ele>208.28571428571428</ele><time>2026-05-01T09:23:54Z</time></trkpt><trkpt lat="43.64087359514921" lon="11.520878965699744"><ele>211.14285714285717</ele><time>2026-05-01T09:23:57.999Z</time></trkpt><trkpt lat="43.64083518485074" lon="11.520956347696526"><ele>214.0</ele><time>2026-05-01T09:24:01.999Z</time></trkpt><trkpt lat="43.640790625891235" lon="11.521030366133536"><ele>214.00000000000003</ele><time>2026-05-01T09:24:05.999Z</time></trkpt><trkpt lat="43.64075385187443" lon="11.521112292084009"><ele>214.0</ele><time>2026-05-01T09:24:09.999Z</time></trkpt><trkpt lat="43.640709159124185" lon="11.521183425667687"><ele>214.0</ele><time>2026-05-01T09:24:13.999Z</time></trkpt><trkpt lat="43.64066979913637" lon="11.521261096085325"><ele>214.0</ele><time>2026-05-01T09:24:17.999Z</time></trkpt><trkpt lat="43.64063201696093" lon="11.521331361271631"><ele>214.0</ele><time>2026-05-01T09:24:21.999Z</time></trkpt><trkpt lat="43.64058639278032" lon="11.521412232447922"><ele>214.00000000000003</ele><time>2026-05-01T09:24:25.999Z</time></trkpt><trkpt lat="43.640558771259165" lon="11.521494132614873"><ele>214.0</ele><time>2026-05-01T09:24:29.999Z</time></trkpt><trkpt lat="43.64053154292203" lon="11.52157560054499"><ele>213.00000000000003</ele><time>2026-05-01T09:24:33.999Z</time></trkpt><trkpt lat="43.64050421383332" lon="11.521655851077368"><ele>212.0</ele><time>2026-05-01T09:24:37.999Z</time></trkpt><trkpt lat="43.640481019679726" lon="11.521751015239069"><ele>211.0</ele><time>2026-05-01T09:24:41.999Z</time></trkpt><trkpt lat="43.64046013744685" lon="11.52184698616021"><ele>210.0</ele><time>2026-05-01T09:24:45.999Z</time></trkpt><trkpt lat="43.64043264273445" lon="11.521939835780277"><ele>209.0</ele><time>2026-05-01T09:24:49.999Z</time></trkpt><trkpt lat="43.64042848205463" lon="11.522038423753548"><ele>208.00000000000003</ele><time>2026-05-01T09:24:53.998Z</time></trkpt><trkpt lat="43.64042151062726" lon="11.522136589904326"><ele>207.0</ele><time>2026-05-01T09:24:57.998Z</time></trkpt><trkpt lat="43.64041047313604" lon="11.52223484205713"><ele>207.00000000000003</ele><time>2026-05-01T09:25:01.998Z</time></trkpt><trkpt lat="43.64040230198779" lon="11.52233580727213"><ele>207.0</ele><time>2026-05-01T09:25:05.998Z</time></trkpt><trkpt lat="43.64038952740271" lon="11.522432810032981"><ele>207.0</ele><time>2026-05-01T09:25:09.998Z</time></trkpt><trkpt lat="43.64037742337582" lon="11.522522690681024"><ele>207.0</ele><time>2026-05-01T09:25:13.998Z</time></trkpt><trkpt lat="43.64036760415768" lon="11.522620393358782"><ele>207.0</ele><time>2026-05-01T09:25:17.998Z</time></trkpt><trkpt lat="43.640357856410596" lon="11.522714140129455"><ele>207.00000000000003</ele><time>2026-05-01T09:25:22Z</time></trkpt><trkpt lat="43.640344932324865" lon="11.52280881478516"><ele>207.0</ele><time>2026-05-01T09:25:26Z</time></trkpt><trkpt lat="43.64033208753284" lon="11.522911213049403"><ele>207.57142857142858</ele><time>2026-05-01T09:25:30Z</time></trkpt><trkpt lat="43.64031264122141" lon="11.523012186538763"><ele>208.14285714285714</ele><time>2026-05-01T09:25:34Z</time></trkpt><trkpt lat="43.64029867748458" lon="11.523099063061684"><ele>208.71428571428572</ele><time>2026-05-01T09:25:38Z</time></trkpt><trkpt lat="43.64028496914519" lon="11.523193532175705"><ele>209.28571428571428</ele><time>2026-05-01T09:25:42Z</time></trkpt><trkpt lat="43.64026241929792" lon="11.523278499191587"><ele>209.85714285714286</ele><time>2026-05-01T09:25:46Z</time></trkpt><trkpt lat="43.64023636841048" lon="11.523373906849361"><ele>210.42857142857144</ele><time>2026-05-01T09:25:49.999Z</time></trkpt><trkpt lat="43.64021643342352" lon="11.523464606133084"><ele>211.0</ele><time>2026-05-01T09:25:53.999Z</time></trkpt><trkpt lat="43.64019670324701" lon="11.523559559502399"><ele>213.28571428571428</ele><time>2026-05-01T09:25:57.999Z</time></trkpt><trkpt lat="43.64017293367817" lon="11.523649585372644"><ele>215.57142857142858</ele><time>2026-05-01T09:26:01.999Z</time></trkpt><trkpt lat="43.64015566817176" lon="11.523738789521973"><ele>217.85714285714286</ele><time>2026-05-01T09:26:05.999Z</time></trkpt><trkpt lat="43.640134511473406" lon="11.52382969688043"><ele>220.14285714285717</ele><time>2026-05-01T09:26:09.999Z</time></trkpt><trkpt lat="43.64011426736391" lon="11.523922737501815"><ele>222.42857142857144</ele><time>2026-05-01T09:26:13.999Z</time></trkpt><trkpt lat="43.640094362919335" lon="11.524013834611978"><ele>224.71428571428572</ele><time>2026-05-01T09:26:17.999Z</time></trkpt><trkpt lat="43.64007236080375" lon="11.52410529306684"><ele>227.0</ele><time>2026-05-01T09:26:21.999Z</time></trkpt><trkpt lat="43.64004688006876" lon="11.524196402183923"><ele>227.0</ele><time>2026-05-01T09:26:25.999Z</time></trkpt><trkpt lat="43.64002167194536" lon="11.524293346796865"><ele>227.00000000000003</ele><time>2026-05-01T09:26:29.999Z</time></trkpt><trkpt lat="43.63999474616098" lon="11.524380963503681"><ele>227.0</ele><time>2026-05-01T09:26:33.999Z</time></trkpt><trkpt lat="43.639972910602836" lon="11.524474564238178"><ele>227.0</ele><time>2026-05-01T09:26:37.999Z</time></trkpt><trkpt lat="43.63994991434829" lon="11.52456443415491"><ele>227.00000000000003</ele><time>2026-05-01T09:26:41.999Z</time></trkpt><trkpt lat="43.63992642490978" lon="11.524654748543876"><ele>227.0</ele><time>2026-05-01T09:26:45.998Z</time></trkpt><trkpt lat="43.63990444396902" lon="11.524746748297751"><ele>227.0</ele><time>2026-05-01T09:26:49.998Z</time></trkpt><trkpt lat="43.63988394183772" lon="11.524838881942548"><ele>227.0</ele><time>2026-05-01T09:26:53.998Z</time></trkpt><trkpt lat="43.63986182212207" lon="11.524928028919714"><ele>227.00000000000003</ele><time>2026-05-01T09:26:57.998Z</time></trkpt><trkpt lat="43.639841474249245" lon="11.525020771169038"><ele>227.0</ele><time>2026-05-01T09:27:01.998Z</time></trkpt><trkpt lat="43.63982757321679" lon="11.525114835015822"><ele>227.0</ele><time>2026-05-01T09:27:05.998Z</time></trkpt><trkpt lat="43.639813167490075" lon="11.525206543469647"><ele>227.00000000000003</ele><time>2026-05-01T09:27:09.998Z</time></trkpt><trkpt lat="43.6398080319392" lon="11.525304797563978"><ele>227.0</ele><time>2026-05-01T09:27:13.998Z</time></trkpt><trkpt lat="43.63980152688924" lon="11.525399621264384"><ele>227.0</ele><time>2026-05-01T09:27:17.998Z</time></trkpt><trkpt lat="43.639800916646514" lon="11.52549319453678"><ele>227.42857142857144</ele><time>2026-05-01T09:27:21.998Z</time></trkpt><trkpt lat="43.63979240178099" lon="11.525590443120048"><ele>227.8571428571429</ele><time>2026-05-01T09:27:26Z</time></trkpt><trkpt lat="43.639794258471085" lon="11.525695765220574"><ele>228.28571428571428</ele><time>2026-05-01T09:27:30Z</time></trkpt><trkpt lat="43.63979132870388" lon="11.525791912815857"><ele>228.71428571428572</ele><time>2026-05-01T09:27:34Z</time></trkpt><trkpt lat="43.63978380092243" lon="11.525889856291275"><ele>229.14285714285714</ele><time>2026-05-01T09:27:38Z</time></trkpt><trkpt lat="43.639781576309105" lon="11.525991352975279"><ele>229.57142857142856</ele><time>2026-05-01T09:27:42Z</time></trkpt><trkpt lat="43.63979144886916" lon="11.526089510688642"><ele>229.99999999999997</ele><time>2026-05-01T09:27:46Z</time></trkpt><trkpt lat="43.639792770571475" lon="11.52618635718226"><ele>230.85714285714283</ele><time>2026-05-01T09:27:50Z</time></trkpt><trkpt lat="43.63979967580263" lon="11.526282120318944"><ele>231.71428571428572</ele><time>2026-05-01T09:27:54Z</time></trkpt><trkpt lat="43.63979678283036" lon="11.526375129048693"><ele>232.57142857142856</ele><time>2026-05-01T09:27:58Z</time></trkpt><trkpt lat="43.6397943724353" lon="11.52646682869071"><ele>233.42857142857142</ele><time>2026-05-01T09:28:01.999Z</time></trkpt><trkpt lat="43.63979560316478" lon="11.526558491483522"><ele>234.28571428571428</ele><time>2026-05-01T09:28:05.999Z</time></trkpt><trkpt lat="43.639792571891036" lon="11.52665485704277"><ele>235.14285714285714</ele><time>2026-05-01T09:28:09.999Z</time></trkpt><trkpt lat="43.639792891642614" lon="11.52674411935853"><ele>236.0</ele><time>2026-05-01T09:28:13.999Z</time></trkpt><trkpt lat="43.639800185731744" lon="11.526843115490022"><ele>236.0</ele><time>2026-05-01T09:28:17.999Z</time></trkpt><trkpt lat="43.63980326941602" lon="11.526939536144729"><ele>236.0</ele><time>2026-05-01T09:28:21.999Z</time></trkpt><trkpt lat="43.63980369060729" lon="11.527033899154393"><ele>236.0</ele><time>2026-05-01T09:28:25.999Z</time></trkpt><trkpt lat="43.63980079180633" lon="11.527126092198056"><ele>236.0</ele><time>2026-05-01T09:28:29.999Z</time></trkpt><trkpt lat="43.639801806262845" lon="11.527221670150935"><ele>236.0</ele><time>2026-05-01T09:28:33.999Z</time></trkpt><trkpt lat="43.63979824897552" lon="11.527317043895733"><ele>236.0</ele><time>2026-05-01T09:28:37.999Z</time></trkpt><trkpt lat="43.63979867065647" lon="11.527416431665023"><ele>236.0</ele><time>2026-05-01T09:28:41.999Z</time></trkpt><trkpt lat="43.63980032509664" lon="11.527514867156912"><ele>237.0</ele><time>2026-05-01T09:28:45.999Z</time></trkpt><trkpt lat="43.6397977696661" lon="11.527612315294228"><ele>238.0</ele><time>2026-05-01T09:28:49.999Z</time></trkpt><trkpt lat="43.6397999898612" lon="11.527708742718636"><ele>239.0</ele><time>2026-05-01T09:28:53.999Z</time></trkpt><trkpt lat="43.63980139327543" lon="11.527804787551979"><ele>240.0</ele><time>2026-05-01T09:28:57.999Z</time></trkpt><trkpt lat="43.63979625949348" lon="11.527893874895073"><ele>241.0</ele><time>2026-05-01T09:29:01.998Z</time></trkpt><trkpt lat="43.63980148803257" lon="11.52798819798167"><ele>242.0</ele><time>2026-05-01T09:29:05.998Z</time></trkpt><trkpt lat="43.63980659790554" lon="11.528083207035008"><ele>243.0</ele><time>2026-05-01T09:29:09.998Z</time></trkpt><trkpt lat="43.63980441825785" lon="11.528177755368443"><ele>244.14285714285714</ele><time>2026-05-01T09:29:13.998Z</time></trkpt><trkpt lat="43.639802591090415" lon="11.528271085583262"><ele>245.28571428571428</ele><time>2026-05-01T09:29:17.998Z</time></trkpt><trkpt lat="43.63980687184095" lon="11.52836575406776"><ele>246.42857142857142</ele><time>2026-05-01T09:29:21.998Z</time></trkpt><trkpt lat="43.639803193976036" lon="11.528468908944184"><ele>247.57142857142856</ele><time>2026-05-01T09:29:25.998Z</time></trkpt><trkpt lat="43.639802745560175" lon="11.528572229564944"><ele>248.71428571428572</ele><time>2026-05-01T09:29:29.998Z</time></trkpt><trkpt lat="43.63980032381228" lon="11.528672377067963"><ele>249.85714285714283</ele><time>2026-05-01T09:29:34Z</time></trkpt><trkpt lat="43.6397970252057" lon="11.528767433474153"><ele>250.99999999999997</ele><time>2026-05-01T09:29:38Z</time></trkpt><trkpt lat="43.63979940393803" lon="11.528861498079479"><ele>251.99999999999997</ele><time>2026-05-01T09:29:42Z</time></trkpt><trkpt lat="43.63979551201648" lon="11.528959036282723"><ele>253.0</ele><time>2026-05-01T09:29:46Z</time></trkpt><trkpt lat="43.639795307695586" lon="11.529053127696724"><ele>253.99999999999997</ele><time>2026-05-01T09:29:50Z</time></trkpt><trkpt lat="43.63979767434359" lon="11.529155306122645"><ele>254.99999999999997</ele><time>2026-05-01T09:29:54Z</time></trkpt><trkpt lat="43.639801251941705" lon="11.529256331489014"><ele>256.0</ele><time>2026-05-01T09:29:58Z</time></trkpt><trkpt lat="43.639802216377866" lon="11.529357667510407"><ele>256.99999999999994</ele><time>2026-05-01T09:30:02Z</time></trkpt><trkpt lat="43.63980146993856" lon="11.529454636206179"><ele>258.0</ele><time>2026-05-01T09:30:06Z</time></trkpt><trkpt lat="43.63980094108176" lon="11.52955975384842"><ele>258.2857142857143</ele><time>2026-05-01T09:30:10Z</time></trkpt><trkpt lat="43.63980466632286" lon="11.5296656210666"><ele>258.57142857142856</ele><time>2026-05-01T09:30:14Z</time></trkpt><trkpt lat="43.63980165038426" lon="11.52976462009537"><ele>258.8571428571429</ele><time>2026-05-01T09:30:17.999Z</time></trkpt><trkpt lat="43.63979776396804" lon="11.529859880419309"><ele>259.1428571428571</ele><time>2026-05-01T09:30:21.999Z</time></trkpt><trkpt lat="43.639800324108286" lon="11.529965180735893"><ele>259.42857142857144</ele><time>2026-05-01T09:30:25.999Z</time></trkpt><trkpt lat="43.63979874268415" lon="11.530063838421166"><ele>259.7142857142857</ele><time>2026-05-01T09:30:29.999Z</time></trkpt><trkpt lat="43.63979931585287" lon="11.53016294691401"><ele>260.0</ele><time>2026-05-01T09:30:33.999Z</time></trkpt><trkpt lat="43.63981691633332" lon="11.53026365185355"><ele>260.00000000000006</ele><time>2026-05-01T09:30:37.999Z</time></trkpt><trkpt lat="43.639839655314255" lon="11.530359868312885"><ele>260.0</ele><time>2026-05-01T09:30:41.999Z</time></trkpt><trkpt lat="43.63986209029744" lon="11.530445803025293"><ele>260.0</ele><time>2026-05-01T09:30:45.999Z</time></trkpt><trkpt lat="43.63989330110852" lon="11.53052204677349"><ele>260.0</ele><time>2026-05-01T09:30:49.999Z</time></trkpt><trkpt lat="43.63993086562242" lon="11.530611020378771"><ele>260.0</ele><time>2026-05-01T09:30:53.999Z</time></trkpt><trkpt lat="43.63996471825314" lon="11.530697479132765"><ele>260.00000000000006</ele><time>2026-05-01T09:30:58.999Z</time></trkpt><trkpt lat="43.63999886611834" lon="11.530782140767338"><ele>260.0</ele><time>2026-05-01T09:31:02.999Z</time></trkpt><trkpt lat="43.64003157376989" lon="11.530856643959615"><ele>261.1666666666667</ele><time>2026-05-01T09:31:05.999Z</time></trkpt><trkpt lat="43.64006643144702" lon="11.530953754961747"><ele>262.33333333333337</ele><time>2026-05-01T09:31:09.999Z</time></trkpt><trkpt lat="43.64009381773736" lon="11.53105573940229"><ele>263.5</ele><time>2026-05-01T09:31:13.998Z</time></trkpt><trkpt lat="43.64011294060504" lon="11.531162869896125"><ele>264.6666666666667</ele><time>2026-05-01T09:31:17.998Z</time></trkpt><trkpt lat="43.64013453237286" lon="11.531264219774128"><ele>265.8333333333333</ele><time>2026-05-01T09:31:21.998Z</time></trkpt><trkpt lat="43.64014079318343" lon="11.531365498442353"><ele>267.0</ele><time>2026-05-01T09:31:25.998Z</time></trkpt><trkpt lat="43.64014762084375" lon="11.531478486772698"><ele>268.0</ele><time>2026-05-01T09:31:29.998Z</time></trkpt><trkpt lat="43.640151720328994" lon="11.531588791568755"><ele>269.0</ele><time>2026-05-01T09:31:33.998Z</time></trkpt><trkpt lat="43.64015606624032" lon="11.531698594441528"><ele>270.0</ele><time>2026-05-01T09:31:38Z</time></trkpt><trkpt lat="43.64014993067186" lon="11.531786786796552"><ele>271.0</ele><time>2026-05-01T09:31:41Z</time></trkpt><trkpt lat="43.64014402735821" lon="11.531901564833902"><ele>272.0</ele><time>2026-05-01T09:31:45Z</time></trkpt><trkpt lat="43.640139346208144" lon="11.532018421400869"><ele>273.0</ele><time>2026-05-01T09:31:49Z</time></trkpt><trkpt lat="43.640126350362" lon="11.53210587593277"><ele>273.7142857142857</ele><time>2026-05-01T09:31:52Z</time></trkpt><trkpt lat="43.64010309192909" lon="11.532215267336326"><ele>274.42857142857144</ele><time>2026-05-01T09:31:56Z</time></trkpt><trkpt lat="43.6400906092493" lon="11.532303640943582"><ele>275.1428571428571</ele><time>2026-05-01T09:31:59Z</time></trkpt><trkpt lat="43.64007935238454" lon="11.532393976616685"><ele>275.8571428571429</ele><time>2026-05-01T09:32:02Z</time></trkpt><trkpt lat="43.64007285058251" lon="11.53248722783003"><ele>276.57142857142856</ele><time>2026-05-01T09:32:05Z</time></trkpt><trkpt lat="43.64007525524072" lon="11.532583200416546"><ele>277.2857142857143</ele><time>2026-05-01T09:32:08Z</time></trkpt><trkpt lat="43.640077704389796" lon="11.532681614445067"><ele>278.0</ele><time>2026-05-01T09:32:11Z</time></trkpt><trkpt lat="43.64008831417402" lon="11.532780000518844"><ele>278.0</ele><time>2026-05-01T09:32:14Z</time></trkpt><trkpt lat="43.64009509125859" lon="11.532879755248606"><ele>278.0</ele><time>2026-05-01T09:32:17Z</time></trkpt><trkpt lat="43.640101879333294" lon="11.532981379217999"><ele>278.0</ele><time>2026-05-01T09:32:20Z</time></trkpt><trkpt lat="43.64011655216618" lon="11.53307926319801"><ele>278.0</ele><time>2026-05-01T09:32:23Z</time></trkpt><trkpt lat="43.6401171496164" lon="11.533181271173245"><ele>278.0</ele><time>2026-05-01T09:32:25.999Z</time></trkpt><trkpt lat="43.6401232497597" lon="11.533289518060634"><ele>278.0</ele><time>2026-05-01T09:32:28.999Z</time></trkpt><trkpt lat="43.640126448566214" lon="11.533393994179226"><ele>278.0</ele><time>2026-05-01T09:32:31.999Z</time></trkpt><trkpt lat="43.64012741261007" lon="11.533498604971179"><ele>278.5</ele><time>2026-05-01T09:32:34.999Z</time></trkpt><trkpt lat="43.64012703757929" lon="11.533604023703017"><ele>279.0</ele><time>2026-05-01T09:32:37.999Z</time></trkpt><trkpt lat="43.640123494090865" lon="11.533696452564985"><ele>279.5</ele><time>2026-05-01T09:32:40.999Z</time></trkpt><trkpt lat="43.640120954686736" lon="11.533802516702496"><ele>280.0</ele><time>2026-05-01T09:32:43.999Z</time></trkpt><trkpt lat="43.640112719117944" lon="11.533909768487387"><ele>280.5</ele><time>2026-05-01T09:32:46.999Z</time></trkpt><trkpt lat="43.64010676779354" lon="11.53402124556012"><ele>281.0</ele><time>2026-05-01T09:32:49.999Z</time></trkpt><trkpt lat="43.64009608914169" lon="11.534127200718407"><ele>281.1666666666667</ele><time>2026-05-01T09:32:52.999Z</time></trkpt><trkpt lat="43.64009288618418" lon="11.534232200917437"><ele>281.33333333333337</ele><time>2026-05-01T09:32:55.999Z</time></trkpt><trkpt lat="43.64008805184377" lon="11.534342906988185"><ele>281.5</ele><time>2026-05-01T09:32:58.999Z</time></trkpt><trkpt lat="43.64007692473149" lon="11.534467382044381"><ele>281.6666666666667</ele><time>2026-05-01T09:33:01.999Z</time></trkpt><trkpt lat="43.64007580252453" lon="11.534557991581547"><ele>281.8333333333333</ele><time>2026-05-01T09:33:03.999Z</time></trkpt><trkpt lat="43.64006864323665" lon="11.534680039736196"><ele>282.0</ele><time>2026-05-01T09:33:06.999Z</time></trkpt><trkpt lat="43.64005587810843" lon="11.534787847869655"><ele>282.5</ele><time>2026-05-01T09:33:09.999Z</time></trkpt><trkpt lat="43.640053571958305" lon="11.534886189016685"><ele>283.0</ele><time>2026-05-01T09:33:12.999Z</time></trkpt><trkpt lat="43.64004167709665" lon="11.53498937547743"><ele>283.5</ele><time>2026-05-01T09:33:15.998Z</time></trkpt><trkpt lat="43.64001981877127" lon="11.535094203400055"><ele>284.0</ele><time>2026-05-01T09:33:18.998Z</time></trkpt><trkpt lat="43.64000212886953" lon="11.53519524834854"><ele>284.5</ele><time>2026-05-01T09:33:21.998Z</time></trkpt><trkpt lat="43.639981406272234" lon="11.535301127424841"><ele>285.0</ele><time>2026-05-01T09:33:24.998Z</time></trkpt><trkpt lat="43.63995173437153" lon="11.535400410693763"><ele>285.6666666666667</ele><time>2026-05-01T09:33:27.998Z</time></trkpt><trkpt lat="43.63992786953295" lon="11.535493570140483"><ele>286.3333333333333</ele><time>2026-05-01T09:33:30.998Z</time></trkpt><trkpt lat="43.63989932622531" lon="11.535595120364707"><ele>287.0</ele><time>2026-05-01T09:33:33.998Z</time></trkpt><trkpt lat="43.639870073507645" lon="11.535696607119862"><ele>287.66666666666663</ele><time>2026-05-01T09:33:36.998Z</time></trkpt><trkpt lat="43.63983692180108" lon="11.53579923328295"><ele>288.3333333333333</ele><time>2026-05-01T09:33:39.998Z</time></trkpt><trkpt lat="43.6398125094067" lon="11.535896885166384"><ele>289.0</ele><time>2026-05-01T09:33:42.998Z</time></trkpt><trkpt lat="43.63978343987108" lon="11.53599270373746"><ele>289.0</ele><time>2026-05-01T09:33:46Z</time></trkpt><trkpt lat="43.63975775815031" lon="11.536086149283465"><ele>289.0</ele><time>2026-05-01T09:33:49Z</time></trkpt><trkpt lat="43.63972713824191" lon="11.536182480862474"><ele>289.0</ele><time>2026-05-01T09:33:52Z</time></trkpt><trkpt lat="43.63969813034524" lon="11.536282586568039"><ele>289.0</ele><time>2026-05-01T09:33:55Z</time></trkpt><trkpt lat="43.639672572189" lon="11.536376852150642"><ele>289.0</ele><time>2026-05-01T09:33:58Z</time></trkpt><trkpt lat="43.63964596895822" lon="11.536471113227362"><ele>289.0</ele><time>2026-05-01T09:34:01Z</time></trkpt><trkpt lat="43.63961634167212" lon="11.536571043925417"><ele>289.2857142857143</ele><time>2026-05-01T09:34:04Z</time></trkpt><trkpt lat="43.63958923345491" lon="11.536667391235888"><ele>289.57142857142856</ele><time>2026-05-01T09:34:07Z</time></trkpt><trkpt lat="43.639560721451545" lon="11.536758767368292"><ele>289.85714285714283</ele><time>2026-05-01T09:34:10Z</time></trkpt><trkpt lat="43.63953217935632" lon="11.536861330667726"><ele>290.1428571428571</ele><time>2026-05-01T09:34:14Z</time></trkpt><trkpt lat="43.639507869671355" lon="11.536946451541727"><ele>290.4285714285714</ele><time>2026-05-01T09:34:17Z</time></trkpt><trkpt lat="43.639480187331166" lon="11.537053342063196"><ele>290.7142857142857</ele><time>2026-05-01T09:34:21Z</time></trkpt><trkpt lat="43.639455821569754" lon="11.537148874240566"><ele>291.0</ele><time>2026-05-01T09:34:24Z</time></trkpt><trkpt lat="43.63942505912506" lon="11.537241973020608"><ele>291.6666666666667</ele><time>2026-05-01T09:34:27Z</time></trkpt><trkpt lat="43.63940248435183" lon="11.537328274821192"><ele>292.3333333333333</ele><time>2026-05-01T09:34:28.999Z</time></trkpt><trkpt lat="43.639373747618606" lon="11.537428692785774"><ele>293.0</ele><time>2026-05-01T09:34:31.999Z</time></trkpt><trkpt lat="43.63934863501358" lon="11.537532418141467"><ele>293.66666666666663</ele><time>2026-05-01T09:34:34.999Z</time></trkpt><trkpt lat="43.63931620307564" lon="11.537628605226045"><ele>294.3333333333333</ele><time>2026-05-01T09:34:37.999Z</time></trkpt><trkpt lat="43.63928766311175" lon="11.53772950423266"><ele>295.0</ele><time>2026-05-01T09:34:40.999Z</time></trkpt><trkpt lat="43.63925672847979" lon="11.53783106563751"><ele>295.3333333333333</ele><time>2026-05-01T09:34:43.999Z</time></trkpt><trkpt lat="43.63923173376244" lon="11.537952513625688"><ele>295.66666666666663</ele><time>2026-05-01T09:34:46.999Z</time></trkpt><trkpt lat="43.63920221349118" lon="11.538038675888915"><ele>296.0</ele><time>2026-05-01T09:34:49.999Z</time></trkpt><trkpt lat="43.63916912576425" lon="11.538143146131828"><ele>296.3333333333333</ele><time>2026-05-01T09:34:52.999Z</time></trkpt><trkpt lat="43.639137463154206" lon="11.538246851879459"><ele>296.6666666666667</ele><time>2026-05-01T09:34:55.999Z</time></trkpt><trkpt lat="43.63910588709991" lon="11.538354264233607"><ele>297.0</ele><time>2026-05-01T09:34:58.999Z</time></trkpt><trkpt lat="43.639074659003505" lon="11.538462538177884"><ele>297.0</ele><time>2026-05-01T09:35:01.999Z</time></trkpt><trkpt lat="43.63904242632835" lon="11.538568708325545"><ele>297.0</ele><time>2026-05-01T09:35:04.999Z</time></trkpt><trkpt lat="43.63900813961648" lon="11.538681560318635"><ele>297.0</ele><time>2026-05-01T09:35:07.999Z</time></trkpt><trkpt lat="43.63897939137374" lon="11.538787540054718"><ele>297.0</ele><time>2026-05-01T09:35:10.999Z</time></trkpt><trkpt lat="43.63894982065188" lon="11.538893928776906"><ele>297.0</ele><time>2026-05-01T09:35:13.999Z</time></trkpt><trkpt lat="43.63891770160047" lon="11.539001655341016"><ele>297.0</ele><time>2026-05-01T09:35:16.999Z</time></trkpt><trkpt lat="43.63889007620515" lon="11.539112076338167"><ele>297.5</ele><time>2026-05-01T09:35:19.998Z</time></trkpt><trkpt lat="43.63886631965116" lon="11.539218586515997"><ele>298.0</ele><time>2026-05-01T09:35:22.998Z</time></trkpt><trkpt lat="43.6388418925724" lon="11.539322238810556"><ele>298.5</ele><time>2026-05-01T09:35:25.998Z</time></trkpt><trkpt lat="43.63881949327184" lon="11.539423579050279"><ele>299.0</ele><time>2026-05-01T09:35:28.998Z</time></trkpt><trkpt lat="43.63880406718353" lon="11.539531863488827"><ele>299.5</ele><time>2026-05-01T09:35:31.998Z</time></trkpt><trkpt lat="43.63876163940046" lon="11.53962708061446"><ele>300.0</ele><time>2026-05-01T09:35:34.998Z</time></trkpt><trkpt lat="43.638690668444696" lon="11.53969379244577"><ele>299.8333333333333</ele><time>2026-05-01T09:35:37.998Z</time></trkpt><trkpt lat="43.63862698381716" lon="11.539782012587226"><ele>299.6666666666667</ele><time>2026-05-01T09:35:40.998Z</time></trkpt><trkpt lat="43.63859153201725" lon="11.539900627677136"><ele>299.5</ele><time>2026-05-01T09:35:43.998Z</time></trkpt><trkpt lat="43.638599230200604" lon="11.539994438683506"><ele>299.33333333333337</ele><time>2026-05-01T09:35:45.998Z</time></trkpt><trkpt lat="43.63862579390216" lon="11.540086552114701"><ele>299.1666666666667</ele><time>2026-05-01T09:35:47.998Z</time></trkpt><trkpt lat="43.638662686933024" lon="11.540163402557763"><ele>299.0</ele><time>2026-05-01T09:35:50Z</time></trkpt><trkpt lat="43.63870523950461" lon="11.540228041180907"><ele>299.6666666666667</ele><time>2026-05-01T09:35:52Z</time></trkpt><trkpt lat="43.63874336801252" lon="11.54034149670551"><ele>300.33333333333337</ele><time>2026-05-01T09:35:55Z</time></trkpt><trkpt lat="43.638779050140656" lon="11.540458598768488"><ele>301.0</ele><time>2026-05-01T09:35:58Z</time></trkpt><trkpt lat="43.63881538685902" lon="11.540579004071725"><ele>301.6666666666667</ele><time>2026-05-01T09:36:01Z</time></trkpt><trkpt lat="43.63884288509076" lon="11.540659082466822"><ele>302.3333333333333</ele><time>2026-05-01T09:36:03Z</time></trkpt><trkpt lat="43.63886149998467" lon="11.54074257322188"><ele>303.0</ele><time>2026-05-01T09:36:05Z</time></trkpt><trkpt lat="43.63887724121559" lon="11.54087110880029"><ele>303.42857142857144</ele><time>2026-05-01T09:36:08Z</time></trkpt><trkpt lat="43.63888002036972" lon="11.54096262233824"><ele>303.85714285714283</ele><time>2026-05-01T09:36:10Z</time></trkpt><trkpt lat="43.63888756116306" lon="11.541050197323068"><ele>304.2857142857143</ele><time>2026-05-01T09:36:12Z</time></trkpt><trkpt lat="43.63889799526281" lon="11.541177197566762"><ele>304.7142857142857</ele><time>2026-05-01T09:36:15Z</time></trkpt><trkpt lat="43.63889974071715" lon="11.541279491520982"><ele>305.14285714285717</ele><time>2026-05-01T09:36:18Z</time></trkpt><trkpt lat="43.63891287049892" lon="11.541381456928443"><ele>305.57142857142856</ele><time>2026-05-01T09:36:22Z</time></trkpt><trkpt lat="43.638940993982956" lon="11.541478064259593"><ele>306.0</ele><time>2026-05-01T09:36:25Z</time></trkpt><trkpt lat="43.63895386285301" lon="11.541594289169032"><ele>306.3333333333333</ele><time>2026-05-01T09:36:28Z</time></trkpt><trkpt lat="43.63897700013463" lon="11.541706213193072"><ele>306.6666666666667</ele><time>2026-05-01T09:36:30.999Z</time></trkpt><trkpt lat="43.63900732807682" lon="11.541822496306839"><ele>307.0</ele><time>2026-05-01T09:36:33.999Z</time></trkpt><trkpt lat="43.63904101446972" lon="11.541943486495754"><ele>307.33333333333337</ele><time>2026-05-01T09:36:36.999Z</time></trkpt><trkpt lat="43.63907025640636" lon="11.542062695795137"><ele>307.6666666666667</ele><time>2026-05-01T09:36:39.999Z</time></trkpt><trkpt lat="43.63909654963731" lon="11.542145340052196"><ele>308.0</ele><time>2026-05-01T09:36:41.999Z</time></trkpt><trkpt lat="43.639133036598736" lon="11.542255161327429"><ele>308.33333333333337</ele><time>2026-05-01T09:36:44.999Z</time></trkpt><trkpt lat="43.639169656444615" lon="11.542362757711519"><ele>308.6666666666667</ele><time>2026-05-01T09:36:47.999Z</time></trkpt><trkpt lat="43.63921925326895" lon="11.542463867485887"><ele>309.0</ele><time>2026-05-01T09:36:50.999Z</time></trkpt><trkpt lat="43.63925926690882" lon="11.542561220508098"><ele>309.3333333333333</ele><time>2026-05-01T09:36:53.999Z</time></trkpt><trkpt lat="43.6393092941307" lon="11.542647959940485"><ele>309.66666666666663</ele><time>2026-05-01T09:36:56.999Z</time></trkpt><trkpt lat="43.63935246249362" lon="11.54273901380924"><ele>310.0</ele><time>2026-05-01T09:36:59.999Z</time></trkpt><trkpt lat="43.63939569008786" lon="11.54283375958707"><ele>310.42857142857144</ele><time>2026-05-01T09:37:02.999Z</time></trkpt><trkpt lat="43.63944124986275" lon="11.542917971589489"><ele>310.85714285714283</ele><time>2026-05-01T09:37:05.999Z</time></trkpt><trkpt lat="43.63946705001983" lon="11.54300945883922"><ele>311.2857142857143</ele><time>2026-05-01T09:37:08.999Z</time></trkpt><trkpt lat="43.63947393517183" lon="11.543105061337526"><ele>311.7142857142857</ele><time>2026-05-01T09:37:11.999Z</time></trkpt><trkpt lat="43.63948823487054" lon="11.543191585891444"><ele>312.14285714285717</ele><time>2026-05-01T09:37:13.999Z</time></trkpt><trkpt lat="43.63948001489749" lon="11.543283906323536"><ele>312.57142857142856</ele><time>2026-05-01T09:37:16.999Z</time></trkpt><trkpt lat="43.63949350476363" lon="11.54339017751362"><ele>313.0</ele><time>2026-05-01T09:37:19.998Z</time></trkpt><trkpt lat="43.639509235560915" lon="11.543512677497949"><ele>313.66666666666663</ele><time>2026-05-01T09:37:23.998Z</time></trkpt><trkpt lat="43.63951769326718" lon="11.54361396449678"><ele>314.3333333333333</ele><time>2026-05-01T09:37:25.998Z</time></trkpt><trkpt lat="43.639528971610524" lon="11.543723932026671"><ele>315.0</ele><time>2026-05-01T09:37:28.998Z</time></trkpt><trkpt lat="43.639565073475666" lon="11.543829771070168"><ele>315.6666666666667</ele><time>2026-05-01T09:37:31.998Z</time></trkpt><trkpt lat="43.63962922032025" lon="11.54389204145218"><ele>316.33333333333337</ele><time>2026-05-01T09:37:33.998Z</time></trkpt><trkpt lat="43.63965117606493" lon="11.543984666442014"><ele>317.0</ele><time>2026-05-01T09:37:36.998Z</time></trkpt><trkpt lat="43.63969568605636" lon="11.544066693105052"><ele>317.14285714285717</ele><time>2026-05-01T09:37:39.998Z</time></trkpt><trkpt lat="43.6397323784123" lon="11.544158479409592"><ele>317.2857142857143</ele><time>2026-05-01T09:37:43.998Z</time></trkpt><trkpt lat="43.6397733026453" lon="11.544225291292383"><ele>317.42857142857144</ele><time>2026-05-01T09:37:46.998Z</time></trkpt><trkpt lat="43.63982007741893" lon="11.544320805253475"><ele>317.57142857142856</ele><time>2026-05-01T09:37:50.998Z</time></trkpt><trkpt lat="43.6398631379653" lon="11.544396476342248"><ele>317.7142857142857</ele><time>2026-05-01T09:37:53.998Z</time></trkpt><trkpt lat="43.63987765407509" lon="11.544487774148562"><ele>317.85714285714283</ele><time>2026-05-01T09:37:57Z</time></trkpt><trkpt lat="43.63989460700729" lon="11.544580440360363"><ele>318.0</ele><time>2026-05-01T09:38:00Z</time></trkpt><trkpt lat="43.63992148794022" lon="11.54467056611839"><ele>318.3333333333333</ele><time>2026-05-01T09:38:03Z</time></trkpt><trkpt lat="43.63995104329196" lon="11.544770101139253"><ele>318.6666666666667</ele><time>2026-05-01T09:38:06Z</time></trkpt><trkpt lat="43.63997755260848" lon="11.54487142417346"><ele>319.0</ele><time>2026-05-01T09:38:09Z</time></trkpt><trkpt lat="43.63999328358451" lon="11.544975790658418"><ele>319.33333333333337</ele><time>2026-05-01T09:38:12Z</time></trkpt><trkpt lat="43.64001478781801" lon="11.545075563656837"><ele>319.6666666666667</ele><time>2026-05-01T09:38:15Z</time></trkpt><trkpt lat="43.64005117681103" lon="11.545181069451136"><ele>320.0</ele><time>2026-05-01T09:38:18Z</time></trkpt><trkpt lat="43.64009110254038" lon="11.545280540105669"><ele>320.33333333333337</ele><time>2026-05-01T09:38:21Z</time></trkpt><trkpt lat="43.6401455854481" lon="11.545384319901826"><ele>320.6666666666667</ele><time>2026-05-01T09:38:24Z</time></trkpt><trkpt lat="43.6401967259651" lon="11.545497854877388"><ele>321.0</ele><time>2026-05-01T09:38:27Z</time></trkpt><trkpt lat="43.64023722204952" lon="11.545565734392321"><ele>321.3333333333333</ele><time>2026-05-01T09:38:29Z</time></trkpt><trkpt lat="43.640286728661735" lon="11.545669537216657"><ele>321.66666666666663</ele><time>2026-05-01T09:38:32Z</time></trkpt><trkpt lat="43.64033025618494" lon="11.545743887483535"><ele>322.0</ele><time>2026-05-01T09:38:34Z</time></trkpt><trkpt lat="43.64039885230204" lon="11.545804135783202"><ele>322.5</ele><time>2026-05-01T09:38:35.999Z</time></trkpt><trkpt lat="43.64044252462944" lon="11.545899591044703"><ele>323.0</ele><time>2026-05-01T09:38:38.999Z</time></trkpt><trkpt lat="43.640508776736105" lon="11.545971617364401"><ele>323.5</ele><time>2026-05-01T09:38:41.999Z</time></trkpt><trkpt lat="43.64048257972044" lon="11.546051849755356"><ele>324.0</ele><time>2026-05-01T09:38:43.999Z</time></trkpt><trkpt lat="43.64043327540469" lon="11.54612207628601"><ele>324.5</ele><time>2026-05-01T09:38:45.999Z</time></trkpt><trkpt lat="43.64037480851272" lon="11.54621076833776"><ele>325.0</ele><time>2026-05-01T09:38:48.999Z</time></trkpt><trkpt lat="43.640333455398014" lon="11.546284715944898"><ele>324.3333333333333</ele><time>2026-05-01T09:38:50.999Z</time></trkpt><trkpt lat="43.640279843223695" lon="11.546394855577939"><ele>323.66666666666663</ele><time>2026-05-01T09:38:53.999Z</time></trkpt><trkpt lat="43.64023543793174" lon="11.546507069889408"><ele>323.0</ele><time>2026-05-01T09:38:56.999Z</time></trkpt><trkpt lat="43.64021239360538" lon="11.546590032690068"><ele>322.3333333333333</ele><time>2026-05-01T09:38:58.999Z</time></trkpt><trkpt lat="43.64019209507298" lon="11.546688895558638"><ele>321.6666666666667</ele><time>2026-05-01T09:39:01.999Z</time></trkpt><trkpt lat="43.64021144368049" lon="11.546797722232965"><ele>321.0</ele><time>2026-05-01T09:39:05.999Z</time></trkpt><trkpt lat="43.6402696586176" lon="11.546850144191778"><ele>321.8333333333333</ele><time>2026-05-01T09:39:07.999Z</time></trkpt><trkpt lat="43.640335385478224" lon="11.546879704702926"><ele>322.6666666666667</ele><time>2026-05-01T09:39:09.999Z</time></trkpt><trkpt lat="43.64039169751218" lon="11.546922790122919"><ele>323.5</ele><time>2026-05-01T09:39:11.999Z</time></trkpt><trkpt lat="43.64047523746632" lon="11.546980268160985"><ele>324.33333333333337</ele><time>2026-05-01T09:39:14.999Z</time></trkpt><trkpt lat="43.640555308333326" lon="11.547037069035955"><ele>325.1666666666667</ele><time>2026-05-01T09:39:17.999Z</time></trkpt><trkpt lat="43.64064034849594" lon="11.547088961326601"><ele>326.0</ele><time>2026-05-01T09:39:20.999Z</time></trkpt><trkpt lat="43.640725340416886" lon="11.54712999832155"><ele>326.0</ele><time>2026-05-01T09:39:23.998Z</time></trkpt><trkpt lat="43.64078804760247" lon="11.547177501580727"><ele>326.0</ele><time>2026-05-01T09:39:26.998Z</time></trkpt><trkpt lat="43.64085248323829" lon="11.547164328775898"><ele>326.0</ele><time>2026-05-01T09:39:29.998Z</time></trkpt><trkpt lat="43.6408340208521" lon="11.547073295742361"><ele>326.0</ele><time>2026-05-01T09:39:54.998Z</time></trkpt></trkseg></trk></gpx>